<?xml version="1.0" encoding="UTF-8"?>
<TrainingCenterDatabase xmlns="http://www.garmin.com/xmlschemas/TrainingCenterDatabase/v2" xmlns:xsi="http://www.w3.org/2001/XMLSchema-instance" xsi:schemaLocation="http://www.garmin.com/xmlschemas/TrainingCenterDatabase/v2 http://www.garmin.com/xmlschemas/TrainingCenterDatabasev2.xsd">
  <Activities>
    <Activity Sport="Other">
      <Id>2019-07-19T07:25:12.000Z</Id>
      <Lap StartTime="2019-07-19T07:25:12.000Z">
        <TotalTimeSeconds>14521</TotalTimeSeconds>
        <DistanceMeters>77170</DistanceMeters>
        <Track>
          <Trackpoint>
            <Time>2019-07-19T07:25:12.000Z</Time>
            <Position>
              <LatitudeDegrees>40.4834468476474285125732421875</LatitudeDegrees>
              <LongitudeDegrees>-3.3529367856681346893310546875</LongitudeDegrees>
            </Position>
            <AltitudeMeters>630.5999755859375</AltitudeMeters>
            <DistanceMeters>0</DistanceMeters>
          </Trackpoint>
          <Trackpoint>
            <Time>2019-07-19T07:25:17.000Z</Time>
            <Position>
              <LatitudeDegrees>40.48351935110986232757568359375</LatitudeDegrees>
              <LongitudeDegrees>-3.352970145642757415771484375</LongitudeDegrees>
            </Position>
            <AltitudeMeters>630.5999755859375</AltitudeMeters>
            <DistanceMeters>8.5502923277666</DistanceMeters>
          </Trackpoint>
          <Trackpoint>
            <Time>2019-07-19T07:25:20.000Z</Time>
            <Position>
              <LatitudeDegrees>40.48356243409216403961181640625</LatitudeDegrees>
              <LongitudeDegrees>-3.352980874478816986083984375</LongitudeDegrees>
            </Position>
            <AltitudeMeters>630.79998779296875</AltitudeMeters>
            <DistanceMeters>13.431003511514</DistanceMeters>
          </Trackpoint>
          <Trackpoint>
            <Time>2019-07-19T07:25:34.000Z</Time>
            <Position>
              <LatitudeDegrees>40.48384540714323520660400390625</LatitudeDegrees>
              <LongitudeDegrees>-3.35326124913990497589111328125</LongitudeDegrees>
            </Position>
            <AltitudeMeters>630.5999755859375</AltitudeMeters>
            <DistanceMeters>52.868463831396</DistanceMeters>
          </Trackpoint>
          <Trackpoint>
            <Time>2019-07-19T07:25:38.000Z</Time>
            <Position>
              <LatitudeDegrees>40.48398119397461414337158203125</LatitudeDegrees>
              <LongitudeDegrees>-3.35319503210484981536865234375</LongitudeDegrees>
            </Position>
            <AltitudeMeters>630.4000244140625</AltitudeMeters>
            <DistanceMeters>68.988031123198</DistanceMeters>
          </Trackpoint>
          <Trackpoint>
            <Time>2019-07-19T07:25:45.000Z</Time>
            <Position>
              <LatitudeDegrees>40.48423918895423412322998046875</LatitudeDegrees>
              <LongitudeDegrees>-3.35297257639467716217041015625</LongitudeDegrees>
            </Position>
            <AltitudeMeters>630</AltitudeMeters>
            <DistanceMeters>103.32766700638</DistanceMeters>
          </Trackpoint>
          <Trackpoint>
            <Time>2019-07-19T07:25:47.000Z</Time>
            <Position>
              <LatitudeDegrees>40.48432837240397930145263671875</LatitudeDegrees>
              <LongitudeDegrees>-3.3529052697122097015380859375</LongitudeDegrees>
            </Position>
            <AltitudeMeters>630</AltitudeMeters>
            <DistanceMeters>114.77316039778</DistanceMeters>
          </Trackpoint>
          <Trackpoint>
            <Time>2019-07-19T07:25:59.000Z</Time>
            <Position>
              <LatitudeDegrees>40.484777726233005523681640625</LatitudeDegrees>
              <LongitudeDegrees>-3.3524409122765064239501953125</LongitudeDegrees>
            </Position>
            <AltitudeMeters>629.79998779296875</AltitudeMeters>
            <DistanceMeters>178.38657263934</DistanceMeters>
          </Trackpoint>
          <Trackpoint>
            <Time>2019-07-19T07:26:01.000Z</Time>
            <Position>
              <LatitudeDegrees>40.484849475324153900146484375</LatitudeDegrees>
              <LongitudeDegrees>-3.352364636957645416259765625</LongitudeDegrees>
            </Position>
            <AltitudeMeters>629.5999755859375</AltitudeMeters>
            <DistanceMeters>188.65605474844</DistanceMeters>
          </Trackpoint>
          <Trackpoint>
            <Time>2019-07-19T07:26:13.000Z</Time>
            <Position>
              <LatitudeDegrees>40.48532565124332904815673828125</LatitudeDegrees>
              <LongitudeDegrees>-3.3519664965569972991943359375</LongitudeDegrees>
            </Position>
            <AltitudeMeters>629.79998779296875</AltitudeMeters>
            <DistanceMeters>251.4643999377</DistanceMeters>
          </Trackpoint>
          <Trackpoint>
            <Time>2019-07-19T07:26:20.000Z</Time>
            <Position>
              <LatitudeDegrees>40.4855617694556713104248046875</LatitudeDegrees>
              <LongitudeDegrees>-3.35174043662846088409423828125</LongitudeDegrees>
            </Position>
            <AltitudeMeters>630</AltitudeMeters>
            <DistanceMeters>283.97395417836</DistanceMeters>
          </Trackpoint>
          <Trackpoint>
            <Time>2019-07-19T07:26:22.000Z</Time>
            <Position>
              <LatitudeDegrees>40.48561013303697109222412109375</LatitudeDegrees>
              <LongitudeDegrees>-3.35165376774966716766357421875</LongitudeDegrees>
            </Position>
            <AltitudeMeters>630</AltitudeMeters>
            <DistanceMeters>293.07322727651</DistanceMeters>
          </Trackpoint>
          <Trackpoint>
            <Time>2019-07-19T07:26:24.000Z</Time>
            <Position>
              <LatitudeDegrees>40.485662519931793212890625</LatitudeDegrees>
              <LongitudeDegrees>-3.3515584655106067657470703125</LongitudeDegrees>
            </Position>
            <AltitudeMeters>630.20001220703125</AltitudeMeters>
            <DistanceMeters>303.02702046017</DistanceMeters>
          </Trackpoint>
          <Trackpoint>
            <Time>2019-07-19T07:26:26.000Z</Time>
            <Position>
              <LatitudeDegrees>40.485731922090053558349609375</LatitudeDegrees>
              <LongitudeDegrees>-3.351495265960693359375</LongitudeDegrees>
            </Position>
            <AltitudeMeters>630</AltitudeMeters>
            <DistanceMeters>312.42362024248</DistanceMeters>
          </Trackpoint>
          <Trackpoint>
            <Time>2019-07-19T07:26:36.000Z</Time>
            <Position>
              <LatitudeDegrees>40.48616065643727779388427734375</LatitudeDegrees>
              <LongitudeDegrees>-3.3512659370899200439453125</LongitudeDegrees>
            </Position>
            <AltitudeMeters>629.79998779296875</AltitudeMeters>
            <DistanceMeters>363.94028314995</DistanceMeters>
          </Trackpoint>
          <Trackpoint>
            <Time>2019-07-19T07:26:37.000Z</Time>
            <Position>
              <LatitudeDegrees>40.48619552515447139739990234375</LatitudeDegrees>
              <LongitudeDegrees>-3.3512278832495212554931640625</LongitudeDegrees>
            </Position>
            <AltitudeMeters>629.79998779296875</AltitudeMeters>
            <DistanceMeters>368.98386574</DistanceMeters>
          </Trackpoint>
          <Trackpoint>
            <Time>2019-07-19T07:26:51.000Z</Time>
            <Position>
              <LatitudeDegrees>40.4866722039878368377685546875</LatitudeDegrees>
              <LongitudeDegrees>-3.35082580335438251495361328125</LongitudeDegrees>
            </Position>
            <AltitudeMeters>630.4000244140625</AltitudeMeters>
            <DistanceMeters>432.01845986451</DistanceMeters>
          </Trackpoint>
          <Trackpoint>
            <Time>2019-07-19T07:26:54.000Z</Time>
            <Position>
              <LatitudeDegrees>40.48671662807464599609375</LatitudeDegrees>
              <LongitudeDegrees>-3.35075967013835906982421875</LongitudeDegrees>
            </Position>
            <AltitudeMeters>630.5999755859375</AltitudeMeters>
            <DistanceMeters>439.48758379378</DistanceMeters>
          </Trackpoint>
          <Trackpoint>
            <Time>2019-07-19T07:27:00.000Z</Time>
            <Position>
              <LatitudeDegrees>40.4868455417454242706298828125</LatitudeDegrees>
              <LongitudeDegrees>-3.35062044672667980194091796875</LongitudeDegrees>
            </Position>
            <AltitudeMeters>631</AltitudeMeters>
            <DistanceMeters>458.05552171457</DistanceMeters>
          </Trackpoint>
          <Trackpoint>
            <Time>2019-07-19T07:27:03.000Z</Time>
            <Position>
              <LatitudeDegrees>40.4869444482028484344482421875</LatitudeDegrees>
              <LongitudeDegrees>-3.35050075314939022064208984375</LongitudeDegrees>
            </Position>
            <AltitudeMeters>630.79998779296875</AltitudeMeters>
            <DistanceMeters>473.01702447898</DistanceMeters>
          </Trackpoint>
          <Trackpoint>
            <Time>2019-07-19T07:27:12.000Z</Time>
            <Position>
              <LatitudeDegrees>40.48740905709564685821533203125</LatitudeDegrees>
              <LongitudeDegrees>-3.3500202186405658721923828125</LongitudeDegrees>
            </Position>
            <AltitudeMeters>630.5999755859375</AltitudeMeters>
            <DistanceMeters>538.81058719874</DistanceMeters>
          </Trackpoint>
          <Trackpoint>
            <Time>2019-07-19T07:27:13.000Z</Time>
            <Position>
              <LatitudeDegrees>40.4874852485954761505126953125</LatitudeDegrees>
              <LongitudeDegrees>-3.3499819971621036529541015625</LongitudeDegrees>
            </Position>
            <AltitudeMeters>630.4000244140625</AltitudeMeters>
            <DistanceMeters>547.88700650363</DistanceMeters>
          </Trackpoint>
          <Trackpoint>
            <Time>2019-07-19T07:27:16.000Z</Time>
            <Position>
              <LatitudeDegrees>40.487715415656566619873046875</LatitudeDegrees>
              <LongitudeDegrees>-3.34989842958748340606689453125</LongitudeDegrees>
            </Position>
            <AltitudeMeters>629.79998779296875</AltitudeMeters>
            <DistanceMeters>574.46392467424</DistanceMeters>
          </Trackpoint>
          <Trackpoint>
            <Time>2019-07-19T07:27:18.000Z</Time>
            <Position>
              <LatitudeDegrees>40.4878310859203338623046875</LatitudeDegrees>
              <LongitudeDegrees>-3.34980748593807220458984375</LongitudeDegrees>
            </Position>
            <AltitudeMeters>629.79998779296875</AltitudeMeters>
            <DistanceMeters>589.46460715561</DistanceMeters>
          </Trackpoint>
          <Trackpoint>
            <Time>2019-07-19T07:27:27.000Z</Time>
            <Position>
              <LatitudeDegrees>40.4881568066775798797607421875</LatitudeDegrees>
              <LongitudeDegrees>-3.349241875112056732177734375</LongitudeDegrees>
            </Position>
            <AltitudeMeters>630.4000244140625</AltitudeMeters>
            <DistanceMeters>649.52036293664</DistanceMeters>
          </Trackpoint>
          <Trackpoint>
            <Time>2019-07-19T07:27:38.000Z</Time>
            <Position>
              <LatitudeDegrees>40.4884679429233074188232421875</LatitudeDegrees>
              <LongitudeDegrees>-3.348582051694393157958984375</LongitudeDegrees>
            </Position>
            <AltitudeMeters>630.79998779296875</AltitudeMeters>
            <DistanceMeters>715.23867036749</DistanceMeters>
          </Trackpoint>
          <Trackpoint>
            <Time>2019-07-19T07:27:43.000Z</Time>
            <Position>
              <LatitudeDegrees>40.4886422865092754364013671875</LatitudeDegrees>
              <LongitudeDegrees>-3.34827301092445850372314453125</LongitudeDegrees>
            </Position>
            <AltitudeMeters>630.79998779296875</AltitudeMeters>
            <DistanceMeters>747.81024633637</DistanceMeters>
          </Trackpoint>
          <Trackpoint>
            <Time>2019-07-19T07:27:46.000Z</Time>
            <Position>
              <LatitudeDegrees>40.48871277831494808197021484375</LatitudeDegrees>
              <LongitudeDegrees>-3.3480692468583583831787109375</LongitudeDegrees>
            </Position>
            <AltitudeMeters>630.5999755859375</AltitudeMeters>
            <DistanceMeters>766.75920223482</DistanceMeters>
          </Trackpoint>
          <Trackpoint>
            <Time>2019-07-19T07:27:54.000Z</Time>
            <Position>
              <LatitudeDegrees>40.4889135248959064483642578125</LatitudeDegrees>
              <LongitudeDegrees>-3.3475834317505359649658203125</LongitudeDegrees>
            </Position>
            <AltitudeMeters>631</AltitudeMeters>
            <DistanceMeters>813.56079967245</DistanceMeters>
          </Trackpoint>
          <Trackpoint>
            <Time>2019-07-19T07:27:55.000Z</Time>
            <Position>
              <LatitudeDegrees>40.48893724568188190460205078125</LatitudeDegrees>
              <LongitudeDegrees>-3.3475281111896038055419921875</LongitudeDegrees>
            </Position>
            <AltitudeMeters>631</AltitudeMeters>
            <DistanceMeters>818.93632240244</DistanceMeters>
          </Trackpoint>
          <Trackpoint>
            <Time>2019-07-19T07:28:04.000Z</Time>
            <Position>
              <LatitudeDegrees>40.48915416933596134185791015625</LatitudeDegrees>
              <LongitudeDegrees>-3.3470251969993114471435546875</LongitudeDegrees>
            </Position>
            <AltitudeMeters>631.5999755859375</AltitudeMeters>
            <DistanceMeters>867.87729446772</DistanceMeters>
          </Trackpoint>
          <Trackpoint>
            <Time>2019-07-19T07:28:06.000Z</Time>
            <Position>
              <LatitudeDegrees>40.489186607301235198974609375</LatitudeDegrees>
              <LongitudeDegrees>-3.34692134521901607513427734375</LongitudeDegrees>
            </Position>
            <AltitudeMeters>631.5999755859375</AltitudeMeters>
            <DistanceMeters>877.38091612435</DistanceMeters>
          </Trackpoint>
          <Trackpoint>
            <Time>2019-07-19T07:28:09.000Z</Time>
            <Position>
              <LatitudeDegrees>40.489232204854488372802734375</LatitudeDegrees>
              <LongitudeDegrees>-3.34676393307745456695556640625</LongitudeDegrees>
            </Position>
            <AltitudeMeters>631.79998779296875</AltitudeMeters>
            <DistanceMeters>891.63935717025</DistanceMeters>
          </Trackpoint>
          <Trackpoint>
            <Time>2019-07-19T07:28:21.000Z</Time>
            <Position>
              <LatitudeDegrees>40.489473603665828704833984375</LatitudeDegrees>
              <LongitudeDegrees>-3.3461201190948486328125</LongitudeDegrees>
            </Position>
            <AltitudeMeters>632</AltitudeMeters>
            <DistanceMeters>952.40030329257</DistanceMeters>
          </Trackpoint>
          <Trackpoint>
            <Time>2019-07-19T07:28:22.000Z</Time>
            <Position>
              <LatitudeDegrees>40.48949078656733036041259765625</LatitudeDegrees>
              <LongitudeDegrees>-3.34606203250586986541748046875</LongitudeDegrees>
            </Position>
            <AltitudeMeters>631.79998779296875</AltitudeMeters>
            <DistanceMeters>957.67578389629</DistanceMeters>
          </Trackpoint>
          <Trackpoint>
            <Time>2019-07-19T07:28:33.000Z</Time>
            <Position>
              <LatitudeDegrees>40.48969077877700328826904296875</LatitudeDegrees>
              <LongitudeDegrees>-3.34538343362510204315185546875</LongitudeDegrees>
            </Position>
            <AltitudeMeters>631.20001220703125</AltitudeMeters>
            <DistanceMeters>1019.2798519199</DistanceMeters>
          </Trackpoint>
          <Trackpoint>
            <Time>2019-07-19T07:28:41.000Z</Time>
            <Position>
              <LatitudeDegrees>40.4898427426815032958984375</LatitudeDegrees>
              <LongitudeDegrees>-3.3449173159897327423095703125</LongitudeDegrees>
            </Position>
            <AltitudeMeters>632.4000244140625</AltitudeMeters>
            <DistanceMeters>1062.2081635631</DistanceMeters>
          </Trackpoint>
          <Trackpoint>
            <Time>2019-07-19T07:28:43.000Z</Time>
            <Position>
              <LatitudeDegrees>40.48991893418133258819580078125</LatitudeDegrees>
              <LongitudeDegrees>-3.3448331616818904876708984375</LongitudeDegrees>
            </Position>
            <AltitudeMeters>632</AltitudeMeters>
            <DistanceMeters>1073.2835668702</DistanceMeters>
          </Trackpoint>
          <Trackpoint>
            <Time>2019-07-19T07:28:45.000Z</Time>
            <Position>
              <LatitudeDegrees>40.490024127066135406494140625</LatitudeDegrees>
              <LongitudeDegrees>-3.34486777894198894500732421875</LongitudeDegrees>
            </Position>
            <AltitudeMeters>632</AltitudeMeters>
            <DistanceMeters>1085.3530819057</DistanceMeters>
          </Trackpoint>
          <Trackpoint>
            <Time>2019-07-19T07:28:48.000Z</Time>
            <Position>
              <LatitudeDegrees>40.490168966352939605712890625</LatitudeDegrees>
              <LongitudeDegrees>-3.3449920825660228729248046875</LongitudeDegrees>
            </Position>
            <AltitudeMeters>633</AltitudeMeters>
            <DistanceMeters>1104.6039088298</DistanceMeters>
          </Trackpoint>
          <Trackpoint>
            <Time>2019-07-19T07:28:59.000Z</Time>
            <Position>
              <LatitudeDegrees>40.49065419472754001617431640625</LatitudeDegrees>
              <LongitudeDegrees>-3.3454403467476367950439453125</LongitudeDegrees>
            </Position>
            <AltitudeMeters>632.79998779296875</AltitudeMeters>
            <DistanceMeters>1170.6077435666</DistanceMeters>
          </Trackpoint>
          <Trackpoint>
            <Time>2019-07-19T07:29:09.000Z</Time>
            <Position>
              <LatitudeDegrees>40.491112433373928070068359375</LatitudeDegrees>
              <LongitudeDegrees>-3.3458389900624752044677734375</LongitudeDegrees>
            </Position>
            <AltitudeMeters>632.5999755859375</AltitudeMeters>
            <DistanceMeters>1231.7626579259</DistanceMeters>
          </Trackpoint>
          <Trackpoint>
            <Time>2019-07-19T07:29:20.000Z</Time>
            <Position>
              <LatitudeDegrees>40.49158140085637569427490234375</LatitudeDegrees>
              <LongitudeDegrees>-3.34624023176729679107666015625</LongitudeDegrees>
            </Position>
            <AltitudeMeters>632.5999755859375</AltitudeMeters>
            <DistanceMeters>1294.0364850077</DistanceMeters>
          </Trackpoint>
          <Trackpoint>
            <Time>2019-07-19T07:29:31.000Z</Time>
            <Position>
              <LatitudeDegrees>40.49208230338990688323974609375</LatitudeDegrees>
              <LongitudeDegrees>-3.34663820452988147735595703125</LongitudeDegrees>
            </Position>
            <AltitudeMeters>633.5999755859375</AltitudeMeters>
            <DistanceMeters>1359.1747851012</DistanceMeters>
          </Trackpoint>
          <Trackpoint>
            <Time>2019-07-19T07:29:40.000Z</Time>
            <Position>
              <LatitudeDegrees>40.4924952797591686248779296875</LatitudeDegrees>
              <LongitudeDegrees>-3.34695520810782909393310546875</LongitudeDegrees>
            </Position>
            <AltitudeMeters>633.4000244140625</AltitudeMeters>
            <DistanceMeters>1412.3986531574</DistanceMeters>
          </Trackpoint>
          <Trackpoint>
            <Time>2019-07-19T07:29:42.000Z</Time>
            <Position>
              <LatitudeDegrees>40.4925893247127532958984375</LatitudeDegrees>
              <LongitudeDegrees>-3.34701522253453731536865234375</LongitudeDegrees>
            </Position>
            <AltitudeMeters>633.5999755859375</AltitudeMeters>
            <DistanceMeters>1424.033897291</DistanceMeters>
          </Trackpoint>
          <Trackpoint>
            <Time>2019-07-19T07:29:44.000Z</Time>
            <Position>
              <LatitudeDegrees>40.49266283400356769561767578125</LatitudeDegrees>
              <LongitudeDegrees>-3.34711496718227863311767578125</LongitudeDegrees>
            </Position>
            <AltitudeMeters>634</AltitudeMeters>
            <DistanceMeters>1435.7907412607</DistanceMeters>
          </Trackpoint>
          <Trackpoint>
            <Time>2019-07-19T07:29:54.000Z</Time>
            <Position>
              <LatitudeDegrees>40.49297397024929523468017578125</LatitudeDegrees>
              <LongitudeDegrees>-3.3477012813091278076171875</LongitudeDegrees>
            </Position>
            <AltitudeMeters>633.5999755859375</AltitudeMeters>
            <DistanceMeters>1496.3065702811</DistanceMeters>
          </Trackpoint>
          <Trackpoint>
            <Time>2019-07-19T07:30:04.000Z</Time>
            <Position>
              <LatitudeDegrees>40.4932982660830020904541015625</LatitudeDegrees>
              <LongitudeDegrees>-3.34828801453113555908203125</LongitudeDegrees>
            </Position>
            <AltitudeMeters>633.79998779296875</AltitudeMeters>
            <DistanceMeters>1557.7008881668</DistanceMeters>
          </Trackpoint>
          <Trackpoint>
            <Time>2019-07-19T07:30:14.000Z</Time>
            <Position>
              <LatitudeDegrees>40.4935560934245586395263671875</LatitudeDegrees>
              <LongitudeDegrees>-3.34846244193613529205322265625</LongitudeDegrees>
            </Position>
            <AltitudeMeters>634.5999755859375</AltitudeMeters>
            <DistanceMeters>1589.9729173355</DistanceMeters>
          </Trackpoint>
          <Trackpoint>
            <Time>2019-07-19T07:30:16.000Z</Time>
            <Position>
              <LatitudeDegrees>40.49362859688699245452880859375</LatitudeDegrees>
              <LongitudeDegrees>-3.348531089723110198974609375</LongitudeDegrees>
            </Position>
            <AltitudeMeters>634.5999755859375</AltitudeMeters>
            <DistanceMeters>1599.916726317</DistanceMeters>
          </Trackpoint>
          <Trackpoint>
            <Time>2019-07-19T07:30:20.000Z</Time>
            <Position>
              <LatitudeDegrees>40.4937475360929965972900390625</LatitudeDegrees>
              <LongitudeDegrees>-3.34876117296516895294189453125</LongitudeDegrees>
            </Position>
            <AltitudeMeters>634.5999755859375</AltitudeMeters>
            <DistanceMeters>1623.4649520309</DistanceMeters>
          </Trackpoint>
          <Trackpoint>
            <Time>2019-07-19T07:30:27.000Z</Time>
            <Position>
              <LatitudeDegrees>40.4940479435026645660400390625</LatitudeDegrees>
              <LongitudeDegrees>-3.349105753004550933837890625</LongitudeDegrees>
            </Position>
            <AltitudeMeters>632.79998779296875</AltitudeMeters>
            <DistanceMeters>1667.8340840409</DistanceMeters>
          </Trackpoint>
          <Trackpoint>
            <Time>2019-07-19T07:30:36.000Z</Time>
            <Position>
              <LatitudeDegrees>40.49448288045823574066162109375</LatitudeDegrees>
              <LongitudeDegrees>-3.34959265775978565216064453125</LongitudeDegrees>
            </Position>
            <AltitudeMeters>633</AltitudeMeters>
            <DistanceMeters>1731.4102938757</DistanceMeters>
          </Trackpoint>
          <Trackpoint>
            <Time>2019-07-19T07:30:39.000Z</Time>
            <Position>
              <LatitudeDegrees>40.49468773417174816131591796875</LatitudeDegrees>
              <LongitudeDegrees>-3.34980824030935764312744140625</LongitudeDegrees>
            </Position>
            <AltitudeMeters>631.4000244140625</AltitudeMeters>
            <DistanceMeters>1760.61350448</DistanceMeters>
          </Trackpoint>
          <Trackpoint>
            <Time>2019-07-19T07:30:41.000Z</Time>
            <Position>
              <LatitudeDegrees>40.49483743496239185333251953125</LatitudeDegrees>
              <LongitudeDegrees>-3.3499776385724544525146484375</LongitudeDegrees>
            </Position>
            <AltitudeMeters>629.79998779296875</AltitudeMeters>
            <DistanceMeters>1782.5950958792</DistanceMeters>
          </Trackpoint>
          <Trackpoint>
            <Time>2019-07-19T07:30:43.000Z</Time>
            <Position>
              <LatitudeDegrees>40.494987554848194122314453125</LatitudeDegrees>
              <LongitudeDegrees>-3.35014351643621921539306640625</LongitudeDegrees>
            </Position>
            <AltitudeMeters>628.20001220703125</AltitudeMeters>
            <DistanceMeters>1804.4194037059</DistanceMeters>
          </Trackpoint>
          <Trackpoint>
            <Time>2019-07-19T07:30:50.000Z</Time>
            <Position>
              <LatitudeDegrees>40.4954646527767181396484375</LatitudeDegrees>
              <LongitudeDegrees>-3.35053981281816959381103515625</LongitudeDegrees>
            </Position>
            <AltitudeMeters>629.4000244140625</AltitudeMeters>
            <DistanceMeters>1867.2281802094</DistanceMeters>
          </Trackpoint>
          <Trackpoint>
            <Time>2019-07-19T07:30:52.000Z</Time>
            <Position>
              <LatitudeDegrees>40.4955526627600193023681640625</LatitudeDegrees>
              <LongitudeDegrees>-3.35062363184988498687744140625</LongitudeDegrees>
            </Position>
            <AltitudeMeters>630.5999755859375</AltitudeMeters>
            <DistanceMeters>1879.3231063519</DistanceMeters>
          </Trackpoint>
          <Trackpoint>
            <Time>2019-07-19T07:30:54.000Z</Time>
            <Position>
              <LatitudeDegrees>40.495640672743320465087890625</LatitudeDegrees>
              <LongitudeDegrees>-3.35069621913135051727294921875</LongitudeDegrees>
            </Position>
            <AltitudeMeters>632</AltitudeMeters>
            <DistanceMeters>1890.8859482097</DistanceMeters>
          </Trackpoint>
          <Trackpoint>
            <Time>2019-07-19T07:30:55.000Z</Time>
            <Position>
              <LatitudeDegrees>40.49568794667720794677734375</LatitudeDegrees>
              <LongitudeDegrees>-3.35072077810764312744140625</LongitudeDegrees>
            </Position>
            <AltitudeMeters>632.5999755859375</AltitudeMeters>
            <DistanceMeters>1896.542233284</DistanceMeters>
          </Trackpoint>
          <Trackpoint>
            <Time>2019-07-19T07:30:56.000Z</Time>
            <Position>
              <LatitudeDegrees>40.49573698081076145172119140625</LatitudeDegrees>
              <LongitudeDegrees>-3.35073611699044704437255859375</LongitudeDegrees>
            </Position>
            <AltitudeMeters>633.20001220703125</AltitudeMeters>
            <DistanceMeters>1902.1520297515</DistanceMeters>
          </Trackpoint>
          <Trackpoint>
            <Time>2019-07-19T07:30:57.000Z</Time>
            <Position>
              <LatitudeDegrees>40.495785176753997802734375</LatitudeDegrees>
              <LongitudeDegrees>-3.35075723938643932342529296875</LongitudeDegrees>
            </Position>
            <AltitudeMeters>633.5999755859375</AltitudeMeters>
            <DistanceMeters>1907.8075165355</DistanceMeters>
          </Trackpoint>
          <Trackpoint>
            <Time>2019-07-19T07:30:59.000Z</Time>
            <Position>
              <LatitudeDegrees>40.49585960805416107177734375</LatitudeDegrees>
              <LongitudeDegrees>-3.3508547209203243255615234375</LongitudeDegrees>
            </Position>
            <AltitudeMeters>634</AltitudeMeters>
            <DistanceMeters>1919.500050793</DistanceMeters>
          </Trackpoint>
          <Trackpoint>
            <Time>2019-07-19T07:31:01.000Z</Time>
            <Position>
              <LatitudeDegrees>40.49592758528888225555419921875</LatitudeDegrees>
              <LongitudeDegrees>-3.3509801141917705535888671875</LongitudeDegrees>
            </Position>
            <AltitudeMeters>634</AltitudeMeters>
            <DistanceMeters>1932.5343078956</DistanceMeters>
          </Trackpoint>
          <Trackpoint>
            <Time>2019-07-19T07:31:11.000Z</Time>
            <Position>
              <LatitudeDegrees>40.496351458132266998291015625</LatitudeDegrees>
              <LongitudeDegrees>-3.3514736406505107879638671875</LongitudeDegrees>
            </Position>
            <AltitudeMeters>633.79998779296875</AltitudeMeters>
            <DistanceMeters>1995.5474099737</DistanceMeters>
          </Trackpoint>
          <Trackpoint>
            <Time>2019-07-19T07:31:21.000Z</Time>
            <Position>
              <LatitudeDegrees>40.49668162129819393157958984375</LatitudeDegrees>
              <LongitudeDegrees>-3.352098427712917327880859375</LongitudeDegrees>
            </Position>
            <AltitudeMeters>633</AltitudeMeters>
            <DistanceMeters>2059.9434182746</DistanceMeters>
          </Trackpoint>
          <Trackpoint>
            <Time>2019-07-19T07:31:31.000Z</Time>
            <Position>
              <LatitudeDegrees>40.4968639276921749114990234375</LatitudeDegrees>
              <LongitudeDegrees>-3.3528177626430988311767578125</LongitudeDegrees>
            </Position>
            <AltitudeMeters>633.5999755859375</AltitudeMeters>
            <DistanceMeters>2124.1193142598</DistanceMeters>
          </Trackpoint>
          <Trackpoint>
            <Time>2019-07-19T07:31:41.000Z</Time>
            <Position>
              <LatitudeDegrees>40.497013293206691741943359375</LatitudeDegrees>
              <LongitudeDegrees>-3.35353709757328033447265625</LongitudeDegrees>
            </Position>
            <AltitudeMeters>633.5999755859375</AltitudeMeters>
            <DistanceMeters>2187.2317914701</DistanceMeters>
          </Trackpoint>
          <Trackpoint>
            <Time>2019-07-19T07:31:47.000Z</Time>
            <Position>
              <LatitudeDegrees>40.49710339866578578948974609375</LatitudeDegrees>
              <LongitudeDegrees>-3.35394990630447864532470703125</LongitudeDegrees>
            </Position>
            <AltitudeMeters>634.20001220703125</AltitudeMeters>
            <DistanceMeters>2223.5822113562</DistanceMeters>
          </Trackpoint>
          <Trackpoint>
            <Time>2019-07-19T07:31:48.000Z</Time>
            <Position>
              <LatitudeDegrees>40.49712250940501689910888671875</LatitudeDegrees>
              <LongitudeDegrees>-3.35400757379829883575439453125</LongitudeDegrees>
            </Position>
            <AltitudeMeters>634.4000244140625</AltitudeMeters>
            <DistanceMeters>2228.9071000906</DistanceMeters>
          </Trackpoint>
          <Trackpoint>
            <Time>2019-07-19T07:31:52.000Z</Time>
            <Position>
              <LatitudeDegrees>40.4972362518310546875</LatitudeDegrees>
              <LongitudeDegrees>-3.35412324406206607818603515625</LongitudeDegrees>
            </Position>
            <AltitudeMeters>634.5999755859375</AltitudeMeters>
            <DistanceMeters>2244.9105693427</DistanceMeters>
          </Trackpoint>
          <Trackpoint>
            <Time>2019-07-19T07:31:55.000Z</Time>
            <Position>
              <LatitudeDegrees>40.497314371168613433837890625</LatitudeDegrees>
              <LongitudeDegrees>-3.3542581088840961456298828125</LongitudeDegrees>
            </Position>
            <AltitudeMeters>634.79998779296875</AltitudeMeters>
            <DistanceMeters>2259.2592885511</DistanceMeters>
          </Trackpoint>
          <Trackpoint>
            <Time>2019-07-19T07:32:01.000Z</Time>
            <Position>
              <LatitudeDegrees>40.49741185270249843597412109375</LatitudeDegrees>
              <LongitudeDegrees>-3.354509063065052032470703125</LongitudeDegrees>
            </Position>
            <AltitudeMeters>635</AltitudeMeters>
            <DistanceMeters>2283.1104259625</DistanceMeters>
          </Trackpoint>
          <Trackpoint>
            <Time>2019-07-19T07:32:02.000Z</Time>
            <Position>
              <LatitudeDegrees>40.4974312148988246917724609375</LatitudeDegrees>
              <LongitudeDegrees>-3.35456379689276218414306640625</LongitudeDegrees>
            </Position>
            <AltitudeMeters>635.20001220703125</AltitudeMeters>
            <DistanceMeters>2288.2198242637</DistanceMeters>
          </Trackpoint>
          <Trackpoint>
            <Time>2019-07-19T07:32:13.000Z</Time>
            <Position>
              <LatitudeDegrees>40.49765492789447307586669921875</LatitudeDegrees>
              <LongitudeDegrees>-3.3552516996860504150390625</LongitudeDegrees>
            </Position>
            <AltitudeMeters>634.5999755859375</AltitudeMeters>
            <DistanceMeters>2351.5432766761</DistanceMeters>
          </Trackpoint>
          <Trackpoint>
            <Time>2019-07-19T07:32:14.000Z</Time>
            <Position>
              <LatitudeDegrees>40.497673116624355316162109375</LatitudeDegrees>
              <LongitudeDegrees>-3.35532051511108875274658203125</LongitudeDegrees>
            </Position>
            <AltitudeMeters>634.5999755859375</AltitudeMeters>
            <DistanceMeters>2357.70903874</DistanceMeters>
          </Trackpoint>
          <Trackpoint>
            <Time>2019-07-19T07:32:19.000Z</Time>
            <Position>
              <LatitudeDegrees>40.497773028910160064697265625</LatitudeDegrees>
              <LongitudeDegrees>-3.3556800149381160736083984375</LongitudeDegrees>
            </Position>
            <AltitudeMeters>634.20001220703125</AltitudeMeters>
            <DistanceMeters>2390.1046477684</DistanceMeters>
          </Trackpoint>
          <Trackpoint>
            <Time>2019-07-19T07:32:29.000Z</Time>
            <Position>
              <LatitudeDegrees>40.497959442436695098876953125</LatitudeDegrees>
              <LongitudeDegrees>-3.35631293244659900665283203125</LongitudeDegrees>
            </Position>
            <AltitudeMeters>635.20001220703125</AltitudeMeters>
            <DistanceMeters>2447.5509492748</DistanceMeters>
          </Trackpoint>
          <Trackpoint>
            <Time>2019-07-19T07:32:38.000Z</Time>
            <Position>
              <LatitudeDegrees>40.49810319207608699798583984375</LatitudeDegrees>
              <LongitudeDegrees>-3.35679120384156703948974609375</LongitudeDegrees>
            </Position>
            <AltitudeMeters>636.4000244140625</AltitudeMeters>
            <DistanceMeters>2491.077748819</DistanceMeters>
          </Trackpoint>
          <Trackpoint>
            <Time>2019-07-19T07:32:42.000Z</Time>
            <Position>
              <LatitudeDegrees>40.49816957674920558929443359375</LatitudeDegrees>
              <LongitudeDegrees>-3.3569637872278690338134765625</LongitudeDegrees>
            </Position>
            <AltitudeMeters>638.20001220703125</AltitudeMeters>
            <DistanceMeters>2507.4471864513</DistanceMeters>
          </Trackpoint>
          <Trackpoint>
            <Time>2019-07-19T07:32:46.000Z</Time>
            <Position>
              <LatitudeDegrees>40.49823663197457790374755859375</LatitudeDegrees>
              <LongitudeDegrees>-3.35713989101350307464599609375</LongitudeDegrees>
            </Position>
            <AltitudeMeters>639.5999755859375</AltitudeMeters>
            <DistanceMeters>2524.1161831872</DistanceMeters>
          </Trackpoint>
          <Trackpoint>
            <Time>2019-07-19T07:32:49.000Z</Time>
            <Position>
              <LatitudeDegrees>40.4983066208660602569580078125</LatitudeDegrees>
              <LongitudeDegrees>-3.357259333133697509765625</LongitudeDegrees>
            </Position>
            <AltitudeMeters>640.4000244140625</AltitudeMeters>
            <DistanceMeters>2536.8784513563</DistanceMeters>
          </Trackpoint>
          <Trackpoint>
            <Time>2019-07-19T07:32:53.000Z</Time>
            <Position>
              <LatitudeDegrees>40.49842924810945987701416015625</LatitudeDegrees>
              <LongitudeDegrees>-3.3573926053941249847412109375</LongitudeDegrees>
            </Position>
            <AltitudeMeters>640.5999755859375</AltitudeMeters>
            <DistanceMeters>2554.5850674682</DistanceMeters>
          </Trackpoint>
          <Trackpoint>
            <Time>2019-07-19T07:32:58.000Z</Time>
            <Position>
              <LatitudeDegrees>40.49857777543365955352783203125</LatitudeDegrees>
              <LongitudeDegrees>-3.3575508557260036468505859375</LongitudeDegrees>
            </Position>
            <AltitudeMeters>642</AltitudeMeters>
            <DistanceMeters>2575.8612920425</DistanceMeters>
          </Trackpoint>
          <Trackpoint>
            <Time>2019-07-19T07:33:11.000Z</Time>
            <Position>
              <LatitudeDegrees>40.49899519421160221099853515625</LatitudeDegrees>
              <LongitudeDegrees>-3.35802619345486164093017578125</LongitudeDegrees>
            </Position>
            <AltitudeMeters>642.79998779296875</AltitudeMeters>
            <DistanceMeters>2637.318676255</DistanceMeters>
          </Trackpoint>
          <Trackpoint>
            <Time>2019-07-19T07:33:13.000Z</Time>
            <Position>
              <LatitudeDegrees>40.4990673623979091644287109375</LatitudeDegrees>
              <LongitudeDegrees>-3.35809844546020030975341796875</LongitudeDegrees>
            </Position>
            <AltitudeMeters>642.79998779296875</AltitudeMeters>
            <DistanceMeters>2647.4138950613</DistanceMeters>
          </Trackpoint>
          <Trackpoint>
            <Time>2019-07-19T07:33:14.000Z</Time>
            <Position>
              <LatitudeDegrees>40.4991062544286251068115234375</LatitudeDegrees>
              <LongitudeDegrees>-3.35812744684517383575439453125</LongitudeDegrees>
            </Position>
            <AltitudeMeters>643</AltitudeMeters>
            <DistanceMeters>2652.3898843709</DistanceMeters>
          </Trackpoint>
          <Trackpoint>
            <Time>2019-07-19T07:33:15.000Z</Time>
            <Position>
              <LatitudeDegrees>40.499140284955501556396484375</LatitudeDegrees>
              <LongitudeDegrees>-3.35815946571528911590576171875</LongitudeDegrees>
            </Position>
            <AltitudeMeters>643.20001220703125</AltitudeMeters>
            <DistanceMeters>2657.0471629344</DistanceMeters>
          </Trackpoint>
          <Trackpoint>
            <Time>2019-07-19T07:33:21.000Z</Time>
            <Position>
              <LatitudeDegrees>40.49930582754313945770263671875</LatitudeDegrees>
              <LongitudeDegrees>-3.3584034629166126251220703125</LongitudeDegrees>
            </Position>
            <AltitudeMeters>643.4000244140625</AltitudeMeters>
            <DistanceMeters>2684.7229491767</DistanceMeters>
          </Trackpoint>
          <Trackpoint>
            <Time>2019-07-19T07:33:23.000Z</Time>
            <Position>
              <LatitudeDegrees>40.49936391413211822509765625</LatitudeDegrees>
              <LongitudeDegrees>-3.35849273018538951873779296875</LongitudeDegrees>
            </Position>
            <AltitudeMeters>643.4000244140625</AltitudeMeters>
            <DistanceMeters>2694.6667581583</DistanceMeters>
          </Trackpoint>
          <Trackpoint>
            <Time>2019-07-19T07:33:29.000Z</Time>
            <Position>
              <LatitudeDegrees>40.499542616307735443115234375</LatitudeDegrees>
              <LongitudeDegrees>-3.358757011592388153076171875</LongitudeDegrees>
            </Position>
            <AltitudeMeters>644</AltitudeMeters>
            <DistanceMeters>2724.5985139423</DistanceMeters>
          </Trackpoint>
          <Trackpoint>
            <Time>2019-07-19T07:33:32.000Z</Time>
            <Position>
              <LatitudeDegrees>40.49963071011006832122802734375</LatitudeDegrees>
              <LongitudeDegrees>-3.3588995039463043212890625</LongitudeDegrees>
            </Position>
            <AltitudeMeters>644</AltitudeMeters>
            <DistanceMeters>2740.1411200631</DistanceMeters>
          </Trackpoint>
          <Trackpoint>
            <Time>2019-07-19T07:33:34.000Z</Time>
            <Position>
              <LatitudeDegrees>40.49968988634645938873291015625</LatitudeDegrees>
              <LongitudeDegrees>-3.359001763164997100830078125</LongitudeDegrees>
            </Position>
            <AltitudeMeters>644</AltitudeMeters>
            <DistanceMeters>2751.0170095136</DistanceMeters>
          </Trackpoint>
          <Trackpoint>
            <Time>2019-07-19T07:33:43.000Z</Time>
            <Position>
              <LatitudeDegrees>40.4999390803277492523193359375</LatitudeDegrees>
              <LongitudeDegrees>-3.3594273962080478668212890625</LongitudeDegrees>
            </Position>
            <AltitudeMeters>645</AltitudeMeters>
            <DistanceMeters>2796.4807134732</DistanceMeters>
          </Trackpoint>
          <Trackpoint>
            <Time>2019-07-19T07:33:54.000Z</Time>
            <Position>
              <LatitudeDegrees>40.500229932367801666259765625</LatitudeDegrees>
              <LongitudeDegrees>-3.35991295985877513885498046875</LongitudeDegrees>
            </Position>
            <AltitudeMeters>645.79998779296875</AltitudeMeters>
            <DistanceMeters>2848.7952284611</DistanceMeters>
          </Trackpoint>
          <Trackpoint>
            <Time>2019-07-19T07:34:05.000Z</Time>
            <Position>
              <LatitudeDegrees>40.500528998672962188720703125</LatitudeDegrees>
              <LongitudeDegrees>-3.36040497757494449615478515625</LongitudeDegrees>
            </Position>
            <AltitudeMeters>646.20001220703125</AltitudeMeters>
            <DistanceMeters>2902.1058080778</DistanceMeters>
          </Trackpoint>
          <Trackpoint>
            <Time>2019-07-19T07:34:10.000Z</Time>
            <Position>
              <LatitudeDegrees>40.5006274022161960601806640625</LatitudeDegrees>
              <LongitudeDegrees>-3.36057026870548725128173828125</LongitudeDegrees>
            </Position>
            <AltitudeMeters>647</AltitudeMeters>
            <DistanceMeters>2919.8725002904</DistanceMeters>
          </Trackpoint>
          <Trackpoint>
            <Time>2019-07-19T07:34:11.000Z</Time>
            <Position>
              <LatitudeDegrees>40.50065045244991779327392578125</LatitudeDegrees>
              <LongitudeDegrees>-3.360574208199977874755859375</LongitudeDegrees>
            </Position>
            <AltitudeMeters>647.20001220703125</AltitudeMeters>
            <DistanceMeters>2922.4592524325</DistanceMeters>
          </Trackpoint>
          <Trackpoint>
            <Time>2019-07-19T07:34:15.000Z</Time>
            <Position>
              <LatitudeDegrees>40.50078012049198150634765625</LatitudeDegrees>
              <LongitudeDegrees>-3.3606129325926303863525390625</LongitudeDegrees>
            </Position>
            <AltitudeMeters>647.5999755859375</AltitudeMeters>
            <DistanceMeters>2937.2590339925</DistanceMeters>
          </Trackpoint>
          <Trackpoint>
            <Time>2019-07-19T07:34:22.000Z</Time>
            <Position>
              <LatitudeDegrees>40.50104029476642608642578125</LatitudeDegrees>
              <LongitudeDegrees>-3.36065459065139293670654296875</LongitudeDegrees>
            </Position>
            <AltitudeMeters>647.5999755859375</AltitudeMeters>
            <DistanceMeters>2966.4308423712</DistanceMeters>
          </Trackpoint>
          <Trackpoint>
            <Time>2019-07-19T07:34:24.000Z</Time>
            <Position>
              <LatitudeDegrees>40.5011187493801116943359375</LatitudeDegrees>
              <LongitudeDegrees>-3.36068744771182537078857421875</LongitudeDegrees>
            </Position>
            <AltitudeMeters>647.4000244140625</AltitudeMeters>
            <DistanceMeters>2975.5948868347</DistanceMeters>
          </Trackpoint>
          <Trackpoint>
            <Time>2019-07-19T07:34:36.000Z</Time>
            <Position>
              <LatitudeDegrees>40.50166097469627857208251953125</LatitudeDegrees>
              <LongitudeDegrees>-3.360556773841381072998046875</LongitudeDegrees>
            </Position>
            <AltitudeMeters>647.5999755859375</AltitudeMeters>
            <DistanceMeters>3036.9506568045</DistanceMeters>
          </Trackpoint>
          <Trackpoint>
            <Time>2019-07-19T07:34:48.000Z</Time>
            <Position>
              <LatitudeDegrees>40.5022343806922435760498046875</LatitudeDegrees>
              <LongitudeDegrees>-3.3603990264236927032470703125</LongitudeDegrees>
            </Position>
            <AltitudeMeters>647.5999755859375</AltitudeMeters>
            <DistanceMeters>3102.1533876535</DistanceMeters>
          </Trackpoint>
          <Trackpoint>
            <Time>2019-07-19T07:34:59.000Z</Time>
            <Position>
              <LatitudeDegrees>40.502776019275188446044921875</LatitudeDegrees>
              <LongitudeDegrees>-3.3601789176464080810546875</LongitudeDegrees>
            </Position>
            <AltitudeMeters>647.79998779296875</AltitudeMeters>
            <DistanceMeters>3165.2512691077</DistanceMeters>
          </Trackpoint>
          <Trackpoint>
            <Time>2019-07-19T07:35:10.000Z</Time>
            <Position>
              <LatitudeDegrees>40.50330801866948604583740234375</LatitudeDegrees>
              <LongitudeDegrees>-3.35996844805777072906494140625</LongitudeDegrees>
            </Position>
            <AltitudeMeters>647.79998779296875</AltitudeMeters>
            <DistanceMeters>3227.0849703314</DistanceMeters>
          </Trackpoint>
          <Trackpoint>
            <Time>2019-07-19T07:35:18.000Z</Time>
            <Position>
              <LatitudeDegrees>40.503703057765960693359375</LatitudeDegrees>
              <LongitudeDegrees>-3.35984565317630767822265625</LongitudeDegrees>
            </Position>
            <AltitudeMeters>648.4000244140625</AltitudeMeters>
            <DistanceMeters>3272.2651516077</DistanceMeters>
          </Trackpoint>
          <Trackpoint>
            <Time>2019-07-19T07:35:29.000Z</Time>
            <Position>
              <LatitudeDegrees>40.504247210919857025146484375</LatitudeDegrees>
              <LongitudeDegrees>-3.35966737009584903717041015625</LongitudeDegrees>
            </Position>
            <AltitudeMeters>648.79998779296875</AltitudeMeters>
            <DistanceMeters>3334.6815738053</DistanceMeters>
          </Trackpoint>
          <Trackpoint>
            <Time>2019-07-19T07:35:40.000Z</Time>
            <Position>
              <LatitudeDegrees>40.50479396246373653411865234375</LatitudeDegrees>
              <LongitudeDegrees>-3.3595155738294124603271484375</LongitudeDegrees>
            </Position>
            <AltitudeMeters>649.20001220703125</AltitudeMeters>
            <DistanceMeters>3396.8772661568</DistanceMeters>
          </Trackpoint>
          <Trackpoint>
            <Time>2019-07-19T07:35:51.000Z</Time>
            <Position>
              <LatitudeDegrees>40.505343563854694366455078125</LatitudeDegrees>
              <LongitudeDegrees>-3.35943125188350677490234375</LongitudeDegrees>
            </Position>
            <AltitudeMeters>649.4000244140625</AltitudeMeters>
            <DistanceMeters>3458.4638150842</DistanceMeters>
          </Trackpoint>
          <Trackpoint>
            <Time>2019-07-19T07:35:52.000Z</Time>
            <Position>
              <LatitudeDegrees>40.50539159215986728668212890625</LatitudeDegrees>
              <LongitudeDegrees>-3.35941976867616176605224609375</LongitudeDegrees>
            </Position>
            <AltitudeMeters>649.5999755859375</AltitudeMeters>
            <DistanceMeters>3463.8978145295</DistanceMeters>
          </Trackpoint>
          <Trackpoint>
            <Time>2019-07-19T07:35:56.000Z</Time>
            <Position>
              <LatitudeDegrees>40.50556845031678676605224609375</LatitudeDegrees>
              <LongitudeDegrees>-3.35938188247382640838623046875</LongitudeDegrees>
            </Position>
            <AltitudeMeters>650.5999755859375</AltitudeMeters>
            <DistanceMeters>3483.841882251</DistanceMeters>
          </Trackpoint>
          <Trackpoint>
            <Time>2019-07-19T07:36:03.000Z</Time>
            <Position>
              <LatitudeDegrees>40.50588360987603664398193359375</LatitudeDegrees>
              <LongitudeDegrees>-3.35931767709553241729736328125</LongitudeDegrees>
            </Position>
            <AltitudeMeters>651.5999755859375</AltitudeMeters>
            <DistanceMeters>3519.3380171998</DistanceMeters>
          </Trackpoint>
          <Trackpoint>
            <Time>2019-07-19T07:36:14.000Z</Time>
            <Position>
              <LatitudeDegrees>40.5064494721591472625732421875</LatitudeDegrees>
              <LongitudeDegrees>-3.35916931740939617156982421875</LongitudeDegrees>
            </Position>
            <AltitudeMeters>650.79998779296875</AltitudeMeters>
            <DistanceMeters>3583.5589240327</DistanceMeters>
          </Trackpoint>
          <Trackpoint>
            <Time>2019-07-19T07:36:15.000Z</Time>
            <Position>
              <LatitudeDegrees>40.50650621764361858367919921875</LatitudeDegrees>
              <LongitudeDegrees>-3.35915355943143367767333984375</LongitudeDegrees>
            </Position>
            <AltitudeMeters>650.5999755859375</AltitudeMeters>
            <DistanceMeters>3590.0137495697</DistanceMeters>
          </Trackpoint>
          <Trackpoint>
            <Time>2019-07-19T07:36:21.000Z</Time>
            <Position>
              <LatitudeDegrees>40.5068050324916839599609375</LatitudeDegrees>
              <LongitudeDegrees>-3.35907309316098690032958984375</LongitudeDegrees>
            </Position>
            <AltitudeMeters>650.20001220703125</AltitudeMeters>
            <DistanceMeters>3623.9623674582</DistanceMeters>
          </Trackpoint>
          <Trackpoint>
            <Time>2019-07-19T07:36:24.000Z</Time>
            <Position>
              <LatitudeDegrees>40.50695280544459819793701171875</LatitudeDegrees>
              <LongitudeDegrees>-3.359056748449802398681640625</LongitudeDegrees>
            </Position>
            <AltitudeMeters>650.20001220703125</AltitudeMeters>
            <DistanceMeters>3640.4680454605</DistanceMeters>
          </Trackpoint>
          <Trackpoint>
            <Time>2019-07-19T07:36:32.000Z</Time>
            <Position>
              <LatitudeDegrees>40.50736360251903533935546875</LatitudeDegrees>
              <LongitudeDegrees>-3.3589124120771884918212890625</LongitudeDegrees>
            </Position>
            <AltitudeMeters>649.79998779296875</AltitudeMeters>
            <DistanceMeters>3687.7940205752</DistanceMeters>
          </Trackpoint>
          <Trackpoint>
            <Time>2019-07-19T07:36:34.000Z</Time>
            <Position>
              <LatitudeDegrees>40.50743476487696170806884765625</LatitudeDegrees>
              <LongitudeDegrees>-3.358807973563671112060546875</LongitudeDegrees>
            </Position>
            <AltitudeMeters>649.79998779296875</AltitudeMeters>
            <DistanceMeters>3699.6628533959</DistanceMeters>
          </Trackpoint>
          <Trackpoint>
            <Time>2019-07-19T07:36:36.000Z</Time>
            <Position>
              <LatitudeDegrees>40.50749176181852817535400390625</LatitudeDegrees>
              <LongitudeDegrees>-3.358682580292224884033203125</LongitudeDegrees>
            </Position>
            <AltitudeMeters>649.5999755859375</AltitudeMeters>
            <DistanceMeters>3712.0261904845</DistanceMeters>
          </Trackpoint>
          <Trackpoint>
            <Time>2019-07-19T07:36:37.000Z</Time>
            <Position>
              <LatitudeDegrees>40.50752880983054637908935546875</LatitudeDegrees>
              <LongitudeDegrees>-3.3586311154067516326904296875</LongitudeDegrees>
            </Position>
            <AltitudeMeters>649.4000244140625</AltitudeMeters>
            <DistanceMeters>3718.0241755256</DistanceMeters>
          </Trackpoint>
          <Trackpoint>
            <Time>2019-07-19T07:36:38.000Z</Time>
            <Position>
              <LatitudeDegrees>40.50757474265992641448974609375</LatitudeDegrees>
              <LongitudeDegrees>-3.3585905469954013824462890625</LongitudeDegrees>
            </Position>
            <AltitudeMeters>649.4000244140625</AltitudeMeters>
            <DistanceMeters>3724.1826104781</DistanceMeters>
          </Trackpoint>
          <Trackpoint>
            <Time>2019-07-19T07:36:40.000Z</Time>
            <Position>
              <LatitudeDegrees>40.50768278539180755615234375</LatitudeDegrees>
              <LongitudeDegrees>-3.35855307988822460174560546875</LongitudeDegrees>
            </Position>
            <AltitudeMeters>649</AltitudeMeters>
            <DistanceMeters>3736.6191352874</DistanceMeters>
          </Trackpoint>
          <Trackpoint>
            <Time>2019-07-19T07:36:42.000Z</Time>
            <Position>
              <LatitudeDegrees>40.50779451616108417510986328125</LatitudeDegrees>
              <LongitudeDegrees>-3.3585845120251178741455078125</LongitudeDegrees>
            </Position>
            <AltitudeMeters>649</AltitudeMeters>
            <DistanceMeters>3749.3356839134</DistanceMeters>
          </Trackpoint>
          <Trackpoint>
            <Time>2019-07-19T07:36:44.000Z</Time>
            <Position>
              <LatitudeDegrees>40.50789057277143001556396484375</LatitudeDegrees>
              <LongitudeDegrees>-3.35867009125649929046630859375</LongitudeDegrees>
            </Position>
            <AltitudeMeters>649.20001220703125</AltitudeMeters>
            <DistanceMeters>3762.2488319268</DistanceMeters>
          </Trackpoint>
          <Trackpoint>
            <Time>2019-07-19T07:36:46.000Z</Time>
            <Position>
              <LatitudeDegrees>40.50797690637409687042236328125</LatitudeDegrees>
              <LongitudeDegrees>-3.35876011289656162261962890625</LongitudeDegrees>
            </Position>
            <AltitudeMeters>649.5999755859375</AltitudeMeters>
            <DistanceMeters>3774.5113289378</DistanceMeters>
          </Trackpoint>
          <Trackpoint>
            <Time>2019-07-19T07:36:48.000Z</Time>
            <Position>
              <LatitudeDegrees>40.50807480700314044952392578125</LatitudeDegrees>
              <LongitudeDegrees>-3.3587648905813694000244140625</LongitudeDegrees>
            </Position>
            <AltitudeMeters>649.5999755859375</AltitudeMeters>
            <DistanceMeters>3785.4149974241</DistanceMeters>
          </Trackpoint>
          <Trackpoint>
            <Time>2019-07-19T07:36:59.000Z</Time>
            <Position>
              <LatitudeDegrees>40.508629269897937774658203125</LatitudeDegrees>
              <LongitudeDegrees>-3.3585694245994091033935546875</LongitudeDegrees>
            </Position>
            <AltitudeMeters>649.5999755859375</AltitudeMeters>
            <DistanceMeters>3849.3061719072</DistanceMeters>
          </Trackpoint>
          <Trackpoint>
            <Time>2019-07-19T07:37:09.000Z</Time>
            <Position>
              <LatitudeDegrees>40.509156994521617889404296875</LatitudeDegrees>
              <LongitudeDegrees>-3.35840203799307346343994140625</LongitudeDegrees>
            </Position>
            <AltitudeMeters>649.5999755859375</AltitudeMeters>
            <DistanceMeters>3909.7267993002</DistanceMeters>
          </Trackpoint>
          <Trackpoint>
            <Time>2019-07-19T07:37:18.000Z</Time>
            <Position>
              <LatitudeDegrees>40.50969771109521389007568359375</LatitudeDegrees>
              <LongitudeDegrees>-3.3583414368331432342529296875</LongitudeDegrees>
            </Position>
            <AltitudeMeters>649.20001220703125</AltitudeMeters>
            <DistanceMeters>3970.1277703558</DistanceMeters>
          </Trackpoint>
          <Trackpoint>
            <Time>2019-07-19T07:37:24.000Z</Time>
            <Position>
              <LatitudeDegrees>40.5100322328507900238037109375</LatitudeDegrees>
              <LongitudeDegrees>-3.35835644043982028961181640625</LongitudeDegrees>
            </Position>
            <AltitudeMeters>649</AltitudeMeters>
            <DistanceMeters>4007.3823632174</DistanceMeters>
          </Trackpoint>
          <Trackpoint>
            <Time>2019-07-19T07:37:26.000Z</Time>
            <Position>
              <LatitudeDegrees>40.510133989155292510986328125</LatitudeDegrees>
              <LongitudeDegrees>-3.35836465470492839813232421875</LongitudeDegrees>
            </Position>
            <AltitudeMeters>649</AltitudeMeters>
            <DistanceMeters>4018.7292055067</DistanceMeters>
          </Trackpoint>
          <Trackpoint>
            <Time>2019-07-19T07:37:28.000Z</Time>
            <Position>
              <LatitudeDegrees>40.51023381762206554412841796875</LatitudeDegrees>
              <LongitudeDegrees>-3.35831939242780208587646484375</LongitudeDegrees>
            </Position>
            <AltitudeMeters>648.79998779296875</AltitudeMeters>
            <DistanceMeters>4030.4822085001</DistanceMeters>
          </Trackpoint>
          <Trackpoint>
            <Time>2019-07-19T07:37:30.000Z</Time>
            <Position>
              <LatitudeDegrees>40.51032316870987415313720703125</LatitudeDegrees>
              <LongitudeDegrees>-3.35824839770793914794921875</LongitudeDegrees>
            </Position>
            <AltitudeMeters>648.5999755859375</AltitudeMeters>
            <DistanceMeters>4042.1011431689</DistanceMeters>
          </Trackpoint>
          <Trackpoint>
            <Time>2019-07-19T07:37:32.000Z</Time>
            <Position>
              <LatitudeDegrees>40.5104208178818225860595703125</LatitudeDegrees>
              <LongitudeDegrees>-3.358205817639827728271484375</LongitudeDegrees>
            </Position>
            <AltitudeMeters>648.79998779296875</AltitudeMeters>
            <DistanceMeters>4053.5517636746</DistanceMeters>
          </Trackpoint>
          <Trackpoint>
            <Time>2019-07-19T07:37:34.000Z</Time>
            <Position>
              <LatitudeDegrees>40.51052458584308624267578125</LatitudeDegrees>
              <LongitudeDegrees>-3.358229286968708038330078125</LongitudeDegrees>
            </Position>
            <AltitudeMeters>649</AltitudeMeters>
            <DistanceMeters>4065.2705265172</DistanceMeters>
          </Trackpoint>
          <Trackpoint>
            <Time>2019-07-19T07:37:38.000Z</Time>
            <Position>
              <LatitudeDegrees>40.51070605404675006866455078125</LatitudeDegrees>
              <LongitudeDegrees>-3.35837446153163909912109375</LongitudeDegrees>
            </Position>
            <AltitudeMeters>649.5999755859375</AltitudeMeters>
            <DistanceMeters>4088.9107972652</DistanceMeters>
          </Trackpoint>
          <Trackpoint>
            <Time>2019-07-19T07:37:40.000Z</Time>
            <Position>
              <LatitudeDegrees>40.5108127556741237640380859375</LatitudeDegrees>
              <LongitudeDegrees>-3.35837219841778278350830078125</LongitudeDegrees>
            </Position>
            <AltitudeMeters>649.20001220703125</AltitudeMeters>
            <DistanceMeters>4100.7883763234</DistanceMeters>
          </Trackpoint>
          <Trackpoint>
            <Time>2019-07-19T07:37:42.000Z</Time>
            <Position>
              <LatitudeDegrees>40.5109274201095104217529296875</LatitudeDegrees>
              <LongitudeDegrees>-3.35833632387220859527587890625</LongitudeDegrees>
            </Position>
            <AltitudeMeters>648.4000244140625</AltitudeMeters>
            <DistanceMeters>4113.9068822166</DistanceMeters>
          </Trackpoint>
          <Trackpoint>
            <Time>2019-07-19T07:37:51.000Z</Time>
            <Position>
              <LatitudeDegrees>40.51143611781299114227294921875</LatitudeDegrees>
              <LongitudeDegrees>-3.358086459338665008544921875</LongitudeDegrees>
            </Position>
            <AltitudeMeters>648</AltitudeMeters>
            <DistanceMeters>4174.3449931438</DistanceMeters>
          </Trackpoint>
          <Trackpoint>
            <Time>2019-07-19T07:38:01.000Z</Time>
            <Position>
              <LatitudeDegrees>40.51185906864702701568603515625</LatitudeDegrees>
              <LongitudeDegrees>-3.357637189328670501708984375</LongitudeDegrees>
            </Position>
            <AltitudeMeters>648</AltitudeMeters>
            <DistanceMeters>4234.8544054319</DistanceMeters>
          </Trackpoint>
          <Trackpoint>
            <Time>2019-07-19T07:38:12.000Z</Time>
            <Position>
              <LatitudeDegrees>40.5122839473187923431396484375</LatitudeDegrees>
              <LongitudeDegrees>-3.357096053659915924072265625</LongitudeDegrees>
            </Position>
            <AltitudeMeters>649.4000244140625</AltitudeMeters>
            <DistanceMeters>4300.6807624015</DistanceMeters>
          </Trackpoint>
          <Trackpoint>
            <Time>2019-07-19T07:38:13.000Z</Time>
            <Position>
              <LatitudeDegrees>40.51232325844466686248779296875</LatitudeDegrees>
              <LongitudeDegrees>-3.35704450495541095733642578125</LongitudeDegrees>
            </Position>
            <AltitudeMeters>649.5999755859375</AltitudeMeters>
            <DistanceMeters>4306.8596913706</DistanceMeters>
          </Trackpoint>
          <Trackpoint>
            <Time>2019-07-19T07:38:23.000Z</Time>
            <Position>
              <LatitudeDegrees>40.5127161182463169097900390625</LatitudeDegrees>
              <LongitudeDegrees>-3.35654695518314838409423828125</LongitudeDegrees>
            </Position>
            <AltitudeMeters>649.5999755859375</AltitudeMeters>
            <DistanceMeters>4367.560269223</DistanceMeters>
          </Trackpoint>
          <Trackpoint>
            <Time>2019-07-19T07:38:24.000Z</Time>
            <Position>
              <LatitudeDegrees>40.51276062615215778350830078125</LatitudeDegrees>
              <LongitudeDegrees>-3.35651443339884281158447265625</LongitudeDegrees>
            </Position>
            <AltitudeMeters>649.5999755859375</AltitudeMeters>
            <DistanceMeters>4373.2269218358</DistanceMeters>
          </Trackpoint>
          <Trackpoint>
            <Time>2019-07-19T07:38:26.000Z</Time>
            <Position>
              <LatitudeDegrees>40.51285676658153533935546875</LatitudeDegrees>
              <LongitudeDegrees>-3.3564645610749721527099609375</LongitudeDegrees>
            </Position>
            <AltitudeMeters>649.79998779296875</AltitudeMeters>
            <DistanceMeters>4384.7294728597</DistanceMeters>
          </Trackpoint>
          <Trackpoint>
            <Time>2019-07-19T07:38:36.000Z</Time>
            <Position>
              <LatitudeDegrees>40.51320947706699371337890625</LatitudeDegrees>
              <LongitudeDegrees>-3.3560555242002010345458984375</LongitudeDegrees>
            </Position>
            <AltitudeMeters>650</AltitudeMeters>
            <DistanceMeters>4437.0662499685</DistanceMeters>
          </Trackpoint>
          <Trackpoint>
            <Time>2019-07-19T07:38:38.000Z</Time>
            <Position>
              <LatitudeDegrees>40.513274855911731719970703125</LatitudeDegrees>
              <LongitudeDegrees>-3.35597522556781768798828125</LongitudeDegrees>
            </Position>
            <AltitudeMeters>650.20001220703125</AltitudeMeters>
            <DistanceMeters>4447.0218573859</DistanceMeters>
          </Trackpoint>
          <Trackpoint>
            <Time>2019-07-19T07:38:40.000Z</Time>
            <Position>
              <LatitudeDegrees>40.51335632801055908203125</LatitudeDegrees>
              <LongitudeDegrees>-3.35596449673175811767578125</LongitudeDegrees>
            </Position>
            <AltitudeMeters>650.4000244140625</AltitudeMeters>
            <DistanceMeters>4456.1355088567</DistanceMeters>
          </Trackpoint>
          <Trackpoint>
            <Time>2019-07-19T07:38:41.000Z</Time>
            <Position>
              <LatitudeDegrees>40.51338759250938892364501953125</LatitudeDegrees>
              <LongitudeDegrees>-3.3559951744973659515380859375</LongitudeDegrees>
            </Position>
            <AltitudeMeters>650.79998779296875</AltitudeMeters>
            <DistanceMeters>4460.4766803045</DistanceMeters>
          </Trackpoint>
          <Trackpoint>
            <Time>2019-07-19T07:38:43.000Z</Time>
            <Position>
              <LatitudeDegrees>40.51345045678317546844482421875</LatitudeDegrees>
              <LongitudeDegrees>-3.3560746349394321441650390625</LongitudeDegrees>
            </Position>
            <AltitudeMeters>651.4000244140625</AltitudeMeters>
            <DistanceMeters>4470.1805783438</DistanceMeters>
          </Trackpoint>
          <Trackpoint>
            <Time>2019-07-19T07:38:45.000Z</Time>
            <Position>
              <LatitudeDegrees>40.51352505572140216827392578125</LatitudeDegrees>
              <LongitudeDegrees>-3.3561448752880096435546875</LongitudeDegrees>
            </Position>
            <AltitudeMeters>651.79998779296875</AltitudeMeters>
            <DistanceMeters>4480.3914187902</DistanceMeters>
          </Trackpoint>
          <Trackpoint>
            <Time>2019-07-19T07:38:49.000Z</Time>
            <Position>
              <LatitudeDegrees>40.51363460719585418701171875</LatitudeDegrees>
              <LongitudeDegrees>-3.3563834242522716522216796875</LongitudeDegrees>
            </Position>
            <AltitudeMeters>651.5999755859375</AltitudeMeters>
            <DistanceMeters>4503.9737487827</DistanceMeters>
          </Trackpoint>
          <Trackpoint>
            <Time>2019-07-19T07:38:53.000Z</Time>
            <Position>
              <LatitudeDegrees>40.51375136710703372955322265625</LatitudeDegrees>
              <LongitudeDegrees>-3.356616608798503875732421875</LongitudeDegrees>
            </Position>
            <AltitudeMeters>651</AltitudeMeters>
            <DistanceMeters>4527.6004554007</DistanceMeters>
          </Trackpoint>
          <Trackpoint>
            <Time>2019-07-19T07:38:54.000Z</Time>
            <Position>
              <LatitudeDegrees>40.51377114839851856231689453125</LatitudeDegrees>
              <LongitudeDegrees>-3.35668332874774932861328125</LongitudeDegrees>
            </Position>
            <AltitudeMeters>650.79998779296875</AltitudeMeters>
            <DistanceMeters>4533.6613423799</DistanceMeters>
          </Trackpoint>
          <Trackpoint>
            <Time>2019-07-19T07:38:55.000Z</Time>
            <Position>
              <LatitudeDegrees>40.5137868225574493408203125</LatitudeDegrees>
              <LongitudeDegrees>-3.35675616748631000518798828125</LongitudeDegrees>
            </Position>
            <AltitudeMeters>650.79998779296875</AltitudeMeters>
            <DistanceMeters>4540.0670170018</DistanceMeters>
          </Trackpoint>
          <Trackpoint>
            <Time>2019-07-19T07:39:06.000Z</Time>
            <Position>
              <LatitudeDegrees>40.51379210315644741058349609375</LatitudeDegrees>
              <LongitudeDegrees>-3.3574710600078105926513671875</LongitudeDegrees>
            </Position>
            <AltitudeMeters>651.79998779296875</AltitudeMeters>
            <DistanceMeters>4600.562101106</DistanceMeters>
          </Trackpoint>
          <Trackpoint>
            <Time>2019-07-19T07:39:07.000Z</Time>
            <Position>
              <LatitudeDegrees>40.51378958858549594879150390625</LatitudeDegrees>
              <LongitudeDegrees>-3.357538618147373199462890625</LongitudeDegrees>
            </Position>
            <AltitudeMeters>652</AltitudeMeters>
            <DistanceMeters>4606.2850450391</DistanceMeters>
          </Trackpoint>
          <Trackpoint>
            <Time>2019-07-19T07:39:12.000Z</Time>
            <Position>
              <LatitudeDegrees>40.51380635239183902740478515625</LatitudeDegrees>
              <LongitudeDegrees>-3.35789241828024387359619140625</LongitudeDegrees>
            </Position>
            <AltitudeMeters>652.5999755859375</AltitudeMeters>
            <DistanceMeters>4636.2806906685</DistanceMeters>
          </Trackpoint>
          <Trackpoint>
            <Time>2019-07-19T07:39:17.000Z</Time>
            <Position>
              <LatitudeDegrees>40.5139016546308994293212890625</LatitudeDegrees>
              <LongitudeDegrees>-3.3582235872745513916015625</LongitudeDegrees>
            </Position>
            <AltitudeMeters>652.79998779296875</AltitudeMeters>
            <DistanceMeters>4666.2438056637</DistanceMeters>
          </Trackpoint>
          <Trackpoint>
            <Time>2019-07-19T07:39:21.000Z</Time>
            <Position>
              <LatitudeDegrees>40.51403266377747058868408203125</LatitudeDegrees>
              <LongitudeDegrees>-3.35843070410192012786865234375</LongitudeDegrees>
            </Position>
            <AltitudeMeters>653</AltitudeMeters>
            <DistanceMeters>4689.0424948846</DistanceMeters>
          </Trackpoint>
          <Trackpoint>
            <Time>2019-07-19T07:39:31.000Z</Time>
            <Position>
              <LatitudeDegrees>40.514421500265598297119140625</LatitudeDegrees>
              <LongitudeDegrees>-3.3588916249573230743408203125</LongitudeDegrees>
            </Position>
            <AltitudeMeters>653</AltitudeMeters>
            <DistanceMeters>4747.3016987327</DistanceMeters>
          </Trackpoint>
          <Trackpoint>
            <Time>2019-07-19T07:39:42.000Z</Time>
            <Position>
              <LatitudeDegrees>40.514754094183444976806640625</LatitudeDegrees>
              <LongitudeDegrees>-3.35950006730854511260986328125</LongitudeDegrees>
            </Position>
            <AltitudeMeters>654</AltitudeMeters>
            <DistanceMeters>4810.7127909757</DistanceMeters>
          </Trackpoint>
          <Trackpoint>
            <Time>2019-07-19T07:39:45.000Z</Time>
            <Position>
              <LatitudeDegrees>40.51488040946424007415771484375</LatitudeDegrees>
              <LongitudeDegrees>-3.359599895775318145751953125</LongitudeDegrees>
            </Position>
            <AltitudeMeters>654.4000244140625</AltitudeMeters>
            <DistanceMeters>4827.1147432198</DistanceMeters>
          </Trackpoint>
          <Trackpoint>
            <Time>2019-07-19T07:39:53.000Z</Time>
            <Position>
              <LatitudeDegrees>40.51527469418942928314208984375</LatitudeDegrees>
              <LongitudeDegrees>-3.359705843031406402587890625</LongitudeDegrees>
            </Position>
            <AltitudeMeters>654.79998779296875</AltitudeMeters>
            <DistanceMeters>4871.9057037333</DistanceMeters>
          </Trackpoint>
          <Trackpoint>
            <Time>2019-07-19T07:40:03.000Z</Time>
            <Position>
              <LatitudeDegrees>40.515802837908267974853515625</LatitudeDegrees>
              <LongitudeDegrees>-3.359936177730560302734375</LongitudeDegrees>
            </Position>
            <AltitudeMeters>654.20001220703125</AltitudeMeters>
            <DistanceMeters>4933.8358609111</DistanceMeters>
          </Trackpoint>
          <Trackpoint>
            <Time>2019-07-19T07:40:13.000Z</Time>
            <Position>
              <LatitudeDegrees>40.51623073406517505645751953125</LatitudeDegrees>
              <LongitudeDegrees>-3.36042207665741443634033203125</LongitudeDegrees>
            </Position>
            <AltitudeMeters>654</AltitudeMeters>
            <DistanceMeters>4996.7530190734</DistanceMeters>
          </Trackpoint>
          <Trackpoint>
            <Time>2019-07-19T07:40:23.000Z</Time>
            <Position>
              <LatitudeDegrees>40.5166532658040523529052734375</LatitudeDegrees>
              <LongitudeDegrees>-3.36093521676957607269287109375</LongitudeDegrees>
            </Position>
            <AltitudeMeters>653.79998779296875</AltitudeMeters>
            <DistanceMeters>5060.7599835554</DistanceMeters>
          </Trackpoint>
          <Trackpoint>
            <Time>2019-07-19T07:40:33.000Z</Time>
            <Position>
              <LatitudeDegrees>40.5171149410307407379150390625</LatitudeDegrees>
              <LongitudeDegrees>-3.36132355034351348876953125</LongitudeDegrees>
            </Position>
            <AltitudeMeters>654.4000244140625</AltitudeMeters>
            <DistanceMeters>5121.7527748725</DistanceMeters>
          </Trackpoint>
          <Trackpoint>
            <Time>2019-07-19T07:40:43.000Z</Time>
            <Position>
              <LatitudeDegrees>40.51765465177595615386962890625</LatitudeDegrees>
              <LongitudeDegrees>-3.3615822158753871917724609375</LongitudeDegrees>
            </Position>
            <AltitudeMeters>654.5999755859375</AltitudeMeters>
            <DistanceMeters>5185.6864771182</DistanceMeters>
          </Trackpoint>
          <Trackpoint>
            <Time>2019-07-19T07:40:48.000Z</Time>
            <Position>
              <LatitudeDegrees>40.5179356969892978668212890625</LatitudeDegrees>
              <LongitudeDegrees>-3.3616770990192890167236328125</LongitudeDegrees>
            </Position>
            <AltitudeMeters>654.5999755859375</AltitudeMeters>
            <DistanceMeters>5217.9813028512</DistanceMeters>
          </Trackpoint>
          <Trackpoint>
            <Time>2019-07-19T07:40:54.000Z</Time>
            <Position>
              <LatitudeDegrees>40.5182837136089801788330078125</LatitudeDegrees>
              <LongitudeDegrees>-3.3616365306079387664794921875</LongitudeDegrees>
            </Position>
            <AltitudeMeters>654</AltitudeMeters>
            <DistanceMeters>5256.8681339305</DistanceMeters>
          </Trackpoint>
          <Trackpoint>
            <Time>2019-07-19T07:41:00.000Z</Time>
            <Position>
              <LatitudeDegrees>40.5186441354453563690185546875</LatitudeDegrees>
              <LongitudeDegrees>-3.36151658557355403900146484375</LongitudeDegrees>
            </Position>
            <AltitudeMeters>654</AltitudeMeters>
            <DistanceMeters>5298.2476582771</DistanceMeters>
          </Trackpoint>
          <Trackpoint>
            <Time>2019-07-19T07:41:02.000Z</Time>
            <Position>
              <LatitudeDegrees>40.51875972189009189605712890625</LatitudeDegrees>
              <LongitudeDegrees>-3.36151172406971454620361328125</LongitudeDegrees>
            </Position>
            <AltitudeMeters>654.20001220703125</AltitudeMeters>
            <DistanceMeters>5311.1187803122</DistanceMeters>
          </Trackpoint>
          <Trackpoint>
            <Time>2019-07-19T07:41:12.000Z</Time>
            <Position>
              <LatitudeDegrees>40.51934444345533847808837890625</LatitudeDegrees>
              <LongitudeDegrees>-3.3616023324429988861083984375</LongitudeDegrees>
            </Position>
            <AltitudeMeters>654.79998779296875</AltitudeMeters>
            <DistanceMeters>5376.649467117</DistanceMeters>
          </Trackpoint>
          <Trackpoint>
            <Time>2019-07-19T07:41:14.000Z</Time>
            <Position>
              <LatitudeDegrees>40.5194615386426448822021484375</LatitudeDegrees>
              <LongitudeDegrees>-3.3616207726299762725830078125</LongitudeDegrees>
            </Position>
            <AltitudeMeters>655.20001220703125</AltitudeMeters>
            <DistanceMeters>5389.7751986575</DistanceMeters>
          </Trackpoint>
          <Trackpoint>
            <Time>2019-07-19T07:41:24.000Z</Time>
            <Position>
              <LatitudeDegrees>40.52003930322825908660888671875</LatitudeDegrees>
              <LongitudeDegrees>-3.36171942763030529022216796875</LongitudeDegrees>
            </Position>
            <AltitudeMeters>656.20001220703125</AltitudeMeters>
            <DistanceMeters>5454.6210274921</DistanceMeters>
          </Trackpoint>
          <Trackpoint>
            <Time>2019-07-19T07:41:34.000Z</Time>
            <Position>
              <LatitudeDegrees>40.52059301175177097320556640625</LatitudeDegrees>
              <LongitudeDegrees>-3.36179302074015140533447265625</LongitudeDegrees>
            </Position>
            <AltitudeMeters>655.5999755859375</AltitudeMeters>
            <DistanceMeters>5516.5637231165</DistanceMeters>
          </Trackpoint>
          <Trackpoint>
            <Time>2019-07-19T07:41:42.000Z</Time>
            <Position>
              <LatitudeDegrees>40.52102635614573955535888671875</LatitudeDegrees>
              <LongitudeDegrees>-3.36176804266870021820068359375</LongitudeDegrees>
            </Position>
            <AltitudeMeters>656.20001220703125</AltitudeMeters>
            <DistanceMeters>5564.8421573436</DistanceMeters>
          </Trackpoint>
          <Trackpoint>
            <Time>2019-07-19T07:41:52.000Z</Time>
            <Position>
              <LatitudeDegrees>40.521589703857898712158203125</LatitudeDegrees>
              <LongitudeDegrees>-3.36170886643230915069580078125</LongitudeDegrees>
            </Position>
            <AltitudeMeters>657.20001220703125</AltitudeMeters>
            <DistanceMeters>5627.7435259647</DistanceMeters>
          </Trackpoint>
          <Trackpoint>
            <Time>2019-07-19T07:41:53.000Z</Time>
            <Position>
              <LatitudeDegrees>40.52164359949529170989990234375</LatitudeDegrees>
              <LongitudeDegrees>-3.361709453165531158447265625</LongitudeDegrees>
            </Position>
            <AltitudeMeters>657.20001220703125</AltitudeMeters>
            <DistanceMeters>5633.7430163352</DistanceMeters>
          </Trackpoint>
          <Trackpoint>
            <Time>2019-07-19T07:42:04.000Z</Time>
            <Position>
              <LatitudeDegrees>40.52218926139175891876220703125</LatitudeDegrees>
              <LongitudeDegrees>-3.36193115450441837310791015625</LongitudeDegrees>
            </Position>
            <AltitudeMeters>658.20001220703125</AltitudeMeters>
            <DistanceMeters>5697.3070099464</DistanceMeters>
          </Trackpoint>
          <Trackpoint>
            <Time>2019-07-19T07:42:07.000Z</Time>
            <Position>
              <LatitudeDegrees>40.52232521586120128631591796875</LatitudeDegrees>
              <LongitudeDegrees>-3.362031318247318267822265625</LongitudeDegrees>
            </Position>
            <AltitudeMeters>658.20001220703125</AltitudeMeters>
            <DistanceMeters>5714.6501012589</DistanceMeters>
          </Trackpoint>
          <Trackpoint>
            <Time>2019-07-19T07:42:18.000Z</Time>
            <Position>
              <LatitudeDegrees>40.522778593003749847412109375</LatitudeDegrees>
              <LongitudeDegrees>-3.3625317178666591644287109375</LongitudeDegrees>
            </Position>
            <AltitudeMeters>659</AltitudeMeters>
            <DistanceMeters>5780.5197243801</DistanceMeters>
          </Trackpoint>
          <Trackpoint>
            <Time>2019-07-19T07:42:28.000Z</Time>
            <Position>
              <LatitudeDegrees>40.5231609754264354705810546875</LatitudeDegrees>
              <LongitudeDegrees>-3.36303270421922206878662109375</LongitudeDegrees>
            </Position>
            <AltitudeMeters>659.4000244140625</AltitudeMeters>
            <DistanceMeters>5840.5859293797</DistanceMeters>
          </Trackpoint>
          <Trackpoint>
            <Time>2019-07-19T07:42:31.000Z</Time>
            <Position>
              <LatitudeDegrees>40.5232950858771800994873046875</LatitudeDegrees>
              <LongitudeDegrees>-3.3631600253283977508544921875</LongitudeDegrees>
            </Position>
            <AltitudeMeters>659.79998779296875</AltitudeMeters>
            <DistanceMeters>5858.993661138</DistanceMeters>
          </Trackpoint>
          <Trackpoint>
            <Time>2019-07-19T07:42:41.000Z</Time>
            <Position>
              <LatitudeDegrees>40.52380881272256374359130859375</LatitudeDegrees>
              <LongitudeDegrees>-3.3634020946919918060302734375</LongitudeDegrees>
            </Position>
            <AltitudeMeters>660</AltitudeMeters>
            <DistanceMeters>5919.7297832413</DistanceMeters>
          </Trackpoint>
          <Trackpoint>
            <Time>2019-07-19T07:42:44.000Z</Time>
            <Position>
              <LatitudeDegrees>40.52396111190319061279296875</LatitudeDegrees>
              <LongitudeDegrees>-3.3634431660175323486328125</LongitudeDegrees>
            </Position>
            <AltitudeMeters>660.4000244140625</AltitudeMeters>
            <DistanceMeters>5937.0335191017</DistanceMeters>
          </Trackpoint>
          <Trackpoint>
            <Time>2019-07-19T07:42:48.000Z</Time>
            <Position>
              <LatitudeDegrees>40.5241681449115276336669921875</LatitudeDegrees>
              <LongitudeDegrees>-3.363479040563106536865234375</LongitudeDegrees>
            </Position>
            <AltitudeMeters>661.4000244140625</AltitudeMeters>
            <DistanceMeters>5960.2758568307</DistanceMeters>
          </Trackpoint>
          <Trackpoint>
            <Time>2019-07-19T07:42:56.000Z</Time>
            <Position>
              <LatitudeDegrees>40.5245946161448955535888671875</LatitudeDegrees>
              <LongitudeDegrees>-3.36352790705859661102294921875</LongitudeDegrees>
            </Position>
            <AltitudeMeters>662.5999755859375</AltitudeMeters>
            <DistanceMeters>6007.9226342504</DistanceMeters>
          </Trackpoint>
          <Trackpoint>
            <Time>2019-07-19T07:42:58.000Z</Time>
            <Position>
              <LatitudeDegrees>40.5246913433074951171875</LatitudeDegrees>
              <LongitudeDegrees>-3.3635459281504154205322265625</LongitudeDegrees>
            </Position>
            <AltitudeMeters>663.79998779296875</AltitudeMeters>
            <DistanceMeters>6018.7964477929</DistanceMeters>
          </Trackpoint>
          <Trackpoint>
            <Time>2019-07-19T07:43:00.000Z</Time>
            <Position>
              <LatitudeDegrees>40.524790920317173004150390625</LatitudeDegrees>
              <LongitudeDegrees>-3.36357115767896175384521484375</LongitudeDegrees>
            </Position>
            <AltitudeMeters>665.20001220703125</AltitudeMeters>
            <DistanceMeters>6030.0830455262</DistanceMeters>
          </Trackpoint>
          <Trackpoint>
            <Time>2019-07-19T07:43:05.000Z</Time>
            <Position>
              <LatitudeDegrees>40.52502452395856380462646484375</LatitudeDegrees>
              <LongitudeDegrees>-3.363646008074283599853515625</LongitudeDegrees>
            </Position>
            <AltitudeMeters>666.4000244140625</AltitudeMeters>
            <DistanceMeters>6056.8438235879</DistanceMeters>
          </Trackpoint>
          <Trackpoint>
            <Time>2019-07-19T07:43:08.000Z</Time>
            <Position>
              <LatitudeDegrees>40.5251491628587245941162109375</LatitudeDegrees>
              <LongitudeDegrees>-3.36371582932770252227783203125</LongitudeDegrees>
            </Position>
            <AltitudeMeters>667.5999755859375</AltitudeMeters>
            <DistanceMeters>6071.9216617802</DistanceMeters>
          </Trackpoint>
          <Trackpoint>
            <Time>2019-07-19T07:43:09.000Z</Time>
            <Position>
              <LatitudeDegrees>40.525195263326168060302734375</LatitudeDegrees>
              <LongitudeDegrees>-3.36374030448496341705322265625</LongitudeDegrees>
            </Position>
            <AltitudeMeters>667.79998779296875</AltitudeMeters>
            <DistanceMeters>6077.4544693085</DistanceMeters>
          </Trackpoint>
          <Trackpoint>
            <Time>2019-07-19T07:43:11.000Z</Time>
            <Position>
              <LatitudeDegrees>40.5252934992313385009765625</LatitudeDegrees>
              <LongitudeDegrees>-3.36377953179180622100830078125</LongitudeDegrees>
            </Position>
            <AltitudeMeters>668.5999755859375</AltitudeMeters>
            <DistanceMeters>6088.8806167444</DistanceMeters>
          </Trackpoint>
          <Trackpoint>
            <Time>2019-07-19T07:43:14.000Z</Time>
            <Position>
              <LatitudeDegrees>40.5254301242530345916748046875</LatitudeDegrees>
              <LongitudeDegrees>-3.3638302423059940338134765625</LongitudeDegrees>
            </Position>
            <AltitudeMeters>669.79998779296875</AltitudeMeters>
            <DistanceMeters>6104.6807905842</DistanceMeters>
          </Trackpoint>
          <Trackpoint>
            <Time>2019-07-19T07:43:18.000Z</Time>
            <Position>
              <LatitudeDegrees>40.52558158524334430694580078125</LatitudeDegrees>
              <LongitudeDegrees>-3.36388413794338703155517578125</LongitudeDegrees>
            </Position>
            <AltitudeMeters>671</AltitudeMeters>
            <DistanceMeters>6122.1445187606</DistanceMeters>
          </Trackpoint>
          <Trackpoint>
            <Time>2019-07-19T07:43:22.000Z</Time>
            <Position>
              <LatitudeDegrees>40.5257208086550235748291015625</LatitudeDegrees>
              <LongitudeDegrees>-3.36393225006759166717529296875</LongitudeDegrees>
            </Position>
            <AltitudeMeters>672.20001220703125</AltitudeMeters>
            <DistanceMeters>6138.1660340758</DistanceMeters>
          </Trackpoint>
          <Trackpoint>
            <Time>2019-07-19T07:43:26.000Z</Time>
            <Position>
              <LatitudeDegrees>40.5258559249341487884521484375</LatitudeDegrees>
              <LongitudeDegrees>-3.363985978066921234130859375</LongitudeDegrees>
            </Position>
            <AltitudeMeters>673.20001220703125</AltitudeMeters>
            <DistanceMeters>6153.8767982049</DistanceMeters>
          </Trackpoint>
          <Trackpoint>
            <Time>2019-07-19T07:43:39.000Z</Time>
            <Position>
              <LatitudeDegrees>40.526391528546810150146484375</LatitudeDegrees>
              <LongitudeDegrees>-3.364181779325008392333984375</LongitudeDegrees>
            </Position>
            <AltitudeMeters>672.79998779296875</AltitudeMeters>
            <DistanceMeters>6215.7491874227</DistanceMeters>
          </Trackpoint>
          <Trackpoint>
            <Time>2019-07-19T07:43:42.000Z</Time>
            <Position>
              <LatitudeDegrees>40.52652941085398197174072265625</LatitudeDegrees>
              <LongitudeDegrees>-3.36423466913402080535888671875</LongitudeDegrees>
            </Position>
            <AltitudeMeters>672</AltitudeMeters>
            <DistanceMeters>6231.7345902394</DistanceMeters>
          </Trackpoint>
          <Trackpoint>
            <Time>2019-07-19T07:43:49.000Z</Time>
            <Position>
              <LatitudeDegrees>40.526914559304714202880859375</LatitudeDegrees>
              <LongitudeDegrees>-3.36442292667925357818603515625</LongitudeDegrees>
            </Position>
            <AltitudeMeters>673.20001220703125</AltitudeMeters>
            <DistanceMeters>6277.4654498855</DistanceMeters>
          </Trackpoint>
          <Trackpoint>
            <Time>2019-07-19T07:43:55.000Z</Time>
            <Position>
              <LatitudeDegrees>40.5273428745567798614501953125</LatitudeDegrees>
              <LongitudeDegrees>-3.364743031561374664306640625</LongitudeDegrees>
            </Position>
            <AltitudeMeters>671.5999755859375</AltitudeMeters>
            <DistanceMeters>6332.2926525083</DistanceMeters>
          </Trackpoint>
          <Trackpoint>
            <Time>2019-07-19T07:43:56.000Z</Time>
            <Position>
              <LatitudeDegrees>40.52742007188498973846435546875</LatitudeDegrees>
              <LongitudeDegrees>-3.3648030459880828857421875</LongitudeDegrees>
            </Position>
            <AltitudeMeters>670</AltitudeMeters>
            <DistanceMeters>6342.2731721969</DistanceMeters>
          </Trackpoint>
          <Trackpoint>
            <Time>2019-07-19T07:43:57.000Z</Time>
            <Position>
              <LatitudeDegrees>40.52750037051737308502197265625</LatitudeDegrees>
              <LongitudeDegrees>-3.3648642338812351226806640625</LongitudeDegrees>
            </Position>
            <AltitudeMeters>668</AltitudeMeters>
            <DistanceMeters>6352.6018373144</DistanceMeters>
          </Trackpoint>
          <Trackpoint>
            <Time>2019-07-19T07:43:58.000Z</Time>
            <Position>
              <LatitudeDegrees>40.527579747140407562255859375</LatitudeDegrees>
              <LongitudeDegrees>-3.36492483504116535186767578125</LongitudeDegrees>
            </Position>
            <AltitudeMeters>666.20001220703125</AltitudeMeters>
            <DistanceMeters>6362.8166566133</DistanceMeters>
          </Trackpoint>
          <Trackpoint>
            <Time>2019-07-19T07:43:59.000Z</Time>
            <Position>
              <LatitudeDegrees>40.52765878848731517791748046875</LatitudeDegrees>
              <LongitudeDegrees>-3.36497998796403408050537109375</LongitudeDegrees>
            </Position>
            <AltitudeMeters>665</AltitudeMeters>
            <DistanceMeters>6372.7749847615</DistanceMeters>
          </Trackpoint>
          <Trackpoint>
            <Time>2019-07-19T07:44:01.000Z</Time>
            <Position>
              <LatitudeDegrees>40.52780630998313426971435546875</LatitudeDegrees>
              <LongitudeDegrees>-3.36507788859307765960693359375</LongitudeDegrees>
            </Position>
            <AltitudeMeters>663.5999755859375</AltitudeMeters>
            <DistanceMeters>6391.1652934336</DistanceMeters>
          </Trackpoint>
          <Trackpoint>
            <Time>2019-07-19T07:44:09.000Z</Time>
            <Position>
              <LatitudeDegrees>40.52830872125923633575439453125</LatitudeDegrees>
              <LongitudeDegrees>-3.36537930183112621307373046875</LongitudeDegrees>
            </Position>
            <AltitudeMeters>664.20001220703125</AltitudeMeters>
            <DistanceMeters>6452.6242204162</DistanceMeters>
          </Trackpoint>
          <Trackpoint>
            <Time>2019-07-19T07:44:18.000Z</Time>
            <Position>
              <LatitudeDegrees>40.52880828268826007843017578125</LatitudeDegrees>
              <LongitudeDegrees>-3.36566965095698833465576171875</LongitudeDegrees>
            </Position>
            <AltitudeMeters>664.79998779296875</AltitudeMeters>
            <DistanceMeters>6513.4103518081</DistanceMeters>
          </Trackpoint>
          <Trackpoint>
            <Time>2019-07-19T07:44:28.000Z</Time>
            <Position>
              <LatitudeDegrees>40.529341287910938262939453125</LatitudeDegrees>
              <LongitudeDegrees>-3.36599218659102916717529296875</LongitudeDegrees>
            </Position>
            <AltitudeMeters>665.4000244140625</AltitudeMeters>
            <DistanceMeters>6578.7089872924</DistanceMeters>
          </Trackpoint>
          <Trackpoint>
            <Time>2019-07-19T07:44:33.000Z</Time>
            <Position>
              <LatitudeDegrees>40.52959752269089221954345703125</LatitudeDegrees>
              <LongitudeDegrees>-3.36614356376230716705322265625</LongitudeDegrees>
            </Position>
            <AltitudeMeters>665.79998779296875</AltitudeMeters>
            <DistanceMeters>6609.9714765356</DistanceMeters>
          </Trackpoint>
          <Trackpoint>
            <Time>2019-07-19T07:44:41.000Z</Time>
            <Position>
              <LatitudeDegrees>40.529990382492542266845703125</LatitudeDegrees>
              <LongitudeDegrees>-3.36639032699167728424072265625</LongitudeDegrees>
            </Position>
            <AltitudeMeters>666.4000244140625</AltitudeMeters>
            <DistanceMeters>6658.4250381676</DistanceMeters>
          </Trackpoint>
          <Trackpoint>
            <Time>2019-07-19T07:44:44.000Z</Time>
            <Position>
              <LatitudeDegrees>40.53013513796031475067138671875</LatitudeDegrees>
              <LongitudeDegrees>-3.3664821088314056396484375</LongitudeDegrees>
            </Position>
            <AltitudeMeters>666.79998779296875</AltitudeMeters>
            <DistanceMeters>6676.3097625937</DistanceMeters>
          </Trackpoint>
          <Trackpoint>
            <Time>2019-07-19T07:44:53.000Z</Time>
            <Position>
              <LatitudeDegrees>40.53056630305945873260498046875</LatitudeDegrees>
              <LongitudeDegrees>-3.366723172366619110107421875</LongitudeDegrees>
            </Position>
            <AltitudeMeters>667</AltitudeMeters>
            <DistanceMeters>6728.4525928449</DistanceMeters>
          </Trackpoint>
          <Trackpoint>
            <Time>2019-07-19T07:44:57.000Z</Time>
            <Position>
              <LatitudeDegrees>40.530745089054107666015625</LatitudeDegrees>
              <LongitudeDegrees>-3.366848565638065338134765625</LongitudeDegrees>
            </Position>
            <AltitudeMeters>667.79998779296875</AltitudeMeters>
            <DistanceMeters>6751.0025743241</DistanceMeters>
          </Trackpoint>
          <Trackpoint>
            <Time>2019-07-19T07:44:59.000Z</Time>
            <Position>
              <LatitudeDegrees>40.530841983854770660400390625</LatitudeDegrees>
              <LongitudeDegrees>-3.36689894087612628936767578125</LongitudeDegrees>
            </Position>
            <AltitudeMeters>668</AltitudeMeters>
            <DistanceMeters>6762.598559333</DistanceMeters>
          </Trackpoint>
          <Trackpoint>
            <Time>2019-07-19T07:45:06.000Z</Time>
            <Position>
              <LatitudeDegrees>40.53116443566977977752685546875</LatitudeDegrees>
              <LongitudeDegrees>-3.3671043813228607177734375</LongitudeDegrees>
            </Position>
            <AltitudeMeters>668</AltitudeMeters>
            <DistanceMeters>6802.474581338</DistanceMeters>
          </Trackpoint>
          <Trackpoint>
            <Time>2019-07-19T07:45:18.000Z</Time>
            <Position>
              <LatitudeDegrees>40.5316950939595699310302734375</LatitudeDegrees>
              <LongitudeDegrees>-3.36742951534688472747802734375</LongitudeDegrees>
            </Position>
            <AltitudeMeters>668.5999755859375</AltitudeMeters>
            <DistanceMeters>6867.6282674658</DistanceMeters>
          </Trackpoint>
          <Trackpoint>
            <Time>2019-07-19T07:45:22.000Z</Time>
            <Position>
              <LatitudeDegrees>40.53187890909612178802490234375</LatitudeDegrees>
              <LongitudeDegrees>-3.36753395386040210723876953125</LongitudeDegrees>
            </Position>
            <AltitudeMeters>668.79998779296875</AltitudeMeters>
            <DistanceMeters>6889.9131969948</DistanceMeters>
          </Trackpoint>
          <Trackpoint>
            <Time>2019-07-19T07:45:23.000Z</Time>
            <Position>
              <LatitudeDegrees>40.53192400373518466949462890625</LatitudeDegrees>
              <LongitudeDegrees>-3.36756329052150249481201171875</LongitudeDegrees>
            </Position>
            <AltitudeMeters>668.79998779296875</AltitudeMeters>
            <DistanceMeters>6895.5125206516</DistanceMeters>
          </Trackpoint>
          <Trackpoint>
            <Time>2019-07-19T07:45:34.000Z</Time>
            <Position>
              <LatitudeDegrees>40.53244451992213726043701171875</LatitudeDegrees>
              <LongitudeDegrees>-3.36787886917591094970703125</LongitudeDegrees>
            </Position>
            <AltitudeMeters>668.4000244140625</AltitudeMeters>
            <DistanceMeters>6959.3019233516</DistanceMeters>
          </Trackpoint>
          <Trackpoint>
            <Time>2019-07-19T07:45:44.000Z</Time>
            <Position>
              <LatitudeDegrees>40.53295589983463287353515625</LatitudeDegrees>
              <LongitudeDegrees>-3.36818329989910125732421875</LongitudeDegrees>
            </Position>
            <AltitudeMeters>668.4000244140625</AltitudeMeters>
            <DistanceMeters>7021.7745263816</DistanceMeters>
          </Trackpoint>
          <Trackpoint>
            <Time>2019-07-19T07:45:53.000Z</Time>
            <Position>
              <LatitudeDegrees>40.53339779376983642578125</LatitudeDegrees>
              <LongitudeDegrees>-3.36844422854483127593994140625</LongitudeDegrees>
            </Position>
            <AltitudeMeters>669.5999755859375</AltitudeMeters>
            <DistanceMeters>7075.6839946841</DistanceMeters>
          </Trackpoint>
          <Trackpoint>
            <Time>2019-07-19T07:46:04.000Z</Time>
            <Position>
              <LatitudeDegrees>40.53391076624393463134765625</LatitudeDegrees>
              <LongitudeDegrees>-3.36878017522394657135009765625</LongitudeDegrees>
            </Position>
            <AltitudeMeters>669.79998779296875</AltitudeMeters>
            <DistanceMeters>7139.4604432591</DistanceMeters>
          </Trackpoint>
          <Trackpoint>
            <Time>2019-07-19T07:46:06.000Z</Time>
            <Position>
              <LatitudeDegrees>40.53400422446429729461669921875</LatitudeDegrees>
              <LongitudeDegrees>-3.368850834667682647705078125</LongitudeDegrees>
            </Position>
            <AltitudeMeters>669.5999755859375</AltitudeMeters>
            <DistanceMeters>7151.4575424268</DistanceMeters>
          </Trackpoint>
          <Trackpoint>
            <Time>2019-07-19T07:46:12.000Z</Time>
            <Position>
              <LatitudeDegrees>40.534297339618206024169921875</LatitudeDegrees>
              <LongitudeDegrees>-3.3690126053988933563232421875</LongitudeDegrees>
            </Position>
            <AltitudeMeters>670</AltitudeMeters>
            <DistanceMeters>7186.8356959331</DistanceMeters>
          </Trackpoint>
          <Trackpoint>
            <Time>2019-07-19T07:46:14.000Z</Time>
            <Position>
              <LatitudeDegrees>40.534398593008518218994140625</LatitudeDegrees>
              <LongitudeDegrees>-3.36904437281191349029541015625</LongitudeDegrees>
            </Position>
            <AltitudeMeters>670.5999755859375</AltitudeMeters>
            <DistanceMeters>7198.4207736707</DistanceMeters>
          </Trackpoint>
          <Trackpoint>
            <Time>2019-07-19T07:46:25.000Z</Time>
            <Position>
              <LatitudeDegrees>40.53490645252168178558349609375</LatitudeDegrees>
              <LongitudeDegrees>-3.36936959065496921539306640625</LongitudeDegrees>
            </Position>
            <AltitudeMeters>671</AltitudeMeters>
            <DistanceMeters>7261.2856676544</DistanceMeters>
          </Trackpoint>
          <Trackpoint>
            <Time>2019-07-19T07:46:26.000Z</Time>
            <Position>
              <LatitudeDegrees>40.534952469170093536376953125</LatitudeDegrees>
              <LongitudeDegrees>-3.36939658038318157196044921875</LongitudeDegrees>
            </Position>
            <AltitudeMeters>671</AltitudeMeters>
            <DistanceMeters>7266.8930490555</DistanceMeters>
          </Trackpoint>
          <Trackpoint>
            <Time>2019-07-19T07:46:37.000Z</Time>
            <Position>
              <LatitudeDegrees>40.53543987683951854705810546875</LatitudeDegrees>
              <LongitudeDegrees>-3.3697160147130489349365234375</LongitudeDegrees>
            </Position>
            <AltitudeMeters>671.5999755859375</AltitudeMeters>
            <DistanceMeters>7327.4995349707</DistanceMeters>
          </Trackpoint>
          <Trackpoint>
            <Time>2019-07-19T07:46:43.000Z</Time>
            <Position>
              <LatitudeDegrees>40.5357170663774013519287109375</LatitudeDegrees>
              <LongitudeDegrees>-3.36989228613674640655517578125</LongitudeDegrees>
            </Position>
            <AltitudeMeters>672</AltitudeMeters>
            <DistanceMeters>7361.7655936856</DistanceMeters>
          </Trackpoint>
          <Trackpoint>
            <Time>2019-07-19T07:46:45.000Z</Time>
            <Position>
              <LatitudeDegrees>40.5358132906258106231689453125</LatitudeDegrees>
              <LongitudeDegrees>-3.3699450083076953887939453125</LongitudeDegrees>
            </Position>
            <AltitudeMeters>672.4000244140625</AltitudeMeters>
            <DistanceMeters>7373.3666392989</DistanceMeters>
          </Trackpoint>
          <Trackpoint>
            <Time>2019-07-19T07:46:49.000Z</Time>
            <Position>
              <LatitudeDegrees>40.5360040627419948577880859375</LatitudeDegrees>
              <LongitudeDegrees>-3.3700596727430820465087890625</LongitudeDegrees>
            </Position>
            <AltitudeMeters>672.4000244140625</AltitudeMeters>
            <DistanceMeters>7396.7103535082</DistanceMeters>
          </Trackpoint>
          <Trackpoint>
            <Time>2019-07-19T07:46:52.000Z</Time>
            <Position>
              <LatitudeDegrees>40.53614647127687931060791015625</LatitudeDegrees>
              <LongitudeDegrees>-3.37014399468898773193359375</LongitudeDegrees>
            </Position>
            <AltitudeMeters>673.20001220703125</AltitudeMeters>
            <DistanceMeters>7414.0916721437</DistanceMeters>
          </Trackpoint>
          <Trackpoint>
            <Time>2019-07-19T07:47:00.000Z</Time>
            <Position>
              <LatitudeDegrees>40.53652592003345489501953125</LatitudeDegrees>
              <LongitudeDegrees>-3.37035052478313446044921875</LongitudeDegrees>
            </Position>
            <AltitudeMeters>673.79998779296875</AltitudeMeters>
            <DistanceMeters>7459.7957679477</DistanceMeters>
          </Trackpoint>
          <Trackpoint>
            <Time>2019-07-19T07:47:03.000Z</Time>
            <Position>
              <LatitudeDegrees>40.53665474988520145416259765625</LatitudeDegrees>
              <LongitudeDegrees>-3.3704464137554168701171875</LongitudeDegrees>
            </Position>
            <AltitudeMeters>674.20001220703125</AltitudeMeters>
            <DistanceMeters>7476.2702323578</DistanceMeters>
          </Trackpoint>
          <Trackpoint>
            <Time>2019-07-19T07:47:04.000Z</Time>
            <Position>
              <LatitudeDegrees>40.5367004312574863433837890625</LatitudeDegrees>
              <LongitudeDegrees>-3.3704744093120098114013671875</LongitudeDegrees>
            </Position>
            <AltitudeMeters>674.4000244140625</AltitudeMeters>
            <DistanceMeters>7481.8792239187</DistanceMeters>
          </Trackpoint>
          <Trackpoint>
            <Time>2019-07-19T07:47:16.000Z</Time>
            <Position>
              <LatitudeDegrees>40.537227652966976165771484375</LatitudeDegrees>
              <LongitudeDegrees>-3.37081161327660083770751953125</LongitudeDegrees>
            </Position>
            <AltitudeMeters>674.79998779296875</AltitudeMeters>
            <DistanceMeters>7547.1251500586</DistanceMeters>
          </Trackpoint>
          <Trackpoint>
            <Time>2019-07-19T07:47:20.000Z</Time>
            <Position>
              <LatitudeDegrees>40.53740702569484710693359375</LatitudeDegrees>
              <LongitudeDegrees>-3.3709059096872806549072265625</LongitudeDegrees>
            </Position>
            <AltitudeMeters>675.4000244140625</AltitudeMeters>
            <DistanceMeters>7568.6238810144</DistanceMeters>
          </Trackpoint>
          <Trackpoint>
            <Time>2019-07-19T07:47:31.000Z</Time>
            <Position>
              <LatitudeDegrees>40.537912286818027496337890625</LatitudeDegrees>
              <LongitudeDegrees>-3.3712187223136425018310546875</LongitudeDegrees>
            </Position>
            <AltitudeMeters>675.79998779296875</AltitudeMeters>
            <DistanceMeters>7630.7744034542</DistanceMeters>
          </Trackpoint>
          <Trackpoint>
            <Time>2019-07-19T07:47:42.000Z</Time>
            <Position>
              <LatitudeDegrees>40.53842224180698394775390625</LatitudeDegrees>
              <LongitudeDegrees>-3.3715117536485195159912109375</LongitudeDegrees>
            </Position>
            <AltitudeMeters>676.4000244140625</AltitudeMeters>
            <DistanceMeters>7692.7095179957</DistanceMeters>
          </Trackpoint>
          <Trackpoint>
            <Time>2019-07-19T07:47:53.000Z</Time>
            <Position>
              <LatitudeDegrees>40.5389323644340038299560546875</LatitudeDegrees>
              <LongitudeDegrees>-3.371820040047168731689453125</LongitudeDegrees>
            </Position>
            <AltitudeMeters>677</AltitudeMeters>
            <DistanceMeters>7755.1890587805</DistanceMeters>
          </Trackpoint>
          <Trackpoint>
            <Time>2019-07-19T07:48:00.000Z</Time>
            <Position>
              <LatitudeDegrees>40.53925867192447185516357421875</LatitudeDegrees>
              <LongitudeDegrees>-3.3720237202942371368408203125</LongitudeDegrees>
            </Position>
            <AltitudeMeters>677.5999755859375</AltitudeMeters>
            <DistanceMeters>7795.3868191539</DistanceMeters>
          </Trackpoint>
          <Trackpoint>
            <Time>2019-07-19T07:48:08.000Z</Time>
            <Position>
              <LatitudeDegrees>40.5396287329494953155517578125</LatitudeDegrees>
              <LongitudeDegrees>-3.37224592454731464385986328125</LongitudeDegrees>
            </Position>
            <AltitudeMeters>678.5999755859375</AltitudeMeters>
            <DistanceMeters>7840.6610404302</DistanceMeters>
          </Trackpoint>
          <Trackpoint>
            <Time>2019-07-19T07:48:11.000Z</Time>
            <Position>
              <LatitudeDegrees>40.53975999355316162109375</LatitudeDegrees>
              <LongitudeDegrees>-3.3723211102187633514404296875</LongitudeDegrees>
            </Position>
            <AltitudeMeters>678.79998779296875</AltitudeMeters>
            <DistanceMeters>7856.5949548676</DistanceMeters>
          </Trackpoint>
          <Trackpoint>
            <Time>2019-07-19T07:48:17.000Z</Time>
            <Position>
              <LatitudeDegrees>40.54002620279788970947265625</LatitudeDegrees>
              <LongitudeDegrees>-3.3724914304912090301513671875</LongitudeDegrees>
            </Position>
            <AltitudeMeters>679</AltitudeMeters>
            <DistanceMeters>7889.5414170301</DistanceMeters>
          </Trackpoint>
          <Trackpoint>
            <Time>2019-07-19T07:48:26.000Z</Time>
            <Position>
              <LatitudeDegrees>40.54043197073042392730712890625</LatitudeDegrees>
              <LongitudeDegrees>-3.37274347431957721710205078125</LongitudeDegrees>
            </Position>
            <AltitudeMeters>679.5999755859375</AltitudeMeters>
            <DistanceMeters>7939.483086249</DistanceMeters>
          </Trackpoint>
          <Trackpoint>
            <Time>2019-07-19T07:48:37.000Z</Time>
            <Position>
              <LatitudeDegrees>40.54092130623757839202880859375</LatitudeDegrees>
              <LongitudeDegrees>-3.3730443008244037628173828125</LongitudeDegrees>
            </Position>
            <AltitudeMeters>680.5999755859375</AltitudeMeters>
            <DistanceMeters>7999.5977548612</DistanceMeters>
          </Trackpoint>
          <Trackpoint>
            <Time>2019-07-19T07:48:46.000Z</Time>
            <Position>
              <LatitudeDegrees>40.5413114838302135467529296875</LatitudeDegrees>
              <LongitudeDegrees>-3.3732756413519382476806640625</LongitudeDegrees>
            </Position>
            <AltitudeMeters>681.79998779296875</AltitudeMeters>
            <DistanceMeters>8047.2299369098</DistanceMeters>
          </Trackpoint>
          <Trackpoint>
            <Time>2019-07-19T07:48:56.000Z</Time>
            <Position>
              <LatitudeDegrees>40.5417812056839466094970703125</LatitudeDegrees>
              <LongitudeDegrees>-3.37354981340467929840087890625</LongitudeDegrees>
            </Position>
            <AltitudeMeters>682</AltitudeMeters>
            <DistanceMeters>8104.423231545</DistanceMeters>
          </Trackpoint>
          <Trackpoint>
            <Time>2019-07-19T07:49:06.000Z</Time>
            <Position>
              <LatitudeDegrees>40.54228235967457294464111328125</LatitudeDegrees>
              <LongitudeDegrees>-3.3738580159842967987060546875</LongitudeDegrees>
            </Position>
            <AltitudeMeters>682.20001220703125</AltitudeMeters>
            <DistanceMeters>8165.9935030388</DistanceMeters>
          </Trackpoint>
          <Trackpoint>
            <Time>2019-07-19T07:49:12.000Z</Time>
            <Position>
              <LatitudeDegrees>40.54258813150227069854736328125</LatitudeDegrees>
              <LongitudeDegrees>-3.37397687137126922607421875</LongitudeDegrees>
            </Position>
            <AltitudeMeters>681.4000244140625</AltitudeMeters>
            <DistanceMeters>8201.480351317</DistanceMeters>
          </Trackpoint>
          <Trackpoint>
            <Time>2019-07-19T07:49:17.000Z</Time>
            <Position>
              <LatitudeDegrees>40.542878396809101104736328125</LatitudeDegrees>
              <LongitudeDegrees>-3.37404417805373668670654296875</LongitudeDegrees>
            </Position>
            <AltitudeMeters>680.5999755859375</AltitudeMeters>
            <DistanceMeters>8234.2850816182</DistanceMeters>
          </Trackpoint>
          <Trackpoint>
            <Time>2019-07-19T07:49:20.000Z</Time>
            <Position>
              <LatitudeDegrees>40.5430844239890575408935546875</LatitudeDegrees>
              <LongitudeDegrees>-3.3740849979221820831298828125</LongitudeDegrees>
            </Position>
            <AltitudeMeters>679.4000244140625</AltitudeMeters>
            <DistanceMeters>8257.4747153452</DistanceMeters>
          </Trackpoint>
          <Trackpoint>
            <Time>2019-07-19T07:49:22.000Z</Time>
            <Position>
              <LatitudeDegrees>40.543228089809417724609375</LatitudeDegrees>
              <LongitudeDegrees>-3.37412028573453426361083984375</LongitudeDegrees>
            </Position>
            <AltitudeMeters>678</AltitudeMeters>
            <DistanceMeters>8273.7412238815</DistanceMeters>
          </Trackpoint>
          <Trackpoint>
            <Time>2019-07-19T07:49:24.000Z</Time>
            <Position>
              <LatitudeDegrees>40.54337452165782451629638671875</LatitudeDegrees>
              <LongitudeDegrees>-3.37415062822401523590087890625</LongitudeDegrees>
            </Position>
            <AltitudeMeters>676.5999755859375</AltitudeMeters>
            <DistanceMeters>8290.2403355085</DistanceMeters>
          </Trackpoint>
          <Trackpoint>
            <Time>2019-07-19T07:49:27.000Z</Time>
            <Position>
              <LatitudeDegrees>40.54358775727450847625732421875</LatitudeDegrees>
              <LongitudeDegrees>-3.37417929433286190032958984375</LongitudeDegrees>
            </Position>
            <AltitudeMeters>675.5999755859375</AltitudeMeters>
            <DistanceMeters>8314.0975297748</DistanceMeters>
          </Trackpoint>
          <Trackpoint>
            <Time>2019-07-19T07:49:28.000Z</Time>
            <Position>
              <LatitudeDegrees>40.5436580814421176910400390625</LatitudeDegrees>
              <LongitudeDegrees>-3.374199829995632171630859375</LongitudeDegrees>
            </Position>
            <AltitudeMeters>675.4000244140625</AltitudeMeters>
            <DistanceMeters>8322.1153296105</DistanceMeters>
          </Trackpoint>
          <Trackpoint>
            <Time>2019-07-19T07:49:30.000Z</Time>
            <Position>
              <LatitudeDegrees>40.54379546083509922027587890625</LatitudeDegrees>
              <LongitudeDegrees>-3.37422824464738368988037109375</LongitudeDegrees>
            </Position>
            <AltitudeMeters>675</AltitudeMeters>
            <DistanceMeters>8337.5933116514</DistanceMeters>
          </Trackpoint>
          <Trackpoint>
            <Time>2019-07-19T07:49:32.000Z</Time>
            <Position>
              <LatitudeDegrees>40.54393409751355648040771484375</LatitudeDegrees>
              <LongitudeDegrees>-3.37420754134654998779296875</LongitudeDegrees>
            </Position>
            <AltitudeMeters>674.5999755859375</AltitudeMeters>
            <DistanceMeters>8353.1231307638</DistanceMeters>
          </Trackpoint>
          <Trackpoint>
            <Time>2019-07-19T07:49:35.000Z</Time>
            <Position>
              <LatitudeDegrees>40.54413291625678539276123046875</LatitudeDegrees>
              <LongitudeDegrees>-3.374118022620677947998046875</LongitudeDegrees>
            </Position>
            <AltitudeMeters>674.20001220703125</AltitudeMeters>
            <DistanceMeters>8376.5114812988</DistanceMeters>
          </Trackpoint>
          <Trackpoint>
            <Time>2019-07-19T07:49:44.000Z</Time>
            <Position>
              <LatitudeDegrees>40.54466198198497295379638671875</LatitudeDegrees>
              <LongitudeDegrees>-3.37388810701668262481689453125</LongitudeDegrees>
            </Position>
            <AltitudeMeters>674.20001220703125</AltitudeMeters>
            <DistanceMeters>8438.5252773109</DistanceMeters>
          </Trackpoint>
          <Trackpoint>
            <Time>2019-07-19T07:49:49.000Z</Time>
            <Position>
              <LatitudeDegrees>40.54489533416926860809326171875</LatitudeDegrees>
              <LongitudeDegrees>-3.37378903292119503021240234375</LongitudeDegrees>
            </Position>
            <AltitudeMeters>675.4000244140625</AltitudeMeters>
            <DistanceMeters>8465.8161489536</DistanceMeters>
          </Trackpoint>
          <Trackpoint>
            <Time>2019-07-19T07:49:56.000Z</Time>
            <Position>
              <LatitudeDegrees>40.545180402696132659912109375</LatitudeDegrees>
              <LongitudeDegrees>-3.37366146035492420196533203125</LongitudeDegrees>
            </Position>
            <AltitudeMeters>676.4000244140625</AltitudeMeters>
            <DistanceMeters>8499.329472393</DistanceMeters>
          </Trackpoint>
          <Trackpoint>
            <Time>2019-07-19T07:50:09.000Z</Time>
            <Position>
              <LatitudeDegrees>40.54571592248976230621337890625</LatitudeDegrees>
              <LongitudeDegrees>-3.3734104223549365997314453125</LongitudeDegrees>
            </Position>
            <AltitudeMeters>676.20001220703125</AltitudeMeters>
            <DistanceMeters>8562.6027088489</DistanceMeters>
          </Trackpoint>
          <Trackpoint>
            <Time>2019-07-19T07:50:10.000Z</Time>
            <Position>
              <LatitudeDegrees>40.5457632802426815032958984375</LatitudeDegrees>
              <LongitudeDegrees>-3.37339483201503753662109375</LongitudeDegrees>
            </Position>
            <AltitudeMeters>676.20001220703125</AltitudeMeters>
            <DistanceMeters>8568.0367082942</DistanceMeters>
          </Trackpoint>
          <Trackpoint>
            <Time>2019-07-19T07:50:13.000Z</Time>
            <Position>
              <LatitudeDegrees>40.5458702333271503448486328125</LatitudeDegrees>
              <LongitudeDegrees>-3.37339642457664012908935546875</LongitudeDegrees>
            </Position>
            <AltitudeMeters>676.5999755859375</AltitudeMeters>
            <DistanceMeters>8579.9416253367</DistanceMeters>
          </Trackpoint>
          <Trackpoint>
            <Time>2019-07-19T07:50:16.000Z</Time>
            <Position>
              <LatitudeDegrees>40.54595254361629486083984375</LatitudeDegrees>
              <LongitudeDegrees>-3.373450152575969696044921875</LongitudeDegrees>
            </Position>
            <AltitudeMeters>677.5999755859375</AltitudeMeters>
            <DistanceMeters>8590.1683719051</DistanceMeters>
          </Trackpoint>
          <Trackpoint>
            <Time>2019-07-19T07:50:19.000Z</Time>
            <Position>
              <LatitudeDegrees>40.54598531685769557952880859375</LatitudeDegrees>
              <LongitudeDegrees>-3.3733634836971759796142578125</LongitudeDegrees>
            </Position>
            <AltitudeMeters>678.79998779296875</AltitudeMeters>
            <DistanceMeters>8598.3561241925</DistanceMeters>
          </Trackpoint>
          <Trackpoint>
            <Time>2019-07-19T07:50:23.000Z</Time>
            <Position>
              <LatitudeDegrees>40.5460009910166263580322265625</LatitudeDegrees>
              <LongitudeDegrees>-3.373236246407032012939453125</LongitudeDegrees>
            </Position>
            <AltitudeMeters>679.5999755859375</AltitudeMeters>
            <DistanceMeters>8609.2581362158</DistanceMeters>
          </Trackpoint>
          <Trackpoint>
            <Time>2019-07-19T07:50:25.000Z</Time>
            <Position>
              <LatitudeDegrees>40.546039380133152008056640625</LatitudeDegrees>
              <LongitudeDegrees>-3.3732045628130435943603515625</LongitudeDegrees>
            </Position>
            <AltitudeMeters>679.5999755859375</AltitudeMeters>
            <DistanceMeters>8614.3008235218</DistanceMeters>
          </Trackpoint>
          <Trackpoint>
            <Time>2019-07-19T07:50:29.000Z</Time>
            <Position>
              <LatitudeDegrees>40.54616116918623447418212890625</LatitudeDegrees>
              <LongitudeDegrees>-3.3732173033058643341064453125</LongitudeDegrees>
            </Position>
            <AltitudeMeters>679.79998779296875</AltitudeMeters>
            <DistanceMeters>8627.8992758388</DistanceMeters>
          </Trackpoint>
          <Trackpoint>
            <Time>2019-07-19T07:50:45.000Z</Time>
            <Position>
              <LatitudeDegrees>40.5467057414352893829345703125</LatitudeDegrees>
              <LongitudeDegrees>-3.373265750706195831298828125</LongitudeDegrees>
            </Position>
            <AltitudeMeters>680.4000244140625</AltitudeMeters>
            <DistanceMeters>8688.649520634</DistanceMeters>
          </Trackpoint>
          <Trackpoint>
            <Time>2019-07-19T07:50:59.000Z</Time>
            <Position>
              <LatitudeDegrees>40.54726556874811649322509765625</LatitudeDegrees>
              <LongitudeDegrees>-3.373314030468463897705078125</LongitudeDegrees>
            </Position>
            <AltitudeMeters>680.4000244140625</AltitudeMeters>
            <DistanceMeters>8751.0929911376</DistanceMeters>
          </Trackpoint>
          <Trackpoint>
            <Time>2019-07-19T07:51:13.000Z</Time>
            <Position>
              <LatitudeDegrees>40.5478423275053501129150390625</LatitudeDegrees>
              <LongitudeDegrees>-3.37331436574459075927734375</LongitudeDegrees>
            </Position>
            <AltitudeMeters>680.79998779296875</AltitudeMeters>
            <DistanceMeters>8815.287317254</DistanceMeters>
          </Trackpoint>
          <Trackpoint>
            <Time>2019-07-19T07:51:16.000Z</Time>
            <Position>
              <LatitudeDegrees>40.54795908741652965545654296875</LatitudeDegrees>
              <LongitudeDegrees>-3.37331780232489109039306640625</LongitudeDegrees>
            </Position>
            <AltitudeMeters>680.79998779296875</AltitudeMeters>
            <DistanceMeters>8828.28619376</DistanceMeters>
          </Trackpoint>
          <Trackpoint>
            <Time>2019-07-19T07:51:30.000Z</Time>
            <Position>
              <LatitudeDegrees>40.548511035740375518798828125</LatitudeDegrees>
              <LongitudeDegrees>-3.373348228633403778076171875</LongitudeDegrees>
            </Position>
            <AltitudeMeters>681.5999755859375</AltitudeMeters>
            <DistanceMeters>8889.7729574154</DistanceMeters>
          </Trackpoint>
          <Trackpoint>
            <Time>2019-07-19T07:51:34.000Z</Time>
            <Position>
              <LatitudeDegrees>40.54872460663318634033203125</LatitudeDegrees>
              <LongitudeDegrees>-3.37331579066812992095947265625</LongitudeDegrees>
            </Position>
            <AltitudeMeters>681.79998779296875</AltitudeMeters>
            <DistanceMeters>8913.7015822643</DistanceMeters>
          </Trackpoint>
          <Trackpoint>
            <Time>2019-07-19T07:51:35.000Z</Time>
            <Position>
              <LatitudeDegrees>40.5487811006605625152587890625</LatitudeDegrees>
              <LongitudeDegrees>-3.37328276596963405609130859375</LongitudeDegrees>
            </Position>
            <AltitudeMeters>682</AltitudeMeters>
            <DistanceMeters>8920.5816738858</DistanceMeters>
          </Trackpoint>
          <Trackpoint>
            <Time>2019-07-19T07:51:39.000Z</Time>
            <Position>
              <LatitudeDegrees>40.548986457288265228271484375</LatitudeDegrees>
              <LongitudeDegrees>-3.37318453006446361541748046875</LongitudeDegrees>
            </Position>
            <AltitudeMeters>682.4000244140625</AltitudeMeters>
            <DistanceMeters>8944.9014589779</DistanceMeters>
          </Trackpoint>
          <Trackpoint>
            <Time>2019-07-19T07:51:41.000Z</Time>
            <Position>
              <LatitudeDegrees>40.54910011589527130126953125</LatitudeDegrees>
              <LongitudeDegrees>-3.373218812048435211181640625</LongitudeDegrees>
            </Position>
            <AltitudeMeters>682.5999755859375</AltitudeMeters>
            <DistanceMeters>8957.8801740909</DistanceMeters>
          </Trackpoint>
          <Trackpoint>
            <Time>2019-07-19T07:51:44.000Z</Time>
            <Position>
              <LatitudeDegrees>40.54925928823649883270263671875</LatitudeDegrees>
              <LongitudeDegrees>-3.37330707348883152008056640625</LongitudeDegrees>
            </Position>
            <AltitudeMeters>682.4000244140625</AltitudeMeters>
            <DistanceMeters>8977.1047148838</DistanceMeters>
          </Trackpoint>
          <Trackpoint>
            <Time>2019-07-19T07:51:46.000Z</Time>
            <Position>
              <LatitudeDegrees>40.54937303066253662109375</LatitudeDegrees>
              <LongitudeDegrees>-3.37331973016262054443359375</LongitudeDegrees>
            </Position>
            <AltitudeMeters>682</AltitudeMeters>
            <DistanceMeters>8989.8098967602</DistanceMeters>
          </Trackpoint>
          <Trackpoint>
            <Time>2019-07-19T07:51:51.000Z</Time>
            <Position>
              <LatitudeDegrees>40.54969078861176967620849609375</LatitudeDegrees>
              <LongitudeDegrees>-3.37330874986946582794189453125</LongitudeDegrees>
            </Position>
            <AltitudeMeters>681</AltitudeMeters>
            <DistanceMeters>9025.1890712295</DistanceMeters>
          </Trackpoint>
          <Trackpoint>
            <Time>2019-07-19T07:52:01.000Z</Time>
            <Position>
              <LatitudeDegrees>40.55027936585247516632080078125</LatitudeDegrees>
              <LongitudeDegrees>-3.3733165450394153594970703125</LongitudeDegrees>
            </Position>
            <AltitudeMeters>682</AltitudeMeters>
            <DistanceMeters>9090.7022551981</DistanceMeters>
          </Trackpoint>
          <Trackpoint>
            <Time>2019-07-19T07:52:11.000Z</Time>
            <Position>
              <LatitudeDegrees>40.55084531195461750030517578125</LatitudeDegrees>
              <LongitudeDegrees>-3.37332936935126781463623046875</LongitudeDegrees>
            </Position>
            <AltitudeMeters>682.5999755859375</AltitudeMeters>
            <DistanceMeters>9153.7024585291</DistanceMeters>
          </Trackpoint>
          <Trackpoint>
            <Time>2019-07-19T07:52:17.000Z</Time>
            <Position>
              <LatitudeDegrees>40.55118846707046031951904296875</LatitudeDegrees>
              <LongitudeDegrees>-3.37333925999701023101806640625</LongitudeDegrees>
            </Position>
            <AltitudeMeters>683</AltitudeMeters>
            <DistanceMeters>9191.9053251104</DistanceMeters>
          </Trackpoint>
          <Trackpoint>
            <Time>2019-07-19T07:52:25.000Z</Time>
            <Position>
              <LatitudeDegrees>40.55164025165140628814697265625</LatitudeDegrees>
              <LongitudeDegrees>-3.37333641014993190765380859375</LongitudeDegrees>
            </Position>
            <AltitudeMeters>681.79998779296875</AltitudeMeters>
            <DistanceMeters>9242.190441952</DistanceMeters>
          </Trackpoint>
          <Trackpoint>
            <Time>2019-07-19T07:52:32.000Z</Time>
            <Position>
              <LatitudeDegrees>40.5520994961261749267578125</LatitudeDegrees>
              <LongitudeDegrees>-3.37331729941070079803466796875</LongitudeDegrees>
            </Position>
            <AltitudeMeters>681</AltitudeMeters>
            <DistanceMeters>9293.330796762</DistanceMeters>
          </Trackpoint>
          <Trackpoint>
            <Time>2019-07-19T07:52:33.000Z</Time>
            <Position>
              <LatitudeDegrees>40.55216596461832523345947265625</LatitudeDegrees>
              <LongitudeDegrees>-3.37330363690853118896484375</LongitudeDegrees>
            </Position>
            <AltitudeMeters>680.79998779296875</AltitudeMeters>
            <DistanceMeters>9300.8180335396</DistanceMeters>
          </Trackpoint>
          <Trackpoint>
            <Time>2019-07-19T07:52:36.000Z</Time>
            <Position>
              <LatitudeDegrees>40.552368722856044769287109375</LatitudeDegrees>
              <LongitudeDegrees>-3.37323565967381000518798828125</LongitudeDegrees>
            </Position>
            <AltitudeMeters>679.20001220703125</AltitudeMeters>
            <DistanceMeters>9324.1059774392</DistanceMeters>
          </Trackpoint>
          <Trackpoint>
            <Time>2019-07-19T07:52:44.000Z</Time>
            <Position>
              <LatitudeDegrees>40.55290591903030872344970703125</LatitudeDegrees>
              <LongitudeDegrees>-3.37301127612590789794921875</LongitudeDegrees>
            </Position>
            <AltitudeMeters>679</AltitudeMeters>
            <DistanceMeters>9386.8358460188</DistanceMeters>
          </Trackpoint>
          <Trackpoint>
            <Time>2019-07-19T07:52:51.000Z</Time>
            <Position>
              <LatitudeDegrees>40.5533199012279510498046875</LatitudeDegrees>
              <LongitudeDegrees>-3.37285545654594898223876953125</LongitudeDegrees>
            </Position>
            <AltitudeMeters>680.20001220703125</AltitudeMeters>
            <DistanceMeters>9434.7601272653</DistanceMeters>
          </Trackpoint>
          <Trackpoint>
            <Time>2019-07-19T07:53:01.000Z</Time>
            <Position>
              <LatitudeDegrees>40.55385944433510303497314453125</LatitudeDegrees>
              <LongitudeDegrees>-3.37263333611190319061279296875</LongitudeDegrees>
            </Position>
            <AltitudeMeters>680.79998779296875</AltitudeMeters>
            <DistanceMeters>9497.6816627353</DistanceMeters>
          </Trackpoint>
          <Trackpoint>
            <Time>2019-07-19T07:53:10.000Z</Time>
            <Position>
              <LatitudeDegrees>40.5543232150375843048095703125</LatitudeDegrees>
              <LongitudeDegrees>-3.37245312519371509552001953125</LongitudeDegrees>
            </Position>
            <AltitudeMeters>680.79998779296875</AltitudeMeters>
            <DistanceMeters>9551.5030354632</DistanceMeters>
          </Trackpoint>
          <Trackpoint>
            <Time>2019-07-19T07:53:12.000Z</Time>
            <Position>
              <LatitudeDegrees>40.55442857556045055389404296875</LatitudeDegrees>
              <LongitudeDegrees>-3.37244273163378238677978515625</LongitudeDegrees>
            </Position>
            <AltitudeMeters>681</AltitudeMeters>
            <DistanceMeters>9563.2625673698</DistanceMeters>
          </Trackpoint>
          <Trackpoint>
            <Time>2019-07-19T07:53:18.000Z</Time>
            <Position>
              <LatitudeDegrees>40.55473954416811466217041015625</LatitudeDegrees>
              <LongitudeDegrees>-3.37235874496400356292724609375</LongitudeDegrees>
            </Position>
            <AltitudeMeters>681.4000244140625</AltitudeMeters>
            <DistanceMeters>9598.5952581576</DistanceMeters>
          </Trackpoint>
          <Trackpoint>
            <Time>2019-07-19T07:53:29.000Z</Time>
            <Position>
              <LatitudeDegrees>40.55528839118778705596923828125</LatitudeDegrees>
              <LongitudeDegrees>-3.37219320237636566162109375</LongitudeDegrees>
            </Position>
            <AltitudeMeters>681.79998779296875</AltitudeMeters>
            <DistanceMeters>9661.2665830188</DistanceMeters>
          </Trackpoint>
          <Trackpoint>
            <Time>2019-07-19T07:53:34.000Z</Time>
            <Position>
              <LatitudeDegrees>40.5555010400712490081787109375</LatitudeDegrees>
              <LongitudeDegrees>-3.3721035160124301910400390625</LongitudeDegrees>
            </Position>
            <AltitudeMeters>682.4000244140625</AltitudeMeters>
            <DistanceMeters>9686.1202020541</DistanceMeters>
          </Trackpoint>
          <Trackpoint>
            <Time>2019-07-19T07:53:40.000Z</Time>
            <Position>
              <LatitudeDegrees>40.55574805475771427154541015625</LatitudeDegrees>
              <LongitudeDegrees>-3.37197284214198589324951171875</LongitudeDegrees>
            </Position>
            <AltitudeMeters>683.5999755859375</AltitudeMeters>
            <DistanceMeters>9715.7508664492</DistanceMeters>
          </Trackpoint>
          <Trackpoint>
            <Time>2019-07-19T07:53:54.000Z</Time>
            <Position>
              <LatitudeDegrees>40.55622699670493602752685546875</LatitudeDegrees>
              <LongitudeDegrees>-3.3715456165373325347900390625</LongitudeDegrees>
            </Position>
            <AltitudeMeters>684.20001220703125</AltitudeMeters>
            <DistanceMeters>9780.147155204</DistanceMeters>
          </Trackpoint>
          <Trackpoint>
            <Time>2019-07-19T07:54:04.000Z</Time>
            <Position>
              <LatitudeDegrees>40.556588508188724517822265625</LatitudeDegrees>
              <LongitudeDegrees>-3.371228612959384918212890625</LongitudeDegrees>
            </Position>
            <AltitudeMeters>684.5999755859375</AltitudeMeters>
            <DistanceMeters>9828.4961460842</DistanceMeters>
          </Trackpoint>
          <Trackpoint>
            <Time>2019-07-19T07:54:17.000Z</Time>
            <Position>
              <LatitudeDegrees>40.55707641877233982086181640625</LatitudeDegrees>
              <LongitudeDegrees>-3.37084296159446239471435546875</LongitudeDegrees>
            </Position>
            <AltitudeMeters>685.5999755859375</AltitudeMeters>
            <DistanceMeters>9891.8413416301</DistanceMeters>
          </Trackpoint>
          <Trackpoint>
            <Time>2019-07-19T07:54:18.000Z</Time>
            <Position>
              <LatitudeDegrees>40.557108186185359954833984375</LatitudeDegrees>
              <LongitudeDegrees>-3.37082016281783580780029296875</LongitudeDegrees>
            </Position>
            <AltitudeMeters>685.79998779296875</AltitudeMeters>
            <DistanceMeters>9895.8696225748</DistanceMeters>
          </Trackpoint>
          <Trackpoint>
            <Time>2019-07-19T07:54:26.000Z</Time>
            <Position>
              <LatitudeDegrees>40.5573829449713230133056640625</LatitudeDegrees>
              <LongitudeDegrees>-3.37063349783420562744140625</LongitudeDegrees>
            </Position>
            <AltitudeMeters>687</AltitudeMeters>
            <DistanceMeters>9930.284383889</DistanceMeters>
          </Trackpoint>
          <Trackpoint>
            <Time>2019-07-19T07:54:30.000Z</Time>
            <Position>
              <LatitudeDegrees>40.55753725580871105194091796875</LatitudeDegrees>
              <LongitudeDegrees>-3.3705317415297031402587890625</LongitudeDegrees>
            </Position>
            <AltitudeMeters>688</AltitudeMeters>
            <DistanceMeters>9949.4948280305</DistanceMeters>
          </Trackpoint>
          <Trackpoint>
            <Time>2019-07-19T07:54:37.000Z</Time>
            <Position>
              <LatitudeDegrees>40.55779608897864818572998046875</LatitudeDegrees>
              <LongitudeDegrees>-3.37034189142286777496337890625</LongitudeDegrees>
            </Position>
            <AltitudeMeters>688.20001220703125</AltitudeMeters>
            <DistanceMeters>9982.4747114092</DistanceMeters>
          </Trackpoint>
          <Trackpoint>
            <Time>2019-07-19T07:54:42.000Z</Time>
            <Position>
              <LatitudeDegrees>40.55795936845242977142333984375</LatitudeDegrees>
              <LongitudeDegrees>-3.3702088706195354461669921875</LongitudeDegrees>
            </Position>
            <AltitudeMeters>689.20001220703125</AltitudeMeters>
            <DistanceMeters>10003.847696158</DistanceMeters>
          </Trackpoint>
          <Trackpoint>
            <Time>2019-07-19T07:54:46.000Z</Time>
            <Position>
              <LatitudeDegrees>40.5580907128751277923583984375</LatitudeDegrees>
              <LongitudeDegrees>-3.37011842988431453704833984375</LongitudeDegrees>
            </Position>
            <AltitudeMeters>690.4000244140625</AltitudeMeters>
            <DistanceMeters>10020.346260469</DistanceMeters>
          </Trackpoint>
          <Trackpoint>
            <Time>2019-07-19T07:54:54.000Z</Time>
            <Position>
              <LatitudeDegrees>40.55835398845374584197998046875</LatitudeDegrees>
              <LongitudeDegrees>-3.370006866753101348876953125</LongitudeDegrees>
            </Position>
            <AltitudeMeters>692</AltitudeMeters>
            <DistanceMeters>10051.130516226</DistanceMeters>
          </Trackpoint>
          <Trackpoint>
            <Time>2019-07-19T07:54:57.000Z</Time>
            <Position>
              <LatitudeDegrees>40.5584524758160114288330078125</LatitudeDegrees>
              <LongitudeDegrees>-3.37000091560184955596923828125</LongitudeDegrees>
            </Position>
            <AltitudeMeters>693.20001220703125</AltitudeMeters>
            <DistanceMeters>10062.103530365</DistanceMeters>
          </Trackpoint>
          <Trackpoint>
            <Time>2019-07-19T07:55:06.000Z</Time>
            <Position>
              <LatitudeDegrees>40.5588202737271785736083984375</LatitudeDegrees>
              <LongitudeDegrees>-3.3699537254869937896728515625</LongitudeDegrees>
            </Position>
            <AltitudeMeters>693.20001220703125</AltitudeMeters>
            <DistanceMeters>10103.234293443</DistanceMeters>
          </Trackpoint>
          <Trackpoint>
            <Time>2019-07-19T07:55:14.000Z</Time>
            <Position>
              <LatitudeDegrees>40.55920491926372051239013671875</LatitudeDegrees>
              <LongitudeDegrees>-3.36987753398716449737548828125</LongitudeDegrees>
            </Position>
            <AltitudeMeters>693.20001220703125</AltitudeMeters>
            <DistanceMeters>10146.528218391</DistanceMeters>
          </Trackpoint>
          <Trackpoint>
            <Time>2019-07-19T07:55:17.000Z</Time>
            <Position>
              <LatitudeDegrees>40.55935428477823734283447265625</LatitudeDegrees>
              <LongitudeDegrees>-3.36983193643391132354736328125</LongitudeDegrees>
            </Position>
            <AltitudeMeters>692.4000244140625</AltitudeMeters>
            <DistanceMeters>10163.593915725</DistanceMeters>
          </Trackpoint>
          <Trackpoint>
            <Time>2019-07-19T07:55:19.000Z</Time>
            <Position>
              <LatitudeDegrees>40.5594619922339916229248046875</LatitudeDegrees>
              <LongitudeDegrees>-3.36983193643391132354736328125</LongitudeDegrees>
            </Position>
            <AltitudeMeters>692</AltitudeMeters>
            <DistanceMeters>10175.582355852</DistanceMeters>
          </Trackpoint>
          <Trackpoint>
            <Time>2019-07-19T07:55:24.000Z</Time>
            <Position>
              <LatitudeDegrees>40.55970020592212677001953125</LatitudeDegrees>
              <LongitudeDegrees>-3.369838893413543701171875</LongitudeDegrees>
            </Position>
            <AltitudeMeters>693.20001220703125</AltitudeMeters>
            <DistanceMeters>10202.102471498</DistanceMeters>
          </Trackpoint>
          <Trackpoint>
            <Time>2019-07-19T07:55:27.000Z</Time>
            <Position>
              <LatitudeDegrees>40.55982350371778011322021484375</LatitudeDegrees>
              <LongitudeDegrees>-3.36985289119184017181396484375</LongitudeDegrees>
            </Position>
            <AltitudeMeters>694.4000244140625</AltitudeMeters>
            <DistanceMeters>10215.87642903</DistanceMeters>
          </Trackpoint>
          <Trackpoint>
            <Time>2019-07-19T07:55:37.000Z</Time>
            <Position>
              <LatitudeDegrees>40.560272522270679473876953125</LatitudeDegrees>
              <LongitudeDegrees>-3.3697974868118762969970703125</LongitudeDegrees>
            </Position>
            <AltitudeMeters>694.20001220703125</AltitudeMeters>
            <DistanceMeters>10266.072306449</DistanceMeters>
          </Trackpoint>
          <Trackpoint>
            <Time>2019-07-19T07:55:40.000Z</Time>
            <Position>
              <LatitudeDegrees>40.56040286086499691009521484375</LatitudeDegrees>
              <LongitudeDegrees>-3.36972867138683795928955078125</LongitudeDegrees>
            </Position>
            <AltitudeMeters>694</AltitudeMeters>
            <DistanceMeters>10281.702684506</DistanceMeters>
          </Trackpoint>
          <Trackpoint>
            <Time>2019-07-19T07:55:42.000Z</Time>
            <Position>
              <LatitudeDegrees>40.5604921281337738037109375</LatitudeDegrees>
              <LongitudeDegrees>-3.36971190758049488067626953125</LongitudeDegrees>
            </Position>
            <AltitudeMeters>694.20001220703125</AltitudeMeters>
            <DistanceMeters>10291.738693307</DistanceMeters>
          </Trackpoint>
          <Trackpoint>
            <Time>2019-07-19T07:55:44.000Z</Time>
            <Position>
              <LatitudeDegrees>40.56057997047901153564453125</LatitudeDegrees>
              <LongitudeDegrees>-3.36970536969602108001708984375</LongitudeDegrees>
            </Position>
            <AltitudeMeters>694.4000244140625</AltitudeMeters>
            <DistanceMeters>10301.531517814</DistanceMeters>
          </Trackpoint>
          <Trackpoint>
            <Time>2019-07-19T07:55:53.000Z</Time>
            <Position>
              <LatitudeDegrees>40.5610314197838306427001953125</LatitudeDegrees>
              <LongitudeDegrees>-3.369653485715389251708984375</LongitudeDegrees>
            </Position>
            <AltitudeMeters>693.4000244140625</AltitudeMeters>
            <DistanceMeters>10351.969850226</DistanceMeters>
          </Trackpoint>
          <Trackpoint>
            <Time>2019-07-19T07:56:03.000Z</Time>
            <Position>
              <LatitudeDegrees>40.56160147301852703094482421875</LatitudeDegrees>
              <LongitudeDegrees>-3.369573689997196197509765625</LongitudeDegrees>
            </Position>
            <AltitudeMeters>693.79998779296875</AltitudeMeters>
            <DistanceMeters>10415.775601099</DistanceMeters>
          </Trackpoint>
          <Trackpoint>
            <Time>2019-07-19T07:56:14.000Z</Time>
            <Position>
              <LatitudeDegrees>40.5621777288615703582763671875</LatitudeDegrees>
              <LongitudeDegrees>-3.369415104389190673828125</LongitudeDegrees>
            </Position>
            <AltitudeMeters>693.5999755859375</AltitudeMeters>
            <DistanceMeters>10481.300775704</DistanceMeters>
          </Trackpoint>
          <Trackpoint>
            <Time>2019-07-19T07:56:23.000Z</Time>
            <Position>
              <LatitudeDegrees>40.56267687119543552398681640625</LatitudeDegrees>
              <LongitudeDegrees>-3.36909768171608448028564453125</LongitudeDegrees>
            </Position>
            <AltitudeMeters>693.4000244140625</AltitudeMeters>
            <DistanceMeters>10543.000048766</DistanceMeters>
          </Trackpoint>
          <Trackpoint>
            <Time>2019-07-19T07:56:30.000Z</Time>
            <Position>
              <LatitudeDegrees>40.563060678541660308837890625</LatitudeDegrees>
              <LongitudeDegrees>-3.3688432909548282623291015625</LongitudeDegrees>
            </Position>
            <AltitudeMeters>692.4000244140625</AltitudeMeters>
            <DistanceMeters>10590.828420526</DistanceMeters>
          </Trackpoint>
          <Trackpoint>
            <Time>2019-07-19T07:56:37.000Z</Time>
            <Position>
              <LatitudeDegrees>40.56341833434998989105224609375</LatitudeDegrees>
              <LongitudeDegrees>-3.3685630001127719879150390625</LongitudeDegrees>
            </Position>
            <AltitudeMeters>692.79998779296875</AltitudeMeters>
            <DistanceMeters>10637.157135595</DistanceMeters>
          </Trackpoint>
          <Trackpoint>
            <Time>2019-07-19T07:56:40.000Z</Time>
            <Position>
              <LatitudeDegrees>40.56357742287218570709228515625</LatitudeDegrees>
              <LongitudeDegrees>-3.36845554411411285400390625</LongitudeDegrees>
            </Position>
            <AltitudeMeters>693</AltitudeMeters>
            <DistanceMeters>10657.059278021</DistanceMeters>
          </Trackpoint>
          <Trackpoint>
            <Time>2019-07-19T07:56:49.000Z</Time>
            <Position>
              <LatitudeDegrees>40.5639801733195781707763671875</LatitudeDegrees>
              <LongitudeDegrees>-3.36799688637256622314453125</LongitudeDegrees>
            </Position>
            <AltitudeMeters>693.4000244140625</AltitudeMeters>
            <DistanceMeters>10716.333709803</DistanceMeters>
          </Trackpoint>
          <Trackpoint>
            <Time>2019-07-19T07:56:54.000Z</Time>
            <Position>
              <LatitudeDegrees>40.5641974322497844696044921875</LatitudeDegrees>
              <LongitudeDegrees>-3.36773076094686985015869140625</LongitudeDegrees>
            </Position>
            <AltitudeMeters>692.20001220703125</AltitudeMeters>
            <DistanceMeters>10749.365165213</DistanceMeters>
          </Trackpoint>
          <Trackpoint>
            <Time>2019-07-19T07:57:04.000Z</Time>
            <Position>
              <LatitudeDegrees>40.564662627875804901123046875</LatitudeDegrees>
              <LongitudeDegrees>-3.36731962859630584716796875</LongitudeDegrees>
            </Position>
            <AltitudeMeters>692.4000244140625</AltitudeMeters>
            <DistanceMeters>10811.72962757</DistanceMeters>
          </Trackpoint>
          <Trackpoint>
            <Time>2019-07-19T07:57:14.000Z</Time>
            <Position>
              <LatitudeDegrees>40.5651227943599224090576171875</LatitudeDegrees>
              <LongitudeDegrees>-3.36691285483539104461669921875</LongitudeDegrees>
            </Position>
            <AltitudeMeters>692.20001220703125</AltitudeMeters>
            <DistanceMeters>10873.42377795</DistanceMeters>
          </Trackpoint>
          <Trackpoint>
            <Time>2019-07-19T07:57:25.000Z</Time>
            <Position>
              <LatitudeDegrees>40.5656414665281772613525390625</LatitudeDegrees>
              <LongitudeDegrees>-3.366574309766292572021484375</LongitudeDegrees>
            </Position>
            <AltitudeMeters>692</AltitudeMeters>
            <DistanceMeters>10937.860018909</DistanceMeters>
          </Trackpoint>
          <Trackpoint>
            <Time>2019-07-19T07:57:36.000Z</Time>
            <Position>
              <LatitudeDegrees>40.56614077650010585784912109375</LatitudeDegrees>
              <LongitudeDegrees>-3.36627985350787639617919921875</LongitudeDegrees>
            </Position>
            <AltitudeMeters>693</AltitudeMeters>
            <DistanceMeters>10998.756204118</DistanceMeters>
          </Trackpoint>
          <Trackpoint>
            <Time>2019-07-19T07:57:48.000Z</Time>
            <Position>
              <LatitudeDegrees>40.56665089912712574005126953125</LatitudeDegrees>
              <LongitudeDegrees>-3.36591172032058238983154296875</LongitudeDegrees>
            </Position>
            <AltitudeMeters>693.20001220703125</AltitudeMeters>
            <DistanceMeters>11063.505945753</DistanceMeters>
          </Trackpoint>
          <Trackpoint>
            <Time>2019-07-19T07:57:54.000Z</Time>
            <Position>
              <LatitudeDegrees>40.5668910406529903411865234375</LatitudeDegrees>
              <LongitudeDegrees>-3.365708291530609130859375</LongitudeDegrees>
            </Position>
            <AltitudeMeters>694.4000244140625</AltitudeMeters>
            <DistanceMeters>11095.290357533</DistanceMeters>
          </Trackpoint>
          <Trackpoint>
            <Time>2019-07-19T07:57:57.000Z</Time>
            <Position>
              <LatitudeDegrees>40.5670204572379589080810546875</LatitudeDegrees>
              <LongitudeDegrees>-3.36562447249889373779296875</LongitudeDegrees>
            </Position>
            <AltitudeMeters>694.5999755859375</AltitudeMeters>
            <DistanceMeters>11111.34396715</DistanceMeters>
          </Trackpoint>
          <Trackpoint>
            <Time>2019-07-19T07:58:02.000Z</Time>
            <Position>
              <LatitudeDegrees>40.56725724600255489349365234375</LatitudeDegrees>
              <LongitudeDegrees>-3.36551039479672908782958984375</LongitudeDegrees>
            </Position>
            <AltitudeMeters>695</AltitudeMeters>
            <DistanceMeters>11139.408559212</DistanceMeters>
          </Trackpoint>
          <Trackpoint>
            <Time>2019-07-19T07:58:08.000Z</Time>
            <Position>
              <LatitudeDegrees>40.56746394373476505279541015625</LatitudeDegrees>
              <LongitudeDegrees>-3.365305960178375244140625</LongitudeDegrees>
            </Position>
            <AltitudeMeters>695.5999755859375</AltitudeMeters>
            <DistanceMeters>11168.184242518</DistanceMeters>
          </Trackpoint>
          <Trackpoint>
            <Time>2019-07-19T07:58:12.000Z</Time>
            <Position>
              <LatitudeDegrees>40.56754457764327526092529296875</LatitudeDegrees>
              <LongitudeDegrees>-3.36515064351260662078857421875</LongitudeDegrees>
            </Position>
            <AltitudeMeters>696.5999755859375</AltitudeMeters>
            <DistanceMeters>11184.089795688</DistanceMeters>
          </Trackpoint>
          <Trackpoint>
            <Time>2019-07-19T07:58:14.000Z</Time>
            <Position>
              <LatitudeDegrees>40.567596293985843658447265625</LatitudeDegrees>
              <LongitudeDegrees>-3.36508409120142459869384765625</LongitudeDegrees>
            </Position>
            <AltitudeMeters>697.5999755859375</AltitudeMeters>
            <DistanceMeters>11192.138507909</DistanceMeters>
          </Trackpoint>
          <Trackpoint>
            <Time>2019-07-19T07:58:17.000Z</Time>
            <Position>
              <LatitudeDegrees>40.5676896683871746063232421875</LatitudeDegrees>
              <LongitudeDegrees>-3.36501217447221279144287109375</LongitudeDegrees>
            </Position>
            <AltitudeMeters>698.5999755859375</AltitudeMeters>
            <DistanceMeters>11204.17880887</DistanceMeters>
          </Trackpoint>
          <Trackpoint>
            <Time>2019-07-19T07:58:32.000Z</Time>
            <Position>
              <LatitudeDegrees>40.568209849298000335693359375</LatitudeDegrees>
              <LongitudeDegrees>-3.364757783710956573486328125</LongitudeDegrees>
            </Position>
            <AltitudeMeters>699.4000244140625</AltitudeMeters>
            <DistanceMeters>11265.942006514</DistanceMeters>
          </Trackpoint>
          <Trackpoint>
            <Time>2019-07-19T07:58:34.000Z</Time>
            <Position>
              <LatitudeDegrees>40.5682812631130218505859375</LatitudeDegrees>
              <LongitudeDegrees>-3.3647271059453487396240234375</LongitudeDegrees>
            </Position>
            <AltitudeMeters>699.5999755859375</AltitudeMeters>
            <DistanceMeters>11274.30327746</DistanceMeters>
          </Trackpoint>
          <Trackpoint>
            <Time>2019-07-19T07:58:45.000Z</Time>
            <Position>
              <LatitudeDegrees>40.56871016509830951690673828125</LatitudeDegrees>
              <LongitudeDegrees>-3.364631719887256622314453125</LongitudeDegrees>
            </Position>
            <AltitudeMeters>700.5999755859375</AltitudeMeters>
            <DistanceMeters>11322.717406725</DistanceMeters>
          </Trackpoint>
          <Trackpoint>
            <Time>2019-07-19T07:58:51.000Z</Time>
            <Position>
              <LatitudeDegrees>40.56898140348494052886962890625</LatitudeDegrees>
              <LongitudeDegrees>-3.3645986951887607574462890625</LongitudeDegrees>
            </Position>
            <AltitudeMeters>701</AltitudeMeters>
            <DistanceMeters>11353.035545543</DistanceMeters>
          </Trackpoint>
          <Trackpoint>
            <Time>2019-07-19T07:58:53.000Z</Time>
            <Position>
              <LatitudeDegrees>40.5690716765820980072021484375</LatitudeDegrees>
              <LongitudeDegrees>-3.36456441320478916168212890625</LongitudeDegrees>
            </Position>
            <AltitudeMeters>701</AltitudeMeters>
            <DistanceMeters>11363.492370858</DistanceMeters>
          </Trackpoint>
          <Trackpoint>
            <Time>2019-07-19T07:59:02.000Z</Time>
            <Position>
              <LatitudeDegrees>40.5694719962775707244873046875</LatitudeDegrees>
              <LongitudeDegrees>-3.36435050703585147857666015625</LongitudeDegrees>
            </Position>
            <AltitudeMeters>701.79998779296875</AltitudeMeters>
            <DistanceMeters>11411.57908082</DistanceMeters>
          </Trackpoint>
          <Trackpoint>
            <Time>2019-07-19T07:59:13.000Z</Time>
            <Position>
              <LatitudeDegrees>40.57002662681043148040771484375</LatitudeDegrees>
              <LongitudeDegrees>-3.36429409682750701904296875</LongitudeDegrees>
            </Position>
            <AltitudeMeters>702</AltitudeMeters>
            <DistanceMeters>11473.494582293</DistanceMeters>
          </Trackpoint>
          <Trackpoint>
            <Time>2019-07-19T07:59:22.000Z</Time>
            <Position>
              <LatitudeDegrees>40.57046835310757160186767578125</LatitudeDegrees>
              <LongitudeDegrees>-3.364340700209140777587890625</LongitudeDegrees>
            </Position>
            <AltitudeMeters>701.5999755859375</AltitudeMeters>
            <DistanceMeters>11522.817200372</DistanceMeters>
          </Trackpoint>
          <Trackpoint>
            <Time>2019-07-19T07:59:29.000Z</Time>
            <Position>
              <LatitudeDegrees>40.57079507969319820404052734375</LatitudeDegrees>
              <LongitudeDegrees>-3.36422075517475605010986328125</LongitudeDegrees>
            </Position>
            <AltitudeMeters>702</AltitudeMeters>
            <DistanceMeters>11560.569844194</DistanceMeters>
          </Trackpoint>
          <Trackpoint>
            <Time>2019-07-19T07:59:41.000Z</Time>
            <Position>
              <LatitudeDegrees>40.5712134204804897308349609375</LatitudeDegrees>
              <LongitudeDegrees>-3.36373619735240936279296875</LongitudeDegrees>
            </Position>
            <AltitudeMeters>702.4000244140625</AltitudeMeters>
            <DistanceMeters>11622.588590884</DistanceMeters>
          </Trackpoint>
          <Trackpoint>
            <Time>2019-07-19T07:59:54.000Z</Time>
            <Position>
              <LatitudeDegrees>40.57146563194692134857177734375</LatitudeDegrees>
              <LongitudeDegrees>-3.3630621246993541717529296875</LongitudeDegrees>
            </Position>
            <AltitudeMeters>702.79998779296875</AltitudeMeters>
            <DistanceMeters>11686.116490307</DistanceMeters>
          </Trackpoint>
          <Trackpoint>
            <Time>2019-07-19T07:59:57.000Z</Time>
            <Position>
              <LatitudeDegrees>40.57149513624608516693115234375</LatitudeDegrees>
              <LongitudeDegrees>-3.36290077306330204010009765625</LongitudeDegrees>
            </Position>
            <AltitudeMeters>703.4000244140625</AltitudeMeters>
            <DistanceMeters>11700.147660131</DistanceMeters>
          </Trackpoint>
          <Trackpoint>
            <Time>2019-07-19T08:00:01.000Z</Time>
            <Position>
              <LatitudeDegrees>40.5715094693005084991455078125</LatitudeDegrees>
              <LongitudeDegrees>-3.36268418468534946441650390625</LongitudeDegrees>
            </Position>
            <AltitudeMeters>703.79998779296875</AltitudeMeters>
            <DistanceMeters>11718.528391348</DistanceMeters>
          </Trackpoint>
          <Trackpoint>
            <Time>2019-07-19T08:00:07.000Z</Time>
            <Position>
              <LatitudeDegrees>40.5715359561145305633544921875</LatitudeDegrees>
              <LongitudeDegrees>-3.36235712282359600067138671875</LongitudeDegrees>
            </Position>
            <AltitudeMeters>704.5999755859375</AltitudeMeters>
            <DistanceMeters>11746.336332052</DistanceMeters>
          </Trackpoint>
          <Trackpoint>
            <Time>2019-07-19T08:00:08.000Z</Time>
            <Position>
              <LatitudeDegrees>40.5715507082641124725341796875</LatitudeDegrees>
              <LongitudeDegrees>-3.36230750195682048797607421875</LongitudeDegrees>
            </Position>
            <AltitudeMeters>705.20001220703125</AltitudeMeters>
            <DistanceMeters>11750.841841107</DistanceMeters>
          </Trackpoint>
          <Trackpoint>
            <Time>2019-07-19T08:00:10.000Z</Time>
            <Position>
              <LatitudeDegrees>40.57159555144608020782470703125</LatitudeDegrees>
              <LongitudeDegrees>-3.362232483923435211181640625</LongitudeDegrees>
            </Position>
            <AltitudeMeters>705.4000244140625</AltitudeMeters>
            <DistanceMeters>11758.912960699</DistanceMeters>
          </Trackpoint>
          <Trackpoint>
            <Time>2019-07-19T08:00:12.000Z</Time>
            <Position>
              <LatitudeDegrees>40.57165489532053470611572265625</LatitudeDegrees>
              <LongitudeDegrees>-3.36224530823528766632080078125</LongitudeDegrees>
            </Position>
            <AltitudeMeters>705.79998779296875</AltitudeMeters>
            <DistanceMeters>11765.606781679</DistanceMeters>
          </Trackpoint>
          <Trackpoint>
            <Time>2019-07-19T08:00:13.000Z</Time>
            <Position>
              <LatitudeDegrees>40.57167534716427326202392578125</LatitudeDegrees>
              <LongitudeDegrees>-3.36227866820991039276123046875</LongitudeDegrees>
            </Position>
            <AltitudeMeters>706.20001220703125</AltitudeMeters>
            <DistanceMeters>11769.23277</DistanceMeters>
          </Trackpoint>
          <Trackpoint>
            <Time>2019-07-19T08:00:16.000Z</Time>
            <Position>
              <LatitudeDegrees>40.57172119617462158203125</LatitudeDegrees>
              <LongitudeDegrees>-3.36240489967167377471923828125</LongitudeDegrees>
            </Position>
            <AltitudeMeters>707.20001220703125</AltitudeMeters>
            <DistanceMeters>11781.062737233</DistanceMeters>
          </Trackpoint>
          <Trackpoint>
            <Time>2019-07-19T08:00:28.000Z</Time>
            <Position>
              <LatitudeDegrees>40.57210902683436870574951171875</LatitudeDegrees>
              <LongitudeDegrees>-3.36288954131305217742919921875</LongitudeDegrees>
            </Position>
            <AltitudeMeters>706.20001220703125</AltitudeMeters>
            <DistanceMeters>11840.578750591</DistanceMeters>
          </Trackpoint>
          <Trackpoint>
            <Time>2019-07-19T08:00:30.000Z</Time>
            <Position>
              <LatitudeDegrees>40.5722085200250148773193359375</LatitudeDegrees>
              <LongitudeDegrees>-3.3629816584289073944091796875</LongitudeDegrees>
            </Position>
            <AltitudeMeters>705.5999755859375</AltitudeMeters>
            <DistanceMeters>11854.117306336</DistanceMeters>
          </Trackpoint>
          <Trackpoint>
            <Time>2019-07-19T08:00:32.000Z</Time>
            <Position>
              <LatitudeDegrees>40.57232209481298923492431640625</LatitudeDegrees>
              <LongitudeDegrees>-3.3630708418786525726318359375</LongitudeDegrees>
            </Position>
            <AltitudeMeters>705</AltitudeMeters>
            <DistanceMeters>11868.836021089</DistanceMeters>
          </Trackpoint>
          <Trackpoint>
            <Time>2019-07-19T08:00:35.000Z</Time>
            <Position>
              <LatitudeDegrees>40.57249610312283039093017578125</LatitudeDegrees>
              <LongitudeDegrees>-3.36322749964892864227294921875</LongitudeDegrees>
            </Position>
            <AltitudeMeters>703.79998779296875</AltitudeMeters>
            <DistanceMeters>11892.298961661</DistanceMeters>
          </Trackpoint>
          <Trackpoint>
            <Time>2019-07-19T08:00:37.000Z</Time>
            <Position>
              <LatitudeDegrees>40.5726276151835918426513671875</LatitudeDegrees>
              <LongitudeDegrees>-3.36333495564758777618408203125</LongitudeDegrees>
            </Position>
            <AltitudeMeters>702.79998779296875</AltitudeMeters>
            <DistanceMeters>11909.526862072</DistanceMeters>
          </Trackpoint>
          <Trackpoint>
            <Time>2019-07-19T08:00:39.000Z</Time>
            <Position>
              <LatitudeDegrees>40.57278578169643878936767578125</LatitudeDegrees>
              <LongitudeDegrees>-3.3633839897811412811279296875</LongitudeDegrees>
            </Position>
            <AltitudeMeters>702</AltitudeMeters>
            <DistanceMeters>11927.612670294</DistanceMeters>
          </Trackpoint>
          <Trackpoint>
            <Time>2019-07-19T08:00:40.000Z</Time>
            <Position>
              <LatitudeDegrees>40.57286918163299560546875</LatitudeDegrees>
              <LongitudeDegrees>-3.36338759399950504302978515625</LongitudeDegrees>
            </Position>
            <AltitudeMeters>701.20001220703125</AltitudeMeters>
            <DistanceMeters>11936.900042914</DistanceMeters>
          </Trackpoint>
          <Trackpoint>
            <Time>2019-07-19T08:00:42.000Z</Time>
            <Position>
              <LatitudeDegrees>40.5730343051254749298095703125</LatitudeDegrees>
              <LongitudeDegrees>-3.36337937973439693450927734375</LongitudeDegrees>
            </Position>
            <AltitudeMeters>699.20001220703125</AltitudeMeters>
            <DistanceMeters>11955.291824598</DistanceMeters>
          </Trackpoint>
          <Trackpoint>
            <Time>2019-07-19T08:00:44.000Z</Time>
            <Position>
              <LatitudeDegrees>40.573188029229640960693359375</LatitudeDegrees>
              <LongitudeDegrees>-3.36334736086428165435791015625</LongitudeDegrees>
            </Position>
            <AltitudeMeters>697.5999755859375</AltitudeMeters>
            <DistanceMeters>11972.614337125</DistanceMeters>
          </Trackpoint>
          <Trackpoint>
            <Time>2019-07-19T08:00:47.000Z</Time>
            <Position>
              <LatitudeDegrees>40.57339145801961421966552734375</LatitudeDegrees>
              <LongitudeDegrees>-3.3632864244282245635986328125</LongitudeDegrees>
            </Position>
            <AltitudeMeters>696.4000244140625</AltitudeMeters>
            <DistanceMeters>11995.83510207</DistanceMeters>
          </Trackpoint>
          <Trackpoint>
            <Time>2019-07-19T08:00:51.000Z</Time>
            <Position>
              <LatitudeDegrees>40.57364341802895069122314453125</LatitudeDegrees>
              <LongitudeDegrees>-3.36321643553674221038818359375</LongitudeDegrees>
            </Position>
            <AltitudeMeters>697</AltitudeMeters>
            <DistanceMeters>12024.496173648</DistanceMeters>
          </Trackpoint>
          <Trackpoint>
            <Time>2019-07-19T08:00:53.000Z</Time>
            <Position>
              <LatitudeDegrees>40.5737665481865406036376953125</LatitudeDegrees>
              <LongitudeDegrees>-3.36321718990802764892578125</LongitudeDegrees>
            </Position>
            <AltitudeMeters>697</AltitudeMeters>
            <DistanceMeters>12038.201121296</DistanceMeters>
          </Trackpoint>
          <Trackpoint>
            <Time>2019-07-19T08:00:56.000Z</Time>
            <Position>
              <LatitudeDegrees>40.57396461255848407745361328125</LatitudeDegrees>
              <LongitudeDegrees>-3.3632599376142024993896484375</LongitudeDegrees>
            </Position>
            <AltitudeMeters>696.79998779296875</AltitudeMeters>
            <DistanceMeters>12060.540282977</DistanceMeters>
          </Trackpoint>
          <Trackpoint>
            <Time>2019-07-19T08:00:58.000Z</Time>
            <Position>
              <LatitudeDegrees>40.574080534279346466064453125</LatitudeDegrees>
              <LongitudeDegrees>-3.3633296750485897064208984375</LongitudeDegrees>
            </Position>
            <AltitudeMeters>696.5999755859375</AltitudeMeters>
            <DistanceMeters>12074.725705899</DistanceMeters>
          </Trackpoint>
          <Trackpoint>
            <Time>2019-07-19T08:01:00.000Z</Time>
            <Position>
              <LatitudeDegrees>40.57416695170104503631591796875</LatitudeDegrees>
              <LongitudeDegrees>-3.363442160189151763916015625</LongitudeDegrees>
            </Position>
            <AltitudeMeters>696.5999755859375</AltitudeMeters>
            <DistanceMeters>12088.251582904</DistanceMeters>
          </Trackpoint>
          <Trackpoint>
            <Time>2019-07-19T08:01:09.000Z</Time>
            <Position>
              <LatitudeDegrees>40.5744744837284088134765625</LatitudeDegrees>
              <LongitudeDegrees>-3.36405797861516475677490234375</LongitudeDegrees>
            </Position>
            <AltitudeMeters>696.20001220703125</AltitudeMeters>
            <DistanceMeters>12150.55766546</DistanceMeters>
          </Trackpoint>
          <Trackpoint>
            <Time>2019-07-19T08:01:20.000Z</Time>
            <Position>
              <LatitudeDegrees>40.574798695743083953857421875</LatitudeDegrees>
              <LongitudeDegrees>-3.36468628607690334320068359375</LongitudeDegrees>
            </Position>
            <AltitudeMeters>696.79998779296875</AltitudeMeters>
            <DistanceMeters>12214.773017973</DistanceMeters>
          </Trackpoint>
          <Trackpoint>
            <Time>2019-07-19T08:01:22.000Z</Time>
            <Position>
              <LatitudeDegrees>40.57486868463456630706787109375</LatitudeDegrees>
              <LongitudeDegrees>-3.364792652428150177001953125</LongitudeDegrees>
            </Position>
            <AltitudeMeters>696.79998779296875</AltitudeMeters>
            <DistanceMeters>12226.669967926</DistanceMeters>
          </Trackpoint>
          <Trackpoint>
            <Time>2019-07-19T08:01:38.000Z</Time>
            <Position>
              <LatitudeDegrees>40.57524134404957294464111328125</LatitudeDegrees>
              <LongitudeDegrees>-3.365310989320278167724609375</LongitudeDegrees>
            </Position>
            <AltitudeMeters>697.20001220703125</AltitudeMeters>
            <DistanceMeters>12287.007441933</DistanceMeters>
          </Trackpoint>
          <Trackpoint>
            <Time>2019-07-19T08:01:41.000Z</Time>
            <Position>
              <LatitudeDegrees>40.5752524919807910919189453125</LatitudeDegrees>
              <LongitudeDegrees>-3.3653282560408115386962890625</LongitudeDegrees>
            </Position>
            <AltitudeMeters>696.79998779296875</AltitudeMeters>
            <DistanceMeters>12288.922177172</DistanceMeters>
          </Trackpoint>
          <Trackpoint>
            <Time>2019-07-19T08:02:15.000Z</Time>
            <Position>
              <LatitudeDegrees>40.57523195631802082061767578125</LatitudeDegrees>
              <LongitudeDegrees>-3.3652363903820514678955078125</LongitudeDegrees>
            </Position>
            <AltitudeMeters>697</AltitudeMeters>
            <DistanceMeters>12297.017873241</DistanceMeters>
          </Trackpoint>
          <Trackpoint>
            <Time>2019-07-19T08:02:22.000Z</Time>
            <Position>
              <LatitudeDegrees>40.57517412118613719940185546875</LatitudeDegrees>
              <LongitudeDegrees>-3.3651525713503360748291015625</LongitudeDegrees>
            </Position>
            <AltitudeMeters>696.79998779296875</AltitudeMeters>
            <DistanceMeters>12306.591077815</DistanceMeters>
          </Trackpoint>
          <Trackpoint>
            <Time>2019-07-19T08:02:25.000Z</Time>
            <Position>
              <LatitudeDegrees>40.57519289664924144744873046875</LatitudeDegrees>
              <LongitudeDegrees>-3.365203700959682464599609375</LongitudeDegrees>
            </Position>
            <AltitudeMeters>697</AltitudeMeters>
            <DistanceMeters>12311.391573111</DistanceMeters>
          </Trackpoint>
          <Trackpoint>
            <Time>2019-07-19T08:02:36.000Z</Time>
            <Position>
              <LatitudeDegrees>40.5753138475120067596435546875</LatitudeDegrees>
              <LongitudeDegrees>-3.3654226362705230712890625</LongitudeDegrees>
            </Position>
            <AltitudeMeters>696.4000244140625</AltitudeMeters>
            <DistanceMeters>12334.278220183</DistanceMeters>
          </Trackpoint>
          <Trackpoint>
            <Time>2019-07-19T08:02:38.000Z</Time>
            <Position>
              <LatitudeDegrees>40.57534846477210521697998046875</LatitudeDegrees>
              <LongitudeDegrees>-3.36544317193329334259033203125</LongitudeDegrees>
            </Position>
            <AltitudeMeters>696.5999755859375</AltitudeMeters>
            <DistanceMeters>12338.504505929</DistanceMeters>
          </Trackpoint>
          <Trackpoint>
            <Time>2019-07-19T08:02:40.000Z</Time>
            <Position>
              <LatitudeDegrees>40.5753601156175136566162109375</LatitudeDegrees>
              <LongitudeDegrees>-3.3654409088194370269775390625</LongitudeDegrees>
            </Position>
            <AltitudeMeters>696.79998779296875</AltitudeMeters>
            <DistanceMeters>12339.814358793</DistanceMeters>
          </Trackpoint>
          <Trackpoint>
            <Time>2019-07-19T08:06:24.000Z</Time>
            <Position>
              <LatitudeDegrees>40.57550420053303241729736328125</LatitudeDegrees>
              <LongitudeDegrees>-3.3655659668147563934326171875</LongitudeDegrees>
            </Position>
            <AltitudeMeters>696.79998779296875</AltitudeMeters>
            <DistanceMeters>12359.022687544</DistanceMeters>
          </Trackpoint>
          <Trackpoint>
            <Time>2019-07-19T08:06:27.000Z</Time>
            <Position>
              <LatitudeDegrees>40.57554661296308040618896484375</LatitudeDegrees>
              <LongitudeDegrees>-3.36558558046817779541015625</LongitudeDegrees>
            </Position>
            <AltitudeMeters>697.20001220703125</AltitudeMeters>
            <DistanceMeters>12364.026726111</DistanceMeters>
          </Trackpoint>
          <Trackpoint>
            <Time>2019-07-19T08:06:28.000Z</Time>
            <Position>
              <LatitudeDegrees>40.57555868290364742279052734375</LatitudeDegrees>
              <LongitudeDegrees>-3.36559907533228397369384765625</LongitudeDegrees>
            </Position>
            <AltitudeMeters>697.5999755859375</AltitudeMeters>
            <DistanceMeters>12365.78664549</DistanceMeters>
          </Trackpoint>
          <Trackpoint>
            <Time>2019-07-19T08:06:29.000Z</Time>
            <Position>
              <LatitudeDegrees>40.5755750276148319244384765625</LatitudeDegrees>
              <LongitudeDegrees>-3.3656072057783603668212890625</LongitudeDegrees>
            </Position>
            <AltitudeMeters>697.79998779296875</AltitudeMeters>
            <DistanceMeters>12367.729471255</DistanceMeters>
          </Trackpoint>
          <Trackpoint>
            <Time>2019-07-19T08:06:50.000Z</Time>
            <Position>
              <LatitudeDegrees>40.5759555660188198089599609375</LatitudeDegrees>
              <LongitudeDegrees>-3.365917168557643890380859375</LongitudeDegrees>
            </Position>
            <AltitudeMeters>698.5999755859375</AltitudeMeters>
            <DistanceMeters>12417.534711935</DistanceMeters>
          </Trackpoint>
          <Trackpoint>
            <Time>2019-07-19T08:07:01.000Z</Time>
            <Position>
              <LatitudeDegrees>40.5760940350592136383056640625</LatitudeDegrees>
              <LongitudeDegrees>-3.36621514521539211273193359375</LongitudeDegrees>
            </Position>
            <AltitudeMeters>699.5999755859375</AltitudeMeters>
            <DistanceMeters>12447.065706374</DistanceMeters>
          </Trackpoint>
          <Trackpoint>
            <Time>2019-07-19T08:07:04.000Z</Time>
            <Position>
              <LatitudeDegrees>40.57609713636338710784912109375</LatitudeDegrees>
              <LongitudeDegrees>-3.366223275661468505859375</LongitudeDegrees>
            </Position>
            <AltitudeMeters>699.5999755859375</AltitudeMeters>
            <DistanceMeters>12447.825920089</DistanceMeters>
          </Trackpoint>
          <Trackpoint>
            <Time>2019-07-19T08:07:13.000Z</Time>
            <Position>
              <LatitudeDegrees>40.5761335976421833038330078125</LatitudeDegrees>
              <LongitudeDegrees>-3.366287313401699066162109375</LongitudeDegrees>
            </Position>
            <AltitudeMeters>699.5999755859375</AltitudeMeters>
            <DistanceMeters>12454.592195843</DistanceMeters>
          </Trackpoint>
          <Trackpoint>
            <Time>2019-07-19T08:07:22.000Z</Time>
            <Position>
              <LatitudeDegrees>40.5762608349323272705078125</LatitudeDegrees>
              <LongitudeDegrees>-3.36663457565009593963623046875</LongitudeDegrees>
            </Position>
            <AltitudeMeters>700.5999755859375</AltitudeMeters>
            <DistanceMeters>12487.186635916</DistanceMeters>
          </Trackpoint>
          <Trackpoint>
            <Time>2019-07-19T08:07:30.000Z</Time>
            <Position>
              <LatitudeDegrees>40.57631758041679859161376953125</LatitudeDegrees>
              <LongitudeDegrees>-3.366840183734893798828125</LongitudeDegrees>
            </Position>
            <AltitudeMeters>701.5999755859375</AltitudeMeters>
            <DistanceMeters>12505.680504505</DistanceMeters>
          </Trackpoint>
          <Trackpoint>
            <Time>2019-07-19T08:07:38.000Z</Time>
            <Position>
              <LatitudeDegrees>40.57631975971162319183349609375</LatitudeDegrees>
              <LongitudeDegrees>-3.367107398808002471923828125</LongitudeDegrees>
            </Position>
            <AltitudeMeters>702.79998779296875</AltitudeMeters>
            <DistanceMeters>12528.271694391</DistanceMeters>
          </Trackpoint>
          <Trackpoint>
            <Time>2019-07-19T08:07:44.000Z</Time>
            <Position>
              <LatitudeDegrees>40.5763652734458446502685546875</LatitudeDegrees>
              <LongitudeDegrees>-3.36720161139965057373046875</LongitudeDegrees>
            </Position>
            <AltitudeMeters>703.5999755859375</AltitudeMeters>
            <DistanceMeters>12537.710483201</DistanceMeters>
          </Trackpoint>
          <Trackpoint>
            <Time>2019-07-19T08:07:59.000Z</Time>
            <Position>
              <LatitudeDegrees>40.57693004608154296875</LatitudeDegrees>
              <LongitudeDegrees>-3.3670405112206935882568359375</LongitudeDegrees>
            </Position>
            <AltitudeMeters>703</AltitudeMeters>
            <DistanceMeters>12602.029179867</DistanceMeters>
          </Trackpoint>
          <Trackpoint>
            <Time>2019-07-19T08:08:05.000Z</Time>
            <Position>
              <LatitudeDegrees>40.57722433470189571380615234375</LatitudeDegrees>
              <LongitudeDegrees>-3.36693607270717620849609375</LongitudeDegrees>
            </Position>
            <AltitudeMeters>703</AltitudeMeters>
            <DistanceMeters>12635.953051438</DistanceMeters>
          </Trackpoint>
          <Trackpoint>
            <Time>2019-07-19T08:08:06.000Z</Time>
            <Position>
              <LatitudeDegrees>40.57727529667317867279052734375</LatitudeDegrees>
              <LongitudeDegrees>-3.36691989563405513763427734375</LongitudeDegrees>
            </Position>
            <AltitudeMeters>703</AltitudeMeters>
            <DistanceMeters>12641.787722653</DistanceMeters>
          </Trackpoint>
          <Trackpoint>
            <Time>2019-07-19T08:08:17.000Z</Time>
            <Position>
              <LatitudeDegrees>40.57782095856964588165283203125</LatitudeDegrees>
              <LongitudeDegrees>-3.36673113517463207244873046875</LongitudeDegrees>
            </Position>
            <AltitudeMeters>703</AltitudeMeters>
            <DistanceMeters>12704.582336123</DistanceMeters>
          </Trackpoint>
          <Trackpoint>
            <Time>2019-07-19T08:08:28.000Z</Time>
            <Position>
              <LatitudeDegrees>40.57837785221636295318603515625</LatitudeDegrees>
              <LongitudeDegrees>-3.3665443025529384613037109375</LongitudeDegrees>
            </Position>
            <AltitudeMeters>703.5999755859375</AltitudeMeters>
            <DistanceMeters>12768.546398031</DistanceMeters>
          </Trackpoint>
          <Trackpoint>
            <Time>2019-07-19T08:08:31.000Z</Time>
            <Position>
              <LatitudeDegrees>40.578531324863433837890625</LatitudeDegrees>
              <LongitudeDegrees>-3.3664933405816555023193359375</LongitudeDegrees>
            </Position>
            <AltitudeMeters>704</AltitudeMeters>
            <DistanceMeters>12786.163028447</DistanceMeters>
          </Trackpoint>
          <Trackpoint>
            <Time>2019-07-19T08:08:41.000Z</Time>
            <Position>
              <LatitudeDegrees>40.57905561290681362152099609375</LatitudeDegrees>
              <LongitudeDegrees>-3.3663189969956874847412109375</LongitudeDegrees>
            </Position>
            <AltitudeMeters>704.4000244140625</AltitudeMeters>
            <DistanceMeters>12846.349681666</DistanceMeters>
          </Trackpoint>
          <Trackpoint>
            <Time>2019-07-19T08:08:48.000Z</Time>
            <Position>
              <LatitudeDegrees>40.57942408137023448944091796875</LatitudeDegrees>
              <LongitudeDegrees>-3.36619184352457523345947265625</LongitudeDegrees>
            </Position>
            <AltitudeMeters>705</AltitudeMeters>
            <DistanceMeters>12888.746082177</DistanceMeters>
          </Trackpoint>
          <Trackpoint>
            <Time>2019-07-19T08:08:59.000Z</Time>
            <Position>
              <LatitudeDegrees>40.57999623008072376251220703125</LatitudeDegrees>
              <LongitudeDegrees>-3.36599822156131267547607421875</LongitudeDegrees>
            </Position>
            <AltitudeMeters>705.4000244140625</AltitudeMeters>
            <DistanceMeters>12954.497221392</DistanceMeters>
          </Trackpoint>
          <Trackpoint>
            <Time>2019-07-19T08:09:07.000Z</Time>
            <Position>
              <LatitudeDegrees>40.5804301612079143524169921875</LatitudeDegrees>
              <LongitudeDegrees>-3.36584818549454212188720703125</LongitudeDegrees>
            </Position>
            <AltitudeMeters>706</AltitudeMeters>
            <DistanceMeters>13004.43229052</DistanceMeters>
          </Trackpoint>
          <Trackpoint>
            <Time>2019-07-19T08:09:16.000Z</Time>
            <Position>
              <LatitudeDegrees>40.5809075944125652313232421875</LatitudeDegrees>
              <LongitudeDegrees>-3.36569312028586864471435546875</LongitudeDegrees>
            </Position>
            <AltitudeMeters>706.4000244140625</AltitudeMeters>
            <DistanceMeters>13059.164378359</DistanceMeters>
          </Trackpoint>
          <Trackpoint>
            <Time>2019-07-19T08:09:26.000Z</Time>
            <Position>
              <LatitudeDegrees>40.58144395239651203155517578125</LatitudeDegrees>
              <LongitudeDegrees>-3.36550838313996791839599609375</LongitudeDegrees>
            </Position>
            <AltitudeMeters>706.79998779296875</AltitudeMeters>
            <DistanceMeters>13120.870822463</DistanceMeters>
          </Trackpoint>
          <Trackpoint>
            <Time>2019-07-19T08:09:32.000Z</Time>
            <Position>
              <LatitudeDegrees>40.5817732773721218109130859375</LatitudeDegrees>
              <LongitudeDegrees>-3.3653996698558330535888671875</LongitudeDegrees>
            </Position>
            <AltitudeMeters>707</AltitudeMeters>
            <DistanceMeters>13158.659686282</DistanceMeters>
          </Trackpoint>
          <Trackpoint>
            <Time>2019-07-19T08:09:42.000Z</Time>
            <Position>
              <LatitudeDegrees>40.582319609820842742919921875</LatitudeDegrees>
              <LongitudeDegrees>-3.36520931683480739593505859375</LongitudeDegrees>
            </Position>
            <AltitudeMeters>706.20001220703125</AltitudeMeters>
            <DistanceMeters>13221.560480663</DistanceMeters>
          </Trackpoint>
          <Trackpoint>
            <Time>2019-07-19T08:09:48.000Z</Time>
            <Position>
              <LatitudeDegrees>40.58267408050596714019775390625</LatitudeDegrees>
              <LongitudeDegrees>-3.36507436819374561309814453125</LongitudeDegrees>
            </Position>
            <AltitudeMeters>706</AltitudeMeters>
            <DistanceMeters>13262.629834915</DistanceMeters>
          </Trackpoint>
          <Trackpoint>
            <Time>2019-07-19T08:09:54.000Z</Time>
            <Position>
              <LatitudeDegrees>40.583023689687252044677734375</LatitudeDegrees>
              <LongitudeDegrees>-3.36496087722480297088623046875</LongitudeDegrees>
            </Position>
            <AltitudeMeters>707.4000244140625</AltitudeMeters>
            <DistanceMeters>13302.707232001</DistanceMeters>
          </Trackpoint>
          <Trackpoint>
            <Time>2019-07-19T08:10:04.000Z</Time>
            <Position>
              <LatitudeDegrees>40.58358066715300083160400390625</LatitudeDegrees>
              <LongitudeDegrees>-3.36477898992598056793212890625</LongitudeDegrees>
            </Position>
            <AltitudeMeters>708</AltitudeMeters>
            <DistanceMeters>13366.578050963</DistanceMeters>
          </Trackpoint>
          <Trackpoint>
            <Time>2019-07-19T08:10:14.000Z</Time>
            <Position>
              <LatitudeDegrees>40.5841433443129062652587890625</LatitudeDegrees>
              <LongitudeDegrees>-3.36458235047757625579833984375</LongitudeDegrees>
            </Position>
            <AltitudeMeters>707.79998779296875</AltitudeMeters>
            <DistanceMeters>13431.373310679</DistanceMeters>
          </Trackpoint>
          <Trackpoint>
            <Time>2019-07-19T08:10:21.000Z</Time>
            <Position>
              <LatitudeDegrees>40.58453218080103397369384765625</LatitudeDegrees>
              <LongitudeDegrees>-3.364441953599452972412109375</LongitudeDegrees>
            </Position>
            <AltitudeMeters>708.4000244140625</AltitudeMeters>
            <DistanceMeters>13476.249167197</DistanceMeters>
          </Trackpoint>
          <Trackpoint>
            <Time>2019-07-19T08:10:31.000Z</Time>
            <Position>
              <LatitudeDegrees>40.5850868113338947296142578125</LatitudeDegrees>
              <LongitudeDegrees>-3.3641970343887805938720703125</LongitudeDegrees>
            </Position>
            <AltitudeMeters>708.4000244140625</AltitudeMeters>
            <DistanceMeters>13541.35959684</DistanceMeters>
          </Trackpoint>
          <Trackpoint>
            <Time>2019-07-19T08:10:38.000Z</Time>
            <Position>
              <LatitudeDegrees>40.5854593031108379364013671875</LatitudeDegrees>
              <LongitudeDegrees>-3.36406334303319454193115234375</LongitudeDegrees>
            </Position>
            <AltitudeMeters>709.4000244140625</AltitudeMeters>
            <DistanceMeters>13584.331219244</DistanceMeters>
          </Trackpoint>
          <Trackpoint>
            <Time>2019-07-19T08:10:41.000Z</Time>
            <Position>
              <LatitudeDegrees>40.58561026118695735931396484375</LatitudeDegrees>
              <LongitudeDegrees>-3.36400953121483325958251953125</LongitudeDegrees>
            </Position>
            <AltitudeMeters>710.4000244140625</AltitudeMeters>
            <DistanceMeters>13601.737976122</DistanceMeters>
          </Trackpoint>
          <Trackpoint>
            <Time>2019-07-19T08:10:52.000Z</Time>
            <Position>
              <LatitudeDegrees>40.58616648428142070770263671875</LatitudeDegrees>
              <LongitudeDegrees>-3.36386502720415592193603515625</LongitudeDegrees>
            </Position>
            <AltitudeMeters>710.4000244140625</AltitudeMeters>
            <DistanceMeters>13664.840222347</DistanceMeters>
          </Trackpoint>
          <Trackpoint>
            <Time>2019-07-19T08:11:03.000Z</Time>
            <Position>
              <LatitudeDegrees>40.58672237209975719451904296875</LatitudeDegrees>
              <LongitudeDegrees>-3.36370669305324554443359375</LongitudeDegrees>
            </Position>
            <AltitudeMeters>709.79998779296875</AltitudeMeters>
            <DistanceMeters>13728.142566086</DistanceMeters>
          </Trackpoint>
          <Trackpoint>
            <Time>2019-07-19T08:11:13.000Z</Time>
            <Position>
              <LatitudeDegrees>40.587216652929782867431640625</LatitudeDegrees>
              <LongitudeDegrees>-3.36351759731769561767578125</LongitudeDegrees>
            </Position>
            <AltitudeMeters>710.20001220703125</AltitudeMeters>
            <DistanceMeters>13785.431617955</DistanceMeters>
          </Trackpoint>
          <Trackpoint>
            <Time>2019-07-19T08:11:15.000Z</Time>
            <Position>
              <LatitudeDegrees>40.58731011115014553070068359375</LatitudeDegrees>
              <LongitudeDegrees>-3.3634574152529239654541015625</LongitudeDegrees>
            </Position>
            <AltitudeMeters>710.4000244140625</AltitudeMeters>
            <DistanceMeters>13797.010848285</DistanceMeters>
          </Trackpoint>
          <Trackpoint>
            <Time>2019-07-19T08:11:17.000Z</Time>
            <Position>
              <LatitudeDegrees>40.58740382082760334014892578125</LatitudeDegrees>
              <LongitudeDegrees>-3.3633893541991710662841796875</LongitudeDegrees>
            </Position>
            <AltitudeMeters>710.5999755859375</AltitudeMeters>
            <DistanceMeters>13808.922210973</DistanceMeters>
          </Trackpoint>
          <Trackpoint>
            <Time>2019-07-19T08:11:28.000Z</Time>
            <Position>
              <LatitudeDegrees>40.58794512413442134857177734375</LatitudeDegrees>
              <LongitudeDegrees>-3.36324803531169891357421875</LongitudeDegrees>
            </Position>
            <AltitudeMeters>710.79998779296875</AltitudeMeters>
            <DistanceMeters>13870.343071649</DistanceMeters>
          </Trackpoint>
          <Trackpoint>
            <Time>2019-07-19T08:11:38.000Z</Time>
            <Position>
              <LatitudeDegrees>40.5885086394846439361572265625</LatitudeDegrees>
              <LongitudeDegrees>-3.363053239881992340087890625</LongitudeDegrees>
            </Position>
            <AltitudeMeters>709.5999755859375</AltitudeMeters>
            <DistanceMeters>13935.188552347</DistanceMeters>
          </Trackpoint>
          <Trackpoint>
            <Time>2019-07-19T08:11:47.000Z</Time>
            <Position>
              <LatitudeDegrees>40.58900258503854274749755859375</LatitudeDegrees>
              <LongitudeDegrees>-3.36287797428667545318603515625</LongitudeDegrees>
            </Position>
            <AltitudeMeters>709.4000244140625</AltitudeMeters>
            <DistanceMeters>13992.126605743</DistanceMeters>
          </Trackpoint>
          <Trackpoint>
            <Time>2019-07-19T08:11:57.000Z</Time>
            <Position>
              <LatitudeDegrees>40.58954774402081966400146484375</LatitudeDegrees>
              <LongitudeDegrees>-3.36268887855112552642822265625</LongitudeDegrees>
            </Position>
            <AltitudeMeters>708.79998779296875</AltitudeMeters>
            <DistanceMeters>14054.873458334</DistanceMeters>
          </Trackpoint>
          <Trackpoint>
            <Time>2019-07-19T08:11:59.000Z</Time>
            <Position>
              <LatitudeDegrees>40.58964430354535579681396484375</LatitudeDegrees>
              <LongitudeDegrees>-3.36265484802424907684326171875</LongitudeDegrees>
            </Position>
            <AltitudeMeters>708.5999755859375</AltitudeMeters>
            <DistanceMeters>14065.998485424</DistanceMeters>
          </Trackpoint>
          <Trackpoint>
            <Time>2019-07-19T08:12:09.000Z</Time>
            <Position>
              <LatitudeDegrees>40.5901682563126087188720703125</LatitudeDegrees>
              <LongitudeDegrees>-3.36247111670672893524169921875</LongitudeDegrees>
            </Position>
            <AltitudeMeters>709.4000244140625</AltitudeMeters>
            <DistanceMeters>14126.347781374</DistanceMeters>
          </Trackpoint>
          <Trackpoint>
            <Time>2019-07-19T08:12:16.000Z</Time>
            <Position>
              <LatitudeDegrees>40.590512752532958984375</LatitudeDegrees>
              <LongitudeDegrees>-3.36235175840556621551513671875</LongitudeDegrees>
            </Position>
            <AltitudeMeters>710.4000244140625</AltitudeMeters>
            <DistanceMeters>14165.995905762</DistanceMeters>
          </Trackpoint>
          <Trackpoint>
            <Time>2019-07-19T08:12:27.000Z</Time>
            <Position>
              <LatitudeDegrees>40.5910580791532993316650390625</LatitudeDegrees>
              <LongitudeDegrees>-3.36216735653579235076904296875</LongitudeDegrees>
            </Position>
            <AltitudeMeters>710.4000244140625</AltitudeMeters>
            <DistanceMeters>14228.660962558</DistanceMeters>
          </Trackpoint>
          <Trackpoint>
            <Time>2019-07-19T08:12:38.000Z</Time>
            <Position>
              <LatitudeDegrees>40.59159359894692897796630859375</LatitudeDegrees>
              <LongitudeDegrees>-3.36197457276284694671630859375</LongitudeDegrees>
            </Position>
            <AltitudeMeters>710.79998779296875</AltitudeMeters>
            <DistanceMeters>14290.452444356</DistanceMeters>
          </Trackpoint>
          <Trackpoint>
            <Time>2019-07-19T08:12:49.000Z</Time>
            <Position>
              <LatitudeDegrees>40.59212408959865570068359375</LatitudeDegrees>
              <LongitudeDegrees>-3.36178614757955074310302734375</LongitudeDegrees>
            </Position>
            <AltitudeMeters>711.20001220703125</AltitudeMeters>
            <DistanceMeters>14351.607137226</DistanceMeters>
          </Trackpoint>
          <Trackpoint>
            <Time>2019-07-19T08:12:58.000Z</Time>
            <Position>
              <LatitudeDegrees>40.59253513813018798828125</LatitudeDegrees>
              <LongitudeDegrees>-3.36167148314416408538818359375</LongitudeDegrees>
            </Position>
            <AltitudeMeters>711.5999755859375</AltitudeMeters>
            <DistanceMeters>14398.372833354</DistanceMeters>
          </Trackpoint>
          <Trackpoint>
            <Time>2019-07-19T08:13:03.000Z</Time>
            <Position>
              <LatitudeDegrees>40.59275801293551921844482421875</LatitudeDegrees>
              <LongitudeDegrees>-3.36158917285501956939697265625</LongitudeDegrees>
            </Position>
            <AltitudeMeters>712.5999755859375</AltitudeMeters>
            <DistanceMeters>14424.136116121</DistanceMeters>
          </Trackpoint>
          <Trackpoint>
            <Time>2019-07-19T08:13:16.000Z</Time>
            <Position>
              <LatitudeDegrees>40.5932457558810710906982421875</LatitudeDegrees>
              <LongitudeDegrees>-3.36140627972781658172607421875</LongitudeDegrees>
            </Position>
            <AltitudeMeters>713.4000244140625</AltitudeMeters>
            <DistanceMeters>14480.580704621</DistanceMeters>
          </Trackpoint>
          <Trackpoint>
            <Time>2019-07-19T08:13:18.000Z</Time>
            <Position>
              <LatitudeDegrees>40.59331255964934825897216796875</LatitudeDegrees>
              <LongitudeDegrees>-3.36134433746337890625</LongitudeDegrees>
            </Position>
            <AltitudeMeters>713.4000244140625</AltitudeMeters>
            <DistanceMeters>14489.674517907</DistanceMeters>
          </Trackpoint>
          <Trackpoint>
            <Time>2019-07-19T08:13:20.000Z</Time>
            <Position>
              <LatitudeDegrees>40.5933527089655399322509765625</LatitudeDegrees>
              <LongitudeDegrees>-3.36124165914952754974365234375</LongitudeDegrees>
            </Position>
            <AltitudeMeters>713.4000244140625</AltitudeMeters>
            <DistanceMeters>14499.435477724</DistanceMeters>
          </Trackpoint>
          <Trackpoint>
            <Time>2019-07-19T08:13:22.000Z</Time>
            <Position>
              <LatitudeDegrees>40.59335446916520595550537109375</LatitudeDegrees>
              <LongitudeDegrees>-3.36111676879227161407470703125</LongitudeDegrees>
            </Position>
            <AltitudeMeters>713</AltitudeMeters>
            <DistanceMeters>14509.992428206</DistanceMeters>
          </Trackpoint>
          <Trackpoint>
            <Time>2019-07-19T08:13:24.000Z</Time>
            <Position>
              <LatitudeDegrees>40.59334625490009784698486328125</LatitudeDegrees>
              <LongitudeDegrees>-3.360989950597286224365234375</LongitudeDegrees>
            </Position>
            <AltitudeMeters>712.5999755859375</AltitudeMeters>
            <DistanceMeters>14520.749771262</DistanceMeters>
          </Trackpoint>
          <Trackpoint>
            <Time>2019-07-19T08:13:26.000Z</Time>
            <Position>
              <LatitudeDegrees>40.593370981514453887939453125</LatitudeDegrees>
              <LongitudeDegrees>-3.36088425479829311370849609375</LongitudeDegrees>
            </Position>
            <AltitudeMeters>712.5999755859375</AltitudeMeters>
            <DistanceMeters>14530.097714873</DistanceMeters>
          </Trackpoint>
          <Trackpoint>
            <Time>2019-07-19T08:13:28.000Z</Time>
            <Position>
              <LatitudeDegrees>40.59343661181628704071044921875</LatitudeDegrees>
              <LongitudeDegrees>-3.3608134277164936065673828125</LongitudeDegrees>
            </Position>
            <AltitudeMeters>712.79998779296875</AltitudeMeters>
            <DistanceMeters>14539.54224213</DistanceMeters>
          </Trackpoint>
          <Trackpoint>
            <Time>2019-07-19T08:13:30.000Z</Time>
            <Position>
              <LatitudeDegrees>40.59351749718189239501953125</LatitudeDegrees>
              <LongitudeDegrees>-3.3607695065438747406005859375</LongitudeDegrees>
            </Position>
            <AltitudeMeters>712.79998779296875</AltitudeMeters>
            <DistanceMeters>14549.280510088</DistanceMeters>
          </Trackpoint>
          <Trackpoint>
            <Time>2019-07-19T08:13:35.000Z</Time>
            <Position>
              <LatitudeDegrees>40.5937406234443187713623046875</LatitudeDegrees>
              <LongitudeDegrees>-3.36071410216391086578369140625</LongitudeDegrees>
            </Position>
            <AltitudeMeters>712.20001220703125</AltitudeMeters>
            <DistanceMeters>14574.552614209</DistanceMeters>
          </Trackpoint>
          <Trackpoint>
            <Time>2019-07-19T08:13:38.000Z</Time>
            <Position>
              <LatitudeDegrees>40.59387213550508022308349609375</LatitudeDegrees>
              <LongitudeDegrees>-3.36070756427943706512451171875</LongitudeDegrees>
            </Position>
            <AltitudeMeters>712.20001220703125</AltitudeMeters>
            <DistanceMeters>14589.200605416</DistanceMeters>
          </Trackpoint>
          <Trackpoint>
            <Time>2019-07-19T08:13:40.000Z</Time>
            <Position>
              <LatitudeDegrees>40.59396081604063510894775390625</LatitudeDegrees>
              <LongitudeDegrees>-3.36071611382067203521728515625</LongitudeDegrees>
            </Position>
            <AltitudeMeters>712.20001220703125</AltitudeMeters>
            <DistanceMeters>14599.097079996</DistanceMeters>
          </Trackpoint>
          <Trackpoint>
            <Time>2019-07-19T08:13:44.000Z</Time>
            <Position>
              <LatitudeDegrees>40.59414404444396495819091796875</LatitudeDegrees>
              <LongitudeDegrees>-3.360671103000640869140625</LongitudeDegrees>
            </Position>
            <AltitudeMeters>712.4000244140625</AltitudeMeters>
            <DistanceMeters>14619.842523913</DistanceMeters>
          </Trackpoint>
          <Trackpoint>
            <Time>2019-07-19T08:13:46.000Z</Time>
            <Position>
              <LatitudeDegrees>40.5942318029701709747314453125</LatitudeDegrees>
              <LongitudeDegrees>-3.3606545068323612213134765625</LongitudeDegrees>
            </Position>
            <AltitudeMeters>712.4000244140625</AltitudeMeters>
            <DistanceMeters>14629.710671883</DistanceMeters>
          </Trackpoint>
          <Trackpoint>
            <Time>2019-07-19T08:13:53.000Z</Time>
            <Position>
              <LatitudeDegrees>40.59453078545629978179931640625</LatitudeDegrees>
              <LongitudeDegrees>-3.3605170436203479766845703125</LongitudeDegrees>
            </Position>
            <AltitudeMeters>713.4000244140625</AltitudeMeters>
            <DistanceMeters>14664.95776988</DistanceMeters>
          </Trackpoint>
          <Trackpoint>
            <Time>2019-07-19T08:13:55.000Z</Time>
            <Position>
              <LatitudeDegrees>40.5946218967437744140625</LatitudeDegrees>
              <LongitudeDegrees>-3.360482342541217803955078125</LongitudeDegrees>
            </Position>
            <AltitudeMeters>713.4000244140625</AltitudeMeters>
            <DistanceMeters>14675.514720361</DistanceMeters>
          </Trackpoint>
          <Trackpoint>
            <Time>2019-07-19T08:14:01.000Z</Time>
            <Position>
              <LatitudeDegrees>40.5948822386562824249267578125</LatitudeDegrees>
              <LongitudeDegrees>-3.36036658845841884613037109375</LongitudeDegrees>
            </Position>
            <AltitudeMeters>713.5999755859375</AltitudeMeters>
            <DistanceMeters>14706.09812024</DistanceMeters>
          </Trackpoint>
          <Trackpoint>
            <Time>2019-07-19T08:14:02.000Z</Time>
            <Position>
              <LatitudeDegrees>40.59492557309567928314208984375</LatitudeDegrees>
              <LongitudeDegrees>-3.3603557758033275604248046875</LongitudeDegrees>
            </Position>
            <AltitudeMeters>713.5999755859375</AltitudeMeters>
            <DistanceMeters>14711.006505306</DistanceMeters>
          </Trackpoint>
          <Trackpoint>
            <Time>2019-07-19T08:14:03.000Z</Time>
            <Position>
              <LatitudeDegrees>40.59497200883924961090087890625</LatitudeDegrees>
              <LongitudeDegrees>-3.36034856736660003662109375</LongitudeDegrees>
            </Position>
            <AltitudeMeters>713.79998779296875</AltitudeMeters>
            <DistanceMeters>14716.211332808</DistanceMeters>
          </Trackpoint>
          <Trackpoint>
            <Time>2019-07-19T08:14:08.000Z</Time>
            <Position>
              <LatitudeDegrees>40.5951729230582714080810546875</LatitudeDegrees>
              <LongitudeDegrees>-3.360251672565937042236328125</LongitudeDegrees>
            </Position>
            <AltitudeMeters>714.4000244140625</AltitudeMeters>
            <DistanceMeters>14740.025717558</DistanceMeters>
          </Trackpoint>
          <Trackpoint>
            <Time>2019-07-19T08:14:20.000Z</Time>
            <Position>
              <LatitudeDegrees>40.59570039622485637664794921875</LatitudeDegrees>
              <LongitudeDegrees>-3.360057882964611053466796875</LongitudeDegrees>
            </Position>
            <AltitudeMeters>714.4000244140625</AltitudeMeters>
            <DistanceMeters>14800.976299582</DistanceMeters>
          </Trackpoint>
          <Trackpoint>
            <Time>2019-07-19T08:14:24.000Z</Time>
            <Position>
              <LatitudeDegrees>40.59583819471299648284912109375</LatitudeDegrees>
              <LongitudeDegrees>-3.360093422234058380126953125</LongitudeDegrees>
            </Position>
            <AltitudeMeters>714.20001220703125</AltitudeMeters>
            <DistanceMeters>14816.604655466</DistanceMeters>
          </Trackpoint>
          <Trackpoint>
            <Time>2019-07-19T08:14:28.000Z</Time>
            <Position>
              <LatitudeDegrees>40.59590189717710018157958984375</LatitudeDegrees>
              <LongitudeDegrees>-3.36025091819465160369873046875</LongitudeDegrees>
            </Position>
            <AltitudeMeters>714.79998779296875</AltitudeMeters>
            <DistanceMeters>14831.686086614</DistanceMeters>
          </Trackpoint>
          <Trackpoint>
            <Time>2019-07-19T08:14:33.000Z</Time>
            <Position>
              <LatitudeDegrees>40.5959936790168285369873046875</LatitudeDegrees>
              <LongitudeDegrees>-3.36044772528111934661865234375</LongitudeDegrees>
            </Position>
            <AltitudeMeters>716.20001220703125</AltitudeMeters>
            <DistanceMeters>14851.205693308</DistanceMeters>
          </Trackpoint>
          <Trackpoint>
            <Time>2019-07-19T08:14:36.000Z</Time>
            <Position>
              <LatitudeDegrees>40.596090070903301239013671875</LatitudeDegrees>
              <LongitudeDegrees>-3.36050958372652530670166015625</LongitudeDegrees>
            </Position>
            <AltitudeMeters>717.20001220703125</AltitudeMeters>
            <DistanceMeters>14863.140155833</DistanceMeters>
          </Trackpoint>
          <Trackpoint>
            <Time>2019-07-19T08:14:40.000Z</Time>
            <Position>
              <LatitudeDegrees>40.5962406098842620849609375</LatitudeDegrees>
              <LongitudeDegrees>-3.36046583019196987152099609375</LongitudeDegrees>
            </Position>
            <AltitudeMeters>718.20001220703125</AltitudeMeters>
            <DistanceMeters>14880.298728395</DistanceMeters>
          </Trackpoint>
          <Trackpoint>
            <Time>2019-07-19T08:14:52.000Z</Time>
            <Position>
              <LatitudeDegrees>40.59679381549358367919921875</LatitudeDegrees>
              <LongitudeDegrees>-3.36027371697127819061279296875</LongitudeDegrees>
            </Position>
            <AltitudeMeters>718.5999755859375</AltitudeMeters>
            <DistanceMeters>14943.976270795</DistanceMeters>
          </Trackpoint>
          <Trackpoint>
            <Time>2019-07-19T08:15:03.000Z</Time>
            <Position>
              <LatitudeDegrees>40.59734500944614410400390625</LatitudeDegrees>
              <LongitudeDegrees>-3.3600828610360622406005859375</LongitudeDegrees>
            </Position>
            <AltitudeMeters>719</AltitudeMeters>
            <DistanceMeters>15007.410143796</DistanceMeters>
          </Trackpoint>
          <Trackpoint>
            <Time>2019-07-19T08:15:14.000Z</Time>
            <Position>
              <LatitudeDegrees>40.59789896942675113677978515625</LatitudeDegrees>
              <LongitudeDegrees>-3.3598900772631168365478515625</LongitudeDegrees>
            </Position>
            <AltitudeMeters>719.20001220703125</AltitudeMeters>
            <DistanceMeters>15071.183335729</DistanceMeters>
          </Trackpoint>
          <Trackpoint>
            <Time>2019-07-19T08:15:25.000Z</Time>
            <Position>
              <LatitudeDegrees>40.59846910648047924041748046875</LatitudeDegrees>
              <LongitudeDegrees>-3.3597068488597869873046875</LongitudeDegrees>
            </Position>
            <AltitudeMeters>718.5999755859375</AltitudeMeters>
            <DistanceMeters>15136.502642132</DistanceMeters>
          </Trackpoint>
          <Trackpoint>
            <Time>2019-07-19T08:15:33.000Z</Time>
            <Position>
              <LatitudeDegrees>40.5989115871489048004150390625</LatitudeDegrees>
              <LongitudeDegrees>-3.35955463349819183349609375</LongitudeDegrees>
            </Position>
            <AltitudeMeters>719.4000244140625</AltitudeMeters>
            <DistanceMeters>15187.403974665</DistanceMeters>
          </Trackpoint>
          <Trackpoint>
            <Time>2019-07-19T08:15:43.000Z</Time>
            <Position>
              <LatitudeDegrees>40.59947309084236621856689453125</LatitudeDegrees>
              <LongitudeDegrees>-3.3593677170574665069580078125</LongitudeDegrees>
            </Position>
            <AltitudeMeters>720</AltitudeMeters>
            <DistanceMeters>15251.865856091</DistanceMeters>
          </Trackpoint>
          <Trackpoint>
            <Time>2019-07-19T08:15:53.000Z</Time>
            <Position>
              <LatitudeDegrees>40.60002210550010204315185546875</LatitudeDegrees>
              <LongitudeDegrees>-3.3591715805232524871826171875</LongitudeDegrees>
            </Position>
            <AltitudeMeters>719.79998779296875</AltitudeMeters>
            <DistanceMeters>15315.180466537</DistanceMeters>
          </Trackpoint>
          <Trackpoint>
            <Time>2019-07-19T08:15:58.000Z</Time>
            <Position>
              <LatitudeDegrees>40.6002956070005893707275390625</LatitudeDegrees>
              <LongitudeDegrees>-3.359074182808399200439453125</LongitudeDegrees>
            </Position>
            <AltitudeMeters>720.4000244140625</AltitudeMeters>
            <DistanceMeters>15346.714734852</DistanceMeters>
          </Trackpoint>
          <Trackpoint>
            <Time>2019-07-19T08:16:08.000Z</Time>
            <Position>
              <LatitudeDegrees>40.600830204784870147705078125</LatitudeDegrees>
              <LongitudeDegrees>-3.358856253325939178466796875</LongitudeDegrees>
            </Position>
            <AltitudeMeters>720.79998779296875</AltitudeMeters>
            <DistanceMeters>15409.001538616</DistanceMeters>
          </Trackpoint>
          <Trackpoint>
            <Time>2019-07-19T08:16:16.000Z</Time>
            <Position>
              <LatitudeDegrees>40.60125164687633514404296875</LatitudeDegrees>
              <LongitudeDegrees>-3.35864134132862091064453125</LongitudeDegrees>
            </Position>
            <AltitudeMeters>721.4000244140625</AltitudeMeters>
            <DistanceMeters>15459.302096753</DistanceMeters>
          </Trackpoint>
          <Trackpoint>
            <Time>2019-07-19T08:16:20.000Z</Time>
            <Position>
              <LatitudeDegrees>40.601456500589847564697265625</LatitudeDegrees>
              <LongitudeDegrees>-3.3585374057292938232421875</LongitudeDegrees>
            </Position>
            <AltitudeMeters>722.79998779296875</AltitudeMeters>
            <DistanceMeters>15483.735976388</DistanceMeters>
          </Trackpoint>
          <Trackpoint>
            <Time>2019-07-19T08:16:30.000Z</Time>
            <Position>
              <LatitudeDegrees>40.60198950581252574920654296875</LatitudeDegrees>
              <LongitudeDegrees>-3.35825485177338123321533203125</LongitudeDegrees>
            </Position>
            <AltitudeMeters>723.4000244140625</AltitudeMeters>
            <DistanceMeters>15547.685495698</DistanceMeters>
          </Trackpoint>
          <Trackpoint>
            <Time>2019-07-19T08:16:39.000Z</Time>
            <Position>
              <LatitudeDegrees>40.60252427123486995697021484375</LatitudeDegrees>
              <LongitudeDegrees>-3.35797741077840328216552734375</LongitudeDegrees>
            </Position>
            <AltitudeMeters>722.4000244140625</AltitudeMeters>
            <DistanceMeters>15611.657039401</DistanceMeters>
          </Trackpoint>
          <Trackpoint>
            <Time>2019-07-19T08:16:48.000Z</Time>
            <Position>
              <LatitudeDegrees>40.6030374951660633087158203125</LatitudeDegrees>
              <LongitudeDegrees>-3.35770667530596256256103515625</LongitudeDegrees>
            </Position>
            <AltitudeMeters>723</AltitudeMeters>
            <DistanceMeters>15673.191074488</DistanceMeters>
          </Trackpoint>
          <Trackpoint>
            <Time>2019-07-19T08:16:57.000Z</Time>
            <Position>
              <LatitudeDegrees>40.60356111265718936920166015625</LatitudeDegrees>
              <LongitudeDegrees>-3.357433341443538665771484375</LongitudeDegrees>
            </Position>
            <AltitudeMeters>723.4000244140625</AltitudeMeters>
            <DistanceMeters>15735.881055742</DistanceMeters>
          </Trackpoint>
          <Trackpoint>
            <Time>2019-07-19T08:17:06.000Z</Time>
            <Position>
              <LatitudeDegrees>40.6041043438017368316650390625</LatitudeDegrees>
              <LongitudeDegrees>-3.3571535535156726837158203125</LongitudeDegrees>
            </Position>
            <AltitudeMeters>722.79998779296875</AltitudeMeters>
            <DistanceMeters>15800.802038481</DistanceMeters>
          </Trackpoint>
          <Trackpoint>
            <Time>2019-07-19T08:17:15.000Z</Time>
            <Position>
              <LatitudeDegrees>40.6046612374484539031982421875</LatitudeDegrees>
              <LongitudeDegrees>-3.356862030923366546630859375</LongitudeDegrees>
            </Position>
            <AltitudeMeters>722.4000244140625</AltitudeMeters>
            <DistanceMeters>15867.501315698</DistanceMeters>
          </Trackpoint>
          <Trackpoint>
            <Time>2019-07-19T08:17:23.000Z</Time>
            <Position>
              <LatitudeDegrees>40.6051732040941715240478515625</LatitudeDegrees>
              <LongitudeDegrees>-3.3565939776599407196044921875</LongitudeDegrees>
            </Position>
            <AltitudeMeters>722.4000244140625</AltitudeMeters>
            <DistanceMeters>15928.82116429</DistanceMeters>
          </Trackpoint>
          <Trackpoint>
            <Time>2019-07-19T08:17:32.000Z</Time>
            <Position>
              <LatitudeDegrees>40.6057331152260303497314453125</LatitudeDegrees>
              <LongitudeDegrees>-3.3562965877354145050048828125</LongitudeDegrees>
            </Position>
            <AltitudeMeters>723.4000244140625</AltitudeMeters>
            <DistanceMeters>15996.016340704</DistanceMeters>
          </Trackpoint>
          <Trackpoint>
            <Time>2019-07-19T08:17:38.000Z</Time>
            <Position>
              <LatitudeDegrees>40.60609814710915088653564453125</LatitudeDegrees>
              <LongitudeDegrees>-3.3561021275818347930908203125</LongitudeDegrees>
            </Position>
            <AltitudeMeters>723.79998779296875</AltitudeMeters>
            <DistanceMeters>16039.842203955</DistanceMeters>
          </Trackpoint>
          <Trackpoint>
            <Time>2019-07-19T08:17:47.000Z</Time>
            <Position>
              <LatitudeDegrees>40.60663006268441677093505859375</LatitudeDegrees>
              <LongitudeDegrees>-3.35579811595380306243896484375</LongitudeDegrees>
            </Position>
            <AltitudeMeters>724</AltitudeMeters>
            <DistanceMeters>16104.378706947</DistanceMeters>
          </Trackpoint>
          <Trackpoint>
            <Time>2019-07-19T08:17:56.000Z</Time>
            <Position>
              <LatitudeDegrees>40.6071379221975803375244140625</LatitudeDegrees>
              <LongitudeDegrees>-3.3554500155150890350341796875</LongitudeDegrees>
            </Position>
            <AltitudeMeters>724</AltitudeMeters>
            <DistanceMeters>16168.099769972</DistanceMeters>
          </Trackpoint>
          <Trackpoint>
            <Time>2019-07-19T08:18:05.000Z</Time>
            <Position>
              <LatitudeDegrees>40.6076596118509769439697265625</LatitudeDegrees>
              <LongitudeDegrees>-3.35509420372545719146728515625</LongitudeDegrees>
            </Position>
            <AltitudeMeters>723.79998779296875</AltitudeMeters>
            <DistanceMeters>16233.487126657</DistanceMeters>
          </Trackpoint>
          <Trackpoint>
            <Time>2019-07-19T08:18:13.000Z</Time>
            <Position>
              <LatitudeDegrees>40.6081531383097171783447265625</LatitudeDegrees>
              <LongitudeDegrees>-3.3547449298202991485595703125</LongitudeDegrees>
            </Position>
            <AltitudeMeters>723</AltitudeMeters>
            <DistanceMeters>16295.844059208</DistanceMeters>
          </Trackpoint>
          <Trackpoint>
            <Time>2019-07-19T08:18:16.000Z</Time>
            <Position>
              <LatitudeDegrees>40.608343072235584259033203125</LatitudeDegrees>
              <LongitudeDegrees>-3.35461132228374481201171875</LongitudeDegrees>
            </Position>
            <AltitudeMeters>722.5999755859375</AltitudeMeters>
            <DistanceMeters>16319.809638319</DistanceMeters>
          </Trackpoint>
          <Trackpoint>
            <Time>2019-07-19T08:18:24.000Z</Time>
            <Position>
              <LatitudeDegrees>40.6088268756866455078125</LatitudeDegrees>
              <LongitudeDegrees>-3.35427814163267612457275390625</LongitudeDegrees>
            </Position>
            <AltitudeMeters>722.5999755859375</AltitudeMeters>
            <DistanceMeters>16380.573259479</DistanceMeters>
          </Trackpoint>
          <Trackpoint>
            <Time>2019-07-19T08:18:33.000Z</Time>
            <Position>
              <LatitudeDegrees>40.60933272354304790496826171875</LatitudeDegrees>
              <LongitudeDegrees>-3.35392534732818603515625</LongitudeDegrees>
            </Position>
            <AltitudeMeters>723.79998779296875</AltitudeMeters>
            <DistanceMeters>16444.280007925</DistanceMeters>
          </Trackpoint>
          <Trackpoint>
            <Time>2019-07-19T08:18:42.000Z</Time>
            <Position>
              <LatitudeDegrees>40.6098281778395175933837890625</LatitudeDegrees>
              <LongitudeDegrees>-3.35359334014356136322021484375</LongitudeDegrees>
            </Position>
            <AltitudeMeters>724</AltitudeMeters>
            <DistanceMeters>16506.150572781</DistanceMeters>
          </Trackpoint>
          <Trackpoint>
            <Time>2019-07-19T08:18:50.000Z</Time>
            <Position>
              <LatitudeDegrees>40.61024886555969715118408203125</LatitudeDegrees>
              <LongitudeDegrees>-3.35329913534224033355712890625</LongitudeDegrees>
            </Position>
            <AltitudeMeters>725</AltitudeMeters>
            <DistanceMeters>16559.16381265</DistanceMeters>
          </Trackpoint>
          <Trackpoint>
            <Time>2019-07-19T08:18:59.000Z</Time>
            <Position>
              <LatitudeDegrees>40.61072998680174350738525390625</LatitudeDegrees>
              <LongitudeDegrees>-3.35296285338699817657470703125</LongitudeDegrees>
            </Position>
            <AltitudeMeters>725.4000244140625</AltitudeMeters>
            <DistanceMeters>16619.785047297</DistanceMeters>
          </Trackpoint>
          <Trackpoint>
            <Time>2019-07-19T08:19:02.000Z</Time>
            <Position>
              <LatitudeDegrees>40.61088220216333866119384765625</LatitudeDegrees>
              <LongitudeDegrees>-3.35285925306379795074462890625</LongitudeDegrees>
            </Position>
            <AltitudeMeters>726</AltitudeMeters>
            <DistanceMeters>16638.854898858</DistanceMeters>
          </Trackpoint>
          <Trackpoint>
            <Time>2019-07-19T08:19:12.000Z</Time>
            <Position>
              <LatitudeDegrees>40.6113838590681552886962890625</LatitudeDegrees>
              <LongitudeDegrees>-3.35251383483409881591796875</LongitudeDegrees>
            </Position>
            <AltitudeMeters>726.79998779296875</AltitudeMeters>
            <DistanceMeters>16701.858112133</DistanceMeters>
          </Trackpoint>
          <Trackpoint>
            <Time>2019-07-19T08:19:19.000Z</Time>
            <Position>
              <LatitudeDegrees>40.611711926758289337158203125</LatitudeDegrees>
              <LongitudeDegrees>-3.352290876209735870361328125</LongitudeDegrees>
            </Position>
            <AltitudeMeters>727</AltitudeMeters>
            <DistanceMeters>16742.946041523</DistanceMeters>
          </Trackpoint>
          <Trackpoint>
            <Time>2019-07-19T08:19:29.000Z</Time>
            <Position>
              <LatitudeDegrees>40.61220369301736354827880859375</LatitudeDegrees>
              <LongitudeDegrees>-3.3519552648067474365234375</LongitudeDegrees>
            </Position>
            <AltitudeMeters>727</AltitudeMeters>
            <DistanceMeters>16804.590040329</DistanceMeters>
          </Trackpoint>
          <Trackpoint>
            <Time>2019-07-19T08:19:39.000Z</Time>
            <Position>
              <LatitudeDegrees>40.61270057223737239837646484375</LatitudeDegrees>
              <LongitudeDegrees>-3.35160934366285800933837890625</LongitudeDegrees>
            </Position>
            <AltitudeMeters>727.5999755859375</AltitudeMeters>
            <DistanceMeters>16867.14202018</DistanceMeters>
          </Trackpoint>
          <Trackpoint>
            <Time>2019-07-19T08:19:49.000Z</Time>
            <Position>
              <LatitudeDegrees>40.61319309286773204803466796875</LatitudeDegrees>
              <LongitudeDegrees>-3.35126535035669803619384765625</LongitudeDegrees>
            </Position>
            <AltitudeMeters>728</AltitudeMeters>
            <DistanceMeters>16929.1890073</DistanceMeters>
          </Trackpoint>
          <Trackpoint>
            <Time>2019-07-19T08:19:51.000Z</Time>
            <Position>
              <LatitudeDegrees>40.6132929213345050811767578125</LatitudeDegrees>
              <LongitudeDegrees>-3.3511950261890888214111328125</LongitudeDegrees>
            </Position>
            <AltitudeMeters>728.20001220703125</AltitudeMeters>
            <DistanceMeters>16941.789277299</DistanceMeters>
          </Trackpoint>
          <Trackpoint>
            <Time>2019-07-19T08:20:01.000Z</Time>
            <Position>
              <LatitudeDegrees>40.613777898252010345458984375</LatitudeDegrees>
              <LongitudeDegrees>-3.3508600853383541107177734375</LongitudeDegrees>
            </Position>
            <AltitudeMeters>728.4000244140625</AltitudeMeters>
            <DistanceMeters>17002.736748008</DistanceMeters>
          </Trackpoint>
          <Trackpoint>
            <Time>2019-07-19T08:20:09.000Z</Time>
            <Position>
              <LatitudeDegrees>40.614156760275363922119140625</LatitudeDegrees>
              <LongitudeDegrees>-3.35058088414371013641357421875</LongitudeDegrees>
            </Position>
            <AltitudeMeters>729.20001220703125</AltitudeMeters>
            <DistanceMeters>17051.054818788</DistanceMeters>
          </Trackpoint>
          <Trackpoint>
            <Time>2019-07-19T08:20:15.000Z</Time>
            <Position>
              <LatitudeDegrees>40.61444300226867198944091796875</LatitudeDegrees>
              <LongitudeDegrees>-3.35038474760949611663818359375</LongitudeDegrees>
            </Position>
            <AltitudeMeters>730.20001220703125</AltitudeMeters>
            <DistanceMeters>17086.966242699</DistanceMeters>
          </Trackpoint>
          <Trackpoint>
            <Time>2019-07-19T08:20:21.000Z</Time>
            <Position>
              <LatitudeDegrees>40.61472027562558650970458984375</LatitudeDegrees>
              <LongitudeDegrees>-3.3501975797116756439208984375</LongitudeDegrees>
            </Position>
            <AltitudeMeters>731.4000244140625</AltitudeMeters>
            <DistanceMeters>17121.643051946</DistanceMeters>
          </Trackpoint>
          <Trackpoint>
            <Time>2019-07-19T08:20:29.000Z</Time>
            <Position>
              <LatitudeDegrees>40.615110956132411956787109375</LatitudeDegrees>
              <LongitudeDegrees>-3.34992441348731517791748046875</LongitudeDegrees>
            </Position>
            <AltitudeMeters>732.4000244140625</AltitudeMeters>
            <DistanceMeters>17170.872026301</DistanceMeters>
          </Trackpoint>
          <Trackpoint>
            <Time>2019-07-19T08:20:38.000Z</Time>
            <Position>
              <LatitudeDegrees>40.61559434048831462860107421875</LatitudeDegrees>
              <LongitudeDegrees>-3.34959349595010280609130859375</LongitudeDegrees>
            </Position>
            <AltitudeMeters>732.79998779296875</AltitudeMeters>
            <DistanceMeters>17231.504580773</DistanceMeters>
          </Trackpoint>
          <Trackpoint>
            <Time>2019-07-19T08:20:48.000Z</Time>
            <Position>
              <LatitudeDegrees>40.61611703597009181976318359375</LatitudeDegrees>
              <LongitudeDegrees>-3.34922988899052143096923828125</LongitudeDegrees>
            </Position>
            <AltitudeMeters>733</AltitudeMeters>
            <DistanceMeters>17297.294506303</DistanceMeters>
          </Trackpoint>
          <Trackpoint>
            <Time>2019-07-19T08:20:57.000Z</Time>
            <Position>
              <LatitudeDegrees>40.61660402454435825347900390625</LatitudeDegrees>
              <LongitudeDegrees>-3.34888187237083911895751953125</LongitudeDegrees>
            </Position>
            <AltitudeMeters>732.5999755859375</AltitudeMeters>
            <DistanceMeters>17358.958717073</DistanceMeters>
          </Trackpoint>
          <Trackpoint>
            <Time>2019-07-19T08:21:06.000Z</Time>
            <Position>
              <LatitudeDegrees>40.6170915998518466949462890625</LatitudeDegrees>
              <LongitudeDegrees>-3.3485419861972332000732421875</LongitudeDegrees>
            </Position>
            <AltitudeMeters>732.4000244140625</AltitudeMeters>
            <DistanceMeters>17420.355976553</DistanceMeters>
          </Trackpoint>
          <Trackpoint>
            <Time>2019-07-19T08:21:15.000Z</Time>
            <Position>
              <LatitudeDegrees>40.61758588068187236785888671875</LatitudeDegrees>
              <LongitudeDegrees>-3.348197825253009796142578125</LongitudeDegrees>
            </Position>
            <AltitudeMeters>732.4000244140625</AltitudeMeters>
            <DistanceMeters>17482.581860708</DistanceMeters>
          </Trackpoint>
          <Trackpoint>
            <Time>2019-07-19T08:21:24.000Z</Time>
            <Position>
              <LatitudeDegrees>40.61810689978301525115966796875</LatitudeDegrees>
              <LongitudeDegrees>-3.3478345535695552825927734375</LongitudeDegrees>
            </Position>
            <AltitudeMeters>731.79998779296875</AltitudeMeters>
            <DistanceMeters>17548.19317934</DistanceMeters>
          </Trackpoint>
          <Trackpoint>
            <Time>2019-07-19T08:21:33.000Z</Time>
            <Position>
              <LatitudeDegrees>40.61860411427915096282958984375</LatitudeDegrees>
              <LongitudeDegrees>-3.34749433211982250213623046875</LongitudeDegrees>
            </Position>
            <AltitudeMeters>731.5999755859375</AltitudeMeters>
            <DistanceMeters>17610.553587299</DistanceMeters>
          </Trackpoint>
          <Trackpoint>
            <Time>2019-07-19T08:21:42.000Z</Time>
            <Position>
              <LatitudeDegrees>40.61910216696560382843017578125</LatitudeDegrees>
              <LongitudeDegrees>-3.3471388556063175201416015625</LongitudeDegrees>
            </Position>
            <AltitudeMeters>731.79998779296875</AltitudeMeters>
            <DistanceMeters>17673.600356998</DistanceMeters>
          </Trackpoint>
          <Trackpoint>
            <Time>2019-07-19T08:21:51.000Z</Time>
            <Position>
              <LatitudeDegrees>40.61959527432918548583984375</LatitudeDegrees>
              <LongitudeDegrees>-3.34676586091518402099609375</LongitudeDegrees>
            </Position>
            <AltitudeMeters>731.79998779296875</AltitudeMeters>
            <DistanceMeters>17736.887292666</DistanceMeters>
          </Trackpoint>
          <Trackpoint>
            <Time>2019-07-19T08:22:00.000Z</Time>
            <Position>
              <LatitudeDegrees>40.6200856156647205352783203125</LatitudeDegrees>
              <LongitudeDegrees>-3.3464009128510951995849609375</LongitudeDegrees>
            </Position>
            <AltitudeMeters>732</AltitudeMeters>
            <DistanceMeters>17799.570215398</DistanceMeters>
          </Trackpoint>
          <Trackpoint>
            <Time>2019-07-19T08:22:09.000Z</Time>
            <Position>
              <LatitudeDegrees>40.620575957000255584716796875</LatitudeDegrees>
              <LongitudeDegrees>-3.34605750627815723419189453125</LongitudeDegrees>
            </Position>
            <AltitudeMeters>731.79998779296875</AltitudeMeters>
            <DistanceMeters>17861.378208571</DistanceMeters>
          </Trackpoint>
          <Trackpoint>
            <Time>2019-07-19T08:22:18.000Z</Time>
            <Position>
              <LatitudeDegrees>40.6210679747164249420166015625</LatitudeDegrees>
              <LongitudeDegrees>-3.34571619518101215362548828125</LongitudeDegrees>
            </Position>
            <AltitudeMeters>733.20001220703125</AltitudeMeters>
            <DistanceMeters>17923.268108925</DistanceMeters>
          </Trackpoint>
          <Trackpoint>
            <Time>2019-07-19T08:22:20.000Z</Time>
            <Position>
              <LatitudeDegrees>40.62117367051541805267333984375</LatitudeDegrees>
              <LongitudeDegrees>-3.345645368099212646484375</LongitudeDegrees>
            </Position>
            <AltitudeMeters>733.4000244140625</AltitudeMeters>
            <DistanceMeters>17936.466563558</DistanceMeters>
          </Trackpoint>
          <Trackpoint>
            <Time>2019-07-19T08:22:26.000Z</Time>
            <Position>
              <LatitudeDegrees>40.62147122807800769805908203125</LatitudeDegrees>
              <LongitudeDegrees>-3.3454428613185882568359375</LongitudeDegrees>
            </Position>
            <AltitudeMeters>734.5999755859375</AltitudeMeters>
            <DistanceMeters>17973.742964981</DistanceMeters>
          </Trackpoint>
          <Trackpoint>
            <Time>2019-07-19T08:22:36.000Z</Time>
            <Position>
              <LatitudeDegrees>40.62194329686462879180908203125</LatitudeDegrees>
              <LongitudeDegrees>-3.34509258158504962921142578125</LongitudeDegrees>
            </Position>
            <AltitudeMeters>735.20001220703125</AltitudeMeters>
            <DistanceMeters>18034.045258748</DistanceMeters>
          </Trackpoint>
          <Trackpoint>
            <Time>2019-07-19T08:22:46.000Z</Time>
            <Position>
              <LatitudeDegrees>40.622445456683635711669921875</LatitudeDegrees>
              <LongitudeDegrees>-3.34472872316837310791015625</LongitudeDegrees>
            </Position>
            <AltitudeMeters>735.5999755859375</AltitudeMeters>
            <DistanceMeters>18097.831759386</DistanceMeters>
          </Trackpoint>
          <Trackpoint>
            <Time>2019-07-19T08:22:53.000Z</Time>
            <Position>
              <LatitudeDegrees>40.6228147633373737335205078125</LatitudeDegrees>
              <LongitudeDegrees>-3.34446494467556476593017578125</LongitudeDegrees>
            </Position>
            <AltitudeMeters>736.79998779296875</AltitudeMeters>
            <DistanceMeters>18144.58808962</DistanceMeters>
          </Trackpoint>
          <Trackpoint>
            <Time>2019-07-19T08:22:57.000Z</Time>
            <Position>
              <LatitudeDegrees>40.6230310164391994476318359375</LatitudeDegrees>
              <LongitudeDegrees>-3.34431574679911136627197265625</LongitudeDegrees>
            </Position>
            <AltitudeMeters>737.79998779296875</AltitudeMeters>
            <DistanceMeters>18171.758086846</DistanceMeters>
          </Trackpoint>
          <Trackpoint>
            <Time>2019-07-19T08:23:06.000Z</Time>
            <Position>
              <LatitudeDegrees>40.62351373024284839630126953125</LatitudeDegrees>
              <LongitudeDegrees>-3.34397326223552227020263671875</LongitudeDegrees>
            </Position>
            <AltitudeMeters>737.5999755859375</AltitudeMeters>
            <DistanceMeters>18232.780185326</DistanceMeters>
          </Trackpoint>
          <Trackpoint>
            <Time>2019-07-19T08:23:08.000Z</Time>
            <Position>
              <LatitudeDegrees>40.6236231140792369842529296875</LatitudeDegrees>
              <LongitudeDegrees>-3.34389681927859783172607421875</LongitudeDegrees>
            </Position>
            <AltitudeMeters>736.5999755859375</AltitudeMeters>
            <DistanceMeters>18246.561352467</DistanceMeters>
          </Trackpoint>
          <Trackpoint>
            <Time>2019-07-19T08:23:11.000Z</Time>
            <Position>
              <LatitudeDegrees>40.62378932721912860870361328125</LatitudeDegrees>
              <LongitudeDegrees>-3.3437757007777690887451171875</LongitudeDegrees>
            </Position>
            <AltitudeMeters>735.4000244140625</AltitudeMeters>
            <DistanceMeters>18267.702180349</DistanceMeters>
          </Trackpoint>
          <Trackpoint>
            <Time>2019-07-19T08:23:21.000Z</Time>
            <Position>
              <LatitudeDegrees>40.62428771518170833587646484375</LatitudeDegrees>
              <LongitudeDegrees>-3.343372531235218048095703125</LongitudeDegrees>
            </Position>
            <AltitudeMeters>735.4000244140625</AltitudeMeters>
            <DistanceMeters>18332.795271605</DistanceMeters>
          </Trackpoint>
          <Trackpoint>
            <Time>2019-07-19T08:23:31.000Z</Time>
            <Position>
              <LatitudeDegrees>40.62477738596498966217041015625</LatitudeDegrees>
              <LongitudeDegrees>-3.3429780788719654083251953125</LongitudeDegrees>
            </Position>
            <AltitudeMeters>735.5999755859375</AltitudeMeters>
            <DistanceMeters>18396.67612778</DistanceMeters>
          </Trackpoint>
          <Trackpoint>
            <Time>2019-07-19T08:23:41.000Z</Time>
            <Position>
              <LatitudeDegrees>40.62526009976863861083984375</LatitudeDegrees>
              <LongitudeDegrees>-3.34258823655545711517333984375</LongitudeDegrees>
            </Position>
            <AltitudeMeters>735.4000244140625</AltitudeMeters>
            <DistanceMeters>18459.693242263</DistanceMeters>
          </Trackpoint>
          <Trackpoint>
            <Time>2019-07-19T08:23:51.000Z</Time>
            <Position>
              <LatitudeDegrees>40.62574935145676136016845703125</LatitudeDegrees>
              <LongitudeDegrees>-3.34220367483794689178466796875</LongitudeDegrees>
            </Position>
            <AltitudeMeters>735.79998779296875</AltitudeMeters>
            <DistanceMeters>18523.101913569</DistanceMeters>
          </Trackpoint>
          <Trackpoint>
            <Time>2019-07-19T08:24:01.000Z</Time>
            <Position>
              <LatitudeDegrees>40.626221336424350738525390625</LatitudeDegrees>
              <LongitudeDegrees>-3.3418294228613376617431640625</LongitudeDegrees>
            </Position>
            <AltitudeMeters>736.4000244140625</AltitudeMeters>
            <DistanceMeters>18584.414398625</DistanceMeters>
          </Trackpoint>
          <Trackpoint>
            <Time>2019-07-19T08:24:10.000Z</Time>
            <Position>
              <LatitudeDegrees>40.6266580335795879364013671875</LatitudeDegrees>
              <LongitudeDegrees>-3.341492302715778350830078125</LongitudeDegrees>
            </Position>
            <AltitudeMeters>736.5999755859375</AltitudeMeters>
            <DistanceMeters>18640.748011016</DistanceMeters>
          </Trackpoint>
          <Trackpoint>
            <Time>2019-07-19T08:24:18.000Z</Time>
            <Position>
              <LatitudeDegrees>40.6270419247448444366455078125</LatitudeDegrees>
              <LongitudeDegrees>-3.3412064798176288604736328125</LongitudeDegrees>
            </Position>
            <AltitudeMeters>737.5999755859375</AltitudeMeters>
            <DistanceMeters>18689.825882203</DistanceMeters>
          </Trackpoint>
          <Trackpoint>
            <Time>2019-07-19T08:24:29.000Z</Time>
            <Position>
              <LatitudeDegrees>40.62753452919423580169677734375</LatitudeDegrees>
              <LongitudeDegrees>-3.3408178947865962982177734375</LongitudeDegrees>
            </Position>
            <AltitudeMeters>738</AltitudeMeters>
            <DistanceMeters>18753.728927746</DistanceMeters>
          </Trackpoint>
          <Trackpoint>
            <Time>2019-07-19T08:24:40.000Z</Time>
            <Position>
              <LatitudeDegrees>40.628033839166164398193359375</LatitudeDegrees>
              <LongitudeDegrees>-3.34042017348110675811767578125</LongitudeDegrees>
            </Position>
            <AltitudeMeters>738.5999755859375</AltitudeMeters>
            <DistanceMeters>18818.669102529</DistanceMeters>
          </Trackpoint>
          <Trackpoint>
            <Time>2019-07-19T08:24:42.000Z</Time>
            <Position>
              <LatitudeDegrees>40.628131069242954254150390625</LatitudeDegrees>
              <LongitudeDegrees>-3.340348340570926666259765625</LongitudeDegrees>
            </Position>
            <AltitudeMeters>739</AltitudeMeters>
            <DistanceMeters>18831.076549616</DistanceMeters>
          </Trackpoint>
          <Trackpoint>
            <Time>2019-07-19T08:24:45.000Z</Time>
            <Position>
              <LatitudeDegrees>40.628268532454967498779296875</LatitudeDegrees>
              <LongitudeDegrees>-3.34023996256291866302490234375</LongitudeDegrees>
            </Position>
            <AltitudeMeters>740.20001220703125</AltitudeMeters>
            <DistanceMeters>18848.906154523</DistanceMeters>
          </Trackpoint>
          <Trackpoint>
            <Time>2019-07-19T08:24:56.000Z</Time>
            <Position>
              <LatitudeDegrees>40.62877806834876537322998046875</LatitudeDegrees>
              <LongitudeDegrees>-3.339841067790985107421875</LongitudeDegrees>
            </Position>
            <AltitudeMeters>740.79998779296875</AltitudeMeters>
            <DistanceMeters>18914.873450505</DistanceMeters>
          </Trackpoint>
          <Trackpoint>
            <Time>2019-07-19T08:25:05.000Z</Time>
            <Position>
              <LatitudeDegrees>40.62919850461184978485107421875</LatitudeDegrees>
              <LongitudeDegrees>-3.33951123990118503570556640625</LongitudeDegrees>
            </Position>
            <AltitudeMeters>741.20001220703125</AltitudeMeters>
            <DistanceMeters>18969.334868032</DistanceMeters>
          </Trackpoint>
          <Trackpoint>
            <Time>2019-07-19T08:25:16.000Z</Time>
            <Position>
              <LatitudeDegrees>40.62970829196274280548095703125</LatitudeDegrees>
              <LongitudeDegrees>-3.339121900498867034912109375</LongitudeDegrees>
            </Position>
            <AltitudeMeters>741.5999755859375</AltitudeMeters>
            <DistanceMeters>19034.917553406</DistanceMeters>
          </Trackpoint>
          <Trackpoint>
            <Time>2019-07-19T08:25:26.000Z</Time>
            <Position>
              <LatitudeDegrees>40.63018823973834514617919921875</LatitudeDegrees>
              <LongitudeDegrees>-3.33875200711190700531005859375</LongitudeDegrees>
            </Position>
            <AltitudeMeters>742.20001220703125</AltitudeMeters>
            <DistanceMeters>19096.803368271</DistanceMeters>
          </Trackpoint>
          <Trackpoint>
            <Time>2019-07-19T08:25:37.000Z</Time>
            <Position>
              <LatitudeDegrees>40.6306823529303073883056640625</LatitudeDegrees>
              <LongitudeDegrees>-3.33837322890758514404296875</LongitudeDegrees>
            </Position>
            <AltitudeMeters>741.20001220703125</AltitudeMeters>
            <DistanceMeters>19160.429129173</DistanceMeters>
          </Trackpoint>
          <Trackpoint>
            <Time>2019-07-19T08:25:43.000Z</Time>
            <Position>
              <LatitudeDegrees>40.6309653259813785552978515625</LatitudeDegrees>
              <LongitudeDegrees>-3.33814029581844806671142578125</LongitudeDegrees>
            </Position>
            <AltitudeMeters>742</AltitudeMeters>
            <DistanceMeters>19197.565369757</DistanceMeters>
          </Trackpoint>
          <Trackpoint>
            <Time>2019-07-19T08:25:53.000Z</Time>
            <Position>
              <LatitudeDegrees>40.63140076585114002227783203125</LatitudeDegrees>
              <LongitudeDegrees>-3.33773276768624782562255859375</LongitudeDegrees>
            </Position>
            <AltitudeMeters>742.4000244140625</AltitudeMeters>
            <DistanceMeters>19257.011700476</DistanceMeters>
          </Trackpoint>
          <Trackpoint>
            <Time>2019-07-19T08:26:04.000Z</Time>
            <Position>
              <LatitudeDegrees>40.63189412467181682586669921875</LatitudeDegrees>
              <LongitudeDegrees>-3.33736480213701725006103515625</LongitudeDegrees>
            </Position>
            <AltitudeMeters>743.4000244140625</AltitudeMeters>
            <DistanceMeters>19320.109725042</DistanceMeters>
          </Trackpoint>
          <Trackpoint>
            <Time>2019-07-19T08:26:07.000Z</Time>
            <Position>
              <LatitudeDegrees>40.63201616518199443817138671875</LatitudeDegrees>
              <LongitudeDegrees>-3.337275870144367218017578125</LongitudeDegrees>
            </Position>
            <AltitudeMeters>744</AltitudeMeters>
            <DistanceMeters>19335.631983244</DistanceMeters>
          </Trackpoint>
          <Trackpoint>
            <Time>2019-07-19T08:26:13.000Z</Time>
            <Position>
              <LatitudeDegrees>40.63217190094292163848876953125</LatitudeDegrees>
              <LongitudeDegrees>-3.33713916130363941192626953125</LongitudeDegrees>
            </Position>
            <AltitudeMeters>744.5999755859375</AltitudeMeters>
            <DistanceMeters>19356.459966161</DistanceMeters>
          </Trackpoint>
          <Trackpoint>
            <Time>2019-07-19T08:26:15.000Z</Time>
            <Position>
              <LatitudeDegrees>40.6322078593075275421142578125</LatitudeDegrees>
              <LongitudeDegrees>-3.3371119201183319091796875</LongitudeDegrees>
            </Position>
            <AltitudeMeters>744.79998779296875</AltitudeMeters>
            <DistanceMeters>19361.076347905</DistanceMeters>
          </Trackpoint>
          <Trackpoint>
            <Time>2019-07-19T08:26:20.000Z</Time>
            <Position>
              <LatitudeDegrees>40.63219226896762847900390625</LatitudeDegrees>
              <LongitudeDegrees>-3.33704696036875247955322265625</LongitudeDegrees>
            </Position>
            <AltitudeMeters>745.20001220703125</AltitudeMeters>
            <DistanceMeters>19366.830762759</DistanceMeters>
          </Trackpoint>
          <Trackpoint>
            <Time>2019-07-19T08:26:25.000Z</Time>
            <Position>
              <LatitudeDegrees>40.63213250599801540374755859375</LatitudeDegrees>
              <LongitudeDegrees>-3.33708384074270725250244140625</LongitudeDegrees>
            </Position>
            <AltitudeMeters>745.5999755859375</AltitudeMeters>
            <DistanceMeters>19374.175534824</DistanceMeters>
          </Trackpoint>
          <Trackpoint>
            <Time>2019-07-19T08:26:27.000Z</Time>
            <Position>
              <LatitudeDegrees>40.632083304226398468017578125</LatitudeDegrees>
              <LongitudeDegrees>-3.33711795508861541748046875</LongitudeDegrees>
            </Position>
            <AltitudeMeters>745.5999755859375</AltitudeMeters>
            <DistanceMeters>19380.364685353</DistanceMeters>
          </Trackpoint>
          <Trackpoint>
            <Time>2019-07-19T08:26:35.000Z</Time>
            <Position>
              <LatitudeDegrees>40.6318135745823383331298828125</LatitudeDegrees>
              <LongitudeDegrees>-3.3373239822685718536376953125</LongitudeDegrees>
            </Position>
            <AltitudeMeters>744.5999755859375</AltitudeMeters>
            <DistanceMeters>19415.065183527</DistanceMeters>
          </Trackpoint>
          <Trackpoint>
            <Time>2019-07-19T08:26:43.000Z</Time>
            <Position>
              <LatitudeDegrees>40.63145508058369159698486328125</LatitudeDegrees>
              <LongitudeDegrees>-3.3375973999500274658203125</LongitudeDegrees>
            </Position>
            <AltitudeMeters>743.5999755859375</AltitudeMeters>
            <DistanceMeters>19461.168224243</DistanceMeters>
          </Trackpoint>
          <Trackpoint>
            <Time>2019-07-19T08:26:59.000Z</Time>
            <Position>
              <LatitudeDegrees>40.63107940368354320526123046875</LatitudeDegrees>
              <LongitudeDegrees>-3.3378862403333187103271484375</LongitudeDegrees>
            </Position>
            <AltitudeMeters>743.79998779296875</AltitudeMeters>
            <DistanceMeters>19509.579462403</DistanceMeters>
          </Trackpoint>
          <Trackpoint>
            <Time>2019-07-19T08:30:16.000Z</Time>
            <Position>
              <LatitudeDegrees>40.631149224936962127685546875</LatitudeDegrees>
              <LongitudeDegrees>-3.3378372900187969207763671875</LongitudeDegrees>
            </Position>
            <AltitudeMeters>743.5999755859375</AltitudeMeters>
            <DistanceMeters>19518.382137335</DistanceMeters>
          </Trackpoint>
          <Trackpoint>
            <Time>2019-07-19T08:30:18.000Z</Time>
            <Position>
              <LatitudeDegrees>40.631183423101902008056640625</LatitudeDegrees>
              <LongitudeDegrees>-3.3378141559660434722900390625</LongitudeDegrees>
            </Position>
            <AltitudeMeters>743.5999755859375</AltitudeMeters>
            <DistanceMeters>19522.661505866</DistanceMeters>
          </Trackpoint>
          <Trackpoint>
            <Time>2019-07-19T08:30:35.000Z</Time>
            <Position>
              <LatitudeDegrees>40.63166479580104351043701171875</LatitudeDegrees>
              <LongitudeDegrees>-3.33744786679744720458984375</LongitudeDegrees>
            </Position>
            <AltitudeMeters>743.79998779296875</AltitudeMeters>
            <DistanceMeters>19584.531122033</DistanceMeters>
          </Trackpoint>
          <Trackpoint>
            <Time>2019-07-19T08:30:46.000Z</Time>
            <Position>
              <LatitudeDegrees>40.6319745071232318878173828125</LatitudeDegrees>
              <LongitudeDegrees>-3.3371908776462078094482421875</LongitudeDegrees>
            </Position>
            <AltitudeMeters>744.5999755859375</AltitudeMeters>
            <DistanceMeters>19625.268000515</DistanceMeters>
          </Trackpoint>
          <Trackpoint>
            <Time>2019-07-19T08:31:04.000Z</Time>
            <Position>
              <LatitudeDegrees>40.632252953946590423583984375</LatitudeDegrees>
              <LongitudeDegrees>-3.3366289548575878143310546875</LongitudeDegrees>
            </Position>
            <AltitudeMeters>745</AltitudeMeters>
            <DistanceMeters>19681.954442479</DistanceMeters>
          </Trackpoint>
          <Trackpoint>
            <Time>2019-07-19T08:31:09.000Z</Time>
            <Position>
              <LatitudeDegrees>40.63228807412087917327880859375</LatitudeDegrees>
              <LongitudeDegrees>-3.336406834423542022705078125</LongitudeDegrees>
            </Position>
            <AltitudeMeters>745.20001220703125</AltitudeMeters>
            <DistanceMeters>19701.119472074</DistanceMeters>
          </Trackpoint>
          <Trackpoint>
            <Time>2019-07-19T08:31:11.000Z</Time>
            <Position>
              <LatitudeDegrees>40.6323619186878204345703125</LatitudeDegrees>
              <LongitudeDegrees>-3.33636500872671604156494140625</LongitudeDegrees>
            </Position>
            <AltitudeMeters>745.20001220703125</AltitudeMeters>
            <DistanceMeters>19710.066124945</DistanceMeters>
          </Trackpoint>
          <Trackpoint>
            <Time>2019-07-19T08:31:14.000Z</Time>
            <Position>
              <LatitudeDegrees>40.632450766861438751220703125</LatitudeDegrees>
              <LongitudeDegrees>-3.33646207116544246673583984375</LongitudeDegrees>
            </Position>
            <AltitudeMeters>745.20001220703125</AltitudeMeters>
            <DistanceMeters>19722.911965398</DistanceMeters>
          </Trackpoint>
          <Trackpoint>
            <Time>2019-07-19T08:31:16.000Z</Time>
            <Position>
              <LatitudeDegrees>40.63251589424908161163330078125</LatitudeDegrees>
              <LongitudeDegrees>-3.336554355919361114501953125</LongitudeDegrees>
            </Position>
            <AltitudeMeters>744.79998779296875</AltitudeMeters>
            <DistanceMeters>19733.556654178</DistanceMeters>
          </Trackpoint>
          <Trackpoint>
            <Time>2019-07-19T08:31:18.000Z</Time>
            <Position>
              <LatitudeDegrees>40.6326138786971569061279296875</LatitudeDegrees>
              <LongitudeDegrees>-3.3366205729544162750244140625</LongitudeDegrees>
            </Position>
            <AltitudeMeters>744.5999755859375</AltitudeMeters>
            <DistanceMeters>19745.812890208</DistanceMeters>
          </Trackpoint>
          <Trackpoint>
            <Time>2019-07-19T08:31:20.000Z</Time>
            <Position>
              <LatitudeDegrees>40.63270566053688526153564453125</LatitudeDegrees>
              <LongitudeDegrees>-3.33668234758079051971435546875</LongitudeDegrees>
            </Position>
            <AltitudeMeters>744.4000244140625</AltitudeMeters>
            <DistanceMeters>19757.283996255</DistanceMeters>
          </Trackpoint>
          <Trackpoint>
            <Time>2019-07-19T08:31:22.000Z</Time>
            <Position>
              <LatitudeDegrees>40.63280121423304080963134765625</LatitudeDegrees>
              <LongitudeDegrees>-3.3367520011961460113525390625</LongitudeDegrees>
            </Position>
            <AltitudeMeters>744.4000244140625</AltitudeMeters>
            <DistanceMeters>19769.438503675</DistanceMeters>
          </Trackpoint>
          <Trackpoint>
            <Time>2019-07-19T08:31:24.000Z</Time>
            <Position>
              <LatitudeDegrees>40.6329162977635860443115234375</LatitudeDegrees>
              <LongitudeDegrees>-3.336760215461254119873046875</LongitudeDegrees>
            </Position>
            <AltitudeMeters>744.4000244140625</AltitudeMeters>
            <DistanceMeters>19782.26675816</DistanceMeters>
          </Trackpoint>
          <Trackpoint>
            <Time>2019-07-19T08:31:33.000Z</Time>
            <Position>
              <LatitudeDegrees>40.63335307873785495758056640625</LatitudeDegrees>
              <LongitudeDegrees>-3.3366520889103412628173828125</LongitudeDegrees>
            </Position>
            <AltitudeMeters>745.79998779296875</AltitudeMeters>
            <DistanceMeters>19831.731791398</DistanceMeters>
          </Trackpoint>
          <Trackpoint>
            <Time>2019-07-19T08:31:44.000Z</Time>
            <Position>
              <LatitudeDegrees>40.633896477520465850830078125</LatitudeDegrees>
              <LongitudeDegrees>-3.33667430095374584197998046875</LongitudeDegrees>
            </Position>
            <AltitudeMeters>745.5999755859375</AltitudeMeters>
            <DistanceMeters>19892.242322933</DistanceMeters>
          </Trackpoint>
          <Trackpoint>
            <Time>2019-07-19T08:31:45.000Z</Time>
            <Position>
              <LatitudeDegrees>40.63394836150109767913818359375</LatitudeDegrees>
              <LongitudeDegrees>-3.3366822637617588043212890625</LongitudeDegrees>
            </Position>
            <AltitudeMeters>745.5999755859375</AltitudeMeters>
            <DistanceMeters>19898.055286553</DistanceMeters>
          </Trackpoint>
          <Trackpoint>
            <Time>2019-07-19T08:31:55.000Z</Time>
            <Position>
              <LatitudeDegrees>40.6344890780746936798095703125</LatitudeDegrees>
              <LongitudeDegrees>-3.33678402006626129150390625</LongitudeDegrees>
            </Position>
            <AltitudeMeters>745.20001220703125</AltitudeMeters>
            <DistanceMeters>19958.848696698</DistanceMeters>
          </Trackpoint>
          <Trackpoint>
            <Time>2019-07-19T08:32:00.000Z</Time>
            <Position>
              <LatitudeDegrees>40.6347646750509738922119140625</LatitudeDegrees>
              <LongitudeDegrees>-3.336829282343387603759765625</LongitudeDegrees>
            </Position>
            <AltitudeMeters>744.79998779296875</AltitudeMeters>
            <DistanceMeters>19989.760581616</DistanceMeters>
          </Trackpoint>
          <Trackpoint>
            <Time>2019-07-19T08:32:10.000Z</Time>
            <Position>
              <LatitudeDegrees>40.6353507377207279205322265625</LatitudeDegrees>
              <LongitudeDegrees>-3.3369250036776065826416015625</LongitudeDegrees>
            </Position>
            <AltitudeMeters>744.4000244140625</AltitudeMeters>
            <DistanceMeters>20055.489605825</DistanceMeters>
          </Trackpoint>
          <Trackpoint>
            <Time>2019-07-19T08:32:18.000Z</Time>
            <Position>
              <LatitudeDegrees>40.63583068549633026123046875</LatitudeDegrees>
              <LongitudeDegrees>-3.3369950763881206512451171875</LongitudeDegrees>
            </Position>
            <AltitudeMeters>744.5999755859375</AltitudeMeters>
            <DistanceMeters>20109.235593151</DistanceMeters>
          </Trackpoint>
          <Trackpoint>
            <Time>2019-07-19T08:32:20.000Z</Time>
            <Position>
              <LatitudeDegrees>40.63596823252737522125244140625</LatitudeDegrees>
              <LongitudeDegrees>-3.33701862953603267669677734375</LongitudeDegrees>
            </Position>
            <AltitudeMeters>744.5999755859375</AltitudeMeters>
            <DistanceMeters>20124.673559584</DistanceMeters>
          </Trackpoint>
          <Trackpoint>
            <Time>2019-07-19T08:32:24.000Z</Time>
            <Position>
              <LatitudeDegrees>40.63624617643654346466064453125</LatitudeDegrees>
              <LongitudeDegrees>-3.33707730285823345184326171875</LongitudeDegrees>
            </Position>
            <AltitudeMeters>744.79998779296875</AltitudeMeters>
            <DistanceMeters>20156.003710231</DistanceMeters>
          </Trackpoint>
          <Trackpoint>
            <Time>2019-07-19T08:32:33.000Z</Time>
            <Position>
              <LatitudeDegrees>40.6368195824325084686279296875</LatitudeDegrees>
              <LongitudeDegrees>-3.3371710963547229766845703125</LongitudeDegrees>
            </Position>
            <AltitudeMeters>745.79998779296875</AltitudeMeters>
            <DistanceMeters>20220.314825076</DistanceMeters>
          </Trackpoint>
          <Trackpoint>
            <Time>2019-07-19T08:32:42.000Z</Time>
            <Position>
              <LatitudeDegrees>40.63737069256603717803955078125</LatitudeDegrees>
              <LongitudeDegrees>-3.3372589386999607086181640625</LongitudeDegrees>
            </Position>
            <AltitudeMeters>746.20001220703125</AltitudeMeters>
            <DistanceMeters>20282.101630285</DistanceMeters>
          </Trackpoint>
          <Trackpoint>
            <Time>2019-07-19T08:32:51.000Z</Time>
            <Position>
              <LatitudeDegrees>40.63793756067752838134765625</LatitudeDegrees>
              <LongitudeDegrees>-3.3373494632542133331298828125</LongitudeDegrees>
            </Position>
            <AltitudeMeters>746.20001220703125</AltitudeMeters>
            <DistanceMeters>20345.656815394</DistanceMeters>
          </Trackpoint>
          <Trackpoint>
            <Time>2019-07-19T08:32:56.000Z</Time>
            <Position>
              <LatitudeDegrees>40.638200752437114715576171875</LatitudeDegrees>
              <LongitudeDegrees>-3.3374037779867649078369140625</LongitudeDegrees>
            </Position>
            <AltitudeMeters>746.79998779296875</AltitudeMeters>
            <DistanceMeters>20375.307739034</DistanceMeters>
          </Trackpoint>
          <Trackpoint>
            <Time>2019-07-19T08:33:05.000Z</Time>
            <Position>
              <LatitudeDegrees>40.6387383677065372467041015625</LatitudeDegrees>
              <LongitudeDegrees>-3.3374875970184803009033203125</LongitudeDegrees>
            </Position>
            <AltitudeMeters>746.4000244140625</AltitudeMeters>
            <DistanceMeters>20435.562694227</DistanceMeters>
          </Trackpoint>
          <Trackpoint>
            <Time>2019-07-19T08:33:14.000Z</Time>
            <Position>
              <LatitudeDegrees>40.6392922438681125640869140625</LatitudeDegrees>
              <LongitudeDegrees>-3.3375841565430164337158203125</LongitudeDegrees>
            </Position>
            <AltitudeMeters>746.79998779296875</AltitudeMeters>
            <DistanceMeters>20497.747351301</DistanceMeters>
          </Trackpoint>
          <Trackpoint>
            <Time>2019-07-19T08:33:23.000Z</Time>
            <Position>
              <LatitudeDegrees>40.639851652085781097412109375</LatitudeDegrees>
              <LongitudeDegrees>-3.33767987787723541259765625</LongitudeDegrees>
            </Position>
            <AltitudeMeters>747</AltitudeMeters>
            <DistanceMeters>20560.533192153</DistanceMeters>
          </Trackpoint>
          <Trackpoint>
            <Time>2019-07-19T08:33:32.000Z</Time>
            <Position>
              <LatitudeDegrees>40.64038918353617191314697265625</LatitudeDegrees>
              <LongitudeDegrees>-3.3377655409276485443115234375</LongitudeDegrees>
            </Position>
            <AltitudeMeters>748</AltitudeMeters>
            <DistanceMeters>20620.797363306</DistanceMeters>
          </Trackpoint>
          <Trackpoint>
            <Time>2019-07-19T08:33:42.000Z</Time>
            <Position>
              <LatitudeDegrees>40.64097516238689422607421875</LatitudeDegrees>
              <LongitudeDegrees>-3.33786553703248500823974609375</LongitudeDegrees>
            </Position>
            <AltitudeMeters>748.79998779296875</AltitudeMeters>
            <DistanceMeters>20686.562578076</DistanceMeters>
          </Trackpoint>
          <Trackpoint>
            <Time>2019-07-19T08:33:46.000Z</Time>
            <Position>
              <LatitudeDegrees>40.64120440743863582611083984375</LatitudeDegrees>
              <LongitudeDegrees>-3.33790878765285015106201171875</LongitudeDegrees>
            </Position>
            <AltitudeMeters>749</AltitudeMeters>
            <DistanceMeters>20712.338125486</DistanceMeters>
          </Trackpoint>
          <Trackpoint>
            <Time>2019-07-19T08:33:52.000Z</Time>
            <Position>
              <LatitudeDegrees>40.6415536813437938690185546875</LatitudeDegrees>
              <LongitudeDegrees>-3.33797383122146129608154296875</LongitudeDegrees>
            </Position>
            <AltitudeMeters>750</AltitudeMeters>
            <DistanceMeters>20751.599226451</DistanceMeters>
          </Trackpoint>
          <Trackpoint>
            <Time>2019-07-19T08:34:02.000Z</Time>
            <Position>
              <LatitudeDegrees>40.64213647507131099700927734375</LatitudeDegrees>
              <LongitudeDegrees>-3.3380810357630252838134765625</LongitudeDegrees>
            </Position>
            <AltitudeMeters>750</AltitudeMeters>
            <DistanceMeters>20817.094213538</DistanceMeters>
          </Trackpoint>
          <Trackpoint>
            <Time>2019-07-19T08:34:11.000Z</Time>
            <Position>
              <LatitudeDegrees>40.6426802091300487518310546875</LatitudeDegrees>
              <LongitudeDegrees>-3.33816946484148502349853515625</LongitudeDegrees>
            </Position>
            <AltitudeMeters>749.5999755859375</AltitudeMeters>
            <DistanceMeters>20878.072049817</DistanceMeters>
          </Trackpoint>
          <Trackpoint>
            <Time>2019-07-19T08:34:20.000Z</Time>
            <Position>
              <LatitudeDegrees>40.64323752187192440032958984375</LatitudeDegrees>
              <LongitudeDegrees>-3.3382359333336353302001953125</LongitudeDegrees>
            </Position>
            <AltitudeMeters>749.5999755859375</AltitudeMeters>
            <DistanceMeters>20940.355591541</DistanceMeters>
          </Trackpoint>
          <Trackpoint>
            <Time>2019-07-19T08:34:29.000Z</Time>
            <Position>
              <LatitudeDegrees>40.64379542134702205657958984375</LatitudeDegrees>
              <LongitudeDegrees>-3.33828815259039402008056640625</LongitudeDegrees>
            </Position>
            <AltitudeMeters>750</AltitudeMeters>
            <DistanceMeters>21002.607373814</DistanceMeters>
          </Trackpoint>
          <Trackpoint>
            <Time>2019-07-19T08:34:39.000Z</Time>
            <Position>
              <LatitudeDegrees>40.64439556561410427093505859375</LatitudeDegrees>
              <LongitudeDegrees>-3.33833810873329639434814453125</LongitudeDegrees>
            </Position>
            <AltitudeMeters>750.20001220703125</AltitudeMeters>
            <DistanceMeters>21069.537758862</DistanceMeters>
          </Trackpoint>
          <Trackpoint>
            <Time>2019-07-19T08:34:49.000Z</Time>
            <Position>
              <LatitudeDegrees>40.6449550576508045196533203125</LatitudeDegrees>
              <LongitudeDegrees>-3.3383777551352977752685546875</LongitudeDegrees>
            </Position>
            <AltitudeMeters>750.79998779296875</AltitudeMeters>
            <DistanceMeters>21131.900266452</DistanceMeters>
          </Trackpoint>
          <Trackpoint>
            <Time>2019-07-19T08:34:54.000Z</Time>
            <Position>
              <LatitudeDegrees>40.645216405391693115234375</LatitudeDegrees>
              <LongitudeDegrees>-3.3383864723145961761474609375</LongitudeDegrees>
            </Position>
            <AltitudeMeters>751.20001220703125</AltitudeMeters>
            <DistanceMeters>21160.998153963</DistanceMeters>
          </Trackpoint>
          <Trackpoint>
            <Time>2019-07-19T08:35:05.000Z</Time>
            <Position>
              <LatitudeDegrees>40.64580355770885944366455078125</LatitudeDegrees>
              <LongitudeDegrees>-3.3383591473102569580078125</LongitudeDegrees>
            </Position>
            <AltitudeMeters>751.4000244140625</AltitudeMeters>
            <DistanceMeters>21226.390067831</DistanceMeters>
          </Trackpoint>
          <Trackpoint>
            <Time>2019-07-19T08:35:16.000Z</Time>
            <Position>
              <LatitudeDegrees>40.646286271512508392333984375</LatitudeDegrees>
              <LongitudeDegrees>-3.3383046649396419525146484375</LongitudeDegrees>
            </Position>
            <AltitudeMeters>752.20001220703125</AltitudeMeters>
            <DistanceMeters>21280.313604673</DistanceMeters>
          </Trackpoint>
          <Trackpoint>
            <Time>2019-07-19T08:35:18.000Z</Time>
            <Position>
              <LatitudeDegrees>40.6462948210537433624267578125</LatitudeDegrees>
              <LongitudeDegrees>-3.33829837851226329803466796875</LongitudeDegrees>
            </Position>
            <AltitudeMeters>752.5999755859375</AltitudeMeters>
            <DistanceMeters>21281.397075917</DistanceMeters>
          </Trackpoint>
          <Trackpoint>
            <Time>2019-07-19T08:35:27.000Z</Time>
            <Position>
              <LatitudeDegrees>40.646337904036045074462890625</LatitudeDegrees>
              <LongitudeDegrees>-3.338292427361011505126953125</LongitudeDegrees>
            </Position>
            <AltitudeMeters>753</AltitudeMeters>
            <DistanceMeters>21286.2182186</DistanceMeters>
          </Trackpoint>
          <Trackpoint>
            <Time>2019-07-19T08:35:28.000Z</Time>
            <Position>
              <LatitudeDegrees>40.64636648632586002349853515625</LatitudeDegrees>
              <LongitudeDegrees>-3.33829066716134548187255859375</LongitudeDegrees>
            </Position>
            <AltitudeMeters>753</AltitudeMeters>
            <DistanceMeters>21289.404094606</DistanceMeters>
          </Trackpoint>
          <Trackpoint>
            <Time>2019-07-19T08:35:35.000Z</Time>
            <Position>
              <LatitudeDegrees>40.6465969048440456390380859375</LatitudeDegrees>
              <LongitudeDegrees>-3.33824708126485347747802734375</LongitudeDegrees>
            </Position>
            <AltitudeMeters>753</AltitudeMeters>
            <DistanceMeters>21315.312775825</DistanceMeters>
          </Trackpoint>
          <Trackpoint>
            <Time>2019-07-19T08:35:37.000Z</Time>
            <Position>
              <LatitudeDegrees>40.64670142717659473419189453125</LatitudeDegrees>
              <LongitudeDegrees>-3.33829636685550212860107421875</LongitudeDegrees>
            </Position>
            <AltitudeMeters>753</AltitudeMeters>
            <DistanceMeters>21327.668441423</DistanceMeters>
          </Trackpoint>
          <Trackpoint>
            <Time>2019-07-19T08:35:47.000Z</Time>
            <Position>
              <LatitudeDegrees>40.64726837910711765289306640625</LatitudeDegrees>
              <LongitudeDegrees>-3.33839208818972110748291015625</LongitudeDegrees>
            </Position>
            <AltitudeMeters>752</AltitudeMeters>
            <DistanceMeters>21391.286892775</DistanceMeters>
          </Trackpoint>
          <Trackpoint>
            <Time>2019-07-19T08:35:54.000Z</Time>
            <Position>
              <LatitudeDegrees>40.647662244737148284912109375</LatitudeDegrees>
              <LongitudeDegrees>-3.33843969739973545074462890625</LongitudeDegrees>
            </Position>
            <AltitudeMeters>752</AltitudeMeters>
            <DistanceMeters>21435.308986156</DistanceMeters>
          </Trackpoint>
          <Trackpoint>
            <Time>2019-07-19T08:35:57.000Z</Time>
            <Position>
              <LatitudeDegrees>40.6478297151625156402587890625</LatitudeDegrees>
              <LongitudeDegrees>-3.3384655974805355072021484375</LongitudeDegrees>
            </Position>
            <AltitudeMeters>753.5999755859375</AltitudeMeters>
            <DistanceMeters>21454.076702101</DistanceMeters>
          </Trackpoint>
          <Trackpoint>
            <Time>2019-07-19T08:36:07.000Z</Time>
            <Position>
              <LatitudeDegrees>40.6483586132526397705078125</LatitudeDegrees>
              <LongitudeDegrees>-3.33844187669456005096435546875</LongitudeDegrees>
            </Position>
            <AltitudeMeters>752.79998779296875</AltitudeMeters>
            <DistanceMeters>21512.978089435</DistanceMeters>
          </Trackpoint>
          <Trackpoint>
            <Time>2019-07-19T08:36:11.000Z</Time>
            <Position>
              <LatitudeDegrees>40.6485624611377716064453125</LatitudeDegrees>
              <LongitudeDegrees>-3.3383485861122608184814453125</LongitudeDegrees>
            </Position>
            <AltitudeMeters>752.79998779296875</AltitudeMeters>
            <DistanceMeters>21536.995421784</DistanceMeters>
          </Trackpoint>
          <Trackpoint>
            <Time>2019-07-19T08:36:13.000Z</Time>
            <Position>
              <LatitudeDegrees>40.64867268316447734832763671875</LatitudeDegrees>
              <LongitudeDegrees>-3.33832654170691967010498046875</LongitudeDegrees>
            </Position>
            <AltitudeMeters>753</AltitudeMeters>
            <DistanceMeters>21549.403596645</DistanceMeters>
          </Trackpoint>
          <Trackpoint>
            <Time>2019-07-19T08:36:15.000Z</Time>
            <Position>
              <LatitudeDegrees>40.64878039062023162841796875</LatitudeDegrees>
              <LongitudeDegrees>-3.33836912177503108978271484375</LongitudeDegrees>
            </Position>
            <AltitudeMeters>753.20001220703125</AltitudeMeters>
            <DistanceMeters>21561.919015375</DistanceMeters>
          </Trackpoint>
          <Trackpoint>
            <Time>2019-07-19T08:36:19.000Z</Time>
            <Position>
              <LatitudeDegrees>40.6489835679531097412109375</LatitudeDegrees>
              <LongitudeDegrees>-3.33852787502110004425048828125</LongitudeDegrees>
            </Position>
            <AltitudeMeters>753</AltitudeMeters>
            <DistanceMeters>21588.207945946</DistanceMeters>
          </Trackpoint>
          <Trackpoint>
            <Time>2019-07-19T08:36:29.000Z</Time>
            <Position>
              <LatitudeDegrees>40.64956334419548511505126953125</LatitudeDegrees>
              <LongitudeDegrees>-3.33867623470723628997802734375</LongitudeDegrees>
            </Position>
            <AltitudeMeters>753.20001220703125</AltitudeMeters>
            <DistanceMeters>21653.943083432</DistanceMeters>
          </Trackpoint>
          <Trackpoint>
            <Time>2019-07-19T08:36:38.000Z</Time>
            <Position>
              <LatitudeDegrees>40.6501199863851070404052734375</LatitudeDegrees>
              <LongitudeDegrees>-3.3387502469122409820556640625</LongitudeDegrees>
            </Position>
            <AltitudeMeters>753.4000244140625</AltitudeMeters>
            <DistanceMeters>21716.212922722</DistanceMeters>
          </Trackpoint>
          <Trackpoint>
            <Time>2019-07-19T08:36:47.000Z</Time>
            <Position>
              <LatitudeDegrees>40.65067411400377750396728515625</LatitudeDegrees>
              <LongitudeDegrees>-3.3388166315853595733642578125</LongitudeDegrees>
            </Position>
            <AltitudeMeters>753.79998779296875</AltitudeMeters>
            <DistanceMeters>21778.142642467</DistanceMeters>
          </Trackpoint>
          <Trackpoint>
            <Time>2019-07-19T08:36:56.000Z</Time>
            <Position>
              <LatitudeDegrees>40.651237629354000091552734375</LatitudeDegrees>
              <LongitudeDegrees>-3.33888477645814418792724609375</LongitudeDegrees>
            </Position>
            <AltitudeMeters>754.20001220703125</AltitudeMeters>
            <DistanceMeters>21841.126503592</DistanceMeters>
          </Trackpoint>
          <Trackpoint>
            <Time>2019-07-19T08:36:59.000Z</Time>
            <Position>
              <LatitudeDegrees>40.6514248810708522796630859375</LatitudeDegrees>
              <LongitudeDegrees>-3.3389108441770076751708984375</LongitudeDegrees>
            </Position>
            <AltitudeMeters>754.5999755859375</AltitudeMeters>
            <DistanceMeters>21862.083933973</DistanceMeters>
          </Trackpoint>
          <Trackpoint>
            <Time>2019-07-19T08:37:08.000Z</Time>
            <Position>
              <LatitudeDegrees>40.6520002149045467376708984375</LatitudeDegrees>
              <LongitudeDegrees>-3.33897446282207965850830078125</LongitudeDegrees>
            </Position>
            <AltitudeMeters>755.20001220703125</AltitudeMeters>
            <DistanceMeters>21926.344761526</DistanceMeters>
          </Trackpoint>
          <Trackpoint>
            <Time>2019-07-19T08:37:17.000Z</Time>
            <Position>
              <LatitudeDegrees>40.652603544294834136962890625</LatitudeDegrees>
              <LongitudeDegrees>-3.339058868587017059326171875</LongitudeDegrees>
            </Position>
            <AltitudeMeters>755.20001220703125</AltitudeMeters>
            <DistanceMeters>21993.873729488</DistanceMeters>
          </Trackpoint>
          <Trackpoint>
            <Time>2019-07-19T08:37:26.000Z</Time>
            <Position>
              <LatitudeDegrees>40.653171837329864501953125</LatitudeDegrees>
              <LongitudeDegrees>-3.33913070149719715118408203125</LongitudeDegrees>
            </Position>
            <AltitudeMeters>755.5999755859375</AltitudeMeters>
            <DistanceMeters>22057.416125891</DistanceMeters>
          </Trackpoint>
          <Trackpoint>
            <Time>2019-07-19T08:37:27.000Z</Time>
            <Position>
              <LatitudeDegrees>40.65323461778461933135986328125</LatitudeDegrees>
              <LongitudeDegrees>-3.33913774229586124420166015625</LongitudeDegrees>
            </Position>
            <AltitudeMeters>755.5999755859375</AltitudeMeters>
            <DistanceMeters>22064.428814128</DistanceMeters>
          </Trackpoint>
          <Trackpoint>
            <Time>2019-07-19T08:37:36.000Z</Time>
            <Position>
              <LatitudeDegrees>40.65380475483834743499755859375</LatitudeDegrees>
              <LongitudeDegrees>-3.33921317942440509796142578125</LongitudeDegrees>
            </Position>
            <AltitudeMeters>756</AltitudeMeters>
            <DistanceMeters>22128.205121114</DistanceMeters>
          </Trackpoint>
          <Trackpoint>
            <Time>2019-07-19T08:37:45.000Z</Time>
            <Position>
              <LatitudeDegrees>40.6543820165097713470458984375</LatitudeDegrees>
              <LongitudeDegrees>-3.33929046057164669036865234375</LongitudeDegrees>
            </Position>
            <AltitudeMeters>756.4000244140625</AltitudeMeters>
            <DistanceMeters>22192.78603406</DistanceMeters>
          </Trackpoint>
          <Trackpoint>
            <Time>2019-07-19T08:37:54.000Z</Time>
            <Position>
              <LatitudeDegrees>40.65495978109538555145263671875</LatitudeDegrees>
              <LongitudeDegrees>-3.33936321549117565155029296875</LongitudeDegrees>
            </Position>
            <AltitudeMeters>756.5999755859375</AltitudeMeters>
            <DistanceMeters>22257.385191693</DistanceMeters>
          </Trackpoint>
          <Trackpoint>
            <Time>2019-07-19T08:37:56.000Z</Time>
            <Position>
              <LatitudeDegrees>40.65508852712810039520263671875</LatitudeDegrees>
              <LongitudeDegrees>-3.3393812365829944610595703125</LongitudeDegrees>
            </Position>
            <AltitudeMeters>756.79998779296875</AltitudeMeters>
            <DistanceMeters>22271.79607987</DistanceMeters>
          </Trackpoint>
          <Trackpoint>
            <Time>2019-07-19T08:38:03.000Z</Time>
            <Position>
              <LatitudeDegrees>40.65554265864193439483642578125</LatitudeDegrees>
              <LongitudeDegrees>-3.3394429273903369903564453125</LongitudeDegrees>
            </Position>
            <AltitudeMeters>757.79998779296875</AltitudeMeters>
            <DistanceMeters>22322.609521773</DistanceMeters>
          </Trackpoint>
          <Trackpoint>
            <Time>2019-07-19T08:38:12.000Z</Time>
            <Position>
              <LatitudeDegrees>40.6561247818171977996826171875</LatitudeDegrees>
              <LongitudeDegrees>-3.3395160175859928131103515625</LongitudeDegrees>
            </Position>
            <AltitudeMeters>758</AltitudeMeters>
            <DistanceMeters>22387.694288962</DistanceMeters>
          </Trackpoint>
          <Trackpoint>
            <Time>2019-07-19T08:38:21.000Z</Time>
            <Position>
              <LatitudeDegrees>40.65669827163219451904296875</LatitudeDegrees>
              <LongitudeDegrees>-3.33958433009684085845947265625</LongitudeDegrees>
            </Position>
            <AltitudeMeters>758.4000244140625</AltitudeMeters>
            <DistanceMeters>22451.784859039</DistanceMeters>
          </Trackpoint>
          <Trackpoint>
            <Time>2019-07-19T08:38:30.000Z</Time>
            <Position>
              <LatitudeDegrees>40.6572415865957736968994140625</LatitudeDegrees>
              <LongitudeDegrees>-3.3396573364734649658203125</LongitudeDegrees>
            </Position>
            <AltitudeMeters>759</AltitudeMeters>
            <DistanceMeters>22512.570247652</DistanceMeters>
          </Trackpoint>
          <Trackpoint>
            <Time>2019-07-19T08:38:40.000Z</Time>
            <Position>
              <LatitudeDegrees>40.65782345831394195556640625</LatitudeDegrees>
              <LongitudeDegrees>-3.3397339470684528350830078125</LongitudeDegrees>
            </Position>
            <AltitudeMeters>759.20001220703125</AltitudeMeters>
            <DistanceMeters>22577.655986037</DistanceMeters>
          </Trackpoint>
          <Trackpoint>
            <Time>2019-07-19T08:38:50.000Z</Time>
            <Position>
              <LatitudeDegrees>40.658407844603061676025390625</LatitudeDegrees>
              <LongitudeDegrees>-3.33980930037796497344970703125</LongitudeDegrees>
            </Position>
            <AltitudeMeters>759.79998779296875</AltitudeMeters>
            <DistanceMeters>22643.0097755</DistanceMeters>
          </Trackpoint>
          <Trackpoint>
            <Time>2019-07-19T08:38:59.000Z</Time>
            <Position>
              <LatitudeDegrees>40.6589303724467754364013671875</LatitudeDegrees>
              <LongitudeDegrees>-3.3398750983178615570068359375</LongitudeDegrees>
            </Position>
            <AltitudeMeters>759.79998779296875</AltitudeMeters>
            <DistanceMeters>22701.432891943</DistanceMeters>
          </Trackpoint>
          <Trackpoint>
            <Time>2019-07-19T08:39:05.000Z</Time>
            <Position>
              <LatitudeDegrees>40.6592790596187114715576171875</LatitudeDegrees>
              <LongitudeDegrees>-3.3399193547666072845458984375</LongitudeDegrees>
            </Position>
            <AltitudeMeters>760.20001220703125</AltitudeMeters>
            <DistanceMeters>22740.421879218</DistanceMeters>
          </Trackpoint>
          <Trackpoint>
            <Time>2019-07-19T08:39:14.000Z</Time>
            <Position>
              <LatitudeDegrees>40.65979764796793460845947265625</LatitudeDegrees>
              <LongitudeDegrees>-3.339982889592647552490234375</LongitudeDegrees>
            </Position>
            <AltitudeMeters>761.4000244140625</AltitudeMeters>
            <DistanceMeters>22798.390589546</DistanceMeters>
          </Trackpoint>
          <Trackpoint>
            <Time>2019-07-19T08:39:19.000Z</Time>
            <Position>
              <LatitudeDegrees>40.66008028574287891387939453125</LatitudeDegrees>
              <LongitudeDegrees>-3.34002287127077579498291015625</LongitudeDegrees>
            </Position>
            <AltitudeMeters>762.4000244140625</AltitudeMeters>
            <DistanceMeters>22830.029491141</DistanceMeters>
          </Trackpoint>
          <Trackpoint>
            <Time>2019-07-19T08:39:29.000Z</Time>
            <Position>
              <LatitudeDegrees>40.6606476567685604095458984375</LatitudeDegrees>
              <LongitudeDegrees>-3.3400920219719409942626953125</LongitudeDegrees>
            </Position>
            <AltitudeMeters>761.4000244140625</AltitudeMeters>
            <DistanceMeters>22893.448343999</DistanceMeters>
          </Trackpoint>
          <Trackpoint>
            <Time>2019-07-19T08:39:31.000Z</Time>
            <Position>
              <LatitudeDegrees>40.66076139919459819793701171875</LatitudeDegrees>
              <LongitudeDegrees>-3.34010803140699863433837890625</LongitudeDegrees>
            </Position>
            <AltitudeMeters>761.4000244140625</AltitudeMeters>
            <DistanceMeters>22906.180505336</DistanceMeters>
          </Trackpoint>
          <Trackpoint>
            <Time>2019-07-19T08:39:33.000Z</Time>
            <Position>
              <LatitudeDegrees>40.66087321378290653228759765625</LatitudeDegrees>
              <LongitudeDegrees>-3.34011959843337535858154296875</LongitudeDegrees>
            </Position>
            <AltitudeMeters>761.4000244140625</AltitudeMeters>
            <DistanceMeters>22918.66413699</DistanceMeters>
          </Trackpoint>
          <Trackpoint>
            <Time>2019-07-19T08:39:43.000Z</Time>
            <Position>
              <LatitudeDegrees>40.6614281795918941497802734375</LatitudeDegrees>
              <LongitudeDegrees>-3.3401902578771114349365234375</LongitudeDegrees>
            </Position>
            <AltitudeMeters>762.20001220703125</AltitudeMeters>
            <DistanceMeters>22980.720292207</DistanceMeters>
          </Trackpoint>
          <Trackpoint>
            <Time>2019-07-19T08:39:46.000Z</Time>
            <Position>
              <LatitudeDegrees>40.66160210408270359039306640625</LatitudeDegrees>
              <LongitudeDegrees>-3.34021096117794513702392578125</LongitudeDegrees>
            </Position>
            <AltitudeMeters>762.4000244140625</AltitudeMeters>
            <DistanceMeters>23000.156914293</DistanceMeters>
          </Trackpoint>
          <Trackpoint>
            <Time>2019-07-19T08:39:56.000Z</Time>
            <Position>
              <LatitudeDegrees>40.662174336612224578857421875</LatitudeDegrees>
              <LongitudeDegrees>-3.34028891287744045257568359375</LongitudeDegrees>
            </Position>
            <AltitudeMeters>762</AltitudeMeters>
            <DistanceMeters>23064.18672959</DistanceMeters>
          </Trackpoint>
          <Trackpoint>
            <Time>2019-07-19T08:40:06.000Z</Time>
            <Position>
              <LatitudeDegrees>40.66274925135076045989990234375</LatitudeDegrees>
              <LongitudeDegrees>-3.3403609134256839752197265625</LongitudeDegrees>
            </Position>
            <AltitudeMeters>761.5999755859375</AltitudeMeters>
            <DistanceMeters>23128.463925902</DistanceMeters>
          </Trackpoint>
          <Trackpoint>
            <Time>2019-07-19T08:40:16.000Z</Time>
            <Position>
              <LatitudeDegrees>40.66333631984889507293701171875</LatitudeDegrees>
              <LongitudeDegrees>-3.34043526090681552886962890625</LongitudeDegrees>
            </Position>
            <AltitudeMeters>761.5999755859375</AltitudeMeters>
            <DistanceMeters>23194.106685423</DistanceMeters>
          </Trackpoint>
          <Trackpoint>
            <Time>2019-07-19T08:40:25.000Z</Time>
            <Position>
              <LatitudeDegrees>40.66383470781147480010986328125</LatitudeDegrees>
              <LongitudeDegrees>-3.3406147174537181854248046875</LongitudeDegrees>
            </Position>
            <AltitudeMeters>761.5999755859375</AltitudeMeters>
            <DistanceMeters>23251.610176208</DistanceMeters>
          </Trackpoint>
          <Trackpoint>
            <Time>2019-07-19T08:40:34.000Z</Time>
            <Position>
              <LatitudeDegrees>40.664297975599765777587890625</LatitudeDegrees>
              <LongitudeDegrees>-3.34106373600661754608154296875</LongitudeDegrees>
            </Position>
            <AltitudeMeters>762</AltitudeMeters>
            <DistanceMeters>23315.608816452</DistanceMeters>
          </Trackpoint>
          <Trackpoint>
            <Time>2019-07-19T08:40:38.000Z</Time>
            <Position>
              <LatitudeDegrees>40.6645224429666996002197265625</LatitudeDegrees>
              <LongitudeDegrees>-3.3412908017635345458984375</LongitudeDegrees>
            </Position>
            <AltitudeMeters>761.4000244140625</AltitudeMeters>
            <DistanceMeters>23347.099815088</DistanceMeters>
          </Trackpoint>
          <Trackpoint>
            <Time>2019-07-19T08:40:46.000Z</Time>
            <Position>
              <LatitudeDegrees>40.6649435497820377349853515625</LatitudeDegrees>
              <LongitudeDegrees>-3.34174535237252712249755859375</LongitudeDegrees>
            </Position>
            <AltitudeMeters>760.79998779296875</AltitudeMeters>
            <DistanceMeters>23407.676494631</DistanceMeters>
          </Trackpoint>
          <Trackpoint>
            <Time>2019-07-19T08:40:48.000Z</Time>
            <Position>
              <LatitudeDegrees>40.66504991613328456878662109375</LatitudeDegrees>
              <LongitudeDegrees>-3.34185180254280567169189453125</LongitudeDegrees>
            </Position>
            <AltitudeMeters>760.20001220703125</AltitudeMeters>
            <DistanceMeters>23422.5402038</DistanceMeters>
          </Trackpoint>
          <Trackpoint>
            <Time>2019-07-19T08:40:56.000Z</Time>
            <Position>
              <LatitudeDegrees>40.6654870323836803436279296875</LatitudeDegrees>
              <LongitudeDegrees>-3.34229084663093090057373046875</LongitudeDegrees>
            </Position>
            <AltitudeMeters>759.5999755859375</AltitudeMeters>
            <DistanceMeters>23483.703460327</DistanceMeters>
          </Trackpoint>
          <Trackpoint>
            <Time>2019-07-19T08:41:02.000Z</Time>
            <Position>
              <LatitudeDegrees>40.66579707898199558258056640625</LatitudeDegrees>
              <LongitudeDegrees>-3.3425998874008655548095703125</LongitudeDegrees>
            </Position>
            <AltitudeMeters>761.4000244140625</AltitudeMeters>
            <DistanceMeters>23526.965357002</DistanceMeters>
          </Trackpoint>
          <Trackpoint>
            <Time>2019-07-19T08:41:11.000Z</Time>
            <Position>
              <LatitudeDegrees>40.66625808365643024444580078125</LatitudeDegrees>
              <LongitudeDegrees>-3.34306173026561737060546875</LongitudeDegrees>
            </Position>
            <AltitudeMeters>762</AltitudeMeters>
            <DistanceMeters>23591.409795613</DistanceMeters>
          </Trackpoint>
          <Trackpoint>
            <Time>2019-07-19T08:41:20.000Z</Time>
            <Position>
              <LatitudeDegrees>40.66672914661467075347900390625</LatitudeDegrees>
              <LongitudeDegrees>-3.343542180955410003662109375</LongitudeDegrees>
            </Position>
            <AltitudeMeters>762.20001220703125</AltitudeMeters>
            <DistanceMeters>23657.698472693</DistanceMeters>
          </Trackpoint>
          <Trackpoint>
            <Time>2019-07-19T08:41:28.000Z</Time>
            <Position>
              <LatitudeDegrees>40.66713600419461727142333984375</LatitudeDegrees>
              <LongitudeDegrees>-3.34402061998844146728515625</LongitudeDegrees>
            </Position>
            <AltitudeMeters>760.20001220703125</AltitudeMeters>
            <DistanceMeters>23718.37911286</DistanceMeters>
          </Trackpoint>
          <Trackpoint>
            <Time>2019-07-19T08:41:30.000Z</Time>
            <Position>
              <LatitudeDegrees>40.66722485236823558807373046875</LatitudeDegrees>
              <LongitudeDegrees>-3.34417107515037059783935546875</LongitudeDegrees>
            </Position>
            <AltitudeMeters>758.5999755859375</AltitudeMeters>
            <DistanceMeters>23734.476817781</DistanceMeters>
          </Trackpoint>
          <Trackpoint>
            <Time>2019-07-19T08:41:33.000Z</Time>
            <Position>
              <LatitudeDegrees>40.66735334694385528564453125</LatitudeDegrees>
              <LongitudeDegrees>-3.34441934712231159210205078125</LongitudeDegrees>
            </Position>
            <AltitudeMeters>757.20001220703125</AltitudeMeters>
            <DistanceMeters>23759.851263796</DistanceMeters>
          </Trackpoint>
          <Trackpoint>
            <Time>2019-07-19T08:41:36.000Z</Time>
            <Position>
              <LatitudeDegrees>40.6674581207334995269775390625</LatitudeDegrees>
              <LongitudeDegrees>-3.34470030851662158966064453125</LongitudeDegrees>
            </Position>
            <AltitudeMeters>756.20001220703125</AltitudeMeters>
            <DistanceMeters>23786.282530586</DistanceMeters>
          </Trackpoint>
          <Trackpoint>
            <Time>2019-07-19T08:41:42.000Z</Time>
            <Position>
              <LatitudeDegrees>40.66757052205502986907958984375</LatitudeDegrees>
              <LongitudeDegrees>-3.3453592099249362945556640625</LongitudeDegrees>
            </Position>
            <AltitudeMeters>755</AltitudeMeters>
            <DistanceMeters>23843.29840083</DistanceMeters>
          </Trackpoint>
          <Trackpoint>
            <Time>2019-07-19T08:41:48.000Z</Time>
            <Position>
              <LatitudeDegrees>40.6675630621612071990966796875</LatitudeDegrees>
              <LongitudeDegrees>-3.34611802361905574798583984375</LongitudeDegrees>
            </Position>
            <AltitudeMeters>756.20001220703125</AltitudeMeters>
            <DistanceMeters>23907.365014186</DistanceMeters>
          </Trackpoint>
          <Trackpoint>
            <Time>2019-07-19T08:41:54.000Z</Time>
            <Position>
              <LatitudeDegrees>40.66742702387273311614990234375</LatitudeDegrees>
              <LongitudeDegrees>-3.34691941738128662109375</LongitudeDegrees>
            </Position>
            <AltitudeMeters>754.5999755859375</AltitudeMeters>
            <DistanceMeters>23976.694671117</DistanceMeters>
          </Trackpoint>
          <Trackpoint>
            <Time>2019-07-19T08:41:57.000Z</Time>
            <Position>
              <LatitudeDegrees>40.66734672524034976959228515625</LatitudeDegrees>
              <LongitudeDegrees>-3.347324095666408538818359375</LongitudeDegrees>
            </Position>
            <AltitudeMeters>753.20001220703125</AltitudeMeters>
            <DistanceMeters>24012.00844445</DistanceMeters>
          </Trackpoint>
          <Trackpoint>
            <Time>2019-07-19T08:42:00.000Z</Time>
            <Position>
              <LatitudeDegrees>40.6672770716249942779541015625</LatitudeDegrees>
              <LongitudeDegrees>-3.3477302826941013336181640625</LongitudeDegrees>
            </Position>
            <AltitudeMeters>752</AltitudeMeters>
            <DistanceMeters>24047.165503535</DistanceMeters>
          </Trackpoint>
          <Trackpoint>
            <Time>2019-07-19T08:42:03.000Z</Time>
            <Position>
              <LatitudeDegrees>40.66722862422466278076171875</LatitudeDegrees>
              <LongitudeDegrees>-3.3481456898152828216552734375</LongitudeDegrees>
            </Position>
            <AltitudeMeters>750.79998779296875</AltitudeMeters>
            <DistanceMeters>24082.647516694</DistanceMeters>
          </Trackpoint>
          <Trackpoint>
            <Time>2019-07-19T08:42:07.000Z</Time>
            <Position>
              <LatitudeDegrees>40.66721253097057342529296875</LatitudeDegrees>
              <LongitudeDegrees>-3.3486814610660076141357421875</LongitudeDegrees>
            </Position>
            <AltitudeMeters>749.5999755859375</AltitudeMeters>
            <DistanceMeters>24127.914457352</DistanceMeters>
          </Trackpoint>
          <Trackpoint>
            <Time>2019-07-19T08:42:08.000Z</Time>
            <Position>
              <LatitudeDegrees>40.6672153808176517486572265625</LatitudeDegrees>
              <LongitudeDegrees>-3.34880978800356388092041015625</LongitudeDegrees>
            </Position>
            <AltitudeMeters>748.4000244140625</AltitudeMeters>
            <DistanceMeters>24138.752919626</DistanceMeters>
          </Trackpoint>
          <Trackpoint>
            <Time>2019-07-19T08:42:09.000Z</Time>
            <Position>
              <LatitudeDegrees>40.667221583425998687744140625</LatitudeDegrees>
              <LongitudeDegrees>-3.34893442690372467041015625</LongitudeDegrees>
            </Position>
            <AltitudeMeters>746.79998779296875</AltitudeMeters>
            <DistanceMeters>24149.297888158</DistanceMeters>
          </Trackpoint>
          <Trackpoint>
            <Time>2019-07-19T08:42:10.000Z</Time>
            <Position>
              <LatitudeDegrees>40.66723055206239223480224609375</LatitudeDegrees>
              <LongitudeDegrees>-3.34905923344194889068603515625</LongitudeDegrees>
            </Position>
            <AltitudeMeters>745.5999755859375</AltitudeMeters>
            <DistanceMeters>24159.881321826</DistanceMeters>
          </Trackpoint>
          <Trackpoint>
            <Time>2019-07-19T08:42:12.000Z</Time>
            <Position>
              <LatitudeDegrees>40.66725217737257480621337890625</LatitudeDegrees>
              <LongitudeDegrees>-3.34930717013776302337646484375</LongitudeDegrees>
            </Position>
            <AltitudeMeters>744.4000244140625</AltitudeMeters>
            <DistanceMeters>24180.951125293</DistanceMeters>
          </Trackpoint>
          <Trackpoint>
            <Time>2019-07-19T08:42:18.000Z</Time>
            <Position>
              <LatitudeDegrees>40.6673773191869258880615234375</LatitudeDegrees>
              <LongitudeDegrees>-3.350012339651584625244140625</LongitudeDegrees>
            </Position>
            <AltitudeMeters>744</AltitudeMeters>
            <DistanceMeters>24242.091493506</DistanceMeters>
          </Trackpoint>
          <Trackpoint>
            <Time>2019-07-19T08:42:19.000Z</Time>
            <Position>
              <LatitudeDegrees>40.667401291429996490478515625</LatitudeDegrees>
              <LongitudeDegrees>-3.35012189112603664398193359375</LongitudeDegrees>
            </Position>
            <AltitudeMeters>743.20001220703125</AltitudeMeters>
            <DistanceMeters>24251.717845072</DistanceMeters>
          </Trackpoint>
          <Trackpoint>
            <Time>2019-07-19T08:42:21.000Z</Time>
            <Position>
              <LatitudeDegrees>40.66745518706738948822021484375</LatitudeDegrees>
              <LongitudeDegrees>-3.35033562965691089630126953125</LongitudeDegrees>
            </Position>
            <AltitudeMeters>742.20001220703125</AltitudeMeters>
            <DistanceMeters>24270.733638011</DistanceMeters>
          </Trackpoint>
          <Trackpoint>
            <Time>2019-07-19T08:42:28.000Z</Time>
            <Position>
              <LatitudeDegrees>40.66767881624400615692138671875</LatitudeDegrees>
              <LongitudeDegrees>-3.3510521985590457916259765625</LongitudeDegrees>
            </Position>
            <AltitudeMeters>742</AltitudeMeters>
            <DistanceMeters>24336.148885203</DistanceMeters>
          </Trackpoint>
          <Trackpoint>
            <Time>2019-07-19T08:42:36.000Z</Time>
            <Position>
              <LatitudeDegrees>40.66795106045901775360107421875</LatitudeDegrees>
              <LongitudeDegrees>-3.351743035018444061279296875</LongitudeDegrees>
            </Position>
            <AltitudeMeters>742.20001220703125</AltitudeMeters>
            <DistanceMeters>24401.872963424</DistanceMeters>
          </Trackpoint>
          <Trackpoint>
            <Time>2019-07-19T08:42:41.000Z</Time>
            <Position>
              <LatitudeDegrees>40.66811501048505306243896484375</LatitudeDegrees>
              <LongitudeDegrees>-3.35209884680807590484619140625</LongitudeDegrees>
            </Position>
            <AltitudeMeters>743.20001220703125</AltitudeMeters>
            <DistanceMeters>24437.019875485</DistanceMeters>
          </Trackpoint>
          <Trackpoint>
            <Time>2019-07-19T08:42:47.000Z</Time>
            <Position>
              <LatitudeDegrees>40.6682969816029071807861328125</LatitudeDegrees>
              <LongitudeDegrees>-3.35246899165213108062744140625</LongitudeDegrees>
            </Position>
            <AltitudeMeters>744.5999755859375</AltitudeMeters>
            <DistanceMeters>24474.257982297</DistanceMeters>
          </Trackpoint>
          <Trackpoint>
            <Time>2019-07-19T08:42:48.000Z</Time>
            <Position>
              <LatitudeDegrees>40.66832656972110271453857421875</LatitudeDegrees>
              <LongitudeDegrees>-3.3525227196514606475830078125</LongitudeDegrees>
            </Position>
            <AltitudeMeters>745.20001220703125</AltitudeMeters>
            <DistanceMeters>24479.86214199</DistanceMeters>
          </Trackpoint>
          <Trackpoint>
            <Time>2019-07-19T08:42:50.000Z</Time>
            <Position>
              <LatitudeDegrees>40.6684042699635028839111328125</LatitudeDegrees>
              <LongitudeDegrees>-3.35260192863643169403076171875</LongitudeDegrees>
            </Position>
            <AltitudeMeters>746</AltitudeMeters>
            <DistanceMeters>24490.793931947</DistanceMeters>
          </Trackpoint>
          <Trackpoint>
            <Time>2019-07-19T08:42:52.000Z</Time>
            <Position>
              <LatitudeDegrees>40.66849705763161182403564453125</LatitudeDegrees>
              <LongitudeDegrees>-3.3526430837810039520263671875</LongitudeDegrees>
            </Position>
            <AltitudeMeters>746.4000244140625</AltitudeMeters>
            <DistanceMeters>24501.690144366</DistanceMeters>
          </Trackpoint>
          <Trackpoint>
            <Time>2019-07-19T08:42:54.000Z</Time>
            <Position>
              <LatitudeDegrees>40.668589510023593902587890625</LatitudeDegrees>
              <LongitudeDegrees>-3.35263763554394245147705078125</LongitudeDegrees>
            </Position>
            <AltitudeMeters>746.79998779296875</AltitudeMeters>
            <DistanceMeters>24511.990794745</DistanceMeters>
          </Trackpoint>
          <Trackpoint>
            <Time>2019-07-19T08:42:55.000Z</Time>
            <Position>
              <LatitudeDegrees>40.66863452084362506866455078125</LatitudeDegrees>
              <LongitudeDegrees>-3.3526177704334259033203125</LongitudeDegrees>
            </Position>
            <AltitudeMeters>747</AltitudeMeters>
            <DistanceMeters>24517.273117739</DistanceMeters>
          </Trackpoint>
          <Trackpoint>
            <Time>2019-07-19T08:42:56.000Z</Time>
            <Position>
              <LatitudeDegrees>40.668682716786861419677734375</LatitudeDegrees>
              <LongitudeDegrees>-3.35258952341973781585693359375</LongitudeDegrees>
            </Position>
            <AltitudeMeters>747.20001220703125</AltitudeMeters>
            <DistanceMeters>24523.144046267</DistanceMeters>
          </Trackpoint>
          <Trackpoint>
            <Time>2019-07-19T08:42:59.000Z</Time>
            <Position>
              <LatitudeDegrees>40.66881741397082805633544921875</LatitudeDegrees>
              <LongitudeDegrees>-3.35247972048819065093994140625</LongitudeDegrees>
            </Position>
            <AltitudeMeters>748</AltitudeMeters>
            <DistanceMeters>24540.770413168</DistanceMeters>
          </Trackpoint>
          <Trackpoint>
            <Time>2019-07-19T08:43:10.000Z</Time>
            <Position>
              <LatitudeDegrees>40.6692900694906711578369140625</LatitudeDegrees>
              <LongitudeDegrees>-3.35208007134497165679931640625</LongitudeDegrees>
            </Position>
            <AltitudeMeters>748.20001220703125</AltitudeMeters>
            <DistanceMeters>24603.267294971</DistanceMeters>
          </Trackpoint>
          <Trackpoint>
            <Time>2019-07-19T08:43:14.000Z</Time>
            <Position>
              <LatitudeDegrees>40.6694568693637847900390625</LatitudeDegrees>
              <LongitudeDegrees>-3.351940847933292388916015625</LongitudeDegrees>
            </Position>
            <AltitudeMeters>749.20001220703125</AltitudeMeters>
            <DistanceMeters>24625.240257839</DistanceMeters>
          </Trackpoint>
          <Trackpoint>
            <Time>2019-07-19T08:43:20.000Z</Time>
            <Position>
              <LatitudeDegrees>40.6697155348956584930419921875</LatitudeDegrees>
              <LongitudeDegrees>-3.35172233171761035919189453125</LongitudeDegrees>
            </Position>
            <AltitudeMeters>750.20001220703125</AltitudeMeters>
            <DistanceMeters>24659.433241294</DistanceMeters>
          </Trackpoint>
          <Trackpoint>
            <Time>2019-07-19T08:43:31.000Z</Time>
            <Position>
              <LatitudeDegrees>40.67020344547927379608154296875</LatitudeDegrees>
              <LongitudeDegrees>-3.35131865926086902618408203125</LongitudeDegrees>
            </Position>
            <AltitudeMeters>751.20001220703125</AltitudeMeters>
            <DistanceMeters>24723.545505615</DistanceMeters>
          </Trackpoint>
          <Trackpoint>
            <Time>2019-07-19T08:43:32.000Z</Time>
            <Position>
              <LatitudeDegrees>40.67024602554738521575927734375</LatitudeDegrees>
              <LongitudeDegrees>-3.351280353963375091552734375</LongitudeDegrees>
            </Position>
            <AltitudeMeters>751.20001220703125</AltitudeMeters>
            <DistanceMeters>24729.281845786</DistanceMeters>
          </Trackpoint>
          <Trackpoint>
            <Time>2019-07-19T08:43:41.000Z</Time>
            <Position>
              <LatitudeDegrees>40.6706573255360126495361328125</LatitudeDegrees>
              <LongitudeDegrees>-3.350918255746364593505859375</LongitudeDegrees>
            </Position>
            <AltitudeMeters>752.4000244140625</AltitudeMeters>
            <DistanceMeters>24784.327992528</DistanceMeters>
          </Trackpoint>
          <Trackpoint>
            <Time>2019-07-19T08:43:51.000Z</Time>
            <Position>
              <LatitudeDegrees>40.671139620244503021240234375</LatitudeDegrees>
              <LongitudeDegrees>-3.35046420805156230926513671875</LongitudeDegrees>
            </Position>
            <AltitudeMeters>752.20001220703125</AltitudeMeters>
            <DistanceMeters>24850.288443796</DistanceMeters>
          </Trackpoint>
          <Trackpoint>
            <Time>2019-07-19T08:44:00.000Z</Time>
            <Position>
              <LatitudeDegrees>40.67158545367419719696044921875</LatitudeDegrees>
              <LongitudeDegrees>-3.34991888143122196197509765625</LongitudeDegrees>
            </Position>
            <AltitudeMeters>751</AltitudeMeters>
            <DistanceMeters>24917.97615321</DistanceMeters>
          </Trackpoint>
          <Trackpoint>
            <Time>2019-07-19T08:44:04.000Z</Time>
            <Position>
              <LatitudeDegrees>40.67179181613028049468994140625</LatitudeDegrees>
              <LongitudeDegrees>-3.34965535439550876617431640625</LongitudeDegrees>
            </Position>
            <AltitudeMeters>750</AltitudeMeters>
            <DistanceMeters>24949.952042496</DistanceMeters>
          </Trackpoint>
          <Trackpoint>
            <Time>2019-07-19T08:44:12.000Z</Time>
            <Position>
              <LatitudeDegrees>40.67219649441540241241455078125</LatitudeDegrees>
              <LongitudeDegrees>-3.3491518534719944000244140625</LongitudeDegrees>
            </Position>
            <AltitudeMeters>749.4000244140625</AltitudeMeters>
            <DistanceMeters>25011.882199673</DistanceMeters>
          </Trackpoint>
          <Trackpoint>
            <Time>2019-07-19T08:44:20.000Z</Time>
            <Position>
              <LatitudeDegrees>40.6725858338177204132080078125</LatitudeDegrees>
              <LongitudeDegrees>-3.3486588299274444580078125</LongitudeDegrees>
            </Position>
            <AltitudeMeters>749.5999755859375</AltitudeMeters>
            <DistanceMeters>25071.965841048</DistanceMeters>
          </Trackpoint>
          <Trackpoint>
            <Time>2019-07-19T08:44:29.000Z</Time>
            <Position>
              <LatitudeDegrees>40.6730129756033420562744140625</LatitudeDegrees>
              <LongitudeDegrees>-3.34817142225801944732666015625</LongitudeDegrees>
            </Position>
            <AltitudeMeters>749.4000244140625</AltitudeMeters>
            <DistanceMeters>25134.839927485</DistanceMeters>
          </Trackpoint>
          <Trackpoint>
            <Time>2019-07-19T08:44:38.000Z</Time>
            <Position>
              <LatitudeDegrees>40.6735366769134998321533203125</LatitudeDegrees>
              <LongitudeDegrees>-3.34799238480627536773681640625</LongitudeDegrees>
            </Position>
            <AltitudeMeters>750.20001220703125</AltitudeMeters>
            <DistanceMeters>25195.056505154</DistanceMeters>
          </Trackpoint>
          <Trackpoint>
            <Time>2019-07-19T08:44:48.000Z</Time>
            <Position>
              <LatitudeDegrees>40.6741039641201496124267578125</LatitudeDegrees>
              <LongitudeDegrees>-3.3479411713778972625732421875</LongitudeDegrees>
            </Position>
            <AltitudeMeters>750.79998779296875</AltitudeMeters>
            <DistanceMeters>25258.34458229</DistanceMeters>
          </Trackpoint>
          <Trackpoint>
            <Time>2019-07-19T08:44:59.000Z</Time>
            <Position>
              <LatitudeDegrees>40.67468591965734958648681640625</LatitudeDegrees>
              <LongitudeDegrees>-3.34787101484835147857666015625</LongitudeDegrees>
            </Position>
            <AltitudeMeters>750.4000244140625</AltitudeMeters>
            <DistanceMeters>25323.387574334</DistanceMeters>
          </Trackpoint>
          <Trackpoint>
            <Time>2019-07-19T08:45:10.000Z</Time>
            <Position>
              <LatitudeDegrees>40.67521984688937664031982421875</LatitudeDegrees>
              <LongitudeDegrees>-3.34781066514551639556884765625</LongitudeDegrees>
            </Position>
            <AltitudeMeters>751.20001220703125</AltitudeMeters>
            <DistanceMeters>25383.032717442</DistanceMeters>
          </Trackpoint>
          <Trackpoint>
            <Time>2019-07-19T08:45:22.000Z</Time>
            <Position>
              <LatitudeDegrees>40.675771124660968780517578125</LatitudeDegrees>
              <LongitudeDegrees>-3.3477436937391757965087890625</LongitudeDegrees>
            </Position>
            <AltitudeMeters>751.79998779296875</AltitudeMeters>
            <DistanceMeters>25444.65092905</DistanceMeters>
          </Trackpoint>
          <Trackpoint>
            <Time>2019-07-19T08:45:33.000Z</Time>
            <Position>
              <LatitudeDegrees>40.67631100304424762725830078125</LatitudeDegrees>
              <LongitudeDegrees>-3.347688876092433929443359375</LongitudeDegrees>
            </Position>
            <AltitudeMeters>751.4000244140625</AltitudeMeters>
            <DistanceMeters>25504.918396626</DistanceMeters>
          </Trackpoint>
          <Trackpoint>
            <Time>2019-07-19T08:45:44.000Z</Time>
            <Position>
              <LatitudeDegrees>40.67688549868762493133544921875</LatitudeDegrees>
              <LongitudeDegrees>-3.3475961722433567047119140625</LongitudeDegrees>
            </Position>
            <AltitudeMeters>751.5999755859375</AltitudeMeters>
            <DistanceMeters>25569.337888713</DistanceMeters>
          </Trackpoint>
          <Trackpoint>
            <Time>2019-07-19T08:45:53.000Z</Time>
            <Position>
              <LatitudeDegrees>40.677361004054546356201171875</LatitudeDegrees>
              <LongitudeDegrees>-3.347564823925495147705078125</LongitudeDegrees>
            </Position>
            <AltitudeMeters>752.20001220703125</AltitudeMeters>
            <DistanceMeters>25622.328554223</DistanceMeters>
          </Trackpoint>
          <Trackpoint>
            <Time>2019-07-19T08:46:04.000Z</Time>
            <Position>
              <LatitudeDegrees>40.67793558351695537567138671875</LatitudeDegrees>
              <LongitudeDegrees>-3.34756624884903430938720703125</LongitudeDegrees>
            </Position>
            <AltitudeMeters>752.79998779296875</AltitudeMeters>
            <DistanceMeters>25686.280544596</DistanceMeters>
          </Trackpoint>
          <Trackpoint>
            <Time>2019-07-19T08:46:15.000Z</Time>
            <Position>
              <LatitudeDegrees>40.67850505001842975616455078125</LatitudeDegrees>
              <LongitudeDegrees>-3.34757429547607898712158203125</LongitudeDegrees>
            </Position>
            <AltitudeMeters>753</AltitudeMeters>
            <DistanceMeters>25749.666853471</DistanceMeters>
          </Trackpoint>
          <Trackpoint>
            <Time>2019-07-19T08:46:17.000Z</Time>
            <Position>
              <LatitudeDegrees>40.67860814742743968963623046875</LatitudeDegrees>
              <LongitudeDegrees>-3.34757932461798191070556640625</LongitudeDegrees>
            </Position>
            <AltitudeMeters>753.4000244140625</AltitudeMeters>
            <DistanceMeters>25761.149368272</DistanceMeters>
          </Trackpoint>
          <Trackpoint>
            <Time>2019-07-19T08:46:28.000Z</Time>
            <Position>
              <LatitudeDegrees>40.67918046377599239349365234375</LatitudeDegrees>
              <LongitudeDegrees>-3.34760229103267192840576171875</LongitudeDegrees>
            </Position>
            <AltitudeMeters>754</AltitudeMeters>
            <DistanceMeters>25824.878791791</DistanceMeters>
          </Trackpoint>
          <Trackpoint>
            <Time>2019-07-19T08:46:34.000Z</Time>
            <Position>
              <LatitudeDegrees>40.67949579097330570220947265625</LatitudeDegrees>
              <LongitudeDegrees>-3.34761167876422405242919921875</LongitudeDegrees>
            </Position>
            <AltitudeMeters>754.4000244140625</AltitudeMeters>
            <DistanceMeters>25859.984186146</DistanceMeters>
          </Trackpoint>
          <Trackpoint>
            <Time>2019-07-19T08:46:43.000Z</Time>
            <Position>
              <LatitudeDegrees>40.67995377816259860992431640625</LatitudeDegrees>
              <LongitudeDegrees>-3.34761586971580982208251953125</LongitudeDegrees>
            </Position>
            <AltitudeMeters>755.5999755859375</AltitudeMeters>
            <DistanceMeters>25910.960327998</DistanceMeters>
          </Trackpoint>
          <Trackpoint>
            <Time>2019-07-19T08:46:50.000Z</Time>
            <Position>
              <LatitudeDegrees>40.680301375687122344970703125</LatitudeDegrees>
              <LongitudeDegrees>-3.3475784026086330413818359375</LongitudeDegrees>
            </Position>
            <AltitudeMeters>756.5999755859375</AltitudeMeters>
            <DistanceMeters>25949.777781234</DistanceMeters>
          </Trackpoint>
          <Trackpoint>
            <Time>2019-07-19T08:46:52.000Z</Time>
            <Position>
              <LatitudeDegrees>40.6804007850587368011474609375</LatitudeDegrees>
              <LongitudeDegrees>-3.34753925912082195281982421875</LongitudeDegrees>
            </Position>
            <AltitudeMeters>756.79998779296875</AltitudeMeters>
            <DistanceMeters>25961.324993399</DistanceMeters>
          </Trackpoint>
          <Trackpoint>
            <Time>2019-07-19T08:46:54.000Z</Time>
            <Position>
              <LatitudeDegrees>40.68049659021198749542236328125</LatitudeDegrees>
              <LongitudeDegrees>-3.347483687102794647216796875</LongitudeDegrees>
            </Position>
            <AltitudeMeters>756.79998779296875</AltitudeMeters>
            <DistanceMeters>25972.97497404</DistanceMeters>
          </Trackpoint>
          <Trackpoint>
            <Time>2019-07-19T08:47:04.000Z</Time>
            <Position>
              <LatitudeDegrees>40.68099866621196269989013671875</LatitudeDegrees>
              <LongitudeDegrees>-3.34714279510080814361572265625</LongitudeDegrees>
            </Position>
            <AltitudeMeters>756.20001220703125</AltitudeMeters>
            <DistanceMeters>26035.829668572</DistanceMeters>
          </Trackpoint>
          <Trackpoint>
            <Time>2019-07-19T08:47:14.000Z</Time>
            <Position>
              <LatitudeDegrees>40.6815045140683650970458984375</LatitudeDegrees>
              <LongitudeDegrees>-3.34681682288646697998046875</LongitudeDegrees>
            </Position>
            <AltitudeMeters>757.5999755859375</AltitudeMeters>
            <DistanceMeters>26098.494725368</DistanceMeters>
          </Trackpoint>
          <Trackpoint>
            <Time>2019-07-19T08:47:24.000Z</Time>
            <Position>
              <LatitudeDegrees>40.682012625038623809814453125</LatitudeDegrees>
              <LongitudeDegrees>-3.3464830555021762847900390625</LongitudeDegrees>
            </Position>
            <AltitudeMeters>757.79998779296875</AltitudeMeters>
            <DistanceMeters>26161.676843678</DistanceMeters>
          </Trackpoint>
          <Trackpoint>
            <Time>2019-07-19T08:47:34.000Z</Time>
            <Position>
              <LatitudeDegrees>40.6825012899935245513916015625</LatitudeDegrees>
              <LongitudeDegrees>-3.3461456000804901123046875</LongitudeDegrees>
            </Position>
            <AltitudeMeters>757.20001220703125</AltitudeMeters>
            <DistanceMeters>26223.072926537</DistanceMeters>
          </Trackpoint>
          <Trackpoint>
            <Time>2019-07-19T08:47:44.000Z</Time>
            <Position>
              <LatitudeDegrees>40.6829887814819812774658203125</LatitudeDegrees>
              <LongitudeDegrees>-3.3457997627556324005126953125</LongitudeDegrees>
            </Position>
            <AltitudeMeters>758.4000244140625</AltitudeMeters>
            <DistanceMeters>26284.685129351</DistanceMeters>
          </Trackpoint>
          <Trackpoint>
            <Time>2019-07-19T08:47:48.000Z</Time>
            <Position>
              <LatitudeDegrees>40.68318081088364124298095703125</LatitudeDegrees>
              <LongitudeDegrees>-3.34566749632358551025390625</LongitudeDegrees>
            </Position>
            <AltitudeMeters>758.5999755859375</AltitudeMeters>
            <DistanceMeters>26308.798333663</DistanceMeters>
          </Trackpoint>
          <Trackpoint>
            <Time>2019-07-19T08:47:53.000Z</Time>
            <Position>
              <LatitudeDegrees>40.68342673592269420623779296875</LatitudeDegrees>
              <LongitudeDegrees>-3.34550295956432819366455078125</LongitudeDegrees>
            </Position>
            <AltitudeMeters>759.5999755859375</AltitudeMeters>
            <DistanceMeters>26339.491815304</DistanceMeters>
          </Trackpoint>
          <Trackpoint>
            <Time>2019-07-19T08:48:02.000Z</Time>
            <Position>
              <LatitudeDegrees>40.68390525877475738525390625</LatitudeDegrees>
              <LongitudeDegrees>-3.3451670967042446136474609375</LongitudeDegrees>
            </Position>
            <AltitudeMeters>758.5999755859375</AltitudeMeters>
            <DistanceMeters>26399.826520547</DistanceMeters>
          </Trackpoint>
          <Trackpoint>
            <Time>2019-07-19T08:48:06.000Z</Time>
            <Position>
              <LatitudeDegrees>40.68411002866923809051513671875</LatitudeDegrees>
              <LongitudeDegrees>-3.34503038786351680755615234375</LongitudeDegrees>
            </Position>
            <AltitudeMeters>758.5999755859375</AltitudeMeters>
            <DistanceMeters>26425.37227488</DistanceMeters>
          </Trackpoint>
          <Trackpoint>
            <Time>2019-07-19T08:48:16.000Z</Time>
            <Position>
              <LatitudeDegrees>40.684596933424472808837890625</LatitudeDegrees>
              <LongitudeDegrees>-3.3446873165667057037353515625</LongitudeDegrees>
            </Position>
            <AltitudeMeters>759.20001220703125</AltitudeMeters>
            <DistanceMeters>26486.816360278</DistanceMeters>
          </Trackpoint>
          <Trackpoint>
            <Time>2019-07-19T08:48:25.000Z</Time>
            <Position>
              <LatitudeDegrees>40.68506154231727123260498046875</LatitudeDegrees>
              <LongitudeDegrees>-3.3445783518254756927490234375</LongitudeDegrees>
            </Position>
            <AltitudeMeters>759.5999755859375</AltitudeMeters>
            <DistanceMeters>26539.339749485</DistanceMeters>
          </Trackpoint>
          <Trackpoint>
            <Time>2019-07-19T08:48:31.000Z</Time>
            <Position>
              <LatitudeDegrees>40.68538256920874118804931640625</LatitudeDegrees>
              <LongitudeDegrees>-3.34457742981612682342529296875</LongitudeDegrees>
            </Position>
            <AltitudeMeters>760.5999755859375</AltitudeMeters>
            <DistanceMeters>26575.070804997</DistanceMeters>
          </Trackpoint>
          <Trackpoint>
            <Time>2019-07-19T08:48:41.000Z</Time>
            <Position>
              <LatitudeDegrees>40.6858865730464458465576171875</LatitudeDegrees>
              <LongitudeDegrees>-3.34459452889859676361083984375</LongitudeDegrees>
            </Position>
            <AltitudeMeters>761.79998779296875</AltitudeMeters>
            <DistanceMeters>26631.185990794</DistanceMeters>
          </Trackpoint>
          <Trackpoint>
            <Time>2019-07-19T08:48:52.000Z</Time>
            <Position>
              <LatitudeDegrees>40.68646148778498172760009765625</LatitudeDegrees>
              <LongitudeDegrees>-3.3446008153259754180908203125</LongitudeDegrees>
            </Position>
            <AltitudeMeters>762.79998779296875</AltitudeMeters>
            <DistanceMeters>26695.177364082</DistanceMeters>
          </Trackpoint>
          <Trackpoint>
            <Time>2019-07-19T08:48:56.000Z</Time>
            <Position>
              <LatitudeDegrees>40.6866686046123504638671875</LatitudeDegrees>
              <LongitudeDegrees>-3.34460726939141750335693359375</LongitudeDegrees>
            </Position>
            <AltitudeMeters>762.79998779296875</AltitudeMeters>
            <DistanceMeters>26718.236179342</DistanceMeters>
          </Trackpoint>
          <Trackpoint>
            <Time>2019-07-19T08:49:07.000Z</Time>
            <Position>
              <LatitudeDegrees>40.687230862677097320556640625</LatitudeDegrees>
              <LongitudeDegrees>-3.34460911341011524200439453125</LongitudeDegrees>
            </Position>
            <AltitudeMeters>763.5999755859375</AltitudeMeters>
            <DistanceMeters>26780.816880471</DistanceMeters>
          </Trackpoint>
          <Trackpoint>
            <Time>2019-07-19T08:49:15.000Z</Time>
            <Position>
              <LatitudeDegrees>40.6876288354396820068359375</LatitudeDegrees>
              <LongitudeDegrees>-3.3446152321994304656982421875</LongitudeDegrees>
            </Position>
            <AltitudeMeters>763.79998779296875</AltitudeMeters>
            <DistanceMeters>26825.115130347</DistanceMeters>
          </Trackpoint>
          <Trackpoint>
            <Time>2019-07-19T08:49:21.000Z</Time>
            <Position>
              <LatitudeDegrees>40.68791742436587810516357421875</LatitudeDegrees>
              <LongitudeDegrees>-3.3446199260652065277099609375</LongitudeDegrees>
            </Position>
            <AltitudeMeters>765</AltitudeMeters>
            <DistanceMeters>26857.238095581</DistanceMeters>
          </Trackpoint>
          <Trackpoint>
            <Time>2019-07-19T08:49:28.000Z</Time>
            <Position>
              <LatitudeDegrees>40.68823895417153835296630859375</LatitudeDegrees>
              <LongitudeDegrees>-3.344611041247844696044921875</LongitudeDegrees>
            </Position>
            <AltitudeMeters>766</AltitudeMeters>
            <DistanceMeters>26893.032654615</DistanceMeters>
          </Trackpoint>
          <Trackpoint>
            <Time>2019-07-19T08:49:34.000Z</Time>
            <Position>
              <LatitudeDegrees>40.688495524227619171142578125</LatitudeDegrees>
              <LongitudeDegrees>-3.34460609592497348785400390625</LongitudeDegrees>
            </Position>
            <AltitudeMeters>767.20001220703125</AltitudeMeters>
            <DistanceMeters>26921.592569619</DistanceMeters>
          </Trackpoint>
          <Trackpoint>
            <Time>2019-07-19T08:49:40.000Z</Time>
            <Position>
              <LatitudeDegrees>40.6887508369982242584228515625</LatitudeDegrees>
              <LongitudeDegrees>-3.3445800282061100006103515625</LongitudeDegrees>
            </Position>
            <AltitudeMeters>768.20001220703125</AltitudeMeters>
            <DistanceMeters>26950.094248111</DistanceMeters>
          </Trackpoint>
          <Trackpoint>
            <Time>2019-07-19T08:49:50.000Z</Time>
            <Position>
              <LatitudeDegrees>40.68917311728000640869140625</LatitudeDegrees>
              <LongitudeDegrees>-3.344400487840175628662109375</LongitudeDegrees>
            </Position>
            <AltitudeMeters>769.4000244140625</AltitudeMeters>
            <DistanceMeters>26999.477063386</DistanceMeters>
          </Trackpoint>
          <Trackpoint>
            <Time>2019-07-19T08:50:04.000Z</Time>
            <Position>
              <LatitudeDegrees>40.68969472311437129974365234375</LatitudeDegrees>
              <LongitudeDegrees>-3.344077281653881072998046875</LongitudeDegrees>
            </Position>
            <AltitudeMeters>770</AltitudeMeters>
            <DistanceMeters>27063.621573762</DistanceMeters>
          </Trackpoint>
          <Trackpoint>
            <Time>2019-07-19T08:50:17.000Z</Time>
            <Position>
              <LatitudeDegrees>40.69017483852803707122802734375</LatitudeDegrees>
              <LongitudeDegrees>-3.3437445200979709625244140625</LongitudeDegrees>
            </Position>
            <AltitudeMeters>770.4000244140625</AltitudeMeters>
            <DistanceMeters>27123.989346212</DistanceMeters>
          </Trackpoint>
          <Trackpoint>
            <Time>2019-07-19T08:50:18.000Z</Time>
            <Position>
              <LatitudeDegrees>40.69021238945424556732177734375</LatitudeDegrees>
              <LongitudeDegrees>-3.34372163750231266021728515625</LongitudeDegrees>
            </Position>
            <AltitudeMeters>770.4000244140625</AltitudeMeters>
            <DistanceMeters>27128.592995787</DistanceMeters>
          </Trackpoint>
          <Trackpoint>
            <Time>2019-07-19T08:50:19.000Z</Time>
            <Position>
              <LatitudeDegrees>40.69025279022753238677978515625</LatitudeDegrees>
              <LongitudeDegrees>-3.343701101839542388916015625</LongitudeDegrees>
            </Position>
            <AltitudeMeters>770.5999755859375</AltitudeMeters>
            <DistanceMeters>27133.413201871</DistanceMeters>
          </Trackpoint>
          <Trackpoint>
            <Time>2019-07-19T08:50:24.000Z</Time>
            <Position>
              <LatitudeDegrees>40.6904657743871212005615234375</LatitudeDegrees>
              <LongitudeDegrees>-3.3435869403183460235595703125</LongitudeDegrees>
            </Position>
            <AltitudeMeters>771.79998779296875</AltitudeMeters>
            <DistanceMeters>27159.001868758</DistanceMeters>
          </Trackpoint>
          <Trackpoint>
            <Time>2019-07-19T08:50:27.000Z</Time>
            <Position>
              <LatitudeDegrees>40.69061455316841602325439453125</LatitudeDegrees>
              <LongitudeDegrees>-3.34351594559848308563232421875</LongitudeDegrees>
            </Position>
            <AltitudeMeters>772</AltitudeMeters>
            <DistanceMeters>27176.612090656</DistanceMeters>
          </Trackpoint>
          <Trackpoint>
            <Time>2019-07-19T08:50:31.000Z</Time>
            <Position>
              <LatitudeDegrees>40.6907923333346843719482421875</LatitudeDegrees>
              <LongitudeDegrees>-3.3434119261801242828369140625</LongitudeDegrees>
            </Position>
            <AltitudeMeters>771.79998779296875</AltitudeMeters>
            <DistanceMeters>27198.259418135</DistanceMeters>
          </Trackpoint>
          <Trackpoint>
            <Time>2019-07-19T08:50:41.000Z</Time>
            <Position>
              <LatitudeDegrees>40.69122190587222576141357421875</LatitudeDegrees>
              <LongitudeDegrees>-3.34314219653606414794921875</LongitudeDegrees>
            </Position>
            <AltitudeMeters>771.20001220703125</AltitudeMeters>
            <DistanceMeters>27251.213944653</DistanceMeters>
          </Trackpoint>
          <Trackpoint>
            <Time>2019-07-19T08:50:46.000Z</Time>
            <Position>
              <LatitudeDegrees>40.69140471518039703369140625</LatitudeDegrees>
              <LongitudeDegrees>-3.34300045855343341827392578125</LongitudeDegrees>
            </Position>
            <AltitudeMeters>771.4000244140625</AltitudeMeters>
            <DistanceMeters>27274.816560525</DistanceMeters>
          </Trackpoint>
          <Trackpoint>
            <Time>2019-07-19T08:50:51.000Z</Time>
            <Position>
              <LatitudeDegrees>40.69156941957771778106689453125</LatitudeDegrees>
              <LongitudeDegrees>-3.3428446389734745025634765625</LongitudeDegrees>
            </Position>
            <AltitudeMeters>772.5999755859375</AltitudeMeters>
            <DistanceMeters>27297.377151359</DistanceMeters>
          </Trackpoint>
          <Trackpoint>
            <Time>2019-07-19T08:51:06.000Z</Time>
            <Position>
              <LatitudeDegrees>40.69200125522911548614501953125</LatitudeDegrees>
              <LongitudeDegrees>-3.34238053299486637115478515625</LongitudeDegrees>
            </Position>
            <AltitudeMeters>772.20001220703125</AltitudeMeters>
            <DistanceMeters>27359.378860231</DistanceMeters>
          </Trackpoint>
          <Trackpoint>
            <Time>2019-07-19T08:51:10.000Z</Time>
            <Position>
              <LatitudeDegrees>40.69211675785481929779052734375</LatitudeDegrees>
              <LongitudeDegrees>-3.342254720628261566162109375</LongitudeDegrees>
            </Position>
            <AltitudeMeters>772.79998779296875</AltitudeMeters>
            <DistanceMeters>27376.052190235</DistanceMeters>
          </Trackpoint>
          <Trackpoint>
            <Time>2019-07-19T08:51:25.000Z</Time>
            <Position>
              <LatitudeDegrees>40.69251380860805511474609375</LatitudeDegrees>
              <LongitudeDegrees>-3.34174585528671741485595703125</LongitudeDegrees>
            </Position>
            <AltitudeMeters>773.79998779296875</AltitudeMeters>
            <DistanceMeters>27437.67333275</DistanceMeters>
          </Trackpoint>
          <Trackpoint>
            <Time>2019-07-19T08:51:26.000Z</Time>
            <Position>
              <LatitudeDegrees>40.69254054687917232513427734375</LatitudeDegrees>
              <LongitudeDegrees>-3.34170344285666942596435546875</LongitudeDegrees>
            </Position>
            <AltitudeMeters>774</AltitudeMeters>
            <DistanceMeters>27442.327702029</DistanceMeters>
          </Trackpoint>
          <Trackpoint>
            <Time>2019-07-19T08:51:39.000Z</Time>
            <Position>
              <LatitudeDegrees>40.69290700368583202362060546875</LatitudeDegrees>
              <LongitudeDegrees>-3.34112995304167270660400390625</LongitudeDegrees>
            </Position>
            <AltitudeMeters>774</AltitudeMeters>
            <DistanceMeters>27505.620059483</DistanceMeters>
          </Trackpoint>
          <Trackpoint>
            <Time>2019-07-19T08:51:52.000Z</Time>
            <Position>
              <LatitudeDegrees>40.6932777352631092071533203125</LatitudeDegrees>
              <LongitudeDegrees>-3.34059351123869419097900390625</LongitudeDegrees>
            </Position>
            <AltitudeMeters>774.20001220703125</AltitudeMeters>
            <DistanceMeters>27566.874341483</DistanceMeters>
          </Trackpoint>
          <Trackpoint>
            <Time>2019-07-19T08:52:04.000Z</Time>
            <Position>
              <LatitudeDegrees>40.69366439245641231536865234375</LatitudeDegrees>
              <LongitudeDegrees>-3.34008774720132350921630859375</LongitudeDegrees>
            </Position>
            <AltitudeMeters>773.5999755859375</AltitudeMeters>
            <DistanceMeters>27627.486042006</DistanceMeters>
          </Trackpoint>
          <Trackpoint>
            <Time>2019-07-19T08:52:15.000Z</Time>
            <Position>
              <LatitudeDegrees>40.69408080540597438812255859375</LatitudeDegrees>
              <LongitudeDegrees>-3.33957443945109844207763671875</LongitudeDegrees>
            </Position>
            <AltitudeMeters>773</AltitudeMeters>
            <DistanceMeters>27690.925181893</DistanceMeters>
          </Trackpoint>
          <Trackpoint>
            <Time>2019-07-19T08:52:16.000Z</Time>
            <Position>
              <LatitudeDegrees>40.69412338547408580780029296875</LatitudeDegrees>
              <LongitudeDegrees>-3.3395351283252239227294921875</LongitudeDegrees>
            </Position>
            <AltitudeMeters>772.79998779296875</AltitudeMeters>
            <DistanceMeters>27696.710896488</DistanceMeters>
          </Trackpoint>
          <Trackpoint>
            <Time>2019-07-19T08:52:22.000Z</Time>
            <Position>
              <LatitudeDegrees>40.69440199993550777435302734375</LatitudeDegrees>
              <LongitudeDegrees>-3.3392907120287418365478515625</LongitudeDegrees>
            </Position>
            <AltitudeMeters>771.5999755859375</AltitudeMeters>
            <DistanceMeters>27733.95433782</DistanceMeters>
          </Trackpoint>
          <Trackpoint>
            <Time>2019-07-19T08:52:31.000Z</Time>
            <Position>
              <LatitudeDegrees>40.69486602209508419036865234375</LatitudeDegrees>
              <LongitudeDegrees>-3.3388997800648212432861328125</LongitudeDegrees>
            </Position>
            <AltitudeMeters>771</AltitudeMeters>
            <DistanceMeters>27795.238243978</DistanceMeters>
          </Trackpoint>
          <Trackpoint>
            <Time>2019-07-19T08:52:37.000Z</Time>
            <Position>
              <LatitudeDegrees>40.69519040174782276153564453125</LatitudeDegrees>
              <LongitudeDegrees>-3.33863650448620319366455078125</LongitudeDegrees>
            </Position>
            <AltitudeMeters>770.79998779296875</AltitudeMeters>
            <DistanceMeters>27837.630597456</DistanceMeters>
          </Trackpoint>
          <Trackpoint>
            <Time>2019-07-19T08:52:39.000Z</Time>
            <Position>
              <LatitudeDegrees>40.69527640007436275482177734375</LatitudeDegrees>
              <LongitudeDegrees>-3.338521420955657958984375</LongitudeDegrees>
            </Position>
            <AltitudeMeters>770.5999755859375</AltitudeMeters>
            <DistanceMeters>27851.266185965</DistanceMeters>
          </Trackpoint>
          <Trackpoint>
            <Time>2019-07-19T08:52:41.000Z</Time>
            <Position>
              <LatitudeDegrees>40.6953192315995693206787109375</LatitudeDegrees>
              <LongitudeDegrees>-3.33835738711059093475341796875</LongitudeDegrees>
            </Position>
            <AltitudeMeters>770.20001220703125</AltitudeMeters>
            <DistanceMeters>27865.905852434</DistanceMeters>
          </Trackpoint>
          <Trackpoint>
            <Time>2019-07-19T08:52:43.000Z</Time>
            <Position>
              <LatitudeDegrees>40.695303976535797119140625</LatitudeDegrees>
              <LongitudeDegrees>-3.338193185627460479736328125</LongitudeDegrees>
            </Position>
            <AltitudeMeters>769.79998779296875</AltitudeMeters>
            <DistanceMeters>27879.866049776</DistanceMeters>
          </Trackpoint>
          <Trackpoint>
            <Time>2019-07-19T08:52:44.000Z</Time>
            <Position>
              <LatitudeDegrees>40.69528545252978801727294921875</LatitudeDegrees>
              <LongitudeDegrees>-3.33812202326953411102294921875</LongitudeDegrees>
            </Position>
            <AltitudeMeters>769.4000244140625</AltitudeMeters>
            <DistanceMeters>27886.215086021</DistanceMeters>
          </Trackpoint>
          <Trackpoint>
            <Time>2019-07-19T08:52:52.000Z</Time>
            <Position>
              <LatitudeDegrees>40.69528562016785144805908203125</LatitudeDegrees>
              <LongitudeDegrees>-3.33774282597005367279052734375</LongitudeDegrees>
            </Position>
            <AltitudeMeters>770.5999755859375</AltitudeMeters>
            <DistanceMeters>27918.214688338</DistanceMeters>
          </Trackpoint>
          <Trackpoint>
            <Time>2019-07-19T08:53:00.000Z</Time>
            <Position>
              <LatitudeDegrees>40.6954137794673442840576171875</LatitudeDegrees>
              <LongitudeDegrees>-3.3376901037991046905517578125</LongitudeDegrees>
            </Position>
            <AltitudeMeters>771.5999755859375</AltitudeMeters>
            <DistanceMeters>27933.156864889</DistanceMeters>
          </Trackpoint>
          <Trackpoint>
            <Time>2019-07-19T08:53:04.000Z</Time>
            <Position>
              <LatitudeDegrees>40.695474632084369659423828125</LatitudeDegrees>
              <LongitudeDegrees>-3.33768566139042377471923828125</LongitudeDegrees>
            </Position>
            <AltitudeMeters>772</AltitudeMeters>
            <DistanceMeters>27939.940467881</DistanceMeters>
          </Trackpoint>
          <Trackpoint>
            <Time>2019-07-19T08:53:08.000Z</Time>
            <Position>
              <LatitudeDegrees>40.69552768953144550323486328125</LatitudeDegrees>
              <LongitudeDegrees>-3.33772815763950347900390625</LongitudeDegrees>
            </Position>
            <AltitudeMeters>772.20001220703125</AltitudeMeters>
            <DistanceMeters>27946.849374023</DistanceMeters>
          </Trackpoint>
          <Trackpoint>
            <Time>2019-07-19T08:53:14.000Z</Time>
            <Position>
              <LatitudeDegrees>40.6955985166132450103759765625</LatitudeDegrees>
              <LongitudeDegrees>-3.3377243019640445709228515625</LongitudeDegrees>
            </Position>
            <AltitudeMeters>772.20001220703125</AltitudeMeters>
            <DistanceMeters>27954.738880784</DistanceMeters>
          </Trackpoint>
          <Trackpoint>
            <Time>2019-07-19T08:53:23.000Z</Time>
            <Position>
              <LatitudeDegrees>40.6957245804369449615478515625</LatitudeDegrees>
              <LongitudeDegrees>-3.33770225755870342254638671875</LongitudeDegrees>
            </Position>
            <AltitudeMeters>772.4000244140625</AltitudeMeters>
            <DistanceMeters>27968.8924392</DistanceMeters>
          </Trackpoint>
          <Trackpoint>
            <Time>2019-07-19T08:53:29.000Z</Time>
            <Position>
              <LatitudeDegrees>40.69583329372107982635498046875</LatitudeDegrees>
              <LongitudeDegrees>-3.33769555203616619110107421875</LongitudeDegrees>
            </Position>
            <AltitudeMeters>772.5999755859375</AltitudeMeters>
            <DistanceMeters>27981.005643241</DistanceMeters>
          </Trackpoint>
          <Trackpoint>
            <Time>2019-07-19T08:53:33.000Z</Time>
            <Position>
              <LatitudeDegrees>40.69592918269336223602294921875</LatitudeDegrees>
              <LongitudeDegrees>-3.33775204606354236602783203125</LongitudeDegrees>
            </Position>
            <AltitudeMeters>772.79998779296875</AltitudeMeters>
            <DistanceMeters>27992.69431539</DistanceMeters>
          </Trackpoint>
          <Trackpoint>
            <Time>2019-07-19T08:53:42.000Z</Time>
            <Position>
              <LatitudeDegrees>40.696234367787837982177734375</LatitudeDegrees>
              <LongitudeDegrees>-3.33786956034600734710693359375</LongitudeDegrees>
            </Position>
            <AltitudeMeters>773.79998779296875</AltitudeMeters>
            <DistanceMeters>28028.07987021</DistanceMeters>
          </Trackpoint>
          <Trackpoint>
            <Time>2019-07-19T08:53:47.000Z</Time>
            <Position>
              <LatitudeDegrees>40.69640644825994968414306640625</LatitudeDegrees>
              <LongitudeDegrees>-3.337837122380733489990234375</LongitudeDegrees>
            </Position>
            <AltitudeMeters>774.79998779296875</AltitudeMeters>
            <DistanceMeters>28047.427318591</DistanceMeters>
          </Trackpoint>
          <Trackpoint>
            <Time>2019-07-19T08:53:57.000Z</Time>
            <Position>
              <LatitudeDegrees>40.69672177545726299285888671875</LatitudeDegrees>
              <LongitudeDegrees>-3.33769387565553188323974609375</LongitudeDegrees>
            </Position>
            <AltitudeMeters>775.5999755859375</AltitudeMeters>
            <DistanceMeters>28084.547142195</DistanceMeters>
          </Trackpoint>
          <Trackpoint>
            <Time>2019-07-19T08:54:01.000Z</Time>
            <Position>
              <LatitudeDegrees>40.69668187759816646575927734375</LatitudeDegrees>
              <LongitudeDegrees>-3.33750980906188488006591796875</LongitudeDegrees>
            </Position>
            <AltitudeMeters>775.79998779296875</AltitudeMeters>
            <DistanceMeters>28100.702242609</DistanceMeters>
          </Trackpoint>
          <Trackpoint>
            <Time>2019-07-19T08:54:03.000Z</Time>
            <Position>
              <LatitudeDegrees>40.69667299278080463409423828125</LatitudeDegrees>
              <LongitudeDegrees>-3.3373967371881008148193359375</LongitudeDegrees>
            </Position>
            <AltitudeMeters>775.4000244140625</AltitudeMeters>
            <DistanceMeters>28110.294764643</DistanceMeters>
          </Trackpoint>
          <Trackpoint>
            <Time>2019-07-19T08:54:05.000Z</Time>
            <Position>
              <LatitudeDegrees>40.6966992281377315521240234375</LatitudeDegrees>
              <LongitudeDegrees>-3.33729456178843975067138671875</LongitudeDegrees>
            </Position>
            <AltitudeMeters>774.79998779296875</AltitudeMeters>
            <DistanceMeters>28119.398502424</DistanceMeters>
          </Trackpoint>
          <Trackpoint>
            <Time>2019-07-19T08:54:07.000Z</Time>
            <Position>
              <LatitudeDegrees>40.6967609189450740814208984375</LatitudeDegrees>
              <LongitudeDegrees>-3.33721526898443698883056640625</LongitudeDegrees>
            </Position>
            <AltitudeMeters>774.4000244140625</AltitudeMeters>
            <DistanceMeters>28128.986316471</DistanceMeters>
          </Trackpoint>
          <Trackpoint>
            <Time>2019-07-19T08:54:24.000Z</Time>
            <Position>
              <LatitudeDegrees>40.69708429276943206787109375</LatitudeDegrees>
              <LongitudeDegrees>-3.3371414244174957275390625</LongitudeDegrees>
            </Position>
            <AltitudeMeters>775.20001220703125</AltitudeMeters>
            <DistanceMeters>28165.513922952</DistanceMeters>
          </Trackpoint>
          <Trackpoint>
            <Time>2019-07-19T08:54:38.000Z</Time>
            <Position>
              <LatitudeDegrees>40.69706710986793041229248046875</LatitudeDegrees>
              <LongitudeDegrees>-3.337170593440532684326171875</LongitudeDegrees>
            </Position>
            <AltitudeMeters>775.20001220703125</AltitudeMeters>
            <DistanceMeters>28168.631030947</DistanceMeters>
          </Trackpoint>
          <Trackpoint>
            <Time>2019-07-19T08:54:40.000Z</Time>
            <Position>
              <LatitudeDegrees>40.6970288045704364776611328125</LatitudeDegrees>
              <LongitudeDegrees>-3.33719079382717609405517578125</LongitudeDegrees>
            </Position>
            <AltitudeMeters>775.20001220703125</AltitudeMeters>
            <DistanceMeters>28173.222896418</DistanceMeters>
          </Trackpoint>
          <Trackpoint>
            <Time>2019-07-19T08:54:50.000Z</Time>
            <Position>
              <LatitudeDegrees>40.69676536135375499725341796875</LatitudeDegrees>
              <LongitudeDegrees>-3.3371647261083126068115234375</LongitudeDegrees>
            </Position>
            <AltitudeMeters>774.20001220703125</AltitudeMeters>
            <DistanceMeters>28202.627177728</DistanceMeters>
          </Trackpoint>
          <Trackpoint>
            <Time>2019-07-19T08:54:52.000Z</Time>
            <Position>
              <LatitudeDegrees>40.69673602469265460968017578125</LatitudeDegrees>
              <LongitudeDegrees>-3.337098173797130584716796875</LongitudeDegrees>
            </Position>
            <AltitudeMeters>774</AltitudeMeters>
            <DistanceMeters>28209.123141645</DistanceMeters>
          </Trackpoint>
          <Trackpoint>
            <Time>2019-07-19T08:54:55.000Z</Time>
            <Position>
              <LatitudeDegrees>40.69674943573772907257080078125</LatitudeDegrees>
              <LongitudeDegrees>-3.3369585312902927398681640625</LongitudeDegrees>
            </Position>
            <AltitudeMeters>773.79998779296875</AltitudeMeters>
            <DistanceMeters>28221.001480942</DistanceMeters>
          </Trackpoint>
          <Trackpoint>
            <Time>2019-07-19T08:54:58.000Z</Time>
            <Position>
              <LatitudeDegrees>40.6968046724796295166015625</LatitudeDegrees>
              <LongitudeDegrees>-3.33681461401283740997314453125</LongitudeDegrees>
            </Position>
            <AltitudeMeters>773.20001220703125</AltitudeMeters>
            <DistanceMeters>28234.613871203</DistanceMeters>
          </Trackpoint>
          <Trackpoint>
            <Time>2019-07-19T08:55:00.000Z</Time>
            <Position>
              <LatitudeDegrees>40.69686896167695522308349609375</LatitudeDegrees>
              <LongitudeDegrees>-3.3367015421390533447265625</LongitudeDegrees>
            </Position>
            <AltitudeMeters>772.5999755859375</AltitudeMeters>
            <DistanceMeters>28246.540007798</DistanceMeters>
          </Trackpoint>
          <Trackpoint>
            <Time>2019-07-19T08:55:03.000Z</Time>
            <Position>
              <LatitudeDegrees>40.69699116982519626617431640625</LatitudeDegrees>
              <LongitudeDegrees>-3.3365384303033351898193359375</LongitudeDegrees>
            </Position>
            <AltitudeMeters>771.4000244140625</AltitudeMeters>
            <DistanceMeters>28265.891189675</DistanceMeters>
          </Trackpoint>
          <Trackpoint>
            <Time>2019-07-19T08:55:06.000Z</Time>
            <Position>
              <LatitudeDegrees>40.69714338518679141998291015625</LatitudeDegrees>
              <LongitudeDegrees>-3.3363945968449115753173828125</LongitudeDegrees>
            </Position>
            <AltitudeMeters>770.20001220703125</AltitudeMeters>
            <DistanceMeters>28286.732175183</DistanceMeters>
          </Trackpoint>
          <Trackpoint>
            <Time>2019-07-19T08:55:15.000Z</Time>
            <Position>
              <LatitudeDegrees>40.69763925857841968536376953125</LatitudeDegrees>
              <LongitudeDegrees>-3.3361112885177135467529296875</LongitudeDegrees>
            </Position>
            <AltitudeMeters>770</AltitudeMeters>
            <DistanceMeters>28346.879206243</DistanceMeters>
          </Trackpoint>
          <Trackpoint>
            <Time>2019-07-19T08:55:20.000Z</Time>
            <Position>
              <LatitudeDegrees>40.6978529132902622222900390625</LatitudeDegrees>
              <LongitudeDegrees>-3.33600223995745182037353515625</LongitudeDegrees>
            </Position>
            <AltitudeMeters>771.5999755859375</AltitudeMeters>
            <DistanceMeters>28372.377726476</DistanceMeters>
          </Trackpoint>
          <Trackpoint>
            <Time>2019-07-19T08:55:24.000Z</Time>
            <Position>
              <LatitudeDegrees>40.69800035096704959869384765625</LatitudeDegrees>
              <LongitudeDegrees>-3.3359305746853351593017578125</LongitudeDegrees>
            </Position>
            <AltitudeMeters>772.79998779296875</AltitudeMeters>
            <DistanceMeters>28389.866773028</DistanceMeters>
          </Trackpoint>
          <Trackpoint>
            <Time>2019-07-19T08:55:28.000Z</Time>
            <Position>
              <LatitudeDegrees>40.69814166985452175140380859375</LatitudeDegrees>
              <LongitudeDegrees>-3.3358517847955226898193359375</LongitudeDegrees>
            </Position>
            <AltitudeMeters>773.79998779296875</AltitudeMeters>
            <DistanceMeters>28406.943049804</DistanceMeters>
          </Trackpoint>
          <Trackpoint>
            <Time>2019-07-19T08:55:35.000Z</Time>
            <Position>
              <LatitudeDegrees>40.69841693155467510223388671875</LatitudeDegrees>
              <LongitudeDegrees>-3.33573200739920139312744140625</LongitudeDegrees>
            </Position>
            <AltitudeMeters>775</AltitudeMeters>
            <DistanceMeters>28439.204304441</DistanceMeters>
          </Trackpoint>
          <Trackpoint>
            <Time>2019-07-19T08:55:41.000Z</Time>
            <Position>
              <LatitudeDegrees>40.69860938005149364471435546875</LatitudeDegrees>
              <LongitudeDegrees>-3.33563997410237789154052734375</LongitudeDegrees>
            </Position>
            <AltitudeMeters>776</AltitudeMeters>
            <DistanceMeters>28461.988532201</DistanceMeters>
          </Trackpoint>
          <Trackpoint>
            <Time>2019-07-19T08:55:54.000Z</Time>
            <Position>
              <LatitudeDegrees>40.6991262920200824737548828125</LatitudeDegrees>
              <LongitudeDegrees>-3.33536605350673198699951171875</LongitudeDegrees>
            </Position>
            <AltitudeMeters>776.20001220703125</AltitudeMeters>
            <DistanceMeters>28523.991479022</DistanceMeters>
          </Trackpoint>
          <Trackpoint>
            <Time>2019-07-19T08:56:06.000Z</Time>
            <Position>
              <LatitudeDegrees>40.69966700859367847442626953125</LatitudeDegrees>
              <LongitudeDegrees>-3.33508827723562717437744140625</LongitudeDegrees>
            </Position>
            <AltitudeMeters>776.5999755859375</AltitudeMeters>
            <DistanceMeters>28588.577775036</DistanceMeters>
          </Trackpoint>
          <Trackpoint>
            <Time>2019-07-19T08:56:16.000Z</Time>
            <Position>
              <LatitudeDegrees>40.7001247443258762359619140625</LatitudeDegrees>
              <LongitudeDegrees>-3.334882669150829315185546875</LongitudeDegrees>
            </Position>
            <AltitudeMeters>777</AltitudeMeters>
            <DistanceMeters>28642.397805518</DistanceMeters>
          </Trackpoint>
          <Trackpoint>
            <Time>2019-07-19T08:56:28.000Z</Time>
            <Position>
              <LatitudeDegrees>40.7006769441068172454833984375</LatitudeDegrees>
              <LongitudeDegrees>-3.3346786536276340484619140625</LongitudeDegrees>
            </Position>
            <AltitudeMeters>778</AltitudeMeters>
            <DistanceMeters>28706.224074144</DistanceMeters>
          </Trackpoint>
          <Trackpoint>
            <Time>2019-07-19T08:56:29.000Z</Time>
            <Position>
              <LatitudeDegrees>40.7007225416600704193115234375</LatitudeDegrees>
              <LongitudeDegrees>-3.33466197364032268524169921875</LongitudeDegrees>
            </Position>
            <AltitudeMeters>778.20001220703125</AltitudeMeters>
            <DistanceMeters>28711.490989259</DistanceMeters>
          </Trackpoint>
          <Trackpoint>
            <Time>2019-07-19T08:56:37.000Z</Time>
            <Position>
              <LatitudeDegrees>40.70108271203935146331787109375</LatitudeDegrees>
              <LongitudeDegrees>-3.33452216349542140960693359375</LongitudeDegrees>
            </Position>
            <AltitudeMeters>779.20001220703125</AltitudeMeters>
            <DistanceMeters>28753.278547963</DistanceMeters>
          </Trackpoint>
          <Trackpoint>
            <Time>2019-07-19T08:56:41.000Z</Time>
            <Position>
              <LatitudeDegrees>40.701256804168224334716796875</LatitudeDegrees>
              <LongitudeDegrees>-3.334459550678730010986328125</LongitudeDegrees>
            </Position>
            <AltitudeMeters>779.5999755859375</AltitudeMeters>
            <DistanceMeters>28773.362708756</DistanceMeters>
          </Trackpoint>
          <Trackpoint>
            <Time>2019-07-19T08:56:43.000Z</Time>
            <Position>
              <LatitudeDegrees>40.70133098401129245758056640625</LatitudeDegrees>
              <LongitudeDegrees>-3.3344054035842418670654296875</LongitudeDegrees>
            </Position>
            <AltitudeMeters>779.79998779296875</AltitudeMeters>
            <DistanceMeters>28782.798627033</DistanceMeters>
          </Trackpoint>
          <Trackpoint>
            <Time>2019-07-19T08:56:49.000Z</Time>
            <Position>
              <LatitudeDegrees>40.7015238516032695770263671875</LatitudeDegrees>
              <LongitudeDegrees>-3.33432049490511417388916015625</LongitudeDegrees>
            </Position>
            <AltitudeMeters>780.20001220703125</AltitudeMeters>
            <DistanceMeters>28805.429354278</DistanceMeters>
          </Trackpoint>
          <Trackpoint>
            <Time>2019-07-19T08:56:59.000Z</Time>
            <Position>
              <LatitudeDegrees>40.7019087485969066619873046875</LatitudeDegrees>
              <LongitudeDegrees>-3.33420650102198123931884765625</LongitudeDegrees>
            </Position>
            <AltitudeMeters>780.4000244140625</AltitudeMeters>
            <DistanceMeters>28849.335604168</DistanceMeters>
          </Trackpoint>
          <Trackpoint>
            <Time>2019-07-19T08:57:11.000Z</Time>
            <Position>
              <LatitudeDegrees>40.70245617069303989410400390625</LatitudeDegrees>
              <LongitudeDegrees>-3.3341373503208160400390625</LongitudeDegrees>
            </Position>
            <AltitudeMeters>781</AltitudeMeters>
            <DistanceMeters>28910.54350517</DistanceMeters>
          </Trackpoint>
          <Trackpoint>
            <Time>2019-07-19T08:57:17.000Z</Time>
            <Position>
              <LatitudeDegrees>40.70273143239319324493408203125</LatitudeDegrees>
              <LongitudeDegrees>-3.33408094011247158050537109375</LongitudeDegrees>
            </Position>
            <AltitudeMeters>781.20001220703125</AltitudeMeters>
            <DistanceMeters>28941.548146077</DistanceMeters>
          </Trackpoint>
          <Trackpoint>
            <Time>2019-07-19T08:57:20.000Z</Time>
            <Position>
              <LatitudeDegrees>40.70286889560520648956298828125</LatitudeDegrees>
              <LongitudeDegrees>-3.334047496318817138671875</LongitudeDegrees>
            </Position>
            <AltitudeMeters>781.5999755859375</AltitudeMeters>
            <DistanceMeters>28957.105850568</DistanceMeters>
          </Trackpoint>
          <Trackpoint>
            <Time>2019-07-19T08:57:22.000Z</Time>
            <Position>
              <LatitudeDegrees>40.70295221172273159027099609375</LatitudeDegrees>
              <LongitudeDegrees>-3.33401321433484554290771484375</LongitudeDegrees>
            </Position>
            <AltitudeMeters>782.4000244140625</AltitudeMeters>
            <DistanceMeters>28966.819514591</DistanceMeters>
          </Trackpoint>
          <Trackpoint>
            <Time>2019-07-19T08:57:23.000Z</Time>
            <Position>
              <LatitudeDegrees>40.70299546234309673309326171875</LatitudeDegrees>
              <LongitudeDegrees>-3.33400047384202480316162109375</LongitudeDegrees>
            </Position>
            <AltitudeMeters>782.5999755859375</AltitudeMeters>
            <DistanceMeters>28971.751758091</DistanceMeters>
          </Trackpoint>
          <Trackpoint>
            <Time>2019-07-19T08:57:35.000Z</Time>
            <Position>
              <LatitudeDegrees>40.7035489194095134735107421875</LatitudeDegrees>
              <LongitudeDegrees>-3.33394565619528293609619140625</LongitudeDegrees>
            </Position>
            <AltitudeMeters>783.4000244140625</AltitudeMeters>
            <DistanceMeters>29033.525993212</DistanceMeters>
          </Trackpoint>
          <Trackpoint>
            <Time>2019-07-19T08:57:40.000Z</Time>
            <Position>
              <LatitudeDegrees>40.70378486998379230499267578125</LatitudeDegrees>
              <LongitudeDegrees>-3.33393475972115993499755859375</LongitudeDegrees>
            </Position>
            <AltitudeMeters>784.4000244140625</AltitudeMeters>
            <DistanceMeters>29059.803929692</DistanceMeters>
          </Trackpoint>
          <Trackpoint>
            <Time>2019-07-19T08:57:51.000Z</Time>
            <Position>
              <LatitudeDegrees>40.70432818494737148284912109375</LatitudeDegrees>
              <LongitudeDegrees>-3.33386904560029506683349609375</LongitudeDegrees>
            </Position>
            <AltitudeMeters>785.4000244140625</AltitudeMeters>
            <DistanceMeters>29120.5296435</DistanceMeters>
          </Trackpoint>
          <Trackpoint>
            <Time>2019-07-19T08:57:52.000Z</Time>
            <Position>
              <LatitudeDegrees>40.7043770514428615570068359375</LatitudeDegrees>
              <LongitudeDegrees>-3.3338706381618976593017578125</LongitudeDegrees>
            </Position>
            <AltitudeMeters>785.4000244140625</AltitudeMeters>
            <DistanceMeters>29125.971115788</DistanceMeters>
          </Trackpoint>
          <Trackpoint>
            <Time>2019-07-19T08:57:54.000Z</Time>
            <Position>
              <LatitudeDegrees>40.70447503589093685150146484375</LatitudeDegrees>
              <LongitudeDegrees>-3.3338726498186588287353515625</LongitudeDegrees>
            </Position>
            <AltitudeMeters>785.5999755859375</AltitudeMeters>
            <DistanceMeters>29136.878510396</DistanceMeters>
          </Trackpoint>
          <Trackpoint>
            <Time>2019-07-19T08:58:06.000Z</Time>
            <Position>
              <LatitudeDegrees>40.70504215545952320098876953125</LatitudeDegrees>
              <LongitudeDegrees>-3.33370911888778209686279296875</LongitudeDegrees>
            </Position>
            <AltitudeMeters>786.20001220703125</AltitudeMeters>
            <DistanceMeters>29201.490527088</DistanceMeters>
          </Trackpoint>
          <Trackpoint>
            <Time>2019-07-19T08:58:15.000Z</Time>
            <Position>
              <LatitudeDegrees>40.70546762086451053619384765625</LatitudeDegrees>
              <LongitudeDegrees>-3.33366503007709980010986328125</LongitudeDegrees>
            </Position>
            <AltitudeMeters>786</AltitudeMeters>
            <DistanceMeters>29248.991529194</DistanceMeters>
          </Trackpoint>
          <Trackpoint>
            <Time>2019-07-19T08:58:26.000Z</Time>
            <Position>
              <LatitudeDegrees>40.70599593222141265869140625</LatitudeDegrees>
              <LongitudeDegrees>-3.33347979001700878143310546875</LongitudeDegrees>
            </Position>
            <AltitudeMeters>785.5999755859375</AltitudeMeters>
            <DistanceMeters>29309.835272578</DistanceMeters>
          </Trackpoint>
          <Trackpoint>
            <Time>2019-07-19T08:58:34.000Z</Time>
            <Position>
              <LatitudeDegrees>40.706383176147937774658203125</LatitudeDegrees>
              <LongitudeDegrees>-3.33334165625274181365966796875</LongitudeDegrees>
            </Position>
            <AltitudeMeters>786.4000244140625</AltitudeMeters>
            <DistanceMeters>29354.484279915</DistanceMeters>
          </Trackpoint>
          <Trackpoint>
            <Time>2019-07-19T08:58:45.000Z</Time>
            <Position>
              <LatitudeDegrees>40.70689924992620944976806640625</LatitudeDegrees>
              <LongitudeDegrees>-3.333085589110851287841796875</LongitudeDegrees>
            </Position>
            <AltitudeMeters>786.5999755859375</AltitudeMeters>
            <DistanceMeters>29415.853147122</DistanceMeters>
          </Trackpoint>
          <Trackpoint>
            <Time>2019-07-19T08:58:53.000Z</Time>
            <Position>
              <LatitudeDegrees>40.7072862423956394195556640625</LatitudeDegrees>
              <LongitudeDegrees>-3.33287696354091167449951171875</LongitudeDegrees>
            </Position>
            <AltitudeMeters>787</AltitudeMeters>
            <DistanceMeters>29462.38393627</DistanceMeters>
          </Trackpoint>
          <Trackpoint>
            <Time>2019-07-19T08:59:05.000Z</Time>
            <Position>
              <LatitudeDegrees>40.70785176940262317657470703125</LatitudeDegrees>
              <LongitudeDegrees>-3.3326835930347442626953125</LongitudeDegrees>
            </Position>
            <AltitudeMeters>786.4000244140625</AltitudeMeters>
            <DistanceMeters>29527.408252671</DistanceMeters>
          </Trackpoint>
          <Trackpoint>
            <Time>2019-07-19T08:59:17.000Z</Time>
            <Position>
              <LatitudeDegrees>40.70840246044099330902099609375</LatitudeDegrees>
              <LongitudeDegrees>-3.332508243620395660400390625</LongitudeDegrees>
            </Position>
            <AltitudeMeters>787.20001220703125</AltitudeMeters>
            <DistanceMeters>29590.46146731</DistanceMeters>
          </Trackpoint>
          <Trackpoint>
            <Time>2019-07-19T08:59:28.000Z</Time>
            <Position>
              <LatitudeDegrees>40.70890755392611026763916015625</LatitudeDegrees>
              <LongitudeDegrees>-3.332370780408382415771484375</LongitudeDegrees>
            </Position>
            <AltitudeMeters>787.5999755859375</AltitudeMeters>
            <DistanceMeters>29647.863266354</DistanceMeters>
          </Trackpoint>
          <Trackpoint>
            <Time>2019-07-19T08:59:31.000Z</Time>
            <Position>
              <LatitudeDegrees>40.70903755724430084228515625</LatitudeDegrees>
              <LongitudeDegrees>-3.33234555087983608245849609375</LongitudeDegrees>
            </Position>
            <AltitudeMeters>788.4000244140625</AltitudeMeters>
            <DistanceMeters>29662.488739024</DistanceMeters>
          </Trackpoint>
          <Trackpoint>
            <Time>2019-07-19T08:59:34.000Z</Time>
            <Position>
              <LatitudeDegrees>40.70914325304329395294189453125</LatitudeDegrees>
              <LongitudeDegrees>-3.3323179744184017181396484375</LongitudeDegrees>
            </Position>
            <AltitudeMeters>788.5999755859375</AltitudeMeters>
            <DistanceMeters>29674.480568216</DistanceMeters>
          </Trackpoint>
          <Trackpoint>
            <Time>2019-07-19T08:59:51.000Z</Time>
            <Position>
              <LatitudeDegrees>40.70970132015645503997802734375</LatitudeDegrees>
              <LongitudeDegrees>-3.3322911523282527923583984375</LongitudeDegrees>
            </Position>
            <AltitudeMeters>789.20001220703125</AltitudeMeters>
            <DistanceMeters>29736.635739879</DistanceMeters>
          </Trackpoint>
          <Trackpoint>
            <Time>2019-07-19T08:59:57.000Z</Time>
            <Position>
              <LatitudeDegrees>40.7099211774766445159912109375</LatitudeDegrees>
              <LongitudeDegrees>-3.332309089601039886474609375</LongitudeDegrees>
            </Position>
            <AltitudeMeters>789.79998779296875</AltitudeMeters>
            <DistanceMeters>29761.153000504</DistanceMeters>
          </Trackpoint>
          <Trackpoint>
            <Time>2019-07-19T09:00:08.000Z</Time>
            <Position>
              <LatitudeDegrees>40.71039073169231414794921875</LatitudeDegrees>
              <LongitudeDegrees>-3.3323702774941921234130859375</LongitudeDegrees>
            </Position>
            <AltitudeMeters>788.79998779296875</AltitudeMeters>
            <DistanceMeters>29813.669684213</DistanceMeters>
          </Trackpoint>
          <Trackpoint>
            <Time>2019-07-19T09:00:23.000Z</Time>
            <Position>
              <LatitudeDegrees>40.710958354175090789794921875</LatitudeDegrees>
              <LongitudeDegrees>-3.332423083484172821044921875</LongitudeDegrees>
            </Position>
            <AltitudeMeters>789.79998779296875</AltitudeMeters>
            <DistanceMeters>29877.004116059</DistanceMeters>
          </Trackpoint>
          <Trackpoint>
            <Time>2019-07-19T09:00:29.000Z</Time>
            <Position>
              <LatitudeDegrees>40.71121408604085445404052734375</LatitudeDegrees>
              <LongitudeDegrees>-3.3324368298053741455078125</LongitudeDegrees>
            </Position>
            <AltitudeMeters>790.4000244140625</AltitudeMeters>
            <DistanceMeters>29905.491216822</DistanceMeters>
          </Trackpoint>
          <Trackpoint>
            <Time>2019-07-19T09:00:33.000Z</Time>
            <Position>
              <LatitudeDegrees>40.711382813751697540283203125</LatitudeDegrees>
              <LongitudeDegrees>-3.33245200105011463165283203125</LongitudeDegrees>
            </Position>
            <AltitudeMeters>790.79998779296875</AltitudeMeters>
            <DistanceMeters>29924.314663358</DistanceMeters>
          </Trackpoint>
          <Trackpoint>
            <Time>2019-07-19T09:00:47.000Z</Time>
            <Position>
              <LatitudeDegrees>40.711945407092571258544921875</LatitudeDegrees>
              <LongitudeDegrees>-3.332593403756618499755859375</LongitudeDegrees>
            </Position>
            <AltitudeMeters>790</AltitudeMeters>
            <DistanceMeters>29988.058679688</DistanceMeters>
          </Trackpoint>
          <Trackpoint>
            <Time>2019-07-19T09:00:49.000Z</Time>
            <Position>
              <LatitudeDegrees>40.712019503116607666015625</LatitudeDegrees>
              <LongitudeDegrees>-3.33262885920703411102294921875</LongitudeDegrees>
            </Position>
            <AltitudeMeters>790</AltitudeMeters>
            <DistanceMeters>29996.83206966</DistanceMeters>
          </Trackpoint>
          <Trackpoint>
            <Time>2019-07-19T09:01:01.000Z</Time>
            <Position>
              <LatitudeDegrees>40.712573714554309844970703125</LatitudeDegrees>
              <LongitudeDegrees>-3.33276531659066677093505859375</LongitudeDegrees>
            </Position>
            <AltitudeMeters>790</AltitudeMeters>
            <DistanceMeters>30059.581944347</DistanceMeters>
          </Trackpoint>
          <Trackpoint>
            <Time>2019-07-19T09:01:11.000Z</Time>
            <Position>
              <LatitudeDegrees>40.7129728607833385467529296875</LatitudeDegrees>
              <LongitudeDegrees>-3.33274285309016704559326171875</LongitudeDegrees>
            </Position>
            <AltitudeMeters>791</AltitudeMeters>
            <DistanceMeters>30104.048151722</DistanceMeters>
          </Trackpoint>
          <Trackpoint>
            <Time>2019-07-19T09:01:14.000Z</Time>
            <Position>
              <LatitudeDegrees>40.71311987936496734619140625</LatitudeDegrees>
              <LongitudeDegrees>-3.332683257758617401123046875</LongitudeDegrees>
            </Position>
            <AltitudeMeters>789.5999755859375</AltitudeMeters>
            <DistanceMeters>30121.166680887</DistanceMeters>
          </Trackpoint>
          <Trackpoint>
            <Time>2019-07-19T09:01:16.000Z</Time>
            <Position>
              <LatitudeDegrees>40.71323647163808345794677734375</LatitudeDegrees>
              <LongitudeDegrees>-3.3326344750821590423583984375</LongitudeDegrees>
            </Position>
            <AltitudeMeters>788.4000244140625</AltitudeMeters>
            <DistanceMeters>30134.780397828</DistanceMeters>
          </Trackpoint>
          <Trackpoint>
            <Time>2019-07-19T09:01:19.000Z</Time>
            <Position>
              <LatitudeDegrees>40.7134181074798107147216796875</LatitudeDegrees>
              <LongitudeDegrees>-3.3325576968491077423095703125</LongitudeDegrees>
            </Position>
            <AltitudeMeters>787.20001220703125</AltitudeMeters>
            <DistanceMeters>30156.00903403</DistanceMeters>
          </Trackpoint>
          <Trackpoint>
            <Time>2019-07-19T09:01:21.000Z</Time>
            <Position>
              <LatitudeDegrees>40.71353050880134105682373046875</LatitudeDegrees>
              <LongitudeDegrees>-3.3325033821165561676025390625</LongitudeDegrees>
            </Position>
            <AltitudeMeters>786.5999755859375</AltitudeMeters>
            <DistanceMeters>30169.332104722</DistanceMeters>
          </Trackpoint>
          <Trackpoint>
            <Time>2019-07-19T09:01:23.000Z</Time>
            <Position>
              <LatitudeDegrees>40.713634528219699859619140625</LatitudeDegrees>
              <LongitudeDegrees>-3.33245568908751010894775390625</LongitudeDegrees>
            </Position>
            <AltitudeMeters>785.79998779296875</AltitudeMeters>
            <DistanceMeters>30181.589445864</DistanceMeters>
          </Trackpoint>
          <Trackpoint>
            <Time>2019-07-19T09:01:25.000Z</Time>
            <Position>
              <LatitudeDegrees>40.71373972110450267791748046875</LatitudeDegrees>
              <LongitudeDegrees>-3.33244688808917999267578125</LongitudeDegrees>
            </Position>
            <AltitudeMeters>786</AltitudeMeters>
            <DistanceMeters>30193.32130101</DistanceMeters>
          </Trackpoint>
          <Trackpoint>
            <Time>2019-07-19T09:01:40.000Z</Time>
            <Position>
              <LatitudeDegrees>40.7142873108386993408203125</LatitudeDegrees>
              <LongitudeDegrees>-3.33250631578266620635986328125</LongitudeDegrees>
            </Position>
            <AltitudeMeters>786.79998779296875</AltitudeMeters>
            <DistanceMeters>30254.475107916</DistanceMeters>
          </Trackpoint>
          <Trackpoint>
            <Time>2019-07-19T09:01:49.000Z</Time>
            <Position>
              <LatitudeDegrees>40.7145273685455322265625</LatitudeDegrees>
              <LongitudeDegrees>-3.33249022252857685089111328125</LongitudeDegrees>
            </Position>
            <AltitudeMeters>786.5999755859375</AltitudeMeters>
            <DistanceMeters>30281.228461334</DistanceMeters>
          </Trackpoint>
          <Trackpoint>
            <Time>2019-07-19T09:01:52.000Z</Time>
            <Position>
              <LatitudeDegrees>40.71466390974819660186767578125</LatitudeDegrees>
              <LongitudeDegrees>-3.3323590457439422607421875</LongitudeDegrees>
            </Position>
            <AltitudeMeters>784.79998779296875</AltitudeMeters>
            <DistanceMeters>30300.027906322</DistanceMeters>
          </Trackpoint>
          <Trackpoint>
            <Time>2019-07-19T09:01:54.000Z</Time>
            <Position>
              <LatitudeDegrees>40.71476273238658905029296875</LatitudeDegrees>
              <LongitudeDegrees>-3.33230950869619846343994140625</LongitudeDegrees>
            </Position>
            <AltitudeMeters>784</AltitudeMeters>
            <DistanceMeters>30311.793963519</DistanceMeters>
          </Trackpoint>
          <Trackpoint>
            <Time>2019-07-19T09:01:55.000Z</Time>
            <Position>
              <LatitudeDegrees>40.7148108445107936859130859375</LatitudeDegrees>
              <LongitudeDegrees>-3.33230783231556415557861328125</LongitudeDegrees>
            </Position>
            <AltitudeMeters>783.5999755859375</AltitudeMeters>
            <DistanceMeters>30317.150133126</DistanceMeters>
          </Trackpoint>
          <Trackpoint>
            <Time>2019-07-19T09:01:56.000Z</Time>
            <Position>
              <LatitudeDegrees>40.7148564420640468597412109375</LatitudeDegrees>
              <LongitudeDegrees>-3.33230338990688323974609375</LongitudeDegrees>
            </Position>
            <AltitudeMeters>783.4000244140625</AltitudeMeters>
            <DistanceMeters>30322.239166359</DistanceMeters>
          </Trackpoint>
          <Trackpoint>
            <Time>2019-07-19T09:02:17.000Z</Time>
            <Position>
              <LatitudeDegrees>40.7152467034757137298583984375</LatitudeDegrees>
              <LongitudeDegrees>-3.331854455173015594482421875</LongitudeDegrees>
            </Position>
            <AltitudeMeters>784.5999755859375</AltitudeMeters>
            <DistanceMeters>30379.868618509</DistanceMeters>
          </Trackpoint>
          <Trackpoint>
            <Time>2019-07-19T09:03:31.000Z</Time>
            <Position>
              <LatitudeDegrees>40.71522918529808521270751953125</LatitudeDegrees>
              <LongitudeDegrees>-3.33190977573394775390625</LongitudeDegrees>
            </Position>
            <AltitudeMeters>785.20001220703125</AltitudeMeters>
            <DistanceMeters>30384.926504092</DistanceMeters>
          </Trackpoint>
          <Trackpoint>
            <Time>2019-07-19T09:03:51.000Z</Time>
            <Position>
              <LatitudeDegrees>40.7147655822336673736572265625</LatitudeDegrees>
              <LongitudeDegrees>-3.33229877986013889312744140625</LongitudeDegrees>
            </Position>
            <AltitudeMeters>784</AltitudeMeters>
            <DistanceMeters>30446.078317533</DistanceMeters>
          </Trackpoint>
          <Trackpoint>
            <Time>2019-07-19T09:04:07.000Z</Time>
            <Position>
              <LatitudeDegrees>40.7143689505755901336669921875</LatitudeDegrees>
              <LongitudeDegrees>-3.33252207376062870025634765625</LongitudeDegrees>
            </Position>
            <AltitudeMeters>786</AltitudeMeters>
            <DistanceMeters>30494.075369339</DistanceMeters>
          </Trackpoint>
          <Trackpoint>
            <Time>2019-07-19T09:04:11.000Z</Time>
            <Position>
              <LatitudeDegrees>40.71431505493819713592529296875</LatitudeDegrees>
              <LongitudeDegrees>-3.3325097523629665374755859375</LongitudeDegrees>
            </Position>
            <AltitudeMeters>787.20001220703125</AltitudeMeters>
            <DistanceMeters>30500.163015331</DistanceMeters>
          </Trackpoint>
          <Trackpoint>
            <Time>2019-07-19T09:04:32.000Z</Time>
            <Position>
              <LatitudeDegrees>40.71373955346643924713134765625</LatitudeDegrees>
              <LongitudeDegrees>-3.3324510790407657623291015625</LongitudeDegrees>
            </Position>
            <AltitudeMeters>786.5999755859375</AltitudeMeters>
            <DistanceMeters>30564.408383577</DistanceMeters>
          </Trackpoint>
          <Trackpoint>
            <Time>2019-07-19T09:04:46.000Z</Time>
            <Position>
              <LatitudeDegrees>40.71319975890219211578369140625</LatitudeDegrees>
              <LongitudeDegrees>-3.3323920704424381256103515625</LongitudeDegrees>
            </Position>
            <AltitudeMeters>786.4000244140625</AltitudeMeters>
            <DistanceMeters>30624.694577412</DistanceMeters>
          </Trackpoint>
          <Trackpoint>
            <Time>2019-07-19T09:04:54.000Z</Time>
            <Position>
              <LatitudeDegrees>40.71284185163676738739013671875</LatitudeDegrees>
              <LongitudeDegrees>-3.33235326223075389862060546875</LongitudeDegrees>
            </Position>
            <AltitudeMeters>786.20001220703125</AltitudeMeters>
            <DistanceMeters>30664.664693181</DistanceMeters>
          </Trackpoint>
          <Trackpoint>
            <Time>2019-07-19T09:04:58.000Z</Time>
            <Position>
              <LatitudeDegrees>40.71267924271523952484130859375</LatitudeDegrees>
              <LongitudeDegrees>-3.33232375793159008026123046875</LongitudeDegrees>
            </Position>
            <AltitudeMeters>786</AltitudeMeters>
            <DistanceMeters>30682.933563572</DistanceMeters>
          </Trackpoint>
          <Trackpoint>
            <Time>2019-07-19T09:05:10.000Z</Time>
            <Position>
              <LatitudeDegrees>40.712166689336299896240234375</LatitudeDegrees>
              <LongitudeDegrees>-3.3322012983262538909912109375</LongitudeDegrees>
            </Position>
            <AltitudeMeters>785.79998779296875</AltitudeMeters>
            <DistanceMeters>30740.909672742</DistanceMeters>
          </Trackpoint>
          <Trackpoint>
            <Time>2019-07-19T09:05:18.000Z</Time>
            <Position>
              <LatitudeDegrees>40.71182345040142536163330078125</LatitudeDegrees>
              <LongitudeDegrees>-3.33214388228952884674072265625</LongitudeDegrees>
            </Position>
            <AltitudeMeters>785</AltitudeMeters>
            <DistanceMeters>30779.418831054</DistanceMeters>
          </Trackpoint>
          <Trackpoint>
            <Time>2019-07-19T09:05:31.000Z</Time>
            <Position>
              <LatitudeDegrees>40.7112880982458591461181640625</LatitudeDegrees>
              <LongitudeDegrees>-3.332048915326595306396484375</LongitudeDegrees>
            </Position>
            <AltitudeMeters>785</AltitudeMeters>
            <DistanceMeters>30839.540784613</DistanceMeters>
          </Trackpoint>
          <Trackpoint>
            <Time>2019-07-19T09:05:39.000Z</Time>
            <Position>
              <LatitudeDegrees>40.71096162311732769012451171875</LatitudeDegrees>
              <LongitudeDegrees>-3.33194908685982227325439453125</LongitudeDegrees>
            </Position>
            <AltitudeMeters>784</AltitudeMeters>
            <DistanceMeters>30876.841523861</DistanceMeters>
          </Trackpoint>
          <Trackpoint>
            <Time>2019-07-19T09:05:44.000Z</Time>
            <Position>
              <LatitudeDegrees>40.7107362337410449981689453125</LatitudeDegrees>
              <LongitudeDegrees>-3.33185009658336639404296875</LongitudeDegrees>
            </Position>
            <AltitudeMeters>783</AltitudeMeters>
            <DistanceMeters>30903.281671895</DistanceMeters>
          </Trackpoint>
          <Trackpoint>
            <Time>2019-07-19T09:05:46.000Z</Time>
            <Position>
              <LatitudeDegrees>40.7105863653123378753662109375</LatitudeDegrees>
              <LongitudeDegrees>-3.3317852206528186798095703125</LongitudeDegrees>
            </Position>
            <AltitudeMeters>782.4000244140625</AltitudeMeters>
            <DistanceMeters>30920.837712712</DistanceMeters>
          </Trackpoint>
          <Trackpoint>
            <Time>2019-07-19T09:05:48.000Z</Time>
            <Position>
              <LatitudeDegrees>40.710543952882289886474609375</LatitudeDegrees>
              <LongitudeDegrees>-3.33174004219472408294677734375</LongitudeDegrees>
            </Position>
            <AltitudeMeters>782.20001220703125</AltitudeMeters>
            <DistanceMeters>30926.905300508</DistanceMeters>
          </Trackpoint>
          <Trackpoint>
            <Time>2019-07-19T09:05:50.000Z</Time>
            <Position>
              <LatitudeDegrees>40.7105132751166820526123046875</LatitudeDegrees>
              <LongitudeDegrees>-3.33160844631493091583251953125</LongitudeDegrees>
            </Position>
            <AltitudeMeters>781.79998779296875</AltitudeMeters>
            <DistanceMeters>30938.520737312</DistanceMeters>
          </Trackpoint>
          <Trackpoint>
            <Time>2019-07-19T09:05:52.000Z</Time>
            <Position>
              <LatitudeDegrees>40.7105588726699352264404296875</LatitudeDegrees>
              <LongitudeDegrees>-3.33147299475967884063720703125</LongitudeDegrees>
            </Position>
            <AltitudeMeters>781.5999755859375</AltitudeMeters>
            <DistanceMeters>30951.024606456</DistanceMeters>
          </Trackpoint>
          <Trackpoint>
            <Time>2019-07-19T09:05:54.000Z</Time>
            <Position>
              <LatitudeDegrees>40.7106341421604156494140625</LatitudeDegrees>
              <LongitudeDegrees>-3.331381045281887054443359375</LongitudeDegrees>
            </Position>
            <AltitudeMeters>781.20001220703125</AltitudeMeters>
            <DistanceMeters>30962.44205729</DistanceMeters>
          </Trackpoint>
          <Trackpoint>
            <Time>2019-07-19T09:06:03.000Z</Time>
            <Position>
              <LatitudeDegrees>40.710984170436859130859375</LatitudeDegrees>
              <LongitudeDegrees>-3.3311072923243045806884765625</LongitudeDegrees>
            </Position>
            <AltitudeMeters>781.79998779296875</AltitudeMeters>
            <DistanceMeters>31007.732431372</DistanceMeters>
          </Trackpoint>
          <Trackpoint>
            <Time>2019-07-19T09:06:07.000Z</Time>
            <Position>
              <LatitudeDegrees>40.71113579906523227691650390625</LatitudeDegrees>
              <LongitudeDegrees>-3.330969326198101043701171875</LongitudeDegrees>
            </Position>
            <AltitudeMeters>781.79998779296875</AltitudeMeters>
            <DistanceMeters>31028.23377055</DistanceMeters>
          </Trackpoint>
          <Trackpoint>
            <Time>2019-07-19T09:06:21.000Z</Time>
            <Position>
              <LatitudeDegrees>40.7116042636334896087646484375</LatitudeDegrees>
              <LongitudeDegrees>-3.330593146383762359619140625</LongitudeDegrees>
            </Position>
            <AltitudeMeters>783</AltitudeMeters>
            <DistanceMeters>31089.274363782</DistanceMeters>
          </Trackpoint>
          <Trackpoint>
            <Time>2019-07-19T09:06:22.000Z</Time>
            <Position>
              <LatitudeDegrees>40.71164064109325408935546875</LatitudeDegrees>
              <LongitudeDegrees>-3.330577723681926727294921875</LongitudeDegrees>
            </Position>
            <AltitudeMeters>783</AltitudeMeters>
            <DistanceMeters>31093.526211973</DistanceMeters>
          </Trackpoint>
          <Trackpoint>
            <Time>2019-07-19T09:06:31.000Z</Time>
            <Position>
              <LatitudeDegrees>40.7119967043399810791015625</LatitudeDegrees>
              <LongitudeDegrees>-3.3304025419056415557861328125</LongitudeDegrees>
            </Position>
            <AltitudeMeters>783.4000244140625</AltitudeMeters>
            <DistanceMeters>31135.822921713</DistanceMeters>
          </Trackpoint>
          <Trackpoint>
            <Time>2019-07-19T09:06:35.000Z</Time>
            <Position>
              <LatitudeDegrees>40.7121323235332965850830078125</LatitudeDegrees>
              <LongitudeDegrees>-3.33023917861282825469970703125</LongitudeDegrees>
            </Position>
            <AltitudeMeters>782.79998779296875</AltitudeMeters>
            <DistanceMeters>31156.263165765</DistanceMeters>
          </Trackpoint>
          <Trackpoint>
            <Time>2019-07-19T09:06:37.000Z</Time>
            <Position>
              <LatitudeDegrees>40.71221102960407733917236328125</LatitudeDegrees>
              <LongitudeDegrees>-3.33017111755907535552978515625</LongitudeDegrees>
            </Position>
            <AltitudeMeters>782.5999755859375</AltitudeMeters>
            <DistanceMeters>31166.737679061</DistanceMeters>
          </Trackpoint>
          <Trackpoint>
            <Time>2019-07-19T09:06:45.000Z</Time>
            <Position>
              <LatitudeDegrees>40.7124763168394565582275390625</LatitudeDegrees>
              <LongitudeDegrees>-3.3300437964498996734619140625</LongitudeDegrees>
            </Position>
            <AltitudeMeters>784.20001220703125</AltitudeMeters>
            <DistanceMeters>31198.157770362</DistanceMeters>
          </Trackpoint>
          <Trackpoint>
            <Time>2019-07-19T09:06:52.000Z</Time>
            <Position>
              <LatitudeDegrees>40.7126908935606479644775390625</LatitudeDegrees>
              <LongitudeDegrees>-3.329944722354412078857421875</LongitudeDegrees>
            </Position>
            <AltitudeMeters>785.4000244140625</AltitudeMeters>
            <DistanceMeters>31223.460941705</DistanceMeters>
          </Trackpoint>
          <Trackpoint>
            <Time>2019-07-19T09:07:00.000Z</Time>
            <Position>
              <LatitudeDegrees>40.7129715196788311004638671875</LatitudeDegrees>
              <LongitudeDegrees>-3.329980261623859405517578125</LongitudeDegrees>
            </Position>
            <AltitudeMeters>786.4000244140625</AltitudeMeters>
            <DistanceMeters>31254.838757034</DistanceMeters>
          </Trackpoint>
          <Trackpoint>
            <Time>2019-07-19T09:07:08.000Z</Time>
            <Position>
              <LatitudeDegrees>40.7132652215659618377685546875</LatitudeDegrees>
              <LongitudeDegrees>-3.330014459788799285888671875</LongitudeDegrees>
            </Position>
            <AltitudeMeters>787.4000244140625</AltitudeMeters>
            <DistanceMeters>31287.655459288</DistanceMeters>
          </Trackpoint>
          <Trackpoint>
            <Time>2019-07-19T09:07:21.000Z</Time>
            <Position>
              <LatitudeDegrees>40.713801495730876922607421875</LatitudeDegrees>
              <LongitudeDegrees>-3.3301703631877899169921875</LongitudeDegrees>
            </Position>
            <AltitudeMeters>787.20001220703125</AltitudeMeters>
            <DistanceMeters>31348.775885534</DistanceMeters>
          </Trackpoint>
          <Trackpoint>
            <Time>2019-07-19T09:07:33.000Z</Time>
            <Position>
              <LatitudeDegrees>40.71435495279729366302490234375</LatitudeDegrees>
              <LongitudeDegrees>-3.330292738974094390869140625</LongitudeDegrees>
            </Position>
            <AltitudeMeters>787.5999755859375</AltitudeMeters>
            <DistanceMeters>31411.235984206</DistanceMeters>
          </Trackpoint>
          <Trackpoint>
            <Time>2019-07-19T09:07:36.000Z</Time>
            <Position>
              <LatitudeDegrees>40.71449358947575092315673828125</LatitudeDegrees>
              <LongitudeDegrees>-3.33028276450932025909423828125</LongitudeDegrees>
            </Position>
            <AltitudeMeters>788.5999755859375</AltitudeMeters>
            <DistanceMeters>31426.689443419</DistanceMeters>
          </Trackpoint>
          <Trackpoint>
            <Time>2019-07-19T09:07:39.000Z</Time>
            <Position>
              <LatitudeDegrees>40.714624933898448944091796875</LatitudeDegrees>
              <LongitudeDegrees>-3.3302669227123260498046875</LongitudeDegrees>
            </Position>
            <AltitudeMeters>788.5999755859375</AltitudeMeters>
            <DistanceMeters>31441.369763729</DistanceMeters>
          </Trackpoint>
          <Trackpoint>
            <Time>2019-07-19T09:07:52.000Z</Time>
            <Position>
              <LatitudeDegrees>40.71517084725201129913330078125</LatitudeDegrees>
              <LongitudeDegrees>-3.33039768040180206298828125</LongitudeDegrees>
            </Position>
            <AltitudeMeters>788.5999755859375</AltitudeMeters>
            <DistanceMeters>31503.124334687</DistanceMeters>
          </Trackpoint>
          <Trackpoint>
            <Time>2019-07-19T09:08:04.000Z</Time>
            <Position>
              <LatitudeDegrees>40.7156832329928874969482421875</LatitudeDegrees>
              <LongitudeDegrees>-3.33066045306622982025146484375</LongitudeDegrees>
            </Position>
            <AltitudeMeters>788.4000244140625</AltitudeMeters>
            <DistanceMeters>31564.310913715</DistanceMeters>
          </Trackpoint>
          <Trackpoint>
            <Time>2019-07-19T09:08:16.000Z</Time>
            <Position>
              <LatitudeDegrees>40.7162265479564666748046875</LatitudeDegrees>
              <LongitudeDegrees>-3.3309373073279857635498046875</LongitudeDegrees>
            </Position>
            <AltitudeMeters>788.20001220703125</AltitudeMeters>
            <DistanceMeters>31629.136547495</DistanceMeters>
          </Trackpoint>
          <Trackpoint>
            <Time>2019-07-19T09:08:27.000Z</Time>
            <Position>
              <LatitudeDegrees>40.71675620041787624359130859375</LatitudeDegrees>
              <LongitudeDegrees>-3.33112380467355251312255859375</LongitudeDegrees>
            </Position>
            <AltitudeMeters>789.4000244140625</AltitudeMeters>
            <DistanceMeters>31690.151246505</DistanceMeters>
          </Trackpoint>
          <Trackpoint>
            <Time>2019-07-19T09:08:28.000Z</Time>
            <Position>
              <LatitudeDegrees>40.7168050669133663177490234375</LatitudeDegrees>
              <LongitudeDegrees>-3.33113520406186580657958984375</LongitudeDegrees>
            </Position>
            <AltitudeMeters>789.5999755859375</AltitudeMeters>
            <DistanceMeters>31695.674252773</DistanceMeters>
          </Trackpoint>
          <Trackpoint>
            <Time>2019-07-19T09:08:39.000Z</Time>
            <Position>
              <LatitudeDegrees>40.71736757643520832061767578125</LatitudeDegrees>
              <LongitudeDegrees>-3.33118113689124584197998046875</LongitudeDegrees>
            </Position>
            <AltitudeMeters>789.20001220703125</AltitudeMeters>
            <DistanceMeters>31758.402393907</DistanceMeters>
          </Trackpoint>
          <Trackpoint>
            <Time>2019-07-19T09:08:51.000Z</Time>
            <Position>
              <LatitudeDegrees>40.71793042123317718505859375</LatitudeDegrees>
              <LongitudeDegrees>-3.3312796242535114288330078125</LongitudeDegrees>
            </Position>
            <AltitudeMeters>789.79998779296875</AltitudeMeters>
            <DistanceMeters>31821.596659367</DistanceMeters>
          </Trackpoint>
          <Trackpoint>
            <Time>2019-07-19T09:09:03.000Z</Time>
            <Position>
              <LatitudeDegrees>40.71849561296403408050537109375</LatitudeDegrees>
              <LongitudeDegrees>-3.33133067004382610321044921875</LongitudeDegrees>
            </Position>
            <AltitudeMeters>790</AltitudeMeters>
            <DistanceMeters>31884.650876493</DistanceMeters>
          </Trackpoint>
          <Trackpoint>
            <Time>2019-07-19T09:09:15.000Z</Time>
            <Position>
              <LatitudeDegrees>40.7190306298434734344482421875</LatitudeDegrees>
              <LongitudeDegrees>-3.3314351923763751983642578125</LongitudeDegrees>
            </Position>
            <AltitudeMeters>790.5999755859375</AltitudeMeters>
            <DistanceMeters>31944.848631244</DistanceMeters>
          </Trackpoint>
          <Trackpoint>
            <Time>2019-07-19T09:09:20.000Z</Time>
            <Position>
              <LatitudeDegrees>40.7192361541092395782470703125</LatitudeDegrees>
              <LongitudeDegrees>-3.33147458732128143310546875</LongitudeDegrees>
            </Position>
            <AltitudeMeters>791.20001220703125</AltitudeMeters>
            <DistanceMeters>31967.964160295</DistanceMeters>
          </Trackpoint>
          <Trackpoint>
            <Time>2019-07-19T09:09:26.000Z</Time>
            <Position>
              <LatitudeDegrees>40.71946590207517147064208984375</LatitudeDegrees>
              <LongitudeDegrees>-3.3314720727503299713134765625</LongitudeDegrees>
            </Position>
            <AltitudeMeters>791.79998779296875</AltitudeMeters>
            <DistanceMeters>31993.536588925</DistanceMeters>
          </Trackpoint>
          <Trackpoint>
            <Time>2019-07-19T09:09:38.000Z</Time>
            <Position>
              <LatitudeDegrees>40.7198171876370906829833984375</LatitudeDegrees>
              <LongitudeDegrees>-3.33145623095333576202392578125</LongitudeDegrees>
            </Position>
            <AltitudeMeters>792.79998779296875</AltitudeMeters>
            <DistanceMeters>32032.658292064</DistanceMeters>
          </Trackpoint>
          <Trackpoint>
            <Time>2019-07-19T09:09:44.000Z</Time>
            <Position>
              <LatitudeDegrees>40.719889104366302490234375</LatitudeDegrees>
              <LongitudeDegrees>-3.331451453268527984619140625</LongitudeDegrees>
            </Position>
            <AltitudeMeters>792.79998779296875</AltitudeMeters>
            <DistanceMeters>32040.672712426</DistanceMeters>
          </Trackpoint>
          <Trackpoint>
            <Time>2019-07-19T09:13:52.000Z</Time>
            <Position>
              <LatitudeDegrees>40.7198886014521121978759765625</LatitudeDegrees>
              <LongitudeDegrees>-3.33147785626351833343505859375</LongitudeDegrees>
            </Position>
            <AltitudeMeters>792.79998779296875</AltitudeMeters>
            <DistanceMeters>32042.901286419</DistanceMeters>
          </Trackpoint>
          <Trackpoint>
            <Time>2019-07-19T09:13:55.000Z</Time>
            <Position>
              <LatitudeDegrees>40.719924308359622955322265625</LatitudeDegrees>
              <LongitudeDegrees>-3.33156041800975799560546875</LongitudeDegrees>
            </Position>
            <AltitudeMeters>792.4000244140625</AltitudeMeters>
            <DistanceMeters>32050.92021243</DistanceMeters>
          </Trackpoint>
          <Trackpoint>
            <Time>2019-07-19T09:14:07.000Z</Time>
            <Position>
              <LatitudeDegrees>40.72028850205242633819580078125</LatitudeDegrees>
              <LongitudeDegrees>-3.33174071274697780609130859375</LongitudeDegrees>
            </Position>
            <AltitudeMeters>792.5999755859375</AltitudeMeters>
            <DistanceMeters>32094.21507596</DistanceMeters>
          </Trackpoint>
          <Trackpoint>
            <Time>2019-07-19T09:14:20.000Z</Time>
            <Position>
              <LatitudeDegrees>40.72083399631083011627197265625</LatitudeDegrees>
              <LongitudeDegrees>-3.33198077045381069183349609375</LongitudeDegrees>
            </Position>
            <AltitudeMeters>792.5999755859375</AltitudeMeters>
            <DistanceMeters>32158.217666825</DistanceMeters>
          </Trackpoint>
          <Trackpoint>
            <Time>2019-07-19T09:14:32.000Z</Time>
            <Position>
              <LatitudeDegrees>40.72140254080295562744140625</LatitudeDegrees>
              <LongitudeDegrees>-3.33216986618936061859130859375</LongitudeDegrees>
            </Position>
            <AltitudeMeters>792.5999755859375</AltitudeMeters>
            <DistanceMeters>32223.477293188</DistanceMeters>
          </Trackpoint>
          <Trackpoint>
            <Time>2019-07-19T09:14:43.000Z</Time>
            <Position>
              <LatitudeDegrees>40.7219381444156169891357421875</LatitudeDegrees>
              <LongitudeDegrees>-3.3322690241038799285888671875</LongitudeDegrees>
            </Position>
            <AltitudeMeters>793</AltitudeMeters>
            <DistanceMeters>32283.675047938</DistanceMeters>
          </Trackpoint>
          <Trackpoint>
            <Time>2019-07-19T09:14:52.000Z</Time>
            <Position>
              <LatitudeDegrees>40.72236050851643085479736328125</LatitudeDegrees>
              <LongitudeDegrees>-3.33234622143208980560302734375</LongitudeDegrees>
            </Position>
            <AltitudeMeters>793.79998779296875</AltitudeMeters>
            <DistanceMeters>32331.133828444</DistanceMeters>
          </Trackpoint>
          <Trackpoint>
            <Time>2019-07-19T09:15:04.000Z</Time>
            <Position>
              <LatitudeDegrees>40.72289384901523590087890625</LatitudeDegrees>
              <LongitudeDegrees>-3.3325587026774883270263671875</LongitudeDegrees>
            </Position>
            <AltitudeMeters>794.79998779296875</AltitudeMeters>
            <DistanceMeters>32393.142527757</DistanceMeters>
          </Trackpoint>
          <Trackpoint>
            <Time>2019-07-19T09:15:05.000Z</Time>
            <Position>
              <LatitudeDegrees>40.72293550707399845123291015625</LatitudeDegrees>
              <LongitudeDegrees>-3.33258544094860553741455078125</LongitudeDegrees>
            </Position>
            <AltitudeMeters>795.20001220703125</AltitudeMeters>
            <DistanceMeters>32398.29854803</DistanceMeters>
          </Trackpoint>
          <Trackpoint>
            <Time>2019-07-19T09:15:16.000Z</Time>
            <Position>
              <LatitudeDegrees>40.723440684378147125244140625</LatitudeDegrees>
              <LongitudeDegrees>-3.33286656998097896575927734375</LongitudeDegrees>
            </Position>
            <AltitudeMeters>795.5999755859375</AltitudeMeters>
            <DistanceMeters>32459.321830342</DistanceMeters>
          </Trackpoint>
          <Trackpoint>
            <Time>2019-07-19T09:15:19.000Z</Time>
            <Position>
              <LatitudeDegrees>40.72358728386461734771728515625</LatitudeDegrees>
              <LongitudeDegrees>-3.3329208008944988250732421875</LongitudeDegrees>
            </Position>
            <AltitudeMeters>796.20001220703125</AltitudeMeters>
            <DistanceMeters>32476.268053846</DistanceMeters>
          </Trackpoint>
          <Trackpoint>
            <Time>2019-07-19T09:15:30.000Z</Time>
            <Position>
              <LatitudeDegrees>40.72411249391734600067138671875</LatitudeDegrees>
              <LongitudeDegrees>-3.33311215974390506744384765625</LongitudeDegrees>
            </Position>
            <AltitudeMeters>796.5999755859375</AltitudeMeters>
            <DistanceMeters>32536.91252164</DistanceMeters>
          </Trackpoint>
          <Trackpoint>
            <Time>2019-07-19T09:15:41.000Z</Time>
            <Position>
              <LatitudeDegrees>40.72463820688426494598388671875</LatitudeDegrees>
              <LongitudeDegrees>-3.333308212459087371826171875</LongitudeDegrees>
            </Position>
            <AltitudeMeters>797.4000244140625</AltitudeMeters>
            <DistanceMeters>32597.71744232</DistanceMeters>
          </Trackpoint>
          <Trackpoint>
            <Time>2019-07-19T09:15:52.000Z</Time>
            <Position>
              <LatitudeDegrees>40.7251762412488460540771484375</LatitudeDegrees>
              <LongitudeDegrees>-3.333439640700817108154296875</LongitudeDegrees>
            </Position>
            <AltitudeMeters>798</AltitudeMeters>
            <DistanceMeters>32658.619262152</DistanceMeters>
          </Trackpoint>
          <Trackpoint>
            <Time>2019-07-19T09:16:03.000Z</Time>
            <Position>
              <LatitudeDegrees>40.72571578435599803924560546875</LatitudeDegrees>
              <LongitudeDegrees>-3.3336560614407062530517578125</LongitudeDegrees>
            </Position>
            <AltitudeMeters>797.79998779296875</AltitudeMeters>
            <DistanceMeters>32721.384820621</DistanceMeters>
          </Trackpoint>
          <Trackpoint>
            <Time>2019-07-19T09:16:14.000Z</Time>
            <Position>
              <LatitudeDegrees>40.7262189500033855438232421875</LatitudeDegrees>
              <LongitudeDegrees>-3.3339174091815948486328125</LongitudeDegrees>
            </Position>
            <AltitudeMeters>798.4000244140625</AltitudeMeters>
            <DistanceMeters>32781.570573625</DistanceMeters>
          </Trackpoint>
          <Trackpoint>
            <Time>2019-07-19T09:16:25.000Z</Time>
            <Position>
              <LatitudeDegrees>40.7267327606678009033203125</LatitudeDegrees>
              <LongitudeDegrees>-3.33417154848575592041015625</LongitudeDegrees>
            </Position>
            <AltitudeMeters>798</AltitudeMeters>
            <DistanceMeters>32842.64429544</DistanceMeters>
          </Trackpoint>
          <Trackpoint>
            <Time>2019-07-19T09:16:26.000Z</Time>
            <Position>
              <LatitudeDegrees>40.7267775200307369232177734375</LatitudeDegrees>
              <LongitudeDegrees>-3.3341951854526996612548828125</LongitudeDegrees>
            </Position>
            <AltitudeMeters>798</AltitudeMeters>
            <DistanceMeters>32848.009729598</DistanceMeters>
          </Trackpoint>
          <Trackpoint>
            <Time>2019-07-19T09:16:38.000Z</Time>
            <Position>
              <LatitudeDegrees>40.72725503705441951751708984375</LatitudeDegrees>
              <LongitudeDegrees>-3.3346176333725452423095703125</LongitudeDegrees>
            </Position>
            <AltitudeMeters>798.79998779296875</AltitudeMeters>
            <DistanceMeters>32911.9976455</DistanceMeters>
          </Trackpoint>
          <Trackpoint>
            <Time>2019-07-19T09:16:49.000Z</Time>
            <Position>
              <LatitudeDegrees>40.72769123129546642303466796875</LatitudeDegrees>
              <LongitudeDegrees>-3.33507956005632877349853515625</LongitudeDegrees>
            </Position>
            <AltitudeMeters>798.5999755859375</AltitudeMeters>
            <DistanceMeters>32974.247759592</DistanceMeters>
          </Trackpoint>
          <Trackpoint>
            <Time>2019-07-19T09:17:00.000Z</Time>
            <Position>
              <LatitudeDegrees>40.72819649241864681243896484375</LatitudeDegrees>
              <LongitudeDegrees>-3.3353887684643268585205078125</LongitudeDegrees>
            </Position>
            <AltitudeMeters>799</AltitudeMeters>
            <DistanceMeters>33036.23767031</DistanceMeters>
          </Trackpoint>
          <Trackpoint>
            <Time>2019-07-19T09:17:11.000Z</Time>
            <Position>
              <LatitudeDegrees>40.72873477824032306671142578125</LatitudeDegrees>
              <LongitudeDegrees>-3.33549831993877887725830078125</LongitudeDegrees>
            </Position>
            <AltitudeMeters>798.5999755859375</AltitudeMeters>
            <DistanceMeters>33096.858234637</DistanceMeters>
          </Trackpoint>
          <Trackpoint>
            <Time>2019-07-19T09:17:21.000Z</Time>
            <Position>
              <LatitudeDegrees>40.7292273826897144317626953125</LatitudeDegrees>
              <LongitudeDegrees>-3.33554525859653949737548828125</LongitudeDegrees>
            </Position>
            <AltitudeMeters>799.4000244140625</AltitudeMeters>
            <DistanceMeters>33151.828868623</DistanceMeters>
          </Trackpoint>
          <Trackpoint>
            <Time>2019-07-19T09:17:27.000Z</Time>
            <Position>
              <LatitudeDegrees>40.7294949330389499664306640625</LatitudeDegrees>
              <LongitudeDegrees>-3.33554425276815891265869140625</LongitudeDegrees>
            </Position>
            <AltitudeMeters>799.5999755859375</AltitudeMeters>
            <DistanceMeters>33181.607730203</DistanceMeters>
          </Trackpoint>
          <Trackpoint>
            <Time>2019-07-19T09:17:33.000Z</Time>
            <Position>
              <LatitudeDegrees>40.7297467254102230072021484375</LatitudeDegrees>
              <LongitudeDegrees>-3.3354608528316020965576171875</LongitudeDegrees>
            </Position>
            <AltitudeMeters>800.4000244140625</AltitudeMeters>
            <DistanceMeters>33210.501946192</DistanceMeters>
          </Trackpoint>
          <Trackpoint>
            <Time>2019-07-19T09:17:46.000Z</Time>
            <Position>
              <LatitudeDegrees>40.73026187717914581298828125</LatitudeDegrees>
              <LongitudeDegrees>-3.3351981639862060546875</LongitudeDegrees>
            </Position>
            <AltitudeMeters>801.20001220703125</AltitudeMeters>
            <DistanceMeters>33271.971304223</DistanceMeters>
          </Trackpoint>
          <Trackpoint>
            <Time>2019-07-19T09:17:49.000Z</Time>
            <Position>
              <LatitudeDegrees>40.730394981801509857177734375</LatitudeDegrees>
              <LongitudeDegrees>-3.335179723799228668212890625</LongitudeDegrees>
            </Position>
            <AltitudeMeters>801.4000244140625</AltitudeMeters>
            <DistanceMeters>33286.867480526</DistanceMeters>
          </Trackpoint>
          <Trackpoint>
            <Time>2019-07-19T09:17:51.000Z</Time>
            <Position>
              <LatitudeDegrees>40.73047243058681488037109375</LatitudeDegrees>
              <LongitudeDegrees>-3.33517863415181636810302734375</LongitudeDegrees>
            </Position>
            <AltitudeMeters>801.79998779296875</AltitudeMeters>
            <DistanceMeters>33295.488242043</DistanceMeters>
          </Trackpoint>
          <Trackpoint>
            <Time>2019-07-19T09:17:56.000Z</Time>
            <Position>
              <LatitudeDegrees>40.7306677289307117462158203125</LatitudeDegrees>
              <LongitudeDegrees>-3.33518207073211669921875</LongitudeDegrees>
            </Position>
            <AltitudeMeters>802.79998779296875</AltitudeMeters>
            <DistanceMeters>33317.227147734</DistanceMeters>
          </Trackpoint>
          <Trackpoint>
            <Time>2019-07-19T09:18:09.000Z</Time>
            <Position>
              <LatitudeDegrees>40.73121665976941585540771484375</LatitudeDegrees>
              <LongitudeDegrees>-3.335323221981525421142578125</LongitudeDegrees>
            </Position>
            <AltitudeMeters>802.4000244140625</AltitudeMeters>
            <DistanceMeters>33379.473417585</DistanceMeters>
          </Trackpoint>
          <Trackpoint>
            <Time>2019-07-19T09:18:12.000Z</Time>
            <Position>
              <LatitudeDegrees>40.7313409633934497833251953125</LatitudeDegrees>
              <LongitudeDegrees>-3.335392288863658905029296875</LongitudeDegrees>
            </Position>
            <AltitudeMeters>802.4000244140625</AltitudeMeters>
            <DistanceMeters>33394.485232523</DistanceMeters>
          </Trackpoint>
          <Trackpoint>
            <Time>2019-07-19T09:18:24.000Z</Time>
            <Position>
              <LatitudeDegrees>40.73186491616070270538330078125</LatitudeDegrees>
              <LongitudeDegrees>-3.33563041873276233673095703125</LongitudeDegrees>
            </Position>
            <AltitudeMeters>803.5999755859375</AltitudeMeters>
            <DistanceMeters>33456.163719492</DistanceMeters>
          </Trackpoint>
          <Trackpoint>
            <Time>2019-07-19T09:18:36.000Z</Time>
            <Position>
              <LatitudeDegrees>40.7323980890214443206787109375</LatitudeDegrees>
              <LongitudeDegrees>-3.33593250252306461334228515625</LongitudeDegrees>
            </Position>
            <AltitudeMeters>803.79998779296875</AltitudeMeters>
            <DistanceMeters>33520.745051914</DistanceMeters>
          </Trackpoint>
          <Trackpoint>
            <Time>2019-07-19T09:18:42.000Z</Time>
            <Position>
              <LatitudeDegrees>40.73268868960440158843994140625</LatitudeDegrees>
              <LongitudeDegrees>-3.33601850084960460662841796875</LongitudeDegrees>
            </Position>
            <AltitudeMeters>803.5999755859375</AltitudeMeters>
            <DistanceMeters>33553.892761814</DistanceMeters>
          </Trackpoint>
          <Trackpoint>
            <Time>2019-07-19T09:18:53.000Z</Time>
            <Position>
              <LatitudeDegrees>40.73325178585946559906005859375</LatitudeDegrees>
              <LongitudeDegrees>-3.33585941232740879058837890625</LongitudeDegrees>
            </Position>
            <AltitudeMeters>802.5999755859375</AltitudeMeters>
            <DistanceMeters>33617.986713296</DistanceMeters>
          </Trackpoint>
          <Trackpoint>
            <Time>2019-07-19T09:19:05.000Z</Time>
            <Position>
              <LatitudeDegrees>40.73376475833356380462646484375</LatitudeDegrees>
              <LongitudeDegrees>-3.33560946397483348846435546875</LongitudeDegrees>
            </Position>
            <AltitudeMeters>803.4000244140625</AltitudeMeters>
            <DistanceMeters>33678.848931444</DistanceMeters>
          </Trackpoint>
          <Trackpoint>
            <Time>2019-07-19T09:19:10.000Z</Time>
            <Position>
              <LatitudeDegrees>40.73397648520767688751220703125</LatitudeDegrees>
              <LongitudeDegrees>-3.33548876456916332244873046875</LongitudeDegrees>
            </Position>
            <AltitudeMeters>804</AltitudeMeters>
            <DistanceMeters>33704.5191632</DistanceMeters>
          </Trackpoint>
          <Trackpoint>
            <Time>2019-07-19T09:19:15.000Z</Time>
            <Position>
              <LatitudeDegrees>40.73418058454990386962890625</LatitudeDegrees>
              <LongitudeDegrees>-3.33534023724496364593505859375</LongitudeDegrees>
            </Position>
            <AltitudeMeters>804</AltitudeMeters>
            <DistanceMeters>33730.460586001</DistanceMeters>
          </Trackpoint>
          <Trackpoint>
            <Time>2019-07-19T09:19:22.000Z</Time>
            <Position>
              <LatitudeDegrees>40.7344573549926280975341796875</LatitudeDegrees>
              <LongitudeDegrees>-3.33519003354012966156005859375</LongitudeDegrees>
            </Position>
            <AltitudeMeters>805</AltitudeMeters>
            <DistanceMeters>33763.768771059</DistanceMeters>
          </Trackpoint>
          <Trackpoint>
            <Time>2019-07-19T09:19:32.000Z</Time>
            <Position>
              <LatitudeDegrees>40.73484920896589756011962890625</LatitudeDegrees>
              <LongitudeDegrees>-3.33501937799155712127685546875</LongitudeDegrees>
            </Position>
            <AltitudeMeters>806</AltitudeMeters>
            <DistanceMeters>33809.696470944</DistanceMeters>
          </Trackpoint>
          <Trackpoint>
            <Time>2019-07-19T09:19:47.000Z</Time>
            <Position>
              <LatitudeDegrees>40.7354246266186237335205078125</LatitudeDegrees>
              <LongitudeDegrees>-3.33495609462261199951171875</LongitudeDegrees>
            </Position>
            <AltitudeMeters>806.79998779296875</AltitudeMeters>
            <DistanceMeters>33873.963621688</DistanceMeters>
          </Trackpoint>
          <Trackpoint>
            <Time>2019-07-19T09:19:53.000Z</Time>
            <Position>
              <LatitudeDegrees>40.7356563024222850799560546875</LatitudeDegrees>
              <LongitudeDegrees>-3.334979899227619171142578125</LongitudeDegrees>
            </Position>
            <AltitudeMeters>807</AltitudeMeters>
            <DistanceMeters>33899.827477412</DistanceMeters>
          </Trackpoint>
          <Trackpoint>
            <Time>2019-07-19T09:20:07.000Z</Time>
            <Position>
              <LatitudeDegrees>40.736226104199886322021484375</LatitudeDegrees>
              <LongitudeDegrees>-3.33489046432077884674072265625</LongitudeDegrees>
            </Position>
            <AltitudeMeters>808</AltitudeMeters>
            <DistanceMeters>33963.694408296</DistanceMeters>
          </Trackpoint>
          <Trackpoint>
            <Time>2019-07-19T09:20:08.000Z</Time>
            <Position>
              <LatitudeDegrees>40.73626792989671230316162109375</LatitudeDegrees>
              <LongitudeDegrees>-3.33487353287637233734130859375</LongitudeDegrees>
            </Position>
            <AltitudeMeters>808</AltitudeMeters>
            <DistanceMeters>33968.564005892</DistanceMeters>
          </Trackpoint>
          <Trackpoint>
            <Time>2019-07-19T09:20:12.000Z</Time>
            <Position>
              <LatitudeDegrees>40.7364183850586414337158203125</LatitudeDegrees>
              <LongitudeDegrees>-3.33480647765100002288818359375</LongitudeDegrees>
            </Position>
            <AltitudeMeters>808.4000244140625</AltitudeMeters>
            <DistanceMeters>33986.239230211</DistanceMeters>
          </Trackpoint>
          <Trackpoint>
            <Time>2019-07-19T09:20:20.000Z</Time>
            <Position>
              <LatitudeDegrees>40.73676765896379947662353515625</LatitudeDegrees>
              <LongitudeDegrees>-3.33484889008104801177978515625</LongitudeDegrees>
            </Position>
            <AltitudeMeters>807</AltitudeMeters>
            <DistanceMeters>34025.278443598</DistanceMeters>
          </Trackpoint>
          <Trackpoint>
            <Time>2019-07-19T09:20:21.000Z</Time>
            <Position>
              <LatitudeDegrees>40.73681677691638469696044921875</LatitudeDegrees>
              <LongitudeDegrees>-3.3348590321838855743408203125</LongitudeDegrees>
            </Position>
            <AltitudeMeters>806.79998779296875</AltitudeMeters>
            <DistanceMeters>34030.812067115</DistanceMeters>
          </Trackpoint>
          <Trackpoint>
            <Time>2019-07-19T09:20:23.000Z</Time>
            <Position>
              <LatitudeDegrees>40.73692339472472667694091796875</LatitudeDegrees>
              <LongitudeDegrees>-3.3348483033478260040283203125</LongitudeDegrees>
            </Position>
            <AltitudeMeters>806.5999755859375</AltitudeMeters>
            <DistanceMeters>34042.713570343</DistanceMeters>
          </Trackpoint>
          <Trackpoint>
            <Time>2019-07-19T09:20:25.000Z</Time>
            <Position>
              <LatitudeDegrees>40.73701308108866214752197265625</LatitudeDegrees>
              <LongitudeDegrees>-3.3347966708242893218994140625</LongitudeDegrees>
            </Position>
            <AltitudeMeters>806.5999755859375</AltitudeMeters>
            <DistanceMeters>34053.604394651</DistanceMeters>
          </Trackpoint>
          <Trackpoint>
            <Time>2019-07-19T09:20:28.000Z</Time>
            <Position>
              <LatitudeDegrees>40.7371295057237148284912109375</LatitudeDegrees>
              <LongitudeDegrees>-3.33470304496586322784423828125</LongitudeDegrees>
            </Position>
            <AltitudeMeters>806.20001220703125</AltitudeMeters>
            <DistanceMeters>34068.778944045</DistanceMeters>
          </Trackpoint>
          <Trackpoint>
            <Time>2019-07-19T09:20:35.000Z</Time>
            <Position>
              <LatitudeDegrees>40.73744541965425014495849609375</LatitudeDegrees>
              <LongitudeDegrees>-3.33453590981662273406982421875</LongitudeDegrees>
            </Position>
            <AltitudeMeters>806.20001220703125</AltitudeMeters>
            <DistanceMeters>34106.660888139</DistanceMeters>
          </Trackpoint>
          <Trackpoint>
            <Time>2019-07-19T09:20:38.000Z</Time>
            <Position>
              <LatitudeDegrees>40.7375635206699371337890625</LatitudeDegrees>
              <LongitudeDegrees>-3.334428705275058746337890625</LongitudeDegrees>
            </Position>
            <AltitudeMeters>806</AltitudeMeters>
            <DistanceMeters>34122.614625464</DistanceMeters>
          </Trackpoint>
          <Trackpoint>
            <Time>2019-07-19T09:20:40.000Z</Time>
            <Position>
              <LatitudeDegrees>40.73763786815106868743896484375</LatitudeDegrees>
              <LongitudeDegrees>-3.33436927758157253265380859375</LongitudeDegrees>
            </Position>
            <AltitudeMeters>806</AltitudeMeters>
            <DistanceMeters>34132.289166401</DistanceMeters>
          </Trackpoint>
          <Trackpoint>
            <Time>2019-07-19T09:20:59.000Z</Time>
            <Position>
              <LatitudeDegrees>40.7381214201450347900390625</LatitudeDegrees>
              <LongitudeDegrees>-3.334071300923824310302734375</LongitudeDegrees>
            </Position>
            <AltitudeMeters>806.79998779296875</AltitudeMeters>
            <DistanceMeters>34191.687020294</DistanceMeters>
          </Trackpoint>
          <Trackpoint>
            <Time>2019-07-19T09:21:05.000Z</Time>
            <Position>
              <LatitudeDegrees>40.7382930815219879150390625</LatitudeDegrees>
              <LongitudeDegrees>-3.33395839668810367584228515625</LongitudeDegrees>
            </Position>
            <AltitudeMeters>807.20001220703125</AltitudeMeters>
            <DistanceMeters>34213.034428517</DistanceMeters>
          </Trackpoint>
          <Trackpoint>
            <Time>2019-07-19T09:21:24.000Z</Time>
            <Position>
              <LatitudeDegrees>40.73883262462913990020751953125</LatitudeDegrees>
              <LongitudeDegrees>-3.33401941694319248199462890625</LongitudeDegrees>
            </Position>
            <AltitudeMeters>806.79998779296875</AltitudeMeters>
            <DistanceMeters>34273.306840391</DistanceMeters>
          </Trackpoint>
          <Trackpoint>
            <Time>2019-07-19T09:21:42.000Z</Time>
            <Position>
              <LatitudeDegrees>40.73939488269388675689697265625</LatitudeDegrees>
              <LongitudeDegrees>-3.33410675637423992156982421875</LongitudeDegrees>
            </Position>
            <AltitudeMeters>807</AltitudeMeters>
            <DistanceMeters>34336.319225942</DistanceMeters>
          </Trackpoint>
          <Trackpoint>
            <Time>2019-07-19T09:21:58.000Z</Time>
            <Position>
              <LatitudeDegrees>40.7399434782564640045166015625</LatitudeDegrees>
              <LongitudeDegrees>-3.33425343967974185943603515625</LongitudeDegrees>
            </Position>
            <AltitudeMeters>806.4000244140625</AltitudeMeters>
            <DistanceMeters>34398.619366047</DistanceMeters>
          </Trackpoint>
          <Trackpoint>
            <Time>2019-07-19T09:22:09.000Z</Time>
            <Position>
              <LatitudeDegrees>40.7402529381215572357177734375</LatitudeDegrees>
              <LongitudeDegrees>-3.3342692814767360687255859375</LongitudeDegrees>
            </Position>
            <AltitudeMeters>808.4000244140625</AltitudeMeters>
            <DistanceMeters>34433.088792184</DistanceMeters>
          </Trackpoint>
          <Trackpoint>
            <Time>2019-07-19T09:22:12.000Z</Time>
            <Position>
              <LatitudeDegrees>40.740324519574642181396484375</LatitudeDegrees>
              <LongitudeDegrees>-3.334238268435001373291015625</LongitudeDegrees>
            </Position>
            <AltitudeMeters>809.4000244140625</AltitudeMeters>
            <DistanceMeters>34441.473789214</DistanceMeters>
          </Trackpoint>
          <Trackpoint>
            <Time>2019-07-19T09:22:21.000Z</Time>
            <Position>
              <LatitudeDegrees>40.74057874269783496856689453125</LatitudeDegrees>
              <LongitudeDegrees>-3.33417967893183231353759765625</LongitudeDegrees>
            </Position>
            <AltitudeMeters>810.4000244140625</AltitudeMeters>
            <DistanceMeters>34470.197332943</DistanceMeters>
          </Trackpoint>
          <Trackpoint>
            <Time>2019-07-19T09:22:32.000Z</Time>
            <Position>
              <LatitudeDegrees>40.74097017757594585418701171875</LatitudeDegrees>
              <LongitudeDegrees>-3.33435603417456150054931640625</LongitudeDegrees>
            </Position>
            <AltitudeMeters>810.79998779296875</AltitudeMeters>
            <DistanceMeters>34516.233240243</DistanceMeters>
          </Trackpoint>
          <Trackpoint>
            <Time>2019-07-19T09:22:40.000Z</Time>
            <Position>
              <LatitudeDegrees>40.74124342761933803558349609375</LatitudeDegrees>
              <LongitudeDegrees>-3.33454295061528682708740234375</LongitudeDegrees>
            </Position>
            <AltitudeMeters>810.20001220703125</AltitudeMeters>
            <DistanceMeters>34550.488492594</DistanceMeters>
          </Trackpoint>
          <Trackpoint>
            <Time>2019-07-19T09:22:52.000Z</Time>
            <Position>
              <LatitudeDegrees>40.74165078811347484588623046875</LatitudeDegrees>
              <LongitudeDegrees>-3.33467178046703338623046875</LongitudeDegrees>
            </Position>
            <AltitudeMeters>811.5999755859375</AltitudeMeters>
            <DistanceMeters>34597.111953339</DistanceMeters>
          </Trackpoint>
          <Trackpoint>
            <Time>2019-07-19T09:22:55.000Z</Time>
            <Position>
              <LatitudeDegrees>40.74177031405270099639892578125</LatitudeDegrees>
              <LongitudeDegrees>-3.3346172980964183807373046875</LongitudeDegrees>
            </Position>
            <AltitudeMeters>811.79998779296875</AltitudeMeters>
            <DistanceMeters>34611.186818064</DistanceMeters>
          </Trackpoint>
          <Trackpoint>
            <Time>2019-07-19T09:23:06.000Z</Time>
            <Position>
              <LatitudeDegrees>40.742202065885066986083984375</LatitudeDegrees>
              <LongitudeDegrees>-3.334360979497432708740234375</LongitudeDegrees>
            </Position>
            <AltitudeMeters>812.4000244140625</AltitudeMeters>
            <DistanceMeters>34663.87910976</DistanceMeters>
          </Trackpoint>
          <Trackpoint>
            <Time>2019-07-19T09:23:08.000Z</Time>
            <Position>
              <LatitudeDegrees>40.74228378944098949432373046875</LatitudeDegrees>
              <LongitudeDegrees>-3.33436391316354274749755859375</LongitudeDegrees>
            </Position>
            <AltitudeMeters>812.5999755859375</AltitudeMeters>
            <DistanceMeters>34672.978879042</DistanceMeters>
          </Trackpoint>
          <Trackpoint>
            <Time>2019-07-19T09:23:22.000Z</Time>
            <Position>
              <LatitudeDegrees>40.742855854332447052001953125</LatitudeDegrees>
              <LongitudeDegrees>-3.334424011409282684326171875</LongitudeDegrees>
            </Position>
            <AltitudeMeters>813.5999755859375</AltitudeMeters>
            <DistanceMeters>34736.852172112</DistanceMeters>
          </Trackpoint>
          <Trackpoint>
            <Time>2019-07-19T09:23:36.000Z</Time>
            <Position>
              <LatitudeDegrees>40.74335197918117046356201171875</LatitudeDegrees>
              <LongitudeDegrees>-3.3341636694967746734619140625</LongitudeDegrees>
            </Position>
            <AltitudeMeters>814</AltitudeMeters>
            <DistanceMeters>34796.276016932</DistanceMeters>
          </Trackpoint>
          <Trackpoint>
            <Time>2019-07-19T09:23:47.000Z</Time>
            <Position>
              <LatitudeDegrees>40.7436811365187168121337890625</LatitudeDegrees>
              <LongitudeDegrees>-3.3338790200650691986083984375</LongitudeDegrees>
            </Position>
            <AltitudeMeters>814.79998779296875</AltitudeMeters>
            <DistanceMeters>34840.075086213</DistanceMeters>
          </Trackpoint>
          <Trackpoint>
            <Time>2019-07-19T09:24:01.000Z</Time>
            <Position>
              <LatitudeDegrees>40.7441672869026660919189453125</LatitudeDegrees>
              <LongitudeDegrees>-3.33360149525105953216552734375</LongitudeDegrees>
            </Position>
            <AltitudeMeters>816</AltitudeMeters>
            <DistanceMeters>34899.02865194</DistanceMeters>
          </Trackpoint>
          <Trackpoint>
            <Time>2019-07-19T09:24:14.000Z</Time>
            <Position>
              <LatitudeDegrees>40.74471898376941680908203125</LatitudeDegrees>
              <LongitudeDegrees>-3.333428241312503814697265625</LongitudeDegrees>
            </Position>
            <AltitudeMeters>816</AltitudeMeters>
            <DistanceMeters>34962.147710446</DistanceMeters>
          </Trackpoint>
          <Trackpoint>
            <Time>2019-07-19T09:24:21.000Z</Time>
            <Position>
              <LatitudeDegrees>40.74494118802249431610107421875</LatitudeDegrees>
              <LongitudeDegrees>-3.33330075256526470184326171875</LongitudeDegrees>
            </Position>
            <AltitudeMeters>817.20001220703125</AltitudeMeters>
            <DistanceMeters>34989.114878936</DistanceMeters>
          </Trackpoint>
          <Trackpoint>
            <Time>2019-07-19T09:24:24.000Z</Time>
            <Position>
              <LatitudeDegrees>40.74503120966255664825439453125</LatitudeDegrees>
              <LongitudeDegrees>-3.33325934596359729766845703125</LongitudeDegrees>
            </Position>
            <AltitudeMeters>818.20001220703125</AltitudeMeters>
            <DistanceMeters>34999.724729686</DistanceMeters>
          </Trackpoint>
          <Trackpoint>
            <Time>2019-07-19T09:24:29.000Z</Time>
            <Position>
              <LatitudeDegrees>40.74517940171062946319580078125</LatitudeDegrees>
              <LongitudeDegrees>-3.33318675868213176727294921875</LongitudeDegrees>
            </Position>
            <AltitudeMeters>819.4000244140625</AltitudeMeters>
            <DistanceMeters>35017.317765246</DistanceMeters>
          </Trackpoint>
          <Trackpoint>
            <Time>2019-07-19T09:24:37.000Z</Time>
            <Position>
              <LatitudeDegrees>40.74542096816003322601318359375</LatitudeDegrees>
              <LongitudeDegrees>-3.33320327103137969970703125</LongitudeDegrees>
            </Position>
            <AltitudeMeters>820.4000244140625</AltitudeMeters>
            <DistanceMeters>35044.240696664</DistanceMeters>
          </Trackpoint>
          <Trackpoint>
            <Time>2019-07-19T09:24:41.000Z</Time>
            <Position>
              <LatitudeDegrees>40.74564744718372821807861328125</LatitudeDegrees>
              <LongitudeDegrees>-3.33340452052652835845947265625</LongitudeDegrees>
            </Position>
            <AltitudeMeters>818</AltitudeMeters>
            <DistanceMeters>35074.628451059</DistanceMeters>
          </Trackpoint>
          <Trackpoint>
            <Time>2019-07-19T09:24:43.000Z</Time>
            <Position>
              <LatitudeDegrees>40.7457675598561763763427734375</LatitudeDegrees>
              <LongitudeDegrees>-3.33353276364505290985107421875</LongitudeDegrees>
            </Position>
            <AltitudeMeters>816.79998779296875</AltitudeMeters>
            <DistanceMeters>35091.823298046</DistanceMeters>
          </Trackpoint>
          <Trackpoint>
            <Time>2019-07-19T09:24:47.000Z</Time>
            <Position>
              <LatitudeDegrees>40.74596277438104152679443359375</LatitudeDegrees>
              <LongitudeDegrees>-3.333707191050052642822265625</LongitudeDegrees>
            </Position>
            <AltitudeMeters>816.20001220703125</AltitudeMeters>
            <DistanceMeters>35118.06099817</DistanceMeters>
          </Trackpoint>
          <Trackpoint>
            <Time>2019-07-19T09:24:53.000Z</Time>
            <Position>
              <LatitudeDegrees>40.74619847349822521209716796875</LatitudeDegrees>
              <LongitudeDegrees>-3.33374566398561000823974609375</LongitudeDegrees>
            </Position>
            <AltitudeMeters>818</AltitudeMeters>
            <DistanceMeters>35144.49448555</DistanceMeters>
          </Trackpoint>
          <Trackpoint>
            <Time>2019-07-19T09:25:08.000Z</Time>
            <Position>
              <LatitudeDegrees>40.74671580456197261810302734375</LatitudeDegrees>
              <LongitudeDegrees>-3.33400256931781768798828125</LongitudeDegrees>
            </Position>
            <AltitudeMeters>818.4000244140625</AltitudeMeters>
            <DistanceMeters>35206.014724657</DistanceMeters>
          </Trackpoint>
          <Trackpoint>
            <Time>2019-07-19T09:25:13.000Z</Time>
            <Position>
              <LatitudeDegrees>40.74688914231956005096435546875</LatitudeDegrees>
              <LongitudeDegrees>-3.3340944349765777587890625</LongitudeDegrees>
            </Position>
            <AltitudeMeters>818.79998779296875</AltitudeMeters>
            <DistanceMeters>35226.804736898</DistanceMeters>
          </Trackpoint>
          <Trackpoint>
            <Time>2019-07-19T09:25:17.000Z</Time>
            <Position>
              <LatitudeDegrees>40.74698469601571559906005859375</LatitudeDegrees>
              <LongitudeDegrees>-3.3342501707375049591064453125</LongitudeDegrees>
            </Position>
            <AltitudeMeters>818.79998779296875</AltitudeMeters>
            <DistanceMeters>35243.703201544</DistanceMeters>
          </Trackpoint>
          <Trackpoint>
            <Time>2019-07-19T09:25:24.000Z</Time>
            <Position>
              <LatitudeDegrees>40.747060887515544891357421875</LatitudeDegrees>
              <LongitudeDegrees>-3.33450539968907833099365234375</LongitudeDegrees>
            </Position>
            <AltitudeMeters>818.4000244140625</AltitudeMeters>
            <DistanceMeters>35266.83493688</DistanceMeters>
          </Trackpoint>
          <Trackpoint>
            <Time>2019-07-19T09:25:28.000Z</Time>
            <Position>
              <LatitudeDegrees>40.7471794076263904571533203125</LatitudeDegrees>
              <LongitudeDegrees>-3.33469550125300884246826171875</LongitudeDegrees>
            </Position>
            <AltitudeMeters>818</AltitudeMeters>
            <DistanceMeters>35287.594740067</DistanceMeters>
          </Trackpoint>
          <Trackpoint>
            <Time>2019-07-19T09:25:33.000Z</Time>
            <Position>
              <LatitudeDegrees>40.74737294577062129974365234375</LatitudeDegrees>
              <LongitudeDegrees>-3.3348493091762065887451171875</LongitudeDegrees>
            </Position>
            <AltitudeMeters>817</AltitudeMeters>
            <DistanceMeters>35312.738600391</DistanceMeters>
          </Trackpoint>
          <Trackpoint>
            <Time>2019-07-19T09:25:34.000Z</Time>
            <Position>
              <LatitudeDegrees>40.74741720221936702728271484375</LatitudeDegrees>
              <LongitudeDegrees>-3.3348749577999114990234375</LongitudeDegrees>
            </Position>
            <AltitudeMeters>816.79998779296875</AltitudeMeters>
            <DistanceMeters>35318.119160314</DistanceMeters>
          </Trackpoint>
          <Trackpoint>
            <Time>2019-07-19T09:25:36.000Z</Time>
            <Position>
              <LatitudeDegrees>40.747513510286808013916015625</LatitudeDegrees>
              <LongitudeDegrees>-3.3349029533565044403076171875</LongitudeDegrees>
            </Position>
            <AltitudeMeters>816.79998779296875</AltitudeMeters>
            <DistanceMeters>35329.095465699</DistanceMeters>
          </Trackpoint>
          <Trackpoint>
            <Time>2019-07-19T09:25:46.000Z</Time>
            <Position>
              <LatitudeDegrees>40.74796990491449832916259765625</LatitudeDegrees>
              <LongitudeDegrees>-3.3349297754466533660888671875</LongitudeDegrees>
            </Position>
            <AltitudeMeters>817.5999755859375</AltitudeMeters>
            <DistanceMeters>35379.943371729</DistanceMeters>
          </Trackpoint>
          <Trackpoint>
            <Time>2019-07-19T09:25:49.000Z</Time>
            <Position>
              <LatitudeDegrees>40.74809588491916656494140625</LatitudeDegrees>
              <LongitudeDegrees>-3.33489649929106235504150390625</LongitudeDegrees>
            </Position>
            <AltitudeMeters>817.79998779296875</AltitudeMeters>
            <DistanceMeters>35394.243234703</DistanceMeters>
          </Trackpoint>
          <Trackpoint>
            <Time>2019-07-19T09:25:51.000Z</Time>
            <Position>
              <LatitudeDegrees>40.7481765188276767730712890625</LatitudeDegrees>
              <LongitudeDegrees>-3.33487001247704029083251953125</LongitudeDegrees>
            </Position>
            <AltitudeMeters>818.20001220703125</AltitudeMeters>
            <DistanceMeters>35403.491633704</DistanceMeters>
          </Trackpoint>
          <Trackpoint>
            <Time>2019-07-19T09:26:00.000Z</Time>
            <Position>
              <LatitudeDegrees>40.74852445162832736968994140625</LatitudeDegrees>
              <LongitudeDegrees>-3.33474260754883289337158203125</LongitudeDegrees>
            </Position>
            <AltitudeMeters>818.79998779296875</AltitudeMeters>
            <DistanceMeters>35443.679733341</DistanceMeters>
          </Trackpoint>
          <Trackpoint>
            <Time>2019-07-19T09:26:03.000Z</Time>
            <Position>
              <LatitudeDegrees>40.748644731938838958740234375</LatitudeDegrees>
              <LongitudeDegrees>-3.33471846766769886016845703125</LongitudeDegrees>
            </Position>
            <AltitudeMeters>819.20001220703125</AltitudeMeters>
            <DistanceMeters>35457.221290207</DistanceMeters>
          </Trackpoint>
          <Trackpoint>
            <Time>2019-07-19T09:26:09.000Z</Time>
            <Position>
              <LatitudeDegrees>40.74884422123432159423828125</LatitudeDegrees>
              <LongitudeDegrees>-3.33470757119357585906982421875</LongitudeDegrees>
            </Position>
            <AltitudeMeters>820.20001220703125</AltitudeMeters>
            <DistanceMeters>35479.444136125</DistanceMeters>
          </Trackpoint>
          <Trackpoint>
            <Time>2019-07-19T09:26:23.000Z</Time>
            <Position>
              <LatitudeDegrees>40.74939348734915256500244140625</LatitudeDegrees>
              <LongitudeDegrees>-3.33463012240827083587646484375</LongitudeDegrees>
            </Position>
            <AltitudeMeters>820.79998779296875</AltitudeMeters>
            <DistanceMeters>35540.926346887</DistanceMeters>
          </Trackpoint>
          <Trackpoint>
            <Time>2019-07-19T09:26:30.000Z</Time>
            <Position>
              <LatitudeDegrees>40.74967176653444766998291015625</LatitudeDegrees>
              <LongitudeDegrees>-3.33454378880560398101806640625</LongitudeDegrees>
            </Position>
            <AltitudeMeters>820.79998779296875</AltitudeMeters>
            <DistanceMeters>35572.743271938</DistanceMeters>
          </Trackpoint>
          <Trackpoint>
            <Time>2019-07-19T09:26:35.000Z</Time>
            <Position>
              <LatitudeDegrees>40.74990528635680675506591796875</LatitudeDegrees>
              <LongitudeDegrees>-3.33445913158357143402099609375</LongitudeDegrees>
            </Position>
            <AltitudeMeters>820.5999755859375</AltitudeMeters>
            <DistanceMeters>35599.697042922</DistanceMeters>
          </Trackpoint>
          <Trackpoint>
            <Time>2019-07-19T09:26:37.000Z</Time>
            <Position>
              <LatitudeDegrees>40.749999918043613433837890625</LatitudeDegrees>
              <LongitudeDegrees>-3.33444991149008274078369140625</LongitudeDegrees>
            </Position>
            <AltitudeMeters>820.5999755859375</AltitudeMeters>
            <DistanceMeters>35610.258269377</DistanceMeters>
          </Trackpoint>
          <Trackpoint>
            <Time>2019-07-19T09:26:46.000Z</Time>
            <Position>
              <LatitudeDegrees>40.75041490606963634490966796875</LatitudeDegrees>
              <LongitudeDegrees>-3.3345663361251354217529296875</LongitudeDegrees>
            </Position>
            <AltitudeMeters>821.20001220703125</AltitudeMeters>
            <DistanceMeters>35657.47899339</DistanceMeters>
          </Trackpoint>
          <Trackpoint>
            <Time>2019-07-19T09:26:50.000Z</Time>
            <Position>
              <LatitudeDegrees>40.75060182251036167144775390625</LatitudeDegrees>
              <LongitudeDegrees>-3.33458553068339824676513671875</LongitudeDegrees>
            </Position>
            <AltitudeMeters>821.4000244140625</AltitudeMeters>
            <DistanceMeters>35678.345959775</DistanceMeters>
          </Trackpoint>
          <Trackpoint>
            <Time>2019-07-19T09:26:58.000Z</Time>
            <Position>
              <LatitudeDegrees>40.75095822103321552276611328125</LatitudeDegrees>
              <LongitudeDegrees>-3.33456072025001049041748046875</LongitudeDegrees>
            </Position>
            <AltitudeMeters>821.5999755859375</AltitudeMeters>
            <DistanceMeters>35718.068945033</DistanceMeters>
          </Trackpoint>
          <Trackpoint>
            <Time>2019-07-19T09:27:01.000Z</Time>
            <Position>
              <LatitudeDegrees>40.7510796748101711273193359375</LatitudeDegrees>
              <LongitudeDegrees>-3.33457128144800662994384765625</LongitudeDegrees>
            </Position>
            <AltitudeMeters>822.5999755859375</AltitudeMeters>
            <DistanceMeters>35731.616502146</DistanceMeters>
          </Trackpoint>
          <Trackpoint>
            <Time>2019-07-19T09:27:05.000Z</Time>
            <Position>
              <LatitudeDegrees>40.751266591250896453857421875</LatitudeDegrees>
              <LongitudeDegrees>-3.3346612192690372467041015625</LongitudeDegrees>
            </Position>
            <AltitudeMeters>822.5999755859375</AltitudeMeters>
            <DistanceMeters>35753.759561798</DistanceMeters>
          </Trackpoint>
          <Trackpoint>
            <Time>2019-07-19T09:27:07.000Z</Time>
            <Position>
              <LatitudeDegrees>40.75136507861316204071044921875</LatitudeDegrees>
              <LongitudeDegrees>-3.334697596728801727294921875</LongitudeDegrees>
            </Position>
            <AltitudeMeters>822.5999755859375</AltitudeMeters>
            <DistanceMeters>35765.142556435</DistanceMeters>
          </Trackpoint>
          <Trackpoint>
            <Time>2019-07-19T09:27:17.000Z</Time>
            <Position>
              <LatitudeDegrees>40.75179557316005229949951171875</LatitudeDegrees>
              <LongitudeDegrees>-3.33503848873078823089599609375</LongitudeDegrees>
            </Position>
            <AltitudeMeters>822</AltitudeMeters>
            <DistanceMeters>35821.017294816</DistanceMeters>
          </Trackpoint>
          <Trackpoint>
            <Time>2019-07-19T09:27:29.000Z</Time>
            <Position>
              <LatitudeDegrees>40.752267055213451385498046875</LatitudeDegrees>
              <LongitudeDegrees>-3.33550368435680866241455078125</LongitudeDegrees>
            </Position>
            <AltitudeMeters>821.79998779296875</AltitudeMeters>
            <DistanceMeters>35886.532959786</DistanceMeters>
          </Trackpoint>
          <Trackpoint>
            <Time>2019-07-19T09:27:40.000Z</Time>
            <Position>
              <LatitudeDegrees>40.75282570905983448028564453125</LatitudeDegrees>
              <LongitudeDegrees>-3.33570837043225765228271484375</LongitudeDegrees>
            </Position>
            <AltitudeMeters>822.4000244140625</AltitudeMeters>
            <DistanceMeters>35951.062886108</DistanceMeters>
          </Trackpoint>
          <Trackpoint>
            <Time>2019-07-19T09:27:51.000Z</Time>
            <Position>
              <LatitudeDegrees>40.75338117778301239013671875</LatitudeDegrees>
              <LongitudeDegrees>-3.33588170818984508514404296875</LongitudeDegrees>
            </Position>
            <AltitudeMeters>822.79998779296875</AltitudeMeters>
            <DistanceMeters>36014.591567315</DistanceMeters>
          </Trackpoint>
          <Trackpoint>
            <Time>2019-07-19T09:28:01.000Z</Time>
            <Position>
              <LatitudeDegrees>40.75389540754258632659912109375</LatitudeDegrees>
              <LongitudeDegrees>-3.33604683168232440948486328125</LongitudeDegrees>
            </Position>
            <AltitudeMeters>823.5999755859375</AltitudeMeters>
            <DistanceMeters>36073.49525423</DistanceMeters>
          </Trackpoint>
          <Trackpoint>
            <Time>2019-07-19T09:28:02.000Z</Time>
            <Position>
              <LatitudeDegrees>40.75394578278064727783203125</LatitudeDegrees>
              <LongitudeDegrees>-3.33606661297380924224853515625</LongitudeDegrees>
            </Position>
            <AltitudeMeters>823.79998779296875</AltitudeMeters>
            <DistanceMeters>36079.34460972</DistanceMeters>
          </Trackpoint>
          <Trackpoint>
            <Time>2019-07-19T09:28:04.000Z</Time>
            <Position>
              <LatitudeDegrees>40.754050724208354949951171875</LatitudeDegrees>
              <LongitudeDegrees>-3.3360931836068630218505859375</LongitudeDegrees>
            </Position>
            <AltitudeMeters>824</AltitudeMeters>
            <DistanceMeters>36091.237763945</DistanceMeters>
          </Trackpoint>
          <Trackpoint>
            <Time>2019-07-19T09:28:14.000Z</Time>
            <Position>
              <LatitudeDegrees>40.75459646992385387420654296875</LatitudeDegrees>
              <LongitudeDegrees>-3.33602654747664928436279296875</LongitudeDegrees>
            </Position>
            <AltitudeMeters>824.4000244140625</AltitudeMeters>
            <DistanceMeters>36152.239733767</DistanceMeters>
          </Trackpoint>
          <Trackpoint>
            <Time>2019-07-19T09:28:16.000Z</Time>
            <Position>
              <LatitudeDegrees>40.75469437055289745330810546875</LatitudeDegrees>
              <LongitudeDegrees>-3.33599419333040714263916015625</LongitudeDegrees>
            </Position>
            <AltitudeMeters>824.5999755859375</AltitudeMeters>
            <DistanceMeters>36163.473000799</DistanceMeters>
          </Trackpoint>
          <Trackpoint>
            <Time>2019-07-19T09:28:27.000Z</Time>
            <Position>
              <LatitudeDegrees>40.75507423840463161468505859375</LatitudeDegrees>
              <LongitudeDegrees>-3.335874415934085845947265625</LongitudeDegrees>
            </Position>
            <AltitudeMeters>825.5999755859375</AltitudeMeters>
            <DistanceMeters>36206.94250363</DistanceMeters>
          </Trackpoint>
          <Trackpoint>
            <Time>2019-07-19T09:28:32.000Z</Time>
            <Position>
              <LatitudeDegrees>40.7552582211792469024658203125</LatitudeDegrees>
              <LongitudeDegrees>-3.33582823164761066436767578125</LongitudeDegrees>
            </Position>
            <AltitudeMeters>825.79998779296875</AltitudeMeters>
            <DistanceMeters>36227.786955127</DistanceMeters>
          </Trackpoint>
          <Trackpoint>
            <Time>2019-07-19T09:28:34.000Z</Time>
            <Position>
              <LatitudeDegrees>40.7553447224199771881103515625</LatitudeDegrees>
              <LongitudeDegrees>-3.33579118363559246063232421875</LongitudeDegrees>
            </Position>
            <AltitudeMeters>825.5999755859375</AltitudeMeters>
            <DistanceMeters>36237.908527003</DistanceMeters>
          </Trackpoint>
          <Trackpoint>
            <Time>2019-07-19T09:28:49.000Z</Time>
            <Position>
              <LatitudeDegrees>40.755882002413272857666015625</LatitudeDegrees>
              <LongitudeDegrees>-3.33578280173242092132568359375</LongitudeDegrees>
            </Position>
            <AltitudeMeters>826.4000244140625</AltitudeMeters>
            <DistanceMeters>36297.713029321</DistanceMeters>
          </Trackpoint>
          <Trackpoint>
            <Time>2019-07-19T09:28:56.000Z</Time>
            <Position>
              <LatitudeDegrees>40.756132118403911590576171875</LatitudeDegrees>
              <LongitudeDegrees>-3.3357600867748260498046875</LongitudeDegrees>
            </Position>
            <AltitudeMeters>826.79998779296875</AltitudeMeters>
            <DistanceMeters>36325.617248207</DistanceMeters>
          </Trackpoint>
          <Trackpoint>
            <Time>2019-07-19T09:29:11.000Z</Time>
            <Position>
              <LatitudeDegrees>40.7566868327558040618896484375</LatitudeDegrees>
              <LongitudeDegrees>-3.335573337972164154052734375</LongitudeDegrees>
            </Position>
            <AltitudeMeters>827.5999755859375</AltitudeMeters>
            <DistanceMeters>36389.334059713</DistanceMeters>
          </Trackpoint>
          <Trackpoint>
            <Time>2019-07-19T09:29:24.000Z</Time>
            <Position>
              <LatitudeDegrees>40.75723894871771335601806640625</LatitudeDegrees>
              <LongitudeDegrees>-3.3355124853551387786865234375</LongitudeDegrees>
            </Position>
            <AltitudeMeters>827.79998779296875</AltitudeMeters>
            <DistanceMeters>36450.999441987</DistanceMeters>
          </Trackpoint>
          <Trackpoint>
            <Time>2019-07-19T09:29:38.000Z</Time>
            <Position>
              <LatitudeDegrees>40.75769475661218166351318359375</LatitudeDegrees>
              <LongitudeDegrees>-3.33547283895313739776611328125</LongitudeDegrees>
            </Position>
            <AltitudeMeters>828.79998779296875</AltitudeMeters>
            <DistanceMeters>36501.841753626</DistanceMeters>
          </Trackpoint>
          <Trackpoint>
            <Time>2019-07-19T09:29:51.000Z</Time>
            <Position>
              <LatitudeDegrees>40.7582381553947925567626953125</LatitudeDegrees>
              <LongitudeDegrees>-3.33547015674412250518798828125</LongitudeDegrees>
            </Position>
            <AltitudeMeters>828.5999755859375</AltitudeMeters>
            <DistanceMeters>36562.323551277</DistanceMeters>
          </Trackpoint>
          <Trackpoint>
            <Time>2019-07-19T09:29:57.000Z</Time>
            <Position>
              <LatitudeDegrees>40.7584726810455322265625</LatitudeDegrees>
              <LongitudeDegrees>-3.335454650223255157470703125</LongitudeDegrees>
            </Position>
            <AltitudeMeters>828.79998779296875</AltitudeMeters>
            <DistanceMeters>36588.45952577</DistanceMeters>
          </Trackpoint>
          <Trackpoint>
            <Time>2019-07-19T09:30:03.000Z</Time>
            <Position>
              <LatitudeDegrees>40.7587048597633838653564453125</LatitudeDegrees>
              <LongitudeDegrees>-3.33539807237684726715087890625</LongitudeDegrees>
            </Position>
            <AltitudeMeters>830</AltitudeMeters>
            <DistanceMeters>36614.737805885</DistanceMeters>
          </Trackpoint>
          <Trackpoint>
            <Time>2019-07-19T09:30:10.000Z</Time>
            <Position>
              <LatitudeDegrees>40.75895656831562519073486328125</LatitudeDegrees>
              <LongitudeDegrees>-3.33532598800957202911376953125</LongitudeDegrees>
            </Position>
            <AltitudeMeters>831</AltitudeMeters>
            <DistanceMeters>36643.405020557</DistanceMeters>
          </Trackpoint>
          <Trackpoint>
            <Time>2019-07-19T09:30:13.000Z</Time>
            <Position>
              <LatitudeDegrees>40.7590641081333160400390625</LatitudeDegrees>
              <LongitudeDegrees>-3.33530251868069171905517578125</LongitudeDegrees>
            </Position>
            <AltitudeMeters>831.20001220703125</AltitudeMeters>
            <DistanceMeters>36655.537219287</DistanceMeters>
          </Trackpoint>
          <Trackpoint>
            <Time>2019-07-19T09:30:25.000Z</Time>
            <Position>
              <LatitudeDegrees>40.7596365921199321746826171875</LatitudeDegrees>
              <LongitudeDegrees>-3.3353515528142452239990234375</LongitudeDegrees>
            </Position>
            <AltitudeMeters>830.4000244140625</AltitudeMeters>
            <DistanceMeters>36719.389797584</DistanceMeters>
          </Trackpoint>
          <Trackpoint>
            <Time>2019-07-19T09:30:27.000Z</Time>
            <Position>
              <LatitudeDegrees>40.759739018976688385009765625</LatitudeDegrees>
              <LongitudeDegrees>-3.335379548370838165283203125</LongitudeDegrees>
            </Position>
            <AltitudeMeters>830</AltitudeMeters>
            <DistanceMeters>36731.032024494</DistanceMeters>
          </Trackpoint>
          <Trackpoint>
            <Time>2019-07-19T09:30:38.000Z</Time>
            <Position>
              <LatitudeDegrees>40.7603220641613006591796875</LatitudeDegrees>
              <LongitudeDegrees>-3.33546395413577556610107421875</LongitudeDegrees>
            </Position>
            <AltitudeMeters>830.20001220703125</AltitudeMeters>
            <DistanceMeters>36796.315031462</DistanceMeters>
          </Trackpoint>
          <Trackpoint>
            <Time>2019-07-19T09:30:49.000Z</Time>
            <Position>
              <LatitudeDegrees>40.76089580543339252471923828125</LatitudeDegrees>
              <LongitudeDegrees>-3.33537410013377666473388671875</LongitudeDegrees>
            </Position>
            <AltitudeMeters>830.4000244140625</AltitudeMeters>
            <DistanceMeters>36860.621231686</DistanceMeters>
          </Trackpoint>
          <Trackpoint>
            <Time>2019-07-19T09:30:57.000Z</Time>
            <Position>
              <LatitudeDegrees>40.76126393862068653106689453125</LatitudeDegrees>
              <LongitudeDegrees>-3.335242085158824920654296875</LongitudeDegrees>
            </Position>
            <AltitudeMeters>831</AltitudeMeters>
            <DistanceMeters>36903.079780189</DistanceMeters>
          </Trackpoint>
          <Trackpoint>
            <Time>2019-07-19T09:31:01.000Z</Time>
            <Position>
              <LatitudeDegrees>40.7614474184811115264892578125</LatitudeDegrees>
              <LongitudeDegrees>-3.33516798913478851318359375</LongitudeDegrees>
            </Position>
            <AltitudeMeters>831.4000244140625</AltitudeMeters>
            <DistanceMeters>36924.435646851</DistanceMeters>
          </Trackpoint>
          <Trackpoint>
            <Time>2019-07-19T09:31:07.000Z</Time>
            <Position>
              <LatitudeDegrees>40.76168202795088291168212890625</LatitudeDegrees>
              <LongitudeDegrees>-3.3350655622780323028564453125</LongitudeDegrees>
            </Position>
            <AltitudeMeters>832</AltitudeMeters>
            <DistanceMeters>36951.938945626</DistanceMeters>
          </Trackpoint>
          <Trackpoint>
            <Time>2019-07-19T09:31:15.000Z</Time>
            <Position>
              <LatitudeDegrees>40.76202727854251861572265625</LatitudeDegrees>
              <LongitudeDegrees>-3.3348576910793781280517578125</LongitudeDegrees>
            </Position>
            <AltitudeMeters>832.79998779296875</AltitudeMeters>
            <DistanceMeters>36994.173162325</DistanceMeters>
          </Trackpoint>
          <Trackpoint>
            <Time>2019-07-19T09:31:18.000Z</Time>
            <Position>
              <LatitudeDegrees>40.76215627603232860565185546875</LatitudeDegrees>
              <LongitudeDegrees>-3.33483329974114894866943359375</LongitudeDegrees>
            </Position>
            <AltitudeMeters>832.79998779296875</AltitudeMeters>
            <DistanceMeters>37008.677115608</DistanceMeters>
          </Trackpoint>
          <Trackpoint>
            <Time>2019-07-19T09:31:26.000Z</Time>
            <Position>
              <LatitudeDegrees>40.76247747056186199188232421875</LatitudeDegrees>
              <LongitudeDegrees>-3.33484201692044734954833984375</LongitudeDegrees>
            </Position>
            <AltitudeMeters>833.20001220703125</AltitudeMeters>
            <DistanceMeters>37044.434444701</DistanceMeters>
          </Trackpoint>
          <Trackpoint>
            <Time>2019-07-19T09:31:31.000Z</Time>
            <Position>
              <LatitudeDegrees>40.76267126016318798065185546875</LatitudeDegrees>
              <LongitudeDegrees>-3.3348454535007476806640625</LongitudeDegrees>
            </Position>
            <AltitudeMeters>834.20001220703125</AltitudeMeters>
            <DistanceMeters>37066.005718172</DistanceMeters>
          </Trackpoint>
          <Trackpoint>
            <Time>2019-07-19T09:31:40.000Z</Time>
            <Position>
              <LatitudeDegrees>40.7630480267107486724853515625</LatitudeDegrees>
              <LongitudeDegrees>-3.33483941853046417236328125</LongitudeDegrees>
            </Position>
            <AltitudeMeters>834</AltitudeMeters>
            <DistanceMeters>37107.943732181</DistanceMeters>
          </Trackpoint>
          <Trackpoint>
            <Time>2019-07-19T09:31:52.000Z</Time>
            <Position>
              <LatitudeDegrees>40.76357365585863590240478515625</LatitudeDegrees>
              <LongitudeDegrees>-3.334708996117115020751953125</LongitudeDegrees>
            </Position>
            <AltitudeMeters>835.4000244140625</AltitudeMeters>
            <DistanceMeters>37167.471427231</DistanceMeters>
          </Trackpoint>
          <Trackpoint>
            <Time>2019-07-19T09:32:03.000Z</Time>
            <Position>
              <LatitudeDegrees>40.7640266977250576019287109375</LatitudeDegrees>
              <LongitudeDegrees>-3.33479038439691066741943359375</LongitudeDegrees>
            </Position>
            <AltitudeMeters>836.4000244140625</AltitudeMeters>
            <DistanceMeters>37218.360517447</DistanceMeters>
          </Trackpoint>
          <Trackpoint>
            <Time>2019-07-19T09:32:08.000Z</Time>
            <Position>
              <LatitudeDegrees>40.76416156254708766937255859375</LatitudeDegrees>
              <LongitudeDegrees>-3.33479189313948154449462890625</LongitudeDegrees>
            </Position>
            <AltitudeMeters>837.4000244140625</AltitudeMeters>
            <DistanceMeters>37233.371730842</DistanceMeters>
          </Trackpoint>
          <Trackpoint>
            <Time>2019-07-19T09:32:12.000Z</Time>
            <Position>
              <LatitudeDegrees>40.7642684318125247955322265625</LatitudeDegrees>
              <LongitudeDegrees>-3.3347782306373119354248046875</LongitudeDegrees>
            </Position>
            <AltitudeMeters>837.79998779296875</AltitudeMeters>
            <DistanceMeters>37245.322072216</DistanceMeters>
          </Trackpoint>
          <Trackpoint>
            <Time>2019-07-19T09:32:27.000Z</Time>
            <Position>
              <LatitudeDegrees>40.76483312062919139862060546875</LatitudeDegrees>
              <LongitudeDegrees>-3.33473749458789825439453125</LongitudeDegrees>
            </Position>
            <AltitudeMeters>836.79998779296875</AltitudeMeters>
            <DistanceMeters>37308.266780815</DistanceMeters>
          </Trackpoint>
          <Trackpoint>
            <Time>2019-07-19T09:32:29.000Z</Time>
            <Position>
              <LatitudeDegrees>40.76492733322083950042724609375</LatitudeDegrees>
              <LongitudeDegrees>-3.33476020954549312591552734375</LongitudeDegrees>
            </Position>
            <AltitudeMeters>836.4000244140625</AltitudeMeters>
            <DistanceMeters>37318.926304814</DistanceMeters>
          </Trackpoint>
          <Trackpoint>
            <Time>2019-07-19T09:32:33.000Z</Time>
            <Position>
              <LatitudeDegrees>40.7651071250438690185546875</LatitudeDegrees>
              <LongitudeDegrees>-3.3348073996603488922119140625</LongitudeDegrees>
            </Position>
            <AltitudeMeters>835.79998779296875</AltitudeMeters>
            <DistanceMeters>37339.32896307</DistanceMeters>
          </Trackpoint>
          <Trackpoint>
            <Time>2019-07-19T09:32:35.000Z</Time>
            <Position>
              <LatitudeDegrees>40.76520293019711971282958984375</LatitudeDegrees>
              <LongitudeDegrees>-3.334844112396240234375</LongitudeDegrees>
            </Position>
            <AltitudeMeters>835.20001220703125</AltitudeMeters>
            <DistanceMeters>37350.432866157</DistanceMeters>
          </Trackpoint>
          <Trackpoint>
            <Time>2019-07-19T09:32:46.000Z</Time>
            <Position>
              <LatitudeDegrees>40.765743143856525421142578125</LatitudeDegrees>
              <LongitudeDegrees>-3.33501166664063930511474609375</LongitudeDegrees>
            </Position>
            <AltitudeMeters>835</AltitudeMeters>
            <DistanceMeters>37412.196502414</DistanceMeters>
          </Trackpoint>
          <Trackpoint>
            <Time>2019-07-19T09:32:58.000Z</Time>
            <Position>
              <LatitudeDegrees>40.766280591487884521484375</LatitudeDegrees>
              <LongitudeDegrees>-3.33513907156884670257568359375</LongitudeDegrees>
            </Position>
            <AltitudeMeters>834.79998779296875</AltitudeMeters>
            <DistanceMeters>37472.972011204</DistanceMeters>
          </Trackpoint>
          <Trackpoint>
            <Time>2019-07-19T09:33:00.000Z</Time>
            <Position>
              <LatitudeDegrees>40.76637916266918182373046875</LatitudeDegrees>
              <LongitudeDegrees>-3.33517025224864482879638671875</LongitudeDegrees>
            </Position>
            <AltitudeMeters>835</AltitudeMeters>
            <DistanceMeters>37484.253807492</DistanceMeters>
          </Trackpoint>
          <Trackpoint>
            <Time>2019-07-19T09:33:12.000Z</Time>
            <Position>
              <LatitudeDegrees>40.766880400478839874267578125</LatitudeDegrees>
              <LongitudeDegrees>-3.3355419896543025970458984375</LongitudeDegrees>
            </Position>
            <AltitudeMeters>835.79998779296875</AltitudeMeters>
            <DistanceMeters>37548.241017783</DistanceMeters>
          </Trackpoint>
          <Trackpoint>
            <Time>2019-07-19T09:33:17.000Z</Time>
            <Position>
              <LatitudeDegrees>40.76708433218300342559814453125</LatitudeDegrees>
              <LongitudeDegrees>-3.335640393197536468505859375</LongitudeDegrees>
            </Position>
            <AltitudeMeters>836.20001220703125</AltitudeMeters>
            <DistanceMeters>37572.407340712</DistanceMeters>
          </Trackpoint>
          <Trackpoint>
            <Time>2019-07-19T09:33:21.000Z</Time>
            <Position>
              <LatitudeDegrees>40.7672580890357494354248046875</LatitudeDegrees>
              <LongitudeDegrees>-3.335678614675998687744140625</LongitudeDegrees>
            </Position>
            <AltitudeMeters>836.4000244140625</AltitudeMeters>
            <DistanceMeters>37592.013265686</DistanceMeters>
          </Trackpoint>
          <Trackpoint>
            <Time>2019-07-19T09:33:30.000Z</Time>
            <Position>
              <LatitudeDegrees>40.76762882061302661895751953125</LatitudeDegrees>
              <LongitudeDegrees>-3.33578967489302158355712890625</LongitudeDegrees>
            </Position>
            <AltitudeMeters>837.20001220703125</AltitudeMeters>
            <DistanceMeters>37634.325237464</DistanceMeters>
          </Trackpoint>
          <Trackpoint>
            <Time>2019-07-19T09:33:31.000Z</Time>
            <Position>
              <LatitudeDegrees>40.76767064630985260009765625</LatitudeDegrees>
              <LongitudeDegrees>-3.33580501377582550048828125</LongitudeDegrees>
            </Position>
            <AltitudeMeters>837.4000244140625</AltitudeMeters>
            <DistanceMeters>37639.157605174</DistanceMeters>
          </Trackpoint>
          <Trackpoint>
            <Time>2019-07-19T09:33:40.000Z</Time>
            <Position>
              <LatitudeDegrees>40.76802109368145465850830078125</LatitudeDegrees>
              <LongitudeDegrees>-3.33593250252306461334228515625</LongitudeDegrees>
            </Position>
            <AltitudeMeters>838.4000244140625</AltitudeMeters>
            <DistanceMeters>37679.616449415</DistanceMeters>
          </Trackpoint>
          <Trackpoint>
            <Time>2019-07-19T09:33:47.000Z</Time>
            <Position>
              <LatitudeDegrees>40.76833105646073818206787109375</LatitudeDegrees>
              <LongitudeDegrees>-3.33599788136780261993408203125</LongitudeDegrees>
            </Position>
            <AltitudeMeters>838.5999755859375</AltitudeMeters>
            <DistanceMeters>37714.553211898</DistanceMeters>
          </Trackpoint>
          <Trackpoint>
            <Time>2019-07-19T09:33:51.000Z</Time>
            <Position>
              <LatitudeDegrees>40.7685204036533832550048828125</LatitudeDegrees>
              <LongitudeDegrees>-3.33597592078149318695068359375</LongitudeDegrees>
            </Position>
            <AltitudeMeters>839</AltitudeMeters>
            <DistanceMeters>37735.70898437</DistanceMeters>
          </Trackpoint>
          <Trackpoint>
            <Time>2019-07-19T09:34:00.000Z</Time>
            <Position>
              <LatitudeDegrees>40.768884681165218353271484375</LatitudeDegrees>
              <LongitudeDegrees>-3.3357589133083820343017578125</LongitudeDegrees>
            </Position>
            <AltitudeMeters>839.4000244140625</AltitudeMeters>
            <DistanceMeters>37780.18920187</DistanceMeters>
          </Trackpoint>
          <Trackpoint>
            <Time>2019-07-19T09:34:08.000Z</Time>
            <Position>
              <LatitudeDegrees>40.76918902806937694549560546875</LatitudeDegrees>
              <LongitudeDegrees>-3.335572667419910430908203125</LongitudeDegrees>
            </Position>
            <AltitudeMeters>840.5999755859375</AltitudeMeters>
            <DistanceMeters>37817.524785573</DistanceMeters>
          </Trackpoint>
          <Trackpoint>
            <Time>2019-07-19T09:34:20.000Z</Time>
            <Position>
              <LatitudeDegrees>40.76962203718721866607666015625</LatitudeDegrees>
              <LongitudeDegrees>-3.3352958969771862030029296875</LongitudeDegrees>
            </Position>
            <AltitudeMeters>841.79998779296875</AltitudeMeters>
            <DistanceMeters>37871.069282495</DistanceMeters>
          </Trackpoint>
          <Trackpoint>
            <Time>2019-07-19T09:34:22.000Z</Time>
            <Position>
              <LatitudeDegrees>40.76970132999122142791748046875</LatitudeDegrees>
              <LongitudeDegrees>-3.3352563343942165374755859375</LongitudeDegrees>
            </Position>
            <AltitudeMeters>842</AltitudeMeters>
            <DistanceMeters>37880.503286599</DistanceMeters>
          </Trackpoint>
          <Trackpoint>
            <Time>2019-07-19T09:34:25.000Z</Time>
            <Position>
              <LatitudeDegrees>40.76982722617685794830322265625</LatitudeDegrees>
              <LongitudeDegrees>-3.33522205241024494171142578125</LongitudeDegrees>
            </Position>
            <AltitudeMeters>841.79998779296875</AltitudeMeters>
            <DistanceMeters>37894.810725325</DistanceMeters>
          </Trackpoint>
          <Trackpoint>
            <Time>2019-07-19T09:34:38.000Z</Time>
            <Position>
              <LatitudeDegrees>40.77038680203258991241455078125</LatitudeDegrees>
              <LongitudeDegrees>-3.335138820111751556396484375</LongitudeDegrees>
            </Position>
            <AltitudeMeters>842</AltitudeMeters>
            <DistanceMeters>37957.486516701</DistanceMeters>
          </Trackpoint>
          <Trackpoint>
            <Time>2019-07-19T09:34:41.000Z</Time>
            <Position>
              <LatitudeDegrees>40.7705171406269073486328125</LatitudeDegrees>
              <LongitudeDegrees>-3.33513068966567516326904296875</LongitudeDegrees>
            </Position>
            <AltitudeMeters>841.79998779296875</AltitudeMeters>
            <DistanceMeters>37972.010068459</DistanceMeters>
          </Trackpoint>
          <Trackpoint>
            <Time>2019-07-19T09:34:47.000Z</Time>
            <Position>
              <LatitudeDegrees>40.77077203430235385894775390625</LatitudeDegrees>
              <LongitudeDegrees>-3.33515130914747714996337890625</LongitudeDegrees>
            </Position>
            <AltitudeMeters>842.4000244140625</AltitudeMeters>
            <DistanceMeters>38000.433383169</DistanceMeters>
          </Trackpoint>
          <Trackpoint>
            <Time>2019-07-19T09:34:49.000Z</Time>
            <Position>
              <LatitudeDegrees>40.7708606310188770294189453125</LatitudeDegrees>
              <LongitudeDegrees>-3.3351661451160907745361328125</LongitudeDegrees>
            </Position>
            <AltitudeMeters>842.79998779296875</AltitudeMeters>
            <DistanceMeters>38010.373559046</DistanceMeters>
          </Trackpoint>
          <Trackpoint>
            <Time>2019-07-19T09:34:56.000Z</Time>
            <Position>
              <LatitudeDegrees>40.77114016748964786529541015625</LatitudeDegrees>
              <LongitudeDegrees>-3.33525725640356540679931640625</LongitudeDegrees>
            </Position>
            <AltitudeMeters>842.5999755859375</AltitudeMeters>
            <DistanceMeters>38042.420253009</DistanceMeters>
          </Trackpoint>
          <Trackpoint>
            <Time>2019-07-19T09:35:08.000Z</Time>
            <Position>
              <LatitudeDegrees>40.77165481634438037872314453125</LatitudeDegrees>
              <LongitudeDegrees>-3.33557560108602046966552734375</LongitudeDegrees>
            </Position>
            <AltitudeMeters>843.4000244140625</AltitudeMeters>
            <DistanceMeters>38105.67536199</DistanceMeters>
          </Trackpoint>
          <Trackpoint>
            <Time>2019-07-19T09:35:12.000Z</Time>
            <Position>
              <LatitudeDegrees>40.7718309201300144195556640625</LatitudeDegrees>
              <LongitudeDegrees>-3.3356286585330963134765625</LongitudeDegrees>
            </Position>
            <AltitudeMeters>843.4000244140625</AltitudeMeters>
            <DistanceMeters>38125.779745135</DistanceMeters>
          </Trackpoint>
          <Trackpoint>
            <Time>2019-07-19T09:35:20.000Z</Time>
            <Position>
              <LatitudeDegrees>40.77218572609126567840576171875</LatitudeDegrees>
              <LongitudeDegrees>-3.335613571107387542724609375</LongitudeDegrees>
            </Position>
            <AltitudeMeters>844</AltitudeMeters>
            <DistanceMeters>38165.290751394</DistanceMeters>
          </Trackpoint>
          <Trackpoint>
            <Time>2019-07-19T09:35:33.000Z</Time>
            <Position>
              <LatitudeDegrees>40.772754438221454620361328125</LatitudeDegrees>
              <LongitudeDegrees>-3.3355942927300930023193359375</LongitudeDegrees>
            </Position>
            <AltitudeMeters>844.79998779296875</AltitudeMeters>
            <DistanceMeters>38228.610353424</DistanceMeters>
          </Trackpoint>
          <Trackpoint>
            <Time>2019-07-19T09:35:37.000Z</Time>
            <Position>
              <LatitudeDegrees>40.7729487307369709014892578125</LatitudeDegrees>
              <LongitudeDegrees>-3.33557694219052791595458984375</LongitudeDegrees>
            </Position>
            <AltitudeMeters>845</AltitudeMeters>
            <DistanceMeters>38250.284778375</DistanceMeters>
          </Trackpoint>
          <Trackpoint>
            <Time>2019-07-19T09:35:49.000Z</Time>
            <Position>
              <LatitudeDegrees>40.77352733351290225982666015625</LatitudeDegrees>
              <LongitudeDegrees>-3.33554391749203205108642578125</LongitudeDegrees>
            </Position>
            <AltitudeMeters>845.79998779296875</AltitudeMeters>
            <DistanceMeters>38314.744558507</DistanceMeters>
          </Trackpoint>
          <Trackpoint>
            <Time>2019-07-19T09:35:51.000Z</Time>
            <Position>
              <LatitudeDegrees>40.77362020500004291534423828125</LatitudeDegrees>
              <LongitudeDegrees>-3.3355490304529666900634765625</LongitudeDegrees>
            </Position>
            <AltitudeMeters>845.79998779296875</AltitudeMeters>
            <DistanceMeters>38325.090694315</DistanceMeters>
          </Trackpoint>
          <Trackpoint>
            <Time>2019-07-19T09:35:56.000Z</Time>
            <Position>
              <LatitudeDegrees>40.77384618110954761505126953125</LatitudeDegrees>
              <LongitudeDegrees>-3.335598818957805633544921875</LongitudeDegrees>
            </Position>
            <AltitudeMeters>846</AltitudeMeters>
            <DistanceMeters>38350.58992282</DistanceMeters>
          </Trackpoint>
          <Trackpoint>
            <Time>2019-07-19T09:36:06.000Z</Time>
            <Position>
              <LatitudeDegrees>40.77426410280168056488037109375</LatitudeDegrees>
              <LongitudeDegrees>-3.33572731353342533111572265625</LongitudeDegrees>
            </Position>
            <AltitudeMeters>846.5999755859375</AltitudeMeters>
            <DistanceMeters>38398.349710401</DistanceMeters>
          </Trackpoint>
          <Trackpoint>
            <Time>2019-07-19T09:36:18.000Z</Time>
            <Position>
              <LatitudeDegrees>40.77475712634623050689697265625</LatitudeDegrees>
              <LongitudeDegrees>-3.33607264794409275054931640625</LongitudeDegrees>
            </Position>
            <AltitudeMeters>846.79998779296875</AltitudeMeters>
            <DistanceMeters>38460.466152135</DistanceMeters>
          </Trackpoint>
          <Trackpoint>
            <Time>2019-07-19T09:36:21.000Z</Time>
            <Position>
              <LatitudeDegrees>40.77485988847911357879638671875</LatitudeDegrees>
              <LongitudeDegrees>-3.33614674396812915802001953125</LongitudeDegrees>
            </Position>
            <AltitudeMeters>847.20001220703125</AltitudeMeters>
            <DistanceMeters>38473.49763776</DistanceMeters>
          </Trackpoint>
          <Trackpoint>
            <Time>2019-07-19T09:36:34.000Z</Time>
            <Position>
              <LatitudeDegrees>40.7753477990627288818359375</LatitudeDegrees>
              <LongitudeDegrees>-3.3365111052989959716796875</LongitudeDegrees>
            </Position>
            <AltitudeMeters>847.5999755859375</AltitudeMeters>
            <DistanceMeters>38535.885335422</DistanceMeters>
          </Trackpoint>
          <Trackpoint>
            <Time>2019-07-19T09:36:42.000Z</Time>
            <Position>
              <LatitudeDegrees>40.775688104331493377685546875</LatitudeDegrees>
              <LongitudeDegrees>-3.3367181383073329925537109375</LongitudeDegrees>
            </Position>
            <AltitudeMeters>848.20001220703125</AltitudeMeters>
            <DistanceMeters>38577.588315444</DistanceMeters>
          </Trackpoint>
          <Trackpoint>
            <Time>2019-07-19T09:36:54.000Z</Time>
            <Position>
              <LatitudeDegrees>40.7762297429144382476806640625</LatitudeDegrees>
              <LongitudeDegrees>-3.3368686772882938385009765625</LongitudeDegrees>
            </Position>
            <AltitudeMeters>848.5999755859375</AltitudeMeters>
            <DistanceMeters>38639.194508876</DistanceMeters>
          </Trackpoint>
          <Trackpoint>
            <Time>2019-07-19T09:37:04.000Z</Time>
            <Position>
              <LatitudeDegrees>40.776707343757152557373046875</LatitudeDegrees>
              <LongitudeDegrees>-3.33674521185457706451416015625</LongitudeDegrees>
            </Position>
            <AltitudeMeters>848.79998779296875</AltitudeMeters>
            <DistanceMeters>38693.361403177</DistanceMeters>
          </Trackpoint>
          <Trackpoint>
            <Time>2019-07-19T09:37:08.000Z</Time>
            <Position>
              <LatitudeDegrees>40.77686165459454059600830078125</LatitudeDegrees>
              <LongitudeDegrees>-3.33664814941585063934326171875</LongitudeDegrees>
            </Position>
            <AltitudeMeters>849.4000244140625</AltitudeMeters>
            <DistanceMeters>38712.38550457</DistanceMeters>
          </Trackpoint>
          <Trackpoint>
            <Time>2019-07-19T09:37:11.000Z</Time>
            <Position>
              <LatitudeDegrees>40.7769971899688243865966796875</LatitudeDegrees>
              <LongitudeDegrees>-3.33658327348530292510986328125</LongitudeDegrees>
            </Position>
            <AltitudeMeters>849.4000244140625</AltitudeMeters>
            <DistanceMeters>38728.431237322</DistanceMeters>
          </Trackpoint>
          <Trackpoint>
            <Time>2019-07-19T09:37:16.000Z</Time>
            <Position>
              <LatitudeDegrees>40.777220316231250762939453125</LatitudeDegrees>
              <LongitudeDegrees>-3.33650213666260242462158203125</LongitudeDegrees>
            </Position>
            <AltitudeMeters>849.20001220703125</AltitudeMeters>
            <DistanceMeters>38754.189963163</DistanceMeters>
          </Trackpoint>
          <Trackpoint>
            <Time>2019-07-19T09:37:26.000Z</Time>
            <Position>
              <LatitudeDegrees>40.7776652276515960693359375</LatitudeDegrees>
              <LongitudeDegrees>-3.33638831041753292083740234375</LongitudeDegrees>
            </Position>
            <AltitudeMeters>850.4000244140625</AltitudeMeters>
            <DistanceMeters>38804.630264888</DistanceMeters>
          </Trackpoint>
          <Trackpoint>
            <Time>2019-07-19T09:37:36.000Z</Time>
            <Position>
              <LatitudeDegrees>40.77807359397411346435546875</LatitudeDegrees>
              <LongitudeDegrees>-3.33617239259183406829833984375</LongitudeDegrees>
            </Position>
            <AltitudeMeters>850.79998779296875</AltitudeMeters>
            <DistanceMeters>38853.58996109</DistanceMeters>
          </Trackpoint>
          <Trackpoint>
            <Time>2019-07-19T09:37:50.000Z</Time>
            <Position>
              <LatitudeDegrees>40.7785679586231708526611328125</LatitudeDegrees>
              <LongitudeDegrees>-3.33585807122290134429931640625</LongitudeDegrees>
            </Position>
            <AltitudeMeters>851.20001220703125</AltitudeMeters>
            <DistanceMeters>38914.65895135</DistanceMeters>
          </Trackpoint>
          <Trackpoint>
            <Time>2019-07-19T09:37:57.000Z</Time>
            <Position>
              <LatitudeDegrees>40.778835006058216094970703125</LatitudeDegrees>
              <LongitudeDegrees>-3.3356918580830097198486328125</LongitudeDegrees>
            </Position>
            <AltitudeMeters>851.4000244140625</AltitudeMeters>
            <DistanceMeters>38947.51758979</DistanceMeters>
          </Trackpoint>
          <Trackpoint>
            <Time>2019-07-19T09:38:00.000Z</Time>
            <Position>
              <LatitudeDegrees>40.7789471559226512908935546875</LatitudeDegrees>
              <LongitudeDegrees>-3.335635699331760406494140625</LongitudeDegrees>
            </Position>
            <AltitudeMeters>851.79998779296875</AltitudeMeters>
            <DistanceMeters>38960.867405845</DistanceMeters>
          </Trackpoint>
          <Trackpoint>
            <Time>2019-07-19T09:38:13.000Z</Time>
            <Position>
              <LatitudeDegrees>40.7794963382184505462646484375</LatitudeDegrees>
              <LongitudeDegrees>-3.3355745114386081695556640625</LongitudeDegrees>
            </Position>
            <AltitudeMeters>851.20001220703125</AltitudeMeters>
            <DistanceMeters>39022.209707763</DistanceMeters>
          </Trackpoint>
          <Trackpoint>
            <Time>2019-07-19T09:38:29.000Z</Time>
            <Position>
              <LatitudeDegrees>40.78001827932894229888916015625</LatitudeDegrees>
              <LongitudeDegrees>-3.335452638566493988037109375</LongitudeDegrees>
            </Position>
            <AltitudeMeters>852.5999755859375</AltitudeMeters>
            <DistanceMeters>39081.20385029</DistanceMeters>
          </Trackpoint>
          <Trackpoint>
            <Time>2019-07-19T09:38:30.000Z</Time>
            <Position>
              <LatitudeDegrees>40.780018866062164306640625</LatitudeDegrees>
              <LongitudeDegrees>-3.33545096218585968017578125</LongitudeDegrees>
            </Position>
            <AltitudeMeters>852.5999755859375</AltitudeMeters>
            <DistanceMeters>39081.338238358</DistanceMeters>
          </Trackpoint>
          <Trackpoint>
            <Time>2019-07-19T09:38:40.000Z</Time>
            <Position>
              <LatitudeDegrees>40.78007779084146022796630859375</LatitudeDegrees>
              <LongitudeDegrees>-3.3354001678526401519775390625</LongitudeDegrees>
            </Position>
            <AltitudeMeters>853.4000244140625</AltitudeMeters>
            <DistanceMeters>39089.170884103</DistanceMeters>
          </Trackpoint>
          <Trackpoint>
            <Time>2019-07-19T09:38:41.000Z</Time>
            <Position>
              <LatitudeDegrees>40.78010134398937225341796875</LatitudeDegrees>
              <LongitudeDegrees>-3.33538583479821681976318359375</LongitudeDegrees>
            </Position>
            <AltitudeMeters>853.4000244140625</AltitudeMeters>
            <DistanceMeters>39092.059446139</DistanceMeters>
          </Trackpoint>
          <Trackpoint>
            <Time>2019-07-19T09:38:49.000Z</Time>
            <Position>
              <LatitudeDegrees>40.780344419181346893310546875</LatitudeDegrees>
              <LongitudeDegrees>-3.3352261595427989959716796875</LongitudeDegrees>
            </Position>
            <AltitudeMeters>853.5999755859375</AltitudeMeters>
            <DistanceMeters>39122.276447141</DistanceMeters>
          </Trackpoint>
          <Trackpoint>
            <Time>2019-07-19T09:39:06.000Z</Time>
            <Position>
              <LatitudeDegrees>40.78085211105644702911376953125</LatitudeDegrees>
              <LongitudeDegrees>-3.33486682735383510589599609375</LongitudeDegrees>
            </Position>
            <AltitudeMeters>854</AltitudeMeters>
            <DistanceMeters>39186.387302968</DistanceMeters>
          </Trackpoint>
          <Trackpoint>
            <Time>2019-07-19T09:39:14.000Z</Time>
            <Position>
              <LatitudeDegrees>40.781151764094829559326171875</LatitudeDegrees>
              <LongitudeDegrees>-3.33469801582396030426025390625</LongitudeDegrees>
            </Position>
            <AltitudeMeters>854.5999755859375</AltitudeMeters>
            <DistanceMeters>39222.647186175</DistanceMeters>
          </Trackpoint>
          <Trackpoint>
            <Time>2019-07-19T09:39:15.000Z</Time>
            <Position>
              <LatitudeDegrees>40.7811925001442432403564453125</LatitudeDegrees>
              <LongitudeDegrees>-3.33468854427337646484375</LongitudeDegrees>
            </Position>
            <AltitudeMeters>854.79998779296875</AltitudeMeters>
            <DistanceMeters>39227.251816398</DistanceMeters>
          </Trackpoint>
          <Trackpoint>
            <Time>2019-07-19T09:39:29.000Z</Time>
            <Position>
              <LatitudeDegrees>40.781746208667755126953125</LatitudeDegrees>
              <LongitudeDegrees>-3.33461034111678600311279296875</LongitudeDegrees>
            </Position>
            <AltitudeMeters>855.5999755859375</AltitudeMeters>
            <DistanceMeters>39289.232112144</DistanceMeters>
          </Trackpoint>
          <Trackpoint>
            <Time>2019-07-19T09:39:42.000Z</Time>
            <Position>
              <LatitudeDegrees>40.782314836978912353515625</LatitudeDegrees>
              <LongitudeDegrees>-3.33453741855919361114501953125</LongitudeDegrees>
            </Position>
            <AltitudeMeters>855.5999755859375</AltitudeMeters>
            <DistanceMeters>39352.819257769</DistanceMeters>
          </Trackpoint>
          <Trackpoint>
            <Time>2019-07-19T09:39:47.000Z</Time>
            <Position>
              <LatitudeDegrees>40.7825439982116222381591796875</LatitudeDegrees>
              <LongitudeDegrees>-3.33449668250977993011474609375</LongitudeDegrees>
            </Position>
            <AltitudeMeters>855.79998779296875</AltitudeMeters>
            <DistanceMeters>39378.555537748</DistanceMeters>
          </Trackpoint>
          <Trackpoint>
            <Time>2019-07-19T09:39:52.000Z</Time>
            <Position>
              <LatitudeDegrees>40.78276184387505054473876953125</LatitudeDegrees>
              <LongitudeDegrees>-3.334472961723804473876953125</LongitudeDegrees>
            </Position>
            <AltitudeMeters>857</AltitudeMeters>
            <DistanceMeters>39402.88441813</DistanceMeters>
          </Trackpoint>
          <Trackpoint>
            <Time>2019-07-19T09:39:56.000Z</Time>
            <Position>
              <LatitudeDegrees>40.7828185893595218658447265625</LatitudeDegrees>
              <LongitudeDegrees>-3.33446466363966464996337890625</LongitudeDegrees>
            </Position>
            <AltitudeMeters>857.5999755859375</AltitudeMeters>
            <DistanceMeters>39409.23914093</DistanceMeters>
          </Trackpoint>
          <Trackpoint>
            <Time>2019-07-19T09:40:58.000Z</Time>
            <Position>
              <LatitudeDegrees>40.78277877531945705413818359375</LatitudeDegrees>
              <LongitudeDegrees>-3.3344479836523532867431640625</LongitudeDegrees>
            </Position>
            <AltitudeMeters>857.5999755859375</AltitudeMeters>
            <DistanceMeters>39413.888657357</DistanceMeters>
          </Trackpoint>
          <Trackpoint>
            <Time>2019-07-19T09:41:17.000Z</Time>
            <Position>
              <LatitudeDegrees>40.7822127453982830047607421875</LatitudeDegrees>
              <LongitudeDegrees>-3.33452719263732433319091796875</LongitudeDegrees>
            </Position>
            <AltitudeMeters>856.5999755859375</AltitudeMeters>
            <DistanceMeters>39477.24162159</DistanceMeters>
          </Trackpoint>
          <Trackpoint>
            <Time>2019-07-19T09:41:27.000Z</Time>
            <Position>
              <LatitudeDegrees>40.78183547593653202056884765625</LatitudeDegrees>
              <LongitudeDegrees>-3.33458066917955875396728515625</LongitudeDegrees>
            </Position>
            <AltitudeMeters>856</AltitudeMeters>
            <DistanceMeters>39519.473700139</DistanceMeters>
          </Trackpoint>
          <Trackpoint>
            <Time>2019-07-19T09:41:36.000Z</Time>
            <Position>
              <LatitudeDegrees>40.7814898900687694549560546875</LatitudeDegrees>
              <LongitudeDegrees>-3.3346229977905750274658203125</LongitudeDegrees>
            </Position>
            <AltitudeMeters>854.79998779296875</AltitudeMeters>
            <DistanceMeters>39558.103199133</DistanceMeters>
          </Trackpoint>
          <Trackpoint>
            <Time>2019-07-19T09:41:39.000Z</Time>
            <Position>
              <LatitudeDegrees>40.78136743046343326568603515625</LatitudeDegrees>
              <LongitudeDegrees>-3.33464185707271099090576171875</LongitudeDegrees>
            </Position>
            <AltitudeMeters>853.79998779296875</AltitudeMeters>
            <DistanceMeters>39571.825925326</DistanceMeters>
          </Trackpoint>
          <Trackpoint>
            <Time>2019-07-19T09:41:48.000Z</Time>
            <Position>
              <LatitudeDegrees>40.78098303638398647308349609375</LatitudeDegrees>
              <LongitudeDegrees>-3.33474218845367431640625</LongitudeDegrees>
            </Position>
            <AltitudeMeters>853</AltitudeMeters>
            <DistanceMeters>39615.437286471</DistanceMeters>
          </Trackpoint>
          <Trackpoint>
            <Time>2019-07-19T09:41:52.000Z</Time>
            <Position>
              <LatitudeDegrees>40.7808146439492702484130859375</LatitudeDegrees>
              <LongitudeDegrees>-3.3348442800343036651611328125</LongitudeDegrees>
            </Position>
            <AltitudeMeters>852.79998779296875</AltitudeMeters>
            <DistanceMeters>39636.06049186</DistanceMeters>
          </Trackpoint>
          <Trackpoint>
            <Time>2019-07-19T09:42:03.000Z</Time>
            <Position>
              <LatitudeDegrees>40.78032757155597209930419921875</LatitudeDegrees>
              <LongitudeDegrees>-3.3352083899080753326416015625</LongitudeDegrees>
            </Position>
            <AltitudeMeters>852.4000244140625</AltitudeMeters>
            <DistanceMeters>39698.355413737</DistanceMeters>
          </Trackpoint>
          <Trackpoint>
            <Time>2019-07-19T09:42:07.000Z</Time>
            <Position>
              <LatitudeDegrees>40.780136547982692718505859375</LatitudeDegrees>
              <LongitudeDegrees>-3.33534208126366138458251953125</LongitudeDegrees>
            </Position>
            <AltitudeMeters>851.79998779296875</AltitudeMeters>
            <DistanceMeters>39722.417633947</DistanceMeters>
          </Trackpoint>
          <Trackpoint>
            <Time>2019-07-19T09:42:12.000Z</Time>
            <Position>
              <LatitudeDegrees>40.77986069954931735992431640625</LatitudeDegrees>
              <LongitudeDegrees>-3.335465379059314727783203125</LongitudeDegrees>
            </Position>
            <AltitudeMeters>850.5999755859375</AltitudeMeters>
            <DistanceMeters>39754.831077672</DistanceMeters>
          </Trackpoint>
          <Trackpoint>
            <Time>2019-07-19T09:42:16.000Z</Time>
            <Position>
              <LatitudeDegrees>40.77963438816368579864501953125</LatitudeDegrees>
              <LongitudeDegrees>-3.33551927469670772552490234375</LongitudeDegrees>
            </Position>
            <AltitudeMeters>850.4000244140625</AltitudeMeters>
            <DistanceMeters>39780.426272257</DistanceMeters>
          </Trackpoint>
          <Trackpoint>
            <Time>2019-07-19T09:42:21.000Z</Time>
            <Position>
              <LatitudeDegrees>40.77935577370226383209228515625</LatitudeDegrees>
              <LongitudeDegrees>-3.33555565215647220611572265625</LongitudeDegrees>
            </Position>
            <AltitudeMeters>850.4000244140625</AltitudeMeters>
            <DistanceMeters>39811.587790839</DistanceMeters>
          </Trackpoint>
          <Trackpoint>
            <Time>2019-07-19T09:42:30.000Z</Time>
            <Position>
              <LatitudeDegrees>40.77887381426990032196044921875</LatitudeDegrees>
              <LongitudeDegrees>-3.33562103100121021270751953125</LongitudeDegrees>
            </Position>
            <AltitudeMeters>850.20001220703125</AltitudeMeters>
            <DistanceMeters>39865.51308599</DistanceMeters>
          </Trackpoint>
          <Trackpoint>
            <Time>2019-07-19T09:42:40.000Z</Time>
            <Position>
              <LatitudeDegrees>40.77841230668127536773681640625</LatitudeDegrees>
              <LongitudeDegrees>-3.33589964546263217926025390625</LongitudeDegrees>
            </Position>
            <AltitudeMeters>849.4000244140625</AltitudeMeters>
            <DistanceMeters>39921.992699519</DistanceMeters>
          </Trackpoint>
          <Trackpoint>
            <Time>2019-07-19T09:42:47.000Z</Time>
            <Position>
              <LatitudeDegrees>40.7780751027166843414306640625</LatitudeDegrees>
              <LongitudeDegrees>-3.3360819518566131591796875</LongitudeDegrees>
            </Position>
            <AltitudeMeters>849.4000244140625</AltitudeMeters>
            <DistanceMeters>39962.547625277</DistanceMeters>
          </Trackpoint>
          <Trackpoint>
            <Time>2019-07-19T09:42:53.000Z</Time>
            <Position>
              <LatitudeDegrees>40.77780042774975299835205078125</LatitudeDegrees>
              <LongitudeDegrees>-3.3362953551113605499267578125</LongitudeDegrees>
            </Position>
            <AltitudeMeters>848.79998779296875</AltitudeMeters>
            <DistanceMeters>39998.017802338</DistanceMeters>
          </Trackpoint>
          <Trackpoint>
            <Time>2019-07-19T09:43:01.000Z</Time>
            <Position>
              <LatitudeDegrees>40.77738418243825435638427734375</LatitudeDegrees>
              <LongitudeDegrees>-3.33645251579582691192626953125</LongitudeDegrees>
            </Position>
            <AltitudeMeters>849.4000244140625</AltitudeMeters>
            <DistanceMeters>40046.203187211</DistanceMeters>
          </Trackpoint>
          <Trackpoint>
            <Time>2019-07-19T09:43:06.000Z</Time>
            <Position>
              <LatitudeDegrees>40.7771232537925243377685546875</LatitudeDegrees>
              <LongitudeDegrees>-3.3364935033023357391357421875</LongitudeDegrees>
            </Position>
            <AltitudeMeters>849.79998779296875</AltitudeMeters>
            <DistanceMeters>40075.449810283</DistanceMeters>
          </Trackpoint>
          <Trackpoint>
            <Time>2019-07-19T09:43:16.000Z</Time>
            <Position>
              <LatitudeDegrees>40.77657826244831085205078125</LatitudeDegrees>
              <LongitudeDegrees>-3.336762897670269012451171875</LongitudeDegrees>
            </Position>
            <AltitudeMeters>849.20001220703125</AltitudeMeters>
            <DistanceMeters>40140.218724994</DistanceMeters>
          </Trackpoint>
          <Trackpoint>
            <Time>2019-07-19T09:43:21.000Z</Time>
            <Position>
              <LatitudeDegrees>40.7762840576469898223876953125</LatitudeDegrees>
              <LongitudeDegrees>-3.33684596233069896697998046875</LongitudeDegrees>
            </Position>
            <AltitudeMeters>848.79998779296875</AltitudeMeters>
            <DistanceMeters>40173.704418689</DistanceMeters>
          </Trackpoint>
          <Trackpoint>
            <Time>2019-07-19T09:43:31.000Z</Time>
            <Position>
              <LatitudeDegrees>40.775700844824314117431640625</LatitudeDegrees>
              <LongitudeDegrees>-3.3367416076362133026123046875</LongitudeDegrees>
            </Position>
            <AltitudeMeters>849</AltitudeMeters>
            <DistanceMeters>40239.210296942</DistanceMeters>
          </Trackpoint>
          <Trackpoint>
            <Time>2019-07-19T09:43:35.000Z</Time>
            <Position>
              <LatitudeDegrees>40.77547512017190456390380859375</LatitudeDegrees>
              <LongitudeDegrees>-3.336608670651912689208984375</LongitudeDegrees>
            </Position>
            <AltitudeMeters>848.4000244140625</AltitudeMeters>
            <DistanceMeters>40266.719176711</DistanceMeters>
          </Trackpoint>
          <Trackpoint>
            <Time>2019-07-19T09:43:43.000Z</Time>
            <Position>
              <LatitudeDegrees>40.77504864893853664398193359375</LatitudeDegrees>
              <LongitudeDegrees>-3.3362544514238834381103515625</LongitudeDegrees>
            </Position>
            <AltitudeMeters>847.20001220703125</AltitudeMeters>
            <DistanceMeters>40322.795084192</DistanceMeters>
          </Trackpoint>
          <Trackpoint>
            <Time>2019-07-19T09:43:52.000Z</Time>
            <Position>
              <LatitudeDegrees>40.774551518261432647705078125</LatitudeDegrees>
              <LongitudeDegrees>-3.3359077759087085723876953125</LongitudeDegrees>
            </Position>
            <AltitudeMeters>847</AltitudeMeters>
            <DistanceMeters>40385.368353691</DistanceMeters>
          </Trackpoint>
          <Trackpoint>
            <Time>2019-07-19T09:44:00.000Z</Time>
            <Position>
              <LatitudeDegrees>40.77412161044776439666748046875</LatitudeDegrees>
              <LongitudeDegrees>-3.33560091443359851837158203125</LongitudeDegrees>
            </Position>
            <AltitudeMeters>847</AltitudeMeters>
            <DistanceMeters>40439.761000857</DistanceMeters>
          </Trackpoint>
          <Trackpoint>
            <Time>2019-07-19T09:44:06.000Z</Time>
            <Position>
              <LatitudeDegrees>40.7737654633820056915283203125</LatitudeDegrees>
              <LongitudeDegrees>-3.33551592193543910980224609375</LongitudeDegrees>
            </Position>
            <AltitudeMeters>846.20001220703125</AltitudeMeters>
            <DistanceMeters>40480.043025712</DistanceMeters>
          </Trackpoint>
          <Trackpoint>
            <Time>2019-07-19T09:44:15.000Z</Time>
            <Position>
              <LatitudeDegrees>40.77319188974797725677490234375</LatitudeDegrees>
              <LongitudeDegrees>-3.33554190583527088165283203125</LongitudeDegrees>
            </Position>
            <AltitudeMeters>845.4000244140625</AltitudeMeters>
            <DistanceMeters>40543.92041852</DistanceMeters>
          </Trackpoint>
          <Trackpoint>
            <Time>2019-07-19T09:44:17.000Z</Time>
            <Position>
              <LatitudeDegrees>40.7730576954782009124755859375</LatitudeDegrees>
              <LongitudeDegrees>-3.33555581979453563690185546875</LongitudeDegrees>
            </Position>
            <AltitudeMeters>845.79998779296875</AltitudeMeters>
            <DistanceMeters>40558.90242807</DistanceMeters>
          </Trackpoint>
          <Trackpoint>
            <Time>2019-07-19T09:44:20.000Z</Time>
            <Position>
              <LatitudeDegrees>40.7728582061827182769775390625</LatitudeDegrees>
              <LongitudeDegrees>-3.33557342179119586944580078125</LongitudeDegrees>
            </Position>
            <AltitudeMeters>845.20001220703125</AltitudeMeters>
            <DistanceMeters>40581.15552588</DistanceMeters>
          </Trackpoint>
          <Trackpoint>
            <Time>2019-07-19T09:44:22.000Z</Time>
            <Position>
              <LatitudeDegrees>40.77273063361644744873046875</LatitudeDegrees>
              <LongitudeDegrees>-3.3355835638940334320068359375</LongitudeDegrees>
            </Position>
            <AltitudeMeters>844</AltitudeMeters>
            <DistanceMeters>40595.380361659</DistanceMeters>
          </Trackpoint>
          <Trackpoint>
            <Time>2019-07-19T09:44:30.000Z</Time>
            <Position>
              <LatitudeDegrees>40.77220366336405277252197265625</LatitudeDegrees>
              <LongitudeDegrees>-3.33560661412775516510009765625</LongitudeDegrees>
            </Position>
            <AltitudeMeters>844</AltitudeMeters>
            <DistanceMeters>40654.065339929</DistanceMeters>
          </Trackpoint>
          <Trackpoint>
            <Time>2019-07-19T09:44:37.000Z</Time>
            <Position>
              <LatitudeDegrees>40.77173176221549510955810546875</LatitudeDegrees>
              <LongitudeDegrees>-3.33561097271740436553955078125</LongitudeDegrees>
            </Position>
            <AltitudeMeters>843.5999755859375</AltitudeMeters>
            <DistanceMeters>40706.590190477</DistanceMeters>
          </Trackpoint>
          <Trackpoint>
            <Time>2019-07-19T09:44:39.000Z</Time>
            <Position>
              <LatitudeDegrees>40.7716032676398754119873046875</LatitudeDegrees>
              <LongitudeDegrees>-3.33555950783193111419677734375</LongitudeDegrees>
            </Position>
            <AltitudeMeters>843</AltitudeMeters>
            <DistanceMeters>40721.535086287</DistanceMeters>
          </Trackpoint>
          <Trackpoint>
            <Time>2019-07-19T09:44:48.000Z</Time>
            <Position>
              <LatitudeDegrees>40.77109188772737979888916015625</LatitudeDegrees>
              <LongitudeDegrees>-3.335235379636287689208984375</LongitudeDegrees>
            </Position>
            <AltitudeMeters>843.20001220703125</AltitudeMeters>
            <DistanceMeters>40784.670308975</DistanceMeters>
          </Trackpoint>
          <Trackpoint>
            <Time>2019-07-19T09:44:50.000Z</Time>
            <Position>
              <LatitudeDegrees>40.7709752954542636871337890625</LatitudeDegrees>
              <LongitudeDegrees>-3.335171677172183990478515625</LongitudeDegrees>
            </Position>
            <AltitudeMeters>843.20001220703125</AltitudeMeters>
            <DistanceMeters>40798.714344353</DistanceMeters>
          </Trackpoint>
          <Trackpoint>
            <Time>2019-07-19T09:45:00.000Z</Time>
            <Position>
              <LatitudeDegrees>40.77038663439452648162841796875</LatitudeDegrees>
              <LongitudeDegrees>-3.335089869797229766845703125</LongitudeDegrees>
            </Position>
            <AltitudeMeters>842.5999755859375</AltitudeMeters>
            <DistanceMeters>40864.595344974</DistanceMeters>
          </Trackpoint>
          <Trackpoint>
            <Time>2019-07-19T09:45:08.000Z</Time>
            <Position>
              <LatitudeDegrees>40.76988791115581989288330078125</LatitudeDegrees>
              <LongitudeDegrees>-3.33518165163695812225341796875</LongitudeDegrees>
            </Position>
            <AltitudeMeters>842</AltitudeMeters>
            <DistanceMeters>40920.640808938</DistanceMeters>
          </Trackpoint>
          <Trackpoint>
            <Time>2019-07-19T09:45:16.000Z</Time>
            <Position>
              <LatitudeDegrees>40.769384913146495819091796875</LatitudeDegrees>
              <LongitudeDegrees>-3.33536823280155658721923828125</LongitudeDegrees>
            </Position>
            <AltitudeMeters>841</AltitudeMeters>
            <DistanceMeters>40978.792577416</DistanceMeters>
          </Trackpoint>
          <Trackpoint>
            <Time>2019-07-19T09:45:20.000Z</Time>
            <Position>
              <LatitudeDegrees>40.76915516518056392669677734375</LatitudeDegrees>
              <LongitudeDegrees>-3.335523717105388641357421875</LongitudeDegrees>
            </Position>
            <AltitudeMeters>839.79998779296875</AltitudeMeters>
            <DistanceMeters>41007.5271223</DistanceMeters>
          </Trackpoint>
          <Trackpoint>
            <Time>2019-07-19T09:45:25.000Z</Time>
            <Position>
              <LatitudeDegrees>40.76885358430445194244384765625</LatitudeDegrees>
              <LongitudeDegrees>-3.33571356721222400665283203125</LongitudeDegrees>
            </Position>
            <AltitudeMeters>838.5999755859375</AltitudeMeters>
            <DistanceMeters>41044.713541681</DistanceMeters>
          </Trackpoint>
          <Trackpoint>
            <Time>2019-07-19T09:45:29.000Z</Time>
            <Position>
              <LatitudeDegrees>40.76862526126205921173095703125</LatitudeDegrees>
              <LongitudeDegrees>-3.33589126355946063995361328125</LongitudeDegrees>
            </Position>
            <AltitudeMeters>838.4000244140625</AltitudeMeters>
            <DistanceMeters>41074.212258372</DistanceMeters>
          </Trackpoint>
          <Trackpoint>
            <Time>2019-07-19T09:45:31.000Z</Time>
            <Position>
              <LatitudeDegrees>40.7684939168393611907958984375</LatitudeDegrees>
              <LongitudeDegrees>-3.33594985306262969970703125</LongitudeDegrees>
            </Position>
            <AltitudeMeters>838.20001220703125</AltitudeMeters>
            <DistanceMeters>41089.642911491</DistanceMeters>
          </Trackpoint>
          <Trackpoint>
            <Time>2019-07-19T09:45:35.000Z</Time>
            <Position>
              <LatitudeDegrees>40.7682163082063198089599609375</LatitudeDegrees>
              <LongitudeDegrees>-3.33597994409501552581787109375</LongitudeDegrees>
            </Position>
            <AltitudeMeters>837.79998779296875</AltitudeMeters>
            <DistanceMeters>41120.645222317</DistanceMeters>
          </Trackpoint>
          <Trackpoint>
            <Time>2019-07-19T09:45:37.000Z</Time>
            <Position>
              <LatitudeDegrees>40.7680852152407169342041015625</LatitudeDegrees>
              <LongitudeDegrees>-3.3359644375741481781005859375</LongitudeDegrees>
            </Position>
            <AltitudeMeters>837.5999755859375</AltitudeMeters>
            <DistanceMeters>41135.294754622</DistanceMeters>
          </Trackpoint>
          <Trackpoint>
            <Time>2019-07-19T09:45:46.000Z</Time>
            <Position>
              <LatitudeDegrees>40.76752178370952606201171875</LatitudeDegrees>
              <LongitudeDegrees>-3.33574910648167133331298828125</LongitudeDegrees>
            </Position>
            <AltitudeMeters>837.20001220703125</AltitudeMeters>
            <DistanceMeters>41200.579905547</DistanceMeters>
          </Trackpoint>
          <Trackpoint>
            <Time>2019-07-19T09:45:51.000Z</Time>
            <Position>
              <LatitudeDegrees>40.76720519922673702239990234375</LatitudeDegrees>
              <LongitudeDegrees>-3.335646092891693115234375</LongitudeDegrees>
            </Position>
            <AltitudeMeters>836.5999755859375</AltitudeMeters>
            <DistanceMeters>41236.870656286</DistanceMeters>
          </Trackpoint>
          <Trackpoint>
            <Time>2019-07-19T09:45:54.000Z</Time>
            <Position>
              <LatitudeDegrees>40.76702197082340717315673828125</LatitudeDegrees>
              <LongitudeDegrees>-3.33558767102658748626708984375</LongitudeDegrees>
            </Position>
            <AltitudeMeters>835.5999755859375</AltitudeMeters>
            <DistanceMeters>41257.850695518</DistanceMeters>
          </Trackpoint>
          <Trackpoint>
            <Time>2019-07-19T09:45:55.000Z</Time>
            <Position>
              <LatitudeDegrees>40.7669632136821746826171875</LatitudeDegrees>
              <LongitudeDegrees>-3.33555967546999454498291015625</LongitudeDegrees>
            </Position>
            <AltitudeMeters>835.4000244140625</AltitudeMeters>
            <DistanceMeters>41264.803898325</DistanceMeters>
          </Trackpoint>
          <Trackpoint>
            <Time>2019-07-19T09:46:04.000Z</Time>
            <Position>
              <LatitudeDegrees>40.766470022499561309814453125</LatitudeDegrees>
              <LongitudeDegrees>-3.3352060429751873016357421875</LongitudeDegrees>
            </Position>
            <AltitudeMeters>835.20001220703125</AltitudeMeters>
            <DistanceMeters>41327.269201427</DistanceMeters>
          </Trackpoint>
          <Trackpoint>
            <Time>2019-07-19T09:46:14.000Z</Time>
            <Position>
              <LatitudeDegrees>40.76592025347054004669189453125</LatitudeDegrees>
              <LongitudeDegrees>-3.335045613348484039306640625</LongitudeDegrees>
            </Position>
            <AltitudeMeters>834.5999755859375</AltitudeMeters>
            <DistanceMeters>41389.9362756</DistanceMeters>
          </Trackpoint>
          <Trackpoint>
            <Time>2019-07-19T09:46:24.000Z</Time>
            <Position>
              <LatitudeDegrees>40.76538984663784503936767578125</LatitudeDegrees>
              <LongitudeDegrees>-3.33490354008972644805908203125</LongitudeDegrees>
            </Position>
            <AltitudeMeters>834.79998779296875</AltitudeMeters>
            <DistanceMeters>41450.174218775</DistanceMeters>
          </Trackpoint>
          <Trackpoint>
            <Time>2019-07-19T09:46:35.000Z</Time>
            <Position>
              <LatitudeDegrees>40.76484200544655323028564453125</LatitudeDegrees>
              <LongitudeDegrees>-3.33476029336452484130859375</LongitudeDegrees>
            </Position>
            <AltitudeMeters>835.4000244140625</AltitudeMeters>
            <DistanceMeters>41512.334184585</DistanceMeters>
          </Trackpoint>
          <Trackpoint>
            <Time>2019-07-19T09:46:39.000Z</Time>
            <Position>
              <LatitudeDegrees>40.76464301906526088714599609375</LatitudeDegrees>
              <LongitudeDegrees>-3.33471469581127166748046875</LongitudeDegrees>
            </Position>
            <AltitudeMeters>835.79998779296875</AltitudeMeters>
            <DistanceMeters>41534.812974311</DistanceMeters>
          </Trackpoint>
          <Trackpoint>
            <Time>2019-07-19T09:46:43.000Z</Time>
            <Position>
              <LatitudeDegrees>40.76444906182587146759033203125</LatitudeDegrees>
              <LongitudeDegrees>-3.33470405079424381256103515625</LongitudeDegrees>
            </Position>
            <AltitudeMeters>836.4000244140625</AltitudeMeters>
            <DistanceMeters>41556.419382898</DistanceMeters>
          </Trackpoint>
          <Trackpoint>
            <Time>2019-07-19T09:46:44.000Z</Time>
            <Position>
              <LatitudeDegrees>40.76440111733973026275634765625</LatitudeDegrees>
              <LongitudeDegrees>-3.3347111754119396209716796875</LongitudeDegrees>
            </Position>
            <AltitudeMeters>836.5999755859375</AltitudeMeters>
            <DistanceMeters>41561.789863711</DistanceMeters>
          </Trackpoint>
          <Trackpoint>
            <Time>2019-07-19T09:46:47.000Z</Time>
            <Position>
              <LatitudeDegrees>40.764255523681640625</LatitudeDegrees>
              <LongitudeDegrees>-3.33477211184799671173095703125</LongitudeDegrees>
            </Position>
            <AltitudeMeters>837</AltitudeMeters>
            <DistanceMeters>41578.789290359</DistanceMeters>
          </Trackpoint>
          <Trackpoint>
            <Time>2019-07-19T09:46:52.000Z</Time>
            <Position>
              <LatitudeDegrees>40.76398453675210475921630859375</LatitudeDegrees>
              <LongitudeDegrees>-3.334786780178546905517578125</LongitudeDegrees>
            </Position>
            <AltitudeMeters>837</AltitudeMeters>
            <DistanceMeters>41608.975794197</DistanceMeters>
          </Trackpoint>
          <Trackpoint>
            <Time>2019-07-19T09:46:58.000Z</Time>
            <Position>
              <LatitudeDegrees>40.76361916959285736083984375</LatitudeDegrees>
              <LongitudeDegrees>-3.334723077714443206787109375</LongitudeDegrees>
            </Position>
            <AltitudeMeters>835.4000244140625</AltitudeMeters>
            <DistanceMeters>41649.99498658</DistanceMeters>
          </Trackpoint>
          <Trackpoint>
            <Time>2019-07-19T09:47:02.000Z</Time>
            <Position>
              <LatitudeDegrees>40.76337508857250213623046875</LatitudeDegrees>
              <LongitudeDegrees>-3.334723077714443206787109375</LongitudeDegrees>
            </Position>
            <AltitudeMeters>834.20001220703125</AltitudeMeters>
            <DistanceMeters>41677.161660056</DistanceMeters>
          </Trackpoint>
          <Trackpoint>
            <Time>2019-07-19T09:47:05.000Z</Time>
            <Position>
              <LatitudeDegrees>40.76318808831274509429931640625</LatitudeDegrees>
              <LongitudeDegrees>-3.33476507104933261871337890625</LongitudeDegrees>
            </Position>
            <AltitudeMeters>833.20001220703125</AltitudeMeters>
            <DistanceMeters>41698.274277929</DistanceMeters>
          </Trackpoint>
          <Trackpoint>
            <Time>2019-07-19T09:47:09.000Z</Time>
            <Position>
              <LatitudeDegrees>40.762945599853992462158203125</LatitudeDegrees>
              <LongitudeDegrees>-3.33483095280826091766357421875</LongitudeDegrees>
            </Position>
            <AltitudeMeters>832.4000244140625</AltitudeMeters>
            <DistanceMeters>41725.82923969</DistanceMeters>
          </Trackpoint>
          <Trackpoint>
            <Time>2019-07-19T09:47:17.000Z</Time>
            <Position>
              <LatitudeDegrees>40.76248300261795520782470703125</LatitudeDegrees>
              <LongitudeDegrees>-3.3348285220563411712646484375</LongitudeDegrees>
            </Position>
            <AltitudeMeters>832.5999755859375</AltitudeMeters>
            <DistanceMeters>41777.317586356</DistanceMeters>
          </Trackpoint>
          <Trackpoint>
            <Time>2019-07-19T09:47:25.000Z</Time>
            <Position>
              <LatitudeDegrees>40.7620306313037872314453125</LatitudeDegrees>
              <LongitudeDegrees>-3.33483849652111530303955078125</LongitudeDegrees>
            </Position>
            <AltitudeMeters>832.79998779296875</AltitudeMeters>
            <DistanceMeters>41827.674393312</DistanceMeters>
          </Trackpoint>
          <Trackpoint>
            <Time>2019-07-19T09:47:27.000Z</Time>
            <Position>
              <LatitudeDegrees>40.7619305513799190521240234375</LatitudeDegrees>
              <LongitudeDegrees>-3.334874622523784637451171875</LongitudeDegrees>
            </Position>
            <AltitudeMeters>832.79998779296875</AltitudeMeters>
            <DistanceMeters>41839.222387464</DistanceMeters>
          </Trackpoint>
          <Trackpoint>
            <Time>2019-07-19T09:47:29.000Z</Time>
            <Position>
              <LatitudeDegrees>40.76183072291314601898193359375</LatitudeDegrees>
              <LongitudeDegrees>-3.334932625293731689453125</LongitudeDegrees>
            </Position>
            <AltitudeMeters>832</AltitudeMeters>
            <DistanceMeters>41851.362026979</DistanceMeters>
          </Trackpoint>
          <Trackpoint>
            <Time>2019-07-19T09:47:31.000Z</Time>
            <Position>
              <LatitudeDegrees>40.76172896660864353179931640625</LatitudeDegrees>
              <LongitudeDegrees>-3.33499096333980560302734375</LongitudeDegrees>
            </Position>
            <AltitudeMeters>830.79998779296875</AltitudeMeters>
            <DistanceMeters>41863.709650665</DistanceMeters>
          </Trackpoint>
          <Trackpoint>
            <Time>2019-07-19T09:47:41.000Z</Time>
            <Position>
              <LatitudeDegrees>40.76118514873087406158447265625</LatitudeDegrees>
              <LongitudeDegrees>-3.33524149842560291290283203125</LongitudeDegrees>
            </Position>
            <AltitudeMeters>830.20001220703125</AltitudeMeters>
            <DistanceMeters>41927.816985121</DistanceMeters>
          </Trackpoint>
          <Trackpoint>
            <Time>2019-07-19T09:47:46.000Z</Time>
            <Position>
              <LatitudeDegrees>40.76090502552688121795654296875</LatitudeDegrees>
              <LongitudeDegrees>-3.3353505469858646392822265625</LongitudeDegrees>
            </Position>
            <AltitudeMeters>829.5999755859375</AltitudeMeters>
            <DistanceMeters>41960.322372592</DistanceMeters>
          </Trackpoint>
          <Trackpoint>
            <Time>2019-07-19T09:47:54.000Z</Time>
            <Position>
              <LatitudeDegrees>40.760433711111545562744140625</LatitudeDegrees>
              <LongitudeDegrees>-3.3354447595775127410888671875</LongitudeDegrees>
            </Position>
            <AltitudeMeters>828.5999755859375</AltitudeMeters>
            <DistanceMeters>42013.378519832</DistanceMeters>
          </Trackpoint>
          <Trackpoint>
            <Time>2019-07-19T09:48:03.000Z</Time>
            <Position>
              <LatitudeDegrees>40.75989416800439357757568359375</LatitudeDegrees>
              <LongitudeDegrees>-3.335441239178180694580078125</LongitudeDegrees>
            </Position>
            <AltitudeMeters>829.20001220703125</AltitudeMeters>
            <DistanceMeters>42073.431569044</DistanceMeters>
          </Trackpoint>
          <Trackpoint>
            <Time>2019-07-19T09:48:13.000Z</Time>
            <Position>
              <LatitudeDegrees>40.75931179337203502655029296875</LatitudeDegrees>
              <LongitudeDegrees>-3.33530721254646778106689453125</LongitudeDegrees>
            </Position>
            <AltitudeMeters>829.4000244140625</AltitudeMeters>
            <DistanceMeters>42139.22849427</DistanceMeters>
          </Trackpoint>
          <Trackpoint>
            <Time>2019-07-19T09:48:17.000Z</Time>
            <Position>
              <LatitudeDegrees>40.7591051794588565826416015625</LatitudeDegrees>
              <LongitudeDegrees>-3.335287012159824371337890625</LongitudeDegrees>
            </Position>
            <AltitudeMeters>829</AltitudeMeters>
            <DistanceMeters>42162.288092737</DistanceMeters>
          </Trackpoint>
          <Trackpoint>
            <Time>2019-07-19T09:48:23.000Z</Time>
            <Position>
              <LatitudeDegrees>40.7588265649974346160888671875</LatitudeDegrees>
              <LongitudeDegrees>-3.33533202297985553741455078125</LongitudeDegrees>
            </Position>
            <AltitudeMeters>829.79998779296875</AltitudeMeters>
            <DistanceMeters>42193.529633554</DistanceMeters>
          </Trackpoint>
          <Trackpoint>
            <Time>2019-07-19T09:48:33.000Z</Time>
            <Position>
              <LatitudeDegrees>40.75836447067558765411376953125</LatitudeDegrees>
              <LongitudeDegrees>-3.33545858971774578094482421875</LongitudeDegrees>
            </Position>
            <AltitudeMeters>828.79998779296875</AltitudeMeters>
            <DistanceMeters>42246.056890928</DistanceMeters>
          </Trackpoint>
          <Trackpoint>
            <Time>2019-07-19T09:48:37.000Z</Time>
            <Position>
              <LatitudeDegrees>40.758148469030857086181640625</LatitudeDegrees>
              <LongitudeDegrees>-3.33547116257250308990478515625</LongitudeDegrees>
            </Position>
            <AltitudeMeters>827.79998779296875</AltitudeMeters>
            <DistanceMeters>42270.121925575</DistanceMeters>
          </Trackpoint>
          <Trackpoint>
            <Time>2019-07-19T09:48:40.000Z</Time>
            <Position>
              <LatitudeDegrees>40.75799549929797649383544921875</LatitudeDegrees>
              <LongitudeDegrees>-3.33545708097517490386962890625</LongitudeDegrees>
            </Position>
            <AltitudeMeters>827.79998779296875</AltitudeMeters>
            <DistanceMeters>42287.189210243</DistanceMeters>
          </Trackpoint>
          <Trackpoint>
            <Time>2019-07-19T09:48:51.000Z</Time>
            <Position>
              <LatitudeDegrees>40.75740323401987552642822265625</LatitudeDegrees>
              <LongitudeDegrees>-3.3354839868843555450439453125</LongitudeDegrees>
            </Position>
            <AltitudeMeters>827.20001220703125</AltitudeMeters>
            <DistanceMeters>42353.148497839</DistanceMeters>
          </Trackpoint>
          <Trackpoint>
            <Time>2019-07-19T09:49:01.000Z</Time>
            <Position>
              <LatitudeDegrees>40.75684701092541217803955078125</LatitudeDegrees>
              <LongitudeDegrees>-3.335501253604888916015625</LongitudeDegrees>
            </Position>
            <AltitudeMeters>827</AltitudeMeters>
            <DistanceMeters>42415.074353453</DistanceMeters>
          </Trackpoint>
          <Trackpoint>
            <Time>2019-07-19T09:49:03.000Z</Time>
            <Position>
              <LatitudeDegrees>40.7567371241748332977294921875</LatitudeDegrees>
              <LongitudeDegrees>-3.33552178926765918731689453125</LongitudeDegrees>
            </Position>
            <AltitudeMeters>826.5999755859375</AltitudeMeters>
            <DistanceMeters>42427.427095325</DistanceMeters>
          </Trackpoint>
          <Trackpoint>
            <Time>2019-07-19T09:49:10.000Z</Time>
            <Position>
              <LatitudeDegrees>40.75636873953044414520263671875</LatitudeDegrees>
              <LongitudeDegrees>-3.3356717415153980255126953125</LongitudeDegrees>
            </Position>
            <AltitudeMeters>825.5999755859375</AltitudeMeters>
            <DistanceMeters>42470.333945652</DistanceMeters>
          </Trackpoint>
          <Trackpoint>
            <Time>2019-07-19T09:49:12.000Z</Time>
            <Position>
              <LatitudeDegrees>40.7562704198062419891357421875</LatitudeDegrees>
              <LongitudeDegrees>-3.33571926690638065338134765625</LongitudeDegrees>
            </Position>
            <AltitudeMeters>825.5999755859375</AltitudeMeters>
            <DistanceMeters>42481.987801225</DistanceMeters>
          </Trackpoint>
          <Trackpoint>
            <Time>2019-07-19T09:49:15.000Z</Time>
            <Position>
              <LatitudeDegrees>40.75611845590174198150634765625</LatitudeDegrees>
              <LongitudeDegrees>-3.33576285280287265777587890625</LongitudeDegrees>
            </Position>
            <AltitudeMeters>826.79998779296875</AltitudeMeters>
            <DistanceMeters>42499.296233161</DistanceMeters>
          </Trackpoint>
          <Trackpoint>
            <Time>2019-07-19T09:49:19.000Z</Time>
            <Position>
              <LatitudeDegrees>40.75590622611343860626220703125</LatitudeDegrees>
              <LongitudeDegrees>-3.33578514866530895233154296875</LongitudeDegrees>
            </Position>
            <AltitudeMeters>825.20001220703125</AltitudeMeters>
            <DistanceMeters>42522.992397691</DistanceMeters>
          </Trackpoint>
          <Trackpoint>
            <Time>2019-07-19T09:49:20.000Z</Time>
            <Position>
              <LatitudeDegrees>40.7558493129909038543701171875</LatitudeDegrees>
              <LongitudeDegrees>-3.3357843942940235137939453125</LongitudeDegrees>
            </Position>
            <AltitudeMeters>824.79998779296875</AltitudeMeters>
            <DistanceMeters>42529.327907915</DistanceMeters>
          </Trackpoint>
          <Trackpoint>
            <Time>2019-07-19T09:49:23.000Z</Time>
            <Position>
              <LatitudeDegrees>40.7556769810616970062255859375</LatitudeDegrees>
              <LongitudeDegrees>-3.33575941622257232666015625</LongitudeDegrees>
            </Position>
            <AltitudeMeters>824.20001220703125</AltitudeMeters>
            <DistanceMeters>42548.624181443</DistanceMeters>
          </Trackpoint>
          <Trackpoint>
            <Time>2019-07-19T09:49:26.000Z</Time>
            <Position>
              <LatitudeDegrees>40.75551428832113742828369140625</LatitudeDegrees>
              <LongitudeDegrees>-3.33574332296848297119140625</LongitudeDegrees>
            </Position>
            <AltitudeMeters>824.5999755859375</AltitudeMeters>
            <DistanceMeters>42566.782988437</DistanceMeters>
          </Trackpoint>
          <Trackpoint>
            <Time>2019-07-19T09:49:31.000Z</Time>
            <Position>
              <LatitudeDegrees>40.755235254764556884765625</LatitudeDegrees>
              <LongitudeDegrees>-3.335826806724071502685546875</LongitudeDegrees>
            </Position>
            <AltitudeMeters>825.20001220703125</AltitudeMeters>
            <DistanceMeters>42598.627573293</DistanceMeters>
          </Trackpoint>
          <Trackpoint>
            <Time>2019-07-19T09:49:33.000Z</Time>
            <Position>
              <LatitudeDegrees>40.75512863695621490478515625</LatitudeDegrees>
              <LongitudeDegrees>-3.33587114699184894561767578125</LongitudeDegrees>
            </Position>
            <AltitudeMeters>825.20001220703125</AltitudeMeters>
            <DistanceMeters>42611.069179717</DistanceMeters>
          </Trackpoint>
          <Trackpoint>
            <Time>2019-07-19T09:49:43.000Z</Time>
            <Position>
              <LatitudeDegrees>40.75455456040799617767333984375</LatitudeDegrees>
              <LongitudeDegrees>-3.33600928075611591339111328125</LongitudeDegrees>
            </Position>
            <AltitudeMeters>824.79998779296875</AltitudeMeters>
            <DistanceMeters>42676.017697098</DistanceMeters>
          </Trackpoint>
          <Trackpoint>
            <Time>2019-07-19T09:49:51.000Z</Time>
            <Position>
              <LatitudeDegrees>40.754103027284145355224609375</LatitudeDegrees>
              <LongitudeDegrees>-3.3360737375915050506591796875</LongitudeDegrees>
            </Position>
            <AltitudeMeters>824.5999755859375</AltitudeMeters>
            <DistanceMeters>42726.567264767</DistanceMeters>
          </Trackpoint>
          <Trackpoint>
            <Time>2019-07-19T09:49:59.000Z</Time>
            <Position>
              <LatitudeDegrees>40.75361059047281742095947265625</LatitudeDegrees>
              <LongitudeDegrees>-3.33593434654176235198974609375</LongitudeDegrees>
            </Position>
            <AltitudeMeters>824.20001220703125</AltitudeMeters>
            <DistanceMeters>42782.622395131</DistanceMeters>
          </Trackpoint>
          <Trackpoint>
            <Time>2019-07-19T09:50:02.000Z</Time>
            <Position>
              <LatitudeDegrees>40.753433145582675933837890625</LatitudeDegrees>
              <LongitudeDegrees>-3.335881792008876800537109375</LongitudeDegrees>
            </Position>
            <AltitudeMeters>825.20001220703125</AltitudeMeters>
            <DistanceMeters>42802.863308358</DistanceMeters>
          </Trackpoint>
          <Trackpoint>
            <Time>2019-07-19T09:50:08.000Z</Time>
            <Position>
              <LatitudeDegrees>40.75307934544980525970458984375</LatitudeDegrees>
              <LongitudeDegrees>-3.33578347228467464447021484375</LongitudeDegrees>
            </Position>
            <AltitudeMeters>823.4000244140625</AltitudeMeters>
            <DistanceMeters>42843.105074336</DistanceMeters>
          </Trackpoint>
          <Trackpoint>
            <Time>2019-07-19T09:50:11.000Z</Time>
            <Position>
              <LatitudeDegrees>40.752903409302234649658203125</LatitudeDegrees>
              <LongitudeDegrees>-3.335749022662639617919921875</LongitudeDegrees>
            </Position>
            <AltitudeMeters>822.20001220703125</AltitudeMeters>
            <DistanceMeters>42862.901216826</DistanceMeters>
          </Trackpoint>
          <Trackpoint>
            <Time>2019-07-19T09:50:20.000Z</Time>
            <Position>
              <LatitudeDegrees>40.752349197864532470703125</LatitudeDegrees>
              <LongitudeDegrees>-3.33557459525763988494873046875</LongitudeDegrees>
            </Position>
            <AltitudeMeters>821.5999755859375</AltitudeMeters>
            <DistanceMeters>42926.314872313</DistanceMeters>
          </Trackpoint>
          <Trackpoint>
            <Time>2019-07-19T09:50:30.000Z</Time>
            <Position>
              <LatitudeDegrees>40.75186572968959808349609375</LatitudeDegrees>
              <LongitudeDegrees>-3.3351550810039043426513671875</LongitudeDegrees>
            </Position>
            <AltitudeMeters>821.79998779296875</AltitudeMeters>
            <DistanceMeters>42990.710319703</DistanceMeters>
          </Trackpoint>
          <Trackpoint>
            <Time>2019-07-19T09:50:31.000Z</Time>
            <Position>
              <LatitudeDegrees>40.75182792730629444122314453125</LatitudeDegrees>
              <LongitudeDegrees>-3.33511694334447383880615234375</LongitudeDegrees>
            </Position>
            <AltitudeMeters>822</AltitudeMeters>
            <DistanceMeters>42996.006300956</DistanceMeters>
          </Trackpoint>
          <Trackpoint>
            <Time>2019-07-19T09:50:41.000Z</Time>
            <Position>
              <LatitudeDegrees>40.751367509365081787109375</LatitudeDegrees>
              <LongitudeDegrees>-3.334732465445995330810546875</LongitudeDegrees>
            </Position>
            <AltitudeMeters>822</AltitudeMeters>
            <DistanceMeters>43056.644663464</DistanceMeters>
          </Trackpoint>
          <Trackpoint>
            <Time>2019-07-19T09:50:42.000Z</Time>
            <Position>
              <LatitudeDegrees>40.7513210736215114593505859375</LatitudeDegrees>
              <LongitudeDegrees>-3.33470036275684833526611328125</LongitudeDegrees>
            </Position>
            <AltitudeMeters>821.79998779296875</AltitudeMeters>
            <DistanceMeters>43062.47933468</DistanceMeters>
          </Trackpoint>
          <Trackpoint>
            <Time>2019-07-19T09:50:49.000Z</Time>
            <Position>
              <LatitudeDegrees>40.75093810446560382843017578125</LatitudeDegrees>
              <LongitudeDegrees>-3.3345854468643665313720703125</LongitudeDegrees>
            </Position>
            <AltitudeMeters>821.20001220703125</AltitudeMeters>
            <DistanceMeters>43106.192036448</DistanceMeters>
          </Trackpoint>
          <Trackpoint>
            <Time>2019-07-19T09:50:55.000Z</Time>
            <Position>
              <LatitudeDegrees>40.7505499385297298431396484375</LatitudeDegrees>
              <LongitudeDegrees>-3.33459223620593547821044921875</LongitudeDegrees>
            </Position>
            <AltitudeMeters>820.20001220703125</AltitudeMeters>
            <DistanceMeters>43149.399420123</DistanceMeters>
          </Trackpoint>
          <Trackpoint>
            <Time>2019-07-19T09:50:59.000Z</Time>
            <Position>
              <LatitudeDegrees>40.750300325453281402587890625</LatitudeDegrees>
              <LongitudeDegrees>-3.33454714156687259674072265625</LongitudeDegrees>
            </Position>
            <AltitudeMeters>819</AltitudeMeters>
            <DistanceMeters>43177.440996873</DistanceMeters>
          </Trackpoint>
          <Trackpoint>
            <Time>2019-07-19T09:51:05.000Z</Time>
            <Position>
              <LatitudeDegrees>40.74994401074945926666259765625</LatitudeDegrees>
              <LongitudeDegrees>-3.3344409428536891937255859375</LongitudeDegrees>
            </Position>
            <AltitudeMeters>818.5999755859375</AltitudeMeters>
            <DistanceMeters>43218.097774331</DistanceMeters>
          </Trackpoint>
          <Trackpoint>
            <Time>2019-07-19T09:51:07.000Z</Time>
            <Position>
              <LatitudeDegrees>40.7498264126479625701904296875</LatitudeDegrees>
              <LongitudeDegrees>-3.33444907329976558685302734375</LongitudeDegrees>
            </Position>
            <AltitudeMeters>818.4000244140625</AltitudeMeters>
            <DistanceMeters>43231.204228626</DistanceMeters>
          </Trackpoint>
          <Trackpoint>
            <Time>2019-07-19T09:51:10.000Z</Time>
            <Position>
              <LatitudeDegrees>40.74965282343327999114990234375</LatitudeDegrees>
              <LongitudeDegrees>-3.33450824953615665435791015625</LongitudeDegrees>
            </Position>
            <AltitudeMeters>818.4000244140625</AltitudeMeters>
            <DistanceMeters>43251.158707341</DistanceMeters>
          </Trackpoint>
          <Trackpoint>
            <Time>2019-07-19T09:51:20.000Z</Time>
            <Position>
              <LatitudeDegrees>40.7490978576242923736572265625</LatitudeDegrees>
              <LongitudeDegrees>-3.33464135415852069854736328125</LongitudeDegrees>
            </Position>
            <AltitudeMeters>818.5999755859375</AltitudeMeters>
            <DistanceMeters>43313.938794991</DistanceMeters>
          </Trackpoint>
          <Trackpoint>
            <Time>2019-07-19T09:51:28.000Z</Time>
            <Position>
              <LatitudeDegrees>40.7486019842326641082763671875</LatitudeDegrees>
              <LongitudeDegrees>-3.3346816711127758026123046875</LongitudeDegrees>
            </Position>
            <AltitudeMeters>818</AltitudeMeters>
            <DistanceMeters>43369.235116883</DistanceMeters>
          </Trackpoint>
          <Trackpoint>
            <Time>2019-07-19T09:51:29.000Z</Time>
            <Position>
              <LatitudeDegrees>40.74854373000562191009521484375</LatitudeDegrees>
              <LongitudeDegrees>-3.33469298668205738067626953125</LongitudeDegrees>
            </Position>
            <AltitudeMeters>817.79998779296875</AltitudeMeters>
            <DistanceMeters>43375.789894051</DistanceMeters>
          </Trackpoint>
          <Trackpoint>
            <Time>2019-07-19T09:51:39.000Z</Time>
            <Position>
              <LatitudeDegrees>40.7479760237038135528564453125</LatitudeDegrees>
              <LongitudeDegrees>-3.3349190466105937957763671875</LongitudeDegrees>
            </Position>
            <AltitudeMeters>817.79998779296875</AltitudeMeters>
            <DistanceMeters>43441.789350678</DistanceMeters>
          </Trackpoint>
          <Trackpoint>
            <Time>2019-07-19T09:51:40.000Z</Time>
            <Position>
              <LatitudeDegrees>40.74791894294321537017822265625</LatitudeDegrees>
              <LongitudeDegrees>-3.33493019454181194305419921875</LongitudeDegrees>
            </Position>
            <AltitudeMeters>817.5999755859375</AltitudeMeters>
            <DistanceMeters>43448.211919417</DistanceMeters>
          </Trackpoint>
          <Trackpoint>
            <Time>2019-07-19T09:51:46.000Z</Time>
            <Position>
              <LatitudeDegrees>40.74754075147211551666259765625</LatitudeDegrees>
              <LongitudeDegrees>-3.33490320481359958648681640625</LongitudeDegrees>
            </Position>
            <AltitudeMeters>817</AltitudeMeters>
            <DistanceMeters>43490.366738161</DistanceMeters>
          </Trackpoint>
          <Trackpoint>
            <Time>2019-07-19T09:51:47.000Z</Time>
            <Position>
              <LatitudeDegrees>40.7474814914166927337646484375</LatitudeDegrees>
              <LongitudeDegrees>-3.3348898775875568389892578125</LongitudeDegrees>
            </Position>
            <AltitudeMeters>816.79998779296875</AltitudeMeters>
            <DistanceMeters>43497.057860564</DistanceMeters>
          </Trackpoint>
          <Trackpoint>
            <Time>2019-07-19T09:51:49.000Z</Time>
            <Position>
              <LatitudeDegrees>40.747372023761272430419921875</LatitudeDegrees>
              <LongitudeDegrees>-3.334832377731800079345703125</LongitudeDegrees>
            </Position>
            <AltitudeMeters>816.4000244140625</AltitudeMeters>
            <DistanceMeters>43510.17085853</DistanceMeters>
          </Trackpoint>
          <Trackpoint>
            <Time>2019-07-19T09:51:53.000Z</Time>
            <Position>
              <LatitudeDegrees>40.7471777312457561492919921875</LatitudeDegrees>
              <LongitudeDegrees>-3.334688879549503326416015625</LongitudeDegrees>
            </Position>
            <AltitudeMeters>816.20001220703125</AltitudeMeters>
            <DistanceMeters>43534.951158333</DistanceMeters>
          </Trackpoint>
          <Trackpoint>
            <Time>2019-07-19T09:51:55.000Z</Time>
            <Position>
              <LatitudeDegrees>40.74710321612656116485595703125</LatitudeDegrees>
              <LongitudeDegrees>-3.33459340967237949371337890625</LongitudeDegrees>
            </Position>
            <AltitudeMeters>816.4000244140625</AltitudeMeters>
            <DistanceMeters>43546.509704132</DistanceMeters>
          </Trackpoint>
          <Trackpoint>
            <Time>2019-07-19T09:51:57.000Z</Time>
            <Position>
              <LatitudeDegrees>40.74704035185277462005615234375</LatitudeDegrees>
              <LongitudeDegrees>-3.33447388373315334320068359375</LongitudeDegrees>
            </Position>
            <AltitudeMeters>816.5999755859375</AltitudeMeters>
            <DistanceMeters>43558.778826934</DistanceMeters>
          </Trackpoint>
          <Trackpoint>
            <Time>2019-07-19T09:52:04.000Z</Time>
            <Position>
              <LatitudeDegrees>40.74692484922707080841064453125</LatitudeDegrees>
              <LongitudeDegrees>-3.3341150544583797454833984375</LongitudeDegrees>
            </Position>
            <AltitudeMeters>817.5999755859375</AltitudeMeters>
            <DistanceMeters>43591.653950192</DistanceMeters>
          </Trackpoint>
          <Trackpoint>
            <Time>2019-07-19T09:52:06.000Z</Time>
            <Position>
              <LatitudeDegrees>40.74685628525912761688232421875</LatitudeDegrees>
              <LongitudeDegrees>-3.33405277691781520843505859375</LongitudeDegrees>
            </Position>
            <AltitudeMeters>818</AltitudeMeters>
            <DistanceMeters>43600.916983517</DistanceMeters>
          </Trackpoint>
          <Trackpoint>
            <Time>2019-07-19T09:52:07.000Z</Time>
            <Position>
              <LatitudeDegrees>40.746816135942935943603515625</LatitudeDegrees>
              <LongitudeDegrees>-3.33403031341731548309326171875</LongitudeDegrees>
            </Position>
            <AltitudeMeters>818.20001220703125</AltitudeMeters>
            <DistanceMeters>43605.769863009</DistanceMeters>
          </Trackpoint>
          <Trackpoint>
            <Time>2019-07-19T09:52:19.000Z</Time>
            <Position>
              <LatitudeDegrees>40.7462847232818603515625</LatitudeDegrees>
              <LongitudeDegrees>-3.33379738032817840576171875</LongitudeDegrees>
            </Position>
            <AltitudeMeters>819</AltitudeMeters>
            <DistanceMeters>43668.09311751</DistanceMeters>
          </Trackpoint>
          <Trackpoint>
            <Time>2019-07-19T09:52:22.000Z</Time>
            <Position>
              <LatitudeDegrees>40.7461330108344554901123046875</LatitudeDegrees>
              <LongitudeDegrees>-3.33378237672150135040283203125</LongitudeDegrees>
            </Position>
            <AltitudeMeters>818.79998779296875</AltitudeMeters>
            <DistanceMeters>43685.02628075</DistanceMeters>
          </Trackpoint>
          <Trackpoint>
            <Time>2019-07-19T09:52:25.000Z</Time>
            <Position>
              <LatitudeDegrees>40.74598691426217555999755859375</LatitudeDegrees>
              <LongitudeDegrees>-3.33377416245639324188232421875</LongitudeDegrees>
            </Position>
            <AltitudeMeters>818.20001220703125</AltitudeMeters>
            <DistanceMeters>43701.301668992</DistanceMeters>
          </Trackpoint>
          <Trackpoint>
            <Time>2019-07-19T09:52:27.000Z</Time>
            <Position>
              <LatitudeDegrees>40.7458839006721973419189453125</LatitudeDegrees>
              <LongitudeDegrees>-3.33371984772384166717529296875</LongitudeDegrees>
            </Position>
            <AltitudeMeters>818</AltitudeMeters>
            <DistanceMeters>43713.648561334</DistanceMeters>
          </Trackpoint>
          <Trackpoint>
            <Time>2019-07-19T09:52:31.000Z</Time>
            <Position>
              <LatitudeDegrees>40.74569622986018657684326171875</LatitudeDegrees>
              <LongitudeDegrees>-3.3335035108029842376708984375</LongitudeDegrees>
            </Position>
            <AltitudeMeters>816.79998779296875</AltitudeMeters>
            <DistanceMeters>43741.381225123</DistanceMeters>
          </Trackpoint>
          <Trackpoint>
            <Time>2019-07-19T09:52:39.000Z</Time>
            <Position>
              <LatitudeDegrees>40.74542012996971607208251953125</LatitudeDegrees>
              <LongitudeDegrees>-3.33325247280299663543701171875</LongitudeDegrees>
            </Position>
            <AltitudeMeters>818</AltitudeMeters>
            <DistanceMeters>43778.697091828</DistanceMeters>
          </Trackpoint>
          <Trackpoint>
            <Time>2019-07-19T09:52:42.000Z</Time>
            <Position>
              <LatitudeDegrees>40.7453115843236446380615234375</LatitudeDegrees>
              <LongitudeDegrees>-3.333221040666103363037109375</LongitudeDegrees>
            </Position>
            <AltitudeMeters>819.4000244140625</AltitudeMeters>
            <DistanceMeters>43791.06590564</DistanceMeters>
          </Trackpoint>
          <Trackpoint>
            <Time>2019-07-19T09:52:52.000Z</Time>
            <Position>
              <LatitudeDegrees>40.74479735456407070159912109375</LatitudeDegrees>
              <LongitudeDegrees>-3.33335473202168941497802734375</LongitudeDegrees>
            </Position>
            <AltitudeMeters>818.20001220703125</AltitudeMeters>
            <DistanceMeters>43849.400390015</DistanceMeters>
          </Trackpoint>
          <Trackpoint>
            <Time>2019-07-19T09:52:55.000Z</Time>
            <Position>
              <LatitudeDegrees>40.744580514729022979736328125</LatitudeDegrees>
              <LongitudeDegrees>-3.33344995044171810150146484375</LongitudeDegrees>
            </Position>
            <AltitudeMeters>817</AltitudeMeters>
            <DistanceMeters>43874.835617491</DistanceMeters>
          </Trackpoint>
          <Trackpoint>
            <Time>2019-07-19T09:52:57.000Z</Time>
            <Position>
              <LatitudeDegrees>40.7444341666996479034423828125</LatitudeDegrees>
              <LongitudeDegrees>-3.33349169231951236724853515625</LongitudeDegrees>
            </Position>
            <AltitudeMeters>815.4000244140625</AltitudeMeters>
            <DistanceMeters>43891.500550765</DistanceMeters>
          </Trackpoint>
          <Trackpoint>
            <Time>2019-07-19T09:53:00.000Z</Time>
            <Position>
              <LatitudeDegrees>40.74423216283321380615234375</LatitudeDegrees>
              <LongitudeDegrees>-3.33354047499597072601318359375</LongitudeDegrees>
            </Position>
            <AltitudeMeters>814.4000244140625</AltitudeMeters>
            <DistanceMeters>43914.35719187</DistanceMeters>
          </Trackpoint>
          <Trackpoint>
            <Time>2019-07-19T09:53:09.000Z</Time>
            <Position>
              <LatitudeDegrees>40.74370988644659519195556640625</LatitudeDegrees>
              <LongitudeDegrees>-3.33376879803836345672607421875</LongitudeDegrees>
            </Position>
            <AltitudeMeters>813.79998779296875</AltitudeMeters>
            <DistanceMeters>43975.593191121</DistanceMeters>
          </Trackpoint>
          <Trackpoint>
            <Time>2019-07-19T09:53:11.000Z</Time>
            <Position>
              <LatitudeDegrees>40.743606872856616973876953125</LatitudeDegrees>
              <LongitudeDegrees>-3.3338418044149875640869140625</LongitudeDegrees>
            </Position>
            <AltitudeMeters>813.4000244140625</AltitudeMeters>
            <DistanceMeters>43988.606647758</DistanceMeters>
          </Trackpoint>
          <Trackpoint>
            <Time>2019-07-19T09:53:14.000Z</Time>
            <Position>
              <LatitudeDegrees>40.74345239438116550445556640625</LatitudeDegrees>
              <LongitudeDegrees>-3.33396711386740207672119140625</LongitudeDegrees>
            </Position>
            <AltitudeMeters>813</AltitudeMeters>
            <DistanceMeters>44008.787691036</DistanceMeters>
          </Trackpoint>
          <Trackpoint>
            <Time>2019-07-19T09:53:19.000Z</Time>
            <Position>
              <LatitudeDegrees>40.74321786873042583465576171875</LatitudeDegrees>
              <LongitudeDegrees>-3.3342253603041172027587890625</LongitudeDegrees>
            </Position>
            <AltitudeMeters>812.79998779296875</AltitudeMeters>
            <DistanceMeters>44042.782028841</DistanceMeters>
          </Trackpoint>
          <Trackpoint>
            <Time>2019-07-19T09:53:24.000Z</Time>
            <Position>
              <LatitudeDegrees>40.74296255595982074737548828125</LatitudeDegrees>
              <LongitudeDegrees>-3.3343614824116230010986328125</LongitudeDegrees>
            </Position>
            <AltitudeMeters>812.4000244140625</AltitudeMeters>
            <DistanceMeters>44073.429580642</DistanceMeters>
          </Trackpoint>
          <Trackpoint>
            <Time>2019-07-19T09:53:25.000Z</Time>
            <Position>
              <LatitudeDegrees>40.74291125871241092681884765625</LatitudeDegrees>
              <LongitudeDegrees>-3.3343775756657123565673828125</LongitudeDegrees>
            </Position>
            <AltitudeMeters>812.20001220703125</AltitudeMeters>
            <DistanceMeters>44079.298201567</DistanceMeters>
          </Trackpoint>
          <Trackpoint>
            <Time>2019-07-19T09:53:26.000Z</Time>
            <Position>
              <LatitudeDegrees>40.7428603805601596832275390625</LatitudeDegrees>
              <LongitudeDegrees>-3.33438470028340816497802734375</LongitudeDegrees>
            </Position>
            <AltitudeMeters>812</AltitudeMeters>
            <DistanceMeters>44084.992672966</DistanceMeters>
          </Trackpoint>
          <Trackpoint>
            <Time>2019-07-19T09:53:32.000Z</Time>
            <Position>
              <LatitudeDegrees>40.74255368672311305999755859375</LatitudeDegrees>
              <LongitudeDegrees>-3.334385789930820465087890625</LongitudeDegrees>
            </Position>
            <AltitudeMeters>812.20001220703125</AltitudeMeters>
            <DistanceMeters>44119.128300458</DistanceMeters>
          </Trackpoint>
          <Trackpoint>
            <Time>2019-07-19T09:53:42.000Z</Time>
            <Position>
              <LatitudeDegrees>40.74206636287271976470947265625</LatitudeDegrees>
              <LongitudeDegrees>-3.33441135473549365997314453125</LongitudeDegrees>
            </Position>
            <AltitudeMeters>812</AltitudeMeters>
            <DistanceMeters>44173.411266154</DistanceMeters>
          </Trackpoint>
          <Trackpoint>
            <Time>2019-07-19T09:53:51.000Z</Time>
            <Position>
              <LatitudeDegrees>40.74167509563267230987548828125</LatitudeDegrees>
              <LongitudeDegrees>-3.3346669189631938934326171875</LongitudeDegrees>
            </Position>
            <AltitudeMeters>812</AltitudeMeters>
            <DistanceMeters>44222.001055892</DistanceMeters>
          </Trackpoint>
          <Trackpoint>
            <Time>2019-07-19T09:53:53.000Z</Time>
            <Position>
              <LatitudeDegrees>40.7415819726884365081787109375</LatitudeDegrees>
              <LongitudeDegrees>-3.33468711934983730316162109375</LongitudeDegrees>
            </Position>
            <AltitudeMeters>812</AltitudeMeters>
            <DistanceMeters>44232.504839686</DistanceMeters>
          </Trackpoint>
          <Trackpoint>
            <Time>2019-07-19T09:53:57.000Z</Time>
            <Position>
              <LatitudeDegrees>40.74136379174888134002685546875</LatitudeDegrees>
              <LongitudeDegrees>-3.3346189744770526885986328125</LongitudeDegrees>
            </Position>
            <AltitudeMeters>811</AltitudeMeters>
            <DistanceMeters>44257.459802958</DistanceMeters>
          </Trackpoint>
          <Trackpoint>
            <Time>2019-07-19T09:54:04.000Z</Time>
            <Position>
              <LatitudeDegrees>40.74096799828112125396728515625</LatitudeDegrees>
              <LongitudeDegrees>-3.33437531255185604095458984375</LongitudeDegrees>
            </Position>
            <AltitudeMeters>810</AltitudeMeters>
            <DistanceMeters>44306.069102302</DistanceMeters>
          </Trackpoint>
          <Trackpoint>
            <Time>2019-07-19T09:54:07.000Z</Time>
            <Position>
              <LatitudeDegrees>40.74080924503505229949951171875</LatitudeDegrees>
              <LongitudeDegrees>-3.3342608995735645294189453125</LongitudeDegrees>
            </Position>
            <AltitudeMeters>809.4000244140625</AltitudeMeters>
            <DistanceMeters>44326.201314081</DistanceMeters>
          </Trackpoint>
          <Trackpoint>
            <Time>2019-07-19T09:54:09.000Z</Time>
            <Position>
              <LatitudeDegrees>40.7406958378851413726806640625</LatitudeDegrees>
              <LongitudeDegrees>-3.33420918323099613189697265625</LongitudeDegrees>
            </Position>
            <AltitudeMeters>809.20001220703125</AltitudeMeters>
            <DistanceMeters>44339.555864233</DistanceMeters>
          </Trackpoint>
          <Trackpoint>
            <Time>2019-07-19T09:54:11.000Z</Time>
            <Position>
              <LatitudeDegrees>40.74058712460100650787353515625</LatitudeDegrees>
              <LongitudeDegrees>-3.33417959511280059814453125</LongitudeDegrees>
            </Position>
            <AltitudeMeters>810.20001220703125</AltitudeMeters>
            <DistanceMeters>44351.910068055</DistanceMeters>
          </Trackpoint>
          <Trackpoint>
            <Time>2019-07-19T09:54:13.000Z</Time>
            <Position>
              <LatitudeDegrees>40.740480087697505950927734375</LatitudeDegrees>
              <LongitudeDegrees>-3.33417414687573909759521484375</LongitudeDegrees>
            </Position>
            <AltitudeMeters>811</AltitudeMeters>
            <DistanceMeters>44363.832418213</DistanceMeters>
          </Trackpoint>
          <Trackpoint>
            <Time>2019-07-19T09:54:15.000Z</Time>
            <Position>
              <LatitudeDegrees>40.740383528172969818115234375</LatitudeDegrees>
              <LongitudeDegrees>-3.33420549519360065460205078125</LongitudeDegrees>
            </Position>
            <AltitudeMeters>811.20001220703125</AltitudeMeters>
            <DistanceMeters>44374.899665246</DistanceMeters>
          </Trackpoint>
          <Trackpoint>
            <Time>2019-07-19T09:54:18.000Z</Time>
            <Position>
              <LatitudeDegrees>40.740219242870807647705078125</LatitudeDegrees>
              <LongitudeDegrees>-3.33427607081830501556396484375</LongitudeDegrees>
            </Position>
            <AltitudeMeters>810.20001220703125</AltitudeMeters>
            <DistanceMeters>44394.129372222</DistanceMeters>
          </Trackpoint>
          <Trackpoint>
            <Time>2019-07-19T09:54:19.000Z</Time>
            <Position>
              <LatitudeDegrees>40.74015612713992595672607421875</LatitudeDegrees>
              <LongitudeDegrees>-3.3342904038727283477783203125</LongitudeDegrees>
            </Position>
            <AltitudeMeters>809.5999755859375</AltitudeMeters>
            <DistanceMeters>44401.258276081</DistanceMeters>
          </Trackpoint>
          <Trackpoint>
            <Time>2019-07-19T09:54:20.000Z</Time>
            <Position>
              <LatitudeDegrees>40.74008353985846042633056640625</LatitudeDegrees>
              <LongitudeDegrees>-3.33429551683366298675537109375</LongitudeDegrees>
            </Position>
            <AltitudeMeters>809</AltitudeMeters>
            <DistanceMeters>44409.348393142</DistanceMeters>
          </Trackpoint>
          <Trackpoint>
            <Time>2019-07-19T09:54:22.000Z</Time>
            <Position>
              <LatitudeDegrees>40.73995764367282390594482421875</LatitudeDegrees>
              <LongitudeDegrees>-3.33429769612848758697509765625</LongitudeDegrees>
            </Position>
            <AltitudeMeters>808.4000244140625</AltitudeMeters>
            <DistanceMeters>44423.362175733</DistanceMeters>
          </Trackpoint>
          <Trackpoint>
            <Time>2019-07-19T09:54:26.000Z</Time>
            <Position>
              <LatitudeDegrees>40.73972898535430431365966796875</LatitudeDegrees>
              <LongitudeDegrees>-3.33426383323967456817626953125</LongitudeDegrees>
            </Position>
            <AltitudeMeters>807</AltitudeMeters>
            <DistanceMeters>44448.972183782</DistanceMeters>
          </Trackpoint>
          <Trackpoint>
            <Time>2019-07-19T09:54:30.000Z</Time>
            <Position>
              <LatitudeDegrees>40.739556066691875457763671875</LatitudeDegrees>
              <LongitudeDegrees>-3.33418990485370159149169921875</LongitudeDegrees>
            </Position>
            <AltitudeMeters>807.5999755859375</AltitudeMeters>
            <DistanceMeters>44469.202833419</DistanceMeters>
          </Trackpoint>
          <Trackpoint>
            <Time>2019-07-19T09:54:33.000Z</Time>
            <Position>
              <LatitudeDegrees>40.7394184358417987823486328125</LatitudeDegrees>
              <LongitudeDegrees>-3.33410407416522502899169921875</LongitudeDegrees>
            </Position>
            <AltitudeMeters>807.4000244140625</AltitudeMeters>
            <DistanceMeters>44486.145326447</DistanceMeters>
          </Trackpoint>
          <Trackpoint>
            <Time>2019-07-19T09:54:37.000Z</Time>
            <Position>
              <LatitudeDegrees>40.73921316303312778472900390625</LatitudeDegrees>
              <LongitudeDegrees>-3.33402997814118862152099609375</LongitudeDegrees>
            </Position>
            <AltitudeMeters>806.5999755859375</AltitudeMeters>
            <DistanceMeters>44509.831580889</DistanceMeters>
          </Trackpoint>
          <Trackpoint>
            <Time>2019-07-19T09:54:40.000Z</Time>
            <Position>
              <LatitudeDegrees>40.7390767894685268402099609375</LatitudeDegrees>
              <LongitudeDegrees>-3.3340057544410228729248046875</LongitudeDegrees>
            </Position>
            <AltitudeMeters>806.4000244140625</AltitudeMeters>
            <DistanceMeters>44525.147104572</DistanceMeters>
          </Trackpoint>
          <Trackpoint>
            <Time>2019-07-19T09:54:44.000Z</Time>
            <Position>
              <LatitudeDegrees>40.73888861574232578277587890625</LatitudeDegrees>
              <LongitudeDegrees>-3.33398873917758464813232421875</LongitudeDegrees>
            </Position>
            <AltitudeMeters>806</AltitudeMeters>
            <DistanceMeters>44546.140267289</DistanceMeters>
          </Trackpoint>
          <Trackpoint>
            <Time>2019-07-19T09:54:47.000Z</Time>
            <Position>
              <LatitudeDegrees>40.73876003734767436981201171875</LatitudeDegrees>
              <LongitudeDegrees>-3.33397733978927135467529296875</LongitudeDegrees>
            </Position>
            <AltitudeMeters>806.4000244140625</AltitudeMeters>
            <DistanceMeters>44560.483321411</DistanceMeters>
          </Trackpoint>
          <Trackpoint>
            <Time>2019-07-19T09:54:50.000Z</Time>
            <Position>
              <LatitudeDegrees>40.7386229932308197021484375</LatitudeDegrees>
              <LongitudeDegrees>-3.33393140695989131927490234375</LongitudeDegrees>
            </Position>
            <AltitudeMeters>806.79998779296875</AltitudeMeters>
            <DistanceMeters>44576.220502752</DistanceMeters>
          </Trackpoint>
          <Trackpoint>
            <Time>2019-07-19T09:54:51.000Z</Time>
            <Position>
              <LatitudeDegrees>40.7385822571814060211181640625</LatitudeDegrees>
              <LongitudeDegrees>-3.3339252881705760955810546875</LongitudeDegrees>
            </Position>
            <AltitudeMeters>807</AltitudeMeters>
            <DistanceMeters>44580.783764335</DistanceMeters>
          </Trackpoint>
          <Trackpoint>
            <Time>2019-07-19T09:54:52.000Z</Time>
            <Position>
              <LatitudeDegrees>40.73853590525686740875244140625</LatitudeDegrees>
              <LongitudeDegrees>-3.33391606807708740234375</LongitudeDegrees>
            </Position>
            <AltitudeMeters>807</AltitudeMeters>
            <DistanceMeters>44586.001587682</DistanceMeters>
          </Trackpoint>
          <Trackpoint>
            <Time>2019-07-19T09:54:58.000Z</Time>
            <Position>
              <LatitudeDegrees>40.73831043206155300140380859375</LatitudeDegrees>
              <LongitudeDegrees>-3.3339162357151508331298828125</LongitudeDegrees>
            </Position>
            <AltitudeMeters>806.79998779296875</AltitudeMeters>
            <DistanceMeters>44611.097277581</DistanceMeters>
          </Trackpoint>
          <Trackpoint>
            <Time>2019-07-19T09:55:03.000Z</Time>
            <Position>
              <LatitudeDegrees>40.73813826777040958404541015625</LatitudeDegrees>
              <LongitudeDegrees>-3.33400550298392772674560546875</LongitudeDegrees>
            </Position>
            <AltitudeMeters>805.79998779296875</AltitudeMeters>
            <DistanceMeters>44631.685205068</DistanceMeters>
          </Trackpoint>
          <Trackpoint>
            <Time>2019-07-19T09:55:15.000Z</Time>
            <Position>
              <LatitudeDegrees>40.7377340085804462432861328125</LatitudeDegrees>
              <LongitudeDegrees>-3.33431060425937175750732421875</LongitudeDegrees>
            </Position>
            <AltitudeMeters>807</AltitudeMeters>
            <DistanceMeters>44683.517552336</DistanceMeters>
          </Trackpoint>
          <Trackpoint>
            <Time>2019-07-19T09:55:20.000Z</Time>
            <Position>
              <LatitudeDegrees>40.73753812350332736968994140625</LatitudeDegrees>
              <LongitudeDegrees>-3.3343826048076152801513671875</LongitudeDegrees>
            </Position>
            <AltitudeMeters>808</AltitudeMeters>
            <DistanceMeters>44706.149676101</DistanceMeters>
          </Trackpoint>
          <Trackpoint>
            <Time>2019-07-19T09:55:33.000Z</Time>
            <Position>
              <LatitudeDegrees>40.73703118599951267242431640625</LatitudeDegrees>
              <LongitudeDegrees>-3.33476155065000057220458984375</LongitudeDegrees>
            </Position>
            <AltitudeMeters>807</AltitudeMeters>
            <DistanceMeters>44770.994878287</DistanceMeters>
          </Trackpoint>
          <Trackpoint>
            <Time>2019-07-19T09:55:34.000Z</Time>
            <Position>
              <LatitudeDegrees>40.73698977939784526824951171875</LatitudeDegrees>
              <LongitudeDegrees>-3.33478443324565887451171875</LongitudeDegrees>
            </Position>
            <AltitudeMeters>807</AltitudeMeters>
            <DistanceMeters>44775.99169341</DistanceMeters>
          </Trackpoint>
          <Trackpoint>
            <Time>2019-07-19T09:55:36.000Z</Time>
            <Position>
              <LatitudeDegrees>40.7369010150432586669921875</LatitudeDegrees>
              <LongitudeDegrees>-3.33482022397220134735107421875</LongitudeDegrees>
            </Position>
            <AltitudeMeters>806.79998779296875</AltitudeMeters>
            <DistanceMeters>44786.322106926</DistanceMeters>
          </Trackpoint>
          <Trackpoint>
            <Time>2019-07-19T09:55:49.000Z</Time>
            <Position>
              <LatitudeDegrees>40.73637454770505428314208984375</LatitudeDegrees>
              <LongitudeDegrees>-3.334749229252338409423828125</LongitudeDegrees>
            </Position>
            <AltitudeMeters>808</AltitudeMeters>
            <DistanceMeters>44845.224107491</DistanceMeters>
          </Trackpoint>
          <Trackpoint>
            <Time>2019-07-19T09:55:57.000Z</Time>
            <Position>
              <LatitudeDegrees>40.7360748946666717529296875</LatitudeDegrees>
              <LongitudeDegrees>-3.33489348180592060089111328125</LongitudeDegrees>
            </Position>
            <AltitudeMeters>807.79998779296875</AltitudeMeters>
            <DistanceMeters>44880.725584355</DistanceMeters>
          </Trackpoint>
          <Trackpoint>
            <Time>2019-07-19T09:56:01.000Z</Time>
            <Position>
              <LatitudeDegrees>40.7358978688716888427734375</LatitudeDegrees>
              <LongitudeDegrees>-3.33495466969907283782958984375</LongitudeDegrees>
            </Position>
            <AltitudeMeters>807.4000244140625</AltitudeMeters>
            <DistanceMeters>44901.093247742</DistanceMeters>
          </Trackpoint>
          <Trackpoint>
            <Time>2019-07-19T09:56:05.000Z</Time>
            <Position>
              <LatitudeDegrees>40.7356905005872249603271484375</LatitudeDegrees>
              <LongitudeDegrees>-3.3349827490746974945068359375</LongitudeDegrees>
            </Position>
            <AltitudeMeters>806.79998779296875</AltitudeMeters>
            <DistanceMeters>44924.294755172</DistanceMeters>
          </Trackpoint>
          <Trackpoint>
            <Time>2019-07-19T09:56:16.000Z</Time>
            <Position>
              <LatitudeDegrees>40.7351161725819110870361328125</LatitudeDegrees>
              <LongitudeDegrees>-3.33494804799556732177734375</LongitudeDegrees>
            </Position>
            <AltitudeMeters>806.20001220703125</AltitudeMeters>
            <DistanceMeters>44988.28563456</DistanceMeters>
          </Trackpoint>
          <Trackpoint>
            <Time>2019-07-19T09:56:19.000Z</Time>
            <Position>
              <LatitudeDegrees>40.734964124858379364013671875</LatitudeDegrees>
              <LongitudeDegrees>-3.334962464869022369384765625</LongitudeDegrees>
            </Position>
            <AltitudeMeters>807</AltitudeMeters>
            <DistanceMeters>45005.252627134</DistanceMeters>
          </Trackpoint>
          <Trackpoint>
            <Time>2019-07-19T09:56:30.000Z</Time>
            <Position>
              <LatitudeDegrees>40.73443539440631866455078125</LatitudeDegrees>
              <LongitudeDegrees>-3.33517871797084808349609375</LongitudeDegrees>
            </Position>
            <AltitudeMeters>807</AltitudeMeters>
            <DistanceMeters>45066.86277803</DistanceMeters>
          </Trackpoint>
          <Trackpoint>
            <Time>2019-07-19T09:56:35.000Z</Time>
            <Position>
              <LatitudeDegrees>40.7342008687555789947509765625</LatitudeDegrees>
              <LongitudeDegrees>-3.335301093757152557373046875</LongitudeDegrees>
            </Position>
            <AltitudeMeters>806.4000244140625</AltitudeMeters>
            <DistanceMeters>45094.932196084</DistanceMeters>
          </Trackpoint>
          <Trackpoint>
            <Time>2019-07-19T09:56:41.000Z</Time>
            <Position>
              <LatitudeDegrees>40.73393516242504119873046875</LatitudeDegrees>
              <LongitudeDegrees>-3.335479460656642913818359375</LongitudeDegrees>
            </Position>
            <AltitudeMeters>805.79998779296875</AltitudeMeters>
            <DistanceMeters>45128.112035892</DistanceMeters>
          </Trackpoint>
          <Trackpoint>
            <Time>2019-07-19T09:56:52.000Z</Time>
            <Position>
              <LatitudeDegrees>40.73342110030353069305419921875</LatitudeDegrees>
              <LongitudeDegrees>-3.33575648255646228790283203125</LongitudeDegrees>
            </Position>
            <AltitudeMeters>805.5999755859375</AltitudeMeters>
            <DistanceMeters>45189.914550116</DistanceMeters>
          </Trackpoint>
          <Trackpoint>
            <Time>2019-07-19T09:56:56.000Z</Time>
            <Position>
              <LatitudeDegrees>40.73322094045579433441162109375</LatitudeDegrees>
              <LongitudeDegrees>-3.33584683947265148162841796875</LongitudeDegrees>
            </Position>
            <AltitudeMeters>804.5999755859375</AltitudeMeters>
            <DistanceMeters>45213.460091375</DistanceMeters>
          </Trackpoint>
          <Trackpoint>
            <Time>2019-07-19T09:56:59.000Z</Time>
            <Position>
              <LatitudeDegrees>40.7330666296184062957763671875</LatitudeDegrees>
              <LongitudeDegrees>-3.3359117992222309112548828125</LongitudeDegrees>
            </Position>
            <AltitudeMeters>803.5999755859375</AltitudeMeters>
            <DistanceMeters>45231.488139283</DistanceMeters>
          </Trackpoint>
          <Trackpoint>
            <Time>2019-07-19T09:57:03.000Z</Time>
            <Position>
              <LatitudeDegrees>40.73285959661006927490234375</LatitudeDegrees>
              <LongitudeDegrees>-3.3359773457050323486328125</LongitudeDegrees>
            </Position>
            <AltitudeMeters>804</AltitudeMeters>
            <DistanceMeters>45255.185065956</DistanceMeters>
          </Trackpoint>
          <Trackpoint>
            <Time>2019-07-19T09:57:09.000Z</Time>
            <Position>
              <LatitudeDegrees>40.732559859752655029296875</LatitudeDegrees>
              <LongitudeDegrees>-3.33599721081554889678955078125</LongitudeDegrees>
            </Position>
            <AltitudeMeters>804.20001220703125</AltitudeMeters>
            <DistanceMeters>45288.588544304</DistanceMeters>
          </Trackpoint>
          <Trackpoint>
            <Time>2019-07-19T09:57:21.000Z</Time>
            <Position>
              <LatitudeDegrees>40.73202408850193023681640625</LatitudeDegrees>
              <LongitudeDegrees>-3.33572454750537872314453125</LongitudeDegrees>
            </Position>
            <AltitudeMeters>803.4000244140625</AltitudeMeters>
            <DistanceMeters>45352.501480712</DistanceMeters>
          </Trackpoint>
          <Trackpoint>
            <Time>2019-07-19T09:57:32.000Z</Time>
            <Position>
              <LatitudeDegrees>40.73150633834302425384521484375</LatitudeDegrees>
              <LongitudeDegrees>-3.33550301380455493927001953125</LongitudeDegrees>
            </Position>
            <AltitudeMeters>803</AltitudeMeters>
            <DistanceMeters>45413.081439674</DistanceMeters>
          </Trackpoint>
          <Trackpoint>
            <Time>2019-07-19T09:57:40.000Z</Time>
            <Position>
              <LatitudeDegrees>40.731156058609485626220703125</LatitudeDegrees>
              <LongitudeDegrees>-3.33531693555414676666259765625</LongitudeDegrees>
            </Position>
            <AltitudeMeters>804.79998779296875</AltitudeMeters>
            <DistanceMeters>45455.108608891</DistanceMeters>
          </Trackpoint>
          <Trackpoint>
            <Time>2019-07-19T09:57:45.000Z</Time>
            <Position>
              <LatitudeDegrees>40.73091776110231876373291015625</LatitudeDegrees>
              <LongitudeDegrees>-3.3352228067815303802490234375</LongitudeDegrees>
            </Position>
            <AltitudeMeters>803.5999755859375</AltitudeMeters>
            <DistanceMeters>45482.794181826</DistanceMeters>
          </Trackpoint>
          <Trackpoint>
            <Time>2019-07-19T09:57:47.000Z</Time>
            <Position>
              <LatitudeDegrees>40.7308179326355457305908203125</LatitudeDegrees>
              <LongitudeDegrees>-3.3352010138332843780517578125</LongitudeDegrees>
            </Position>
            <AltitudeMeters>803.20001220703125</AltitudeMeters>
            <DistanceMeters>45494.056350966</DistanceMeters>
          </Trackpoint>
          <Trackpoint>
            <Time>2019-07-19T09:57:50.000Z</Time>
            <Position>
              <LatitudeDegrees>40.73066580109298229217529296875</LatitudeDegrees>
              <LongitudeDegrees>-3.335181064903736114501953125</LongitudeDegrees>
            </Position>
            <AltitudeMeters>802.5999755859375</AltitudeMeters>
            <DistanceMeters>45511.072236811</DistanceMeters>
          </Trackpoint>
          <Trackpoint>
            <Time>2019-07-19T09:57:56.000Z</Time>
            <Position>
              <LatitudeDegrees>40.73036941699683666229248046875</LatitudeDegrees>
              <LongitudeDegrees>-3.3351869322359561920166015625</LongitudeDegrees>
            </Position>
            <AltitudeMeters>802.5999755859375</AltitudeMeters>
            <DistanceMeters>45544.064165436</DistanceMeters>
          </Trackpoint>
          <Trackpoint>
            <Time>2019-07-19T09:58:00.000Z</Time>
            <Position>
              <LatitudeDegrees>40.73014562018215656280517578125</LatitudeDegrees>
              <LongitudeDegrees>-3.33521819673478603363037109375</LongitudeDegrees>
            </Position>
            <AltitudeMeters>802.4000244140625</AltitudeMeters>
            <DistanceMeters>45569.112313298</DistanceMeters>
          </Trackpoint>
          <Trackpoint>
            <Time>2019-07-19T09:58:11.000Z</Time>
            <Position>
              <LatitudeDegrees>40.72959945537149906158447265625</LatitudeDegrees>
              <LongitudeDegrees>-3.335492201149463653564453125</LongitudeDegrees>
            </Position>
            <AltitudeMeters>802.20001220703125</AltitudeMeters>
            <DistanceMeters>45634.146350034</DistanceMeters>
          </Trackpoint>
          <Trackpoint>
            <Time>2019-07-19T09:58:16.000Z</Time>
            <Position>
              <LatitudeDegrees>40.72931245900690555572509765625</LatitudeDegrees>
              <LongitudeDegrees>-3.33555749617516994476318359375</LongitudeDegrees>
            </Position>
            <AltitudeMeters>801.79998779296875</AltitudeMeters>
            <DistanceMeters>45666.560908102</DistanceMeters>
          </Trackpoint>
          <Trackpoint>
            <Time>2019-07-19T09:58:18.000Z</Time>
            <Position>
              <LatitudeDegrees>40.7291948609054088592529296875</LatitudeDegrees>
              <LongitudeDegrees>-3.33554861135780811309814453125</LongitudeDegrees>
            </Position>
            <AltitudeMeters>801.5999755859375</AltitudeMeters>
            <DistanceMeters>45679.671151236</DistanceMeters>
          </Trackpoint>
          <Trackpoint>
            <Time>2019-07-19T09:58:28.000Z</Time>
            <Position>
              <LatitudeDegrees>40.7286104746162891387939453125</LatitudeDegrees>
              <LongitudeDegrees>-3.33546495996415615081787109375</LongitudeDegrees>
            </Position>
            <AltitudeMeters>801.4000244140625</AltitudeMeters>
            <DistanceMeters>45745.09606068</DistanceMeters>
          </Trackpoint>
          <Trackpoint>
            <Time>2019-07-19T09:58:35.000Z</Time>
            <Position>
              <LatitudeDegrees>40.728200934827327728271484375</LatitudeDegrees>
              <LongitudeDegrees>-3.3353854157030582427978515625</LongitudeDegrees>
            </Position>
            <AltitudeMeters>802.5999755859375</AltitudeMeters>
            <DistanceMeters>45791.16971194</DistanceMeters>
          </Trackpoint>
          <Trackpoint>
            <Time>2019-07-19T09:58:37.000Z</Time>
            <Position>
              <LatitudeDegrees>40.72809356264770030975341796875</LatitudeDegrees>
              <LongitudeDegrees>-3.33534811623394489288330078125</LongitudeDegrees>
            </Position>
            <AltitudeMeters>802</AltitudeMeters>
            <DistanceMeters>45803.527204515</DistanceMeters>
          </Trackpoint>
          <Trackpoint>
            <Time>2019-07-19T09:58:38.000Z</Time>
            <Position>
              <LatitudeDegrees>40.72804234921932220458984375</LatitudeDegrees>
              <LongitudeDegrees>-3.33532565273344516754150390625</LongitudeDegrees>
            </Position>
            <AltitudeMeters>801.4000244140625</AltitudeMeters>
            <DistanceMeters>45809.534215874</DistanceMeters>
          </Trackpoint>
          <Trackpoint>
            <Time>2019-07-19T09:58:40.000Z</Time>
            <Position>
              <LatitudeDegrees>40.72794151492416858673095703125</LatitudeDegrees>
              <LongitudeDegrees>-3.3352767862379550933837890625</LongitudeDegrees>
            </Position>
            <AltitudeMeters>800.20001220703125</AltitudeMeters>
            <DistanceMeters>45821.490223155</DistanceMeters>
          </Trackpoint>
          <Trackpoint>
            <Time>2019-07-19T09:58:45.000Z</Time>
            <Position>
              <LatitudeDegrees>40.72769005782902240753173828125</LatitudeDegrees>
              <LongitudeDegrees>-3.3351145125925540924072265625</LongitudeDegrees>
            </Position>
            <AltitudeMeters>799.20001220703125</AltitudeMeters>
            <DistanceMeters>45852.64536586</DistanceMeters>
          </Trackpoint>
          <Trackpoint>
            <Time>2019-07-19T09:58:56.000Z</Time>
            <Position>
              <LatitudeDegrees>40.7272308133542537689208984375</LatitudeDegrees>
              <LongitudeDegrees>-3.33463154733180999755859375</LongitudeDegrees>
            </Position>
            <AltitudeMeters>798.79998779296875</AltitudeMeters>
            <DistanceMeters>45918.007445129</DistanceMeters>
          </Trackpoint>
          <Trackpoint>
            <Time>2019-07-19T09:59:07.000Z</Time>
            <Position>
              <LatitudeDegrees>40.7267714850604534149169921875</LatitudeDegrees>
              <LongitudeDegrees>-3.33418923430144786834716796875</LongitudeDegrees>
            </Position>
            <AltitudeMeters>799</AltitudeMeters>
            <DistanceMeters>45981.297091748</DistanceMeters>
          </Trackpoint>
          <Trackpoint>
            <Time>2019-07-19T09:59:17.000Z</Time>
            <Position>
              <LatitudeDegrees>40.7262598536908626556396484375</LatitudeDegrees>
              <LongitudeDegrees>-3.33393626846373081207275390625</LongitudeDegrees>
            </Position>
            <AltitudeMeters>800.20001220703125</AltitudeMeters>
            <DistanceMeters>46042.108843457</DistanceMeters>
          </Trackpoint>
          <Trackpoint>
            <Time>2019-07-19T09:59:18.000Z</Time>
            <Position>
              <LatitudeDegrees>40.7262065447866916656494140625</LatitudeDegrees>
              <LongitudeDegrees>-3.33390877582132816314697265625</LongitudeDegrees>
            </Position>
            <AltitudeMeters>800.20001220703125</AltitudeMeters>
            <DistanceMeters>46048.479178106</DistanceMeters>
          </Trackpoint>
          <Trackpoint>
            <Time>2019-07-19T09:59:28.000Z</Time>
            <Position>
              <LatitudeDegrees>40.72567261755466461181640625</LatitudeDegrees>
              <LongitudeDegrees>-3.33363334648311138153076171875</LongitudeDegrees>
            </Position>
            <AltitudeMeters>799.79998779296875</AltitudeMeters>
            <DistanceMeters>46112.286061165</DistanceMeters>
          </Trackpoint>
          <Trackpoint>
            <Time>2019-07-19T09:59:38.000Z</Time>
            <Position>
              <LatitudeDegrees>40.72511337697505950927734375</LatitudeDegrees>
              <LongitudeDegrees>-3.33341256715357303619384765625</LongitudeDegrees>
            </Position>
            <AltitudeMeters>800</AltitudeMeters>
            <DistanceMeters>46177.256750745</DistanceMeters>
          </Trackpoint>
          <Trackpoint>
            <Time>2019-07-19T09:59:48.000Z</Time>
            <Position>
              <LatitudeDegrees>40.724539719521999359130859375</LatitudeDegrees>
              <LongitudeDegrees>-3.3332892693579196929931640625</LongitudeDegrees>
            </Position>
            <AltitudeMeters>800</AltitudeMeters>
            <DistanceMeters>46241.947473396</DistanceMeters>
          </Trackpoint>
          <Trackpoint>
            <Time>2019-07-19T09:59:56.000Z</Time>
            <Position>
              <LatitudeDegrees>40.72410159744322299957275390625</LatitudeDegrees>
              <LongitudeDegrees>-3.33312389440834522247314453125</LongitudeDegrees>
            </Position>
            <AltitudeMeters>799</AltitudeMeters>
            <DistanceMeters>46292.667353498</DistanceMeters>
          </Trackpoint>
          <Trackpoint>
            <Time>2019-07-19T10:00:01.000Z</Time>
            <Position>
              <LatitudeDegrees>40.72383823804557323455810546875</LatitudeDegrees>
              <LongitudeDegrees>-3.33301124162971973419189453125</LongitudeDegrees>
            </Position>
            <AltitudeMeters>798</AltitudeMeters>
            <DistanceMeters>46323.481514822</DistanceMeters>
          </Trackpoint>
          <Trackpoint>
            <Time>2019-07-19T10:00:08.000Z</Time>
            <Position>
              <LatitudeDegrees>40.72344236075878143310546875</LatitudeDegrees>
              <LongitudeDegrees>-3.33287059329450130462646484375</LongitudeDegrees>
            </Position>
            <AltitudeMeters>797</AltitudeMeters>
            <DistanceMeters>46369.112646484</DistanceMeters>
          </Trackpoint>
          <Trackpoint>
            <Time>2019-07-19T10:00:18.000Z</Time>
            <Position>
              <LatitudeDegrees>40.7229208387434482574462890625</LatitudeDegrees>
              <LongitudeDegrees>-3.33257831633090972900390625</LongitudeDegrees>
            </Position>
            <AltitudeMeters>796.4000244140625</AltitudeMeters>
            <DistanceMeters>46432.177889917</DistanceMeters>
          </Trackpoint>
          <Trackpoint>
            <Time>2019-07-19T10:00:27.000Z</Time>
            <Position>
              <LatitudeDegrees>40.72242186404764652252197265625</LatitudeDegrees>
              <LongitudeDegrees>-3.33236248232424259185791015625</LongitudeDegrees>
            </Position>
            <AltitudeMeters>795.5999755859375</AltitudeMeters>
            <DistanceMeters>46490.622795738</DistanceMeters>
          </Trackpoint>
          <Trackpoint>
            <Time>2019-07-19T10:00:32.000Z</Time>
            <Position>
              <LatitudeDegrees>40.7221299223601818084716796875</LatitudeDegrees>
              <LongitudeDegrees>-3.33229324780404567718505859375</LongitudeDegrees>
            </Position>
            <AltitudeMeters>794.5999755859375</AltitudeMeters>
            <DistanceMeters>46523.637160596</DistanceMeters>
          </Trackpoint>
          <Trackpoint>
            <Time>2019-07-19T10:00:42.000Z</Time>
            <Position>
              <LatitudeDegrees>40.7215609587728977203369140625</LatitudeDegrees>
              <LongitudeDegrees>-3.33221328444778919219970703125</LongitudeDegrees>
            </Position>
            <AltitudeMeters>794.20001220703125</AltitudeMeters>
            <DistanceMeters>46587.322218452</DistanceMeters>
          </Trackpoint>
          <Trackpoint>
            <Time>2019-07-19T10:00:52.000Z</Time>
            <Position>
              <LatitudeDegrees>40.72099358774721622467041015625</LatitudeDegrees>
              <LongitudeDegrees>-3.33203592337667942047119140625</LongitudeDegrees>
            </Position>
            <AltitudeMeters>794.4000244140625</AltitudeMeters>
            <DistanceMeters>46652.219829303</DistanceMeters>
          </Trackpoint>
          <Trackpoint>
            <Time>2019-07-19T10:00:59.000Z</Time>
            <Position>
              <LatitudeDegrees>40.720631070435047149658203125</LatitudeDegrees>
              <LongitudeDegrees>-3.33189276047050952911376953125</LongitudeDegrees>
            </Position>
            <AltitudeMeters>796</AltitudeMeters>
            <DistanceMeters>46694.337251431</DistanceMeters>
          </Trackpoint>
          <Trackpoint>
            <Time>2019-07-19T10:01:04.000Z</Time>
            <Position>
              <LatitudeDegrees>40.720373578369617462158203125</LatitudeDegrees>
              <LongitudeDegrees>-3.3317822031676769256591796875</LongitudeDegrees>
            </Position>
            <AltitudeMeters>794.79998779296875</AltitudeMeters>
            <DistanceMeters>46724.47585441</DistanceMeters>
          </Trackpoint>
          <Trackpoint>
            <Time>2019-07-19T10:01:08.000Z</Time>
            <Position>
              <LatitudeDegrees>40.72015640325844287872314453125</LatitudeDegrees>
              <LongitudeDegrees>-3.33170299418270587921142578125</LongitudeDegrees>
            </Position>
            <AltitudeMeters>793.5999755859375</AltitudeMeters>
            <DistanceMeters>46749.554266723</DistanceMeters>
          </Trackpoint>
          <Trackpoint>
            <Time>2019-07-19T10:01:14.000Z</Time>
            <Position>
              <LatitudeDegrees>40.71984074078500270843505859375</LatitudeDegrees>
              <LongitudeDegrees>-3.33155379630625247955322265625</LongitudeDegrees>
            </Position>
            <AltitudeMeters>793</AltitudeMeters>
            <DistanceMeters>46786.874488999</DistanceMeters>
          </Trackpoint>
          <Trackpoint>
            <Time>2019-07-19T10:01:24.000Z</Time>
            <Position>
              <LatitudeDegrees>40.7192616350948810577392578125</LatitudeDegrees>
              <LongitudeDegrees>-3.33146628923714160919189453125</LongitudeDegrees>
            </Position>
            <AltitudeMeters>792.79998779296875</AltitudeMeters>
            <DistanceMeters>46851.751364165</DistanceMeters>
          </Trackpoint>
          <Trackpoint>
            <Time>2019-07-19T10:01:25.000Z</Time>
            <Position>
              <LatitudeDegrees>40.7192053087055683135986328125</LatitudeDegrees>
              <LongitudeDegrees>-3.331459499895572662353515625</LongitudeDegrees>
            </Position>
            <AltitudeMeters>792.5999755859375</AltitudeMeters>
            <DistanceMeters>46858.04612194</DistanceMeters>
          </Trackpoint>
          <Trackpoint>
            <Time>2019-07-19T10:01:31.000Z</Time>
            <Position>
              <LatitudeDegrees>40.71887128986418247222900390625</LatitudeDegrees>
              <LongitudeDegrees>-3.33138741552829742431640625</LongitudeDegrees>
            </Position>
            <AltitudeMeters>791.4000244140625</AltitudeMeters>
            <DistanceMeters>46895.717233331</DistanceMeters>
          </Trackpoint>
          <Trackpoint>
            <Time>2019-07-19T10:01:39.000Z</Time>
            <Position>
              <LatitudeDegrees>40.718410871922969818115234375</LatitudeDegrees>
              <LongitudeDegrees>-3.331298567354679107666015625</LongitudeDegrees>
            </Position>
            <AltitudeMeters>790.4000244140625</AltitudeMeters>
            <DistanceMeters>46947.507838818</DistanceMeters>
          </Trackpoint>
          <Trackpoint>
            <Time>2019-07-19T10:01:49.000Z</Time>
            <Position>
              <LatitudeDegrees>40.71784853003919124603271484375</LatitudeDegrees>
              <LongitudeDegrees>-3.33124928176403045654296875</LongitudeDegrees>
            </Position>
            <AltitudeMeters>790.20001220703125</AltitudeMeters>
            <DistanceMeters>47010.235548084</DistanceMeters>
          </Trackpoint>
          <Trackpoint>
            <Time>2019-07-19T10:01:59.000Z</Time>
            <Position>
              <LatitudeDegrees>40.71726280264556407928466796875</LatitudeDegrees>
              <LongitudeDegrees>-3.33114408887922763824462890625</LongitudeDegrees>
            </Position>
            <AltitudeMeters>789.79998779296875</AltitudeMeters>
            <DistanceMeters>47076.0293853</DistanceMeters>
          </Trackpoint>
          <Trackpoint>
            <Time>2019-07-19T10:02:04.000Z</Time>
            <Position>
              <LatitudeDegrees>40.716970525681972503662109375</LatitudeDegrees>
              <LongitudeDegrees>-3.33112564869225025177001953125</LongitudeDegrees>
            </Position>
            <AltitudeMeters>789.4000244140625</AltitudeMeters>
            <DistanceMeters>47108.59749561</DistanceMeters>
          </Trackpoint>
          <Trackpoint>
            <Time>2019-07-19T10:02:09.000Z</Time>
            <Position>
              <LatitudeDegrees>40.71668428368866443634033203125</LatitudeDegrees>
              <LongitudeDegrees>-3.3311002515256404876708984375</LongitudeDegrees>
            </Position>
            <AltitudeMeters>788.5999755859375</AltitudeMeters>
            <DistanceMeters>47140.528734099</DistanceMeters>
          </Trackpoint>
          <Trackpoint>
            <Time>2019-07-19T10:02:19.000Z</Time>
            <Position>
              <LatitudeDegrees>40.7161382026970386505126953125</LatitudeDegrees>
              <LongitudeDegrees>-3.3308838307857513427734375</LongitudeDegrees>
            </Position>
            <AltitudeMeters>789.79998779296875</AltitudeMeters>
            <DistanceMeters>47203.991569563</DistanceMeters>
          </Trackpoint>
          <Trackpoint>
            <Time>2019-07-19T10:02:23.000Z</Time>
            <Position>
              <LatitudeDegrees>40.71591868065297603607177734375</LatitudeDegrees>
              <LongitudeDegrees>-3.3307877741754055023193359375</LongitudeDegrees>
            </Position>
            <AltitudeMeters>790.5999755859375</AltitudeMeters>
            <DistanceMeters>47229.733462842</DistanceMeters>
          </Trackpoint>
          <Trackpoint>
            <Time>2019-07-19T10:02:33.000Z</Time>
            <Position>
              <LatitudeDegrees>40.71541274897754192352294921875</LatitudeDegrees>
              <LongitudeDegrees>-3.330497257411479949951171875</LongitudeDegrees>
            </Position>
            <AltitudeMeters>790.79998779296875</AltitudeMeters>
            <DistanceMeters>47291.146972094</DistanceMeters>
          </Trackpoint>
          <Trackpoint>
            <Time>2019-07-19T10:02:38.000Z</Time>
            <Position>
              <LatitudeDegrees>40.71519280783832073211669921875</LatitudeDegrees>
              <LongitudeDegrees>-3.330387957394123077392578125</LongitudeDegrees>
            </Position>
            <AltitudeMeters>791.5999755859375</AltitudeMeters>
            <DistanceMeters>47317.306085093</DistanceMeters>
          </Trackpoint>
          <Trackpoint>
            <Time>2019-07-19T10:02:44.000Z</Time>
            <Position>
              <LatitudeDegrees>40.7149077393114566802978515625</LatitudeDegrees>
              <LongitudeDegrees>-3.33026315085589885711669921875</LongitudeDegrees>
            </Position>
            <AltitudeMeters>791.4000244140625</AltitudeMeters>
            <DistanceMeters>47350.736315737</DistanceMeters>
          </Trackpoint>
          <Trackpoint>
            <Time>2019-07-19T10:02:47.000Z</Time>
            <Position>
              <LatitudeDegrees>40.7147364132106304168701171875</LatitudeDegrees>
              <LongitudeDegrees>-3.3302362449467182159423828125</LongitudeDegrees>
            </Position>
            <AltitudeMeters>790.4000244140625</AltitudeMeters>
            <DistanceMeters>47369.939707672</DistanceMeters>
          </Trackpoint>
          <Trackpoint>
            <Time>2019-07-19T10:02:51.000Z</Time>
            <Position>
              <LatitudeDegrees>40.7145064137876033782958984375</LatitudeDegrees>
              <LongitudeDegrees>-3.33024890162050724029541015625</LongitudeDegrees>
            </Position>
            <AltitudeMeters>789.4000244140625</AltitudeMeters>
            <DistanceMeters>47395.561348863</DistanceMeters>
          </Trackpoint>
          <Trackpoint>
            <Time>2019-07-19T10:03:01.000Z</Time>
            <Position>
              <LatitudeDegrees>40.71395480073988437652587890625</LatitudeDegrees>
              <LongitudeDegrees>-3.3302359096705913543701171875</LongitudeDegrees>
            </Position>
            <AltitudeMeters>789.5999755859375</AltitudeMeters>
            <DistanceMeters>47456.966697002</DistanceMeters>
          </Trackpoint>
          <Trackpoint>
            <Time>2019-07-19T10:03:11.000Z</Time>
            <Position>
              <LatitudeDegrees>40.71342472918331623077392578125</LatitudeDegrees>
              <LongitudeDegrees>-3.3300645835697650909423828125</LongitudeDegrees>
            </Position>
            <AltitudeMeters>789.5999755859375</AltitudeMeters>
            <DistanceMeters>47517.709434881</DistanceMeters>
          </Trackpoint>
          <Trackpoint>
            <Time>2019-07-19T10:03:21.000Z</Time>
            <Position>
              <LatitudeDegrees>40.7128394208848476409912109375</LatitudeDegrees>
              <LongitudeDegrees>-3.32997045479714870452880859375</LongitudeDegrees>
            </Position>
            <AltitudeMeters>789</AltitudeMeters>
            <DistanceMeters>47583.337748599</DistanceMeters>
          </Trackpoint>
          <Trackpoint>
            <Time>2019-07-19T10:03:24.000Z</Time>
            <Position>
              <LatitudeDegrees>40.71265677921473979949951171875</LatitudeDegrees>
              <LongitudeDegrees>-3.32995201461017131805419921875</LongitudeDegrees>
            </Position>
            <AltitudeMeters>788.4000244140625</AltitudeMeters>
            <DistanceMeters>47603.72579605</DistanceMeters>
          </Trackpoint>
          <Trackpoint>
            <Time>2019-07-19T10:03:25.000Z</Time>
            <Position>
              <LatitudeDegrees>40.712593495845794677734375</LatitudeDegrees>
              <LongitudeDegrees>-3.32996291108429431915283203125</LongitudeDegrees>
            </Position>
            <AltitudeMeters>788.20001220703125</AltitudeMeters>
            <DistanceMeters>47610.829956609</DistanceMeters>
          </Trackpoint>
          <Trackpoint>
            <Time>2019-07-19T10:03:26.000Z</Time>
            <Position>
              <LatitudeDegrees>40.71253088302910327911376953125</LatitudeDegrees>
              <LongitudeDegrees>-3.329983614385128021240234375</LongitudeDegrees>
            </Position>
            <AltitudeMeters>787.79998779296875</AltitudeMeters>
            <DistanceMeters>47618.014378433</DistanceMeters>
          </Trackpoint>
          <Trackpoint>
            <Time>2019-07-19T10:03:29.000Z</Time>
            <Position>
              <LatitudeDegrees>40.7123398594558238983154296875</LatitudeDegrees>
              <LongitudeDegrees>-3.3300783298909664154052734375</LongitudeDegrees>
            </Position>
            <AltitudeMeters>786.5999755859375</AltitudeMeters>
            <DistanceMeters>47640.727552303</DistanceMeters>
          </Trackpoint>
          <Trackpoint>
            <Time>2019-07-19T10:03:31.000Z</Time>
            <Position>
              <LatitudeDegrees>40.7122020609676837921142578125</LatitudeDegrees>
              <LongitudeDegrees>-3.33014127798378467559814453125</LongitudeDegrees>
            </Position>
            <AltitudeMeters>785.4000244140625</AltitudeMeters>
            <DistanceMeters>47656.957937081</DistanceMeters>
          </Trackpoint>
          <Trackpoint>
            <Time>2019-07-19T10:03:33.000Z</Time>
            <Position>
              <LatitudeDegrees>40.7120771706104278564453125</LatitudeDegrees>
              <LongitudeDegrees>-3.3302184753119945526123046875</LongitudeDegrees>
            </Position>
            <AltitudeMeters>784.79998779296875</AltitudeMeters>
            <DistanceMeters>47672.308796173</DistanceMeters>
          </Trackpoint>
          <Trackpoint>
            <Time>2019-07-19T10:03:35.000Z</Time>
            <Position>
              <LatitudeDegrees>40.7119717262685298919677734375</LatitudeDegrees>
              <LongitudeDegrees>-3.33032601512968540191650390625</LongitudeDegrees>
            </Position>
            <AltitudeMeters>784</AltitudeMeters>
            <DistanceMeters>47687.142706743</DistanceMeters>
          </Trackpoint>
          <Trackpoint>
            <Time>2019-07-19T10:03:37.000Z</Time>
            <Position>
              <LatitudeDegrees>40.71187424473464488983154296875</LatitudeDegrees>
              <LongitudeDegrees>-3.330425508320331573486328125</LongitudeDegrees>
            </Position>
            <AltitudeMeters>783.4000244140625</AltitudeMeters>
            <DistanceMeters>47700.860825896</DistanceMeters>
          </Trackpoint>
          <Trackpoint>
            <Time>2019-07-19T10:03:40.000Z</Time>
            <Position>
              <LatitudeDegrees>40.71173192001879215240478515625</LatitudeDegrees>
              <LongitudeDegrees>-3.33049532957375049591064453125</LongitudeDegrees>
            </Position>
            <AltitudeMeters>783.20001220703125</AltitudeMeters>
            <DistanceMeters>47717.761695047</DistanceMeters>
          </Trackpoint>
          <Trackpoint>
            <Time>2019-07-19T10:03:42.000Z</Time>
            <Position>
              <LatitudeDegrees>40.71163703687489032745361328125</LatitudeDegrees>
              <LongitudeDegrees>-3.33051293157041072845458984375</LongitudeDegrees>
            </Position>
            <AltitudeMeters>783.79998779296875</AltitudeMeters>
            <DistanceMeters>47728.425877282</DistanceMeters>
          </Trackpoint>
          <Trackpoint>
            <Time>2019-07-19T10:03:50.000Z</Time>
            <Position>
              <LatitudeDegrees>40.71125901304185390472412109375</LatitudeDegrees>
              <LongitudeDegrees>-3.33073438145220279693603515625</LongitudeDegrees>
            </Position>
            <AltitudeMeters>783.5999755859375</AltitudeMeters>
            <DistanceMeters>47774.462176886</DistanceMeters>
          </Trackpoint>
          <Trackpoint>
            <Time>2019-07-19T10:03:52.000Z</Time>
            <Position>
              <LatitudeDegrees>40.7111730985343456268310546875</LatitudeDegrees>
              <LongitudeDegrees>-3.33083278499543666839599609375</LongitudeDegrees>
            </Position>
            <AltitudeMeters>784</AltitudeMeters>
            <DistanceMeters>47787.12606877</DistanceMeters>
          </Trackpoint>
          <Trackpoint>
            <Time>2019-07-19T10:04:02.000Z</Time>
            <Position>
              <LatitudeDegrees>40.7107231579720973968505859375</LatitudeDegrees>
              <LongitudeDegrees>-3.33125791512429714202880859375</LongitudeDegrees>
            </Position>
            <AltitudeMeters>783.20001220703125</AltitudeMeters>
            <DistanceMeters>47848.724786301</DistanceMeters>
          </Trackpoint>
          <Trackpoint>
            <Time>2019-07-19T10:04:03.000Z</Time>
            <Position>
              <LatitudeDegrees>40.7106758840382099151611328125</LatitudeDegrees>
              <LongitudeDegrees>-3.3312960527837276458740234375</LongitudeDegrees>
            </Position>
            <AltitudeMeters>783</AltitudeMeters>
            <DistanceMeters>47854.892012743</DistanceMeters>
          </Trackpoint>
          <Trackpoint>
            <Time>2019-07-19T10:04:09.000Z</Time>
            <Position>
              <LatitudeDegrees>40.71042568422853946685791015625</LatitudeDegrees>
              <LongitudeDegrees>-3.33157257176935672760009765625</LongitudeDegrees>
            </Position>
            <AltitudeMeters>782.4000244140625</AltitudeMeters>
            <DistanceMeters>47891.220441037</DistanceMeters>
          </Trackpoint>
          <Trackpoint>
            <Time>2019-07-19T10:04:11.000Z</Time>
            <Position>
              <LatitudeDegrees>40.7103536836802959442138671875</LatitudeDegrees>
              <LongitudeDegrees>-3.33164566196501255035400390625</LongitudeDegrees>
            </Position>
            <AltitudeMeters>783.4000244140625</AltitudeMeters>
            <DistanceMeters>47901.331747852</DistanceMeters>
          </Trackpoint>
          <Trackpoint>
            <Time>2019-07-19T10:04:12.000Z</Time>
            <Position>
              <LatitudeDegrees>40.71032543666660785675048828125</LatitudeDegrees>
              <LongitudeDegrees>-3.3316849730908870697021484375</LongitudeDegrees>
            </Position>
            <AltitudeMeters>784</AltitudeMeters>
            <DistanceMeters>47905.90291804</DistanceMeters>
          </Trackpoint>
          <Trackpoint>
            <Time>2019-07-19T10:04:19.000Z</Time>
            <Position>
              <LatitudeDegrees>40.710110105574131011962890625</LatitudeDegrees>
              <LongitudeDegrees>-3.33185152150690555572509765625</LongitudeDegrees>
            </Position>
            <AltitudeMeters>784.20001220703125</AltitudeMeters>
            <DistanceMeters>47933.685355734</DistanceMeters>
          </Trackpoint>
          <Trackpoint>
            <Time>2019-07-19T10:04:27.000Z</Time>
            <Position>
              <LatitudeDegrees>40.7098148949444293975830078125</LatitudeDegrees>
              <LongitudeDegrees>-3.33195646293461322784423828125</LongitudeDegrees>
            </Position>
            <AltitudeMeters>785</AltitudeMeters>
            <DistanceMeters>47967.715004618</DistanceMeters>
          </Trackpoint>
          <Trackpoint>
            <Time>2019-07-19T10:04:29.000Z</Time>
            <Position>
              <LatitudeDegrees>40.7097562216222286224365234375</LatitudeDegrees>
              <LongitudeDegrees>-3.33197347819805145263671875</LongitudeDegrees>
            </Position>
            <AltitudeMeters>786.5999755859375</AltitudeMeters>
            <DistanceMeters>47974.40140189</DistanceMeters>
          </Trackpoint>
          <Trackpoint>
            <Time>2019-07-19T10:04:30.000Z</Time>
            <Position>
              <LatitudeDegrees>40.70972881279885768890380859375</LatitudeDegrees>
              <LongitudeDegrees>-3.33198898471891880035400390625</LongitudeDegrees>
            </Position>
            <AltitudeMeters>787.5999755859375</AltitudeMeters>
            <DistanceMeters>47977.721902355</DistanceMeters>
          </Trackpoint>
          <Trackpoint>
            <Time>2019-07-19T10:04:32.000Z</Time>
            <Position>
              <LatitudeDegrees>40.70966628380119800567626953125</LatitudeDegrees>
              <LongitudeDegrees>-3.332022093236446380615234375</LongitudeDegrees>
            </Position>
            <AltitudeMeters>789.20001220703125</AltitudeMeters>
            <DistanceMeters>47985.221190061</DistanceMeters>
          </Trackpoint>
          <Trackpoint>
            <Time>2019-07-19T10:04:54.000Z</Time>
            <Position>
              <LatitudeDegrees>40.7091688178479671478271484375</LatitudeDegrees>
              <LongitudeDegrees>-3.33227363415062427520751953125</LongitudeDegrees>
            </Position>
            <AltitudeMeters>790.20001220703125</AltitudeMeters>
            <DistanceMeters>48044.518012114</DistanceMeters>
          </Trackpoint>
          <Trackpoint>
            <Time>2019-07-19T10:05:12.000Z</Time>
            <Position>
              <LatitudeDegrees>40.7086273469030857086181640625</LatitudeDegrees>
              <LongitudeDegrees>-3.3324111811816692352294921875</LongitudeDegrees>
            </Position>
            <AltitudeMeters>790.4000244140625</AltitudeMeters>
            <DistanceMeters>48105.891882021</DistanceMeters>
          </Trackpoint>
          <Trackpoint>
            <Time>2019-07-19T10:05:21.000Z</Time>
            <Position>
              <LatitudeDegrees>40.7082501612603664398193359375</LatitudeDegrees>
              <LongitudeDegrees>-3.33252928219735622406005859375</LongitudeDegrees>
            </Position>
            <AltitudeMeters>789.20001220703125</AltitudeMeters>
            <DistanceMeters>48149.039661344</DistanceMeters>
          </Trackpoint>
          <Trackpoint>
            <Time>2019-07-19T10:05:24.000Z</Time>
            <Position>
              <LatitudeDegrees>40.70811781100928783416748046875</LatitudeDegrees>
              <LongitudeDegrees>-3.3325633965432643890380859375</LongitudeDegrees>
            </Position>
            <AltitudeMeters>789</AltitudeMeters>
            <DistanceMeters>48164.049069964</DistanceMeters>
          </Trackpoint>
          <Trackpoint>
            <Time>2019-07-19T10:05:36.000Z</Time>
            <Position>
              <LatitudeDegrees>40.70757164619863033294677734375</LatitudeDegrees>
              <LongitudeDegrees>-3.332680575549602508544921875</LongitudeDegrees>
            </Position>
            <AltitudeMeters>788.5999755859375</AltitudeMeters>
            <DistanceMeters>48225.637011805</DistanceMeters>
          </Trackpoint>
          <Trackpoint>
            <Time>2019-07-19T10:05:48.000Z</Time>
            <Position>
              <LatitudeDegrees>40.70703503675758838653564453125</LatitudeDegrees>
              <LongitudeDegrees>-3.33291769959032535552978515625</LongitudeDegrees>
            </Position>
            <AltitudeMeters>789.5999755859375</AltitudeMeters>
            <DistanceMeters>48288.624528792</DistanceMeters>
          </Trackpoint>
          <Trackpoint>
            <Time>2019-07-19T10:05:56.000Z</Time>
            <Position>
              <LatitudeDegrees>40.7067065499722957611083984375</LatitudeDegrees>
              <LongitudeDegrees>-3.33308885805308818817138671875</LongitudeDegrees>
            </Position>
            <AltitudeMeters>788.5999755859375</AltitudeMeters>
            <DistanceMeters>48327.934359641</DistanceMeters>
          </Trackpoint>
          <Trackpoint>
            <Time>2019-07-19T10:06:09.000Z</Time>
            <Position>
              <LatitudeDegrees>40.70618863217532634735107421875</LatitudeDegrees>
              <LongitudeDegrees>-3.33336931653320789337158203125</LongitudeDegrees>
            </Position>
            <AltitudeMeters>788.4000244140625</AltitudeMeters>
            <DistanceMeters>48390.247470949</DistanceMeters>
          </Trackpoint>
          <Trackpoint>
            <Time>2019-07-19T10:06:12.000Z</Time>
            <Position>
              <LatitudeDegrees>40.706055946648120880126953125</LatitudeDegrees>
              <LongitudeDegrees>-3.3333442546427249908447265625</LongitudeDegrees>
            </Position>
            <AltitudeMeters>788.4000244140625</AltitudeMeters>
            <DistanceMeters>48405.166059827</DistanceMeters>
          </Trackpoint>
          <Trackpoint>
            <Time>2019-07-19T10:06:15.000Z</Time>
            <Position>
              <LatitudeDegrees>40.70590532384812831878662109375</LatitudeDegrees>
              <LongitudeDegrees>-3.33333008922636508941650390625</LongitudeDegrees>
            </Position>
            <AltitudeMeters>788.79998779296875</AltitudeMeters>
            <DistanceMeters>48421.973166994</DistanceMeters>
          </Trackpoint>
          <Trackpoint>
            <Time>2019-07-19T10:06:24.000Z</Time>
            <Position>
              <LatitudeDegrees>40.7055344246327877044677734375</LatitudeDegrees>
              <LongitudeDegrees>-3.33337493240833282470703125</LongitudeDegrees>
            </Position>
            <AltitudeMeters>788.79998779296875</AltitudeMeters>
            <DistanceMeters>48463.427910847</DistanceMeters>
          </Trackpoint>
          <Trackpoint>
            <Time>2019-07-19T10:06:29.000Z</Time>
            <Position>
              <LatitudeDegrees>40.705311298370361328125</LatitudeDegrees>
              <LongitudeDegrees>-3.333415500819683074951171875</LongitudeDegrees>
            </Position>
            <AltitudeMeters>788</AltitudeMeters>
            <DistanceMeters>48488.4971396</DistanceMeters>
          </Trackpoint>
          <Trackpoint>
            <Time>2019-07-19T10:06:35.000Z</Time>
            <Position>
              <LatitudeDegrees>40.7050355337560176849365234375</LatitudeDegrees>
              <LongitudeDegrees>-3.33348850719630718231201171875</LongitudeDegrees>
            </Position>
            <AltitudeMeters>787</AltitudeMeters>
            <DistanceMeters>48519.802349012</DistanceMeters>
          </Trackpoint>
          <Trackpoint>
            <Time>2019-07-19T10:06:41.000Z</Time>
            <Position>
              <LatitudeDegrees>40.70476873777806758880615234375</LatitudeDegrees>
              <LongitudeDegrees>-3.3335554786026477813720703125</LongitudeDegrees>
            </Position>
            <AltitudeMeters>788</AltitudeMeters>
            <DistanceMeters>48550.030106372</DistanceMeters>
          </Trackpoint>
          <Trackpoint>
            <Time>2019-07-19T10:06:51.000Z</Time>
            <Position>
              <LatitudeDegrees>40.70431008003652095794677734375</LatitudeDegrees>
              <LongitudeDegrees>-3.33363938145339488983154296875</LongitudeDegrees>
            </Position>
            <AltitudeMeters>786.79998779296875</AltitudeMeters>
            <DistanceMeters>48601.568149562</DistanceMeters>
          </Trackpoint>
          <Trackpoint>
            <Time>2019-07-19T10:06:58.000Z</Time>
            <Position>
              <LatitudeDegrees>40.70394932292401790618896484375</LatitudeDegrees>
              <LongitudeDegrees>-3.3336755074560642242431640625</LongitudeDegrees>
            </Position>
            <AltitudeMeters>785.5999755859375</AltitudeMeters>
            <DistanceMeters>48641.836609766</DistanceMeters>
          </Trackpoint>
          <Trackpoint>
            <Time>2019-07-19T10:06:59.000Z</Time>
            <Position>
              <LatitudeDegrees>40.70389651693403720855712890625</LatitudeDegrees>
              <LongitudeDegrees>-3.3336771838366985321044921875</LongitudeDegrees>
            </Position>
            <AltitudeMeters>785.4000244140625</AltitudeMeters>
            <DistanceMeters>48647.715991759</DistanceMeters>
          </Trackpoint>
          <Trackpoint>
            <Time>2019-07-19T10:07:03.000Z</Time>
            <Position>
              <LatitudeDegrees>40.70369250141084194183349609375</LatitudeDegrees>
              <LongitudeDegrees>-3.33368347026407718658447265625</LongitudeDegrees>
            </Position>
            <AltitudeMeters>784.79998779296875</AltitudeMeters>
            <DistanceMeters>48670.429563196</DistanceMeters>
          </Trackpoint>
          <Trackpoint>
            <Time>2019-07-19T10:07:09.000Z</Time>
            <Position>
              <LatitudeDegrees>40.70341355167329311370849609375</LatitudeDegrees>
              <LongitudeDegrees>-3.33371263928711414337158203125</LongitudeDegrees>
            </Position>
            <AltitudeMeters>784.5999755859375</AltitudeMeters>
            <DistanceMeters>48701.574704738</DistanceMeters>
          </Trackpoint>
          <Trackpoint>
            <Time>2019-07-19T10:07:16.000Z</Time>
            <Position>
              <LatitudeDegrees>40.70305782370269298553466796875</LatitudeDegrees>
              <LongitudeDegrees>-3.33379964344203472137451171875</LongitudeDegrees>
            </Position>
            <AltitudeMeters>783.5999755859375</AltitudeMeters>
            <DistanceMeters>48741.842716446</DistanceMeters>
          </Trackpoint>
          <Trackpoint>
            <Time>2019-07-19T10:07:28.000Z</Time>
            <Position>
              <LatitudeDegrees>40.70249841548502445220947265625</LatitudeDegrees>
              <LongitudeDegrees>-3.3339940197765827178955078125</LongitudeDegrees>
            </Position>
            <AltitudeMeters>783.20001220703125</AltitudeMeters>
            <DistanceMeters>48806.229889823</DistanceMeters>
          </Trackpoint>
          <Trackpoint>
            <Time>2019-07-19T10:07:39.000Z</Time>
            <Position>
              <LatitudeDegrees>40.70192861370742321014404296875</LatitudeDegrees>
              <LongitudeDegrees>-3.33416308276355266571044921875</LongitudeDegrees>
            </Position>
            <AltitudeMeters>783.4000244140625</AltitudeMeters>
            <DistanceMeters>48871.234552823</DistanceMeters>
          </Trackpoint>
          <Trackpoint>
            <Time>2019-07-19T10:07:44.000Z</Time>
            <Position>
              <LatitudeDegrees>40.70167162455618381500244140625</LatitudeDegrees>
              <LongitudeDegrees>-3.3342337422072887420654296875</LongitudeDegrees>
            </Position>
            <AltitudeMeters>782.4000244140625</AltitudeMeters>
            <DistanceMeters>48900.452601987</DistanceMeters>
          </Trackpoint>
          <Trackpoint>
            <Time>2019-07-19T10:07:47.000Z</Time>
            <Position>
              <LatitudeDegrees>40.7015241868793964385986328125</LatitudeDegrees>
              <LongitudeDegrees>-3.3342969417572021484375</LongitudeDegrees>
            </Position>
            <AltitudeMeters>781.20001220703125</AltitudeMeters>
            <DistanceMeters>48917.70773689</DistanceMeters>
          </Trackpoint>
          <Trackpoint>
            <Time>2019-07-19T10:08:00.000Z</Time>
            <Position>
              <LatitudeDegrees>40.701053626835346221923828125</LatitudeDegrees>
              <LongitudeDegrees>-3.334529958665370941162109375</LongitudeDegrees>
            </Position>
            <AltitudeMeters>782.20001220703125</AltitudeMeters>
            <DistanceMeters>48973.651037865</DistanceMeters>
          </Trackpoint>
          <Trackpoint>
            <Time>2019-07-19T10:08:04.000Z</Time>
            <Position>
              <LatitudeDegrees>40.70086159743368625640869140625</LatitudeDegrees>
              <LongitudeDegrees>-3.33459240384399890899658203125</LongitudeDegrees>
            </Position>
            <AltitudeMeters>783.20001220703125</AltitudeMeters>
            <DistanceMeters>48995.664033167</DistanceMeters>
          </Trackpoint>
          <Trackpoint>
            <Time>2019-07-19T10:08:11.000Z</Time>
            <Position>
              <LatitudeDegrees>40.7004885189235210418701171875</LatitudeDegrees>
              <LongitudeDegrees>-3.33473422564566135406494140625</LongitudeDegrees>
            </Position>
            <AltitudeMeters>781</AltitudeMeters>
            <DistanceMeters>49038.878417567</DistanceMeters>
          </Trackpoint>
          <Trackpoint>
            <Time>2019-07-19T10:08:12.000Z</Time>
            <Position>
              <LatitudeDegrees>40.7004365511238574981689453125</LatitudeDegrees>
              <LongitudeDegrees>-3.33475467748939990997314453125</LongitudeDegrees>
            </Position>
            <AltitudeMeters>780</AltitudeMeters>
            <DistanceMeters>49044.914671244</DistanceMeters>
          </Trackpoint>
          <Trackpoint>
            <Time>2019-07-19T10:08:15.000Z</Time>
            <Position>
              <LatitudeDegrees>40.70027486421167850494384765625</LatitudeDegrees>
              <LongitudeDegrees>-3.334812261164188385009765625</LongitudeDegrees>
            </Position>
            <AltitudeMeters>779</AltitudeMeters>
            <DistanceMeters>49063.55541537</DistanceMeters>
          </Trackpoint>
          <Trackpoint>
            <Time>2019-07-19T10:08:22.000Z</Time>
            <Position>
              <LatitudeDegrees>40.69990069605410099029541015625</LatitudeDegrees>
              <LongitudeDegrees>-3.33496707491576671600341796875</LongitudeDegrees>
            </Position>
            <AltitudeMeters>777.79998779296875</AltitudeMeters>
            <DistanceMeters>49107.201858717</DistanceMeters>
          </Trackpoint>
          <Trackpoint>
            <Time>2019-07-19T10:08:27.000Z</Time>
            <Position>
              <LatitudeDegrees>40.69963498972356319427490234375</LatitudeDegrees>
              <LongitudeDegrees>-3.3350920490920543670654296875</LongitudeDegrees>
            </Position>
            <AltitudeMeters>779.5999755859375</AltitudeMeters>
            <DistanceMeters>49138.599524958</DistanceMeters>
          </Trackpoint>
          <Trackpoint>
            <Time>2019-07-19T10:08:29.000Z</Time>
            <Position>
              <LatitudeDegrees>40.699524097144603729248046875</LatitudeDegrees>
              <LongitudeDegrees>-3.33514141850173473358154296875</LongitudeDegrees>
            </Position>
            <AltitudeMeters>781</AltitudeMeters>
            <DistanceMeters>49151.626505676</DistanceMeters>
          </Trackpoint>
          <Trackpoint>
            <Time>2019-07-19T10:08:35.000Z</Time>
            <Position>
              <LatitudeDegrees>40.699197538197040557861328125</LatitudeDegrees>
              <LongitudeDegrees>-3.33530478179454803466796875</LongitudeDegrees>
            </Position>
            <AltitudeMeters>779.20001220703125</AltitudeMeters>
            <DistanceMeters>49190.499517551</DistanceMeters>
          </Trackpoint>
          <Trackpoint>
            <Time>2019-07-19T10:08:45.000Z</Time>
            <Position>
              <LatitudeDegrees>40.698683895170688629150390625</LatitudeDegrees>
              <LongitudeDegrees>-3.33556185476481914520263671875</LongitudeDegrees>
            </Position>
            <AltitudeMeters>778.20001220703125</AltitudeMeters>
            <DistanceMeters>49251.646236284</DistanceMeters>
          </Trackpoint>
          <Trackpoint>
            <Time>2019-07-19T10:08:46.000Z</Time>
            <Position>
              <LatitudeDegrees>40.69863368757069110870361328125</LatitudeDegrees>
              <LongitudeDegrees>-3.335590772330760955810546875</LongitudeDegrees>
            </Position>
            <AltitudeMeters>777.4000244140625</AltitudeMeters>
            <DistanceMeters>49257.742775847</DistanceMeters>
          </Trackpoint>
          <Trackpoint>
            <Time>2019-07-19T10:08:51.000Z</Time>
            <Position>
              <LatitudeDegrees>40.69840050302445888519287109375</LatitudeDegrees>
              <LongitudeDegrees>-3.3357327617704868316650390625</LongitudeDegrees>
            </Position>
            <AltitudeMeters>776.5999755859375</AltitudeMeters>
            <DistanceMeters>49286.328921753</DistanceMeters>
          </Trackpoint>
          <Trackpoint>
            <Time>2019-07-19T10:08:54.000Z</Time>
            <Position>
              <LatitudeDegrees>40.6982585974037647247314453125</LatitudeDegrees>
              <LongitudeDegrees>-3.3357654511928558349609375</LongitudeDegrees>
            </Position>
            <AltitudeMeters>776.4000244140625</AltitudeMeters>
            <DistanceMeters>49302.362268758</DistanceMeters>
          </Trackpoint>
          <Trackpoint>
            <Time>2019-07-19T10:09:00.000Z</Time>
            <Position>
              <LatitudeDegrees>40.69793346337974071502685546875</LatitudeDegrees>
              <LongitudeDegrees>-3.33591506816446781158447265625</LongitudeDegrees>
            </Position>
            <AltitudeMeters>775.20001220703125</AltitudeMeters>
            <DistanceMeters>49340.689500795</DistanceMeters>
          </Trackpoint>
          <Trackpoint>
            <Time>2019-07-19T10:09:08.000Z</Time>
            <Position>
              <LatitudeDegrees>40.69738562218844890594482421875</LatitudeDegrees>
              <LongitudeDegrees>-3.33616300486028194427490234375</LongitudeDegrees>
            </Position>
            <AltitudeMeters>775.5999755859375</AltitudeMeters>
            <DistanceMeters>49405.154884225</DistanceMeters>
          </Trackpoint>
          <Trackpoint>
            <Time>2019-07-19T10:09:11.000Z</Time>
            <Position>
              <LatitudeDegrees>40.69718093611299991607666015625</LatitudeDegrees>
              <LongitudeDegrees>-3.33629342727363109588623046875</LongitudeDegrees>
            </Position>
            <AltitudeMeters>773.4000244140625</AltitudeMeters>
            <DistanceMeters>49430.455914226</DistanceMeters>
          </Trackpoint>
          <Trackpoint>
            <Time>2019-07-19T10:09:12.000Z</Time>
            <Position>
              <LatitudeDegrees>40.69712108932435512542724609375</LatitudeDegrees>
              <LongitudeDegrees>-3.336338102817535400390625</LongitudeDegrees>
            </Position>
            <AltitudeMeters>772.20001220703125</AltitudeMeters>
            <DistanceMeters>49438.108957792</DistanceMeters>
          </Trackpoint>
          <Trackpoint>
            <Time>2019-07-19T10:09:13.000Z</Time>
            <Position>
              <LatitudeDegrees>40.6970666907727718353271484375</LatitudeDegrees>
              <LongitudeDegrees>-3.3363852091133594512939453125</LongitudeDegrees>
            </Position>
            <AltitudeMeters>771.5999755859375</AltitudeMeters>
            <DistanceMeters>49445.352212871</DistanceMeters>
          </Trackpoint>
          <Trackpoint>
            <Time>2019-07-19T10:09:14.000Z</Time>
            <Position>
              <LatitudeDegrees>40.6970187462866306304931640625</LatitudeDegrees>
              <LongitudeDegrees>-3.3364308066666126251220703125</LongitudeDegrees>
            </Position>
            <AltitudeMeters>771.20001220703125</AltitudeMeters>
            <DistanceMeters>49451.931740701</DistanceMeters>
          </Trackpoint>
          <Trackpoint>
            <Time>2019-07-19T10:09:21.000Z</Time>
            <Position>
              <LatitudeDegrees>40.69677541963756084442138671875</LatitudeDegrees>
              <LongitudeDegrees>-3.33676532842218875885009765625</LongitudeDegrees>
            </Position>
            <AltitudeMeters>772.5999755859375</AltitudeMeters>
            <DistanceMeters>49491.051366404</DistanceMeters>
          </Trackpoint>
          <Trackpoint>
            <Time>2019-07-19T10:09:24.000Z</Time>
            <Position>
              <LatitudeDegrees>40.69671825505793094635009765625</LatitudeDegrees>
              <LongitudeDegrees>-3.33689264953136444091796875</LongitudeDegrees>
            </Position>
            <AltitudeMeters>773.79998779296875</AltitudeMeters>
            <DistanceMeters>49503.538252723</DistanceMeters>
          </Trackpoint>
          <Trackpoint>
            <Time>2019-07-19T10:09:30.000Z</Time>
            <Position>
              <LatitudeDegrees>40.696661174297332763671875</LatitudeDegrees>
              <LongitudeDegrees>-3.3371476270258426666259765625</LongitudeDegrees>
            </Position>
            <AltitudeMeters>774.79998779296875</AltitudeMeters>
            <DistanceMeters>49525.973011488</DistanceMeters>
          </Trackpoint>
          <Trackpoint>
            <Time>2019-07-19T10:09:34.000Z</Time>
            <Position>
              <LatitudeDegrees>40.69664667360484600067138671875</LatitudeDegrees>
              <LongitudeDegrees>-3.337292969226837158203125</LongitudeDegrees>
            </Position>
            <AltitudeMeters>775.79998779296875</AltitudeMeters>
            <DistanceMeters>49538.34328535</DistanceMeters>
          </Trackpoint>
          <Trackpoint>
            <Time>2019-07-19T10:09:43.000Z</Time>
            <Position>
              <LatitudeDegrees>40.69669277407228946685791015625</LatitudeDegrees>
              <LongitudeDegrees>-3.33766244351863861083984375</LongitudeDegrees>
            </Position>
            <AltitudeMeters>776.5999755859375</AltitudeMeters>
            <DistanceMeters>49569.941061096</DistanceMeters>
          </Trackpoint>
          <Trackpoint>
            <Time>2019-07-19T10:09:45.000Z</Time>
            <Position>
              <LatitudeDegrees>40.69668623618781566619873046875</LatitudeDegrees>
              <LongitudeDegrees>-3.3377075381577014923095703125</LongitudeDegrees>
            </Position>
            <AltitudeMeters>776.79998779296875</AltitudeMeters>
            <DistanceMeters>49573.815075429</DistanceMeters>
          </Trackpoint>
          <Trackpoint>
            <Time>2019-07-19T10:09:46.000Z</Time>
            <Position>
              <LatitudeDegrees>40.69667131640017032623291015625</LatitudeDegrees>
              <LongitudeDegrees>-3.3377253077924251556396484375</LongitudeDegrees>
            </Position>
            <AltitudeMeters>776.79998779296875</AltitudeMeters>
            <DistanceMeters>49576.051738647</DistanceMeters>
          </Trackpoint>
          <Trackpoint>
            <Time>2019-07-19T10:09:59.000Z</Time>
            <Position>
              <LatitudeDegrees>40.6962945498526096343994140625</LatitudeDegrees>
              <LongitudeDegrees>-3.337874002754688262939453125</LongitudeDegrees>
            </Position>
            <AltitudeMeters>776.5999755859375</AltitudeMeters>
            <DistanceMeters>49619.823688109</DistanceMeters>
          </Trackpoint>
          <Trackpoint>
            <Time>2019-07-19T10:10:01.000Z</Time>
            <Position>
              <LatitudeDegrees>40.69620729424059391021728515625</LatitudeDegrees>
              <LongitudeDegrees>-3.3378899283707141876220703125</LongitudeDegrees>
            </Position>
            <AltitudeMeters>776.4000244140625</AltitudeMeters>
            <DistanceMeters>49629.628032235</DistanceMeters>
          </Trackpoint>
          <Trackpoint>
            <Time>2019-07-19T10:10:03.000Z</Time>
            <Position>
              <LatitudeDegrees>40.6961071304976940155029296875</LatitudeDegrees>
              <LongitudeDegrees>-3.33786872215569019317626953125</LongitudeDegrees>
            </Position>
            <AltitudeMeters>776</AltitudeMeters>
            <DistanceMeters>49640.919429373</DistanceMeters>
          </Trackpoint>
          <Trackpoint>
            <Time>2019-07-19T10:10:04.000Z</Time>
            <Position>
              <LatitudeDegrees>40.69605566561222076416015625</LatitudeDegrees>
              <LongitudeDegrees>-3.3378436602652072906494140625</LongitudeDegrees>
            </Position>
            <AltitudeMeters>775.79998779296875</AltitudeMeters>
            <DistanceMeters>49647.026328399</DistanceMeters>
          </Trackpoint>
          <Trackpoint>
            <Time>2019-07-19T10:10:09.000Z</Time>
            <Position>
              <LatitudeDegrees>40.69578744471073150634765625</LatitudeDegrees>
              <LongitudeDegrees>-3.337710388004779815673828125</LongitudeDegrees>
            </Position>
            <AltitudeMeters>774.5999755859375</AltitudeMeters>
            <DistanceMeters>49678.928000854</DistanceMeters>
          </Trackpoint>
          <Trackpoint>
            <Time>2019-07-19T10:10:11.000Z</Time>
            <Position>
              <LatitudeDegrees>40.6956702657043933868408203125</LatitudeDegrees>
              <LongitudeDegrees>-3.3376850746572017669677734375</LongitudeDegrees>
            </Position>
            <AltitudeMeters>774.20001220703125</AltitudeMeters>
            <DistanceMeters>49692.143548838</DistanceMeters>
          </Trackpoint>
          <Trackpoint>
            <Time>2019-07-19T10:10:19.000Z</Time>
            <Position>
              <LatitudeDegrees>40.69552098400890827178955078125</LatitudeDegrees>
              <LongitudeDegrees>-3.3376897685229778289794921875</LongitudeDegrees>
            </Position>
            <AltitudeMeters>773.79998779296875</AltitudeMeters>
            <DistanceMeters>49708.763718464</DistanceMeters>
          </Trackpoint>
          <Trackpoint>
            <Time>2019-07-19T10:10:27.000Z</Time>
            <Position>
              <LatitudeDegrees>40.69542962126433849334716796875</LatitudeDegrees>
              <LongitudeDegrees>-3.33765867166221141815185546875</LongitudeDegrees>
            </Position>
            <AltitudeMeters>773.79998779296875</AltitudeMeters>
            <DistanceMeters>49719.266642526</DistanceMeters>
          </Trackpoint>
          <Trackpoint>
            <Time>2019-07-19T10:10:30.000Z</Time>
            <Position>
              <LatitudeDegrees>40.69538922049105167388916015625</LatitudeDegrees>
              <LongitudeDegrees>-3.337655402719974517822265625</LongitudeDegrees>
            </Position>
            <AltitudeMeters>773.5999755859375</AltitudeMeters>
            <DistanceMeters>49723.774155365</DistanceMeters>
          </Trackpoint>
          <Trackpoint>
            <Time>2019-07-19T10:43:17.000Z</Time>
            <Position>
              <LatitudeDegrees>40.6951143778860569000244140625</LatitudeDegrees>
              <LongitudeDegrees>-3.33868495188653469085693359375</LongitudeDegrees>
            </Position>
            <AltitudeMeters>773.79998779296875</AltitudeMeters>
            <DistanceMeters>49815.883721659</DistanceMeters>
          </Trackpoint>
          <Trackpoint>
            <Time>2019-07-19T10:43:32.000Z</Time>
            <Position>
              <LatitudeDegrees>40.6946671195328235626220703125</LatitudeDegrees>
              <LongitudeDegrees>-3.3391026221215724945068359375</LongitudeDegrees>
            </Position>
            <AltitudeMeters>774.4000244140625</AltitudeMeters>
            <DistanceMeters>49876.879103823</DistanceMeters>
          </Trackpoint>
          <Trackpoint>
            <Time>2019-07-19T10:43:41.000Z</Time>
            <Position>
              <LatitudeDegrees>40.69436595775187015533447265625</LatitudeDegrees>
              <LongitudeDegrees>-3.33932809531688690185546875</LongitudeDegrees>
            </Position>
            <AltitudeMeters>774.79998779296875</AltitudeMeters>
            <DistanceMeters>49915.423068417</DistanceMeters>
          </Trackpoint>
          <Trackpoint>
            <Time>2019-07-19T10:43:55.000Z</Time>
            <Position>
              <LatitudeDegrees>40.69392674602568149566650390625</LatitudeDegrees>
              <LongitudeDegrees>-3.3397624455392360687255859375</LongitudeDegrees>
            </Position>
            <AltitudeMeters>775.20001220703125</AltitudeMeters>
            <DistanceMeters>49976.523841769</DistanceMeters>
          </Trackpoint>
          <Trackpoint>
            <Time>2019-07-19T10:44:05.000Z</Time>
            <Position>
              <LatitudeDegrees>40.69363874383270740509033203125</LatitudeDegrees>
              <LongitudeDegrees>-3.340145833790302276611328125</LongitudeDegrees>
            </Position>
            <AltitudeMeters>775.79998779296875</AltitudeMeters>
            <DistanceMeters>50022.068511272</DistanceMeters>
          </Trackpoint>
          <Trackpoint>
            <Time>2019-07-19T10:44:18.000Z</Time>
            <Position>
              <LatitudeDegrees>40.6932230852544307708740234375</LatitudeDegrees>
              <LongitudeDegrees>-3.34063642658293247222900390625</LongitudeDegrees>
            </Position>
            <AltitudeMeters>777</AltitudeMeters>
            <DistanceMeters>50084.152235381</DistanceMeters>
          </Trackpoint>
          <Trackpoint>
            <Time>2019-07-19T10:44:25.000Z</Time>
            <Position>
              <LatitudeDegrees>40.6930013000965118408203125</LatitudeDegrees>
              <LongitudeDegrees>-3.3409137837588787078857421875</LongitudeDegrees>
            </Position>
            <AltitudeMeters>778</AltitudeMeters>
            <DistanceMeters>50118.170206462</DistanceMeters>
          </Trackpoint>
          <Trackpoint>
            <Time>2019-07-19T10:44:38.000Z</Time>
            <Position>
              <LatitudeDegrees>40.69263677112758159637451171875</LatitudeDegrees>
              <LongitudeDegrees>-3.3415065519511699676513671875</LongitudeDegrees>
            </Position>
            <AltitudeMeters>777</AltitudeMeters>
            <DistanceMeters>50182.579675174</DistanceMeters>
          </Trackpoint>
          <Trackpoint>
            <Time>2019-07-19T10:44:39.000Z</Time>
            <Position>
              <LatitudeDegrees>40.69260391406714916229248046875</LatitudeDegrees>
              <LongitudeDegrees>-3.3415565080940723419189453125</LongitudeDegrees>
            </Position>
            <AltitudeMeters>776.79998779296875</AltitudeMeters>
            <DistanceMeters>50188.160421867</DistanceMeters>
          </Trackpoint>
          <Trackpoint>
            <Time>2019-07-19T10:44:41.000Z</Time>
            <Position>
              <LatitudeDegrees>40.6925399601459503173828125</LatitudeDegrees>
              <LongitudeDegrees>-3.34165784530341625213623046875</LongitudeDegrees>
            </Position>
            <AltitudeMeters>776.79998779296875</AltitudeMeters>
            <DistanceMeters>50199.287477997</DistanceMeters>
          </Trackpoint>
          <Trackpoint>
            <Time>2019-07-19T10:44:52.000Z</Time>
            <Position>
              <LatitudeDegrees>40.69214768707752227783203125</LatitudeDegrees>
              <LongitudeDegrees>-3.34222295321524143218994140625</LongitudeDegrees>
            </Position>
            <AltitudeMeters>777.20001220703125</AltitudeMeters>
            <DistanceMeters>50263.945319217</DistanceMeters>
          </Trackpoint>
          <Trackpoint>
            <Time>2019-07-19T10:45:01.000Z</Time>
            <Position>
              <LatitudeDegrees>40.69171853363513946533203125</LatitudeDegrees>
              <LongitudeDegrees>-3.34266484715044498443603515625</LongitudeDegrees>
            </Position>
            <AltitudeMeters>775.79998779296875</AltitudeMeters>
            <DistanceMeters>50324.544578433</DistanceMeters>
          </Trackpoint>
          <Trackpoint>
            <Time>2019-07-19T10:45:11.000Z</Time>
            <Position>
              <LatitudeDegrees>40.691234059631824493408203125</LatitudeDegrees>
              <LongitudeDegrees>-3.3431199006736278533935546875</LongitudeDegrees>
            </Position>
            <AltitudeMeters>775</AltitudeMeters>
            <DistanceMeters>50390.744855621</DistanceMeters>
          </Trackpoint>
          <Trackpoint>
            <Time>2019-07-19T10:45:21.000Z</Time>
            <Position>
              <LatitudeDegrees>40.69071161560714244842529296875</LatitudeDegrees>
              <LongitudeDegrees>-3.34345400333404541015625</LongitudeDegrees>
            </Position>
            <AltitudeMeters>775</AltitudeMeters>
            <DistanceMeters>50455.36930962</DistanceMeters>
          </Trackpoint>
          <Trackpoint>
            <Time>2019-07-19T10:45:27.000Z</Time>
            <Position>
              <LatitudeDegrees>40.6903946958482265472412109375</LatitudeDegrees>
              <LongitudeDegrees>-3.3436432667076587677001953125</LongitudeDegrees>
            </Position>
            <AltitudeMeters>774.5999755859375</AltitudeMeters>
            <DistanceMeters>50494.090800975</DistanceMeters>
          </Trackpoint>
          <Trackpoint>
            <Time>2019-07-19T10:45:37.000Z</Time>
            <Position>
              <LatitudeDegrees>40.6898765265941619873046875</LatitudeDegrees>
              <LongitudeDegrees>-3.34395498968660831451416015625</LongitudeDegrees>
            </Position>
            <AltitudeMeters>774</AltitudeMeters>
            <DistanceMeters>50557.480813728</DistanceMeters>
          </Trackpoint>
          <Trackpoint>
            <Time>2019-07-19T10:45:46.000Z</Time>
            <Position>
              <LatitudeDegrees>40.689384676516056060791015625</LatitudeDegrees>
              <LongitudeDegrees>-3.3442501164972782135009765625</LongitudeDegrees>
            </Position>
            <AltitudeMeters>773.79998779296875</AltitudeMeters>
            <DistanceMeters>50617.624466692</DistanceMeters>
          </Trackpoint>
          <Trackpoint>
            <Time>2019-07-19T10:45:48.000Z</Time>
            <Position>
              <LatitudeDegrees>40.68927747197449207305908203125</LatitudeDegrees>
              <LongitudeDegrees>-3.34431163966655731201171875</LongitudeDegrees>
            </Position>
            <AltitudeMeters>773.20001220703125</AltitudeMeters>
            <DistanceMeters>50630.637923329</DistanceMeters>
          </Trackpoint>
          <Trackpoint>
            <Time>2019-07-19T10:45:57.000Z</Time>
            <Position>
              <LatitudeDegrees>40.68877070210874080657958984375</LatitudeDegrees>
              <LongitudeDegrees>-3.344584219157695770263671875</LongitudeDegrees>
            </Position>
            <AltitudeMeters>772.4000244140625</AltitudeMeters>
            <DistanceMeters>50691.55323448</DistanceMeters>
          </Trackpoint>
          <Trackpoint>
            <Time>2019-07-19T10:46:00.000Z</Time>
            <Position>
              <LatitudeDegrees>40.688574649393558502197265625</LatitudeDegrees>
              <LongitudeDegrees>-3.34461967460811138153076171875</LongitudeDegrees>
            </Position>
            <AltitudeMeters>772.20001220703125</AltitudeMeters>
            <DistanceMeters>50713.578532815</DistanceMeters>
          </Trackpoint>
          <Trackpoint>
            <Time>2019-07-19T10:46:05.000Z</Time>
            <Position>
              <LatitudeDegrees>40.68821062333881855010986328125</LatitudeDegrees>
              <LongitudeDegrees>-3.34463107399642467498779296875</LongitudeDegrees>
            </Position>
            <AltitudeMeters>771.20001220703125</AltitudeMeters>
            <DistanceMeters>50754.106730219</DistanceMeters>
          </Trackpoint>
          <Trackpoint>
            <Time>2019-07-19T10:46:08.000Z</Time>
            <Position>
              <LatitudeDegrees>40.6879793666303157806396484375</LatitudeDegrees>
              <LongitudeDegrees>-3.34462772123515605926513671875</LongitudeDegrees>
            </Position>
            <AltitudeMeters>769.79998779296875</AltitudeMeters>
            <DistanceMeters>50779.847571098</DistanceMeters>
          </Trackpoint>
          <Trackpoint>
            <Time>2019-07-19T10:46:13.000Z</Time>
            <Position>
              <LatitudeDegrees>40.687577538192272186279296875</LatitudeDegrees>
              <LongitudeDegrees>-3.34462638013064861297607421875</LongitudeDegrees>
            </Position>
            <AltitudeMeters>768.4000244140625</AltitudeMeters>
            <DistanceMeters>50824.571952516</DistanceMeters>
          </Trackpoint>
          <Trackpoint>
            <Time>2019-07-19T10:46:16.000Z</Time>
            <Position>
              <LatitudeDegrees>40.68733437918126583099365234375</LatitudeDegrees>
              <LongitudeDegrees>-3.34462252445518970489501953125</LongitudeDegrees>
            </Position>
            <AltitudeMeters>767.20001220703125</AltitudeMeters>
            <DistanceMeters>50851.637722807</DistanceMeters>
          </Trackpoint>
          <Trackpoint>
            <Time>2019-07-19T10:46:23.000Z</Time>
            <Position>
              <LatitudeDegrees>40.68676985800266265869140625</LatitudeDegrees>
              <LongitudeDegrees>-3.34462084807455539703369140625</LongitudeDegrees>
            </Position>
            <AltitudeMeters>766.20001220703125</AltitudeMeters>
            <DistanceMeters>50914.470145178</DistanceMeters>
          </Trackpoint>
          <Trackpoint>
            <Time>2019-07-19T10:46:27.000Z</Time>
            <Position>
              <LatitudeDegrees>40.68644941784441471099853515625</LatitudeDegrees>
              <LongitudeDegrees>-3.34461648948490619659423828125</LongitudeDegrees>
            </Position>
            <AltitudeMeters>765</AltitudeMeters>
            <DistanceMeters>50950.137710691</DistanceMeters>
          </Trackpoint>
          <Trackpoint>
            <Time>2019-07-19T10:46:31.000Z</Time>
            <Position>
              <LatitudeDegrees>40.686139874160289764404296875</LatitudeDegrees>
              <LongitudeDegrees>-3.34461431019008159637451171875</LongitudeDegrees>
            </Position>
            <AltitudeMeters>764</AltitudeMeters>
            <DistanceMeters>50984.590890641</DistanceMeters>
          </Trackpoint>
          <Trackpoint>
            <Time>2019-07-19T10:46:39.000Z</Time>
            <Position>
              <LatitudeDegrees>40.68552573211491107940673828125</LatitudeDegrees>
              <LongitudeDegrees>-3.34460735321044921875</LongitudeDegrees>
            </Position>
            <AltitudeMeters>763.79998779296875</AltitudeMeters>
            <DistanceMeters>51052.948593919</DistanceMeters>
          </Trackpoint>
          <Trackpoint>
            <Time>2019-07-19T10:46:44.000Z</Time>
            <Position>
              <LatitudeDegrees>40.68513915874063968658447265625</LatitudeDegrees>
              <LongitudeDegrees>-3.34460123442113399505615234375</LongitudeDegrees>
            </Position>
            <AltitudeMeters>762.79998779296875</AltitudeMeters>
            <DistanceMeters>51095.977966144</DistanceMeters>
          </Trackpoint>
          <Trackpoint>
            <Time>2019-07-19T10:46:51.000Z</Time>
            <Position>
              <LatitudeDegrees>40.68458779715001583099365234375</LatitudeDegrees>
              <LongitudeDegrees>-3.3446712233126163482666015625</LongitudeDegrees>
            </Position>
            <AltitudeMeters>761.79998779296875</AltitudeMeters>
            <DistanceMeters>51157.629215655</DistanceMeters>
          </Trackpoint>
          <Trackpoint>
            <Time>2019-07-19T10:46:52.000Z</Time>
            <Position>
              <LatitudeDegrees>40.68451370112597942352294921875</LatitudeDegrees>
              <LongitudeDegrees>-3.34471019916236400604248046875</LongitudeDegrees>
            </Position>
            <AltitudeMeters>761.5999755859375</AltitudeMeters>
            <DistanceMeters>51166.507986254</DistanceMeters>
          </Trackpoint>
          <Trackpoint>
            <Time>2019-07-19T10:46:59.000Z</Time>
            <Position>
              <LatitudeDegrees>40.6840392015874385833740234375</LatitudeDegrees>
              <LongitudeDegrees>-3.34506307728588581085205078125</LongitudeDegrees>
            </Position>
            <AltitudeMeters>762</AltitudeMeters>
            <DistanceMeters>51227.140093931</DistanceMeters>
          </Trackpoint>
          <Trackpoint>
            <Time>2019-07-19T10:47:07.000Z</Time>
            <Position>
              <LatitudeDegrees>40.6835161708295345306396484375</LatitudeDegrees>
              <LongitudeDegrees>-3.3454356528818607330322265625</LongitudeDegrees>
            </Position>
            <AltitudeMeters>762.20001220703125</AltitudeMeters>
            <DistanceMeters>51293.304896205</DistanceMeters>
          </Trackpoint>
          <Trackpoint>
            <Time>2019-07-19T10:47:15.000Z</Time>
            <Position>
              <LatitudeDegrees>40.68300068378448486328125</LatitudeDegrees>
              <LongitudeDegrees>-3.3457940630614757537841796875</LongitudeDegrees>
            </Position>
            <AltitudeMeters>761.79998779296875</AltitudeMeters>
            <DistanceMeters>51358.166180453</DistanceMeters>
          </Trackpoint>
          <Trackpoint>
            <Time>2019-07-19T10:47:23.000Z</Time>
            <Position>
              <LatitudeDegrees>40.682478658854961395263671875</LatitudeDegrees>
              <LongitudeDegrees>-3.34615029394626617431640625</LongitudeDegrees>
            </Position>
            <AltitudeMeters>760.4000244140625</AltitudeMeters>
            <DistanceMeters>51423.587225167</DistanceMeters>
          </Trackpoint>
          <Trackpoint>
            <Time>2019-07-19T10:47:28.000Z</Time>
            <Position>
              <LatitudeDegrees>40.6821636669337749481201171875</LatitudeDegrees>
              <LongitudeDegrees>-3.34636981599032878875732421875</LongitudeDegrees>
            </Position>
            <AltitudeMeters>761.5999755859375</AltitudeMeters>
            <DistanceMeters>51463.241498476</DistanceMeters>
          </Trackpoint>
          <Trackpoint>
            <Time>2019-07-19T10:47:36.000Z</Time>
            <Position>
              <LatitudeDegrees>40.6816527061164379119873046875</LatitudeDegrees>
              <LongitudeDegrees>-3.3467177487909793853759765625</LongitudeDegrees>
            </Position>
            <AltitudeMeters>761.20001220703125</AltitudeMeters>
            <DistanceMeters>51527.247193229</DistanceMeters>
          </Trackpoint>
          <Trackpoint>
            <Time>2019-07-19T10:47:44.000Z</Time>
            <Position>
              <LatitudeDegrees>40.6811367161571979522705078125</LatitudeDegrees>
              <LongitudeDegrees>-3.34707071073353290557861328125</LongitudeDegrees>
            </Position>
            <AltitudeMeters>761</AltitudeMeters>
            <DistanceMeters>51591.945243858</DistanceMeters>
          </Trackpoint>
          <Trackpoint>
            <Time>2019-07-19T10:47:51.000Z</Time>
            <Position>
              <LatitudeDegrees>40.680690295994281768798828125</LatitudeDegrees>
              <LongitudeDegrees>-3.347375057637691497802734375</LongitudeDegrees>
            </Position>
            <AltitudeMeters>760.20001220703125</AltitudeMeters>
            <DistanceMeters>51647.880473512</DistanceMeters>
          </Trackpoint>
          <Trackpoint>
            <Time>2019-07-19T10:47:54.000Z</Time>
            <Position>
              <LatitudeDegrees>40.68050011061131954193115234375</LatitudeDegrees>
              <LongitudeDegrees>-3.34750237874686717987060546875</LongitudeDegrees>
            </Position>
            <AltitudeMeters>759.20001220703125</AltitudeMeters>
            <DistanceMeters>51671.620231323</DistanceMeters>
          </Trackpoint>
          <Trackpoint>
            <Time>2019-07-19T10:48:00.000Z</Time>
            <Position>
              <LatitudeDegrees>40.68009073846042156219482421875</LatitudeDegrees>
              <LongitudeDegrees>-3.3476531691849231719970703125</LongitudeDegrees>
            </Position>
            <AltitudeMeters>760.20001220703125</AltitudeMeters>
            <DistanceMeters>51718.928458159</DistanceMeters>
          </Trackpoint>
          <Trackpoint>
            <Time>2019-07-19T10:48:05.000Z</Time>
            <Position>
              <LatitudeDegrees>40.67973115481436252593994140625</LatitudeDegrees>
              <LongitudeDegrees>-3.3476665802299976348876953125</LongitudeDegrees>
            </Position>
            <AltitudeMeters>759.20001220703125</AltitudeMeters>
            <DistanceMeters>51758.966856613</DistanceMeters>
          </Trackpoint>
          <Trackpoint>
            <Time>2019-07-19T10:48:12.000Z</Time>
            <Position>
              <LatitudeDegrees>40.6792410649359226226806640625</LatitudeDegrees>
              <LongitudeDegrees>-3.34764738567173480987548828125</LongitudeDegrees>
            </Position>
            <AltitudeMeters>758.20001220703125</AltitudeMeters>
            <DistanceMeters>51813.538837987</DistanceMeters>
          </Trackpoint>
          <Trackpoint>
            <Time>2019-07-19T10:48:20.000Z</Time>
            <Position>
              <LatitudeDegrees>40.678675957024097442626953125</LatitudeDegrees>
              <LongitudeDegrees>-3.3476216532289981842041015625</LongitudeDegrees>
            </Position>
            <AltitudeMeters>758.5999755859375</AltitudeMeters>
            <DistanceMeters>51876.474005743</DistanceMeters>
          </Trackpoint>
          <Trackpoint>
            <Time>2019-07-19T10:48:28.000Z</Time>
            <Position>
              <LatitudeDegrees>40.678079165518283843994140625</LatitudeDegrees>
              <LongitudeDegrees>-3.34759600460529327392578125</LongitudeDegrees>
            </Position>
            <AltitudeMeters>757.79998779296875</AltitudeMeters>
            <DistanceMeters>51942.933355504</DistanceMeters>
          </Trackpoint>
          <Trackpoint>
            <Time>2019-07-19T10:48:33.000Z</Time>
            <Position>
              <LatitudeDegrees>40.677721090614795684814453125</LatitudeDegrees>
              <LongitudeDegrees>-3.34757882170379161834716796875</LongitudeDegrees>
            </Position>
            <AltitudeMeters>757</AltitudeMeters>
            <DistanceMeters>51982.814132756</DistanceMeters>
          </Trackpoint>
          <Trackpoint>
            <Time>2019-07-19T10:48:36.000Z</Time>
            <Position>
              <LatitudeDegrees>40.6775061786174774169921875</LatitudeDegrees>
              <LongitudeDegrees>-3.34757530130445957183837890625</LongitudeDegrees>
            </Position>
            <AltitudeMeters>756</AltitudeMeters>
            <DistanceMeters>52006.736341361</DistanceMeters>
          </Trackpoint>
          <Trackpoint>
            <Time>2019-07-19T10:48:42.000Z</Time>
            <Position>
              <LatitudeDegrees>40.677063278853893280029296875</LatitudeDegrees>
              <LongitudeDegrees>-3.34760849364101886749267578125</LongitudeDegrees>
            </Position>
            <AltitudeMeters>754.79998779296875</AltitudeMeters>
            <DistanceMeters>52056.111475974</DistanceMeters>
          </Trackpoint>
          <Trackpoint>
            <Time>2019-07-19T10:48:50.000Z</Time>
            <Position>
              <LatitudeDegrees>40.6764923036098480224609375</LatitudeDegrees>
              <LongitudeDegrees>-3.347682841122150421142578125</LongitudeDegrees>
            </Position>
            <AltitudeMeters>754.5999755859375</AltitudeMeters>
            <DistanceMeters>52119.971266319</DistanceMeters>
          </Trackpoint>
          <Trackpoint>
            <Time>2019-07-19T10:48:59.000Z</Time>
            <Position>
              <LatitudeDegrees>40.67589794285595417022705078125</LatitudeDegrees>
              <LongitudeDegrees>-3.34776070900261402130126953125</LongitudeDegrees>
            </Position>
            <AltitudeMeters>753.79998779296875</AltitudeMeters>
            <DistanceMeters>52186.450450678</DistanceMeters>
          </Trackpoint>
          <Trackpoint>
            <Time>2019-07-19T10:49:00.000Z</Time>
            <Position>
              <LatitudeDegrees>40.67583289928734302520751953125</LatitudeDegrees>
              <LongitudeDegrees>-3.347768671810626983642578125</LongitudeDegrees>
            </Position>
            <AltitudeMeters>753.79998779296875</AltitudeMeters>
            <DistanceMeters>52193.721081153</DistanceMeters>
          </Trackpoint>
          <Trackpoint>
            <Time>2019-07-19T10:49:07.000Z</Time>
            <Position>
              <LatitudeDegrees>40.6753736548125743865966796875</LatitudeDegrees>
              <LongitudeDegrees>-3.34781770594418048858642578125</LongitudeDegrees>
            </Position>
            <AltitudeMeters>755</AltitudeMeters>
            <DistanceMeters>52245.003205261</DistanceMeters>
          </Trackpoint>
          <Trackpoint>
            <Time>2019-07-19T10:49:15.000Z</Time>
            <Position>
              <LatitudeDegrees>40.67485548555850982666015625</LatitudeDegrees>
              <LongitudeDegrees>-3.34788593463599681854248046875</LongitudeDegrees>
            </Position>
            <AltitudeMeters>753.79998779296875</AltitudeMeters>
            <DistanceMeters>52302.963269432</DistanceMeters>
          </Trackpoint>
          <Trackpoint>
            <Time>2019-07-19T10:49:19.000Z</Time>
            <Position>
              <LatitudeDegrees>40.6746040284633636474609375</LatitudeDegrees>
              <LongitudeDegrees>-3.3479078114032745361328125</LongitudeDegrees>
            </Position>
            <AltitudeMeters>752.5999755859375</AltitudeMeters>
            <DistanceMeters>52331.011768856</DistanceMeters>
          </Trackpoint>
          <Trackpoint>
            <Time>2019-07-19T10:49:22.000Z</Time>
            <Position>
              <LatitudeDegrees>40.6743948161602020263671875</LatitudeDegrees>
              <LongitudeDegrees>-3.3479240722954273223876953125</LongitudeDegrees>
            </Position>
            <AltitudeMeters>752</AltitudeMeters>
            <DistanceMeters>52354.338069167</DistanceMeters>
          </Trackpoint>
          <Trackpoint>
            <Time>2019-07-19T10:49:29.000Z</Time>
            <Position>
              <LatitudeDegrees>40.67389190196990966796875</LatitudeDegrees>
              <LongitudeDegrees>-3.3480058796703815460205078125</LongitudeDegrees>
            </Position>
            <AltitudeMeters>754.20001220703125</AltitudeMeters>
            <DistanceMeters>52410.737765072</DistanceMeters>
          </Trackpoint>
          <Trackpoint>
            <Time>2019-07-19T10:49:31.000Z</Time>
            <Position>
              <LatitudeDegrees>40.673746727406978607177734375</LatitudeDegrees>
              <LongitudeDegrees>-3.34802172146737575531005859375</LongitudeDegrees>
            </Position>
            <AltitudeMeters>755.5999755859375</AltitudeMeters>
            <DistanceMeters>52426.9514502</DistanceMeters>
          </Trackpoint>
          <Trackpoint>
            <Time>2019-07-19T10:49:35.000Z</Time>
            <Position>
              <LatitudeDegrees>40.67346635274589061737060546875</LatitudeDegrees>
              <LongitudeDegrees>-3.34805600345134735107421875</LongitudeDegrees>
            </Position>
            <AltitudeMeters>754.4000244140625</AltitudeMeters>
            <DistanceMeters>52458.291542969</DistanceMeters>
          </Trackpoint>
          <Trackpoint>
            <Time>2019-07-19T10:49:36.000Z</Time>
            <Position>
              <LatitudeDegrees>40.6733975373208522796630859375</LatitudeDegrees>
              <LongitudeDegrees>-3.34806379862129688262939453125</LongitudeDegrees>
            </Position>
            <AltitudeMeters>753.4000244140625</AltitudeMeters>
            <DistanceMeters>52465.978728426</DistanceMeters>
          </Trackpoint>
          <Trackpoint>
            <Time>2019-07-19T10:49:39.000Z</Time>
            <Position>
              <LatitudeDegrees>40.67318337969481945037841796875</LatitudeDegrees>
              <LongitudeDegrees>-3.348109312355518341064453125</LongitudeDegrees>
            </Position>
            <AltitudeMeters>752.20001220703125</AltitudeMeters>
            <DistanceMeters>52490.122621128</DistanceMeters>
          </Trackpoint>
          <Trackpoint>
            <Time>2019-07-19T10:49:42.000Z</Time>
            <Position>
              <LatitudeDegrees>40.67297819070518016815185546875</LatitudeDegrees>
              <LongitudeDegrees>-3.348221965134143829345703125</LongitudeDegrees>
            </Position>
            <AltitudeMeters>752</AltitudeMeters>
            <DistanceMeters>52514.861343829</DistanceMeters>
          </Trackpoint>
          <Trackpoint>
            <Time>2019-07-19T10:49:50.000Z</Time>
            <Position>
              <LatitudeDegrees>40.67254744470119476318359375</LatitudeDegrees>
              <LongitudeDegrees>-3.34872647188603878021240234375</LongitudeDegrees>
            </Position>
            <AltitudeMeters>752.4000244140625</AltitudeMeters>
            <DistanceMeters>52578.988606695</DistanceMeters>
          </Trackpoint>
          <Trackpoint>
            <Time>2019-07-19T10:49:58.000Z</Time>
            <Position>
              <LatitudeDegrees>40.67213363014161586761474609375</LatitudeDegrees>
              <LongitudeDegrees>-3.34925034083425998687744140625</LongitudeDegrees>
            </Position>
            <AltitudeMeters>752.20001220703125</AltitudeMeters>
            <DistanceMeters>52642.840619306</DistanceMeters>
          </Trackpoint>
          <Trackpoint>
            <Time>2019-07-19T10:50:06.000Z</Time>
            <Position>
              <LatitudeDegrees>40.6717167980968952178955078125</LatitudeDegrees>
              <LongitudeDegrees>-3.3497580327093601226806640625</LongitudeDegrees>
            </Position>
            <AltitudeMeters>752</AltitudeMeters>
            <DistanceMeters>52706.001009828</DistanceMeters>
          </Trackpoint>
          <Trackpoint>
            <Time>2019-07-19T10:50:14.000Z</Time>
            <Position>
              <LatitudeDegrees>40.6713013909757137298583984375</LatitudeDegrees>
              <LongitudeDegrees>-3.35026941262185573577880859375</LongitudeDegrees>
            </Position>
            <AltitudeMeters>753.20001220703125</AltitudeMeters>
            <DistanceMeters>52769.25726085</DistanceMeters>
          </Trackpoint>
          <Trackpoint>
            <Time>2019-07-19T10:50:15.000Z</Time>
            <Position>
              <LatitudeDegrees>40.67125118337571620941162109375</LatitudeDegrees>
              <LongitudeDegrees>-3.350331522524356842041015625</LongitudeDegrees>
            </Position>
            <AltitudeMeters>753.4000244140625</AltitudeMeters>
            <DistanceMeters>52776.919738063</DistanceMeters>
          </Trackpoint>
          <Trackpoint>
            <Time>2019-07-19T10:50:24.000Z</Time>
            <Position>
              <LatitudeDegrees>40.67081247456371784210205078125</LatitudeDegrees>
              <LongitudeDegrees>-3.35081775672733783721923828125</LongitudeDegrees>
            </Position>
            <AltitudeMeters>753.5999755859375</AltitudeMeters>
            <DistanceMeters>52840.709707004</DistanceMeters>
          </Trackpoint>
          <Trackpoint>
            <Time>2019-07-19T10:50:29.000Z</Time>
            <Position>
              <LatitudeDegrees>40.6705431640148162841796875</LatitudeDegrees>
              <LongitudeDegrees>-3.35104591213166713714599609375</LongitudeDegrees>
            </Position>
            <AltitudeMeters>754.5999755859375</AltitudeMeters>
            <DistanceMeters>52876.339276278</DistanceMeters>
          </Trackpoint>
          <Trackpoint>
            <Time>2019-07-19T10:50:37.000Z</Time>
            <Position>
              <LatitudeDegrees>40.67008006386458873748779296875</LatitudeDegrees>
              <LongitudeDegrees>-3.3514340780675411224365234375</LongitudeDegrees>
            </Position>
            <AltitudeMeters>753.5999755859375</AltitudeMeters>
            <DistanceMeters>52937.41772928</DistanceMeters>
          </Trackpoint>
          <Trackpoint>
            <Time>2019-07-19T10:50:45.000Z</Time>
            <Position>
              <LatitudeDegrees>40.6696136109530925750732421875</LatitudeDegrees>
              <LongitudeDegrees>-3.3518219925463199615478515625</LongitudeDegrees>
            </Position>
            <AltitudeMeters>753.4000244140625</AltitudeMeters>
            <DistanceMeters>52998.800279377</DistanceMeters>
          </Trackpoint>
          <Trackpoint>
            <Time>2019-07-19T10:50:49.000Z</Time>
            <Position>
              <LatitudeDegrees>40.669396854937076568603515625</LatitudeDegrees>
              <LongitudeDegrees>-3.3520070649683475494384765625</LongitudeDegrees>
            </Position>
            <AltitudeMeters>752.5999755859375</AltitudeMeters>
            <DistanceMeters>53027.542836738</DistanceMeters>
          </Trackpoint>
          <Trackpoint>
            <Time>2019-07-19T10:50:59.000Z</Time>
            <Position>
              <LatitudeDegrees>40.668900310993194580078125</LatitudeDegrees>
              <LongitudeDegrees>-3.35241601802408695220947265625</LongitudeDegrees>
            </Position>
            <AltitudeMeters>751.79998779296875</AltitudeMeters>
            <DistanceMeters>53092.706501054</DistanceMeters>
          </Trackpoint>
          <Trackpoint>
            <Time>2019-07-19T10:51:04.000Z</Time>
            <Position>
              <LatitudeDegrees>40.668669641017913818359375</LatitudeDegrees>
              <LongitudeDegrees>-3.3525991626083850860595703125</LongitudeDegrees>
            </Position>
            <AltitudeMeters>752</AltitudeMeters>
            <DistanceMeters>53122.676697479</DistanceMeters>
          </Trackpoint>
          <Trackpoint>
            <Time>2019-07-19T10:51:12.000Z</Time>
            <Position>
              <LatitudeDegrees>40.66847090609371662139892578125</LatitudeDegrees>
              <LongitudeDegrees>-3.352790772914886474609375</LongitudeDegrees>
            </Position>
            <AltitudeMeters>752.79998779296875</AltitudeMeters>
            <DistanceMeters>53150.080003066</DistanceMeters>
          </Trackpoint>
          <Trackpoint>
            <Time>2019-07-19T10:51:45.000Z</Time>
            <Position>
              <LatitudeDegrees>40.66844542510807514190673828125</LatitudeDegrees>
              <LongitudeDegrees>-3.35279588587582111358642578125</LongitudeDegrees>
            </Position>
            <AltitudeMeters>753.4000244140625</AltitudeMeters>
            <DistanceMeters>53152.949746908</DistanceMeters>
          </Trackpoint>
          <Trackpoint>
            <Time>2019-07-19T10:51:48.000Z</Time>
            <Position>
              <LatitudeDegrees>40.6683657132089138031005859375</LatitudeDegrees>
              <LongitudeDegrees>-3.35273084230720996856689453125</LongitudeDegrees>
            </Position>
            <AltitudeMeters>753</AltitudeMeters>
            <DistanceMeters>53163.383230101</DistanceMeters>
          </Trackpoint>
          <Trackpoint>
            <Time>2019-07-19T10:51:53.000Z</Time>
            <Position>
              <LatitudeDegrees>40.6682114861905574798583984375</LatitudeDegrees>
              <LongitudeDegrees>-3.35242758505046367645263671875</LongitudeDegrees>
            </Position>
            <AltitudeMeters>751.4000244140625</AltitudeMeters>
            <DistanceMeters>53194.206914064</DistanceMeters>
          </Trackpoint>
          <Trackpoint>
            <Time>2019-07-19T10:51:56.000Z</Time>
            <Position>
              <LatitudeDegrees>40.66810377873480319976806640625</LatitudeDegrees>
              <LongitudeDegrees>-3.352200351655483245849609375</LongitudeDegrees>
            </Position>
            <AltitudeMeters>750</AltitudeMeters>
            <DistanceMeters>53216.828062839</DistanceMeters>
          </Trackpoint>
          <Trackpoint>
            <Time>2019-07-19T10:51:59.000Z</Time>
            <Position>
              <LatitudeDegrees>40.66799866966903209686279296875</LatitudeDegrees>
              <LongitudeDegrees>-3.35196129977703094482421875</LongitudeDegrees>
            </Position>
            <AltitudeMeters>749</AltitudeMeters>
            <DistanceMeters>53240.155137377</DistanceMeters>
          </Trackpoint>
          <Trackpoint>
            <Time>2019-07-19T10:52:06.000Z</Time>
            <Position>
              <LatitudeDegrees>40.66777713596820831298828125</LatitudeDegrees>
              <LongitudeDegrees>-3.35141521878540515899658203125</LongitudeDegrees>
            </Position>
            <AltitudeMeters>748</AltitudeMeters>
            <DistanceMeters>53292.436414131</DistanceMeters>
          </Trackpoint>
          <Trackpoint>
            <Time>2019-07-19T10:52:14.000Z</Time>
            <Position>
              <LatitudeDegrees>40.66754780709743499755859375</LatitudeDegrees>
              <LongitudeDegrees>-3.3507724106311798095703125</LongitudeDegrees>
            </Position>
            <AltitudeMeters>748</AltitudeMeters>
            <DistanceMeters>53352.407230751</DistanceMeters>
          </Trackpoint>
          <Trackpoint>
            <Time>2019-07-19T10:52:23.000Z</Time>
            <Position>
              <LatitudeDegrees>40.66735276021063327789306640625</LatitudeDegrees>
              <LongitudeDegrees>-3.35003974847495555877685546875</LongitudeDegrees>
            </Position>
            <AltitudeMeters>748.79998779296875</AltitudeMeters>
            <DistanceMeters>53417.959961721</DistanceMeters>
          </Trackpoint>
          <Trackpoint>
            <Time>2019-07-19T10:52:24.000Z</Time>
            <Position>
              <LatitudeDegrees>40.6673347391188144683837890625</LatitudeDegrees>
              <LongitudeDegrees>-3.34995693527162075042724609375</LongitudeDegrees>
            </Position>
            <AltitudeMeters>749</AltitudeMeters>
            <DistanceMeters>53425.233075759</DistanceMeters>
          </Trackpoint>
          <Trackpoint>
            <Time>2019-07-19T10:52:30.000Z</Time>
            <Position>
              <LatitudeDegrees>40.6672361679375171661376953125</LatitudeDegrees>
              <LongitudeDegrees>-3.349433653056621551513671875</LongitudeDegrees>
            </Position>
            <AltitudeMeters>750</AltitudeMeters>
            <DistanceMeters>53470.752161431</DistanceMeters>
          </Trackpoint>
          <Trackpoint>
            <Time>2019-07-19T10:52:36.000Z</Time>
            <Position>
              <LatitudeDegrees>40.66717623732984066009521484375</LatitudeDegrees>
              <LongitudeDegrees>-3.34889612160623073577880859375</LongitudeDegrees>
            </Position>
            <AltitudeMeters>750.5999755859375</AltitudeMeters>
            <DistanceMeters>53516.6200514</DistanceMeters>
          </Trackpoint>
          <Trackpoint>
            <Time>2019-07-19T10:52:41.000Z</Time>
            <Position>
              <LatitudeDegrees>40.6671714596450328826904296875</LatitudeDegrees>
              <LongitudeDegrees>-3.34844953380525112152099609375</LongitudeDegrees>
            </Position>
            <AltitudeMeters>751.20001220703125</AltitudeMeters>
            <DistanceMeters>53554.32638344</DistanceMeters>
          </Trackpoint>
          <Trackpoint>
            <Time>2019-07-19T10:52:49.000Z</Time>
            <Position>
              <LatitudeDegrees>40.66722418181598186492919921875</LatitudeDegrees>
              <LongitudeDegrees>-3.34772751666605472564697265625</LongitudeDegrees>
            </Position>
            <AltitudeMeters>752.20001220703125</AltitudeMeters>
            <DistanceMeters>53615.563267466</DistanceMeters>
          </Trackpoint>
          <Trackpoint>
            <Time>2019-07-19T10:52:50.000Z</Time>
            <Position>
              <LatitudeDegrees>40.66723708994686603546142578125</LatitudeDegrees>
              <LongitudeDegrees>-3.34764302708208560943603515625</LongitudeDegrees>
            </Position>
            <AltitudeMeters>752.4000244140625</AltitudeMeters>
            <DistanceMeters>53622.83886422</DistanceMeters>
          </Trackpoint>
          <Trackpoint>
            <Time>2019-07-19T10:52:59.000Z</Time>
            <Position>
              <LatitudeDegrees>40.66735862754285335540771484375</LatitudeDegrees>
              <LongitudeDegrees>-3.346979431807994842529296875</LongitudeDegrees>
            </Position>
            <AltitudeMeters>753.4000244140625</AltitudeMeters>
            <DistanceMeters>53680.471920175</DistanceMeters>
          </Trackpoint>
          <Trackpoint>
            <Time>2019-07-19T10:53:04.000Z</Time>
            <Position>
              <LatitudeDegrees>40.66742333583533763885498046875</LatitudeDegrees>
              <LongitudeDegrees>-3.34666083566844463348388671875</LongitudeDegrees>
            </Position>
            <AltitudeMeters>754.4000244140625</AltitudeMeters>
            <DistanceMeters>53708.316531206</DistanceMeters>
          </Trackpoint>
          <Trackpoint>
            <Time>2019-07-19T10:53:09.000Z</Time>
            <Position>
              <LatitudeDegrees>40.6674782373011112213134765625</LatitudeDegrees>
              <LongitudeDegrees>-3.34635707549750804901123046875</LongitudeDegrees>
            </Position>
            <AltitudeMeters>755.4000244140625</AltitudeMeters>
            <DistanceMeters>53734.6788669</DistanceMeters>
          </Trackpoint>
          <Trackpoint>
            <Time>2019-07-19T10:53:15.000Z</Time>
            <Position>
              <LatitudeDegrees>40.66752324812114238739013671875</LatitudeDegrees>
              <LongitudeDegrees>-3.3460150100290775299072265625</LongitudeDegrees>
            </Position>
            <AltitudeMeters>756.5999755859375</AltitudeMeters>
            <DistanceMeters>53763.98840856</DistanceMeters>
          </Trackpoint>
          <Trackpoint>
            <Time>2019-07-19T10:53:18.000Z</Time>
            <Position>
              <LatitudeDegrees>40.66753582097589969635009765625</LatitudeDegrees>
              <LongitudeDegrees>-3.34584678523242473602294921875</LongitudeDegrees>
            </Position>
            <AltitudeMeters>757.79998779296875</AltitudeMeters>
            <DistanceMeters>53778.259193893</DistanceMeters>
          </Trackpoint>
          <Trackpoint>
            <Time>2019-07-19T10:53:23.000Z</Time>
            <Position>
              <LatitudeDegrees>40.66753841936588287353515625</LatitudeDegrees>
              <LongitudeDegrees>-3.345571272075176239013671875</LongitudeDegrees>
            </Position>
            <AltitudeMeters>758.79998779296875</AltitudeMeters>
            <DistanceMeters>53801.520367134</DistanceMeters>
          </Trackpoint>
          <Trackpoint>
            <Time>2019-07-19T10:53:30.000Z</Time>
            <Position>
              <LatitudeDegrees>40.667515285313129425048828125</LatitudeDegrees>
              <LongitudeDegrees>-3.34519970230758190155029296875</LongitudeDegrees>
            </Position>
            <AltitudeMeters>760</AltitudeMeters>
            <DistanceMeters>53832.994873266</DistanceMeters>
          </Trackpoint>
          <Trackpoint>
            <Time>2019-07-19T10:53:36.000Z</Time>
            <Position>
              <LatitudeDegrees>40.6674554385244846343994140625</LatitudeDegrees>
              <LongitudeDegrees>-3.3448661863803863525390625</LongitudeDegrees>
            </Position>
            <AltitudeMeters>761</AltitudeMeters>
            <DistanceMeters>53861.928596272</DistanceMeters>
          </Trackpoint>
          <Trackpoint>
            <Time>2019-07-19T10:53:43.000Z</Time>
            <Position>
              <LatitudeDegrees>40.667340271174907684326171875</LatitudeDegrees>
              <LongitudeDegrees>-3.344493694603443145751953125</LongitudeDegrees>
            </Position>
            <AltitudeMeters>761.20001220703125</AltitudeMeters>
            <DistanceMeters>53895.887586282</DistanceMeters>
          </Trackpoint>
          <Trackpoint>
            <Time>2019-07-19T10:53:46.000Z</Time>
            <Position>
              <LatitudeDegrees>40.66727296449244022369384765625</LatitudeDegrees>
              <LongitudeDegrees>-3.34433988668024539947509765625</LongitudeDegrees>
            </Position>
            <AltitudeMeters>762.20001220703125</AltitudeMeters>
            <DistanceMeters>53910.878634026</DistanceMeters>
          </Trackpoint>
          <Trackpoint>
            <Time>2019-07-19T10:53:54.000Z</Time>
            <Position>
              <LatitudeDegrees>40.66705117933452129364013671875</LatitudeDegrees>
              <LongitudeDegrees>-3.343963287770748138427734375</LongitudeDegrees>
            </Position>
            <AltitudeMeters>763.4000244140625</AltitudeMeters>
            <DistanceMeters>53951.1302722</DistanceMeters>
          </Trackpoint>
          <Trackpoint>
            <Time>2019-07-19T10:53:56.000Z</Time>
            <Position>
              <LatitudeDegrees>40.666988901793956756591796875</LatitudeDegrees>
              <LongitudeDegrees>-3.343875445425510406494140625</LongitudeDegrees>
            </Position>
            <AltitudeMeters>763.5999755859375</AltitudeMeters>
            <DistanceMeters>53961.28168749</DistanceMeters>
          </Trackpoint>
          <Trackpoint>
            <Time>2019-07-19T10:54:04.000Z</Time>
            <Position>
              <LatitudeDegrees>40.666704587638378143310546875</LatitudeDegrees>
              <LongitudeDegrees>-3.3435601182281970977783203125</LongitudeDegrees>
            </Position>
            <AltitudeMeters>764.4000244140625</AltitudeMeters>
            <DistanceMeters>54002.634579729</DistanceMeters>
          </Trackpoint>
          <Trackpoint>
            <Time>2019-07-19T10:54:16.000Z</Time>
            <Position>
              <LatitudeDegrees>40.666235871613025665283203125</LatitudeDegrees>
              <LongitudeDegrees>-3.34309098310768604278564453125</LongitudeDegrees>
            </Position>
            <AltitudeMeters>764.20001220703125</AltitudeMeters>
            <DistanceMeters>54068.13480583</DistanceMeters>
          </Trackpoint>
          <Trackpoint>
            <Time>2019-07-19T10:54:27.000Z</Time>
            <Position>
              <LatitudeDegrees>40.66576891578733921051025390625</LatitudeDegrees>
              <LongitudeDegrees>-3.3426226861774921417236328125</LongitudeDegrees>
            </Position>
            <AltitudeMeters>764.4000244140625</AltitudeMeters>
            <DistanceMeters>54133.436345316</DistanceMeters>
          </Trackpoint>
          <Trackpoint>
            <Time>2019-07-19T10:54:38.000Z</Time>
            <Position>
              <LatitudeDegrees>40.66529835574328899383544921875</LatitudeDegrees>
              <LongitudeDegrees>-3.34215187467634677886962890625</LongitudeDegrees>
            </Position>
            <AltitudeMeters>764.5999755859375</AltitudeMeters>
            <DistanceMeters>54199.185905135</DistanceMeters>
          </Trackpoint>
          <Trackpoint>
            <Time>2019-07-19T10:54:48.000Z</Time>
            <Position>
              <LatitudeDegrees>40.6648493371903896331787109375</LatitudeDegrees>
              <LongitudeDegrees>-3.3417157642543315887451171875</LongitudeDegrees>
            </Position>
            <AltitudeMeters>764.79998779296875</AltitudeMeters>
            <DistanceMeters>54261.260974368</DistanceMeters>
          </Trackpoint>
          <Trackpoint>
            <Time>2019-07-19T10:54:58.000Z</Time>
            <Position>
              <LatitudeDegrees>40.66439864225685596466064453125</LatitudeDegrees>
              <LongitudeDegrees>-3.34127529524266719818115234375</LongitudeDegrees>
            </Position>
            <AltitudeMeters>765.20001220703125</AltitudeMeters>
            <DistanceMeters>54323.704951011</DistanceMeters>
          </Trackpoint>
          <Trackpoint>
            <Time>2019-07-19T10:55:05.000Z</Time>
            <Position>
              <LatitudeDegrees>40.66406537778675556182861328125</LatitudeDegrees>
              <LongitudeDegrees>-3.34094035439193248748779296875</LongitudeDegrees>
            </Position>
            <AltitudeMeters>765.4000244140625</AltitudeMeters>
            <DistanceMeters>54370.34767903</DistanceMeters>
          </Trackpoint>
          <Trackpoint>
            <Time>2019-07-19T10:55:14.000Z</Time>
            <Position>
              <LatitudeDegrees>40.6635910458862781524658203125</LatitudeDegrees>
              <LongitudeDegrees>-3.3405654318630695343017578125</LongitudeDegrees>
            </Position>
            <AltitudeMeters>765.5999755859375</AltitudeMeters>
            <DistanceMeters>54431.904015968</DistanceMeters>
          </Trackpoint>
          <Trackpoint>
            <Time>2019-07-19T10:55:23.000Z</Time>
            <Position>
              <LatitudeDegrees>40.66305200569331645965576171875</LatitudeDegrees>
              <LongitudeDegrees>-3.3404568023979663848876953125</LongitudeDegrees>
            </Position>
            <AltitudeMeters>765.20001220703125</AltitudeMeters>
            <DistanceMeters>54492.597155152</DistanceMeters>
          </Trackpoint>
          <Trackpoint>
            <Time>2019-07-19T10:55:31.000Z</Time>
            <Position>
              <LatitudeDegrees>40.662567280232906341552734375</LatitudeDegrees>
              <LongitudeDegrees>-3.3404038287699222564697265625</LongitudeDegrees>
            </Position>
            <AltitudeMeters>764.4000244140625</AltitudeMeters>
            <DistanceMeters>54546.73303281</DistanceMeters>
          </Trackpoint>
          <Trackpoint>
            <Time>2019-07-19T10:55:40.000Z</Time>
            <Position>
              <LatitudeDegrees>40.66201566718518733978271484375</LatitudeDegrees>
              <LongitudeDegrees>-3.34033786319196224212646484375</LongitudeDegrees>
            </Position>
            <AltitudeMeters>765.20001220703125</AltitudeMeters>
            <DistanceMeters>54608.380766934</DistanceMeters>
          </Trackpoint>
          <Trackpoint>
            <Time>2019-07-19T10:55:49.000Z</Time>
            <Position>
              <LatitudeDegrees>40.6614590249955654144287109375</LatitudeDegrees>
              <LongitudeDegrees>-3.340269885957241058349609375</LongitudeDegrees>
            </Position>
            <AltitudeMeters>765.4000244140625</AltitudeMeters>
            <DistanceMeters>54670.601426633</DistanceMeters>
          </Trackpoint>
          <Trackpoint>
            <Time>2019-07-19T10:55:50.000Z</Time>
            <Position>
              <LatitudeDegrees>40.66139959730207920074462890625</LatitudeDegrees>
              <LongitudeDegrees>-3.3402636833488941192626953125</LongitudeDegrees>
            </Position>
            <AltitudeMeters>765.5999755859375</AltitudeMeters>
            <DistanceMeters>54677.236305883</DistanceMeters>
          </Trackpoint>
          <Trackpoint>
            <Time>2019-07-19T10:55:59.000Z</Time>
            <Position>
              <LatitudeDegrees>40.66083826124668121337890625</LatitudeDegrees>
              <LongitudeDegrees>-3.34020123817026615142822265625</LongitudeDegrees>
            </Position>
            <AltitudeMeters>766</AltitudeMeters>
            <DistanceMeters>54739.936225342</DistanceMeters>
          </Trackpoint>
          <Trackpoint>
            <Time>2019-07-19T10:56:08.000Z</Time>
            <Position>
              <LatitudeDegrees>40.66026586107909679412841796875</LatitudeDegrees>
              <LongitudeDegrees>-3.340123035013675689697265625</LongitudeDegrees>
            </Position>
            <AltitudeMeters>765.5999755859375</AltitudeMeters>
            <DistanceMeters>54803.986768583</DistanceMeters>
          </Trackpoint>
          <Trackpoint>
            <Time>2019-07-19T10:56:17.000Z</Time>
            <Position>
              <LatitudeDegrees>40.65969756804406642913818359375</LatitudeDegrees>
              <LongitudeDegrees>-3.3400447480380535125732421875</LongitudeDegrees>
            </Position>
            <AltitudeMeters>765.79998779296875</AltitudeMeters>
            <DistanceMeters>54867.583357241</DistanceMeters>
          </Trackpoint>
          <Trackpoint>
            <Time>2019-07-19T10:56:26.000Z</Time>
            <Position>
              <LatitudeDegrees>40.65915073268115520477294921875</LatitudeDegrees>
              <LongitudeDegrees>-3.339982889592647552490234375</LongitudeDegrees>
            </Position>
            <AltitudeMeters>765.4000244140625</AltitudeMeters>
            <DistanceMeters>54928.670901966</DistanceMeters>
          </Trackpoint>
          <Trackpoint>
            <Time>2019-07-19T10:56:35.000Z</Time>
            <Position>
              <LatitudeDegrees>40.6585917435586452484130859375</LatitudeDegrees>
              <LongitudeDegrees>-3.339911811053752899169921875</LongitudeDegrees>
            </Position>
            <AltitudeMeters>765.79998779296875</AltitudeMeters>
            <DistanceMeters>54991.176308005</DistanceMeters>
          </Trackpoint>
          <Trackpoint>
            <Time>2019-07-19T10:56:44.000Z</Time>
            <Position>
              <LatitudeDegrees>40.6580231152474880218505859375</LatitudeDegrees>
              <LongitudeDegrees>-3.33983712829649448394775390625</LongitudeDegrees>
            </Position>
            <AltitudeMeters>765.5999755859375</AltitudeMeters>
            <DistanceMeters>55054.779214901</DistanceMeters>
          </Trackpoint>
          <Trackpoint>
            <Time>2019-07-19T10:56:53.000Z</Time>
            <Position>
              <LatitudeDegrees>40.6574440933763980865478515625</LatitudeDegrees>
              <LongitudeDegrees>-3.33975884132087230682373046875</LongitudeDegrees>
            </Position>
            <AltitudeMeters>765</AltitudeMeters>
            <DistanceMeters>55119.563603374</DistanceMeters>
          </Trackpoint>
          <Trackpoint>
            <Time>2019-07-19T10:56:59.000Z</Time>
            <Position>
              <LatitudeDegrees>40.6570608727633953094482421875</LatitudeDegrees>
              <LongitudeDegrees>-3.3397121541202068328857421875</LongitudeDegrees>
            </Position>
            <AltitudeMeters>764.5999755859375</AltitudeMeters>
            <DistanceMeters>55162.398627511</DistanceMeters>
          </Trackpoint>
          <Trackpoint>
            <Time>2019-07-19T10:57:08.000Z</Time>
            <Position>
              <LatitudeDegrees>40.65647003240883350372314453125</LatitudeDegrees>
              <LongitudeDegrees>-3.33963126875460147857666015625</LongitudeDegrees>
            </Position>
            <AltitudeMeters>763.79998779296875</AltitudeMeters>
            <DistanceMeters>55228.514006091</DistanceMeters>
          </Trackpoint>
          <Trackpoint>
            <Time>2019-07-19T10:57:10.000Z</Time>
            <Position>
              <LatitudeDegrees>40.65633340738713741302490234375</LatitudeDegrees>
              <LongitudeDegrees>-3.33961467258632183074951171875</LongitudeDegrees>
            </Position>
            <AltitudeMeters>763.4000244140625</AltitudeMeters>
            <DistanceMeters>55243.785245537</DistanceMeters>
          </Trackpoint>
          <Trackpoint>
            <Time>2019-07-19T10:57:18.000Z</Time>
            <Position>
              <LatitudeDegrees>40.65576997585594654083251953125</LatitudeDegrees>
              <LongitudeDegrees>-3.33954191766679286956787109375</LongitudeDegrees>
            </Position>
            <AltitudeMeters>762.5999755859375</AltitudeMeters>
            <DistanceMeters>55306.796412972</DistanceMeters>
          </Trackpoint>
          <Trackpoint>
            <Time>2019-07-19T10:57:20.000Z</Time>
            <Position>
              <LatitudeDegrees>40.6556272320449352264404296875</LatitudeDegrees>
              <LongitudeDegrees>-3.3395243994891643524169921875</LongitudeDegrees>
            </Position>
            <AltitudeMeters>762.20001220703125</AltitudeMeters>
            <DistanceMeters>55322.752697168</DistanceMeters>
          </Trackpoint>
          <Trackpoint>
            <Time>2019-07-19T10:57:25.000Z</Time>
            <Position>
              <LatitudeDegrees>40.65526865422725677490234375</LatitudeDegrees>
              <LongitudeDegrees>-3.33947964012622833251953125</LongitudeDegrees>
            </Position>
            <AltitudeMeters>760.79998779296875</AltitudeMeters>
            <DistanceMeters>55362.84158372</DistanceMeters>
          </Trackpoint>
          <Trackpoint>
            <Time>2019-07-19T10:57:33.000Z</Time>
            <Position>
              <LatitudeDegrees>40.65470698289573192596435546875</LatitudeDegrees>
              <LongitudeDegrees>-3.3394077233970165252685546875</LongitudeDegrees>
            </Position>
            <AltitudeMeters>760.79998779296875</AltitudeMeters>
            <DistanceMeters>55425.65086342</DistanceMeters>
          </Trackpoint>
          <Trackpoint>
            <Time>2019-07-19T10:57:41.000Z</Time>
            <Position>
              <LatitudeDegrees>40.65413282252848148345947265625</LatitudeDegrees>
              <LongitudeDegrees>-3.33932809531688690185546875</LongitudeDegrees>
            </Position>
            <AltitudeMeters>761.4000244140625</AltitudeMeters>
            <DistanceMeters>55489.908739939</DistanceMeters>
          </Trackpoint>
          <Trackpoint>
            <Time>2019-07-19T10:57:49.000Z</Time>
            <Position>
              <LatitudeDegrees>40.6535649485886096954345703125</LatitudeDegrees>
              <LongitudeDegrees>-3.3392528258264064788818359375</LongitudeDegrees>
            </Position>
            <AltitudeMeters>760.5999755859375</AltitudeMeters>
            <DistanceMeters>55553.432943523</DistanceMeters>
          </Trackpoint>
          <Trackpoint>
            <Time>2019-07-19T10:57:57.000Z</Time>
            <Position>
              <LatitudeDegrees>40.65298609435558319091796875</LatitudeDegrees>
              <LongitudeDegrees>-3.33917847834527492523193359375</LongitudeDegrees>
            </Position>
            <AltitudeMeters>759.5999755859375</AltitudeMeters>
            <DistanceMeters>55618.165738405</DistanceMeters>
          </Trackpoint>
          <Trackpoint>
            <Time>2019-07-19T10:58:05.000Z</Time>
            <Position>
              <LatitudeDegrees>40.6524189747869968414306640625</LatitudeDegrees>
              <LongitudeDegrees>-3.33910270594060420989990234375</LongitudeDegrees>
            </Position>
            <AltitudeMeters>759.4000244140625</AltitudeMeters>
            <DistanceMeters>55681.610785224</DistanceMeters>
          </Trackpoint>
          <Trackpoint>
            <Time>2019-07-19T10:58:13.000Z</Time>
            <Position>
              <LatitudeDegrees>40.65184758044779300689697265625</LatitudeDegrees>
              <LongitudeDegrees>-3.3390345610678195953369140625</LongitudeDegrees>
            </Position>
            <AltitudeMeters>759.5999755859375</AltitudeMeters>
            <DistanceMeters>55745.467888823</DistanceMeters>
          </Trackpoint>
          <Trackpoint>
            <Time>2019-07-19T10:58:21.000Z</Time>
            <Position>
              <LatitudeDegrees>40.65127543173730373382568359375</LatitudeDegrees>
              <LongitudeDegrees>-3.33896205760538578033447265625</LongitudeDegrees>
            </Position>
            <AltitudeMeters>759.4000244140625</AltitudeMeters>
            <DistanceMeters>55809.442820221</DistanceMeters>
          </Trackpoint>
          <Trackpoint>
            <Time>2019-07-19T10:58:23.000Z</Time>
            <Position>
              <LatitudeDegrees>40.65113025717437267303466796875</LatitudeDegrees>
              <LongitudeDegrees>-3.33894277922809123992919921875</LongitudeDegrees>
            </Position>
            <AltitudeMeters>758.5999755859375</AltitudeMeters>
            <DistanceMeters>55825.682938531</DistanceMeters>
          </Trackpoint>
          <Trackpoint>
            <Time>2019-07-19T10:58:31.000Z</Time>
            <Position>
              <LatitudeDegrees>40.65056347288191318511962890625</LatitudeDegrees>
              <LongitudeDegrees>-3.3388615585863590240478515625</LongitudeDegrees>
            </Position>
            <AltitudeMeters>758.79998779296875</AltitudeMeters>
            <DistanceMeters>55889.138943745</DistanceMeters>
          </Trackpoint>
          <Trackpoint>
            <Time>2019-07-19T10:58:38.000Z</Time>
            <Position>
              <LatitudeDegrees>40.6500470638275146484375</LatitudeDegrees>
              <LongitudeDegrees>-3.338794670999050140380859375</LongitudeDegrees>
            </Position>
            <AltitudeMeters>757.4000244140625</AltitudeMeters>
            <DistanceMeters>55946.893144432</DistanceMeters>
          </Trackpoint>
          <Trackpoint>
            <Time>2019-07-19T10:58:46.000Z</Time>
            <Position>
              <LatitudeDegrees>40.6494933553040027618408203125</LatitudeDegrees>
              <LongitudeDegrees>-3.3387153781950473785400390625</LongitudeDegrees>
            </Position>
            <AltitudeMeters>758.4000244140625</AltitudeMeters>
            <DistanceMeters>56008.8846575</DistanceMeters>
          </Trackpoint>
          <Trackpoint>
            <Time>2019-07-19T10:58:55.000Z</Time>
            <Position>
              <LatitudeDegrees>40.6488979049026966094970703125</LatitudeDegrees>
              <LongitudeDegrees>-3.338715545833110809326171875</LongitudeDegrees>
            </Position>
            <AltitudeMeters>757.5999755859375</AltitudeMeters>
            <DistanceMeters>56075.159438325</DistanceMeters>
          </Trackpoint>
          <Trackpoint>
            <Time>2019-07-19T10:58:56.000Z</Time>
            <Position>
              <LatitudeDegrees>40.648833028972148895263671875</LatitudeDegrees>
              <LongitudeDegrees>-3.33874563686549663543701171875</LongitudeDegrees>
            </Position>
            <AltitudeMeters>756.79998779296875</AltitudeMeters>
            <DistanceMeters>56082.814841392</DistanceMeters>
          </Trackpoint>
          <Trackpoint>
            <Time>2019-07-19T10:58:57.000Z</Time>
            <Position>
              <LatitudeDegrees>40.64877108670771121978759765625</LatitudeDegrees>
              <LongitudeDegrees>-3.33878637291491031646728515625</LongitudeDegrees>
            </Position>
            <AltitudeMeters>756.20001220703125</AltitudeMeters>
            <DistanceMeters>56090.520213065</DistanceMeters>
          </Trackpoint>
          <Trackpoint>
            <Time>2019-07-19T10:58:59.000Z</Time>
            <Position>
              <LatitudeDegrees>40.6486397422850131988525390625</LatitudeDegrees>
              <LongitudeDegrees>-3.33884538151323795318603515625</LongitudeDegrees>
            </Position>
            <AltitudeMeters>755.5999755859375</AltitudeMeters>
            <DistanceMeters>56105.965197021</DistanceMeters>
          </Trackpoint>
          <Trackpoint>
            <Time>2019-07-19T10:59:01.000Z</Time>
            <Position>
              <LatitudeDegrees>40.64850923605263233184814453125</LatitudeDegrees>
              <LongitudeDegrees>-3.338818810880184173583984375</LongitudeDegrees>
            </Position>
            <AltitudeMeters>755.4000244140625</AltitudeMeters>
            <DistanceMeters>56120.663344825</DistanceMeters>
          </Trackpoint>
          <Trackpoint>
            <Time>2019-07-19T10:59:04.000Z</Time>
            <Position>
              <LatitudeDegrees>40.64834092743694782257080078125</LatitudeDegrees>
              <LongitudeDegrees>-3.33867724053561687469482421875</LongitudeDegrees>
            </Position>
            <AltitudeMeters>755.79998779296875</AltitudeMeters>
            <DistanceMeters>56142.886190743</DistanceMeters>
          </Trackpoint>
          <Trackpoint>
            <Time>2019-07-19T10:59:06.000Z</Time>
            <Position>
              <LatitudeDegrees>40.64821553416550159454345703125</LatitudeDegrees>
              <LongitudeDegrees>-3.3386074192821979522705078125</LongitudeDegrees>
            </Position>
            <AltitudeMeters>755.79998779296875</AltitudeMeters>
            <DistanceMeters>56158.036918224</DistanceMeters>
          </Trackpoint>
          <Trackpoint>
            <Time>2019-07-19T10:59:14.000Z</Time>
            <Position>
              <LatitudeDegrees>40.64763148315250873565673828125</LatitudeDegrees>
              <LongitudeDegrees>-3.33847657777369022369384765625</LongitudeDegrees>
            </Position>
            <AltitudeMeters>755.79998779296875</AltitudeMeters>
            <DistanceMeters>56223.975256214</DistanceMeters>
          </Trackpoint>
          <Trackpoint>
            <Time>2019-07-19T10:59:19.000Z</Time>
            <Position>
              <LatitudeDegrees>40.64727508462965488433837890625</LatitudeDegrees>
              <LongitudeDegrees>-3.33842729218304157257080078125</LongitudeDegrees>
            </Position>
            <AltitudeMeters>756.5999755859375</AltitudeMeters>
            <DistanceMeters>56263.860788144</DistanceMeters>
          </Trackpoint>
          <Trackpoint>
            <Time>2019-07-19T10:59:28.000Z</Time>
            <Position>
              <LatitudeDegrees>40.6467063724994659423828125</LatitudeDegrees>
              <LongitudeDegrees>-3.33835923112928867340087890625</LongitudeDegrees>
            </Position>
            <AltitudeMeters>757.20001220703125</AltitudeMeters>
            <DistanceMeters>56327.419951438</DistanceMeters>
          </Trackpoint>
          <Trackpoint>
            <Time>2019-07-19T10:59:33.000Z</Time>
            <Position>
              <LatitudeDegrees>40.6463987566530704498291015625</LatitudeDegrees>
              <LongitudeDegrees>-3.33830709569156169891357421875</LongitudeDegrees>
            </Position>
            <AltitudeMeters>756.5999755859375</AltitudeMeters>
            <DistanceMeters>56361.940163023</DistanceMeters>
          </Trackpoint>
          <Trackpoint>
            <Time>2019-07-19T10:59:42.000Z</Time>
            <Position>
              <LatitudeDegrees>40.6458361633121967315673828125</LatitudeDegrees>
              <LongitudeDegrees>-3.338392674922943115234375</LongitudeDegrees>
            </Position>
            <AltitudeMeters>756.5999755859375</AltitudeMeters>
            <DistanceMeters>56424.97361109</DistanceMeters>
          </Trackpoint>
          <Trackpoint>
            <Time>2019-07-19T10:59:51.000Z</Time>
            <Position>
              <LatitudeDegrees>40.64527013339102268218994140625</LatitudeDegrees>
              <LongitudeDegrees>-3.33842377178370952606201171875</LongitudeDegrees>
            </Position>
            <AltitudeMeters>756.5999755859375</AltitudeMeters>
            <DistanceMeters>56488.028544268</DistanceMeters>
          </Trackpoint>
          <Trackpoint>
            <Time>2019-07-19T11:00:00.000Z</Time>
            <Position>
              <LatitudeDegrees>40.64470100216567516326904296875</LatitudeDegrees>
              <LongitudeDegrees>-3.33837733604013919830322265625</LongitudeDegrees>
            </Position>
            <AltitudeMeters>755.79998779296875</AltitudeMeters>
            <DistanceMeters>56551.495292564</DistanceMeters>
          </Trackpoint>
          <Trackpoint>
            <Time>2019-07-19T11:00:01.000Z</Time>
            <Position>
              <LatitudeDegrees>40.64463847316801548004150390625</LatitudeDegrees>
              <LongitudeDegrees>-3.3383697085082530975341796875</LongitudeDegrees>
            </Position>
            <AltitudeMeters>755.4000244140625</AltitudeMeters>
            <DistanceMeters>56558.484764186</DistanceMeters>
          </Trackpoint>
          <Trackpoint>
            <Time>2019-07-19T11:00:09.000Z</Time>
            <Position>
              <LatitudeDegrees>40.64413748681545257568359375</LatitudeDegrees>
              <LongitudeDegrees>-3.33832226693630218505859375</LongitudeDegrees>
            </Position>
            <AltitudeMeters>754.4000244140625</AltitudeMeters>
            <DistanceMeters>56614.389312189</DistanceMeters>
          </Trackpoint>
          <Trackpoint>
            <Time>2019-07-19T11:00:18.000Z</Time>
            <Position>
              <LatitudeDegrees>40.64357883296906948089599609375</LatitudeDegrees>
              <LongitudeDegrees>-3.33827507682144641876220703125</LongitudeDegrees>
            </Position>
            <AltitudeMeters>754.5999755859375</AltitudeMeters>
            <DistanceMeters>56676.696119395</DistanceMeters>
          </Trackpoint>
          <Trackpoint>
            <Time>2019-07-19T11:00:21.000Z</Time>
            <Position>
              <LatitudeDegrees>40.6433896534144878387451171875</LatitudeDegrees>
              <LongitudeDegrees>-3.3382572233676910400390625</LongitudeDegrees>
            </Position>
            <AltitudeMeters>755.79998779296875</AltitudeMeters>
            <DistanceMeters>56697.805743085</DistanceMeters>
          </Trackpoint>
          <Trackpoint>
            <Time>2019-07-19T11:00:30.000Z</Time>
            <Position>
              <LatitudeDegrees>40.64282094128429889678955078125</LatitudeDegrees>
              <LongitudeDegrees>-3.338195197284221649169921875</LongitudeDegrees>
            </Position>
            <AltitudeMeters>755.79998779296875</AltitudeMeters>
            <DistanceMeters>56761.320848306</DistanceMeters>
          </Trackpoint>
          <Trackpoint>
            <Time>2019-07-19T11:00:39.000Z</Time>
            <Position>
              <LatitudeDegrees>40.6422487087547779083251953125</LatitudeDegrees>
              <LongitudeDegrees>-3.338126130402088165283203125</LongitudeDegrees>
            </Position>
            <AltitudeMeters>755.4000244140625</AltitudeMeters>
            <DistanceMeters>56825.278062898</DistanceMeters>
          </Trackpoint>
          <Trackpoint>
            <Time>2019-07-19T11:00:41.000Z</Time>
            <Position>
              <LatitudeDegrees>40.64212390221655368804931640625</LatitudeDegrees>
              <LongitudeDegrees>-3.33810123614966869354248046875</LongitudeDegrees>
            </Position>
            <AltitudeMeters>754.5999755859375</AltitudeMeters>
            <DistanceMeters>56839.327241198</DistanceMeters>
          </Trackpoint>
          <Trackpoint>
            <Time>2019-07-19T11:00:43.000Z</Time>
            <Position>
              <LatitudeDegrees>40.64200353808701038360595703125</LatitudeDegrees>
              <LongitudeDegrees>-3.33807474933564662933349609375</LongitudeDegrees>
            </Position>
            <AltitudeMeters>753.5999755859375</AltitudeMeters>
            <DistanceMeters>56852.909414502</DistanceMeters>
          </Trackpoint>
          <Trackpoint>
            <Time>2019-07-19T11:00:44.000Z</Time>
            <Position>
              <LatitudeDegrees>40.64194235019385814666748046875</LatitudeDegrees>
              <LongitudeDegrees>-3.33806267939507961273193359375</LongitudeDegrees>
            </Position>
            <AltitudeMeters>753.4000244140625</AltitudeMeters>
            <DistanceMeters>56859.795409812</DistanceMeters>
          </Trackpoint>
          <Trackpoint>
            <Time>2019-07-19T11:00:54.000Z</Time>
            <Position>
              <LatitudeDegrees>40.64136684872210025787353515625</LatitudeDegrees>
              <LongitudeDegrees>-3.3379646949470043182373046875</LongitudeDegrees>
            </Position>
            <AltitudeMeters>754</AltitudeMeters>
            <DistanceMeters>56924.382265081</DistanceMeters>
          </Trackpoint>
          <Trackpoint>
            <Time>2019-07-19T11:01:03.000Z</Time>
            <Position>
              <LatitudeDegrees>40.6408140622079372406005859375</LatitudeDegrees>
              <LongitudeDegrees>-3.33788012154400348663330078125</LongitudeDegrees>
            </Position>
            <AltitudeMeters>753.20001220703125</AltitudeMeters>
            <DistanceMeters>56986.321753437</DistanceMeters>
          </Trackpoint>
          <Trackpoint>
            <Time>2019-07-19T11:01:08.000Z</Time>
            <Position>
              <LatitudeDegrees>40.64049077220261096954345703125</LatitudeDegrees>
              <LongitudeDegrees>-3.33782597444951534271240234375</LongitudeDegrees>
            </Position>
            <AltitudeMeters>752.20001220703125</AltitudeMeters>
            <DistanceMeters>57022.593837438</DistanceMeters>
          </Trackpoint>
          <Trackpoint>
            <Time>2019-07-19T11:01:17.000Z</Time>
            <Position>
              <LatitudeDegrees>40.63990202732384204864501953125</LatitudeDegrees>
              <LongitudeDegrees>-3.3377246372401714324951171875</LongitudeDegrees>
            </Position>
            <AltitudeMeters>752.20001220703125</AltitudeMeters>
            <DistanceMeters>57088.678819852</DistanceMeters>
          </Trackpoint>
          <Trackpoint>
            <Time>2019-07-19T11:01:26.000Z</Time>
            <Position>
              <LatitudeDegrees>40.6393113546073436737060546875</LatitudeDegrees>
              <LongitudeDegrees>-3.33763025701045989990234375</LongitudeDegrees>
            </Position>
            <AltitudeMeters>752</AltitudeMeters>
            <DistanceMeters>57154.903372754</DistanceMeters>
          </Trackpoint>
          <Trackpoint>
            <Time>2019-07-19T11:01:35.000Z</Time>
            <Position>
              <LatitudeDegrees>40.63872420229017734527587890625</LatitudeDegrees>
              <LongitudeDegrees>-3.3375378884375095367431640625</LongitudeDegrees>
            </Position>
            <AltitudeMeters>751.5999755859375</AltitudeMeters>
            <DistanceMeters>57220.718548583</DistanceMeters>
          </Trackpoint>
          <Trackpoint>
            <Time>2019-07-19T11:01:41.000Z</Time>
            <Position>
              <LatitudeDegrees>40.63831575214862823486328125</LatitudeDegrees>
              <LongitudeDegrees>-3.3374627865850925445556640625</LongitudeDegrees>
            </Position>
            <AltitudeMeters>751.20001220703125</AltitudeMeters>
            <DistanceMeters>57266.620287946</DistanceMeters>
          </Trackpoint>
          <Trackpoint>
            <Time>2019-07-19T11:01:50.000Z</Time>
            <Position>
              <LatitudeDegrees>40.63771435059607028961181640625</LatitudeDegrees>
              <LongitudeDegrees>-3.33736564032733440399169921875</LongitudeDegrees>
            </Position>
            <AltitudeMeters>750.5999755859375</AltitudeMeters>
            <DistanceMeters>57334.058464821</DistanceMeters>
          </Trackpoint>
          <Trackpoint>
            <Time>2019-07-19T11:01:53.000Z</Time>
            <Position>
              <LatitudeDegrees>40.6375082395970821380615234375</LatitudeDegrees>
              <LongitudeDegrees>-3.33733060397207736968994140625</LongitudeDegrees>
            </Position>
            <AltitudeMeters>750</AltitudeMeters>
            <DistanceMeters>57357.189224197</DistanceMeters>
          </Trackpoint>
          <Trackpoint>
            <Time>2019-07-19T11:02:01.000Z</Time>
            <Position>
              <LatitudeDegrees>40.6369510106742382049560546875</LatitudeDegrees>
              <LongitudeDegrees>-3.337228596210479736328125</LongitudeDegrees>
            </Position>
            <AltitudeMeters>750.20001220703125</AltitudeMeters>
            <DistanceMeters>57419.805411812</DistanceMeters>
          </Trackpoint>
          <Trackpoint>
            <Time>2019-07-19T11:02:09.000Z</Time>
            <Position>
              <LatitudeDegrees>40.63640040345489978790283203125</LatitudeDegrees>
              <LongitudeDegrees>-3.3371368981897830963134765625</LongitudeDegrees>
            </Position>
            <AltitudeMeters>749.5999755859375</AltitudeMeters>
            <DistanceMeters>57481.576577104</DistanceMeters>
          </Trackpoint>
          <Trackpoint>
            <Time>2019-07-19T11:02:17.000Z</Time>
            <Position>
              <LatitudeDegrees>40.6358219683170318603515625</LatitudeDegrees>
              <LongitudeDegrees>-3.3370423503220081329345703125</LongitudeDegrees>
            </Position>
            <AltitudeMeters>749.79998779296875</AltitudeMeters>
            <DistanceMeters>57546.450946839</DistanceMeters>
          </Trackpoint>
          <Trackpoint>
            <Time>2019-07-19T11:02:25.000Z</Time>
            <Position>
              <LatitudeDegrees>40.63526247628033161163330078125</LatitudeDegrees>
              <LongitudeDegrees>-3.33695056848227977752685546875</LongitudeDegrees>
            </Position>
            <AltitudeMeters>750.79998779296875</AltitudeMeters>
            <DistanceMeters>57609.204203224</DistanceMeters>
          </Trackpoint>
          <Trackpoint>
            <Time>2019-07-19T11:02:33.000Z</Time>
            <Position>
              <LatitudeDegrees>40.63470507971942424774169921875</LatitudeDegrees>
              <LongitudeDegrees>-3.33685669116675853729248046875</LongitudeDegrees>
            </Position>
            <AltitudeMeters>750.20001220703125</AltitudeMeters>
            <DistanceMeters>57671.748242708</DistanceMeters>
          </Trackpoint>
          <Trackpoint>
            <Time>2019-07-19T11:02:41.000Z</Time>
            <Position>
              <LatitudeDegrees>40.6341563165187835693359375</LatitudeDegrees>
              <LongitudeDegrees>-3.33677119575440883636474609375</LongitudeDegrees>
            </Position>
            <AltitudeMeters>750.5999755859375</AltitudeMeters>
            <DistanceMeters>57733.252186831</DistanceMeters>
          </Trackpoint>
          <Trackpoint>
            <Time>2019-07-19T11:02:50.000Z</Time>
            <Position>
              <LatitudeDegrees>40.63356195576488971710205078125</LatitudeDegrees>
              <LongitudeDegrees>-3.33671788685023784637451171875</LongitudeDegrees>
            </Position>
            <AltitudeMeters>750.20001220703125</AltitudeMeters>
            <DistanceMeters>57799.558774883</DistanceMeters>
          </Trackpoint>
          <Trackpoint>
            <Time>2019-07-19T11:02:59.000Z</Time>
            <Position>
              <LatitudeDegrees>40.633028447628021240234375</LatitudeDegrees>
              <LongitudeDegrees>-3.3368187211453914642333984375</LongitudeDegrees>
            </Position>
            <AltitudeMeters>750.5999755859375</AltitudeMeters>
            <DistanceMeters>57859.546980338</DistanceMeters>
          </Trackpoint>
          <Trackpoint>
            <Time>2019-07-19T11:03:02.000Z</Time>
            <Position>
              <LatitudeDegrees>40.63285133801400661468505859375</LatitudeDegrees>
              <LongitudeDegrees>-3.33689155988395214080810546875</LongitudeDegrees>
            </Position>
            <AltitudeMeters>750.20001220703125</AltitudeMeters>
            <DistanceMeters>57880.197315202</DistanceMeters>
          </Trackpoint>
          <Trackpoint>
            <Time>2019-07-19T11:03:04.000Z</Time>
            <Position>
              <LatitudeDegrees>40.6327583827078342437744140625</LatitudeDegrees>
              <LongitudeDegrees>-3.33700521849095821380615234375</LongitudeDegrees>
            </Position>
            <AltitudeMeters>749.79998779296875</AltitudeMeters>
            <DistanceMeters>57894.311261721</DistanceMeters>
          </Trackpoint>
          <Trackpoint>
            <Time>2019-07-19T11:03:06.000Z</Time>
            <Position>
              <LatitudeDegrees>40.6326668523252010345458984375</LatitudeDegrees>
              <LongitudeDegrees>-3.33713748492300510406494140625</LongitudeDegrees>
            </Position>
            <AltitudeMeters>749.4000244140625</AltitudeMeters>
            <DistanceMeters>57909.430964604</DistanceMeters>
          </Trackpoint>
          <Trackpoint>
            <Time>2019-07-19T11:03:08.000Z</Time>
            <Position>
              <LatitudeDegrees>40.6325424648821353912353515625</LatitudeDegrees>
              <LongitudeDegrees>-3.33720252849161624908447265625</LongitudeDegrees>
            </Position>
            <AltitudeMeters>748.5999755859375</AltitudeMeters>
            <DistanceMeters>57924.325928456</DistanceMeters>
          </Trackpoint>
          <Trackpoint>
            <Time>2019-07-19T11:03:11.000Z</Time>
            <Position>
              <LatitudeDegrees>40.6323389522731304168701171875</LatitudeDegrees>
              <LongitudeDegrees>-3.33720386959612369537353515625</LongitudeDegrees>
            </Position>
            <AltitudeMeters>747.79998779296875</AltitudeMeters>
            <DistanceMeters>57946.977395153</DistanceMeters>
          </Trackpoint>
          <Trackpoint>
            <Time>2019-07-19T11:03:13.000Z</Time>
            <Position>
              <LatitudeDegrees>40.6322142295539379119873046875</LatitudeDegrees>
              <LongitudeDegrees>-3.33726413547992706298828125</LongitudeDegrees>
            </Position>
            <AltitudeMeters>747.79998779296875</AltitudeMeters>
            <DistanceMeters>57961.76313662</DistanceMeters>
          </Trackpoint>
          <Trackpoint>
            <Time>2019-07-19T11:03:21.000Z</Time>
            <Position>
              <LatitudeDegrees>40.6317267380654811859130859375</LatitudeDegrees>
              <LongitudeDegrees>-3.33762799389660358428955078125</LongitudeDegrees>
            </Position>
            <AltitudeMeters>747.79998779296875</AltitudeMeters>
            <DistanceMeters>58024.121951707</DistanceMeters>
          </Trackpoint>
          <Trackpoint>
            <Time>2019-07-19T11:03:29.000Z</Time>
            <Position>
              <LatitudeDegrees>40.63123874366283416748046875</LatitudeDegrees>
              <LongitudeDegrees>-3.3379895053803920745849609375</LongitudeDegrees>
            </Position>
            <AltitudeMeters>747.79998779296875</AltitudeMeters>
            <DistanceMeters>58086.432237117</DistanceMeters>
          </Trackpoint>
          <Trackpoint>
            <Time>2019-07-19T11:03:34.000Z</Time>
            <Position>
              <LatitudeDegrees>40.63092484138906002044677734375</LatitudeDegrees>
              <LongitudeDegrees>-3.33823886699974536895751953125</LongitudeDegrees>
            </Position>
            <AltitudeMeters>747.5999755859375</AltitudeMeters>
            <DistanceMeters>58127.228368788</DistanceMeters>
          </Trackpoint>
          <Trackpoint>
            <Time>2019-07-19T11:03:39.000Z</Time>
            <Position>
              <LatitudeDegrees>40.630624853074550628662109375</LatitudeDegrees>
              <LongitudeDegrees>-3.33848093636333942413330078125</LongitudeDegrees>
            </Position>
            <AltitudeMeters>746.20001220703125</AltitudeMeters>
            <DistanceMeters>58166.381220244</DistanceMeters>
          </Trackpoint>
          <Trackpoint>
            <Time>2019-07-19T11:03:47.000Z</Time>
            <Position>
              <LatitudeDegrees>40.63012990169227123260498046875</LatitudeDegrees>
              <LongitudeDegrees>-3.33886164240539073944091796875</LongitudeDegrees>
            </Position>
            <AltitudeMeters>746</AltitudeMeters>
            <DistanceMeters>58230.169561229</DistanceMeters>
          </Trackpoint>
          <Trackpoint>
            <Time>2019-07-19T11:03:53.000Z</Time>
            <Position>
              <LatitudeDegrees>40.62975606881082057952880859375</LatitudeDegrees>
              <LongitudeDegrees>-3.33913765847682952880859375</LongitudeDegrees>
            </Position>
            <AltitudeMeters>745</AltitudeMeters>
            <DistanceMeters>58277.865020738</DistanceMeters>
          </Trackpoint>
          <Trackpoint>
            <Time>2019-07-19T11:04:00.000Z</Time>
            <Position>
              <LatitudeDegrees>40.62932339496910572052001953125</LatitudeDegrees>
              <LongitudeDegrees>-3.3394583500921726226806640625</LongitudeDegrees>
            </Position>
            <AltitudeMeters>744</AltitudeMeters>
            <DistanceMeters>58333.118785723</DistanceMeters>
          </Trackpoint>
          <Trackpoint>
            <Time>2019-07-19T11:04:08.000Z</Time>
            <Position>
              <LatitudeDegrees>40.628830455243587493896484375</LatitudeDegrees>
              <LongitudeDegrees>-3.33984844386577606201171875</LongitudeDegrees>
            </Position>
            <AltitudeMeters>743.79998779296875</AltitudeMeters>
            <DistanceMeters>58397.118907479</DistanceMeters>
          </Trackpoint>
          <Trackpoint>
            <Time>2019-07-19T11:04:16.000Z</Time>
            <Position>
              <LatitudeDegrees>40.628332905471324920654296875</LatitudeDegrees>
              <LongitudeDegrees>-3.340230993926525115966796875</LongitudeDegrees>
            </Position>
            <AltitudeMeters>744.20001220703125</AltitudeMeters>
            <DistanceMeters>58461.235960449</DistanceMeters>
          </Trackpoint>
          <Trackpoint>
            <Time>2019-07-19T11:04:24.000Z</Time>
            <Position>
              <LatitudeDegrees>40.6278576515614986419677734375</LatitudeDegrees>
              <LongitudeDegrees>-3.340601138770580291748046875</LongitudeDegrees>
            </Position>
            <AltitudeMeters>743.4000244140625</AltitudeMeters>
            <DistanceMeters>58522.682764623</DistanceMeters>
          </Trackpoint>
          <Trackpoint>
            <Time>2019-07-19T11:04:32.000Z</Time>
            <Position>
              <LatitudeDegrees>40.6273617781698703765869140625</LatitudeDegrees>
              <LongitudeDegrees>-3.34099852479994297027587890625</LongitudeDegrees>
            </Position>
            <AltitudeMeters>743.20001220703125</AltitudeMeters>
            <DistanceMeters>58587.281223321</DistanceMeters>
          </Trackpoint>
          <Trackpoint>
            <Time>2019-07-19T11:04:40.000Z</Time>
            <Position>
              <LatitudeDegrees>40.62686716206371784210205078125</LatitudeDegrees>
              <LongitudeDegrees>-3.3413851819932460784912109375</LongitudeDegrees>
            </Position>
            <AltitudeMeters>743.20001220703125</AltitudeMeters>
            <DistanceMeters>58651.293195933</DistanceMeters>
          </Trackpoint>
          <Trackpoint>
            <Time>2019-07-19T11:04:48.000Z</Time>
            <Position>
              <LatitudeDegrees>40.6263805925846099853515625</LatitudeDegrees>
              <LongitudeDegrees>-3.34177485667169094085693359375</LongitudeDegrees>
            </Position>
            <AltitudeMeters>743.79998779296875</AltitudeMeters>
            <DistanceMeters>58714.668676848</DistanceMeters>
          </Trackpoint>
          <Trackpoint>
            <Time>2019-07-19T11:04:53.000Z</Time>
            <Position>
              <LatitudeDegrees>40.626076161861419677734375</LatitudeDegrees>
              <LongitudeDegrees>-3.34201927296817302703857421875</LongitudeDegrees>
            </Position>
            <AltitudeMeters>742.79998779296875</AltitudeMeters>
            <DistanceMeters>58754.34742252</DistanceMeters>
          </Trackpoint>
          <Trackpoint>
            <Time>2019-07-19T11:05:01.000Z</Time>
            <Position>
              <LatitudeDegrees>40.62559965066611766815185546875</LatitudeDegrees>
              <LongitudeDegrees>-3.3424158208072185516357421875</LongitudeDegrees>
            </Position>
            <AltitudeMeters>742.4000244140625</AltitudeMeters>
            <DistanceMeters>58817.077435051</DistanceMeters>
          </Trackpoint>
          <Trackpoint>
            <Time>2019-07-19T11:05:09.000Z</Time>
            <Position>
              <LatitudeDegrees>40.62511668540537357330322265625</LatitudeDegrees>
              <LongitudeDegrees>-3.3428288809955120086669921875</LongitudeDegrees>
            </Position>
            <AltitudeMeters>742</AltitudeMeters>
            <DistanceMeters>58881.164764449</DistanceMeters>
          </Trackpoint>
          <Trackpoint>
            <Time>2019-07-19T11:05:17.000Z</Time>
            <Position>
              <LatitudeDegrees>40.6246239133179187774658203125</LatitudeDegrees>
              <LongitudeDegrees>-3.3431990258395671844482421875</LongitudeDegrees>
            </Position>
            <AltitudeMeters>742.20001220703125</AltitudeMeters>
            <DistanceMeters>58944.298556846</DistanceMeters>
          </Trackpoint>
          <Trackpoint>
            <Time>2019-07-19T11:05:19.000Z</Time>
            <Position>
              <LatitudeDegrees>40.6244976818561553955078125</LatitudeDegrees>
              <LongitudeDegrees>-3.34328058175742626190185546875</LongitudeDegrees>
            </Position>
            <AltitudeMeters>741.79998779296875</AltitudeMeters>
            <DistanceMeters>58959.946545626</DistanceMeters>
          </Trackpoint>
          <Trackpoint>
            <Time>2019-07-19T11:05:27.000Z</Time>
            <Position>
              <LatitudeDegrees>40.62400658614933490753173828125</LatitudeDegrees>
              <LongitudeDegrees>-3.34364435635507106781005859375</LongitudeDegrees>
            </Position>
            <AltitudeMeters>742</AltitudeMeters>
            <DistanceMeters>59022.652945675</DistanceMeters>
          </Trackpoint>
          <Trackpoint>
            <Time>2019-07-19T11:05:33.000Z</Time>
            <Position>
              <LatitudeDegrees>40.62362520955502986907958984375</LatitudeDegrees>
              <LongitudeDegrees>-3.34393336437642574310302734375</LongitudeDegrees>
            </Position>
            <AltitudeMeters>740.5999755859375</AltitudeMeters>
            <DistanceMeters>59071.621494148</DistanceMeters>
          </Trackpoint>
          <Trackpoint>
            <Time>2019-07-19T11:05:37.000Z</Time>
            <Position>
              <LatitudeDegrees>40.62337861396372318267822265625</LatitudeDegrees>
              <LongitudeDegrees>-3.34412430413067340850830078125</LongitudeDegrees>
            </Position>
            <AltitudeMeters>739.4000244140625</AltitudeMeters>
            <DistanceMeters>59103.45728721</DistanceMeters>
          </Trackpoint>
          <Trackpoint>
            <Time>2019-07-19T11:05:42.000Z</Time>
            <Position>
              <LatitudeDegrees>40.62307150103151798248291015625</LatitudeDegrees>
              <LongitudeDegrees>-3.34436687640845775604248046875</LongitudeDegrees>
            </Position>
            <AltitudeMeters>741</AltitudeMeters>
            <DistanceMeters>59143.31167701</DistanceMeters>
          </Trackpoint>
          <Trackpoint>
            <Time>2019-07-19T11:05:45.000Z</Time>
            <Position>
              <LatitudeDegrees>40.62288223765790462493896484375</LatitudeDegrees>
              <LongitudeDegrees>-3.34451624192297458648681640625</LongitudeDegrees>
            </Position>
            <AltitudeMeters>742</AltitudeMeters>
            <DistanceMeters>59167.867212526</DistanceMeters>
          </Trackpoint>
          <Trackpoint>
            <Time>2019-07-19T11:05:53.000Z</Time>
            <Position>
              <LatitudeDegrees>40.62240094877779483795166015625</LatitudeDegrees>
              <LongitudeDegrees>-3.34488621912896633148193359375</LongitudeDegrees>
            </Position>
            <AltitudeMeters>742.20001220703125</AltitudeMeters>
            <DistanceMeters>59229.887269624</DistanceMeters>
          </Trackpoint>
          <Trackpoint>
            <Time>2019-07-19T11:06:02.000Z</Time>
            <Position>
              <LatitudeDegrees>40.62189795076847076416015625</LatitudeDegrees>
              <LongitudeDegrees>-3.34523591212928295135498046875</LongitudeDegrees>
            </Position>
            <AltitudeMeters>742.20001220703125</AltitudeMeters>
            <DistanceMeters>59293.1883295</DistanceMeters>
          </Trackpoint>
          <Trackpoint>
            <Time>2019-07-19T11:06:08.000Z</Time>
            <Position>
              <LatitudeDegrees>40.6215812824666500091552734375</LatitudeDegrees>
              <LongitudeDegrees>-3.34546088241040706634521484375</LongitudeDegrees>
            </Position>
            <AltitudeMeters>741</AltitudeMeters>
            <DistanceMeters>59333.231914932</DistanceMeters>
          </Trackpoint>
          <Trackpoint>
            <Time>2019-07-19T11:06:13.000Z</Time>
            <Position>
              <LatitudeDegrees>40.6213073618710041046142578125</LatitudeDegrees>
              <LongitudeDegrees>-3.34565416909754276275634765625</LongitudeDegrees>
            </Position>
            <AltitudeMeters>740</AltitudeMeters>
            <DistanceMeters>59367.817200618</DistanceMeters>
          </Trackpoint>
          <Trackpoint>
            <Time>2019-07-19T11:06:19.000Z</Time>
            <Position>
              <LatitudeDegrees>40.620972253382205963134765625</LatitudeDegrees>
              <LongitudeDegrees>-3.3458865992724895477294921875</LongitudeDegrees>
            </Position>
            <AltitudeMeters>739</AltitudeMeters>
            <DistanceMeters>59409.968591828</DistanceMeters>
          </Trackpoint>
          <Trackpoint>
            <Time>2019-07-19T11:06:28.000Z</Time>
            <Position>
              <LatitudeDegrees>40.62046992592513561248779296875</LatitudeDegrees>
              <LongitudeDegrees>-3.3462326042354106903076171875</LongitudeDegrees>
            </Position>
            <AltitudeMeters>738.20001220703125</AltitudeMeters>
            <DistanceMeters>59473.059031009</DistanceMeters>
          </Trackpoint>
          <Trackpoint>
            <Time>2019-07-19T11:06:37.000Z</Time>
            <Position>
              <LatitudeDegrees>40.61999048106372356414794921875</LatitudeDegrees>
              <LongitudeDegrees>-3.34656595252454280853271484375</LongitudeDegrees>
            </Position>
            <AltitudeMeters>737.79998779296875</AltitudeMeters>
            <DistanceMeters>59533.397627452</DistanceMeters>
          </Trackpoint>
          <Trackpoint>
            <Time>2019-07-19T11:06:40.000Z</Time>
            <Position>
              <LatitudeDegrees>40.61983206309378147125244140625</LatitudeDegrees>
              <LongitudeDegrees>-3.34667508490383625030517578125</LongitudeDegrees>
            </Position>
            <AltitudeMeters>736.79998779296875</AltitudeMeters>
            <DistanceMeters>59553.29477829</DistanceMeters>
          </Trackpoint>
          <Trackpoint>
            <Time>2019-07-19T11:06:50.000Z</Time>
            <Position>
              <LatitudeDegrees>40.6193198449909687042236328125</LatitudeDegrees>
              <LongitudeDegrees>-3.34704204462468624114990234375</LongitudeDegrees>
            </Position>
            <AltitudeMeters>737.5999755859375</AltitudeMeters>
            <DistanceMeters>59618.18988451</DistanceMeters>
          </Trackpoint>
          <Trackpoint>
            <Time>2019-07-19T11:06:57.000Z</Time>
            <Position>
              <LatitudeDegrees>40.6189627759158611297607421875</LatitudeDegrees>
              <LongitudeDegrees>-3.347297273576259613037109375</LongitudeDegrees>
            </Position>
            <AltitudeMeters>737.79998779296875</AltitudeMeters>
            <DistanceMeters>59663.405029173</DistanceMeters>
          </Trackpoint>
          <Trackpoint>
            <Time>2019-07-19T11:07:06.000Z</Time>
            <Position>
              <LatitudeDegrees>40.6184538267552852630615234375</LatitudeDegrees>
              <LongitudeDegrees>-3.34763757884502410888671875</LongitudeDegrees>
            </Position>
            <AltitudeMeters>737.20001220703125</AltitudeMeters>
            <DistanceMeters>59726.930441036</DistanceMeters>
          </Trackpoint>
          <Trackpoint>
            <Time>2019-07-19T11:07:09.000Z</Time>
            <Position>
              <LatitudeDegrees>40.61828761361539363861083984375</LatitudeDegrees>
              <LongitudeDegrees>-3.347751237452030181884765625</LongitudeDegrees>
            </Position>
            <AltitudeMeters>736.79998779296875</AltitudeMeters>
            <DistanceMeters>59747.773809473</DistanceMeters>
          </Trackpoint>
          <Trackpoint>
            <Time>2019-07-19T11:07:18.000Z</Time>
            <Position>
              <LatitudeDegrees>40.61780565418303012847900390625</LatitudeDegrees>
              <LongitudeDegrees>-3.3480875194072723388671875</LongitudeDegrees>
            </Position>
            <AltitudeMeters>736.79998779296875</AltitudeMeters>
            <DistanceMeters>59808.47602371</DistanceMeters>
          </Trackpoint>
          <Trackpoint>
            <Time>2019-07-19T11:07:27.000Z</Time>
            <Position>
              <LatitudeDegrees>40.61732453294098377227783203125</LatitudeDegrees>
              <LongitudeDegrees>-3.348429836332798004150390625</LongitudeDegrees>
            </Position>
            <AltitudeMeters>736.4000244140625</AltitudeMeters>
            <DistanceMeters>59869.336535589</DistanceMeters>
          </Trackpoint>
          <Trackpoint>
            <Time>2019-07-19T11:07:37.000Z</Time>
            <Position>
              <LatitudeDegrees>40.616801083087921142578125</LatitudeDegrees>
              <LongitudeDegrees>-3.34878916852176189422607421875</LongitudeDegrees>
            </Position>
            <AltitudeMeters>738</AltitudeMeters>
            <DistanceMeters>59935.032854414</DistanceMeters>
          </Trackpoint>
          <Trackpoint>
            <Time>2019-07-19T11:07:46.000Z</Time>
            <Position>
              <LatitudeDegrees>40.61631183139979839324951171875</LatitudeDegrees>
              <LongitudeDegrees>-3.3491324074566364288330078125</LongitudeDegrees>
            </Position>
            <AltitudeMeters>737.79998779296875</AltitudeMeters>
            <DistanceMeters>59996.727956181</DistanceMeters>
          </Trackpoint>
          <Trackpoint>
            <Time>2019-07-19T11:07:55.000Z</Time>
            <Position>
              <LatitudeDegrees>40.61583037488162517547607421875</LatitudeDegrees>
              <LongitudeDegrees>-3.3494713716208934783935546875</LongitudeDegrees>
            </Position>
            <AltitudeMeters>737.4000244140625</AltitudeMeters>
            <DistanceMeters>60057.48756474</DistanceMeters>
          </Trackpoint>
          <Trackpoint>
            <Time>2019-07-19T11:08:04.000Z</Time>
            <Position>
              <LatitudeDegrees>40.61532980762422084808349609375</LatitudeDegrees>
              <LongitudeDegrees>-3.34982081316411495208740234375</LongitudeDegrees>
            </Position>
            <AltitudeMeters>739</AltitudeMeters>
            <DistanceMeters>60120.540922593</DistanceMeters>
          </Trackpoint>
          <Trackpoint>
            <Time>2019-07-19T11:08:12.000Z</Time>
            <Position>
              <LatitudeDegrees>40.61487986706197261810302734375</LatitudeDegrees>
              <LongitudeDegrees>-3.3501241542398929595947265625</LongitudeDegrees>
            </Position>
            <AltitudeMeters>737.5999755859375</AltitudeMeters>
            <DistanceMeters>60176.797299311</DistanceMeters>
          </Trackpoint>
          <Trackpoint>
            <Time>2019-07-19T11:08:20.000Z</Time>
            <Position>
              <LatitudeDegrees>40.61437795870006084442138671875</LatitudeDegrees>
              <LongitudeDegrees>-3.35047376342117786407470703125</LongitudeDegrees>
            </Position>
            <AltitudeMeters>737.20001220703125</AltitudeMeters>
            <DistanceMeters>60239.989349876</DistanceMeters>
          </Trackpoint>
          <Trackpoint>
            <Time>2019-07-19T11:08:26.000Z</Time>
            <Position>
              <LatitudeDegrees>40.613944530487060546875</LatitudeDegrees>
              <LongitudeDegrees>-3.35077115334570407867431640625</LongitudeDegrees>
            </Position>
            <AltitudeMeters>736.4000244140625</AltitudeMeters>
            <DistanceMeters>60294.382163058</DistanceMeters>
          </Trackpoint>
          <Trackpoint>
            <Time>2019-07-19T11:08:29.000Z</Time>
            <Position>
              <LatitudeDegrees>40.61372928321361541748046875</LatitudeDegrees>
              <LongitudeDegrees>-3.35091926157474517822265625</LongitudeDegrees>
            </Position>
            <AltitudeMeters>735.20001220703125</AltitudeMeters>
            <DistanceMeters>60321.411208632</DistanceMeters>
          </Trackpoint>
          <Trackpoint>
            <Time>2019-07-19T11:08:36.000Z</Time>
            <Position>
              <LatitudeDegrees>40.613246150314807891845703125</LatitudeDegrees>
              <LongitudeDegrees>-3.3512607403099536895751953125</LongitudeDegrees>
            </Position>
            <AltitudeMeters>734.5999755859375</AltitudeMeters>
            <DistanceMeters>60382.436118675</DistanceMeters>
          </Trackpoint>
          <Trackpoint>
            <Time>2019-07-19T11:08:43.000Z</Time>
            <Position>
              <LatitudeDegrees>40.61278120614588260650634765625</LatitudeDegrees>
              <LongitudeDegrees>-3.3515832759439945220947265625</LongitudeDegrees>
            </Position>
            <AltitudeMeters>734.20001220703125</AltitudeMeters>
            <DistanceMeters>60440.922262994</DistanceMeters>
          </Trackpoint>
          <Trackpoint>
            <Time>2019-07-19T11:08:51.000Z</Time>
            <Position>
              <LatitudeDegrees>40.61227628029882907867431640625</LatitudeDegrees>
              <LongitudeDegrees>-3.35193925537168979644775390625</LongitudeDegrees>
            </Position>
            <AltitudeMeters>734.4000244140625</AltitudeMeters>
            <DistanceMeters>60504.664012698</DistanceMeters>
          </Trackpoint>
          <Trackpoint>
            <Time>2019-07-19T11:08:59.000Z</Time>
            <Position>
              <LatitudeDegrees>40.611766912043094635009765625</LatitudeDegrees>
              <LongitudeDegrees>-3.3523000963032245635986328125</LongitudeDegrees>
            </Position>
            <AltitudeMeters>735</AltitudeMeters>
            <DistanceMeters>60569.03589739</DistanceMeters>
          </Trackpoint>
          <Trackpoint>
            <Time>2019-07-19T11:09:00.000Z</Time>
            <Position>
              <LatitudeDegrees>40.61170279048383235931396484375</LatitudeDegrees>
              <LongitudeDegrees>-3.35234485566616058349609375</LongitudeDegrees>
            </Position>
            <AltitudeMeters>735.20001220703125</AltitudeMeters>
            <DistanceMeters>60577.112609112</DistanceMeters>
          </Trackpoint>
          <Trackpoint>
            <Time>2019-07-19T11:09:08.000Z</Time>
            <Position>
              <LatitudeDegrees>40.6111831963062286376953125</LatitudeDegrees>
              <LongitudeDegrees>-3.352704606950283050537109375</LongitudeDegrees>
            </Position>
            <AltitudeMeters>734.5999755859375</AltitudeMeters>
            <DistanceMeters>60642.44622232</DistanceMeters>
          </Trackpoint>
          <Trackpoint>
            <Time>2019-07-19T11:09:11.000Z</Time>
            <Position>
              <LatitudeDegrees>40.61098597012460231781005859375</LatitudeDegrees>
              <LongitudeDegrees>-3.35284131579101085662841796875</LongitudeDegrees>
            </Position>
            <AltitudeMeters>734</AltitudeMeters>
            <DistanceMeters>60667.251653356</DistanceMeters>
          </Trackpoint>
          <Trackpoint>
            <Time>2019-07-19T11:09:18.000Z</Time>
            <Position>
              <LatitudeDegrees>40.61052982695400714874267578125</LatitudeDegrees>
              <LongitudeDegrees>-3.35315890610218048095703125</LongitudeDegrees>
            </Position>
            <AltitudeMeters>732.5999755859375</AltitudeMeters>
            <DistanceMeters>60724.676887324</DistanceMeters>
          </Trackpoint>
          <Trackpoint>
            <Time>2019-07-19T11:09:26.000Z</Time>
            <Position>
              <LatitudeDegrees>40.6100119091570377349853515625</LatitudeDegrees>
              <LongitudeDegrees>-3.35351337678730487823486328125</LongitudeDegrees>
            </Position>
            <AltitudeMeters>732.20001220703125</AltitudeMeters>
            <DistanceMeters>60789.638750634</DistanceMeters>
          </Trackpoint>
          <Trackpoint>
            <Time>2019-07-19T11:09:29.000Z</Time>
            <Position>
              <LatitudeDegrees>40.6098147667944431304931640625</LatitudeDegrees>
              <LongitudeDegrees>-3.35364866070449352264404296875</LongitudeDegrees>
            </Position>
            <AltitudeMeters>731.4000244140625</AltitudeMeters>
            <DistanceMeters>60814.380028329</DistanceMeters>
          </Trackpoint>
          <Trackpoint>
            <Time>2019-07-19T11:09:34.000Z</Time>
            <Position>
              <LatitudeDegrees>40.6094858609139919281005859375</LatitudeDegrees>
              <LongitudeDegrees>-3.35387899540364742279052734375</LongitudeDegrees>
            </Position>
            <AltitudeMeters>730</AltitudeMeters>
            <DistanceMeters>60855.839999766</DistanceMeters>
          </Trackpoint>
          <Trackpoint>
            <Time>2019-07-19T11:09:39.000Z</Time>
            <Position>
              <LatitudeDegrees>40.60916324146091938018798828125</LatitudeDegrees>
              <LongitudeDegrees>-3.35410513915121555328369140625</LongitudeDegrees>
            </Position>
            <AltitudeMeters>729</AltitudeMeters>
            <DistanceMeters>60896.515873775</DistanceMeters>
          </Trackpoint>
          <Trackpoint>
            <Time>2019-07-19T11:09:47.000Z</Time>
            <Position>
              <LatitudeDegrees>40.6086640991270542144775390625</LatitudeDegrees>
              <LongitudeDegrees>-3.3544539101421833038330078125</LongitudeDegrees>
            </Position>
            <AltitudeMeters>728.20001220703125</AltitudeMeters>
            <DistanceMeters>60959.403889964</DistanceMeters>
          </Trackpoint>
          <Trackpoint>
            <Time>2019-07-19T11:09:48.000Z</Time>
            <Position>
              <LatitudeDegrees>40.60860349796712398529052734375</LatitudeDegrees>
              <LongitudeDegrees>-3.35449405945837497711181640625</LongitudeDegrees>
            </Position>
            <AltitudeMeters>728</AltitudeMeters>
            <DistanceMeters>60966.953581515</DistanceMeters>
          </Trackpoint>
          <Trackpoint>
            <Time>2019-07-19T11:09:57.000Z</Time>
            <Position>
              <LatitudeDegrees>40.6080891005694866180419921875</LatitudeDegrees>
              <LongitudeDegrees>-3.35485599003732204437255859375</LongitudeDegrees>
            </Position>
            <AltitudeMeters>727.4000244140625</AltitudeMeters>
            <DistanceMeters>61031.86301848</DistanceMeters>
          </Trackpoint>
          <Trackpoint>
            <Time>2019-07-19T11:10:03.000Z</Time>
            <Position>
              <LatitudeDegrees>40.6077467836439609527587890625</LatitudeDegrees>
              <LongitudeDegrees>-3.3550905995070934295654296875</LongitudeDegrees>
            </Position>
            <AltitudeMeters>729</AltitudeMeters>
            <DistanceMeters>61074.812360219</DistanceMeters>
          </Trackpoint>
          <Trackpoint>
            <Time>2019-07-19T11:10:12.000Z</Time>
            <Position>
              <LatitudeDegrees>40.60724546201527118682861328125</LatitudeDegrees>
              <LongitudeDegrees>-3.3554396219551563262939453125</LongitudeDegrees>
            </Position>
            <AltitudeMeters>728.4000244140625</AltitudeMeters>
            <DistanceMeters>61137.924980508</DistanceMeters>
          </Trackpoint>
          <Trackpoint>
            <Time>2019-07-19T11:10:17.000Z</Time>
            <Position>
              <LatitudeDegrees>40.60696818865835666656494140625</LatitudeDegrees>
              <LongitudeDegrees>-3.35563324391841888427734375</LongitudeDegrees>
            </Position>
            <AltitudeMeters>728</AltitudeMeters>
            <DistanceMeters>61172.854763626</DistanceMeters>
          </Trackpoint>
          <Trackpoint>
            <Time>2019-07-19T11:10:26.000Z</Time>
            <Position>
              <LatitudeDegrees>40.60647499747574329376220703125</LatitudeDegrees>
              <LongitudeDegrees>-3.3559586293995380401611328125</LongitudeDegrees>
            </Position>
            <AltitudeMeters>728.20001220703125</AltitudeMeters>
            <DistanceMeters>61234.248934428</DistanceMeters>
          </Trackpoint>
          <Trackpoint>
            <Time>2019-07-19T11:10:35.000Z</Time>
            <Position>
              <LatitudeDegrees>40.60597644187510013580322265625</LatitudeDegrees>
              <LongitudeDegrees>-3.35623213090002536773681640625</LongitudeDegrees>
            </Position>
            <AltitudeMeters>728.4000244140625</AltitudeMeters>
            <DistanceMeters>61294.359547121</DistanceMeters>
          </Trackpoint>
          <Trackpoint>
            <Time>2019-07-19T11:10:44.000Z</Time>
            <Position>
              <LatitudeDegrees>40.60546967200934886932373046875</LatitudeDegrees>
              <LongitudeDegrees>-3.3564927242696285247802734375</LongitudeDegrees>
            </Position>
            <AltitudeMeters>728.20001220703125</AltitudeMeters>
            <DistanceMeters>61354.910134051</DistanceMeters>
          </Trackpoint>
          <Trackpoint>
            <Time>2019-07-19T11:10:47.000Z</Time>
            <Position>
              <LatitudeDegrees>40.6053006090223789215087890625</LatitudeDegrees>
              <LongitudeDegrees>-3.3565882779657840728759765625</LongitudeDegrees>
            </Position>
            <AltitudeMeters>729.20001220703125</AltitudeMeters>
            <DistanceMeters>61375.38657196</DistanceMeters>
          </Trackpoint>
          <Trackpoint>
            <Time>2019-07-19T11:10:56.000Z</Time>
            <Position>
              <LatitudeDegrees>40.6047876365482807159423828125</LatitudeDegrees>
              <LongitudeDegrees>-3.356860019266605377197265625</LongitudeDegrees>
            </Position>
            <AltitudeMeters>729.79998779296875</AltitudeMeters>
            <DistanceMeters>61436.926036531</DistanceMeters>
          </Trackpoint>
          <Trackpoint>
            <Time>2019-07-19T11:11:05.000Z</Time>
            <Position>
              <LatitudeDegrees>40.6042684614658355712890625</LatitudeDegrees>
              <LongitudeDegrees>-3.3571341075003147125244140625</LongitudeDegrees>
            </Position>
            <AltitudeMeters>729.20001220703125</AltitudeMeters>
            <DistanceMeters>61499.180139678</DistanceMeters>
          </Trackpoint>
          <Trackpoint>
            <Time>2019-07-19T11:11:14.000Z</Time>
            <Position>
              <LatitudeDegrees>40.60374450869858264923095703125</LatitudeDegrees>
              <LongitudeDegrees>-3.35741934366524219512939453125</LongitudeDegrees>
            </Position>
            <AltitudeMeters>730.20001220703125</AltitudeMeters>
            <DistanceMeters>61562.282028147</DistanceMeters>
          </Trackpoint>
          <Trackpoint>
            <Time>2019-07-19T11:11:20.000Z</Time>
            <Position>
              <LatitudeDegrees>40.60339263640344142913818359375</LatitudeDegrees>
              <LongitudeDegrees>-3.35760307498276233673095703125</LongitudeDegrees>
            </Position>
            <AltitudeMeters>730.20001220703125</AltitudeMeters>
            <DistanceMeters>61604.411347928</DistanceMeters>
          </Trackpoint>
          <Trackpoint>
            <Time>2019-07-19T11:11:29.000Z</Time>
            <Position>
              <LatitudeDegrees>40.60286122374236583709716796875</LatitudeDegrees>
              <LongitudeDegrees>-3.35788520984351634979248046875</LongitudeDegrees>
            </Position>
            <AltitudeMeters>729.5999755859375</AltitudeMeters>
            <DistanceMeters>61668.182982278</DistanceMeters>
          </Trackpoint>
          <Trackpoint>
            <Time>2019-07-19T11:11:33.000Z</Time>
            <Position>
              <LatitudeDegrees>40.602626614272594451904296875</LatitudeDegrees>
              <LongitudeDegrees>-3.35800255648791790008544921875</LongitudeDegrees>
            </Position>
            <AltitudeMeters>729.20001220703125</AltitudeMeters>
            <DistanceMeters>61696.115017735</DistanceMeters>
          </Trackpoint>
          <Trackpoint>
            <Time>2019-07-19T11:11:41.000Z</Time>
            <Position>
              <LatitudeDegrees>40.60216083191335201263427734375</LatitudeDegrees>
              <LongitudeDegrees>-3.35825133137404918670654296875</LongitudeDegrees>
            </Position>
            <AltitudeMeters>730.20001220703125</AltitudeMeters>
            <DistanceMeters>61752.057915172</DistanceMeters>
          </Trackpoint>
          <Trackpoint>
            <Time>2019-07-19T11:11:46.000Z</Time>
            <Position>
              <LatitudeDegrees>40.60187048278748989105224609375</LatitudeDegrees>
              <LongitudeDegrees>-3.35840036161243915557861328125</LongitudeDegrees>
            </Position>
            <AltitudeMeters>729.20001220703125</AltitudeMeters>
            <DistanceMeters>61786.741494335</DistanceMeters>
          </Trackpoint>
          <Trackpoint>
            <Time>2019-07-19T11:11:49.000Z</Time>
            <Position>
              <LatitudeDegrees>40.6017061136662960052490234375</LatitudeDegrees>
              <LongitudeDegrees>-3.358490131795406341552734375</LongitudeDegrees>
            </Position>
            <AltitudeMeters>728</AltitudeMeters>
            <DistanceMeters>61806.546301843</DistanceMeters>
          </Trackpoint>
          <Trackpoint>
            <Time>2019-07-19T11:11:58.000Z</Time>
            <Position>
              <LatitudeDegrees>40.60118836350739002227783203125</LatitudeDegrees>
              <LongitudeDegrees>-3.358760364353656768798828125</LongitudeDegrees>
            </Position>
            <AltitudeMeters>727.79998779296875</AltitudeMeters>
            <DistanceMeters>61868.532789218</DistanceMeters>
          </Trackpoint>
          <Trackpoint>
            <Time>2019-07-19T11:12:05.000Z</Time>
            <Position>
              <LatitudeDegrees>40.60078402049839496612548828125</LatitudeDegrees>
              <LongitudeDegrees>-3.35896379314363002777099609375</LongitudeDegrees>
            </Position>
            <AltitudeMeters>726.79998779296875</AltitudeMeters>
            <DistanceMeters>61916.708615601</DistanceMeters>
          </Trackpoint>
          <Trackpoint>
            <Time>2019-07-19T11:12:13.000Z</Time>
            <Position>
              <LatitudeDegrees>40.600301809608936309814453125</LatitudeDegrees>
              <LongitudeDegrees>-3.35915758274495601654052734375</LongitudeDegrees>
            </Position>
            <AltitudeMeters>725.5999755859375</AltitudeMeters>
            <DistanceMeters>61972.822514021</DistanceMeters>
          </Trackpoint>
          <Trackpoint>
            <Time>2019-07-19T11:12:22.000Z</Time>
            <Position>
              <LatitudeDegrees>40.59972555376589298248291015625</LatitudeDegrees>
              <LongitudeDegrees>-3.3593610115349292755126953125</LongitudeDegrees>
            </Position>
            <AltitudeMeters>725.20001220703125</AltitudeMeters>
            <DistanceMeters>62039.225044295</DistanceMeters>
          </Trackpoint>
          <Trackpoint>
            <Time>2019-07-19T11:12:31.000Z</Time>
            <Position>
              <LatitudeDegrees>40.59917653910815715789794921875</LatitudeDegrees>
              <LongitudeDegrees>-3.35953854024410247802734375</LongitudeDegrees>
            </Position>
            <AltitudeMeters>726.20001220703125</AltitudeMeters>
            <DistanceMeters>62102.146364495</DistanceMeters>
          </Trackpoint>
          <Trackpoint>
            <Time>2019-07-19T11:12:34.000Z</Time>
            <Position>
              <LatitudeDegrees>40.59899347834289073944091796875</LatitudeDegrees>
              <LongitudeDegrees>-3.35960081778466701507568359375</LongitudeDegrees>
            </Position>
            <AltitudeMeters>726.5999755859375</AltitudeMeters>
            <DistanceMeters>62123.190222955</DistanceMeters>
          </Trackpoint>
          <Trackpoint>
            <Time>2019-07-19T11:12:43.000Z</Time>
            <Position>
              <LatitudeDegrees>40.5984529294073581695556640625</LatitudeDegrees>
              <LongitudeDegrees>-3.359782956540584564208984375</LongitudeDegrees>
            </Position>
            <AltitudeMeters>726.79998779296875</AltitudeMeters>
            <DistanceMeters>62185.29212565</DistanceMeters>
          </Trackpoint>
          <Trackpoint>
            <Time>2019-07-19T11:12:52.000Z</Time>
            <Position>
              <LatitudeDegrees>40.597899891436100006103515625</LatitudeDegrees>
              <LongitudeDegrees>-3.35996945388615131378173828125</LongitudeDegrees>
            </Position>
            <AltitudeMeters>725.79998779296875</AltitudeMeters>
            <DistanceMeters>62248.832106119</DistanceMeters>
          </Trackpoint>
          <Trackpoint>
            <Time>2019-07-19T11:13:01.000Z</Time>
            <Position>
              <LatitudeDegrees>40.597340650856494903564453125</LatitudeDegrees>
              <LongitudeDegrees>-3.36015880107879638671875</LongitudeDegrees>
            </Position>
            <AltitudeMeters>726</AltitudeMeters>
            <DistanceMeters>62313.100732184</DistanceMeters>
          </Trackpoint>
          <Trackpoint>
            <Time>2019-07-19T11:13:04.000Z</Time>
            <Position>
              <LatitudeDegrees>40.59715717099606990814208984375</LatitudeDegrees>
              <LongitudeDegrees>-3.3602186478674411773681640625</LongitudeDegrees>
            </Position>
            <AltitudeMeters>725.5999755859375</AltitudeMeters>
            <DistanceMeters>62334.13965533</DistanceMeters>
          </Trackpoint>
          <Trackpoint>
            <Time>2019-07-19T11:13:13.000Z</Time>
            <Position>
              <LatitudeDegrees>40.59661888517439365386962890625</LatitudeDegrees>
              <LongitudeDegrees>-3.36040916852653026580810546875</LongitudeDegrees>
            </Position>
            <AltitudeMeters>725.20001220703125</AltitudeMeters>
            <DistanceMeters>62396.177836891</DistanceMeters>
          </Trackpoint>
          <Trackpoint>
            <Time>2019-07-19T11:13:22.000Z</Time>
            <Position>
              <LatitudeDegrees>40.59607355855405330657958984375</LatitudeDegrees>
              <LongitudeDegrees>-3.36061947047710418701171875</LongitudeDegrees>
            </Position>
            <AltitudeMeters>724.5999755859375</AltitudeMeters>
            <DistanceMeters>62459.422523791</DistanceMeters>
          </Trackpoint>
          <Trackpoint>
            <Time>2019-07-19T11:13:25.000Z</Time>
            <Position>
              <LatitudeDegrees>40.5958964489400386810302734375</LatitudeDegrees>
              <LongitudeDegrees>-3.36069499142467975616455078125</LongitudeDegrees>
            </Position>
            <AltitudeMeters>723</AltitudeMeters>
            <DistanceMeters>62480.142270274</DistanceMeters>
          </Trackpoint>
          <Trackpoint>
            <Time>2019-07-19T11:13:32.000Z</Time>
            <Position>
              <LatitudeDegrees>40.5955021642148494720458984375</LatitudeDegrees>
              <LongitudeDegrees>-3.36085324175655841827392578125</LongitudeDegrees>
            </Position>
            <AltitudeMeters>722</AltitudeMeters>
            <DistanceMeters>62526.019707513</DistanceMeters>
          </Trackpoint>
          <Trackpoint>
            <Time>2019-07-19T11:13:45.000Z</Time>
            <Position>
              <LatitudeDegrees>40.5949472822248935699462890625</LatitudeDegrees>
              <LongitudeDegrees>-3.36102490313351154327392578125</LongitudeDegrees>
            </Position>
            <AltitudeMeters>723</AltitudeMeters>
            <DistanceMeters>62589.460413146</DistanceMeters>
          </Trackpoint>
          <Trackpoint>
            <Time>2019-07-19T11:13:48.000Z</Time>
            <Position>
              <LatitudeDegrees>40.5948282591998577117919921875</LatitudeDegrees>
              <LongitudeDegrees>-3.361067064106464385986328125</LongitudeDegrees>
            </Position>
            <AltitudeMeters>722.5999755859375</AltitudeMeters>
            <DistanceMeters>62603.178532299</DistanceMeters>
          </Trackpoint>
          <Trackpoint>
            <Time>2019-07-19T11:13:51.000Z</Time>
            <Position>
              <LatitudeDegrees>40.594673864543437957763671875</LatitudeDegrees>
              <LongitudeDegrees>-3.361118026077747344970703125</LongitudeDegrees>
            </Position>
            <AltitudeMeters>720.5999755859375</AltitudeMeters>
            <DistanceMeters>62620.894580588</DistanceMeters>
          </Trackpoint>
          <Trackpoint>
            <Time>2019-07-19T11:13:55.000Z</Time>
            <Position>
              <LatitudeDegrees>40.5944316275417804718017578125</LatitudeDegrees>
              <LongitudeDegrees>-3.361201174557209014892578125</LongitudeDegrees>
            </Position>
            <AltitudeMeters>719.4000244140625</AltitudeMeters>
            <DistanceMeters>62648.757022546</DistanceMeters>
          </Trackpoint>
          <Trackpoint>
            <Time>2019-07-19T11:14:01.000Z</Time>
            <Position>
              <LatitudeDegrees>40.5940277874469757080078125</LatitudeDegrees>
              <LongitudeDegrees>-3.36134676821529865264892578125</LongitudeDegrees>
            </Position>
            <AltitudeMeters>721.20001220703125</AltitudeMeters>
            <DistanceMeters>62695.359076631</DistanceMeters>
          </Trackpoint>
          <Trackpoint>
            <Time>2019-07-19T11:14:05.000Z</Time>
            <Position>
              <LatitudeDegrees>40.59374724514782428741455078125</LatitudeDegrees>
              <LongitudeDegrees>-3.3614288270473480224609375</LongitudeDegrees>
            </Position>
            <AltitudeMeters>720</AltitudeMeters>
            <DistanceMeters>62727.345130797</DistanceMeters>
          </Trackpoint>
          <Trackpoint>
            <Time>2019-07-19T11:14:06.000Z</Time>
            <Position>
              <LatitudeDegrees>40.5936765857040882110595703125</LatitudeDegrees>
              <LongitudeDegrees>-3.36144634522497653961181640625</LongitudeDegrees>
            </Position>
            <AltitudeMeters>719</AltitudeMeters>
            <DistanceMeters>62735.347711764</DistanceMeters>
          </Trackpoint>
          <Trackpoint>
            <Time>2019-07-19T11:14:09.000Z</Time>
            <Position>
              <LatitudeDegrees>40.59346494264900684356689453125</LatitudeDegrees>
              <LongitudeDegrees>-3.36150786839425563812255859375</LongitudeDegrees>
            </Position>
            <AltitudeMeters>717.79998779296875</AltitudeMeters>
            <DistanceMeters>62759.471025101</DistanceMeters>
          </Trackpoint>
          <Trackpoint>
            <Time>2019-07-19T11:14:17.000Z</Time>
            <Position>
              <LatitudeDegrees>40.5929051153361797332763671875</LatitudeDegrees>
              <LongitudeDegrees>-3.36169905960559844970703125</LongitudeDegrees>
            </Position>
            <AltitudeMeters>717</AltitudeMeters>
            <DistanceMeters>62823.84213825</DistanceMeters>
          </Trackpoint>
          <Trackpoint>
            <Time>2019-07-19T11:14:19.000Z</Time>
            <Position>
              <LatitudeDegrees>40.59276488609611988067626953125</LatitudeDegrees>
              <LongitudeDegrees>-3.36174692027270793914794921875</LongitudeDegrees>
            </Position>
            <AltitudeMeters>716.79998779296875</AltitudeMeters>
            <DistanceMeters>62839.965626419</DistanceMeters>
          </Trackpoint>
          <Trackpoint>
            <Time>2019-07-19T11:14:27.000Z</Time>
            <Position>
              <LatitudeDegrees>40.592198856174945831298828125</LatitudeDegrees>
              <LongitudeDegrees>-3.36194942705333232879638671875</LongitudeDegrees>
            </Position>
            <AltitudeMeters>716.79998779296875</AltitudeMeters>
            <DistanceMeters>62905.249324994</DistanceMeters>
          </Trackpoint>
          <Trackpoint>
            <Time>2019-07-19T11:14:35.000Z</Time>
            <Position>
              <LatitudeDegrees>40.59163936413824558258056640625</LatitudeDegrees>
              <LongitudeDegrees>-3.36213315837085247039794921875</LongitudeDegrees>
            </Position>
            <AltitudeMeters>717.20001220703125</AltitudeMeters>
            <DistanceMeters>62969.428879288</DistanceMeters>
          </Trackpoint>
          <Trackpoint>
            <Time>2019-07-19T11:14:43.000Z</Time>
            <Position>
              <LatitudeDegrees>40.59108733199536800384521484375</LatitudeDegrees>
              <LongitudeDegrees>-3.362325690686702728271484375</LongitudeDegrees>
            </Position>
            <AltitudeMeters>717.4000244140625</AltitudeMeters>
            <DistanceMeters>63032.989605372</DistanceMeters>
          </Trackpoint>
          <Trackpoint>
            <Time>2019-07-19T11:14:49.000Z</Time>
            <Position>
              <LatitudeDegrees>40.5906725116074085235595703125</LatitudeDegrees>
              <LongitudeDegrees>-3.3624680154025554656982421875</LongitudeDegrees>
            </Position>
            <AltitudeMeters>718</AltitudeMeters>
            <DistanceMeters>63080.701344294</DistanceMeters>
          </Trackpoint>
          <Trackpoint>
            <Time>2019-07-19T11:14:52.000Z</Time>
            <Position>
              <LatitudeDegrees>40.5904612876474857330322265625</LatitudeDegrees>
              <LongitudeDegrees>-3.36253632791340351104736328125</LongitudeDegrees>
            </Position>
            <AltitudeMeters>719.20001220703125</AltitudeMeters>
            <DistanceMeters>63104.909854393</DistanceMeters>
          </Trackpoint>
          <Trackpoint>
            <Time>2019-07-19T11:15:00.000Z</Time>
            <Position>
              <LatitudeDegrees>40.5898866243660449981689453125</LatitudeDegrees>
              <LongitudeDegrees>-3.36273171007633209228515625</LongitudeDegrees>
            </Position>
            <AltitudeMeters>719.4000244140625</AltitudeMeters>
            <DistanceMeters>63170.968527716</DistanceMeters>
          </Trackpoint>
          <Trackpoint>
            <Time>2019-07-19T11:15:08.000Z</Time>
            <Position>
              <LatitudeDegrees>40.589316152036190032958984375</LatitudeDegrees>
              <LongitudeDegrees>-3.362925164401531219482421875</LongitudeDegrees>
            </Position>
            <AltitudeMeters>719.5999755859375</AltitudeMeters>
            <DistanceMeters>63236.534757077</DistanceMeters>
          </Trackpoint>
          <Trackpoint>
            <Time>2019-07-19T11:15:16.000Z</Time>
            <Position>
              <LatitudeDegrees>40.58875632472336292266845703125</LatitudeDegrees>
              <LongitudeDegrees>-3.3631194569170475006103515625</LongitudeDegrees>
            </Position>
            <AltitudeMeters>719.5999755859375</AltitudeMeters>
            <DistanceMeters>63300.97232935</DistanceMeters>
          </Trackpoint>
          <Trackpoint>
            <Time>2019-07-19T11:15:24.000Z</Time>
            <Position>
              <LatitudeDegrees>40.588205046951770782470703125</LatitudeDegrees>
              <LongitudeDegrees>-3.363309390842914581298828125</LongitudeDegrees>
            </Position>
            <AltitudeMeters>719.79998779296875</AltitudeMeters>
            <DistanceMeters>63364.396023211</DistanceMeters>
          </Trackpoint>
          <Trackpoint>
            <Time>2019-07-19T11:15:32.000Z</Time>
            <Position>
              <LatitudeDegrees>40.58766718022525310516357421875</LatitudeDegrees>
              <LongitudeDegrees>-3.36350024677813053131103515625</LongitudeDegrees>
            </Position>
            <AltitudeMeters>719.5999755859375</AltitudeMeters>
            <DistanceMeters>63426.397149511</DistanceMeters>
          </Trackpoint>
          <Trackpoint>
            <Time>2019-07-19T11:15:35.000Z</Time>
            <Position>
              <LatitudeDegrees>40.58746836148202419281005859375</LatitudeDegrees>
              <LongitudeDegrees>-3.36357082240283489227294921875</LongitudeDegrees>
            </Position>
            <AltitudeMeters>718</AltitudeMeters>
            <DistanceMeters>63449.316127384</DistanceMeters>
          </Trackpoint>
          <Trackpoint>
            <Time>2019-07-19T11:15:39.000Z</Time>
            <Position>
              <LatitudeDegrees>40.58720315806567668914794921875</LatitudeDegrees>
              <LongitudeDegrees>-3.3636629395186901092529296875</LongitudeDegrees>
            </Position>
            <AltitudeMeters>717</AltitudeMeters>
            <DistanceMeters>63479.843376181</DistanceMeters>
          </Trackpoint>
          <Trackpoint>
            <Time>2019-07-19T11:15:44.000Z</Time>
            <Position>
              <LatitudeDegrees>40.58687140233814716339111328125</LatitudeDegrees>
              <LongitudeDegrees>-3.3637779392302036285400390625</LongitudeDegrees>
            </Position>
            <AltitudeMeters>716</AltitudeMeters>
            <DistanceMeters>63518.026382377</DistanceMeters>
          </Trackpoint>
          <Trackpoint>
            <Time>2019-07-19T11:15:52.000Z</Time>
            <Position>
              <LatitudeDegrees>40.586344934999942779541015625</LatitudeDegrees>
              <LongitudeDegrees>-3.36396108381450176239013671875</LongitudeDegrees>
            </Position>
            <AltitudeMeters>715.79998779296875</AltitudeMeters>
            <DistanceMeters>63578.633613264</DistanceMeters>
          </Trackpoint>
          <Trackpoint>
            <Time>2019-07-19T11:16:01.000Z</Time>
            <Position>
              <LatitudeDegrees>40.58576046489179134368896484375</LatitudeDegrees>
              <LongitudeDegrees>-3.36414934135973453521728515625</LongitudeDegrees>
            </Position>
            <AltitudeMeters>715</AltitudeMeters>
            <DistanceMeters>63645.604191642</DistanceMeters>
          </Trackpoint>
          <Trackpoint>
            <Time>2019-07-19T11:16:10.000Z</Time>
            <Position>
              <LatitudeDegrees>40.58517591096460819244384765625</LatitudeDegrees>
              <LongitudeDegrees>-3.36434313096106052398681640625</LongitudeDegrees>
            </Position>
            <AltitudeMeters>715.5999755859375</AltitudeMeters>
            <DistanceMeters>63712.696484167</DistanceMeters>
          </Trackpoint>
          <Trackpoint>
            <Time>2019-07-19T11:16:14.000Z</Time>
            <Position>
              <LatitudeDegrees>40.5849097855389118194580078125</LatitudeDegrees>
              <LongitudeDegrees>-3.36443633772432804107666015625</LongitudeDegrees>
            </Position>
            <AltitudeMeters>714.5999755859375</AltitudeMeters>
            <DistanceMeters>63743.346687638</DistanceMeters>
          </Trackpoint>
          <Trackpoint>
            <Time>2019-07-19T11:16:22.000Z</Time>
            <Position>
              <LatitudeDegrees>40.5843959748744964599609375</LatitudeDegrees>
              <LongitudeDegrees>-3.364624343812465667724609375</LongitudeDegrees>
            </Position>
            <AltitudeMeters>713.5999755859375</AltitudeMeters>
            <DistanceMeters>63802.701958712</DistanceMeters>
          </Trackpoint>
          <Trackpoint>
            <Time>2019-07-19T11:16:28.000Z</Time>
            <Position>
              <LatitudeDegrees>40.58400294743478298187255859375</LatitudeDegrees>
              <LongitudeDegrees>-3.3647529222071170806884765625</LongitudeDegrees>
            </Position>
            <AltitudeMeters>712.5999755859375</AltitudeMeters>
            <DistanceMeters>63847.776486102</DistanceMeters>
          </Trackpoint>
          <Trackpoint>
            <Time>2019-07-19T11:16:37.000Z</Time>
            <Position>
              <LatitudeDegrees>40.58342912234365940093994140625</LatitudeDegrees>
              <LongitudeDegrees>-3.36494855582714080810546875</LongitudeDegrees>
            </Position>
            <AltitudeMeters>712.20001220703125</AltitudeMeters>
            <DistanceMeters>63913.750489214</DistanceMeters>
          </Trackpoint>
          <Trackpoint>
            <Time>2019-07-19T11:16:46.000Z</Time>
            <Position>
              <LatitudeDegrees>40.582878179848194122314453125</LatitudeDegrees>
              <LongitudeDegrees>-3.36513488553464412689208984375</LongitudeDegrees>
            </Position>
            <AltitudeMeters>712.4000244140625</AltitudeMeters>
            <DistanceMeters>63977.061890577</DistanceMeters>
          </Trackpoint>
          <Trackpoint>
            <Time>2019-07-19T11:16:57.000Z</Time>
            <Position>
              <LatitudeDegrees>40.58234232477843761444091796875</LatitudeDegrees>
              <LongitudeDegrees>-3.36531157605350017547607421875</LongitudeDegrees>
            </Position>
            <AltitudeMeters>712.20001220703125</AltitudeMeters>
            <DistanceMeters>64038.545276311</DistanceMeters>
          </Trackpoint>
          <Trackpoint>
            <Time>2019-07-19T11:17:09.000Z</Time>
            <Position>
              <LatitudeDegrees>40.58178626932203769683837890625</LatitudeDegrees>
              <LongitudeDegrees>-3.36550268344581127166748046875</LongitudeDegrees>
            </Position>
            <AltitudeMeters>712</AltitudeMeters>
            <DistanceMeters>64102.508914694</DistanceMeters>
          </Trackpoint>
          <Trackpoint>
            <Time>2019-07-19T11:17:22.000Z</Time>
            <Position>
              <LatitudeDegrees>40.58123105205595493316650390625</LatitudeDegrees>
              <LongitudeDegrees>-3.3657007478177547454833984375</LongitudeDegrees>
            </Position>
            <AltitudeMeters>712.4000244140625</AltitudeMeters>
            <DistanceMeters>64166.533652737</DistanceMeters>
          </Trackpoint>
          <Trackpoint>
            <Time>2019-07-19T11:17:34.000Z</Time>
            <Position>
              <LatitudeDegrees>40.58070550672709941864013671875</LatitudeDegrees>
              <LongitudeDegrees>-3.36589193902909755706787109375</LongitudeDegrees>
            </Position>
            <AltitudeMeters>712.4000244140625</AltitudeMeters>
            <DistanceMeters>64227.219575541</DistanceMeters>
          </Trackpoint>
          <Trackpoint>
            <Time>2019-07-19T11:17:46.000Z</Time>
            <Position>
              <LatitudeDegrees>40.58014534413814544677734375</LatitudeDegrees>
              <LongitudeDegrees>-3.36608103476464748382568359375</LongitudeDegrees>
            </Position>
            <AltitudeMeters>713.4000244140625</AltitudeMeters>
            <DistanceMeters>64291.583323489</DistanceMeters>
          </Trackpoint>
          <Trackpoint>
            <Time>2019-07-19T11:17:57.000Z</Time>
            <Position>
              <LatitudeDegrees>40.57960890233516693115234375</LatitudeDegrees>
              <LongitudeDegrees>-3.36627214215695858001708984375</LongitudeDegrees>
            </Position>
            <AltitudeMeters>712.79998779296875</AltitudeMeters>
            <DistanceMeters>64353.437320678</DistanceMeters>
          </Trackpoint>
          <Trackpoint>
            <Time>2019-07-19T11:18:08.000Z</Time>
            <Position>
              <LatitudeDegrees>40.57904019020497798919677734375</LatitudeDegrees>
              <LongitudeDegrees>-3.36646660231053829193115234375</LongitudeDegrees>
            </Position>
            <AltitudeMeters>712.5999755859375</AltitudeMeters>
            <DistanceMeters>64418.83579357</DistanceMeters>
          </Trackpoint>
          <Trackpoint>
            <Time>2019-07-19T11:18:18.000Z</Time>
            <Position>
              <LatitudeDegrees>40.57848262600600719451904296875</LatitudeDegrees>
              <LongitudeDegrees>-3.36665041744709014892578125</LongitudeDegrees>
            </Position>
            <AltitudeMeters>712.4000244140625</AltitudeMeters>
            <DistanceMeters>64482.809595757</DistanceMeters>
          </Trackpoint>
          <Trackpoint>
            <Time>2019-07-19T11:18:25.000Z</Time>
            <Position>
              <LatitudeDegrees>40.57811600156128406524658203125</LatitudeDegrees>
              <LongitudeDegrees>-3.36677690036594867706298828125</LongitudeDegrees>
            </Position>
            <AltitudeMeters>711.5999755859375</AltitudeMeters>
            <DistanceMeters>64524.993109171</DistanceMeters>
          </Trackpoint>
          <Trackpoint>
            <Time>2019-07-19T11:18:36.000Z</Time>
            <Position>
              <LatitudeDegrees>40.5775724351406097412109375</LatitudeDegrees>
              <LongitudeDegrees>-3.36696633137762546539306640625</LongitudeDegrees>
            </Position>
            <AltitudeMeters>711.5999755859375</AltitudeMeters>
            <DistanceMeters>64587.576551843</DistanceMeters>
          </Trackpoint>
          <Trackpoint>
            <Time>2019-07-19T11:18:47.000Z</Time>
            <Position>
              <LatitudeDegrees>40.57703574188053607940673828125</LatitudeDegrees>
              <LongitudeDegrees>-3.36715274490416049957275390625</LongitudeDegrees>
            </Position>
            <AltitudeMeters>711.79998779296875</AltitudeMeters>
            <DistanceMeters>64649.355318337</DistanceMeters>
          </Trackpoint>
          <Trackpoint>
            <Time>2019-07-19T11:18:50.000Z</Time>
            <Position>
              <LatitudeDegrees>40.5768857896327972412109375</LatitudeDegrees>
              <LongitudeDegrees>-3.3672068081796169281005859375</LongitudeDegrees>
            </Position>
            <AltitudeMeters>711.4000244140625</AltitudeMeters>
            <DistanceMeters>64666.659836965</DistanceMeters>
          </Trackpoint>
          <Trackpoint>
            <Time>2019-07-19T11:19:02.000Z</Time>
            <Position>
              <LatitudeDegrees>40.57634591124951839447021484375</LatitudeDegrees>
              <LongitudeDegrees>-3.36742029525339603424072265625</LongitudeDegrees>
            </Position>
            <AltitudeMeters>710.5999755859375</AltitudeMeters>
            <DistanceMeters>64729.40122063</DistanceMeters>
          </Trackpoint>
          <Trackpoint>
            <Time>2019-07-19T11:19:05.000Z</Time>
            <Position>
              <LatitudeDegrees>40.57621917687356472015380859375</LatitudeDegrees>
              <LongitudeDegrees>-3.3674790523946285247802734375</LongitudeDegrees>
            </Position>
            <AltitudeMeters>710.5999755859375</AltitudeMeters>
            <DistanceMeters>64744.355780912</DistanceMeters>
          </Trackpoint>
          <Trackpoint>
            <Time>2019-07-19T11:19:11.000Z</Time>
            <Position>
              <LatitudeDegrees>40.57603611610829830169677734375</LatitudeDegrees>
              <LongitudeDegrees>-3.36760352365672588348388671875</LongitudeDegrees>
            </Position>
            <AltitudeMeters>710.4000244140625</AltitudeMeters>
            <DistanceMeters>64767.287363318</DistanceMeters>
          </Trackpoint>
          <Trackpoint>
            <Time>2019-07-19T11:19:14.000Z</Time>
            <Position>
              <LatitudeDegrees>40.5760420672595500946044921875</LatitudeDegrees>
              <LongitudeDegrees>-3.3676309324800968170166015625</LongitudeDegrees>
            </Position>
            <AltitudeMeters>711</AltitudeMeters>
            <DistanceMeters>64769.698870985</DistanceMeters>
          </Trackpoint>
          <Trackpoint>
            <Time>2019-07-19T11:19:47.000Z</Time>
            <Position>
              <LatitudeDegrees>40.5759988166391849517822265625</LatitudeDegrees>
              <LongitudeDegrees>-3.3676000870764255523681640625</LongitudeDegrees>
            </Position>
            <AltitudeMeters>711.79998779296875</AltitudeMeters>
            <DistanceMeters>64775.174257163</DistanceMeters>
          </Trackpoint>
          <Trackpoint>
            <Time>2019-07-19T11:19:57.000Z</Time>
            <Position>
              <LatitudeDegrees>40.57561668567359447479248046875</LatitudeDegrees>
              <LongitudeDegrees>-3.36775481700897216796875</LongitudeDegrees>
            </Position>
            <AltitudeMeters>710.79998779296875</AltitudeMeters>
            <DistanceMeters>64819.672336248</DistanceMeters>
          </Trackpoint>
          <Trackpoint>
            <Time>2019-07-19T11:20:09.000Z</Time>
            <Position>
              <LatitudeDegrees>40.575096420943737030029296875</LatitudeDegrees>
              <LongitudeDegrees>-3.36802077479660511016845703125</LongitudeDegrees>
            </Position>
            <AltitudeMeters>710</AltitudeMeters>
            <DistanceMeters>64881.790740492</DistanceMeters>
          </Trackpoint>
          <Trackpoint>
            <Time>2019-07-19T11:20:11.000Z</Time>
            <Position>
              <LatitudeDegrees>40.57500547729432582855224609375</LatitudeDegrees>
              <LongitudeDegrees>-3.368072323501110076904296875</LongitudeDegrees>
            </Position>
            <AltitudeMeters>709.79998779296875</AltitudeMeters>
            <DistanceMeters>64892.811381497</DistanceMeters>
          </Trackpoint>
          <Trackpoint>
            <Time>2019-07-19T11:20:18.000Z</Time>
            <Position>
              <LatitudeDegrees>40.57463147677481174468994140625</LatitudeDegrees>
              <LongitudeDegrees>-3.36827441118657588958740234375</LongitudeDegrees>
            </Position>
            <AltitudeMeters>708.5999755859375</AltitudeMeters>
            <DistanceMeters>64937.807910474</DistanceMeters>
          </Trackpoint>
          <Trackpoint>
            <Time>2019-07-19T11:20:25.000Z</Time>
            <Position>
              <LatitudeDegrees>40.5742071010172367095947265625</LatitudeDegrees>
              <LongitudeDegrees>-3.36848362348973751068115234375</LongitudeDegrees>
            </Position>
            <AltitudeMeters>707.4000244140625</AltitudeMeters>
            <DistanceMeters>64988.244810609</DistanceMeters>
          </Trackpoint>
          <Trackpoint>
            <Time>2019-07-19T11:20:34.000Z</Time>
            <Position>
              <LatitudeDegrees>40.57365238666534423828125</LatitudeDegrees>
              <LongitudeDegrees>-3.36876676417887210845947265625</LongitudeDegrees>
            </Position>
            <AltitudeMeters>706.5999755859375</AltitudeMeters>
            <DistanceMeters>65054.463499968</DistanceMeters>
          </Trackpoint>
          <Trackpoint>
            <Time>2019-07-19T11:20:39.000Z</Time>
            <Position>
              <LatitudeDegrees>40.57334602810442447662353515625</LatitudeDegrees>
              <LongitudeDegrees>-3.36891554296016693115234375</LongitudeDegrees>
            </Position>
            <AltitudeMeters>708.4000244140625</AltitudeMeters>
            <DistanceMeters>65090.807708889</DistanceMeters>
          </Trackpoint>
          <Trackpoint>
            <Time>2019-07-19T11:20:48.000Z</Time>
            <Position>
              <LatitudeDegrees>40.57279282249510288238525390625</LatitudeDegrees>
              <LongitudeDegrees>-3.369204215705394744873046875</LongitudeDegrees>
            </Position>
            <AltitudeMeters>708.5999755859375</AltitudeMeters>
            <DistanceMeters>65157.040783456</DistanceMeters>
          </Trackpoint>
          <Trackpoint>
            <Time>2019-07-19T11:20:57.000Z</Time>
            <Position>
              <LatitudeDegrees>40.57226157747209072113037109375</LatitudeDegrees>
              <LongitudeDegrees>-3.36947704665362834930419921875</LongitudeDegrees>
            </Position>
            <AltitudeMeters>707.79998779296875</AltitudeMeters>
            <DistanceMeters>65220.509096817</DistanceMeters>
          </Trackpoint>
          <Trackpoint>
            <Time>2019-07-19T11:21:06.000Z</Time>
            <Position>
              <LatitudeDegrees>40.57173334993422031402587890625</LatitudeDegrees>
              <LongitudeDegrees>-3.36975331418216228485107421875</LongitudeDegrees>
            </Position>
            <AltitudeMeters>707.5999755859375</AltitudeMeters>
            <DistanceMeters>65283.771485959</DistanceMeters>
          </Trackpoint>
          <Trackpoint>
            <Time>2019-07-19T11:21:10.000Z</Time>
            <Position>
              <LatitudeDegrees>40.5714947171509265899658203125</LatitudeDegrees>
              <LongitudeDegrees>-3.36987200193107128143310546875</LongitudeDegrees>
            </Position>
            <AltitudeMeters>707.4000244140625</AltitudeMeters>
            <DistanceMeters>65312.163967082</DistanceMeters>
          </Trackpoint>
          <Trackpoint>
            <Time>2019-07-19T11:21:19.000Z</Time>
            <Position>
              <LatitudeDegrees>40.5709723569452762603759765625</LatitudeDegrees>
              <LongitudeDegrees>-3.3701434917747974395751953125</LongitudeDegrees>
            </Position>
            <AltitudeMeters>707.4000244140625</AltitudeMeters>
            <DistanceMeters>65374.67052886</DistanceMeters>
          </Trackpoint>
          <Trackpoint>
            <Time>2019-07-19T11:21:28.000Z</Time>
            <Position>
              <LatitudeDegrees>40.570440776646137237548828125</LatitudeDegrees>
              <LongitudeDegrees>-3.37041447870433330535888671875</LongitudeDegrees>
            </Position>
            <AltitudeMeters>707.4000244140625</AltitudeMeters>
            <DistanceMeters>65438.11742593</DistanceMeters>
          </Trackpoint>
          <Trackpoint>
            <Time>2019-07-19T11:21:37.000Z</Time>
            <Position>
              <LatitudeDegrees>40.5698904208838939666748046875</LatitudeDegrees>
              <LongitudeDegrees>-3.37069728411734104156494140625</LongitudeDegrees>
            </Position>
            <AltitudeMeters>706.4000244140625</AltitudeMeters>
            <DistanceMeters>65503.874195729</DistanceMeters>
          </Trackpoint>
          <Trackpoint>
            <Time>2019-07-19T11:21:38.000Z</Time>
            <Position>
              <LatitudeDegrees>40.5698290653526782989501953125</LatitudeDegrees>
              <LongitudeDegrees>-3.37072930298745632171630859375</LongitudeDegrees>
            </Position>
            <AltitudeMeters>706.20001220703125</AltitudeMeters>
            <DistanceMeters>65511.219582496</DistanceMeters>
          </Trackpoint>
          <Trackpoint>
            <Time>2019-07-19T11:21:47.000Z</Time>
            <Position>
              <LatitudeDegrees>40.56928264908492565155029296875</LatitudeDegrees>
              <LongitudeDegrees>-3.3710095100104808807373046875</LongitudeDegrees>
            </Position>
            <AltitudeMeters>706</AltitudeMeters>
            <DistanceMeters>65576.488064038</DistanceMeters>
          </Trackpoint>
          <Trackpoint>
            <Time>2019-07-19T11:21:56.000Z</Time>
            <Position>
              <LatitudeDegrees>40.56873514316976070404052734375</LatitudeDegrees>
              <LongitudeDegrees>-3.371291644871234893798828125</LongitudeDegrees>
            </Position>
            <AltitudeMeters>706.20001220703125</AltitudeMeters>
            <DistanceMeters>65641.928913081</DistanceMeters>
          </Trackpoint>
          <Trackpoint>
            <Time>2019-07-19T11:22:02.000Z</Time>
            <Position>
              <LatitudeDegrees>40.56834907270967960357666015625</LatitudeDegrees>
              <LongitudeDegrees>-3.371488116681575775146484375</LongitudeDegrees>
            </Position>
            <AltitudeMeters>705.20001220703125</AltitudeMeters>
            <DistanceMeters>65687.998350316</DistanceMeters>
          </Trackpoint>
          <Trackpoint>
            <Time>2019-07-19T11:22:11.000Z</Time>
            <Position>
              <LatitudeDegrees>40.5677939392626285552978515625</LatitudeDegrees>
              <LongitudeDegrees>-3.37177284993231296539306640625</LongitudeDegrees>
            </Position>
            <AltitudeMeters>704.5999755859375</AltitudeMeters>
            <DistanceMeters>65754.310045173</DistanceMeters>
          </Trackpoint>
          <Trackpoint>
            <Time>2019-07-19T11:22:14.000Z</Time>
            <Position>
              <LatitudeDegrees>40.56760710664093494415283203125</LatitudeDegrees>
              <LongitudeDegrees>-3.3718654699623584747314453125</LongitudeDegrees>
            </Position>
            <AltitudeMeters>704</AltitudeMeters>
            <DistanceMeters>65776.530656098</DistanceMeters>
          </Trackpoint>
          <Trackpoint>
            <Time>2019-07-19T11:22:23.000Z</Time>
            <Position>
              <LatitudeDegrees>40.5670496262609958648681640625</LatitudeDegrees>
              <LongitudeDegrees>-3.3721534721553325653076171875</LongitudeDegrees>
            </Position>
            <AltitudeMeters>703.79998779296875</AltitudeMeters>
            <DistanceMeters>65843.186325114</DistanceMeters>
          </Trackpoint>
          <Trackpoint>
            <Time>2019-07-19T11:22:30.000Z</Time>
            <Position>
              <LatitudeDegrees>40.56660932488739490509033203125</LatitudeDegrees>
              <LongitudeDegrees>-3.37237064726650714874267578125</LongitudeDegrees>
            </Position>
            <AltitudeMeters>703</AltitudeMeters>
            <DistanceMeters>65895.519910175</DistanceMeters>
          </Trackpoint>
          <Trackpoint>
            <Time>2019-07-19T11:22:34.000Z</Time>
            <Position>
              <LatitudeDegrees>40.566369183361530303955078125</LatitudeDegrees>
              <LongitudeDegrees>-3.372492603957653045654296875</LongitudeDegrees>
            </Position>
            <AltitudeMeters>702</AltitudeMeters>
            <DistanceMeters>65924.168376415</DistanceMeters>
          </Trackpoint>
          <Trackpoint>
            <Time>2019-07-19T11:22:43.000Z</Time>
            <Position>
              <LatitudeDegrees>40.56582896970212459564208984375</LatitudeDegrees>
              <LongitudeDegrees>-3.372774235904216766357421875</LongitudeDegrees>
            </Position>
            <AltitudeMeters>701.20001220703125</AltitudeMeters>
            <DistanceMeters>65988.83878576</DistanceMeters>
          </Trackpoint>
          <Trackpoint>
            <Time>2019-07-19T11:22:52.000Z</Time>
            <Position>
              <LatitudeDegrees>40.565268807113170623779296875</LatitudeDegrees>
              <LongitudeDegrees>-3.37306198664009571075439453125</LongitudeDegrees>
            </Position>
            <AltitudeMeters>701.4000244140625</AltitudeMeters>
            <DistanceMeters>66055.764988237</DistanceMeters>
          </Trackpoint>
          <Trackpoint>
            <Time>2019-07-19T11:23:00.000Z</Time>
            <Position>
              <LatitudeDegrees>40.56476295925676822662353515625</LatitudeDegrees>
              <LongitudeDegrees>-3.37332434020936489105224609375</LongitudeDegrees>
            </Position>
            <AltitudeMeters>701.5999755859375</AltitudeMeters>
            <DistanceMeters>66116.279175832</DistanceMeters>
          </Trackpoint>
          <Trackpoint>
            <Time>2019-07-19T11:23:04.000Z</Time>
            <Position>
              <LatitudeDegrees>40.5645169503986835479736328125</LatitudeDegrees>
              <LongitudeDegrees>-3.373446799814701080322265625</LongitudeDegrees>
            </Position>
            <AltitudeMeters>700.79998779296875</AltitudeMeters>
            <DistanceMeters>66145.552956841</DistanceMeters>
          </Trackpoint>
          <Trackpoint>
            <Time>2019-07-19T11:23:08.000Z</Time>
            <Position>
              <LatitudeDegrees>40.56427546776831150054931640625</LatitudeDegrees>
              <LongitudeDegrees>-3.3735720254480838775634765625</LongitudeDegrees>
            </Position>
            <AltitudeMeters>699.79998779296875</AltitudeMeters>
            <DistanceMeters>66174.44076542</DistanceMeters>
          </Trackpoint>
          <Trackpoint>
            <Time>2019-07-19T11:23:13.000Z</Time>
            <Position>
              <LatitudeDegrees>40.56397086940705776214599609375</LatitudeDegrees>
              <LongitudeDegrees>-3.3737269230186939239501953125</LongitudeDegrees>
            </Position>
            <AltitudeMeters>698.79998779296875</AltitudeMeters>
            <DistanceMeters>66210.78497434</DistanceMeters>
          </Trackpoint>
          <Trackpoint>
            <Time>2019-07-19T11:23:21.000Z</Time>
            <Position>
              <LatitudeDegrees>40.56348136626183986663818359375</LatitudeDegrees>
              <LongitudeDegrees>-3.37398449890315532684326171875</LongitudeDegrees>
            </Position>
            <AltitudeMeters>700</AltitudeMeters>
            <DistanceMeters>66269.459488264</DistanceMeters>
          </Trackpoint>
          <Trackpoint>
            <Time>2019-07-19T11:23:30.000Z</Time>
            <Position>
              <LatitudeDegrees>40.56293335743248462677001953125</LatitudeDegrees>
              <LongitudeDegrees>-3.37426043115556240081787109375</LongitudeDegrees>
            </Position>
            <AltitudeMeters>699.5999755859375</AltitudeMeters>
            <DistanceMeters>66334.764000762</DistanceMeters>
          </Trackpoint>
          <Trackpoint>
            <Time>2019-07-19T11:23:38.000Z</Time>
            <Position>
              <LatitudeDegrees>40.56244804523885250091552734375</LatitudeDegrees>
              <LongitudeDegrees>-3.37450702674686908721923828125</LongitudeDegrees>
            </Position>
            <AltitudeMeters>698.79998779296875</AltitudeMeters>
            <DistanceMeters>66392.664831331</DistanceMeters>
          </Trackpoint>
          <Trackpoint>
            <Time>2019-07-19T11:23:47.000Z</Time>
            <Position>
              <LatitudeDegrees>40.56193591095507144927978515625</LatitudeDegrees>
              <LongitudeDegrees>-3.374765776097774505615234375</LongitudeDegrees>
            </Position>
            <AltitudeMeters>698.5999755859375</AltitudeMeters>
            <DistanceMeters>66453.721103721</DistanceMeters>
          </Trackpoint>
          <Trackpoint>
            <Time>2019-07-19T11:23:56.000Z</Time>
            <Position>
              <LatitudeDegrees>40.56141681969165802001953125</LatitudeDegrees>
              <LongitudeDegrees>-3.37502486072480678558349609375</LongitudeDegrees>
            </Position>
            <AltitudeMeters>697.79998779296875</AltitudeMeters>
            <DistanceMeters>66515.510977982</DistanceMeters>
          </Trackpoint>
          <Trackpoint>
            <Time>2019-07-19T11:24:05.000Z</Time>
            <Position>
              <LatitudeDegrees>40.56096578948199748992919921875</LatitudeDegrees>
              <LongitudeDegrees>-3.3752474002540111541748046875</LongitudeDegrees>
            </Position>
            <AltitudeMeters>698.20001220703125</AltitudeMeters>
            <DistanceMeters>66569.122385643</DistanceMeters>
          </Trackpoint>
          <Trackpoint>
            <Time>2019-07-19T11:24:08.000Z</Time>
            <Position>
              <LatitudeDegrees>40.5608165077865123748779296875</LatitudeDegrees>
              <LongitudeDegrees>-3.37524153292179107666015625</LongitudeDegrees>
            </Position>
            <AltitudeMeters>697.79998779296875</AltitudeMeters>
            <DistanceMeters>66585.745271649</DistanceMeters>
          </Trackpoint>
          <Trackpoint>
            <Time>2019-07-19T11:24:09.000Z</Time>
            <Position>
              <LatitudeDegrees>40.56076831184327602386474609375</LatitudeDegrees>
              <LongitudeDegrees>-3.3752246014773845672607421875</LongitudeDegrees>
            </Position>
            <AltitudeMeters>697.79998779296875</AltitudeMeters>
            <DistanceMeters>66591.297629795</DistanceMeters>
          </Trackpoint>
          <Trackpoint>
            <Time>2019-07-19T11:24:10.000Z</Time>
            <Position>
              <LatitudeDegrees>40.5607162602245807647705078125</LatitudeDegrees>
              <LongitudeDegrees>-3.3752111904323101043701171875</LongitudeDegrees>
            </Position>
            <AltitudeMeters>697.5999755859375</AltitudeMeters>
            <DistanceMeters>66597.201534865</DistanceMeters>
          </Trackpoint>
          <Trackpoint>
            <Time>2019-07-19T11:24:12.000Z</Time>
            <Position>
              <LatitudeDegrees>40.56060545146465301513671875</LatitudeDegrees>
              <LongitudeDegrees>-3.37522401474416255950927734375</LongitudeDegrees>
            </Position>
            <AltitudeMeters>697.5999755859375</AltitudeMeters>
            <DistanceMeters>66609.582024256</DistanceMeters>
          </Trackpoint>
          <Trackpoint>
            <Time>2019-07-19T11:24:19.000Z</Time>
            <Position>
              <LatitudeDegrees>40.56025600992143154144287109375</LatitudeDegrees>
              <LongitudeDegrees>-3.37540355511009693145751953125</LongitudeDegrees>
            </Position>
            <AltitudeMeters>698</AltitudeMeters>
            <DistanceMeters>66651.333479523</DistanceMeters>
          </Trackpoint>
          <Trackpoint>
            <Time>2019-07-19T11:24:21.000Z</Time>
            <Position>
              <LatitudeDegrees>40.56017269380390644073486328125</LatitudeDegrees>
              <LongitudeDegrees>-3.37546977214515209197998046875</LongitudeDegrees>
            </Position>
            <AltitudeMeters>698.20001220703125</AltitudeMeters>
            <DistanceMeters>66662.166108169</DistanceMeters>
          </Trackpoint>
          <Trackpoint>
            <Time>2019-07-19T11:24:23.000Z</Time>
            <Position>
              <LatitudeDegrees>40.56008418090641498565673828125</LatitudeDegrees>
              <LongitudeDegrees>-3.3754978515207767486572265625</LongitudeDegrees>
            </Position>
            <AltitudeMeters>699</AltitudeMeters>
            <DistanceMeters>66672.300608131</DistanceMeters>
          </Trackpoint>
          <Trackpoint>
            <Time>2019-07-19T11:24:25.000Z</Time>
            <Position>
              <LatitudeDegrees>40.55999659001827239990234375</LatitudeDegrees>
              <LongitudeDegrees>-3.37552123703062534332275390625</LongitudeDegrees>
            </Position>
            <AltitudeMeters>699.20001220703125</AltitudeMeters>
            <DistanceMeters>66682.248048891</DistanceMeters>
          </Trackpoint>
          <Trackpoint>
            <Time>2019-07-19T11:24:29.000Z</Time>
            <Position>
              <LatitudeDegrees>40.5598093383014202117919921875</LatitudeDegrees>
              <LongitudeDegrees>-3.3756115101277828216552734375</LongitudeDegrees>
            </Position>
            <AltitudeMeters>699.20001220703125</AltitudeMeters>
            <DistanceMeters>66704.443449775</DistanceMeters>
          </Trackpoint>
          <Trackpoint>
            <Time>2019-07-19T11:24:41.000Z</Time>
            <Position>
              <LatitudeDegrees>40.559286810457706451416015625</LatitudeDegrees>
              <LongitudeDegrees>-3.37592323310673236846923828125</LongitudeDegrees>
            </Position>
            <AltitudeMeters>699.5999755859375</AltitudeMeters>
            <DistanceMeters>66768.296452332</DistanceMeters>
          </Trackpoint>
          <Trackpoint>
            <Time>2019-07-19T11:24:45.000Z</Time>
            <Position>
              <LatitudeDegrees>40.55912889540195465087890625</LatitudeDegrees>
              <LongitudeDegrees>-3.3759990893304347991943359375</LongitudeDegrees>
            </Position>
            <AltitudeMeters>697.79998779296875</AltitudeMeters>
            <DistanceMeters>66787.006341252</DistanceMeters>
          </Trackpoint>
          <Trackpoint>
            <Time>2019-07-19T11:24:54.000Z</Time>
            <Position>
              <LatitudeDegrees>40.55876486934721469879150390625</LatitudeDegrees>
              <LongitudeDegrees>-3.37618474848568439483642578125</LongitudeDegrees>
            </Position>
            <AltitudeMeters>696.79998779296875</AltitudeMeters>
            <DistanceMeters>66830.458390957</DistanceMeters>
          </Trackpoint>
          <Trackpoint>
            <Time>2019-07-19T11:25:01.000Z</Time>
            <Position>
              <LatitudeDegrees>40.5585180222988128662109375</LatitudeDegrees>
              <LongitudeDegrees>-3.37632271461188793182373046875</LongitudeDegrees>
            </Position>
            <AltitudeMeters>697.4000244140625</AltitudeMeters>
            <DistanceMeters>66860.307369539</DistanceMeters>
          </Trackpoint>
          <Trackpoint>
            <Time>2019-07-19T11:25:16.000Z</Time>
            <Position>
              <LatitudeDegrees>40.55797445587813854217529296875</LatitudeDegrees>
              <LongitudeDegrees>-3.37650862522423267364501953125</LongitudeDegrees>
            </Position>
            <AltitudeMeters>697</AltitudeMeters>
            <DistanceMeters>66922.816603882</DistanceMeters>
          </Trackpoint>
          <Trackpoint>
            <Time>2019-07-19T11:25:19.000Z</Time>
            <Position>
              <LatitudeDegrees>40.55789239704608917236328125</LatitudeDegrees>
              <LongitudeDegrees>-3.3764490298926830291748046875</LongitudeDegrees>
            </Position>
            <AltitudeMeters>697</AltitudeMeters>
            <DistanceMeters>66933.247923125</DistanceMeters>
          </Trackpoint>
          <Trackpoint>
            <Time>2019-07-19T11:25:23.000Z</Time>
            <Position>
              <LatitudeDegrees>40.55783816613256931304931640625</LatitudeDegrees>
              <LongitudeDegrees>-3.3762609399855136871337890625</LongitudeDegrees>
            </Position>
            <AltitudeMeters>697</AltitudeMeters>
            <DistanceMeters>66950.260093769</DistanceMeters>
          </Trackpoint>
          <Trackpoint>
            <Time>2019-07-19T11:25:27.000Z</Time>
            <Position>
              <LatitudeDegrees>40.5577564425766468048095703125</LatitudeDegrees>
              <LongitudeDegrees>-3.37603085674345493316650390625</LongitudeDegrees>
            </Position>
            <AltitudeMeters>695.5999755859375</AltitudeMeters>
            <DistanceMeters>66971.73781304</DistanceMeters>
          </Trackpoint>
          <Trackpoint>
            <Time>2019-07-19T11:25:29.000Z</Time>
            <Position>
              <LatitudeDegrees>40.5577053129673004150390625</LatitudeDegrees>
              <LongitudeDegrees>-3.3759085647761821746826171875</LongitudeDegrees>
            </Position>
            <AltitudeMeters>694.79998779296875</AltitudeMeters>
            <DistanceMeters>66983.541798787</DistanceMeters>
          </Trackpoint>
          <Trackpoint>
            <Time>2019-07-19T11:25:34.000Z</Time>
            <Position>
              <LatitudeDegrees>40.557592324912548065185546875</LatitudeDegrees>
              <LongitudeDegrees>-3.37558544240891933441162109375</LongitudeDegrees>
            </Position>
            <AltitudeMeters>694.4000244140625</AltitudeMeters>
            <DistanceMeters>67013.620868739</DistanceMeters>
          </Trackpoint>
          <Trackpoint>
            <Time>2019-07-19T11:25:40.000Z</Time>
            <Position>
              <LatitudeDegrees>40.55744606070220470428466796875</LatitudeDegrees>
              <LongitudeDegrees>-3.375138603150844573974609375</LongitudeDegrees>
            </Position>
            <AltitudeMeters>693.4000244140625</AltitudeMeters>
            <DistanceMeters>67054.76425375</DistanceMeters>
          </Trackpoint>
          <Trackpoint>
            <Time>2019-07-19T11:25:43.000Z</Time>
            <Position>
              <LatitudeDegrees>40.55736760608851909637451171875</LatitudeDegrees>
              <LongitudeDegrees>-3.3749238587915897369384765625</LongitudeDegrees>
            </Position>
            <AltitudeMeters>694.4000244140625</AltitudeMeters>
            <DistanceMeters>67074.913950946</DistanceMeters>
          </Trackpoint>
          <Trackpoint>
            <Time>2019-07-19T11:25:49.000Z</Time>
            <Position>
              <LatitudeDegrees>40.55724271573126316070556640625</LatitudeDegrees>
              <LongitudeDegrees>-3.374543488025665283203125</LongitudeDegrees>
            </Position>
            <AltitudeMeters>693.4000244140625</AltitudeMeters>
            <DistanceMeters>67109.954206283</DistanceMeters>
          </Trackpoint>
          <Trackpoint>
            <Time>2019-07-19T11:25:58.000Z</Time>
            <Position>
              <LatitudeDegrees>40.55707021616399288177490234375</LatitudeDegrees>
              <LongitudeDegrees>-3.3740003407001495361328125</LongitudeDegrees>
            </Position>
            <AltitudeMeters>692.5999755859375</AltitudeMeters>
            <DistanceMeters>67159.735508586</DistanceMeters>
          </Trackpoint>
          <Trackpoint>
            <Time>2019-07-19T11:25:59.000Z</Time>
            <Position>
              <LatitudeDegrees>40.5570454895496368408203125</LatitudeDegrees>
              <LongitudeDegrees>-3.37393990717828273773193359375</LongitudeDegrees>
            </Position>
            <AltitudeMeters>692.20001220703125</AltitudeMeters>
            <DistanceMeters>67165.539922011</DistanceMeters>
          </Trackpoint>
          <Trackpoint>
            <Time>2019-07-19T11:26:01.000Z</Time>
            <Position>
              <LatitudeDegrees>40.55698907934129238128662109375</LatitudeDegrees>
              <LongitudeDegrees>-3.37382306344807147979736328125</LongitudeDegrees>
            </Position>
            <AltitudeMeters>691.5999755859375</AltitudeMeters>
            <DistanceMeters>67177.246734993</DistanceMeters>
          </Trackpoint>
          <Trackpoint>
            <Time>2019-07-19T11:26:03.000Z</Time>
            <Position>
              <LatitudeDegrees>40.556896626949310302734375</LatitudeDegrees>
              <LongitudeDegrees>-3.37376606650650501251220703125</LongitudeDegrees>
            </Position>
            <AltitudeMeters>691.4000244140625</AltitudeMeters>
            <DistanceMeters>67188.609879939</DistanceMeters>
          </Trackpoint>
          <Trackpoint>
            <Time>2019-07-19T11:26:05.000Z</Time>
            <Position>
              <LatitudeDegrees>40.556801743805408477783203125</LatitudeDegrees>
              <LongitudeDegrees>-3.37377729825675487518310546875</LongitudeDegrees>
            </Position>
            <AltitudeMeters>691.20001220703125</AltitudeMeters>
            <DistanceMeters>67199.213771295</DistanceMeters>
          </Trackpoint>
          <Trackpoint>
            <Time>2019-07-19T11:26:07.000Z</Time>
            <Position>
              <LatitudeDegrees>40.55671750567853450775146484375</LatitudeDegrees>
              <LongitudeDegrees>-3.37381434626877307891845703125</LongitudeDegrees>
            </Position>
            <AltitudeMeters>691.20001220703125</AltitudeMeters>
            <DistanceMeters>67209.099290365</DistanceMeters>
          </Trackpoint>
          <Trackpoint>
            <Time>2019-07-19T11:26:11.000Z</Time>
            <Position>
              <LatitudeDegrees>40.556548945605754852294921875</LatitudeDegrees>
              <LongitudeDegrees>-3.3738984167575836181640625</LongitudeDegrees>
            </Position>
            <AltitudeMeters>691.4000244140625</AltitudeMeters>
            <DistanceMeters>67229.162308272</DistanceMeters>
          </Trackpoint>
          <Trackpoint>
            <Time>2019-07-19T11:26:25.000Z</Time>
            <Position>
              <LatitudeDegrees>40.5560126714408397674560546875</LatitudeDegrees>
              <LongitudeDegrees>-3.37415599264204502105712890625</LongitudeDegrees>
            </Position>
            <AltitudeMeters>691.20001220703125</AltitudeMeters>
            <DistanceMeters>67292.700725441</DistanceMeters>
          </Trackpoint>
          <Trackpoint>
            <Time>2019-07-19T11:26:38.000Z</Time>
            <Position>
              <LatitudeDegrees>40.555492155253887176513671875</LatitudeDegrees>
              <LongitudeDegrees>-3.37442404590547084808349609375</LongitudeDegrees>
            </Position>
            <AltitudeMeters>690.79998779296875</AltitudeMeters>
            <DistanceMeters>67354.911950983</DistanceMeters>
          </Trackpoint>
          <Trackpoint>
            <Time>2019-07-19T11:26:43.000Z</Time>
            <Position>
              <LatitudeDegrees>40.5552914924919605255126953125</LatitudeDegrees>
              <LongitudeDegrees>-3.37451725266873836517333984375</LongitudeDegrees>
            </Position>
            <AltitudeMeters>690.20001220703125</AltitudeMeters>
            <DistanceMeters>67378.596108528</DistanceMeters>
          </Trackpoint>
          <Trackpoint>
            <Time>2019-07-19T11:26:46.000Z</Time>
            <Position>
              <LatitudeDegrees>40.55517397820949554443359375</LatitudeDegrees>
              <LongitudeDegrees>-3.3745716512203216552734375</LongitudeDegrees>
            </Position>
            <AltitudeMeters>689.79998779296875</AltitudeMeters>
            <DistanceMeters>67392.461219325</DistanceMeters>
          </Trackpoint>
          <Trackpoint>
            <Time>2019-07-19T11:27:00.000Z</Time>
            <Position>
              <LatitudeDegrees>40.55474490858614444732666015625</LatitudeDegrees>
              <LongitudeDegrees>-3.37475831620395183563232421875</LongitudeDegrees>
            </Position>
            <AltitudeMeters>690.5999755859375</AltitudeMeters>
            <DistanceMeters>67442.758815256</DistanceMeters>
          </Trackpoint>
          <Trackpoint>
            <Time>2019-07-19T11:27:05.000Z</Time>
            <Position>
              <LatitudeDegrees>40.55472244508564472198486328125</LatitudeDegrees>
              <LongitudeDegrees>-3.37482017464935779571533203125</LongitudeDegrees>
            </Position>
            <AltitudeMeters>691</AltitudeMeters>
            <DistanceMeters>67448.557781084</DistanceMeters>
          </Trackpoint>
          <Trackpoint>
            <Time>2019-07-19T11:27:15.000Z</Time>
            <Position>
              <LatitudeDegrees>40.55467299185693264007568359375</LatitudeDegrees>
              <LongitudeDegrees>-3.374836854636669158935546875</LongitudeDegrees>
            </Position>
            <AltitudeMeters>691</AltitudeMeters>
            <DistanceMeters>67454.241141309</DistanceMeters>
          </Trackpoint>
          <Trackpoint>
            <Time>2019-07-19T11:27:17.000Z</Time>
            <Position>
              <LatitudeDegrees>40.554637871682643890380859375</LatitudeDegrees>
              <LongitudeDegrees>-3.37484716437757015228271484375</LongitudeDegrees>
            </Position>
            <AltitudeMeters>691</AltitudeMeters>
            <DistanceMeters>67458.245815548</DistanceMeters>
          </Trackpoint>
          <Trackpoint>
            <Time>2019-07-19T11:27:33.000Z</Time>
            <Position>
              <LatitudeDegrees>40.5541150085628032684326171875</LatitudeDegrees>
              <LongitudeDegrees>-3.3750730566680431365966796875</LongitudeDegrees>
            </Position>
            <AltitudeMeters>690.20001220703125</AltitudeMeters>
            <DistanceMeters>67519.496559377</DistanceMeters>
          </Trackpoint>
          <Trackpoint>
            <Time>2019-07-19T11:27:35.000Z</Time>
            <Position>
              <LatitudeDegrees>40.5540521442890167236328125</LatitudeDegrees>
              <LongitudeDegrees>-3.3751082606613636016845703125</LongitudeDegrees>
            </Position>
            <AltitudeMeters>690</AltitudeMeters>
            <DistanceMeters>67527.099884268</DistanceMeters>
          </Trackpoint>
          <Trackpoint>
            <Time>2019-07-19T11:27:48.000Z</Time>
            <Position>
              <LatitudeDegrees>40.553833879530429840087890625</LatitudeDegrees>
              <LongitudeDegrees>-3.37445505894720554351806640625</LongitudeDegrees>
            </Position>
            <AltitudeMeters>690.4000244140625</AltitudeMeters>
            <DistanceMeters>67587.444915606</DistanceMeters>
          </Trackpoint>
          <Trackpoint>
            <Time>2019-07-19T11:28:00.000Z</Time>
            <Position>
              <LatitudeDegrees>40.55366448126733303070068359375</LatitudeDegrees>
              <LongitudeDegrees>-3.373991288244724273681640625</LongitudeDegrees>
            </Position>
            <AltitudeMeters>690</AltitudeMeters>
            <DistanceMeters>67630.961133397</DistanceMeters>
          </Trackpoint>
          <Trackpoint>
            <Time>2019-07-19T11:28:14.000Z</Time>
            <Position>
              <LatitudeDegrees>40.55362173356115818023681640625</LatitudeDegrees>
              <LongitudeDegrees>-3.37401601485908031463623046875</LongitudeDegrees>
            </Position>
            <AltitudeMeters>690</AltitudeMeters>
            <DistanceMeters>67636.158147794</DistanceMeters>
          </Trackpoint>
          <Trackpoint>
            <Time>2019-07-19T11:28:31.000Z</Time>
            <Position>
              <LatitudeDegrees>40.55311395786702632904052734375</LatitudeDegrees>
              <LongitudeDegrees>-3.3742710761725902557373046875</LongitudeDegrees>
            </Position>
            <AltitudeMeters>690</AltitudeMeters>
            <DistanceMeters>67696.650843537</DistanceMeters>
          </Trackpoint>
          <Trackpoint>
            <Time>2019-07-19T11:28:41.000Z</Time>
            <Position>
              <LatitudeDegrees>40.5527029931545257568359375</LatitudeDegrees>
              <LongitudeDegrees>-3.37448188103735446929931640625</LongitudeDegrees>
            </Position>
            <AltitudeMeters>689.4000244140625</AltitudeMeters>
            <DistanceMeters>67745.743340138</DistanceMeters>
          </Trackpoint>
          <Trackpoint>
            <Time>2019-07-19T11:28:42.000Z</Time>
            <Position>
              <LatitudeDegrees>40.55266854353249073028564453125</LatitudeDegrees>
              <LongitudeDegrees>-3.374510966241359710693359375</LongitudeDegrees>
            </Position>
            <AltitudeMeters>689.20001220703125</AltitudeMeters>
            <DistanceMeters>67750.298679386</DistanceMeters>
          </Trackpoint>
          <Trackpoint>
            <Time>2019-07-19T11:28:48.000Z</Time>
            <Position>
              <LatitudeDegrees>40.55248632095754146575927734375</LatitudeDegrees>
              <LongitudeDegrees>-3.37465756572782993316650390625</LongitudeDegrees>
            </Position>
            <AltitudeMeters>688.20001220703125</AltitudeMeters>
            <DistanceMeters>67774.069417772</DistanceMeters>
          </Trackpoint>
          <Trackpoint>
            <Time>2019-07-19T11:29:04.000Z</Time>
            <Position>
              <LatitudeDegrees>40.5519565008580684661865234375</LatitudeDegrees>
              <LongitudeDegrees>-3.3748926781117916107177734375</LongitudeDegrees>
            </Position>
            <AltitudeMeters>687.4000244140625</AltitudeMeters>
            <DistanceMeters>67836.301251468</DistanceMeters>
          </Trackpoint>
          <Trackpoint>
            <Time>2019-07-19T11:29:15.000Z</Time>
            <Position>
              <LatitudeDegrees>40.55147848092019557952880859375</LatitudeDegrees>
              <LongitudeDegrees>-3.37492830120027065277099609375</LongitudeDegrees>
            </Position>
            <AltitudeMeters>687.4000244140625</AltitudeMeters>
            <DistanceMeters>67889.590992509</DistanceMeters>
          </Trackpoint>
          <Trackpoint>
            <Time>2019-07-19T11:29:19.000Z</Time>
            <Position>
              <LatitudeDegrees>40.55128620006144046783447265625</LatitudeDegrees>
              <LongitudeDegrees>-3.374928049743175506591796875</LongitudeDegrees>
            </Position>
            <AltitudeMeters>687.20001220703125</AltitudeMeters>
            <DistanceMeters>67910.992266007</DistanceMeters>
          </Trackpoint>
          <Trackpoint>
            <Time>2019-07-19T11:29:25.000Z</Time>
            <Position>
              <LatitudeDegrees>40.551055110991001129150390625</LatitudeDegrees>
              <LongitudeDegrees>-3.37496794760227203369140625</LongitudeDegrees>
            </Position>
            <AltitudeMeters>688.20001220703125</AltitudeMeters>
            <DistanceMeters>67936.93334071</DistanceMeters>
          </Trackpoint>
          <Trackpoint>
            <Time>2019-07-19T11:29:32.000Z</Time>
            <Position>
              <LatitudeDegrees>40.5509032309055328369140625</LatitudeDegrees>
              <LongitudeDegrees>-3.3749412931501865386962890625</LongitudeDegrees>
            </Position>
            <AltitudeMeters>687.20001220703125</AltitudeMeters>
            <DistanceMeters>67953.987393076</DistanceMeters>
          </Trackpoint>
          <Trackpoint>
            <Time>2019-07-19T11:29:35.000Z</Time>
            <Position>
              <LatitudeDegrees>40.55078546516597270965576171875</LatitudeDegrees>
              <LongitudeDegrees>-3.37491824291646480560302734375</LongitudeDegrees>
            </Position>
            <AltitudeMeters>686.20001220703125</AltitudeMeters>
            <DistanceMeters>67967.238765327</DistanceMeters>
          </Trackpoint>
          <Trackpoint>
            <Time>2019-07-19T11:29:40.000Z</Time>
            <Position>
              <LatitudeDegrees>40.5505580641329288482666015625</LatitudeDegrees>
              <LongitudeDegrees>-3.37490080855786800384521484375</LongitudeDegrees>
            </Position>
            <AltitudeMeters>685.5999755859375</AltitudeMeters>
            <DistanceMeters>67992.59184998</DistanceMeters>
          </Trackpoint>
          <Trackpoint>
            <Time>2019-07-19T11:29:51.000Z</Time>
            <Position>
              <LatitudeDegrees>40.54998147301375865936279296875</LatitudeDegrees>
              <LongitudeDegrees>-3.3748869784176349639892578125</LongitudeDegrees>
            </Position>
            <AltitudeMeters>685.4000244140625</AltitudeMeters>
            <DistanceMeters>68056.778157529</DistanceMeters>
          </Trackpoint>
          <Trackpoint>
            <Time>2019-07-19T11:29:58.000Z</Time>
            <Position>
              <LatitudeDegrees>40.54965558461844921112060546875</LatitudeDegrees>
              <LongitudeDegrees>-3.37489175610244274139404296875</LongitudeDegrees>
            </Position>
            <AltitudeMeters>687.20001220703125</AltitudeMeters>
            <DistanceMeters>68093.052606515</DistanceMeters>
          </Trackpoint>
          <Trackpoint>
            <Time>2019-07-19T11:30:15.000Z</Time>
            <Position>
              <LatitudeDegrees>40.54913121275603771209716796875</LatitudeDegrees>
              <LongitudeDegrees>-3.37486627511680126190185546875</LongitudeDegrees>
            </Position>
            <AltitudeMeters>687</AltitudeMeters>
            <DistanceMeters>68151.456090105</DistanceMeters>
          </Trackpoint>
          <Trackpoint>
            <Time>2019-07-19T11:30:28.000Z</Time>
            <Position>
              <LatitudeDegrees>40.54917412810027599334716796875</LatitudeDegrees>
              <LongitudeDegrees>-3.37411902844905853271484375</LongitudeDegrees>
            </Position>
            <AltitudeMeters>687.20001220703125</AltitudeMeters>
            <DistanceMeters>68214.832995858</DistanceMeters>
          </Trackpoint>
          <Trackpoint>
            <Time>2019-07-19T11:30:36.000Z</Time>
            <Position>
              <LatitudeDegrees>40.549162812530994415283203125</LatitudeDegrees>
              <LongitudeDegrees>-3.37369817309081554412841796875</LongitudeDegrees>
            </Position>
            <AltitudeMeters>688.5999755859375</AltitudeMeters>
            <DistanceMeters>68250.448115932</DistanceMeters>
          </Trackpoint>
          <Trackpoint>
            <Time>2019-07-19T11:30:41.000Z</Time>
            <Position>
              <LatitudeDegrees>40.54906583391129970550537109375</LatitudeDegrees>
              <LongitudeDegrees>-3.37354637682437896728515625</LongitudeDegrees>
            </Position>
            <AltitudeMeters>689.5999755859375</AltitudeMeters>
            <DistanceMeters>68267.220532916</DistanceMeters>
          </Trackpoint>
          <Trackpoint>
            <Time>2019-07-19T11:30:57.000Z</Time>
            <Position>
              <LatitudeDegrees>40.54854598827660083770751953125</LatitudeDegrees>
              <LongitudeDegrees>-3.373367004096508026123046875</LongitudeDegrees>
            </Position>
            <AltitudeMeters>690.20001220703125</AltitudeMeters>
            <DistanceMeters>68327.035981243</DistanceMeters>
          </Trackpoint>
          <Trackpoint>
            <Time>2019-07-19T11:31:10.000Z</Time>
            <Position>
              <LatitudeDegrees>40.5480279028415679931640625</LatitudeDegrees>
              <LongitudeDegrees>-3.3733297884464263916015625</LongitudeDegrees>
            </Position>
            <AltitudeMeters>690</AltitudeMeters>
            <DistanceMeters>68384.785725681</DistanceMeters>
          </Trackpoint>
          <Trackpoint>
            <Time>2019-07-19T11:31:13.000Z</Time>
            <Position>
              <LatitudeDegrees>40.5478959716856479644775390625</LatitudeDegrees>
              <LongitudeDegrees>-3.37332903407514095306396484375</LongitudeDegrees>
            </Position>
            <AltitudeMeters>689.4000244140625</AltitudeMeters>
            <DistanceMeters>68399.470351161</DistanceMeters>
          </Trackpoint>
          <Trackpoint>
            <Time>2019-07-19T11:31:16.000Z</Time>
            <Position>
              <LatitudeDegrees>40.54774451069533824920654296875</LatitudeDegrees>
              <LongitudeDegrees>-3.373338840901851654052734375</LongitudeDegrees>
            </Position>
            <AltitudeMeters>688.79998779296875</AltitudeMeters>
            <DistanceMeters>68416.348764939</DistanceMeters>
          </Trackpoint>
          <Trackpoint>
            <Time>2019-07-19T11:31:29.000Z</Time>
            <Position>
              <LatitudeDegrees>40.54719180800020694732666015625</LatitudeDegrees>
              <LongitudeDegrees>-3.373339511454105377197265625</LongitudeDegrees>
            </Position>
            <AltitudeMeters>689.20001220703125</AltitudeMeters>
            <DistanceMeters>68477.865701356</DistanceMeters>
          </Trackpoint>
          <Trackpoint>
            <Time>2019-07-19T11:31:37.000Z</Time>
            <Position>
              <LatitudeDegrees>40.54681680165231227874755859375</LatitudeDegrees>
              <LongitudeDegrees>-3.37331579066812992095947265625</LongitudeDegrees>
            </Position>
            <AltitudeMeters>688.4000244140625</AltitudeMeters>
            <DistanceMeters>68519.652827868</DistanceMeters>
          </Trackpoint>
          <Trackpoint>
            <Time>2019-07-19T11:31:47.000Z</Time>
            <Position>
              <LatitudeDegrees>40.54635596461594104766845703125</LatitudeDegrees>
              <LongitudeDegrees>-3.37331176735460758209228515625</LongitudeDegrees>
            </Position>
            <AltitudeMeters>687.4000244140625</AltitudeMeters>
            <DistanceMeters>68570.946132234</DistanceMeters>
          </Trackpoint>
          <Trackpoint>
            <Time>2019-07-19T11:31:56.000Z</Time>
            <Position>
              <LatitudeDegrees>40.5460372008383274078369140625</LatitudeDegrees>
              <LongitudeDegrees>-3.37325376458466053009033203125</LongitudeDegrees>
            </Position>
            <AltitudeMeters>687</AltitudeMeters>
            <DistanceMeters>68606.762758538</DistanceMeters>
          </Trackpoint>
          <Trackpoint>
            <Time>2019-07-19T11:31:58.000Z</Time>
            <Position>
              <LatitudeDegrees>40.5460036732256412506103515625</LatitudeDegrees>
              <LongitudeDegrees>-3.37331168353557586669921875</LongitudeDegrees>
            </Position>
            <AltitudeMeters>687.20001220703125</AltitudeMeters>
            <DistanceMeters>68612.920460299</DistanceMeters>
          </Trackpoint>
          <Trackpoint>
            <Time>2019-07-19T11:32:01.000Z</Time>
            <Position>
              <LatitudeDegrees>40.54599571041762828826904296875</LatitudeDegrees>
              <LongitudeDegrees>-3.3734370768070220947265625</LongitudeDegrees>
            </Position>
            <AltitudeMeters>687.4000244140625</AltitudeMeters>
            <DistanceMeters>68623.563452309</DistanceMeters>
          </Trackpoint>
          <Trackpoint>
            <Time>2019-07-19T11:32:04.000Z</Time>
            <Position>
              <LatitudeDegrees>40.54589412175118923187255859375</LatitudeDegrees>
              <LongitudeDegrees>-3.37343716062605381011962890625</LongitudeDegrees>
            </Position>
            <AltitudeMeters>687.5999755859375</AltitudeMeters>
            <DistanceMeters>68634.87043344</DistanceMeters>
          </Trackpoint>
          <Trackpoint>
            <Time>2019-07-19T11:32:06.000Z</Time>
            <Position>
              <LatitudeDegrees>40.5458343587815761566162109375</LatitudeDegrees>
              <LongitudeDegrees>-3.37338670156896114349365234375</LongitudeDegrees>
            </Position>
            <AltitudeMeters>687.5999755859375</AltitudeMeters>
            <DistanceMeters>68642.77309177</DistanceMeters>
          </Trackpoint>
          <Trackpoint>
            <Time>2019-07-19T11:32:08.000Z</Time>
            <Position>
              <LatitudeDegrees>40.54574090056121349334716796875</LatitudeDegrees>
              <LongitudeDegrees>-3.3733986876904964447021484375</LongitudeDegrees>
            </Position>
            <AltitudeMeters>687.20001220703125</AltitudeMeters>
            <DistanceMeters>68653.22430245</DistanceMeters>
          </Trackpoint>
          <Trackpoint>
            <Time>2019-07-19T11:32:10.000Z</Time>
            <Position>
              <LatitudeDegrees>40.54562590084969997406005859375</LatitudeDegrees>
              <LongitudeDegrees>-3.373438417911529541015625</LongitudeDegrees>
            </Position>
            <AltitudeMeters>686.4000244140625</AltitudeMeters>
            <DistanceMeters>68666.457262904</DistanceMeters>
          </Trackpoint>
          <Trackpoint>
            <Time>2019-07-19T11:32:12.000Z</Time>
            <Position>
              <LatitudeDegrees>40.54551945067942142486572265625</LatitudeDegrees>
              <LongitudeDegrees>-3.373479656875133514404296875</LongitudeDegrees>
            </Position>
            <AltitudeMeters>685.20001220703125</AltitudeMeters>
            <DistanceMeters>68678.807811528</DistanceMeters>
          </Trackpoint>
          <Trackpoint>
            <Time>2019-07-19T11:32:16.000Z</Time>
            <Position>
              <LatitudeDegrees>40.54531157948076725006103515625</LatitudeDegrees>
              <LongitudeDegrees>-3.37357160635292530059814453125</LongitudeDegrees>
            </Position>
            <AltitudeMeters>684</AltitudeMeters>
            <DistanceMeters>68703.216177378</DistanceMeters>
          </Trackpoint>
          <Trackpoint>
            <Time>2019-07-19T11:32:24.000Z</Time>
            <Position>
              <LatitudeDegrees>40.544892735779285430908203125</LatitudeDegrees>
              <LongitudeDegrees>-3.37375651113688945770263671875</LongitudeDegrees>
            </Position>
            <AltitudeMeters>683</AltitudeMeters>
            <DistanceMeters>68752.387520943</DistanceMeters>
          </Trackpoint>
          <Trackpoint>
            <Time>2019-07-19T11:32:35.000Z</Time>
            <Position>
              <LatitudeDegrees>40.54434346966445446014404296875</LatitudeDegrees>
              <LongitudeDegrees>-3.37400369346141815185546875</LongitudeDegrees>
            </Position>
            <AltitudeMeters>683.4000244140625</AltitudeMeters>
            <DistanceMeters>68816.997860512</DistanceMeters>
          </Trackpoint>
          <Trackpoint>
            <Time>2019-07-19T11:32:47.000Z</Time>
            <Position>
              <LatitudeDegrees>40.54380803368985652923583984375</LatitudeDegrees>
              <LongitudeDegrees>-3.3742305077612400054931640625</LongitudeDegrees>
            </Position>
            <AltitudeMeters>684</AltitudeMeters>
            <DistanceMeters>68879.604529336</DistanceMeters>
          </Trackpoint>
          <Trackpoint>
            <Time>2019-07-19T11:32:48.000Z</Time>
            <Position>
              <LatitudeDegrees>40.54376729764044284820556640625</LatitudeDegrees>
              <LongitudeDegrees>-3.37423570454120635986328125</LongitudeDegrees>
            </Position>
            <AltitudeMeters>684.20001220703125</AltitudeMeters>
            <DistanceMeters>68884.158877324</DistanceMeters>
          </Trackpoint>
          <Trackpoint>
            <Time>2019-07-19T11:32:57.000Z</Time>
            <Position>
              <LatitudeDegrees>40.543415509164333343505859375</LatitudeDegrees>
              <LongitudeDegrees>-3.37417979724705219268798828125</LongitudeDegrees>
            </Position>
            <AltitudeMeters>685.20001220703125</AltitudeMeters>
            <DistanceMeters>68923.598169377</DistanceMeters>
          </Trackpoint>
          <Trackpoint>
            <Time>2019-07-19T11:33:04.000Z</Time>
            <Position>
              <LatitudeDegrees>40.54319045506417751312255859375</LatitudeDegrees>
              <LongitudeDegrees>-3.37410117499530315399169921875</LongitudeDegrees>
            </Position>
            <AltitudeMeters>686.20001220703125</AltitudeMeters>
            <DistanceMeters>68949.514865657</DistanceMeters>
          </Trackpoint>
          <Trackpoint>
            <Time>2019-07-19T11:33:09.000Z</Time>
            <Position>
              <LatitudeDegrees>40.5430270917713642120361328125</LatitudeDegrees>
              <LongitudeDegrees>-3.3740969002246856689453125</LongitudeDegrees>
            </Position>
            <AltitudeMeters>687.4000244140625</AltitudeMeters>
            <DistanceMeters>68967.700754411</DistanceMeters>
          </Trackpoint>
          <Trackpoint>
            <Time>2019-07-19T11:33:15.000Z</Time>
            <Position>
              <LatitudeDegrees>40.5428366549313068389892578125</LatitudeDegrees>
              <LongitudeDegrees>-3.3740605227649211883544921875</LongitudeDegrees>
            </Position>
            <AltitudeMeters>688.4000244140625</AltitudeMeters>
            <DistanceMeters>68989.118688096</DistanceMeters>
          </Trackpoint>
          <Trackpoint>
            <Time>2019-07-19T11:33:25.000Z</Time>
            <Position>
              <LatitudeDegrees>40.54252292029559612274169921875</LatitudeDegrees>
              <LongitudeDegrees>-3.3739958144724369049072265625</LongitudeDegrees>
            </Position>
            <AltitudeMeters>689.79998779296875</AltitudeMeters>
            <DistanceMeters>69024.464282956</DistanceMeters>
          </Trackpoint>
          <Trackpoint>
            <Time>2019-07-19T11:33:42.000Z</Time>
            <Position>
              <LatitudeDegrees>40.54200877435505390167236328125</LatitudeDegrees>
              <LongitudeDegrees>-3.37374058552086353302001953125</LongitudeDegrees>
            </Position>
            <AltitudeMeters>689.5999755859375</AltitudeMeters>
            <DistanceMeters>69085.626210718</DistanceMeters>
          </Trackpoint>
          <Trackpoint>
            <Time>2019-07-19T11:33:58.000Z</Time>
            <Position>
              <LatitudeDegrees>40.541527234017848968505859375</LatitudeDegrees>
              <LongitudeDegrees>-3.373399190604686737060546875</LongitudeDegrees>
            </Position>
            <AltitudeMeters>689.79998779296875</AltitudeMeters>
            <DistanceMeters>69146.506378889</DistanceMeters>
          </Trackpoint>
          <Trackpoint>
            <Time>2019-07-19T11:34:12.000Z</Time>
            <Position>
              <LatitudeDegrees>40.54102490656077861785888671875</LatitudeDegrees>
              <LongitudeDegrees>-3.3730912394821643829345703125</LongitudeDegrees>
            </Position>
            <AltitudeMeters>690</AltitudeMeters>
            <DistanceMeters>69208.186110292</DistanceMeters>
          </Trackpoint>
          <Trackpoint>
            <Time>2019-07-19T11:34:25.000Z</Time>
            <Position>
              <LatitudeDegrees>40.54050522856414318084716796875</LatitudeDegrees>
              <LongitudeDegrees>-3.37277230806648731231689453125</LongitudeDegrees>
            </Position>
            <AltitudeMeters>689.4000244140625</AltitudeMeters>
            <DistanceMeters>69272.008700358</DistanceMeters>
          </Trackpoint>
          <Trackpoint>
            <Time>2019-07-19T11:34:29.000Z</Time>
            <Position>
              <LatitudeDegrees>40.54034664295613765716552734375</LatitudeDegrees>
              <LongitudeDegrees>-3.3726661093533039093017578125</LongitudeDegrees>
            </Position>
            <AltitudeMeters>688.5999755859375</AltitudeMeters>
            <DistanceMeters>69291.813735841</DistanceMeters>
          </Trackpoint>
          <Trackpoint>
            <Time>2019-07-19T11:34:34.000Z</Time>
            <Position>
              <LatitudeDegrees>40.5401212535798549652099609375</LatitudeDegrees>
              <LongitudeDegrees>-3.3725417219102382659912109375</LongitudeDegrees>
            </Position>
            <AltitudeMeters>687.4000244140625</AltitudeMeters>
            <DistanceMeters>69319.016948236</DistanceMeters>
          </Trackpoint>
          <Trackpoint>
            <Time>2019-07-19T11:34:37.000Z</Time>
            <Position>
              <LatitudeDegrees>40.53998194634914398193359375</LatitudeDegrees>
              <LongitudeDegrees>-3.37246477603912353515625</LongitudeDegrees>
            </Position>
            <AltitudeMeters>686.5999755859375</AltitudeMeters>
            <DistanceMeters>69335.832381138</DistanceMeters>
          </Trackpoint>
          <Trackpoint>
            <Time>2019-07-19T11:34:40.000Z</Time>
            <Position>
              <LatitudeDegrees>40.53985722362995147705078125</LatitudeDegrees>
              <LongitudeDegrees>-3.3723804540932178497314453125</LongitudeDegrees>
            </Position>
            <AltitudeMeters>686.5999755859375</AltitudeMeters>
            <DistanceMeters>69351.439054452</DistanceMeters>
          </Trackpoint>
          <Trackpoint>
            <Time>2019-07-19T11:34:44.000Z</Time>
            <Position>
              <LatitudeDegrees>40.539698638021945953369140625</LatitudeDegrees>
              <LongitudeDegrees>-3.3722832240164279937744140625</LongitudeDegrees>
            </Position>
            <AltitudeMeters>686.5999755859375</AltitudeMeters>
            <DistanceMeters>69370.911880904</DistanceMeters>
          </Trackpoint>
          <Trackpoint>
            <Time>2019-07-19T11:34:47.000Z</Time>
            <Position>
              <LatitudeDegrees>40.539573915302753448486328125</LatitudeDegrees>
              <LongitudeDegrees>-3.37221608497202396392822265625</LongitudeDegrees>
            </Position>
            <AltitudeMeters>686.4000244140625</AltitudeMeters>
            <DistanceMeters>69385.910155281</DistanceMeters>
          </Trackpoint>
          <Trackpoint>
            <Time>2019-07-19T11:34:55.000Z</Time>
            <Position>
              <LatitudeDegrees>40.53925062529742717742919921875</LatitudeDegrees>
              <LongitudeDegrees>-3.37201810441911220550537109375</LongitudeDegrees>
            </Position>
            <AltitudeMeters>686.5999755859375</AltitudeMeters>
            <DistanceMeters>69425.598685673</DistanceMeters>
          </Trackpoint>
          <Trackpoint>
            <Time>2019-07-19T11:34:57.000Z</Time>
            <Position>
              <LatitudeDegrees>40.53916915319859981536865234375</LatitudeDegrees>
              <LongitudeDegrees>-3.37197183631360530853271484375</LongitudeDegrees>
            </Position>
            <AltitudeMeters>686.4000244140625</AltitudeMeters>
            <DistanceMeters>69435.475065867</DistanceMeters>
          </Trackpoint>
          <Trackpoint>
            <Time>2019-07-19T11:35:08.000Z</Time>
            <Position>
              <LatitudeDegrees>40.538700856268405914306640625</LatitudeDegrees>
              <LongitudeDegrees>-3.3716807328164577484130859375</LongitudeDegrees>
            </Position>
            <AltitudeMeters>685.79998779296875</AltitudeMeters>
            <DistanceMeters>69493.120890011</DistanceMeters>
          </Trackpoint>
          <Trackpoint>
            <Time>2019-07-19T11:35:12.000Z</Time>
            <Position>
              <LatitudeDegrees>40.53852676413953304290771484375</LatitudeDegrees>
              <LongitudeDegrees>-3.37155944667756557464599609375</LongitudeDegrees>
            </Position>
            <AltitudeMeters>685.4000244140625</AltitudeMeters>
            <DistanceMeters>69515.045923407</DistanceMeters>
          </Trackpoint>
          <Trackpoint>
            <Time>2019-07-19T11:35:24.000Z</Time>
            <Position>
              <LatitudeDegrees>40.53800222463905811309814453125</LatitudeDegrees>
              <LongitudeDegrees>-3.37126649916172027587890625</LongitudeDegrees>
            </Position>
            <AltitudeMeters>684.79998779296875</AltitudeMeters>
            <DistanceMeters>69578.469190135</DistanceMeters>
          </Trackpoint>
          <Trackpoint>
            <Time>2019-07-19T11:35:35.000Z</Time>
            <Position>
              <LatitudeDegrees>40.53752445615828037261962890625</LatitudeDegrees>
              <LongitudeDegrees>-3.37094823829829692840576171875</LongitudeDegrees>
            </Position>
            <AltitudeMeters>684.4000244140625</AltitudeMeters>
            <DistanceMeters>69638.071851347</DistanceMeters>
          </Trackpoint>
          <Trackpoint>
            <Time>2019-07-19T11:35:43.000Z</Time>
            <Position>
              <LatitudeDegrees>40.53719052113592624664306640625</LatitudeDegrees>
              <LongitudeDegrees>-3.37076115421950817108154296875</LongitudeDegrees>
            </Position>
            <AltitudeMeters>683.4000244140625</AltitudeMeters>
            <DistanceMeters>69678.468153585</DistanceMeters>
          </Trackpoint>
          <Trackpoint>
            <Time>2019-07-19T11:35:46.000Z</Time>
            <Position>
              <LatitudeDegrees>40.5370467714965343475341796875</LatitudeDegrees>
              <LongitudeDegrees>-3.37069259025156497955322265625</LongitudeDegrees>
            </Position>
            <AltitudeMeters>683</AltitudeMeters>
            <DistanceMeters>69695.486692648</DistanceMeters>
          </Trackpoint>
          <Trackpoint>
            <Time>2019-07-19T11:35:51.000Z</Time>
            <Position>
              <LatitudeDegrees>40.536812245845794677734375</LatitudeDegrees>
              <LongitudeDegrees>-3.3705434761941432952880859375</LongitudeDegrees>
            </Position>
            <AltitudeMeters>682.20001220703125</AltitudeMeters>
            <DistanceMeters>69724.477784299</DistanceMeters>
          </Trackpoint>
          <Trackpoint>
            <Time>2019-07-19T11:35:55.000Z</Time>
            <Position>
              <LatitudeDegrees>40.5366286821663379669189453125</LatitudeDegrees>
              <LongitudeDegrees>-3.37043392471969127655029296875</LongitudeDegrees>
            </Position>
            <AltitudeMeters>682.20001220703125</AltitudeMeters>
            <DistanceMeters>69746.912140556</DistanceMeters>
          </Trackpoint>
          <Trackpoint>
            <Time>2019-07-19T11:35:58.000Z</Time>
            <Position>
              <LatitudeDegrees>40.53649197332561016082763671875</LatitudeDegrees>
              <LongitudeDegrees>-3.3703470043838024139404296875</LongitudeDegrees>
            </Position>
            <AltitudeMeters>682.4000244140625</AltitudeMeters>
            <DistanceMeters>69763.811406742</DistanceMeters>
          </Trackpoint>
          <Trackpoint>
            <Time>2019-07-19T11:36:00.000Z</Time>
            <Position>
              <LatitudeDegrees>40.53639206103980541229248046875</LatitudeDegrees>
              <LongitudeDegrees>-3.3702913485467433929443359375</LongitudeDegrees>
            </Position>
            <AltitudeMeters>682.4000244140625</AltitudeMeters>
            <DistanceMeters>69775.886905672</DistanceMeters>
          </Trackpoint>
          <Trackpoint>
            <Time>2019-07-19T11:36:04.000Z</Time>
            <Position>
              <LatitudeDegrees>40.53618838079273700714111328125</LatitudeDegrees>
              <LongitudeDegrees>-3.37018489837646484375</LongitudeDegrees>
            </Position>
            <AltitudeMeters>681.20001220703125</AltitudeMeters>
            <DistanceMeters>69800.279728327</DistanceMeters>
          </Trackpoint>
          <Trackpoint>
            <Time>2019-07-19T11:36:05.000Z</Time>
            <Position>
              <LatitudeDegrees>40.53614177741110324859619140625</LatitudeDegrees>
              <LongitudeDegrees>-3.3701501972973346710205078125</LongitudeDegrees>
            </Position>
            <AltitudeMeters>680.79998779296875</AltitudeMeters>
            <DistanceMeters>69806.239956572</DistanceMeters>
          </Trackpoint>
          <Trackpoint>
            <Time>2019-07-19T11:36:11.000Z</Time>
            <Position>
              <LatitudeDegrees>40.5358598940074443817138671875</LatitudeDegrees>
              <LongitudeDegrees>-3.36995347402989864349365234375</LongitudeDegrees>
            </Position>
            <AltitudeMeters>679.79998779296875</AltitudeMeters>
            <DistanceMeters>69841.754149047</DistanceMeters>
          </Trackpoint>
          <Trackpoint>
            <Time>2019-07-19T11:36:17.000Z</Time>
            <Position>
              <LatitudeDegrees>40.53556208498775959014892578125</LatitudeDegrees>
              <LongitudeDegrees>-3.36978784762322902679443359375</LongitudeDegrees>
            </Position>
            <AltitudeMeters>681.4000244140625</AltitudeMeters>
            <DistanceMeters>69877.740177346</DistanceMeters>
          </Trackpoint>
          <Trackpoint>
            <Time>2019-07-19T11:36:20.000Z</Time>
            <Position>
              <LatitudeDegrees>40.5354066006839275360107421875</LatitudeDegrees>
              <LongitudeDegrees>-3.36969832889735698699951171875</LongitudeDegrees>
            </Position>
            <AltitudeMeters>682.5999755859375</AltitudeMeters>
            <DistanceMeters>69896.630187954</DistanceMeters>
          </Trackpoint>
          <Trackpoint>
            <Time>2019-07-19T11:36:26.000Z</Time>
            <Position>
              <LatitudeDegrees>40.535104684531688690185546875</LatitudeDegrees>
              <LongitudeDegrees>-3.3694960735738277435302734375</LongitudeDegrees>
            </Position>
            <AltitudeMeters>681.5999755859375</AltitudeMeters>
            <DistanceMeters>69934.338675292</DistanceMeters>
          </Trackpoint>
          <Trackpoint>
            <Time>2019-07-19T11:36:29.000Z</Time>
            <Position>
              <LatitudeDegrees>40.534956157207489013671875</LatitudeDegrees>
              <LongitudeDegrees>-3.3693850971758365631103515625</LongitudeDegrees>
            </Position>
            <AltitudeMeters>681</AltitudeMeters>
            <DistanceMeters>69953.349718914</DistanceMeters>
          </Trackpoint>
          <Trackpoint>
            <Time>2019-07-19T11:36:33.000Z</Time>
            <Position>
              <LatitudeDegrees>40.534754656255245208740234375</LatitudeDegrees>
              <LongitudeDegrees>-3.3692761324346065521240234375</LongitudeDegrees>
            </Position>
            <AltitudeMeters>680.4000244140625</AltitudeMeters>
            <DistanceMeters>69977.597736099</DistanceMeters>
          </Trackpoint>
          <Trackpoint>
            <Time>2019-07-19T11:36:40.000Z</Time>
            <Position>
              <LatitudeDegrees>40.534413345158100128173828125</LatitudeDegrees>
              <LongitudeDegrees>-3.3690642379224300384521484375</LongitudeDegrees>
            </Position>
            <AltitudeMeters>680</AltitudeMeters>
            <DistanceMeters>70019.602553639</DistanceMeters>
          </Trackpoint>
          <Trackpoint>
            <Time>2019-07-19T11:36:42.000Z</Time>
            <Position>
              <LatitudeDegrees>40.5343233235180377960205078125</LatitudeDegrees>
              <LongitudeDegrees>-3.368999026715755462646484375</LongitudeDegrees>
            </Position>
            <AltitudeMeters>679.4000244140625</AltitudeMeters>
            <DistanceMeters>70031.039759913</DistanceMeters>
          </Trackpoint>
          <Trackpoint>
            <Time>2019-07-19T11:36:52.000Z</Time>
            <Position>
              <LatitudeDegrees>40.53385066799819469451904296875</LatitudeDegrees>
              <LongitudeDegrees>-3.368732146918773651123046875</LongitudeDegrees>
            </Position>
            <AltitudeMeters>679</AltitudeMeters>
            <DistanceMeters>70088.286710952</DistanceMeters>
          </Trackpoint>
          <Trackpoint>
            <Time>2019-07-19T11:37:00.000Z</Time>
            <Position>
              <LatitudeDegrees>40.533459484577178955078125</LatitudeDegrees>
              <LongitudeDegrees>-3.3685234375298023223876953125</LongitudeDegrees>
            </Position>
            <AltitudeMeters>678.5999755859375</AltitudeMeters>
            <DistanceMeters>70135.269613764</DistanceMeters>
          </Trackpoint>
          <Trackpoint>
            <Time>2019-07-19T11:37:01.000Z</Time>
            <Position>
              <LatitudeDegrees>40.53341162391006946563720703125</LatitudeDegrees>
              <LongitudeDegrees>-3.368486724793910980224609375</LongitudeDegrees>
            </Position>
            <AltitudeMeters>678.4000244140625</AltitudeMeters>
            <DistanceMeters>70141.435375828</DistanceMeters>
          </Trackpoint>
          <Trackpoint>
            <Time>2019-07-19T11:37:02.000Z</Time>
            <Position>
              <LatitudeDegrees>40.53336099721491336822509765625</LatitudeDegrees>
              <LongitudeDegrees>-3.36845227517187595367431640625</LongitudeDegrees>
            </Position>
            <AltitudeMeters>678.20001220703125</AltitudeMeters>
            <DistanceMeters>70147.778720422</DistanceMeters>
          </Trackpoint>
          <Trackpoint>
            <Time>2019-07-19T11:37:07.000Z</Time>
            <Position>
              <LatitudeDegrees>40.53312496282160282135009765625</LatitudeDegrees>
              <LongitudeDegrees>-3.3683112077414989471435546875</LongitudeDegrees>
            </Position>
            <AltitudeMeters>678</AltitudeMeters>
            <DistanceMeters>70176.63306235</DistanceMeters>
          </Trackpoint>
          <Trackpoint>
            <Time>2019-07-19T11:37:09.000Z</Time>
            <Position>
              <LatitudeDegrees>40.53303427062928676605224609375</LatitudeDegrees>
              <LongitudeDegrees>-3.36825228296220302581787109375</LongitudeDegrees>
            </Position>
            <AltitudeMeters>678</AltitudeMeters>
            <DistanceMeters>70187.890419625</DistanceMeters>
          </Trackpoint>
          <Trackpoint>
            <Time>2019-07-19T11:37:14.000Z</Time>
            <Position>
              <LatitudeDegrees>40.532834194600582122802734375</LatitudeDegrees>
              <LongitudeDegrees>-3.36810283362865447998046875</LongitudeDegrees>
            </Position>
            <AltitudeMeters>678.20001220703125</AltitudeMeters>
            <DistanceMeters>70213.497606723</DistanceMeters>
          </Trackpoint>
          <Trackpoint>
            <Time>2019-07-19T11:37:23.000Z</Time>
            <Position>
              <LatitudeDegrees>40.5324442684650421142578125</LatitudeDegrees>
              <LongitudeDegrees>-3.367900662124156951904296875</LongitudeDegrees>
            </Position>
            <AltitudeMeters>678</AltitudeMeters>
            <DistanceMeters>70260.145368095</DistanceMeters>
          </Trackpoint>
          <Trackpoint>
            <Time>2019-07-19T11:37:26.000Z</Time>
            <Position>
              <LatitudeDegrees>40.532322563230991363525390625</LatitudeDegrees>
              <LongitudeDegrees>-3.3678133226931095123291015625</LongitudeDegrees>
            </Position>
            <AltitudeMeters>678</AltitudeMeters>
            <DistanceMeters>70275.575143383</DistanceMeters>
          </Trackpoint>
          <Trackpoint>
            <Time>2019-07-19T11:37:29.000Z</Time>
            <Position>
              <LatitudeDegrees>40.53220060653984546661376953125</LatitudeDegrees>
              <LongitudeDegrees>-3.367742411792278289794921875</LongitudeDegrees>
            </Position>
            <AltitudeMeters>678</AltitudeMeters>
            <DistanceMeters>70290.415748643</DistanceMeters>
          </Trackpoint>
          <Trackpoint>
            <Time>2019-07-19T11:37:31.000Z</Time>
            <Position>
              <LatitudeDegrees>40.532122068107128143310546875</LatitudeDegrees>
              <LongitudeDegrees>-3.3676837384700775146484375</LongitudeDegrees>
            </Position>
            <AltitudeMeters>678</AltitudeMeters>
            <DistanceMeters>70300.467940215</DistanceMeters>
          </Trackpoint>
          <Trackpoint>
            <Time>2019-07-19T11:37:33.000Z</Time>
            <Position>
              <LatitudeDegrees>40.532036907970905303955078125</LatitudeDegrees>
              <LongitudeDegrees>-3.3676569163799285888671875</LongitudeDegrees>
            </Position>
            <AltitudeMeters>678</AltitudeMeters>
            <DistanceMeters>70310.213623569</DistanceMeters>
          </Trackpoint>
          <Trackpoint>
            <Time>2019-07-19T11:37:45.000Z</Time>
            <Position>
              <LatitudeDegrees>40.53164304234087467193603515625</LatitudeDegrees>
              <LongitudeDegrees>-3.36738090030848979949951171875</LongitudeDegrees>
            </Position>
            <AltitudeMeters>677.79998779296875</AltitudeMeters>
            <DistanceMeters>70359.882242778</DistanceMeters>
          </Trackpoint>
          <Trackpoint>
            <Time>2019-07-19T11:37:54.000Z</Time>
            <Position>
              <LatitudeDegrees>40.531287230551242828369140625</LatitudeDegrees>
              <LongitudeDegrees>-3.36718082427978515625</LongitudeDegrees>
            </Position>
            <AltitudeMeters>677.5999755859375</AltitudeMeters>
            <DistanceMeters>70402.950001973</DistanceMeters>
          </Trackpoint>
          <Trackpoint>
            <Time>2019-07-19T11:38:00.000Z</Time>
            <Position>
              <LatitudeDegrees>40.53101590834558010101318359375</LatitudeDegrees>
              <LongitudeDegrees>-3.36698845960199832916259765625</LongitudeDegrees>
            </Position>
            <AltitudeMeters>677.20001220703125</AltitudeMeters>
            <DistanceMeters>70437.25425101</DistanceMeters>
          </Trackpoint>
          <Trackpoint>
            <Time>2019-07-19T11:38:05.000Z</Time>
            <Position>
              <LatitudeDegrees>40.53079328499734401702880859375</LatitudeDegrees>
              <LongitudeDegrees>-3.36684948764741420745849609375</LongitudeDegrees>
            </Position>
            <AltitudeMeters>676.5999755859375</AltitudeMeters>
            <DistanceMeters>70464.680284402</DistanceMeters>
          </Trackpoint>
          <Trackpoint>
            <Time>2019-07-19T11:38:08.000Z</Time>
            <Position>
              <LatitudeDegrees>40.53066923283040523529052734375</LatitudeDegrees>
              <LongitudeDegrees>-3.36678930558264255523681640625</LongitudeDegrees>
            </Position>
            <AltitudeMeters>676</AltitudeMeters>
            <DistanceMeters>70479.396238102</DistanceMeters>
          </Trackpoint>
          <Trackpoint>
            <Time>2019-07-19T11:38:19.000Z</Time>
            <Position>
              <LatitudeDegrees>40.530233792960643768310546875</LatitudeDegrees>
              <LongitudeDegrees>-3.36654086597263813018798828125</LongitudeDegrees>
            </Position>
            <AltitudeMeters>675.5999755859375</AltitudeMeters>
            <DistanceMeters>70532.222374093</DistanceMeters>
          </Trackpoint>
          <Trackpoint>
            <Time>2019-07-19T11:38:23.000Z</Time>
            <Position>
              <LatitudeDegrees>40.53006649017333984375</LatitudeDegrees>
              <LongitudeDegrees>-3.36642955429852008819580078125</LongitudeDegrees>
            </Position>
            <AltitudeMeters>675.4000244140625</AltitudeMeters>
            <DistanceMeters>70553.089340478</DistanceMeters>
          </Trackpoint>
          <Trackpoint>
            <Time>2019-07-19T11:38:26.000Z</Time>
            <Position>
              <LatitudeDegrees>40.52993196062743663787841796875</LatitudeDegrees>
              <LongitudeDegrees>-3.36636266671121120452880859375</LongitudeDegrees>
            </Position>
            <AltitudeMeters>674.79998779296875</AltitudeMeters>
            <DistanceMeters>70569.096194917</DistanceMeters>
          </Trackpoint>
          <Trackpoint>
            <Time>2019-07-19T11:38:28.000Z</Time>
            <Position>
              <LatitudeDegrees>40.5298425257205963134765625</LatitudeDegrees>
              <LongitudeDegrees>-3.366318158805370330810546875</LongitudeDegrees>
            </Position>
            <AltitudeMeters>674.79998779296875</AltitudeMeters>
            <DistanceMeters>70579.73833844</DistanceMeters>
          </Trackpoint>
          <Trackpoint>
            <Time>2019-07-19T11:38:32.000Z</Time>
            <Position>
              <LatitudeDegrees>40.52968494594097137451171875</LatitudeDegrees>
              <LongitudeDegrees>-3.36620374582707881927490234375</LongitudeDegrees>
            </Position>
            <AltitudeMeters>675</AltitudeMeters>
            <DistanceMeters>70599.770501755</DistanceMeters>
          </Trackpoint>
          <Trackpoint>
            <Time>2019-07-19T11:38:35.000Z</Time>
            <Position>
              <LatitudeDegrees>40.52955544553697109222412109375</LatitudeDegrees>
              <LongitudeDegrees>-3.36612713523209095001220703125</LongitudeDegrees>
            </Position>
            <AltitudeMeters>675</AltitudeMeters>
            <DistanceMeters>70615.574104328</DistanceMeters>
          </Trackpoint>
          <Trackpoint>
            <Time>2019-07-19T11:38:39.000Z</Time>
            <Position>
              <LatitudeDegrees>40.529371462762355804443359375</LatitudeDegrees>
              <LongitudeDegrees>-3.36605337448418140411376953125</LongitudeDegrees>
            </Position>
            <AltitudeMeters>675</AltitudeMeters>
            <DistanceMeters>70636.981284186</DistanceMeters>
          </Trackpoint>
          <Trackpoint>
            <Time>2019-07-19T11:38:46.000Z</Time>
            <Position>
              <LatitudeDegrees>40.52907214500010013580322265625</LatitudeDegrees>
              <LongitudeDegrees>-3.365886323153972625732421875</LongitudeDegrees>
            </Position>
            <AltitudeMeters>674.20001220703125</AltitudeMeters>
            <DistanceMeters>70673.169373473</DistanceMeters>
          </Trackpoint>
          <Trackpoint>
            <Time>2019-07-19T11:38:59.000Z</Time>
            <Position>
              <LatitudeDegrees>40.52854224108159542083740234375</LatitudeDegrees>
              <LongitudeDegrees>-3.36554392240941524505615234375</LongitudeDegrees>
            </Position>
            <AltitudeMeters>673.79998779296875</AltitudeMeters>
            <DistanceMeters>70738.877993081</DistanceMeters>
          </Trackpoint>
          <Trackpoint>
            <Time>2019-07-19T11:39:10.000Z</Time>
            <Position>
              <LatitudeDegrees>40.5280239880084991455078125</LatitudeDegrees>
              <LongitudeDegrees>-3.3652514778077602386474609375</LongitudeDegrees>
            </Position>
            <AltitudeMeters>673.4000244140625</AltitudeMeters>
            <DistanceMeters>70801.642544452</DistanceMeters>
          </Trackpoint>
          <Trackpoint>
            <Time>2019-07-19T11:39:11.000Z</Time>
            <Position>
              <LatitudeDegrees>40.52797637879848480224609375</LatitudeDegrees>
              <LongitudeDegrees>-3.36521283723413944244384765625</LongitudeDegrees>
            </Position>
            <AltitudeMeters>673.20001220703125</AltitudeMeters>
            <DistanceMeters>70807.869513879</DistanceMeters>
          </Trackpoint>
          <Trackpoint>
            <Time>2019-07-19T11:39:16.000Z</Time>
            <Position>
              <LatitudeDegrees>40.52774663083255290985107421875</LatitudeDegrees>
              <LongitudeDegrees>-3.3650444447994232177734375</LongitudeDegrees>
            </Position>
            <AltitudeMeters>672.5999755859375</AltitudeMeters>
            <DistanceMeters>70837.141444011</DistanceMeters>
          </Trackpoint>
          <Trackpoint>
            <Time>2019-07-19T11:39:27.000Z</Time>
            <Position>
              <LatitudeDegrees>40.52730775438249111175537109375</LatitudeDegrees>
              <LongitudeDegrees>-3.36469399742782115936279296875</LongitudeDegrees>
            </Position>
            <AltitudeMeters>673.5999755859375</AltitudeMeters>
            <DistanceMeters>70894.282533174</DistanceMeters>
          </Trackpoint>
          <Trackpoint>
            <Time>2019-07-19T11:39:30.000Z</Time>
            <Position>
              <LatitudeDegrees>40.52721287123858928680419921875</LatitudeDegrees>
              <LongitudeDegrees>-3.36462643928825855255126953125</LongitudeDegrees>
            </Position>
            <AltitudeMeters>675</AltitudeMeters>
            <DistanceMeters>70906.290541362</DistanceMeters>
          </Trackpoint>
          <Trackpoint>
            <Time>2019-07-19T11:39:34.000Z</Time>
            <Position>
              <LatitudeDegrees>40.52711002528667449951171875</LatitudeDegrees>
              <LongitudeDegrees>-3.36456097662448883056640625</LongitudeDegrees>
            </Position>
            <AltitudeMeters>676.20001220703125</AltitudeMeters>
            <DistanceMeters>70919.007089988</DistanceMeters>
          </Trackpoint>
          <Trackpoint>
            <Time>2019-07-19T11:39:38.000Z</Time>
            <Position>
              <LatitudeDegrees>40.527030564844608306884765625</LatitudeDegrees>
              <LongitudeDegrees>-3.3644991181790828704833984375</LongitudeDegrees>
            </Position>
            <AltitudeMeters>677.4000244140625</AltitudeMeters>
            <DistanceMeters>70929.284043529</DistanceMeters>
          </Trackpoint>
          <Trackpoint>
            <Time>2019-07-19T11:39:43.000Z</Time>
            <Position>
              <LatitudeDegrees>40.52691430784761905670166015625</LatitudeDegrees>
              <LongitudeDegrees>-3.36442007683217525482177734375</LongitudeDegrees>
            </Position>
            <AltitudeMeters>678.4000244140625</AltitudeMeters>
            <DistanceMeters>70943.849503219</DistanceMeters>
          </Trackpoint>
          <Trackpoint>
            <Time>2019-07-19T11:39:51.000Z</Time>
            <Position>
              <LatitudeDegrees>40.52673057653009891510009765625</LatitudeDegrees>
              <LongitudeDegrees>-3.36433022283017635345458984375</LongitudeDegrees>
            </Position>
            <AltitudeMeters>679.4000244140625</AltitudeMeters>
            <DistanceMeters>70965.666362053</DistanceMeters>
          </Trackpoint>
          <Trackpoint>
            <Time>2019-07-19T11:39:59.000Z</Time>
            <Position>
              <LatitudeDegrees>40.52654030732810497283935546875</LatitudeDegrees>
              <LongitudeDegrees>-3.3642372675240039825439453125</LongitudeDegrees>
            </Position>
            <AltitudeMeters>680.5999755859375</AltitudeMeters>
            <DistanceMeters>70988.256752491</DistanceMeters>
          </Trackpoint>
          <Trackpoint>
            <Time>2019-07-19T11:40:08.000Z</Time>
            <Position>
              <LatitudeDegrees>40.52632019855082035064697265625</LatitudeDegrees>
              <LongitudeDegrees>-3.36416275240480899810791015625</LongitudeDegrees>
            </Position>
            <AltitudeMeters>681.5999755859375</AltitudeMeters>
            <DistanceMeters>71013.55332078</DistanceMeters>
          </Trackpoint>
          <Trackpoint>
            <Time>2019-07-19T11:40:13.000Z</Time>
            <Position>
              <LatitudeDegrees>40.52619178779423236846923828125</LatitudeDegrees>
              <LongitudeDegrees>-3.36412268690764904022216796875</LongitudeDegrees>
            </Position>
            <AltitudeMeters>682</AltitudeMeters>
            <DistanceMeters>71028.242250168</DistanceMeters>
          </Trackpoint>
          <Trackpoint>
            <Time>2019-07-19T11:40:30.000Z</Time>
            <Position>
              <LatitudeDegrees>40.52566473372280597686767578125</LatitudeDegrees>
              <LongitudeDegrees>-3.36392956785857677459716796875</LongitudeDegrees>
            </Position>
            <AltitudeMeters>680.5999755859375</AltitudeMeters>
            <DistanceMeters>71089.137100784</DistanceMeters>
          </Trackpoint>
          <Trackpoint>
            <Time>2019-07-19T11:40:34.000Z</Time>
            <Position>
              <LatitudeDegrees>40.52548720501363277435302734375</LatitudeDegrees>
              <LongitudeDegrees>-3.3638480119407176971435546875</LongitudeDegrees>
            </Position>
            <AltitudeMeters>680.20001220703125</AltitudeMeters>
            <DistanceMeters>71110.066505415</DistanceMeters>
          </Trackpoint>
          <Trackpoint>
            <Time>2019-07-19T11:40:43.000Z</Time>
            <Position>
              <LatitudeDegrees>40.52492913790047168731689453125</LatitudeDegrees>
              <LongitudeDegrees>-3.3636389672756195068359375</LongitudeDegrees>
            </Position>
            <AltitudeMeters>680.5999755859375</AltitudeMeters>
            <DistanceMeters>71174.649236071</DistanceMeters>
          </Trackpoint>
          <Trackpoint>
            <Time>2019-07-19T11:40:46.000Z</Time>
            <Position>
              <LatitudeDegrees>40.524672567844390869140625</LatitudeDegrees>
              <LongitudeDegrees>-3.36356629617512226104736328125</LongitudeDegrees>
            </Position>
            <AltitudeMeters>679.20001220703125</AltitudeMeters>
            <DistanceMeters>71203.860485164</DistanceMeters>
          </Trackpoint>
          <Trackpoint>
            <Time>2019-07-19T11:40:48.000Z</Time>
            <Position>
              <LatitudeDegrees>40.52448338828980922698974609375</LatitudeDegrees>
              <LongitudeDegrees>-3.363535366952419281005859375</LongitudeDegrees>
            </Position>
            <AltitudeMeters>677.5999755859375</AltitudeMeters>
            <DistanceMeters>71225.078909972</DistanceMeters>
          </Trackpoint>
          <Trackpoint>
            <Time>2019-07-19T11:40:50.000Z</Time>
            <Position>
              <LatitudeDegrees>40.5242932029068470001220703125</LatitudeDegrees>
              <LongitudeDegrees>-3.36350980214774608612060546875</LongitudeDegrees>
            </Position>
            <AltitudeMeters>676</AltitudeMeters>
            <DistanceMeters>71246.357256546</DistanceMeters>
          </Trackpoint>
          <Trackpoint>
            <Time>2019-07-19T11:40:53.000Z</Time>
            <Position>
              <LatitudeDegrees>40.52402255125343799591064453125</LatitudeDegrees>
              <LongitudeDegrees>-3.36347308941185474395751953125</LongitudeDegrees>
            </Position>
            <AltitudeMeters>675</AltitudeMeters>
            <DistanceMeters>71276.64097484</DistanceMeters>
          </Trackpoint>
          <Trackpoint>
            <Time>2019-07-19T11:40:57.000Z</Time>
            <Position>
              <LatitudeDegrees>40.5237125046551227569580078125</LatitudeDegrees>
              <LongitudeDegrees>-3.36339798755943775177001953125</LongitudeDegrees>
            </Position>
            <AltitudeMeters>673.79998779296875</AltitudeMeters>
            <DistanceMeters>71311.729902766</DistanceMeters>
          </Trackpoint>
          <Trackpoint>
            <Time>2019-07-19T11:41:02.000Z</Time>
            <Position>
              <LatitudeDegrees>40.523390807211399078369140625</LatitudeDegrees>
              <LongitudeDegrees>-3.36324267089366912841796875</LongitudeDegrees>
            </Position>
            <AltitudeMeters>672.79998779296875</AltitudeMeters>
            <DistanceMeters>71349.870671307</DistanceMeters>
          </Trackpoint>
          <Trackpoint>
            <Time>2019-07-19T11:41:04.000Z</Time>
            <Position>
              <LatitudeDegrees>40.523275472223758697509765625</LatitudeDegrees>
              <LongitudeDegrees>-3.3631798066198825836181640625</LongitudeDegrees>
            </Position>
            <AltitudeMeters>671.79998779296875</AltitudeMeters>
            <DistanceMeters>71363.766358573</DistanceMeters>
          </Trackpoint>
          <Trackpoint>
            <Time>2019-07-19T11:41:06.000Z</Time>
            <Position>
              <LatitudeDegrees>40.52317178808152675628662109375</LatitudeDegrees>
              <LongitudeDegrees>-3.363097496330738067626953125</LongitudeDegrees>
            </Position>
            <AltitudeMeters>671.5999755859375</AltitudeMeters>
            <DistanceMeters>71377.244751574</DistanceMeters>
          </Trackpoint>
          <Trackpoint>
            <Time>2019-07-19T11:41:09.000Z</Time>
            <Position>
              <LatitudeDegrees>40.5230362527072429656982421875</LatitudeDegrees>
              <LongitudeDegrees>-3.36292407475411891937255859375</LongitudeDegrees>
            </Position>
            <AltitudeMeters>673</AltitudeMeters>
            <DistanceMeters>71398.288610034</DistanceMeters>
          </Trackpoint>
          <Trackpoint>
            <Time>2019-07-19T11:41:12.000Z</Time>
            <Position>
              <LatitudeDegrees>40.52290759049355983734130859375</LatitudeDegrees>
              <LongitudeDegrees>-3.36274000816047191619873046875</LongitudeDegrees>
            </Position>
            <AltitudeMeters>671.20001220703125</AltitudeMeters>
            <DistanceMeters>71419.445236164</DistanceMeters>
          </Trackpoint>
          <Trackpoint>
            <Time>2019-07-19T11:41:14.000Z</Time>
            <Position>
              <LatitudeDegrees>40.52281337790191173553466796875</LatitudeDegrees>
              <LongitudeDegrees>-3.36262769065797328948974609375</LongitudeDegrees>
            </Position>
            <AltitudeMeters>670</AltitudeMeters>
            <DistanceMeters>71433.596561377</DistanceMeters>
          </Trackpoint>
          <Trackpoint>
            <Time>2019-07-19T11:41:16.000Z</Time>
            <Position>
              <LatitudeDegrees>40.52271522581577301025390625</LatitudeDegrees>
              <LongitudeDegrees>-3.36252258159220218658447265625</LongitudeDegrees>
            </Position>
            <AltitudeMeters>669.5999755859375</AltitudeMeters>
            <DistanceMeters>71447.682969712</DistanceMeters>
          </Trackpoint>
          <Trackpoint>
            <Time>2019-07-19T11:41:20.000Z</Time>
            <Position>
              <LatitudeDegrees>40.5225281417369842529296875</LatitudeDegrees>
              <LongitudeDegrees>-3.3623050712049007415771484375</LongitudeDegrees>
            </Position>
            <AltitudeMeters>668.79998779296875</AltitudeMeters>
            <DistanceMeters>71475.47223216</DistanceMeters>
          </Trackpoint>
          <Trackpoint>
            <Time>2019-07-19T11:41:23.000Z</Time>
            <Position>
              <LatitudeDegrees>40.52238673903048038482666015625</LatitudeDegrees>
              <LongitudeDegrees>-3.36214003153145313262939453125</LongitudeDegrees>
            </Position>
            <AltitudeMeters>667.79998779296875</AltitudeMeters>
            <DistanceMeters>71496.512013705</DistanceMeters>
          </Trackpoint>
          <Trackpoint>
            <Time>2019-07-19T11:41:30.000Z</Time>
            <Position>
              <LatitudeDegrees>40.52199698053300380706787109375</LatitudeDegrees>
              <LongitudeDegrees>-3.36185328662395477294921875</LongitudeDegrees>
            </Position>
            <AltitudeMeters>669.20001220703125</AltitudeMeters>
            <DistanceMeters>71546.215800016</DistanceMeters>
          </Trackpoint>
          <Trackpoint>
            <Time>2019-07-19T11:41:31.000Z</Time>
            <Position>
              <LatitudeDegrees>40.52193897776305675506591796875</LatitudeDegrees>
              <LongitudeDegrees>-3.36181431077420711517333984375</LongitudeDegrees>
            </Position>
            <AltitudeMeters>669.5999755859375</AltitudeMeters>
            <DistanceMeters>71553.465285853</DistanceMeters>
          </Trackpoint>
          <Trackpoint>
            <Time>2019-07-19T11:41:33.000Z</Time>
            <Position>
              <LatitudeDegrees>40.5218255706131458282470703125</LatitudeDegrees>
              <LongitudeDegrees>-3.36176787503063678741455078125</LongitudeDegrees>
            </Position>
            <AltitudeMeters>670.79998779296875</AltitudeMeters>
            <DistanceMeters>71566.684932952</DistanceMeters>
          </Trackpoint>
          <Trackpoint>
            <Time>2019-07-19T11:41:37.000Z</Time>
            <Position>
              <LatitudeDegrees>40.52161577157676219940185546875</LatitudeDegrees>
              <LongitudeDegrees>-3.36170283146202564239501953125</LongitudeDegrees>
            </Position>
            <AltitudeMeters>669.5999755859375</AltitudeMeters>
            <DistanceMeters>71590.675743951</DistanceMeters>
          </Trackpoint>
          <Trackpoint>
            <Time>2019-07-19T11:41:40.000Z</Time>
            <Position>
              <LatitudeDegrees>40.52151200361549854278564453125</LatitudeDegrees>
              <LongitudeDegrees>-3.3617024123668670654296875</LongitudeDegrees>
            </Position>
            <AltitudeMeters>668.5999755859375</AltitudeMeters>
            <DistanceMeters>71602.225301918</DistanceMeters>
          </Trackpoint>
          <Trackpoint>
            <Time>2019-07-19T11:41:55.000Z</Time>
            <Position>
              <LatitudeDegrees>40.5209448002278804779052734375</LatitudeDegrees>
              <LongitudeDegrees>-3.3618043363094329833984375</LongitudeDegrees>
            </Position>
            <AltitudeMeters>667.5999755859375</AltitudeMeters>
            <DistanceMeters>71665.942538589</DistanceMeters>
          </Trackpoint>
          <Trackpoint>
            <Time>2019-07-19T11:41:56.000Z</Time>
            <Position>
              <LatitudeDegrees>40.52090113051235675811767578125</LatitudeDegrees>
              <LongitudeDegrees>-3.36180995218455791473388671875</LongitudeDegrees>
            </Position>
            <AltitudeMeters>667.4000244140625</AltitudeMeters>
            <DistanceMeters>71670.826948683</DistanceMeters>
          </Trackpoint>
          <Trackpoint>
            <Time>2019-07-19T11:42:04.000Z</Time>
            <Position>
              <LatitudeDegrees>40.5205163173377513885498046875</LatitudeDegrees>
              <LongitudeDegrees>-3.36182621307671070098876953125</LongitudeDegrees>
            </Position>
            <AltitudeMeters>666.4000244140625</AltitudeMeters>
            <DistanceMeters>71713.679466526</DistanceMeters>
          </Trackpoint>
          <Trackpoint>
            <Time>2019-07-19T11:42:16.000Z</Time>
            <Position>
              <LatitudeDegrees>40.51994525827467441558837890625</LatitudeDegrees>
              <LongitudeDegrees>-3.36172848008573055267333984375</LongitudeDegrees>
            </Position>
            <AltitudeMeters>667</AltitudeMeters>
            <DistanceMeters>71777.775108642</DistanceMeters>
          </Trackpoint>
          <Trackpoint>
            <Time>2019-07-19T11:42:17.000Z</Time>
            <Position>
              <LatitudeDegrees>40.519897229969501495361328125</LatitudeDegrees>
              <LongitudeDegrees>-3.36171590723097324371337890625</LongitudeDegrees>
            </Position>
            <AltitudeMeters>667.20001220703125</AltitudeMeters>
            <DistanceMeters>71783.224872071</DistanceMeters>
          </Trackpoint>
          <Trackpoint>
            <Time>2019-07-19T11:42:26.000Z</Time>
            <Position>
              <LatitudeDegrees>40.5194571800529956817626953125</LatitudeDegrees>
              <LongitudeDegrees>-3.36163602769374847412109375</LongitudeDegrees>
            </Position>
            <AltitudeMeters>667.4000244140625</AltitudeMeters>
            <DistanceMeters>71832.667445977</DistanceMeters>
          </Trackpoint>
          <Trackpoint>
            <Time>2019-07-19T11:42:36.000Z</Time>
            <Position>
              <LatitudeDegrees>40.5189163796603679656982421875</LatitudeDegrees>
              <LongitudeDegrees>-3.36154692806303501129150390625</LongitudeDegrees>
            </Position>
            <AltitudeMeters>668.4000244140625</AltitudeMeters>
            <DistanceMeters>71893.329928225</DistanceMeters>
          </Trackpoint>
          <Trackpoint>
            <Time>2019-07-19T11:42:41.000Z</Time>
            <Position>
              <LatitudeDegrees>40.518630556762218475341796875</LatitudeDegrees>
              <LongitudeDegrees>-3.361522369086742401123046875</LongitudeDegrees>
            </Position>
            <AltitudeMeters>667.5999755859375</AltitudeMeters>
            <DistanceMeters>71925.210222513</DistanceMeters>
          </Trackpoint>
          <Trackpoint>
            <Time>2019-07-19T11:42:43.000Z</Time>
            <Position>
              <LatitudeDegrees>40.518526621162891387939453125</LatitudeDegrees>
              <LongitudeDegrees>-3.3615476824343204498291015625</LongitudeDegrees>
            </Position>
            <AltitudeMeters>666.5999755859375</AltitudeMeters>
            <DistanceMeters>71936.975128451</DistanceMeters>
          </Trackpoint>
          <Trackpoint>
            <Time>2019-07-19T11:42:44.000Z</Time>
            <Position>
              <LatitudeDegrees>40.5184753239154815673828125</LatitudeDegrees>
              <LongitudeDegrees>-3.36156637407839298248291015625</LongitudeDegrees>
            </Position>
            <AltitudeMeters>666.20001220703125</AltitudeMeters>
            <DistanceMeters>71942.899645912</DistanceMeters>
          </Trackpoint>
          <Trackpoint>
            <Time>2019-07-19T11:42:48.000Z</Time>
            <Position>
              <LatitudeDegrees>40.5182676203548908233642578125</LatitudeDegrees>
              <LongitudeDegrees>-3.36164616979658603668212890625</LongitudeDegrees>
            </Position>
            <AltitudeMeters>665.20001220703125</AltitudeMeters>
            <DistanceMeters>71966.983247597</DistanceMeters>
          </Trackpoint>
          <Trackpoint>
            <Time>2019-07-19T11:42:50.000Z</Time>
            <Position>
              <LatitudeDegrees>40.5181643553078174591064453125</LatitudeDegrees>
              <LongitudeDegrees>-3.36167735047638416290283203125</LongitudeDegrees>
            </Position>
            <AltitudeMeters>665</AltitudeMeters>
            <DistanceMeters>71978.775752727</DistanceMeters>
          </Trackpoint>
          <Trackpoint>
            <Time>2019-07-19T11:42:53.000Z</Time>
            <Position>
              <LatitudeDegrees>40.51799990236759185791015625</LatitudeDegrees>
              <LongitudeDegrees>-3.36168908514082431793212890625</LongitudeDegrees>
            </Position>
            <AltitudeMeters>665</AltitudeMeters>
            <DistanceMeters>71997.106304941</DistanceMeters>
          </Trackpoint>
          <Trackpoint>
            <Time>2019-07-19T11:43:03.000Z</Time>
            <Position>
              <LatitudeDegrees>40.5174589343369007110595703125</LatitudeDegrees>
              <LongitudeDegrees>-3.36153083480894565582275390625</LongitudeDegrees>
            </Position>
            <AltitudeMeters>664.20001220703125</AltitudeMeters>
            <DistanceMeters>72058.78793955</DistanceMeters>
          </Trackpoint>
          <Trackpoint>
            <Time>2019-07-19T11:43:12.000Z</Time>
            <Position>
              <LatitudeDegrees>40.51701813004910945892333984375</LatitudeDegrees>
              <LongitudeDegrees>-3.361284323036670684814453125</LongitudeDegrees>
            </Position>
            <AltitudeMeters>664</AltitudeMeters>
            <DistanceMeters>72112.100043621</DistanceMeters>
          </Trackpoint>
          <Trackpoint>
            <Time>2019-07-19T11:43:20.000Z</Time>
            <Position>
              <LatitudeDegrees>40.5166693590581417083740234375</LatitudeDegrees>
              <LongitudeDegrees>-3.3609783835709095001220703125</LongitudeDegrees>
            </Position>
            <AltitudeMeters>665</AltitudeMeters>
            <DistanceMeters>72158.758644217</DistanceMeters>
          </Trackpoint>
          <Trackpoint>
            <Time>2019-07-19T11:43:32.000Z</Time>
            <Position>
              <LatitudeDegrees>40.516264848411083221435546875</LatitudeDegrees>
              <LongitudeDegrees>-3.3605016209185123443603515625</LongitudeDegrees>
            </Position>
            <AltitudeMeters>665.5999755859375</AltitudeMeters>
            <DistanceMeters>72219.210574017</DistanceMeters>
          </Trackpoint>
          <Trackpoint>
            <Time>2019-07-19T11:43:33.000Z</Time>
            <Position>
              <LatitudeDegrees>40.51623391918838024139404296875</LatitudeDegrees>
              <LongitudeDegrees>-3.36046063341200351715087890625</LongitudeDegrees>
            </Position>
            <AltitudeMeters>666</AltitudeMeters>
            <DistanceMeters>72224.097756456</DistanceMeters>
          </Trackpoint>
          <Trackpoint>
            <Time>2019-07-19T11:43:47.000Z</Time>
            <Position>
              <LatitudeDegrees>40.5158318392932415008544921875</LatitudeDegrees>
              <LongitudeDegrees>-3.359974734485149383544921875</LongitudeDegrees>
            </Position>
            <AltitudeMeters>665.5999755859375</AltitudeMeters>
            <DistanceMeters>72284.868956249</DistanceMeters>
          </Trackpoint>
          <Trackpoint>
            <Time>2019-07-19T11:43:55.000Z</Time>
            <Position>
              <LatitudeDegrees>40.51554224453866481781005859375</LatitudeDegrees>
              <LongitudeDegrees>-3.359768874943256378173828125</LongitudeDegrees>
            </Position>
            <AltitudeMeters>664.79998779296875</AltitudeMeters>
            <DistanceMeters>72321.507023251</DistanceMeters>
          </Trackpoint>
          <Trackpoint>
            <Time>2019-07-19T11:44:02.000Z</Time>
            <Position>
              <LatitudeDegrees>40.51527586765587329864501953125</LatitudeDegrees>
              <LongitudeDegrees>-3.359721936285495758056640625</LongitudeDegrees>
            </Position>
            <AltitudeMeters>666</AltitudeMeters>
            <DistanceMeters>72351.420219417</DistanceMeters>
          </Trackpoint>
          <Trackpoint>
            <Time>2019-07-19T11:44:14.000Z</Time>
            <Position>
              <LatitudeDegrees>40.51481343805789947509765625</LatitudeDegrees>
              <LongitudeDegrees>-3.359618000686168670654296875</LongitudeDegrees>
            </Position>
            <AltitudeMeters>666.20001220703125</AltitudeMeters>
            <DistanceMeters>72403.635475048</DistanceMeters>
          </Trackpoint>
          <Trackpoint>
            <Time>2019-07-19T11:44:26.000Z</Time>
            <Position>
              <LatitudeDegrees>40.51444857381284236907958984375</LatitudeDegrees>
              <LongitudeDegrees>-3.3590156771242618560791015625</LongitudeDegrees>
            </Position>
            <AltitudeMeters>665.20001220703125</AltitudeMeters>
            <DistanceMeters>72468.802465087</DistanceMeters>
          </Trackpoint>
          <Trackpoint>
            <Time>2019-07-19T11:44:28.000Z</Time>
            <Position>
              <LatitudeDegrees>40.514389313757419586181640625</LatitudeDegrees>
              <LongitudeDegrees>-3.35890193469822406768798828125</LongitudeDegrees>
            </Position>
            <AltitudeMeters>664.79998779296875</AltitudeMeters>
            <DistanceMeters>72480.470259757</DistanceMeters>
          </Trackpoint>
          <Trackpoint>
            <Time>2019-07-19T11:44:29.000Z</Time>
            <Position>
              <LatitudeDegrees>40.51436006091535091400146484375</LatitudeDegrees>
              <LongitudeDegrees>-3.35884728468954563140869140625</LongitudeDegrees>
            </Position>
            <AltitudeMeters>664.79998779296875</AltitudeMeters>
            <DistanceMeters>72486.125746541</DistanceMeters>
          </Trackpoint>
          <Trackpoint>
            <Time>2019-07-19T11:44:40.000Z</Time>
            <Position>
              <LatitudeDegrees>40.513952113687992095947265625</LatitudeDegrees>
              <LongitudeDegrees>-3.3583712764084339141845703125</LongitudeDegrees>
            </Position>
            <AltitudeMeters>664.5999755859375</AltitudeMeters>
            <DistanceMeters>72546.821712526</DistanceMeters>
          </Trackpoint>
          <Trackpoint>
            <Time>2019-07-19T11:44:44.000Z</Time>
            <Position>
              <LatitudeDegrees>40.51384323276579380035400390625</LatitudeDegrees>
              <LongitudeDegrees>-3.358149826526641845703125</LongitudeDegrees>
            </Position>
            <AltitudeMeters>664.79998779296875</AltitudeMeters>
            <DistanceMeters>72569.137416767</DistanceMeters>
          </Trackpoint>
          <Trackpoint>
            <Time>2019-07-19T11:44:46.000Z</Time>
            <Position>
              <LatitudeDegrees>40.51380115561187267303466796875</LatitudeDegrees>
              <LongitudeDegrees>-3.35802518762648105621337890625</LongitudeDegrees>
            </Position>
            <AltitudeMeters>664.79998779296875</AltitudeMeters>
            <DistanceMeters>72580.676806146</DistanceMeters>
          </Trackpoint>
          <Trackpoint>
            <Time>2019-07-19T11:44:51.000Z</Time>
            <Position>
              <LatitudeDegrees>40.51374197937548160552978515625</LatitudeDegrees>
              <LongitudeDegrees>-3.35771195590496063232421875</LongitudeDegrees>
            </Position>
            <AltitudeMeters>664.4000244140625</AltitudeMeters>
            <DistanceMeters>72607.987688853</DistanceMeters>
          </Trackpoint>
          <Trackpoint>
            <Time>2019-07-19T11:44:54.000Z</Time>
            <Position>
              <LatitudeDegrees>40.5137430690228939056396484375</LatitudeDegrees>
              <LongitudeDegrees>-3.35752814076840877532958984375</LongitudeDegrees>
            </Position>
            <AltitudeMeters>664</AltitudeMeters>
            <DistanceMeters>72623.54220068</DistanceMeters>
          </Trackpoint>
          <Trackpoint>
            <Time>2019-07-19T11:44:56.000Z</Time>
            <Position>
              <LatitudeDegrees>40.51376109011471271514892578125</LatitudeDegrees>
              <LongitudeDegrees>-3.3574157394468784332275390625</LongitudeDegrees>
            </Position>
            <AltitudeMeters>663.79998779296875</AltitudeMeters>
            <DistanceMeters>72633.262834399</DistanceMeters>
          </Trackpoint>
          <Trackpoint>
            <Time>2019-07-19T11:45:06.000Z</Time>
            <Position>
              <LatitudeDegrees>40.51377416588366031646728515625</LatitudeDegrees>
              <LongitudeDegrees>-3.35687401704490184783935546875</LongitudeDegrees>
            </Position>
            <AltitudeMeters>663</AltitudeMeters>
            <DistanceMeters>72679.125014742</DistanceMeters>
          </Trackpoint>
          <Trackpoint>
            <Time>2019-07-19T11:45:08.000Z</Time>
            <Position>
              <LatitudeDegrees>40.5137631855905055999755859375</LatitudeDegrees>
              <LongitudeDegrees>-3.356753401458263397216796875</LongitudeDegrees>
            </Position>
            <AltitudeMeters>662.79998779296875</AltitudeMeters>
            <DistanceMeters>72689.403725478</DistanceMeters>
          </Trackpoint>
          <Trackpoint>
            <Time>2019-07-19T11:45:09.000Z</Time>
            <Position>
              <LatitudeDegrees>40.51375337876379489898681640625</LatitudeDegrees>
              <LongitudeDegrees>-3.35669849999248981475830078125</LongitudeDegrees>
            </Position>
            <AltitudeMeters>662.79998779296875</AltitudeMeters>
            <DistanceMeters>72694.175921282</DistanceMeters>
          </Trackpoint>
          <Trackpoint>
            <Time>2019-07-19T11:45:11.000Z</Time>
            <Position>
              <LatitudeDegrees>40.5137219466269016265869140625</LatitudeDegrees>
              <LongitudeDegrees>-3.35659607313573360443115234375</LongitudeDegrees>
            </Position>
            <AltitudeMeters>662.79998779296875</AltitudeMeters>
            <DistanceMeters>72703.522898847</DistanceMeters>
          </Trackpoint>
          <Trackpoint>
            <Time>2019-07-19T11:45:17.000Z</Time>
            <Position>
              <LatitudeDegrees>40.51358004100620746612548828125</LatitudeDegrees>
              <LongitudeDegrees>-3.356298767030239105224609375</LongitudeDegrees>
            </Position>
            <AltitudeMeters>663.5999755859375</AltitudeMeters>
            <DistanceMeters>72733.227526258</DistanceMeters>
          </Trackpoint>
          <Trackpoint>
            <Time>2019-07-19T11:45:21.000Z</Time>
            <Position>
              <LatitudeDegrees>40.51351130940020084381103515625</LatitudeDegrees>
              <LongitudeDegrees>-3.35611394606530666351318359375</LongitudeDegrees>
            </Position>
            <AltitudeMeters>662.20001220703125</AltitudeMeters>
            <DistanceMeters>72750.637395469</DistanceMeters>
          </Trackpoint>
          <Trackpoint>
            <Time>2019-07-19T11:45:23.000Z</Time>
            <Position>
              <LatitudeDegrees>40.51344945095479488372802734375</LatitudeDegrees>
              <LongitudeDegrees>-3.356054686009883880615234375</LongitudeDegrees>
            </Position>
            <AltitudeMeters>661.5999755859375</AltitudeMeters>
            <DistanceMeters>72759.154885366</DistanceMeters>
          </Trackpoint>
          <Trackpoint>
            <Time>2019-07-19T11:45:28.000Z</Time>
            <Position>
              <LatitudeDegrees>40.5133174359798431396484375</LatitudeDegrees>
              <LongitudeDegrees>-3.3559425361454486846923828125</LongitudeDegrees>
            </Position>
            <AltitudeMeters>662.79998779296875</AltitudeMeters>
            <DistanceMeters>72776.646513365</DistanceMeters>
          </Trackpoint>
          <Trackpoint>
            <Time>2019-07-19T11:45:30.000Z</Time>
            <Position>
              <LatitudeDegrees>40.5132559128105640411376953125</LatitudeDegrees>
              <LongitudeDegrees>-3.3559757284820079803466796875</LongitudeDegrees>
            </Position>
            <AltitudeMeters>662.5999755859375</AltitudeMeters>
            <DistanceMeters>72784.047624343</DistanceMeters>
          </Trackpoint>
          <Trackpoint>
            <Time>2019-07-19T11:45:33.000Z</Time>
            <Position>
              <LatitudeDegrees>40.51319413818418979644775390625</LatitudeDegrees>
              <LongitudeDegrees>-3.35607220418751239776611328125</LongitudeDegrees>
            </Position>
            <AltitudeMeters>661.4000244140625</AltitudeMeters>
            <DistanceMeters>72794.72111695</DistanceMeters>
          </Trackpoint>
          <Trackpoint>
            <Time>2019-07-19T11:45:40.000Z</Time>
            <Position>
              <LatitudeDegrees>40.51300152204930782318115234375</LatitudeDegrees>
              <LongitudeDegrees>-3.35632382892072200775146484375</LongitudeDegrees>
            </Position>
            <AltitudeMeters>660.4000244140625</AltitudeMeters>
            <DistanceMeters>72824.936324853</DistanceMeters>
          </Trackpoint>
          <Trackpoint>
            <Time>2019-07-19T11:45:50.000Z</Time>
            <Position>
              <LatitudeDegrees>40.5127419345080852508544921875</LatitudeDegrees>
              <LongitudeDegrees>-3.3566536568105220794677734375</LongitudeDegrees>
            </Position>
            <AltitudeMeters>660.79998779296875</AltitudeMeters>
            <DistanceMeters>72865.107568809</DistanceMeters>
          </Trackpoint>
          <Trackpoint>
            <Time>2019-07-19T11:45:52.000Z</Time>
            <Position>
              <LatitudeDegrees>40.51267848350107669830322265625</LatitudeDegrees>
              <LongitudeDegrees>-3.35672901012003421783447265625</LongitudeDegrees>
            </Position>
            <AltitudeMeters>661.4000244140625</AltitudeMeters>
            <DistanceMeters>72874.6225857</DistanceMeters>
          </Trackpoint>
          <Trackpoint>
            <Time>2019-07-19T11:45:58.000Z</Time>
            <Position>
              <LatitudeDegrees>40.512501038610935211181640625</LatitudeDegrees>
              <LongitudeDegrees>-3.356965295970439910888671875</LongitudeDegrees>
            </Position>
            <AltitudeMeters>660.20001220703125</AltitudeMeters>
            <DistanceMeters>72902.726726434</DistanceMeters>
          </Trackpoint>
          <Trackpoint>
            <Time>2019-07-19T11:46:12.000Z</Time>
            <Position>
              <LatitudeDegrees>40.5120951868593692779541015625</LatitudeDegrees>
              <LongitudeDegrees>-3.3574801124632358551025390625</LongitudeDegrees>
            </Position>
            <AltitudeMeters>659.4000244140625</AltitudeMeters>
            <DistanceMeters>72965.482357093</DistanceMeters>
          </Trackpoint>
          <Trackpoint>
            <Time>2019-07-19T11:46:13.000Z</Time>
            <Position>
              <LatitudeDegrees>40.512069202959537506103515625</LatitudeDegrees>
              <LongitudeDegrees>-3.3575106225907802581787109375</LongitudeDegrees>
            </Position>
            <AltitudeMeters>659.20001220703125</AltitudeMeters>
            <DistanceMeters>72969.35870166</DistanceMeters>
          </Trackpoint>
          <Trackpoint>
            <Time>2019-07-19T11:46:17.000Z</Time>
            <Position>
              <LatitudeDegrees>40.5119454860687255859375</LatitudeDegrees>
              <LongitudeDegrees>-3.357647247612476348876953125</LongitudeDegrees>
            </Position>
            <AltitudeMeters>659</AltitudeMeters>
            <DistanceMeters>72987.338599788</DistanceMeters>
          </Trackpoint>
          <Trackpoint>
            <Time>2019-07-19T11:46:21.000Z</Time>
            <Position>
              <LatitudeDegrees>40.51180810667574405670166015625</LatitudeDegrees>
              <LongitudeDegrees>-3.357808850705623626708984375</LongitudeDegrees>
            </Position>
            <AltitudeMeters>659</AltitudeMeters>
            <DistanceMeters>73007.852048115</DistanceMeters>
          </Trackpoint>
          <Trackpoint>
            <Time>2019-07-19T11:46:25.000Z</Time>
            <Position>
              <LatitudeDegrees>40.5116633512079715728759765625</LatitudeDegrees>
              <LongitudeDegrees>-3.35796332918107509613037109375</LongitudeDegrees>
            </Position>
            <AltitudeMeters>659.20001220703125</AltitudeMeters>
            <DistanceMeters>73028.5994507</DistanceMeters>
          </Trackpoint>
          <Trackpoint>
            <Time>2019-07-19T11:46:32.000Z</Time>
            <Position>
              <LatitudeDegrees>40.511422120034694671630859375</LatitudeDegrees>
              <LongitudeDegrees>-3.358187042176723480224609375</LongitudeDegrees>
            </Position>
            <AltitudeMeters>659.4000244140625</AltitudeMeters>
            <DistanceMeters>73061.451492896</DistanceMeters>
          </Trackpoint>
          <Trackpoint>
            <Time>2019-07-19T11:46:37.000Z</Time>
            <Position>
              <LatitudeDegrees>40.5112110637128353118896484375</LatitudeDegrees>
              <LongitudeDegrees>-3.3583276905119419097900390625</LongitudeDegrees>
            </Position>
            <AltitudeMeters>659.4000244140625</AltitudeMeters>
            <DistanceMeters>73087.785211215</DistanceMeters>
          </Trackpoint>
          <Trackpoint>
            <Time>2019-07-19T11:46:42.000Z</Time>
            <Position>
              <LatitudeDegrees>40.51100914366543292999267578125</LatitudeDegrees>
              <LongitudeDegrees>-3.3584376610815525054931640625</LongitudeDegrees>
            </Position>
            <AltitudeMeters>659.79998779296875</AltitudeMeters>
            <DistanceMeters>73112.109637186</DistanceMeters>
          </Trackpoint>
          <Trackpoint>
            <Time>2019-07-19T11:46:49.000Z</Time>
            <Position>
              <LatitudeDegrees>40.51075651310384273529052734375</LatitudeDegrees>
              <LongitudeDegrees>-3.35850748233497142791748046875</LongitudeDegrees>
            </Position>
            <AltitudeMeters>660.4000244140625</AltitudeMeters>
            <DistanceMeters>73140.841982177</DistanceMeters>
          </Trackpoint>
          <Trackpoint>
            <Time>2019-07-19T11:47:00.000Z</Time>
            <Position>
              <LatitudeDegrees>40.5103804171085357666015625</LatitudeDegrees>
              <LongitudeDegrees>-3.358783163130283355712890625</LongitudeDegrees>
            </Position>
            <AltitudeMeters>659.4000244140625</AltitudeMeters>
            <DistanceMeters>73188.763719634</DistanceMeters>
          </Trackpoint>
          <Trackpoint>
            <Time>2019-07-19T11:47:02.000Z</Time>
            <Position>
              <LatitudeDegrees>40.5102997832000255584716796875</LatitudeDegrees>
              <LongitudeDegrees>-3.35876262746751308441162109375</LongitudeDegrees>
            </Position>
            <AltitudeMeters>659.4000244140625</AltitudeMeters>
            <DistanceMeters>73197.905072237</DistanceMeters>
          </Trackpoint>
          <Trackpoint>
            <Time>2019-07-19T11:47:04.000Z</Time>
            <Position>
              <LatitudeDegrees>40.5102357454597949981689453125</LatitudeDegrees>
              <LongitudeDegrees>-3.3586951531469821929931640625</LongitudeDegrees>
            </Position>
            <AltitudeMeters>659.5999755859375</AltitudeMeters>
            <DistanceMeters>73207.03703566</DistanceMeters>
          </Trackpoint>
          <Trackpoint>
            <Time>2019-07-19T11:47:06.000Z</Time>
            <Position>
              <LatitudeDegrees>40.5101854540407657623291015625</LatitudeDegrees>
              <LongitudeDegrees>-3.35859834216535091400146484375</LongitudeDegrees>
            </Position>
            <AltitudeMeters>660.20001220703125</AltitudeMeters>
            <DistanceMeters>73216.959026055</DistanceMeters>
          </Trackpoint>
          <Trackpoint>
            <Time>2019-07-19T11:47:08.000Z</Time>
            <Position>
              <LatitudeDegrees>40.51012761890888214111328125</LatitudeDegrees>
              <LongitudeDegrees>-3.35851100273430347442626953125</LongitudeDegrees>
            </Position>
            <AltitudeMeters>660.79998779296875</AltitudeMeters>
            <DistanceMeters>73226.760146053</DistanceMeters>
          </Trackpoint>
          <Trackpoint>
            <Time>2019-07-19T11:47:10.000Z</Time>
            <Position>
              <LatitudeDegrees>40.51004715263843536376953125</LatitudeDegrees>
              <LongitudeDegrees>-3.358474038541316986083984375</LongitudeDegrees>
            </Position>
            <AltitudeMeters>661</AltitudeMeters>
            <DistanceMeters>73236.246649194</DistanceMeters>
          </Trackpoint>
          <Trackpoint>
            <Time>2019-07-19T11:47:16.000Z</Time>
            <Position>
              <LatitudeDegrees>40.50978672690689563751220703125</LatitudeDegrees>
              <LongitudeDegrees>-3.35846071131527423858642578125</LongitudeDegrees>
            </Position>
            <AltitudeMeters>660.79998779296875</AltitudeMeters>
            <DistanceMeters>73265.254400111</DistanceMeters>
          </Trackpoint>
          <Trackpoint>
            <Time>2019-07-19T11:47:18.000Z</Time>
            <Position>
              <LatitudeDegrees>40.50969536416232585906982421875</LatitudeDegrees>
              <LongitudeDegrees>-3.35846490226686000823974609375</LongitudeDegrees>
            </Position>
            <AltitudeMeters>660.79998779296875</AltitudeMeters>
            <DistanceMeters>73275.429360869</DistanceMeters>
          </Trackpoint>
          <Trackpoint>
            <Time>2019-07-19T11:47:31.000Z</Time>
            <Position>
              <LatitudeDegrees>40.50913989543914794921875</LatitudeDegrees>
              <LongitudeDegrees>-3.3585325442254543304443359375</LongitudeDegrees>
            </Position>
            <AltitudeMeters>660.5999755859375</AltitudeMeters>
            <DistanceMeters>73337.518539113</DistanceMeters>
          </Trackpoint>
          <Trackpoint>
            <Time>2019-07-19T11:47:38.000Z</Time>
            <Position>
              <LatitudeDegrees>40.5088674835860729217529296875</LatitudeDegrees>
              <LongitudeDegrees>-3.35859901271760463714599609375</LongitudeDegrees>
            </Position>
            <AltitudeMeters>661.5999755859375</AltitudeMeters>
            <DistanceMeters>73368.355842662</DistanceMeters>
          </Trackpoint>
          <Trackpoint>
            <Time>2019-07-19T11:47:42.000Z</Time>
            <Position>
              <LatitudeDegrees>40.50871543586254119873046875</LatitudeDegrees>
              <LongitudeDegrees>-3.35864536464214324951171875</LongitudeDegrees>
            </Position>
            <AltitudeMeters>662.79998779296875</AltitudeMeters>
            <DistanceMeters>73385.727547376</DistanceMeters>
          </Trackpoint>
          <Trackpoint>
            <Time>2019-07-19T11:47:50.000Z</Time>
            <Position>
              <LatitudeDegrees>40.50838376395404338836669921875</LatitudeDegrees>
              <LongitudeDegrees>-3.35876078344881534576416015625</LongitudeDegrees>
            </Position>
            <AltitudeMeters>661.5999755859375</AltitudeMeters>
            <DistanceMeters>73423.913627879</DistanceMeters>
          </Trackpoint>
          <Trackpoint>
            <Time>2019-07-19T11:48:00.000Z</Time>
            <Position>
              <LatitudeDegrees>40.5079659260809421539306640625</LatitudeDegrees>
              <LongitudeDegrees>-3.3589308522641658782958984375</LongitudeDegrees>
            </Position>
            <AltitudeMeters>661.4000244140625</AltitudeMeters>
            <DistanceMeters>73472.5958795</DistanceMeters>
          </Trackpoint>
          <Trackpoint>
            <Time>2019-07-19T11:48:05.000Z</Time>
            <Position>
              <LatitudeDegrees>40.507797785103321075439453125</LatitudeDegrees>
              <LongitudeDegrees>-3.35910460911691188812255859375</LongitudeDegrees>
            </Position>
            <AltitudeMeters>660.5999755859375</AltitudeMeters>
            <DistanceMeters>73496.396040534</DistanceMeters>
          </Trackpoint>
          <Trackpoint>
            <Time>2019-07-19T11:48:07.000Z</Time>
            <Position>
              <LatitudeDegrees>40.5077196657657623291015625</LatitudeDegrees>
              <LongitudeDegrees>-3.35914551280438899993896484375</LongitudeDegrees>
            </Position>
            <AltitudeMeters>660.4000244140625</AltitudeMeters>
            <DistanceMeters>73505.754121606</DistanceMeters>
          </Trackpoint>
          <Trackpoint>
            <Time>2019-07-19T11:48:14.000Z</Time>
            <Position>
              <LatitudeDegrees>40.50747759640216827392578125</LatitudeDegrees>
              <LongitudeDegrees>-3.35905373096466064453125</LongitudeDegrees>
            </Position>
            <AltitudeMeters>661.20001220703125</AltitudeMeters>
            <DistanceMeters>73533.794088188</DistanceMeters>
          </Trackpoint>
          <Trackpoint>
            <Time>2019-07-19T11:48:16.000Z</Time>
            <Position>
              <LatitudeDegrees>40.5073956213891506195068359375</LatitudeDegrees>
              <LongitudeDegrees>-3.3590160124003887176513671875</LongitudeDegrees>
            </Position>
            <AltitudeMeters>661</AltitudeMeters>
            <DistanceMeters>73543.460225005</DistanceMeters>
          </Trackpoint>
          <Trackpoint>
            <Time>2019-07-19T11:48:18.000Z</Time>
            <Position>
              <LatitudeDegrees>40.5073131434619426727294921875</LatitudeDegrees>
              <LongitudeDegrees>-3.3590012602508068084716796875</LongitudeDegrees>
            </Position>
            <AltitudeMeters>660.5999755859375</AltitudeMeters>
            <DistanceMeters>73552.72472049</DistanceMeters>
          </Trackpoint>
          <Trackpoint>
            <Time>2019-07-19T11:48:23.000Z</Time>
            <Position>
              <LatitudeDegrees>40.50710921175777912139892578125</LatitudeDegrees>
              <LongitudeDegrees>-3.35906538181006908416748046875</LongitudeDegrees>
            </Position>
            <AltitudeMeters>660.20001220703125</AltitudeMeters>
            <DistanceMeters>73576.06224458</DistanceMeters>
          </Trackpoint>
          <Trackpoint>
            <Time>2019-07-19T11:48:33.000Z</Time>
            <Position>
              <LatitudeDegrees>40.50667150877416133880615234375</LatitudeDegrees>
              <LongitudeDegrees>-3.35922631435096263885498046875</LongitudeDegrees>
            </Position>
            <AltitudeMeters>660.79998779296875</AltitudeMeters>
            <DistanceMeters>73626.647170218</DistanceMeters>
          </Trackpoint>
          <Trackpoint>
            <Time>2019-07-19T11:48:36.000Z</Time>
            <Position>
              <LatitudeDegrees>40.50655634142458438873291015625</LatitudeDegrees>
              <LongitudeDegrees>-3.3592600934207439422607421875</LongitudeDegrees>
            </Position>
            <AltitudeMeters>661.5999755859375</AltitudeMeters>
            <DistanceMeters>73639.780123431</DistanceMeters>
          </Trackpoint>
          <Trackpoint>
            <Time>2019-07-19T11:48:49.000Z</Time>
            <Position>
              <LatitudeDegrees>40.50602115690708160400390625</LatitudeDegrees>
              <LongitudeDegrees>-3.359367214143276214599609375</LongitudeDegrees>
            </Position>
            <AltitudeMeters>662.4000244140625</AltitudeMeters>
            <DistanceMeters>73700.033055419</DistanceMeters>
          </Trackpoint>
          <Trackpoint>
            <Time>2019-07-19T11:48:51.000Z</Time>
            <Position>
              <LatitudeDegrees>40.50592199899256229400634765625</LatitudeDegrees>
              <LongitudeDegrees>-3.35938707925379276275634765625</LongitudeDegrees>
            </Position>
            <AltitudeMeters>662.5999755859375</AltitudeMeters>
            <DistanceMeters>73711.196975657</DistanceMeters>
          </Trackpoint>
          <Trackpoint>
            <Time>2019-07-19T11:48:53.000Z</Time>
            <Position>
              <LatitudeDegrees>40.50581999123096466064453125</LatitudeDegrees>
              <LongitudeDegrees>-3.359402082860469818115234375</LongitudeDegrees>
            </Position>
            <AltitudeMeters>663</AltitudeMeters>
            <DistanceMeters>73722.621542385</DistanceMeters>
          </Trackpoint>
          <Trackpoint>
            <Time>2019-07-19T11:49:04.000Z</Time>
            <Position>
              <LatitudeDegrees>40.50524172373116016387939453125</LatitudeDegrees>
              <LongitudeDegrees>-3.359524793922901153564453125</LongitudeDegrees>
            </Position>
            <AltitudeMeters>662.20001220703125</AltitudeMeters>
            <DistanceMeters>73787.816240186</DistanceMeters>
          </Trackpoint>
          <Trackpoint>
            <Time>2019-07-19T11:49:08.000Z</Time>
            <Position>
              <LatitudeDegrees>40.5050302483141422271728515625</LatitudeDegrees>
              <LongitudeDegrees>-3.3595628477632999420166015625</LongitudeDegrees>
            </Position>
            <AltitudeMeters>661.5999755859375</AltitudeMeters>
            <DistanceMeters>73811.573298882</DistanceMeters>
          </Trackpoint>
          <Trackpoint>
            <Time>2019-07-19T11:49:17.000Z</Time>
            <Position>
              <LatitudeDegrees>40.50458014011383056640625</LatitudeDegrees>
              <LongitudeDegrees>-3.35964842699468135833740234375</LongitudeDegrees>
            </Position>
            <AltitudeMeters>660.5999755859375</AltitudeMeters>
            <DistanceMeters>73862.192130663</DistanceMeters>
          </Trackpoint>
          <Trackpoint>
            <Time>2019-07-19T11:49:20.000Z</Time>
            <Position>
              <LatitudeDegrees>40.5044435150921344757080078125</LatitudeDegrees>
              <LongitudeDegrees>-3.3596969582140445709228515625</LongitudeDegrees>
            </Position>
            <AltitudeMeters>660.5999755859375</AltitudeMeters>
            <DistanceMeters>73877.943650601</DistanceMeters>
          </Trackpoint>
          <Trackpoint>
            <Time>2019-07-19T11:49:23.000Z</Time>
            <Position>
              <LatitudeDegrees>40.504324994981288909912109375</LatitudeDegrees>
              <LongitudeDegrees>-3.35978664457798004150390625</LongitudeDegrees>
            </Position>
            <AltitudeMeters>660.4000244140625</AltitudeMeters>
            <DistanceMeters>73893.163062248</DistanceMeters>
          </Trackpoint>
          <Trackpoint>
            <Time>2019-07-19T11:49:27.000Z</Time>
            <Position>
              <LatitudeDegrees>40.50413430668413639068603515625</LatitudeDegrees>
              <LongitudeDegrees>-3.359798379242420196533203125</LongitudeDegrees>
            </Position>
            <AltitudeMeters>659.5999755859375</AltitudeMeters>
            <DistanceMeters>73914.410406593</DistanceMeters>
          </Trackpoint>
          <Trackpoint>
            <Time>2019-07-19T11:49:29.000Z</Time>
            <Position>
              <LatitudeDegrees>40.50403472967445850372314453125</LatitudeDegrees>
              <LongitudeDegrees>-3.35982545278966426849365234375</LongitudeDegrees>
            </Position>
            <AltitudeMeters>659.4000244140625</AltitudeMeters>
            <DistanceMeters>73925.728164072</DistanceMeters>
          </Trackpoint>
          <Trackpoint>
            <Time>2019-07-19T11:49:39.000Z</Time>
            <Position>
              <LatitudeDegrees>40.5035007186233997344970703125</LatitudeDegrees>
              <LongitudeDegrees>-3.359986133873462677001953125</LongitudeDegrees>
            </Position>
            <AltitudeMeters>658.79998779296875</AltitudeMeters>
            <DistanceMeters>73986.700372753</DistanceMeters>
          </Trackpoint>
          <Trackpoint>
            <Time>2019-07-19T11:49:42.000Z</Time>
            <Position>
              <LatitudeDegrees>40.50333559513092041015625</LatitudeDegrees>
              <LongitudeDegrees>-3.36003609001636505126953125</LongitudeDegrees>
            </Position>
            <AltitudeMeters>658.4000244140625</AltitudeMeters>
            <DistanceMeters>74005.559046109</DistanceMeters>
          </Trackpoint>
          <Trackpoint>
            <Time>2019-07-19T11:49:53.000Z</Time>
            <Position>
              <LatitudeDegrees>40.50278733484447002410888671875</LatitudeDegrees>
              <LongitudeDegrees>-3.36025410331785678863525390625</LongitudeDegrees>
            </Position>
            <AltitudeMeters>657.5999755859375</AltitudeMeters>
            <DistanceMeters>74069.30986183</DistanceMeters>
          </Trackpoint>
          <Trackpoint>
            <Time>2019-07-19T11:49:54.000Z</Time>
            <Position>
              <LatitudeDegrees>40.50273804925382137298583984375</LatitudeDegrees>
              <LongitudeDegrees>-3.360274136066436767578125</LongitudeDegrees>
            </Position>
            <AltitudeMeters>657.20001220703125</AltitudeMeters>
            <DistanceMeters>74075.052495301</DistanceMeters>
          </Trackpoint>
          <Trackpoint>
            <Time>2019-07-19T11:50:05.000Z</Time>
            <Position>
              <LatitudeDegrees>40.50219456665217876434326171875</LatitudeDegrees>
              <LongitudeDegrees>-3.3604912273585796356201171875</LongitudeDegrees>
            </Position>
            <AltitudeMeters>657.5999755859375</AltitudeMeters>
            <DistanceMeters>74138.271905089</DistanceMeters>
          </Trackpoint>
          <Trackpoint>
            <Time>2019-07-19T11:50:16.000Z</Time>
            <Position>
              <LatitudeDegrees>40.50162828527390956878662109375</LatitudeDegrees>
              <LongitudeDegrees>-3.36065769195556640625</LongitudeDegrees>
            </Position>
            <AltitudeMeters>657</AltitudeMeters>
            <DistanceMeters>74202.85554458</DistanceMeters>
          </Trackpoint>
          <Trackpoint>
            <Time>2019-07-19T11:50:27.000Z</Time>
            <Position>
              <LatitudeDegrees>40.5010810308158397674560546875</LatitudeDegrees>
              <LongitudeDegrees>-3.36078107357025146484375</LongitudeDegrees>
            </Position>
            <AltitudeMeters>657.20001220703125</AltitudeMeters>
            <DistanceMeters>74264.654625081</DistanceMeters>
          </Trackpoint>
          <Trackpoint>
            <Time>2019-07-19T11:50:31.000Z</Time>
            <Position>
              <LatitudeDegrees>40.50099444575607776641845703125</LatitudeDegrees>
              <LongitudeDegrees>-3.36063430644571781158447265625</LongitudeDegrees>
            </Position>
            <AltitudeMeters>657.79998779296875</AltitudeMeters>
            <DistanceMeters>74280.37601886</DistanceMeters>
          </Trackpoint>
          <Trackpoint>
            <Time>2019-07-19T11:50:37.000Z</Time>
            <Position>
              <LatitudeDegrees>40.5008138157427310943603515625</LatitudeDegrees>
              <LongitudeDegrees>-3.36061167530715465545654296875</LongitudeDegrees>
            </Position>
            <AltitudeMeters>658.20001220703125</AltitudeMeters>
            <DistanceMeters>74300.571599138</DistanceMeters>
          </Trackpoint>
          <Trackpoint>
            <Time>2019-07-19T11:50:39.000Z</Time>
            <Position>
              <LatitudeDegrees>40.5007445812225341796875</LatitudeDegrees>
              <LongitudeDegrees>-3.36060765199363231658935546875</LongitudeDegrees>
            </Position>
            <AltitudeMeters>658.79998779296875</AltitudeMeters>
            <DistanceMeters>74308.285755201</DistanceMeters>
          </Trackpoint>
          <Trackpoint>
            <Time>2019-07-19T11:50:40.000Z</Time>
            <Position>
              <LatitudeDegrees>40.500707365572452545166015625</LatitudeDegrees>
              <LongitudeDegrees>-3.36059072054922580718994140625</LongitudeDegrees>
            </Position>
            <AltitudeMeters>659.20001220703125</AltitudeMeters>
            <DistanceMeters>74312.668331224</DistanceMeters>
          </Trackpoint>
          <Trackpoint>
            <Time>2019-07-19T11:50:41.000Z</Time>
            <Position>
              <LatitudeDegrees>40.50066671334207057952880859375</LatitudeDegrees>
              <LongitudeDegrees>-3.3605777285993099212646484375</LongitudeDegrees>
            </Position>
            <AltitudeMeters>659.4000244140625</AltitudeMeters>
            <DistanceMeters>74317.324640228</DistanceMeters>
          </Trackpoint>
          <Trackpoint>
            <Time>2019-07-19T11:50:43.000Z</Time>
            <Position>
              <LatitudeDegrees>40.50060041248798370361328125</LatitudeDegrees>
              <LongitudeDegrees>-3.3605317957699298858642578125</LongitudeDegrees>
            </Position>
            <AltitudeMeters>659.20001220703125</AltitudeMeters>
            <DistanceMeters>74325.664824809</DistanceMeters>
          </Trackpoint>
          <Trackpoint>
            <Time>2019-07-19T11:50:49.000Z</Time>
            <Position>
              <LatitudeDegrees>40.50045951269567012786865234375</LatitudeDegrees>
              <LongitudeDegrees>-3.3602639101445674896240234375</LongitudeDegrees>
            </Position>
            <AltitudeMeters>658.20001220703125</AltitudeMeters>
            <DistanceMeters>74353.232236792</DistanceMeters>
          </Trackpoint>
          <Trackpoint>
            <Time>2019-07-19T11:50:54.000Z</Time>
            <Position>
              <LatitudeDegrees>40.50032506696879863739013671875</LatitudeDegrees>
              <LongitudeDegrees>-3.36002427153289318084716796875</LongitudeDegrees>
            </Position>
            <AltitudeMeters>657</AltitudeMeters>
            <DistanceMeters>74378.436897232</DistanceMeters>
          </Trackpoint>
          <Trackpoint>
            <Time>2019-07-19T11:51:06.000Z</Time>
            <Position>
              <LatitudeDegrees>40.49997746944427490234375</LatitudeDegrees>
              <LongitudeDegrees>-3.3594439923763275146484375</LongitudeDegrees>
            </Position>
            <AltitudeMeters>657</AltitudeMeters>
            <DistanceMeters>74440.956820692</DistanceMeters>
          </Trackpoint>
          <Trackpoint>
            <Time>2019-07-19T11:51:12.000Z</Time>
            <Position>
              <LatitudeDegrees>40.49981980584561824798583984375</LatitudeDegrees>
              <LongitudeDegrees>-3.35917317308485507965087890625</LongitudeDegrees>
            </Position>
            <AltitudeMeters>656</AltitudeMeters>
            <DistanceMeters>74469.823834468</DistanceMeters>
          </Trackpoint>
          <Trackpoint>
            <Time>2019-07-19T11:51:24.000Z</Time>
            <Position>
              <LatitudeDegrees>40.49946047365665435791015625</LatitudeDegrees>
              <LongitudeDegrees>-3.35857436992228031158447265625</LongitudeDegrees>
            </Position>
            <AltitudeMeters>656.5999755859375</AltitudeMeters>
            <DistanceMeters>74534.383840076</DistanceMeters>
          </Trackpoint>
          <Trackpoint>
            <Time>2019-07-19T11:51:25.000Z</Time>
            <Position>
              <LatitudeDegrees>40.49943457357585430145263671875</LatitudeDegrees>
              <LongitudeDegrees>-3.35852977819740772247314453125</LongitudeDegrees>
            </Position>
            <AltitudeMeters>656</AltitudeMeters>
            <DistanceMeters>74539.132324137</DistanceMeters>
          </Trackpoint>
          <Trackpoint>
            <Time>2019-07-19T11:51:36.000Z</Time>
            <Position>
              <LatitudeDegrees>40.499132908880710601806640625</LatitudeDegrees>
              <LongitudeDegrees>-3.3580876328051090240478515625</LongitudeDegrees>
            </Position>
            <AltitudeMeters>655</AltitudeMeters>
            <DistanceMeters>74589.408371496</DistanceMeters>
          </Trackpoint>
          <Trackpoint>
            <Time>2019-07-19T11:51:46.000Z</Time>
            <Position>
              <LatitudeDegrees>40.49878430552780628204345703125</LatitudeDegrees>
              <LongitudeDegrees>-3.35768002085387706756591796875</LongitudeDegrees>
            </Position>
            <AltitudeMeters>654</AltitudeMeters>
            <DistanceMeters>74641.327580269</DistanceMeters>
          </Trackpoint>
          <Trackpoint>
            <Time>2019-07-19T11:51:55.000Z</Time>
            <Position>
              <LatitudeDegrees>40.49841801635921001434326171875</LatitudeDegrees>
              <LongitudeDegrees>-3.3572967164218425750732421875</LongitudeDegrees>
            </Position>
            <AltitudeMeters>655</AltitudeMeters>
            <DistanceMeters>74693.428917488</DistanceMeters>
          </Trackpoint>
          <Trackpoint>
            <Time>2019-07-19T11:51:58.000Z</Time>
            <Position>
              <LatitudeDegrees>40.4982911981642246246337890625</LatitudeDegrees>
              <LongitudeDegrees>-3.35713150911033153533935546875</LongitudeDegrees>
            </Position>
            <AltitudeMeters>654.79998779296875</AltitudeMeters>
            <DistanceMeters>74713.297001484</DistanceMeters>
          </Trackpoint>
          <Trackpoint>
            <Time>2019-07-19T11:52:01.000Z</Time>
            <Position>
              <LatitudeDegrees>40.49819606356322765350341796875</LatitudeDegrees>
              <LongitudeDegrees>-3.35694056935608386993408203125</LongitudeDegrees>
            </Position>
            <AltitudeMeters>654.20001220703125</AltitudeMeters>
            <DistanceMeters>74732.617594126</DistanceMeters>
          </Trackpoint>
          <Trackpoint>
            <Time>2019-07-19T11:52:02.000Z</Time>
            <Position>
              <LatitudeDegrees>40.498167313635349273681640625</LatitudeDegrees>
              <LongitudeDegrees>-3.3568628691136837005615234375</LongitudeDegrees>
            </Position>
            <AltitudeMeters>653.79998779296875</AltitudeMeters>
            <DistanceMeters>74739.931565199</DistanceMeters>
          </Trackpoint>
          <Trackpoint>
            <Time>2019-07-19T11:52:06.000Z</Time>
            <Position>
              <LatitudeDegrees>40.49803764559328556060791015625</LatitudeDegrees>
              <LongitudeDegrees>-3.356499932706356048583984375</LongitudeDegrees>
            </Position>
            <AltitudeMeters>652.79998779296875</AltitudeMeters>
            <DistanceMeters>74773.871138139</DistanceMeters>
          </Trackpoint>
          <Trackpoint>
            <Time>2019-07-19T11:52:08.000Z</Time>
            <Position>
              <LatitudeDegrees>40.49798500724136829376220703125</LatitudeDegrees>
              <LongitudeDegrees>-3.3562878705561161041259765625</LongitudeDegrees>
            </Position>
            <AltitudeMeters>650.5999755859375</AltitudeMeters>
            <DistanceMeters>74792.751585636</DistanceMeters>
          </Trackpoint>
          <Trackpoint>
            <Time>2019-07-19T11:52:09.000Z</Time>
            <Position>
              <LatitudeDegrees>40.49795365892350673675537109375</LatitudeDegrees>
              <LongitudeDegrees>-3.3561775647103786468505859375</LongitudeDegrees>
            </Position>
            <AltitudeMeters>648.79998779296875</AltitudeMeters>
            <DistanceMeters>74802.71807152</DistanceMeters>
          </Trackpoint>
          <Trackpoint>
            <Time>2019-07-19T11:52:10.000Z</Time>
            <Position>
              <LatitudeDegrees>40.49791954457759857177734375</LatitudeDegrees>
              <LongitudeDegrees>-3.356062062084674835205078125</LongitudeDegrees>
            </Position>
            <AltitudeMeters>647.5999755859375</AltitudeMeters>
            <DistanceMeters>74813.205508342</DistanceMeters>
          </Trackpoint>
          <Trackpoint>
            <Time>2019-07-19T11:52:12.000Z</Time>
            <Position>
              <LatitudeDegrees>40.4978593625128269195556640625</LatitudeDegrees>
              <LongitudeDegrees>-3.35584254004061222076416015625</LongitudeDegrees>
            </Position>
            <AltitudeMeters>646</AltitudeMeters>
            <DistanceMeters>74832.955982823</DistanceMeters>
          </Trackpoint>
          <Trackpoint>
            <Time>2019-07-19T11:52:20.000Z</Time>
            <Position>
              <LatitudeDegrees>40.49764998257160186767578125</LatitudeDegrees>
              <LongitudeDegrees>-3.35509814321994781494140625</LongitudeDegrees>
            </Position>
            <AltitudeMeters>645.5999755859375</AltitudeMeters>
            <DistanceMeters>74900.131804897</DistanceMeters>
          </Trackpoint>
          <Trackpoint>
            <Time>2019-07-19T11:52:24.000Z</Time>
            <Position>
              <LatitudeDegrees>40.49755082465708255767822265625</LatitudeDegrees>
              <LongitudeDegrees>-3.35480620153248310089111328125</LongitudeDegrees>
            </Position>
            <AltitudeMeters>646.4000244140625</AltitudeMeters>
            <DistanceMeters>74927.193904959</DistanceMeters>
          </Trackpoint>
          <Trackpoint>
            <Time>2019-07-19T11:52:26.000Z</Time>
            <Position>
              <LatitudeDegrees>40.49750220961868762969970703125</LatitudeDegrees>
              <LongitudeDegrees>-3.354689441621303558349609375</LongitudeDegrees>
            </Position>
            <AltitudeMeters>646.79998779296875</AltitudeMeters>
            <DistanceMeters>74938.460883908</DistanceMeters>
          </Trackpoint>
          <Trackpoint>
            <Time>2019-07-19T11:52:31.000Z</Time>
            <Position>
              <LatitudeDegrees>40.497404225170612335205078125</LatitudeDegrees>
              <LongitudeDegrees>-3.35438911803066730499267578125</LongitudeDegrees>
            </Position>
            <AltitudeMeters>646.79998779296875</AltitudeMeters>
            <DistanceMeters>74966.120351302</DistanceMeters>
          </Trackpoint>
          <Trackpoint>
            <Time>2019-07-19T11:52:37.000Z</Time>
            <Position>
              <LatitudeDegrees>40.49740858376026153564453125</LatitudeDegrees>
              <LongitudeDegrees>-3.35420630872249603271484375</LongitudeDegrees>
            </Position>
            <AltitudeMeters>646.79998779296875</AltitudeMeters>
            <DistanceMeters>74981.600666824</DistanceMeters>
          </Trackpoint>
          <Trackpoint>
            <Time>2019-07-19T11:52:45.000Z</Time>
            <Position>
              <LatitudeDegrees>40.4973824322223663330078125</LatitudeDegrees>
              <LongitudeDegrees>-3.3541739545762538909912109375</LongitudeDegrees>
            </Position>
            <AltitudeMeters>646.79998779296875</AltitudeMeters>
            <DistanceMeters>74985.596311347</DistanceMeters>
          </Trackpoint>
          <Trackpoint>
            <Time>2019-07-19T11:52:47.000Z</Time>
            <Position>
              <LatitudeDegrees>40.49735519103705883026123046875</LatitudeDegrees>
              <LongitudeDegrees>-3.35412324406206607818603515625</LongitudeDegrees>
            </Position>
            <AltitudeMeters>647</AltitudeMeters>
            <DistanceMeters>74990.851211324</DistanceMeters>
          </Trackpoint>
          <Trackpoint>
            <Time>2019-07-19T11:52:48.000Z</Time>
            <Position>
              <LatitudeDegrees>40.49733876250684261322021484375</LatitudeDegrees>
              <LongitudeDegrees>-3.3540841005742549896240234375</LongitudeDegrees>
            </Position>
            <AltitudeMeters>647.20001220703125</AltitudeMeters>
            <DistanceMeters>74994.635613686</DistanceMeters>
          </Trackpoint>
          <Trackpoint>
            <Time>2019-07-19T11:52:50.000Z</Time>
            <Position>
              <LatitudeDegrees>40.4972907342016696929931640625</LatitudeDegrees>
              <LongitudeDegrees>-3.3540187217295169830322265625</LongitudeDegrees>
            </Position>
            <AltitudeMeters>647.4000244140625</AltitudeMeters>
            <DistanceMeters>75002.329844068</DistanceMeters>
          </Trackpoint>
          <Trackpoint>
            <Time>2019-07-19T11:52:58.000Z</Time>
            <Position>
              <LatitudeDegrees>40.4971026442945003509521484375</LatitudeDegrees>
              <LongitudeDegrees>-3.353750668466091156005859375</LongitudeDegrees>
            </Position>
            <AltitudeMeters>646</AltitudeMeters>
            <DistanceMeters>75033.200512146</DistanceMeters>
          </Trackpoint>
          <Trackpoint>
            <Time>2019-07-19T11:53:11.000Z</Time>
            <Position>
              <LatitudeDegrees>40.49694749526679515838623046875</LatitudeDegrees>
              <LongitudeDegrees>-3.35303761996328830718994140625</LongitudeDegrees>
            </Position>
            <AltitudeMeters>646.4000244140625</AltitudeMeters>
            <DistanceMeters>75095.973767184</DistanceMeters>
          </Trackpoint>
          <Trackpoint>
            <Time>2019-07-19T11:53:23.000Z</Time>
            <Position>
              <LatitudeDegrees>40.496796034276485443115234375</LatitudeDegrees>
              <LongitudeDegrees>-3.35234359838068485260009765625</LongitudeDegrees>
            </Position>
            <AltitudeMeters>646</AltitudeMeters>
            <DistanceMeters>75157.085919298</DistanceMeters>
          </Trackpoint>
          <Trackpoint>
            <Time>2019-07-19T11:53:24.000Z</Time>
            <Position>
              <LatitudeDegrees>40.49678027629852294921875</LatitudeDegrees>
              <LongitudeDegrees>-3.35228794254362583160400390625</LongitudeDegrees>
            </Position>
            <AltitudeMeters>646</AltitudeMeters>
            <DistanceMeters>75162.112464224</DistanceMeters>
          </Trackpoint>
          <Trackpoint>
            <Time>2019-07-19T11:53:26.000Z</Time>
            <Position>
              <LatitudeDegrees>40.49672353081405162811279296875</LatitudeDegrees>
              <LongitudeDegrees>-3.35218685679137706756591796875</LongitudeDegrees>
            </Position>
            <AltitudeMeters>646</AltitudeMeters>
            <DistanceMeters>75172.746968321</DistanceMeters>
          </Trackpoint>
          <Trackpoint>
            <Time>2019-07-19T11:53:28.000Z</Time>
            <Position>
              <LatitudeDegrees>40.496649183332920074462890625</LatitudeDegrees>
              <LongitudeDegrees>-3.3521016128361225128173828125</LongitudeDegrees>
            </Position>
            <AltitudeMeters>645.79998779296875</AltitudeMeters>
            <DistanceMeters>75183.725741493</DistanceMeters>
          </Trackpoint>
          <Trackpoint>
            <Time>2019-07-19T11:53:38.000Z</Time>
            <Position>
              <LatitudeDegrees>40.49632874317467212677001953125</LatitudeDegrees>
              <LongitudeDegrees>-3.35153038613498210906982421875</LongitudeDegrees>
            </Position>
            <AltitudeMeters>645.5999755859375</AltitudeMeters>
            <DistanceMeters>75243.805475155</DistanceMeters>
          </Trackpoint>
          <Trackpoint>
            <Time>2019-07-19T11:53:48.000Z</Time>
            <Position>
              <LatitudeDegrees>40.49589925445616245269775390625</LatitudeDegrees>
              <LongitudeDegrees>-3.3510592393577098846435546875</LongitudeDegrees>
            </Position>
            <AltitudeMeters>647.20001220703125</AltitudeMeters>
            <DistanceMeters>75306.057837654</DistanceMeters>
          </Trackpoint>
          <Trackpoint>
            <Time>2019-07-19T11:53:50.000Z</Time>
            <Position>
              <LatitudeDegrees>40.4958051256835460662841796875</LatitudeDegrees>
              <LongitudeDegrees>-3.35098338313400745391845703125</LongitudeDegrees>
            </Position>
            <AltitudeMeters>647.4000244140625</AltitudeMeters>
            <DistanceMeters>75318.345346684</DistanceMeters>
          </Trackpoint>
          <Trackpoint>
            <Time>2019-07-19T11:53:53.000Z</Time>
            <Position>
              <LatitudeDegrees>40.4956619627773761749267578125</LatitudeDegrees>
              <LongitudeDegrees>-3.35092135705053806304931640625</LongitudeDegrees>
            </Position>
            <AltitudeMeters>648.20001220703125</AltitudeMeters>
            <DistanceMeters>75335.122339345</DistanceMeters>
          </Trackpoint>
          <Trackpoint>
            <Time>2019-07-19T11:53:55.000Z</Time>
            <Position>
              <LatitudeDegrees>40.49558828584849834442138671875</LatitudeDegrees>
              <LongitudeDegrees>-3.35082982666790485382080078125</LongitudeDegrees>
            </Position>
            <AltitudeMeters>648</AltitudeMeters>
            <DistanceMeters>75346.40373542</DistanceMeters>
          </Trackpoint>
          <Trackpoint>
            <Time>2019-07-19T11:53:57.000Z</Time>
            <Position>
              <LatitudeDegrees>40.495524667203426361083984375</LatitudeDegrees>
              <LongitudeDegrees>-3.350707031786441802978515625</LongitudeDegrees>
            </Position>
            <AltitudeMeters>647.5999755859375</AltitudeMeters>
            <DistanceMeters>75358.979974481</DistanceMeters>
          </Trackpoint>
          <Trackpoint>
            <Time>2019-07-19T11:54:00.000Z</Time>
            <Position>
              <LatitudeDegrees>40.4953753016889095306396484375</LatitudeDegrees>
              <LongitudeDegrees>-3.350554145872592926025390625</LongitudeDegrees>
            </Position>
            <AltitudeMeters>645.4000244140625</AltitudeMeters>
            <DistanceMeters>75380.047206317</DistanceMeters>
          </Trackpoint>
          <Trackpoint>
            <Time>2019-07-19T11:54:02.000Z</Time>
            <Position>
              <LatitudeDegrees>40.4952554404735565185546875</LatitudeDegrees>
              <LongitudeDegrees>-3.350434117019176483154296875</LongitudeDegrees>
            </Position>
            <AltitudeMeters>643.5999755859375</AltitudeMeters>
            <DistanceMeters>75396.8155849</DistanceMeters>
          </Trackpoint>
          <Trackpoint>
            <Time>2019-07-19T11:54:03.000Z</Time>
            <Position>
              <LatitudeDegrees>40.4951888881623744964599609375</LatitudeDegrees>
              <LongitudeDegrees>-3.35037217475473880767822265625</LongitudeDegrees>
            </Position>
            <AltitudeMeters>642.4000244140625</AltitudeMeters>
            <DistanceMeters>75405.890511741</DistanceMeters>
          </Trackpoint>
          <Trackpoint>
            <Time>2019-07-19T11:54:04.000Z</Time>
            <Position>
              <LatitudeDegrees>40.4951161332428455352783203125</LatitudeDegrees>
              <LongitudeDegrees>-3.35030327551066875457763671875</LongitudeDegrees>
            </Position>
            <AltitudeMeters>641.20001220703125</AltitudeMeters>
            <DistanceMeters>75415.869674182</DistanceMeters>
          </Trackpoint>
          <Trackpoint>
            <Time>2019-07-19T11:54:05.000Z</Time>
            <Position>
              <LatitudeDegrees>40.495044551789760589599609375</LatitudeDegrees>
              <LongitudeDegrees>-3.3502227254211902618408203125</LongitudeDegrees>
            </Position>
            <AltitudeMeters>640</AltitudeMeters>
            <DistanceMeters>75426.355819368</DistanceMeters>
          </Trackpoint>
          <Trackpoint>
            <Time>2019-07-19T11:54:07.000Z</Time>
            <Position>
              <LatitudeDegrees>40.49489862285554409027099609375</LatitudeDegrees>
              <LongitudeDegrees>-3.3500701747834682464599609375</LongitudeDegrees>
            </Position>
            <AltitudeMeters>638.79998779296875</AltitudeMeters>
            <DistanceMeters>75447.105180435</DistanceMeters>
          </Trackpoint>
          <Trackpoint>
            <Time>2019-07-19T11:54:14.000Z</Time>
            <Position>
              <LatitudeDegrees>40.49451339058578014373779296875</LatitudeDegrees>
              <LongitudeDegrees>-3.3496121875941753387451171875</LongitudeDegrees>
            </Position>
            <AltitudeMeters>640.5999755859375</AltitudeMeters>
            <DistanceMeters>75504.907830412</DistanceMeters>
          </Trackpoint>
          <Trackpoint>
            <Time>2019-07-19T11:54:16.000Z</Time>
            <Position>
              <LatitudeDegrees>40.49443610943853855133056640625</LatitudeDegrees>
              <LongitudeDegrees>-3.3495370857417583465576171875</LongitudeDegrees>
            </Position>
            <AltitudeMeters>642.20001220703125</AltitudeMeters>
            <DistanceMeters>75515.603719271</DistanceMeters>
          </Trackpoint>
          <Trackpoint>
            <Time>2019-07-19T11:54:18.000Z</Time>
            <Position>
              <LatitudeDegrees>40.4943703114986419677734375</LatitudeDegrees>
              <LongitudeDegrees>-3.3494764007627964019775390625</LongitudeDegrees>
            </Position>
            <AltitudeMeters>643.4000244140625</AltitudeMeters>
            <DistanceMeters>75524.549362761</DistanceMeters>
          </Trackpoint>
          <Trackpoint>
            <Time>2019-07-19T11:54:20.000Z</Time>
            <Position>
              <LatitudeDegrees>40.494306273758411407470703125</LatitudeDegrees>
              <LongitudeDegrees>-3.3494150452315807342529296875</LongitudeDegrees>
            </Position>
            <AltitudeMeters>644.4000244140625</AltitudeMeters>
            <DistanceMeters>75533.367923773</DistanceMeters>
          </Trackpoint>
          <Trackpoint>
            <Time>2019-07-19T11:54:23.000Z</Time>
            <Position>
              <LatitudeDegrees>40.4942165873944759368896484375</LatitudeDegrees>
              <LongitudeDegrees>-3.34932594560086727142333984375</LongitudeDegrees>
            </Position>
            <AltitudeMeters>645.4000244140625</AltitudeMeters>
            <DistanceMeters>75545.87865177</DistanceMeters>
          </Trackpoint>
          <Trackpoint>
            <Time>2019-07-19T11:54:24.000Z</Time>
            <Position>
              <LatitudeDegrees>40.4941823892295360565185546875</LatitudeDegrees>
              <LongitudeDegrees>-3.3492956869304180145263671875</LongitudeDegrees>
            </Position>
            <AltitudeMeters>645.79998779296875</AltitudeMeters>
            <DistanceMeters>75550.465598261</DistanceMeters>
          </Trackpoint>
          <Trackpoint>
            <Time>2019-07-19T11:54:35.000Z</Time>
            <Position>
              <LatitudeDegrees>40.4937347956001758575439453125</LatitudeDegrees>
              <LongitudeDegrees>-3.34882068447768688201904296875</LongitudeDegrees>
            </Position>
            <AltitudeMeters>645.79998779296875</AltitudeMeters>
            <DistanceMeters>75614.483566006</DistanceMeters>
          </Trackpoint>
          <Trackpoint>
            <Time>2019-07-19T11:54:36.000Z</Time>
            <Position>
              <LatitudeDegrees>40.49369296990334987640380859375</LatitudeDegrees>
              <LongitudeDegrees>-3.348791263997554779052734375</LongitudeDegrees>
            </Position>
            <AltitudeMeters>645.79998779296875</AltitudeMeters>
            <DistanceMeters>75619.762468913</DistanceMeters>
          </Trackpoint>
          <Trackpoint>
            <Time>2019-07-19T11:54:38.000Z</Time>
            <Position>
              <LatitudeDegrees>40.49359984695911407470703125</LatitudeDegrees>
              <LongitudeDegrees>-3.3487843908369541168212890625</LongitudeDegrees>
            </Position>
            <AltitudeMeters>645.79998779296875</AltitudeMeters>
            <DistanceMeters>75630.143457897</DistanceMeters>
          </Trackpoint>
          <Trackpoint>
            <Time>2019-07-19T11:54:40.000Z</Time>
            <Position>
              <LatitudeDegrees>40.49350328743457794189453125</LatitudeDegrees>
              <LongitudeDegrees>-3.34881096147000789642333984375</LongitudeDegrees>
            </Position>
            <AltitudeMeters>646</AltitudeMeters>
            <DistanceMeters>75641.123053542</DistanceMeters>
          </Trackpoint>
          <Trackpoint>
            <Time>2019-07-19T11:54:42.000Z</Time>
            <Position>
              <LatitudeDegrees>40.49340966157615184783935546875</LatitudeDegrees>
              <LongitudeDegrees>-3.34880140610039234161376953125</LongitudeDegrees>
            </Position>
            <AltitudeMeters>646</AltitudeMeters>
            <DistanceMeters>75651.574696223</DistanceMeters>
          </Trackpoint>
          <Trackpoint>
            <Time>2019-07-19T11:54:44.000Z</Time>
            <Position>
              <LatitudeDegrees>40.49333162605762481689453125</LatitudeDegrees>
              <LongitudeDegrees>-3.34872563369572162628173828125</LongitudeDegrees>
            </Position>
            <AltitudeMeters>646.20001220703125</AltitudeMeters>
            <DistanceMeters>75662.372256919</DistanceMeters>
          </Trackpoint>
          <Trackpoint>
            <Time>2019-07-19T11:54:46.000Z</Time>
            <Position>
              <LatitudeDegrees>40.49328762106597423553466796875</LatitudeDegrees>
              <LongitudeDegrees>-3.34859621711075305938720703125</LongitudeDegrees>
            </Position>
            <AltitudeMeters>646.5999755859375</AltitudeMeters>
            <DistanceMeters>75674.371613939</DistanceMeters>
          </Trackpoint>
          <Trackpoint>
            <Time>2019-07-19T11:54:48.000Z</Time>
            <Position>
              <LatitudeDegrees>40.4932811670005321502685546875</LatitudeDegrees>
              <LongitudeDegrees>-3.34845690988004207611083984375</LongitudeDegrees>
            </Position>
            <AltitudeMeters>646.5999755859375</AltitudeMeters>
            <DistanceMeters>75686.184776147</DistanceMeters>
          </Trackpoint>
          <Trackpoint>
            <Time>2019-07-19T11:54:50.000Z</Time>
            <Position>
              <LatitudeDegrees>40.49327638931572437286376953125</LatitudeDegrees>
              <LongitudeDegrees>-3.34832950495183467864990234375</LongitudeDegrees>
            </Position>
            <AltitudeMeters>646.5999755859375</AltitudeMeters>
            <DistanceMeters>75696.981918681</DistanceMeters>
          </Trackpoint>
          <Trackpoint>
            <Time>2019-07-19T11:54:52.000Z</Time>
            <Position>
              <LatitudeDegrees>40.493215620517730712890625</LatitudeDegrees>
              <LongitudeDegrees>-3.348225317895412445068359375</LongitudeDegrees>
            </Position>
            <AltitudeMeters>646.4000244140625</AltitudeMeters>
            <DistanceMeters>75708.096388788</DistanceMeters>
          </Trackpoint>
          <Trackpoint>
            <Time>2019-07-19T11:54:54.000Z</Time>
            <Position>
              <LatitudeDegrees>40.4931333102285861968994140625</LatitudeDegrees>
              <LongitudeDegrees>-3.34812247194349765777587890625</LongitudeDegrees>
            </Position>
            <AltitudeMeters>646.4000244140625</AltitudeMeters>
            <DistanceMeters>75720.734227292</DistanceMeters>
          </Trackpoint>
          <Trackpoint>
            <Time>2019-07-19T11:54:57.000Z</Time>
            <Position>
              <LatitudeDegrees>40.49302048981189727783203125</LatitudeDegrees>
              <LongitudeDegrees>-3.347955085337162017822265625</LongitudeDegrees>
            </Position>
            <AltitudeMeters>645.4000244140625</AltitudeMeters>
            <DistanceMeters>75739.666258198</DistanceMeters>
          </Trackpoint>
          <Trackpoint>
            <Time>2019-07-19T11:55:07.000Z</Time>
            <Position>
              <LatitudeDegrees>40.49270340241491794586181640625</LatitudeDegrees>
              <LongitudeDegrees>-3.3473604731261730194091796875</LongitudeDegrees>
            </Position>
            <AltitudeMeters>645</AltitudeMeters>
            <DistanceMeters>75801.137305598</DistanceMeters>
          </Trackpoint>
          <Trackpoint>
            <Time>2019-07-19T11:55:11.000Z</Time>
            <Position>
              <LatitudeDegrees>40.49258052371442317962646484375</LatitudeDegrees>
              <LongitudeDegrees>-3.3471271209418773651123046875</LongitudeDegrees>
            </Position>
            <AltitudeMeters>645.79998779296875</AltitudeMeters>
            <DistanceMeters>75825.16196847</DistanceMeters>
          </Trackpoint>
          <Trackpoint>
            <Time>2019-07-19T11:55:16.000Z</Time>
            <Position>
              <LatitudeDegrees>40.49236527644097805023193359375</LatitudeDegrees>
              <LongitudeDegrees>-3.346925787627696990966796875</LongitudeDegrees>
            </Position>
            <AltitudeMeters>646</AltitudeMeters>
            <DistanceMeters>75854.562103628</DistanceMeters>
          </Trackpoint>
          <Trackpoint>
            <Time>2019-07-19T11:55:19.000Z</Time>
            <Position>
              <LatitudeDegrees>40.4922247119247913360595703125</LatitudeDegrees>
              <LongitudeDegrees>-3.3468454889953136444091796875</LongitudeDegrees>
            </Position>
            <AltitudeMeters>645.79998779296875</AltitudeMeters>
            <DistanceMeters>75871.619862074</DistanceMeters>
          </Trackpoint>
          <Trackpoint>
            <Time>2019-07-19T11:55:31.000Z</Time>
            <Position>
              <LatitudeDegrees>40.49172825179994106292724609375</LatitudeDegrees>
              <LongitudeDegrees>-3.346451707184314727783203125</LongitudeDegrees>
            </Position>
            <AltitudeMeters>645.79998779296875</AltitudeMeters>
            <DistanceMeters>75936.151537576</DistanceMeters>
          </Trackpoint>
          <Trackpoint>
            <Time>2019-07-19T11:55:36.000Z</Time>
            <Position>
              <LatitudeDegrees>40.4915028624236583709716796875</LatitudeDegrees>
              <LongitudeDegrees>-3.3462768606841564178466796875</LongitudeDegrees>
            </Position>
            <AltitudeMeters>645.5999755859375</AltitudeMeters>
            <DistanceMeters>75965.277961862</DistanceMeters>
          </Trackpoint>
          <Trackpoint>
            <Time>2019-07-19T11:55:46.000Z</Time>
            <Position>
              <LatitudeDegrees>40.4910331405699253082275390625</LatitudeDegrees>
              <LongitudeDegrees>-3.3458666503429412841796875</LongitudeDegrees>
            </Position>
            <AltitudeMeters>646</AltitudeMeters>
            <DistanceMeters>76028.039060205</DistanceMeters>
          </Trackpoint>
          <Trackpoint>
            <Time>2019-07-19T11:55:48.000Z</Time>
            <Position>
              <LatitudeDegrees>40.49093448556959629058837890625</LatitudeDegrees>
              <LongitudeDegrees>-3.34579892456531524658203125</LongitudeDegrees>
            </Position>
            <AltitudeMeters>646</AltitudeMeters>
            <DistanceMeters>76040.425747771</DistanceMeters>
          </Trackpoint>
          <Trackpoint>
            <Time>2019-07-19T11:55:56.000Z</Time>
            <Position>
              <LatitudeDegrees>40.4905754886567592620849609375</LatitudeDegrees>
              <LongitudeDegrees>-3.3455070666968822479248046875</LongitudeDegrees>
            </Position>
            <AltitudeMeters>645.5999755859375</AltitudeMeters>
            <DistanceMeters>76087.403364807</DistanceMeters>
          </Trackpoint>
          <Trackpoint>
            <Time>2019-07-19T11:56:01.000Z</Time>
            <Position>
              <LatitudeDegrees>40.4903577268123626708984375</LatitudeDegrees>
              <LongitudeDegrees>-3.34533817134797573089599609375</LongitudeDegrees>
            </Position>
            <AltitudeMeters>645.79998779296875</AltitudeMeters>
            <DistanceMeters>76115.542827191</DistanceMeters>
          </Trackpoint>
          <Trackpoint>
            <Time>2019-07-19T11:56:07.000Z</Time>
            <Position>
              <LatitudeDegrees>40.4900963790714740753173828125</LatitudeDegrees>
              <LongitudeDegrees>-3.34513868205249309539794921875</LongitudeDegrees>
            </Position>
            <AltitudeMeters>645.5999755859375</AltitudeMeters>
            <DistanceMeters>76149.177451864</DistanceMeters>
          </Trackpoint>
          <Trackpoint>
            <Time>2019-07-19T11:56:09.000Z</Time>
            <Position>
              <LatitudeDegrees>40.49001163803040981292724609375</LatitudeDegrees>
              <LongitudeDegrees>-3.34514220245182514190673828125</LongitudeDegrees>
            </Position>
            <AltitudeMeters>645.5999755859375</AltitudeMeters>
            <DistanceMeters>76158.614327082</DistanceMeters>
          </Trackpoint>
          <Trackpoint>
            <Time>2019-07-19T11:56:11.000Z</Time>
            <Position>
              <LatitudeDegrees>40.48992413096129894256591796875</LatitudeDegrees>
              <LongitudeDegrees>-3.34519886411726474761962890625</LongitudeDegrees>
            </Position>
            <AltitudeMeters>645.5999755859375</AltitudeMeters>
            <DistanceMeters>76169.470687326</DistanceMeters>
          </Trackpoint>
          <Trackpoint>
            <Time>2019-07-19T11:56:13.000Z</Time>
            <Position>
              <LatitudeDegrees>40.4898579977452754974365234375</LatitudeDegrees>
              <LongitudeDegrees>-3.34531302563846111297607421875</LongitudeDegrees>
            </Position>
            <AltitudeMeters>645.5999755859375</AltitudeMeters>
            <DistanceMeters>76181.618134761</DistanceMeters>
          </Trackpoint>
          <Trackpoint>
            <Time>2019-07-19T11:56:23.000Z</Time>
            <Position>
              <LatitudeDegrees>40.4896279983222484588623046875</LatitudeDegrees>
              <LongitudeDegrees>-3.34595943801105022430419921875</LongitudeDegrees>
            </Position>
            <AltitudeMeters>645.4000244140625</AltitudeMeters>
            <DistanceMeters>76242.027626839</DistanceMeters>
          </Trackpoint>
          <Trackpoint>
            <Time>2019-07-19T11:56:27.000Z</Time>
            <Position>
              <LatitudeDegrees>40.489535294473171234130859375</LatitudeDegrees>
              <LongitudeDegrees>-3.34621458314359188079833984375</LongitudeDegrees>
            </Position>
            <AltitudeMeters>644.20001220703125</AltitudeMeters>
            <DistanceMeters>76265.963420748</DistanceMeters>
          </Trackpoint>
          <Trackpoint>
            <Time>2019-07-19T11:56:38.000Z</Time>
            <Position>
              <LatitudeDegrees>40.4893178679049015045166015625</LatitudeDegrees>
              <LongitudeDegrees>-3.34686242043972015380859375</LongitudeDegrees>
            </Position>
            <AltitudeMeters>644.79998779296875</AltitudeMeters>
            <DistanceMeters>76325.903964251</DistanceMeters>
          </Trackpoint>
          <Trackpoint>
            <Time>2019-07-19T11:56:39.000Z</Time>
            <Position>
              <LatitudeDegrees>40.4892923869192600250244140625</LatitudeDegrees>
              <LongitudeDegrees>-3.3469148911535739898681640625</LongitudeDegrees>
            </Position>
            <AltitudeMeters>644.79998779296875</AltitudeMeters>
            <DistanceMeters>76331.173450475</DistanceMeters>
          </Trackpoint>
          <Trackpoint>
            <Time>2019-07-19T11:56:43.000Z</Time>
            <Position>
              <LatitudeDegrees>40.4891887865960597991943359375</LatitudeDegrees>
              <LongitudeDegrees>-3.34712267853319644927978515625</LongitudeDegrees>
            </Position>
            <AltitudeMeters>645.4000244140625</AltitudeMeters>
            <DistanceMeters>76352.204861138</DistanceMeters>
          </Trackpoint>
          <Trackpoint>
            <Time>2019-07-19T11:56:45.000Z</Time>
            <Position>
              <LatitudeDegrees>40.48913505859673023223876953125</LatitudeDegrees>
              <LongitudeDegrees>-3.34722694940865039825439453125</LongitudeDegrees>
            </Position>
            <AltitudeMeters>646.4000244140625</AltitudeMeters>
            <DistanceMeters>76362.865655767</DistanceMeters>
          </Trackpoint>
          <Trackpoint>
            <Time>2019-07-19T11:56:56.000Z</Time>
            <Position>
              <LatitudeDegrees>40.48888611607253551483154296875</LatitudeDegrees>
              <LongitudeDegrees>-3.3478265069425106048583984375</LongitudeDegrees>
            </Position>
            <AltitudeMeters>646.79998779296875</AltitudeMeters>
            <DistanceMeters>76420.688376855</DistanceMeters>
          </Trackpoint>
          <Trackpoint>
            <Time>2019-07-19T11:56:59.000Z</Time>
            <Position>
              <LatitudeDegrees>40.4888159595429897308349609375</LatitudeDegrees>
              <LongitudeDegrees>-3.34798090159893035888671875</LongitudeDegrees>
            </Position>
            <AltitudeMeters>644.5999755859375</AltitudeMeters>
            <DistanceMeters>76435.912830939</DistanceMeters>
          </Trackpoint>
          <Trackpoint>
            <Time>2019-07-19T11:57:01.000Z</Time>
            <Position>
              <LatitudeDegrees>40.48876583576202392578125</LatitudeDegrees>
              <LongitudeDegrees>-3.3480866812169551849365234375</LongitudeDegrees>
            </Position>
            <AltitudeMeters>643.4000244140625</AltitudeMeters>
            <DistanceMeters>76446.462936259</DistanceMeters>
          </Trackpoint>
          <Trackpoint>
            <Time>2019-07-19T11:57:03.000Z</Time>
            <Position>
              <LatitudeDegrees>40.48871277831494808197021484375</LatitudeDegrees>
              <LongitudeDegrees>-3.34819003008306026458740234375</LongitudeDegrees>
            </Position>
            <AltitudeMeters>643</AltitudeMeters>
            <DistanceMeters>76457.017748104</DistanceMeters>
          </Trackpoint>
          <Trackpoint>
            <Time>2019-07-19T11:57:15.000Z</Time>
            <Position>
              <LatitudeDegrees>40.4884059168398380279541015625</LatitudeDegrees>
              <LongitudeDegrees>-3.3488299883902072906494140625</LongitudeDegrees>
            </Position>
            <AltitudeMeters>643.5999755859375</AltitudeMeters>
            <DistanceMeters>76521.057575694</DistanceMeters>
          </Trackpoint>
          <Trackpoint>
            <Time>2019-07-19T11:57:17.000Z</Time>
            <Position>
              <LatitudeDegrees>40.4883593134582042694091796875</LatitudeDegrees>
              <LongitudeDegrees>-3.3489389531314373016357421875</LongitudeDegrees>
            </Position>
            <AltitudeMeters>643.4000244140625</AltitudeMeters>
            <DistanceMeters>76531.640156101</DistanceMeters>
          </Trackpoint>
          <Trackpoint>
            <Time>2019-07-19T11:57:28.000Z</Time>
            <Position>
              <LatitudeDegrees>40.48801121301949024200439453125</LatitudeDegrees>
              <LongitudeDegrees>-3.349480926990509033203125</LongitudeDegrees>
            </Position>
            <AltitudeMeters>642.4000244140625</AltitudeMeters>
            <DistanceMeters>76591.68922042</DistanceMeters>
          </Trackpoint>
          <Trackpoint>
            <Time>2019-07-19T11:57:29.000Z</Time>
            <Position>
              <LatitudeDegrees>40.487983636558055877685546875</LatitudeDegrees>
              <LongitudeDegrees>-3.34953633137047290802001953125</LongitudeDegrees>
            </Position>
            <AltitudeMeters>642.4000244140625</AltitudeMeters>
            <DistanceMeters>76597.293380114</DistanceMeters>
          </Trackpoint>
          <Trackpoint>
            <Time>2019-07-19T11:57:35.000Z</Time>
            <Position>
              <LatitudeDegrees>40.4878580756485462188720703125</LatitudeDegrees>
              <LongitudeDegrees>-3.34984042681753635406494140625</LongitudeDegrees>
            </Position>
            <AltitudeMeters>642.5999755859375</AltitudeMeters>
            <DistanceMeters>76626.584122046</DistanceMeters>
          </Trackpoint>
          <Trackpoint>
            <Time>2019-07-19T11:57:46.000Z</Time>
            <Position>
              <LatitudeDegrees>40.48746219836175441741943359375</LatitudeDegrees>
              <LongitudeDegrees>-3.3503766171634197235107421875</LongitudeDegrees>
            </Position>
            <AltitudeMeters>643.79998779296875</AltitudeMeters>
            <DistanceMeters>76689.842228842</DistanceMeters>
          </Trackpoint>
          <Trackpoint>
            <Time>2019-07-19T11:57:47.000Z</Time>
            <Position>
              <LatitudeDegrees>40.4874222166836261749267578125</LatitudeDegrees>
              <LongitudeDegrees>-3.35040989331901073455810546875</LongitudeDegrees>
            </Position>
            <AltitudeMeters>644.20001220703125</AltitudeMeters>
            <DistanceMeters>76695.110001133</DistanceMeters>
          </Trackpoint>
          <Trackpoint>
            <Time>2019-07-19T11:57:48.000Z</Time>
            <Position>
              <LatitudeDegrees>40.48737904988229274749755859375</LatitudeDegrees>
              <LongitudeDegrees>-3.3504389785230159759521484375</LongitudeDegrees>
            </Position>
            <AltitudeMeters>644.4000244140625</AltitudeMeters>
            <DistanceMeters>76700.509826764</DistanceMeters>
          </Trackpoint>
          <Trackpoint>
            <Time>2019-07-19T11:57:53.000Z</Time>
            <Position>
              <LatitudeDegrees>40.48716790974140167236328125</LatitudeDegrees>
              <LongitudeDegrees>-3.35051030851900577545166015625</LongitudeDegrees>
            </Position>
            <AltitudeMeters>644.5999755859375</AltitudeMeters>
            <DistanceMeters>76724.773479907</DistanceMeters>
          </Trackpoint>
          <Trackpoint>
            <Time>2019-07-19T11:58:07.000Z</Time>
            <Position>
              <LatitudeDegrees>40.4866785742342472076416015625</LatitudeDegrees>
              <LongitudeDegrees>-3.35081943310797214508056640625</LongitudeDegrees>
            </Position>
            <AltitudeMeters>643.4000244140625</AltitudeMeters>
            <DistanceMeters>76785.197619356</DistanceMeters>
          </Trackpoint>
          <Trackpoint>
            <Time>2019-07-19T11:58:19.000Z</Time>
            <Position>
              <LatitudeDegrees>40.48618714325129985809326171875</LatitudeDegrees>
              <LongitudeDegrees>-3.35117734037339687347412109375</LongitudeDegrees>
            </Position>
            <AltitudeMeters>643</AltitudeMeters>
            <DistanceMeters>76847.725486246</DistanceMeters>
          </Trackpoint>
          <Trackpoint>
            <Time>2019-07-19T11:58:23.000Z</Time>
            <Position>
              <LatitudeDegrees>40.48601330257952213287353515625</LatitudeDegrees>
              <LongitudeDegrees>-3.35126887075603008270263671875</LongitudeDegrees>
            </Position>
            <AltitudeMeters>642.5999755859375</AltitudeMeters>
            <DistanceMeters>76868.567771567</DistanceMeters>
          </Trackpoint>
          <Trackpoint>
            <Time>2019-07-19T11:58:24.000Z</Time>
            <Position>
              <LatitudeDegrees>40.4859748296439647674560546875</LatitudeDegrees>
              <LongitudeDegrees>-3.3512825332581996917724609375</LongitudeDegrees>
            </Position>
            <AltitudeMeters>642.4000244140625</AltitudeMeters>
            <DistanceMeters>76873.003595794</DistanceMeters>
          </Trackpoint>
          <Trackpoint>
            <Time>2019-07-19T11:58:25.000Z</Time>
            <Position>
              <LatitudeDegrees>40.48593937419354915618896484375</LatitudeDegrees>
              <LongitudeDegrees>-3.3513066731393337249755859375</LongitudeDegrees>
            </Position>
            <AltitudeMeters>642.4000244140625</AltitudeMeters>
            <DistanceMeters>76877.447555422</DistanceMeters>
          </Trackpoint>
          <Trackpoint>
            <Time>2019-07-19T11:58:29.000Z</Time>
            <Position>
              <LatitudeDegrees>40.485813729465007781982421875</LatitudeDegrees>
              <LongitudeDegrees>-3.3515178970992565155029296875</LongitudeDegrees>
            </Position>
            <AltitudeMeters>642.5999755859375</AltitudeMeters>
            <DistanceMeters>76900.147207888</DistanceMeters>
          </Trackpoint>
          <Trackpoint>
            <Time>2019-07-19T11:58:31.000Z</Time>
            <Position>
              <LatitudeDegrees>40.48571976833045482635498046875</LatitudeDegrees>
              <LongitudeDegrees>-3.35154597647488117218017578125</LongitudeDegrees>
            </Position>
            <AltitudeMeters>642.4000244140625</AltitudeMeters>
            <DistanceMeters>76910.872184053</DistanceMeters>
          </Trackpoint>
          <Trackpoint>
            <Time>2019-07-19T11:58:34.000Z</Time>
            <Position>
              <LatitudeDegrees>40.485660172998905181884765625</LatitudeDegrees>
              <LongitudeDegrees>-3.3514079265296459197998046875</LongitudeDegrees>
            </Position>
            <AltitudeMeters>642.5999755859375</AltitudeMeters>
            <DistanceMeters>76924.30964693</DistanceMeters>
          </Trackpoint>
          <Trackpoint>
            <Time>2019-07-19T11:58:36.000Z</Time>
            <Position>
              <LatitudeDegrees>40.48566780053079128265380859375</LatitudeDegrees>
              <LongitudeDegrees>-3.35127423517405986785888671875</LongitudeDegrees>
            </Position>
            <AltitudeMeters>642.5999755859375</AltitudeMeters>
            <DistanceMeters>76935.658876437</DistanceMeters>
          </Trackpoint>
          <Trackpoint>
            <Time>2019-07-19T11:58:38.000Z</Time>
            <Position>
              <LatitudeDegrees>40.4856271483004093170166015625</LatitudeDegrees>
              <LongitudeDegrees>-3.35116527043282985687255859375</LongitudeDegrees>
            </Position>
            <AltitudeMeters>642.79998779296875</AltitudeMeters>
            <DistanceMeters>76945.933193622</DistanceMeters>
          </Trackpoint>
          <Trackpoint>
            <Time>2019-07-19T11:58:43.000Z</Time>
            <Position>
              <LatitudeDegrees>40.48543528653681278228759765625</LatitudeDegrees>
              <LongitudeDegrees>-3.35098019801080226898193359375</LongitudeDegrees>
            </Position>
            <AltitudeMeters>642.79998779296875</AltitudeMeters>
            <DistanceMeters>76972.418555586</DistanceMeters>
          </Trackpoint>
          <Trackpoint>
            <Time>2019-07-19T11:58:45.000Z</Time>
            <Position>
              <LatitudeDegrees>40.485379211604595184326171875</LatitudeDegrees>
              <LongitudeDegrees>-3.3509529568254947662353515625</LongitudeDegrees>
            </Position>
            <AltitudeMeters>643.20001220703125</AltitudeMeters>
            <DistanceMeters>76979.071782977</DistanceMeters>
          </Trackpoint>
          <Trackpoint>
            <Time>2019-07-19T11:59:02.000Z</Time>
            <Position>
              <LatitudeDegrees>40.485127754509449005126953125</LatitudeDegrees>
              <LongitudeDegrees>-3.3513294719159603118896484375</LongitudeDegrees>
            </Position>
            <AltitudeMeters>643.20001220703125</AltitudeMeters>
            <DistanceMeters>77021.488838641</DistanceMeters>
          </Trackpoint>
          <Trackpoint>
            <Time>2019-07-19T11:59:04.000Z</Time>
            <Position>
              <LatitudeDegrees>40.48507637344300746917724609375</LatitudeDegrees>
              <LongitudeDegrees>-3.35131128318607807159423828125</LongitudeDegrees>
            </Position>
            <AltitudeMeters>643.20001220703125</AltitudeMeters>
            <DistanceMeters>77027.411069378</DistanceMeters>
          </Trackpoint>
          <Trackpoint>
            <Time>2019-07-19T11:59:07.000Z</Time>
            <Position>
              <LatitudeDegrees>40.4849596135318279266357421875</LatitudeDegrees>
              <LongitudeDegrees>-3.3512899093329906463623046875</LongitudeDegrees>
            </Position>
            <AltitudeMeters>643.4000244140625</AltitudeMeters>
            <DistanceMeters>77040.531984263</DistanceMeters>
          </Trackpoint>
          <Trackpoint>
            <Time>2019-07-19T11:59:19.000Z</Time>
            <Position>
              <LatitudeDegrees>40.48452819697558879852294921875</LatitudeDegrees>
              <LongitudeDegrees>-3.35171964950859546661376953125</LongitudeDegrees>
            </Position>
            <AltitudeMeters>643.5999755859375</AltitudeMeters>
            <DistanceMeters>77100.774274578</DistanceMeters>
          </Trackpoint>
          <Trackpoint>
            <Time>2019-07-19T11:59:20.000Z</Time>
            <Position>
              <LatitudeDegrees>40.4844976030290126800537109375</LatitudeDegrees>
              <LongitudeDegrees>-3.351772539317607879638671875</LongitudeDegrees>
            </Position>
            <AltitudeMeters>643.79998779296875</AltitudeMeters>
            <DistanceMeters>77106.399342387</DistanceMeters>
          </Trackpoint>
          <Trackpoint>
            <Time>2019-07-19T11:59:25.000Z</Time>
            <Position>
              <LatitudeDegrees>40.4844258539378643035888671875</LatitudeDegrees>
              <LongitudeDegrees>-3.3519453741610050201416015625</LongitudeDegrees>
            </Position>
            <AltitudeMeters>644</AltitudeMeters>
            <DistanceMeters>77123.067797385</DistanceMeters>
          </Trackpoint>
          <Trackpoint>
            <Time>2019-07-19T11:59:30.000Z</Time>
            <Position>
              <LatitudeDegrees>40.484196357429027557373046875</LatitudeDegrees>
              <LongitudeDegrees>-3.35187722928822040557861328125</LongitudeDegrees>
            </Position>
            <AltitudeMeters>643.5999755859375</AltitudeMeters>
            <DistanceMeters>77149.254511672</DistanceMeters>
          </Trackpoint>
          <Trackpoint>
            <Time>2019-07-19T11:59:43.000Z</Time>
            <Position>
              <LatitudeDegrees>40.48383434303104877471923828125</LatitudeDegrees>
              <LongitudeDegrees>-3.35241853259503841400146484375</LongitudeDegrees>
            </Position>
            <AltitudeMeters>644</AltitudeMeters>
            <DistanceMeters>77210.27379846</DistanceMeters>
          </Trackpoint>
          <Trackpoint>
            <Time>2019-07-19T11:59:47.000Z</Time>
            <Position>
              <LatitudeDegrees>40.48368908464908599853515625</LatitudeDegrees>
              <LongitudeDegrees>-3.35245876573026180267333984375</LongitudeDegrees>
            </Position>
            <AltitudeMeters>643.20001220703125</AltitudeMeters>
            <DistanceMeters>77226.79642752</DistanceMeters>
          </Trackpoint>
          <Trackpoint>
            <Time>2019-07-19T12:00:00.000Z</Time>
            <Position>
              <LatitudeDegrees>40.48344500362873077392578125</LatitudeDegrees>
              <LongitudeDegrees>-3.352778367698192596435546875</LongitudeDegrees>
            </Position>
            <AltitudeMeters>643.20001220703125</AltitudeMeters>
            <DistanceMeters>77265.137910992</DistanceMeters>
          </Trackpoint>
        </Track>
      </Lap>
    </Activity>
  </Activities>
</TrainingCenterDatabase>
